<?xml version="1.0" encoding="UTF-8" standalone="no" ?>
<gpx xmlns="http://www.topografix.com/GPX/1/1" xmlns:xsi="http://www.w3.org/2001/XMLSchema-instance" xsi:schemaLocation="http://www.topografix.com/GPX/1/1 http://www.topografix.com/GPX/1/1/gpx.xsd" version="1.1" creator="VisuGPX - https://www.visugpx.com">
  <metadata>
    <name>2018-08-02 Bike ride-Chatillon-Limas 39k</name>
    <desc><![CDATA[2018-08-02 Bike ride-Chatillon-Limas 39k]]></desc>
  </metadata>
  <wpt lat="45.92458" lon="4.73707">
    <ele>174</ele>
    <name><![CDATA[2018-08-02 10:14 (Start)]]></name>
  </wpt>
  <wpt lat="45.92458" lon="4.73713">
    <ele>174</ele>
    <name><![CDATA[2018-08-02 10:14 (End)]]></name>
  </wpt>
  <trk>
    <name><![CDATA[2018-08-02 10:14]]></name>
    <trkseg>
      <trkpt lat="45.92458" lon="4.73707">
        <ele>174</ele>
        <time>2018-08-02T08:14:46.151Z</time>
      </trkpt>
      <trkpt lat="45.92456" lon="4.73708">
        <ele>174</ele>
        <time>2018-08-02T08:14:52.098Z</time>
      </trkpt>
      <trkpt lat="45.92455" lon="4.73707">
        <ele>174</ele>
        <time>2018-08-02T08:14:52Z</time>
      </trkpt>
      <trkpt lat="45.92456" lon="4.73707">
        <ele>174</ele>
        <time>2018-08-02T08:14:53Z</time>
      </trkpt>
      <trkpt lat="45.92456" lon="4.73708">
        <ele>174</ele>
        <time>2018-08-02T08:14:54Z</time>
      </trkpt>
      <trkpt lat="45.92464" lon="4.73707">
        <ele>174</ele>
        <time>2018-08-02T08:15:20Z</time>
      </trkpt>
      <trkpt lat="45.92465" lon="4.73705">
        <ele>174</ele>
        <time>2018-08-02T08:15:21Z</time>
      </trkpt>
      <trkpt lat="45.92467" lon="4.73694">
        <ele>174</ele>
        <time>2018-08-02T08:15:24Z</time>
      </trkpt>
      <trkpt lat="45.92468" lon="4.7369">
        <ele>174</ele>
        <time>2018-08-02T08:15:25Z</time>
      </trkpt>
      <trkpt lat="45.92468" lon="4.73686">
        <ele>174</ele>
        <time>2018-08-02T08:15:26Z</time>
      </trkpt>
      <trkpt lat="45.9247" lon="4.73673">
        <ele>174</ele>
        <time>2018-08-02T08:15:27Z</time>
      </trkpt>
      <trkpt lat="45.9247" lon="4.73661">
        <ele>174</ele>
        <time>2018-08-02T08:15:29Z</time>
      </trkpt>
      <trkpt lat="45.92471" lon="4.73655">
        <ele>174</ele>
        <time>2018-08-02T08:15:30Z</time>
      </trkpt>
      <trkpt lat="45.92471" lon="4.73648">
        <ele>174</ele>
        <time>2018-08-02T08:15:31Z</time>
      </trkpt>
      <trkpt lat="45.9247" lon="4.73639">
        <ele>174</ele>
        <time>2018-08-02T08:15:32Z</time>
      </trkpt>
      <trkpt lat="45.92469" lon="4.73634">
        <ele>174</ele>
        <time>2018-08-02T08:15:33Z</time>
      </trkpt>
      <trkpt lat="45.92468" lon="4.73626">
        <ele>174</ele>
        <time>2018-08-02T08:15:34Z</time>
      </trkpt>
      <trkpt lat="45.92467" lon="4.7362">
        <ele>174</ele>
        <time>2018-08-02T08:15:35Z</time>
      </trkpt>
      <trkpt lat="45.92467" lon="4.73612">
        <ele>174</ele>
        <time>2018-08-02T08:15:36Z</time>
      </trkpt>
      <trkpt lat="45.92465" lon="4.736">
        <ele>174</ele>
        <time>2018-08-02T08:15:38Z</time>
      </trkpt>
      <trkpt lat="45.92465" lon="4.73591">
        <ele>174</ele>
        <time>2018-08-02T08:15:39Z</time>
      </trkpt>
      <trkpt lat="45.92465" lon="4.73585">
        <ele>174</ele>
        <time>2018-08-02T08:15:40Z</time>
      </trkpt>
      <trkpt lat="45.92465" lon="4.73577">
        <ele>173</ele>
        <time>2018-08-02T08:15:41Z</time>
      </trkpt>
      <trkpt lat="45.92465" lon="4.7357">
        <ele>173</ele>
        <time>2018-08-02T08:15:42Z</time>
      </trkpt>
      <trkpt lat="45.92466" lon="4.73564">
        <ele>173</ele>
        <time>2018-08-02T08:15:43Z</time>
      </trkpt>
      <trkpt lat="45.92464" lon="4.73554">
        <ele>173</ele>
        <time>2018-08-02T08:15:45Z</time>
      </trkpt>
      <trkpt lat="45.92464" lon="4.73551">
        <ele>173</ele>
        <time>2018-08-02T08:15:46Z</time>
      </trkpt>
      <trkpt lat="45.92463" lon="4.73548">
        <ele>173</ele>
        <time>2018-08-02T08:15:47Z</time>
      </trkpt>
      <trkpt lat="45.92456" lon="4.73541">
        <ele>173</ele>
        <time>2018-08-02T08:15:48Z</time>
      </trkpt>
      <trkpt lat="45.92449" lon="4.73545">
        <ele>174</ele>
        <time>2018-08-02T08:15:50.557Z</time>
      </trkpt>
      <trkpt lat="45.92446" lon="4.73548">
        <ele>174</ele>
        <time>2018-08-02T08:15:51Z</time>
      </trkpt>
      <trkpt lat="45.92439" lon="4.73554">
        <ele>174</ele>
        <time>2018-08-02T08:15:53Z</time>
      </trkpt>
      <trkpt lat="45.92435" lon="4.73556">
        <ele>174</ele>
        <time>2018-08-02T08:15:54Z</time>
      </trkpt>
      <trkpt lat="45.92429" lon="4.73559">
        <ele>174</ele>
        <time>2018-08-02T08:15:55Z</time>
      </trkpt>
      <trkpt lat="45.92425" lon="4.73561">
        <ele>174</ele>
        <time>2018-08-02T08:15:56Z</time>
      </trkpt>
      <trkpt lat="45.9242" lon="4.73563">
        <ele>174</ele>
        <time>2018-08-02T08:15:57Z</time>
      </trkpt>
      <trkpt lat="45.92415" lon="4.73565">
        <ele>173</ele>
        <time>2018-08-02T08:15:58Z</time>
      </trkpt>
      <trkpt lat="45.92409" lon="4.73568">
        <ele>173</ele>
        <time>2018-08-02T08:15:59Z</time>
      </trkpt>
      <trkpt lat="45.92404" lon="4.73569">
        <ele>173</ele>
        <time>2018-08-02T08:16:00Z</time>
      </trkpt>
      <trkpt lat="45.92396" lon="4.73575">
        <ele>173</ele>
        <time>2018-08-02T08:16:02Z</time>
      </trkpt>
      <trkpt lat="45.9239" lon="4.73578">
        <ele>173</ele>
        <time>2018-08-02T08:16:03Z</time>
      </trkpt>
      <trkpt lat="45.92387" lon="4.73582">
        <ele>173</ele>
        <time>2018-08-02T08:16:04Z</time>
      </trkpt>
      <trkpt lat="45.92381" lon="4.73585">
        <ele>173</ele>
        <time>2018-08-02T08:16:05Z</time>
      </trkpt>
      <trkpt lat="45.92376" lon="4.73586">
        <ele>173</ele>
        <time>2018-08-02T08:16:06Z</time>
      </trkpt>
      <trkpt lat="45.9237" lon="4.73589">
        <ele>173</ele>
        <time>2018-08-02T08:16:07Z</time>
      </trkpt>
      <trkpt lat="45.92366" lon="4.73595">
        <ele>173</ele>
        <time>2018-08-02T08:16:08Z</time>
      </trkpt>
      <trkpt lat="45.92361" lon="4.73597">
        <ele>173</ele>
        <time>2018-08-02T08:16:09Z</time>
      </trkpt>
      <trkpt lat="45.92357" lon="4.73602">
        <ele>173</ele>
        <time>2018-08-02T08:16:10Z</time>
      </trkpt>
      <trkpt lat="45.9235" lon="4.73604">
        <ele>173</ele>
        <time>2018-08-02T08:16:11Z</time>
      </trkpt>
      <trkpt lat="45.92344" lon="4.73607">
        <ele>173</ele>
        <time>2018-08-02T08:16:12Z</time>
      </trkpt>
      <trkpt lat="45.9234" lon="4.7361">
        <ele>173</ele>
        <time>2018-08-02T08:16:13Z</time>
      </trkpt>
      <trkpt lat="45.92334" lon="4.73612">
        <ele>173</ele>
        <time>2018-08-02T08:16:14Z</time>
      </trkpt>
      <trkpt lat="45.92328" lon="4.73616">
        <ele>172</ele>
        <time>2018-08-02T08:16:15Z</time>
      </trkpt>
      <trkpt lat="45.92323" lon="4.73618">
        <ele>172</ele>
        <time>2018-08-02T08:16:16Z</time>
      </trkpt>
      <trkpt lat="45.92319" lon="4.73621">
        <ele>172</ele>
        <time>2018-08-02T08:16:17Z</time>
      </trkpt>
      <trkpt lat="45.92315" lon="4.73626">
        <ele>172</ele>
        <time>2018-08-02T08:16:18Z</time>
      </trkpt>
      <trkpt lat="45.92311" lon="4.73633">
        <ele>172</ele>
        <time>2018-08-02T08:16:19Z</time>
      </trkpt>
      <trkpt lat="45.92306" lon="4.73636">
        <ele>172</ele>
        <time>2018-08-02T08:16:20Z</time>
      </trkpt>
      <trkpt lat="45.923" lon="4.73641">
        <ele>172</ele>
        <time>2018-08-02T08:16:21Z</time>
      </trkpt>
      <trkpt lat="45.92295" lon="4.73643">
        <ele>172</ele>
        <time>2018-08-02T08:16:22Z</time>
      </trkpt>
      <trkpt lat="45.92288" lon="4.73645">
        <ele>172</ele>
        <time>2018-08-02T08:16:23Z</time>
      </trkpt>
      <trkpt lat="45.92283" lon="4.73648">
        <ele>172</ele>
        <time>2018-08-02T08:16:24Z</time>
      </trkpt>
      <trkpt lat="45.92277" lon="4.7365">
        <ele>172</ele>
        <time>2018-08-02T08:16:25Z</time>
      </trkpt>
      <trkpt lat="45.92271" lon="4.73653">
        <ele>172</ele>
        <time>2018-08-02T08:16:26Z</time>
      </trkpt>
      <trkpt lat="45.92266" lon="4.73656">
        <ele>171</ele>
        <time>2018-08-02T08:16:27Z</time>
      </trkpt>
      <trkpt lat="45.92259" lon="4.73659">
        <ele>171</ele>
        <time>2018-08-02T08:16:28Z</time>
      </trkpt>
      <trkpt lat="45.92254" lon="4.73662">
        <ele>171</ele>
        <time>2018-08-02T08:16:29Z</time>
      </trkpt>
      <trkpt lat="45.92248" lon="4.73665">
        <ele>171</ele>
        <time>2018-08-02T08:16:30Z</time>
      </trkpt>
      <trkpt lat="45.92243" lon="4.73669">
        <ele>171</ele>
        <time>2018-08-02T08:16:31Z</time>
      </trkpt>
      <trkpt lat="45.92239" lon="4.73672">
        <ele>171</ele>
        <time>2018-08-02T08:16:32Z</time>
      </trkpt>
      <trkpt lat="45.92233" lon="4.73674">
        <ele>171</ele>
        <time>2018-08-02T08:16:33Z</time>
      </trkpt>
      <trkpt lat="45.92229" lon="4.73677">
        <ele>171</ele>
        <time>2018-08-02T08:16:34Z</time>
      </trkpt>
      <trkpt lat="45.92224" lon="4.73681">
        <ele>171</ele>
        <time>2018-08-02T08:16:35Z</time>
      </trkpt>
      <trkpt lat="45.92218" lon="4.73684">
        <ele>171</ele>
        <time>2018-08-02T08:16:36Z</time>
      </trkpt>
      <trkpt lat="45.92213" lon="4.73687">
        <ele>171</ele>
        <time>2018-08-02T08:16:37Z</time>
      </trkpt>
      <trkpt lat="45.92207" lon="4.7369">
        <ele>171</ele>
        <time>2018-08-02T08:16:38Z</time>
      </trkpt>
      <trkpt lat="45.92202" lon="4.73694">
        <ele>171</ele>
        <time>2018-08-02T08:16:39Z</time>
      </trkpt>
      <trkpt lat="45.92197" lon="4.73698">
        <ele>171</ele>
        <time>2018-08-02T08:16:40Z</time>
      </trkpt>
      <trkpt lat="45.92191" lon="4.73701">
        <ele>171</ele>
        <time>2018-08-02T08:16:41Z</time>
      </trkpt>
      <trkpt lat="45.92187" lon="4.73703">
        <ele>171</ele>
        <time>2018-08-02T08:16:42Z</time>
      </trkpt>
      <trkpt lat="45.92182" lon="4.73705">
        <ele>171</ele>
        <time>2018-08-02T08:16:43Z</time>
      </trkpt>
      <trkpt lat="45.92177" lon="4.73709">
        <ele>172</ele>
        <time>2018-08-02T08:16:44Z</time>
      </trkpt>
      <trkpt lat="45.92172" lon="4.73711">
        <ele>172</ele>
        <time>2018-08-02T08:16:45Z</time>
      </trkpt>
      <trkpt lat="45.92166" lon="4.73713">
        <ele>171</ele>
        <time>2018-08-02T08:16:46Z</time>
      </trkpt>
      <trkpt lat="45.9216" lon="4.73715">
        <ele>171</ele>
        <time>2018-08-02T08:16:47Z</time>
      </trkpt>
      <trkpt lat="45.92154" lon="4.73718">
        <ele>171</ele>
        <time>2018-08-02T08:16:48Z</time>
      </trkpt>
      <trkpt lat="45.92149" lon="4.7372">
        <ele>171</ele>
        <time>2018-08-02T08:16:49Z</time>
      </trkpt>
      <trkpt lat="45.92144" lon="4.73722">
        <ele>171</ele>
        <time>2018-08-02T08:16:50Z</time>
      </trkpt>
      <trkpt lat="45.92139" lon="4.73722">
        <ele>171</ele>
        <time>2018-08-02T08:16:51Z</time>
      </trkpt>
      <trkpt lat="45.92133" lon="4.73723">
        <ele>171</ele>
        <time>2018-08-02T08:16:52Z</time>
      </trkpt>
      <trkpt lat="45.92127" lon="4.73726">
        <ele>171</ele>
        <time>2018-08-02T08:16:53Z</time>
      </trkpt>
      <trkpt lat="45.92121" lon="4.73727">
        <ele>171</ele>
        <time>2018-08-02T08:16:54Z</time>
      </trkpt>
      <trkpt lat="45.92115" lon="4.73728">
        <ele>171</ele>
        <time>2018-08-02T08:16:55Z</time>
      </trkpt>
      <trkpt lat="45.92109" lon="4.73729">
        <ele>171</ele>
        <time>2018-08-02T08:16:56Z</time>
      </trkpt>
      <trkpt lat="45.92105" lon="4.7373">
        <ele>171</ele>
        <time>2018-08-02T08:16:57Z</time>
      </trkpt>
      <trkpt lat="45.92098" lon="4.73734">
        <ele>171</ele>
        <time>2018-08-02T08:16:58Z</time>
      </trkpt>
      <trkpt lat="45.92092" lon="4.73735">
        <ele>171</ele>
        <time>2018-08-02T08:16:59Z</time>
      </trkpt>
      <trkpt lat="45.92087" lon="4.73736">
        <ele>171</ele>
        <time>2018-08-02T08:17:00Z</time>
      </trkpt>
      <trkpt lat="45.92081" lon="4.73737">
        <ele>171</ele>
        <time>2018-08-02T08:17:01Z</time>
      </trkpt>
      <trkpt lat="45.92074" lon="4.73736">
        <ele>171</ele>
        <time>2018-08-02T08:17:02Z</time>
      </trkpt>
      <trkpt lat="45.92068" lon="4.73736">
        <ele>171</ele>
        <time>2018-08-02T08:17:03Z</time>
      </trkpt>
      <trkpt lat="45.92061" lon="4.73736">
        <ele>171</ele>
        <time>2018-08-02T08:17:04Z</time>
      </trkpt>
      <trkpt lat="45.92055" lon="4.73736">
        <ele>171</ele>
        <time>2018-08-02T08:17:05Z</time>
      </trkpt>
      <trkpt lat="45.9205" lon="4.73735">
        <ele>171</ele>
        <time>2018-08-02T08:17:06Z</time>
      </trkpt>
      <trkpt lat="45.92044" lon="4.73735">
        <ele>171</ele>
        <time>2018-08-02T08:17:07Z</time>
      </trkpt>
      <trkpt lat="45.92038" lon="4.73734">
        <ele>171</ele>
        <time>2018-08-02T08:17:08Z</time>
      </trkpt>
      <trkpt lat="45.92032" lon="4.73735">
        <ele>171</ele>
        <time>2018-08-02T08:17:09Z</time>
      </trkpt>
      <trkpt lat="45.92027" lon="4.73736">
        <ele>171</ele>
        <time>2018-08-02T08:17:10Z</time>
      </trkpt>
      <trkpt lat="45.92021" lon="4.73732">
        <ele>171</ele>
        <time>2018-08-02T08:17:11Z</time>
      </trkpt>
      <trkpt lat="45.92015" lon="4.73732">
        <ele>171</ele>
        <time>2018-08-02T08:17:12Z</time>
      </trkpt>
      <trkpt lat="45.92009" lon="4.73731">
        <ele>171</ele>
        <time>2018-08-02T08:17:13Z</time>
      </trkpt>
      <trkpt lat="45.92004" lon="4.73732">
        <ele>171</ele>
        <time>2018-08-02T08:17:14Z</time>
      </trkpt>
      <trkpt lat="45.91997" lon="4.73731">
        <ele>171</ele>
        <time>2018-08-02T08:17:15Z</time>
      </trkpt>
      <trkpt lat="45.9199" lon="4.73734">
        <ele>171</ele>
        <time>2018-08-02T08:17:16Z</time>
      </trkpt>
      <trkpt lat="45.91984" lon="4.73735">
        <ele>171</ele>
        <time>2018-08-02T08:17:17Z</time>
      </trkpt>
      <trkpt lat="45.91978" lon="4.73735">
        <ele>171</ele>
        <time>2018-08-02T08:17:18Z</time>
      </trkpt>
      <trkpt lat="45.91972" lon="4.73736">
        <ele>171</ele>
        <time>2018-08-02T08:17:19Z</time>
      </trkpt>
      <trkpt lat="45.91966" lon="4.73735">
        <ele>171</ele>
        <time>2018-08-02T08:17:20Z</time>
      </trkpt>
      <trkpt lat="45.9196" lon="4.73735">
        <ele>171</ele>
        <time>2018-08-02T08:17:21Z</time>
      </trkpt>
      <trkpt lat="45.91955" lon="4.73735">
        <ele>170</ele>
        <time>2018-08-02T08:17:22Z</time>
      </trkpt>
      <trkpt lat="45.9195" lon="4.73734">
        <ele>170</ele>
        <time>2018-08-02T08:17:23Z</time>
      </trkpt>
      <trkpt lat="45.91945" lon="4.73734">
        <ele>170</ele>
        <time>2018-08-02T08:17:24Z</time>
      </trkpt>
      <trkpt lat="45.91939" lon="4.73734">
        <ele>170</ele>
        <time>2018-08-02T08:17:25Z</time>
      </trkpt>
      <trkpt lat="45.91934" lon="4.73735">
        <ele>170</ele>
        <time>2018-08-02T08:17:26Z</time>
      </trkpt>
      <trkpt lat="45.91928" lon="4.73736">
        <ele>170</ele>
        <time>2018-08-02T08:17:27Z</time>
      </trkpt>
      <trkpt lat="45.91924" lon="4.73736">
        <ele>170</ele>
        <time>2018-08-02T08:17:28Z</time>
      </trkpt>
      <trkpt lat="45.91918" lon="4.73736">
        <ele>170</ele>
        <time>2018-08-02T08:17:29Z</time>
      </trkpt>
      <trkpt lat="45.91912" lon="4.73735">
        <ele>171</ele>
        <time>2018-08-02T08:17:30Z</time>
      </trkpt>
      <trkpt lat="45.91906" lon="4.73735">
        <ele>171</ele>
        <time>2018-08-02T08:17:31Z</time>
      </trkpt>
      <trkpt lat="45.91901" lon="4.73737">
        <ele>171</ele>
        <time>2018-08-02T08:17:32Z</time>
      </trkpt>
      <trkpt lat="45.91895" lon="4.73738">
        <ele>171</ele>
        <time>2018-08-02T08:17:33Z</time>
      </trkpt>
      <trkpt lat="45.9189" lon="4.7374">
        <ele>171</ele>
        <time>2018-08-02T08:17:34Z</time>
      </trkpt>
      <trkpt lat="45.91884" lon="4.7374">
        <ele>171</ele>
        <time>2018-08-02T08:17:35Z</time>
      </trkpt>
      <trkpt lat="45.91878" lon="4.7374">
        <ele>171</ele>
        <time>2018-08-02T08:17:36Z</time>
      </trkpt>
      <trkpt lat="45.91873" lon="4.73739">
        <ele>171</ele>
        <time>2018-08-02T08:17:37Z</time>
      </trkpt>
      <trkpt lat="45.91868" lon="4.73738">
        <ele>171</ele>
        <time>2018-08-02T08:17:38Z</time>
      </trkpt>
      <trkpt lat="45.91862" lon="4.73739">
        <ele>171</ele>
        <time>2018-08-02T08:17:39Z</time>
      </trkpt>
      <trkpt lat="45.91856" lon="4.73738">
        <ele>171</ele>
        <time>2018-08-02T08:17:40Z</time>
      </trkpt>
      <trkpt lat="45.9185" lon="4.73737">
        <ele>172</ele>
        <time>2018-08-02T08:17:41Z</time>
      </trkpt>
      <trkpt lat="45.91844" lon="4.73736">
        <ele>172</ele>
        <time>2018-08-02T08:17:42Z</time>
      </trkpt>
      <trkpt lat="45.91838" lon="4.73735">
        <ele>172</ele>
        <time>2018-08-02T08:17:43Z</time>
      </trkpt>
      <trkpt lat="45.91832" lon="4.73736">
        <ele>172</ele>
        <time>2018-08-02T08:17:44Z</time>
      </trkpt>
      <trkpt lat="45.91826" lon="4.73733">
        <ele>172</ele>
        <time>2018-08-02T08:17:45Z</time>
      </trkpt>
      <trkpt lat="45.91821" lon="4.73734">
        <ele>172</ele>
        <time>2018-08-02T08:17:46Z</time>
      </trkpt>
      <trkpt lat="45.91814" lon="4.73735">
        <ele>172</ele>
        <time>2018-08-02T08:17:47Z</time>
      </trkpt>
      <trkpt lat="45.91808" lon="4.73736">
        <ele>172</ele>
        <time>2018-08-02T08:17:48Z</time>
      </trkpt>
      <trkpt lat="45.91804" lon="4.73737">
        <ele>172</ele>
        <time>2018-08-02T08:17:49Z</time>
      </trkpt>
      <trkpt lat="45.91798" lon="4.73737">
        <ele>172</ele>
        <time>2018-08-02T08:17:50Z</time>
      </trkpt>
      <trkpt lat="45.91793" lon="4.73736">
        <ele>172</ele>
        <time>2018-08-02T08:17:51Z</time>
      </trkpt>
      <trkpt lat="45.91788" lon="4.73736">
        <ele>173</ele>
        <time>2018-08-02T08:17:52Z</time>
      </trkpt>
      <trkpt lat="45.91781" lon="4.73738">
        <ele>173</ele>
        <time>2018-08-02T08:17:53Z</time>
      </trkpt>
      <trkpt lat="45.91776" lon="4.73738">
        <ele>173</ele>
        <time>2018-08-02T08:17:54Z</time>
      </trkpt>
      <trkpt lat="45.91771" lon="4.73737">
        <ele>173</ele>
        <time>2018-08-02T08:17:55Z</time>
      </trkpt>
      <trkpt lat="45.91766" lon="4.73738">
        <ele>173</ele>
        <time>2018-08-02T08:17:56Z</time>
      </trkpt>
      <trkpt lat="45.91761" lon="4.73738">
        <ele>173</ele>
        <time>2018-08-02T08:17:57Z</time>
      </trkpt>
      <trkpt lat="45.91756" lon="4.7374">
        <ele>173</ele>
        <time>2018-08-02T08:17:58Z</time>
      </trkpt>
      <trkpt lat="45.91751" lon="4.73739">
        <ele>173</ele>
        <time>2018-08-02T08:17:59Z</time>
      </trkpt>
      <trkpt lat="45.91746" lon="4.73741">
        <ele>173</ele>
        <time>2018-08-02T08:18:00Z</time>
      </trkpt>
      <trkpt lat="45.9174" lon="4.7374">
        <ele>173</ele>
        <time>2018-08-02T08:18:01Z</time>
      </trkpt>
      <trkpt lat="45.91734" lon="4.7374">
        <ele>173</ele>
        <time>2018-08-02T08:18:02Z</time>
      </trkpt>
      <trkpt lat="45.91728" lon="4.7374">
        <ele>173</ele>
        <time>2018-08-02T08:18:03Z</time>
      </trkpt>
      <trkpt lat="45.91722" lon="4.7374">
        <ele>173</ele>
        <time>2018-08-02T08:18:04Z</time>
      </trkpt>
      <trkpt lat="45.91716" lon="4.73738">
        <ele>173</ele>
        <time>2018-08-02T08:18:05Z</time>
      </trkpt>
      <trkpt lat="45.91711" lon="4.73739">
        <ele>173</ele>
        <time>2018-08-02T08:18:06Z</time>
      </trkpt>
      <trkpt lat="45.91704" lon="4.73738">
        <ele>172</ele>
        <time>2018-08-02T08:18:07Z</time>
      </trkpt>
      <trkpt lat="45.917" lon="4.7374">
        <ele>172</ele>
        <time>2018-08-02T08:18:08Z</time>
      </trkpt>
      <trkpt lat="45.91695" lon="4.73741">
        <ele>172</ele>
        <time>2018-08-02T08:18:09Z</time>
      </trkpt>
      <trkpt lat="45.9169" lon="4.73739">
        <ele>172</ele>
        <time>2018-08-02T08:18:10Z</time>
      </trkpt>
      <trkpt lat="45.91685" lon="4.73739">
        <ele>172</ele>
        <time>2018-08-02T08:18:11Z</time>
      </trkpt>
      <trkpt lat="45.9168" lon="4.7374">
        <ele>172</ele>
        <time>2018-08-02T08:18:12Z</time>
      </trkpt>
      <trkpt lat="45.91675" lon="4.73741">
        <ele>172</ele>
        <time>2018-08-02T08:18:13Z</time>
      </trkpt>
      <trkpt lat="45.91669" lon="4.73742">
        <ele>172</ele>
        <time>2018-08-02T08:18:14Z</time>
      </trkpt>
      <trkpt lat="45.91664" lon="4.73741">
        <ele>172</ele>
        <time>2018-08-02T08:18:15Z</time>
      </trkpt>
      <trkpt lat="45.91659" lon="4.73739">
        <ele>172</ele>
        <time>2018-08-02T08:18:16Z</time>
      </trkpt>
      <trkpt lat="45.91653" lon="4.7374">
        <ele>172</ele>
        <time>2018-08-02T08:18:17Z</time>
      </trkpt>
      <trkpt lat="45.91647" lon="4.7374">
        <ele>172</ele>
        <time>2018-08-02T08:18:18Z</time>
      </trkpt>
      <trkpt lat="45.9164" lon="4.73742">
        <ele>172</ele>
        <time>2018-08-02T08:18:19Z</time>
      </trkpt>
      <trkpt lat="45.91635" lon="4.73743">
        <ele>172</ele>
        <time>2018-08-02T08:18:20Z</time>
      </trkpt>
      <trkpt lat="45.9163" lon="4.73743">
        <ele>172</ele>
        <time>2018-08-02T08:18:21Z</time>
      </trkpt>
      <trkpt lat="45.91624" lon="4.73744">
        <ele>173</ele>
        <time>2018-08-02T08:18:22Z</time>
      </trkpt>
      <trkpt lat="45.91619" lon="4.73743">
        <ele>173</ele>
        <time>2018-08-02T08:18:23Z</time>
      </trkpt>
      <trkpt lat="45.91612" lon="4.73742">
        <ele>173</ele>
        <time>2018-08-02T08:18:24Z</time>
      </trkpt>
      <trkpt lat="45.91606" lon="4.73741">
        <ele>173</ele>
        <time>2018-08-02T08:18:25Z</time>
      </trkpt>
      <trkpt lat="45.916" lon="4.73741">
        <ele>173</ele>
        <time>2018-08-02T08:18:26Z</time>
      </trkpt>
      <trkpt lat="45.91593" lon="4.73739">
        <ele>173</ele>
        <time>2018-08-02T08:18:27Z</time>
      </trkpt>
      <trkpt lat="45.91587" lon="4.7374">
        <ele>173</ele>
        <time>2018-08-02T08:18:28Z</time>
      </trkpt>
      <trkpt lat="45.91582" lon="4.7374">
        <ele>173</ele>
        <time>2018-08-02T08:18:29Z</time>
      </trkpt>
      <trkpt lat="45.91577" lon="4.73741">
        <ele>173</ele>
        <time>2018-08-02T08:18:30Z</time>
      </trkpt>
      <trkpt lat="45.91571" lon="4.73742">
        <ele>173</ele>
        <time>2018-08-02T08:18:31Z</time>
      </trkpt>
      <trkpt lat="45.91566" lon="4.73742">
        <ele>173</ele>
        <time>2018-08-02T08:18:32Z</time>
      </trkpt>
      <trkpt lat="45.91561" lon="4.73743">
        <ele>173</ele>
        <time>2018-08-02T08:18:33Z</time>
      </trkpt>
      <trkpt lat="45.91554" lon="4.73743">
        <ele>174</ele>
        <time>2018-08-02T08:18:34Z</time>
      </trkpt>
      <trkpt lat="45.91548" lon="4.73743">
        <ele>174</ele>
        <time>2018-08-02T08:18:35Z</time>
      </trkpt>
      <trkpt lat="45.91543" lon="4.73745">
        <ele>174</ele>
        <time>2018-08-02T08:18:36Z</time>
      </trkpt>
      <trkpt lat="45.91536" lon="4.73745">
        <ele>174</ele>
        <time>2018-08-02T08:18:37Z</time>
      </trkpt>
      <trkpt lat="45.91532" lon="4.73745">
        <ele>174</ele>
        <time>2018-08-02T08:18:38Z</time>
      </trkpt>
      <trkpt lat="45.91526" lon="4.73745">
        <ele>174</ele>
        <time>2018-08-02T08:18:39Z</time>
      </trkpt>
      <trkpt lat="45.9152" lon="4.73745">
        <ele>174</ele>
        <time>2018-08-02T08:18:40Z</time>
      </trkpt>
      <trkpt lat="45.91515" lon="4.73748">
        <ele>174</ele>
        <time>2018-08-02T08:18:41Z</time>
      </trkpt>
      <trkpt lat="45.91509" lon="4.73747">
        <ele>174</ele>
        <time>2018-08-02T08:18:42Z</time>
      </trkpt>
      <trkpt lat="45.91503" lon="4.73747">
        <ele>174</ele>
        <time>2018-08-02T08:18:43Z</time>
      </trkpt>
      <trkpt lat="45.91498" lon="4.73746">
        <ele>174</ele>
        <time>2018-08-02T08:18:44Z</time>
      </trkpt>
      <trkpt lat="45.9149" lon="4.73746">
        <ele>174</ele>
        <time>2018-08-02T08:18:45Z</time>
      </trkpt>
      <trkpt lat="45.91485" lon="4.73747">
        <ele>174</ele>
        <time>2018-08-02T08:18:46Z</time>
      </trkpt>
      <trkpt lat="45.91481" lon="4.73747">
        <ele>174</ele>
        <time>2018-08-02T08:18:47Z</time>
      </trkpt>
      <trkpt lat="45.91474" lon="4.73747">
        <ele>174</ele>
        <time>2018-08-02T08:18:48Z</time>
      </trkpt>
      <trkpt lat="45.91469" lon="4.73746">
        <ele>174</ele>
        <time>2018-08-02T08:18:49Z</time>
      </trkpt>
      <trkpt lat="45.91464" lon="4.73747">
        <ele>174</ele>
        <time>2018-08-02T08:18:50Z</time>
      </trkpt>
      <trkpt lat="45.91458" lon="4.73747">
        <ele>173</ele>
        <time>2018-08-02T08:18:51Z</time>
      </trkpt>
      <trkpt lat="45.91452" lon="4.73747">
        <ele>173</ele>
        <time>2018-08-02T08:18:52Z</time>
      </trkpt>
      <trkpt lat="45.91447" lon="4.73747">
        <ele>173</ele>
        <time>2018-08-02T08:18:53Z</time>
      </trkpt>
      <trkpt lat="45.91442" lon="4.73744">
        <ele>173</ele>
        <time>2018-08-02T08:18:54Z</time>
      </trkpt>
      <trkpt lat="45.91436" lon="4.73744">
        <ele>173</ele>
        <time>2018-08-02T08:18:55Z</time>
      </trkpt>
      <trkpt lat="45.9143" lon="4.73744">
        <ele>173</ele>
        <time>2018-08-02T08:18:56Z</time>
      </trkpt>
      <trkpt lat="45.91424" lon="4.73743">
        <ele>173</ele>
        <time>2018-08-02T08:18:57Z</time>
      </trkpt>
      <trkpt lat="45.91419" lon="4.73743">
        <ele>172</ele>
        <time>2018-08-02T08:18:58Z</time>
      </trkpt>
      <trkpt lat="45.91413" lon="4.73743">
        <ele>172</ele>
        <time>2018-08-02T08:18:59Z</time>
      </trkpt>
      <trkpt lat="45.91408" lon="4.73743">
        <ele>172</ele>
        <time>2018-08-02T08:19:00Z</time>
      </trkpt>
      <trkpt lat="45.91403" lon="4.73742">
        <ele>173</ele>
        <time>2018-08-02T08:19:01Z</time>
      </trkpt>
      <trkpt lat="45.91398" lon="4.73743">
        <ele>173</ele>
        <time>2018-08-02T08:19:02Z</time>
      </trkpt>
      <trkpt lat="45.91392" lon="4.73743">
        <ele>173</ele>
        <time>2018-08-02T08:19:03Z</time>
      </trkpt>
      <trkpt lat="45.91386" lon="4.73742">
        <ele>173</ele>
        <time>2018-08-02T08:19:04Z</time>
      </trkpt>
      <trkpt lat="45.9138" lon="4.73742">
        <ele>173</ele>
        <time>2018-08-02T08:19:05Z</time>
      </trkpt>
      <trkpt lat="45.91375" lon="4.73741">
        <ele>173</ele>
        <time>2018-08-02T08:19:06Z</time>
      </trkpt>
      <trkpt lat="45.9137" lon="4.7374">
        <ele>173</ele>
        <time>2018-08-02T08:19:07Z</time>
      </trkpt>
      <trkpt lat="45.91365" lon="4.7374">
        <ele>173</ele>
        <time>2018-08-02T08:19:08Z</time>
      </trkpt>
      <trkpt lat="45.9136" lon="4.7374">
        <ele>173</ele>
        <time>2018-08-02T08:19:09Z</time>
      </trkpt>
      <trkpt lat="45.91355" lon="4.73739">
        <ele>173</ele>
        <time>2018-08-02T08:19:10Z</time>
      </trkpt>
      <trkpt lat="45.91349" lon="4.7374">
        <ele>173</ele>
        <time>2018-08-02T08:19:11Z</time>
      </trkpt>
      <trkpt lat="45.91344" lon="4.73739">
        <ele>173</ele>
        <time>2018-08-02T08:19:12Z</time>
      </trkpt>
      <trkpt lat="45.9134" lon="4.7374">
        <ele>173</ele>
        <time>2018-08-02T08:19:13Z</time>
      </trkpt>
      <trkpt lat="45.91335" lon="4.7374">
        <ele>173</ele>
        <time>2018-08-02T08:19:14Z</time>
      </trkpt>
      <trkpt lat="45.91331" lon="4.73741">
        <ele>173</ele>
        <time>2018-08-02T08:19:15Z</time>
      </trkpt>
      <trkpt lat="45.91326" lon="4.73742">
        <ele>173</ele>
        <time>2018-08-02T08:19:16Z</time>
      </trkpt>
      <trkpt lat="45.9132" lon="4.73743">
        <ele>173</ele>
        <time>2018-08-02T08:19:17Z</time>
      </trkpt>
      <trkpt lat="45.91316" lon="4.73743">
        <ele>174</ele>
        <time>2018-08-02T08:19:18Z</time>
      </trkpt>
      <trkpt lat="45.91311" lon="4.73743">
        <ele>174</ele>
        <time>2018-08-02T08:19:19Z</time>
      </trkpt>
      <trkpt lat="45.91306" lon="4.73741">
        <ele>174</ele>
        <time>2018-08-02T08:19:20Z</time>
      </trkpt>
      <trkpt lat="45.91302" lon="4.7374">
        <ele>174</ele>
        <time>2018-08-02T08:19:21Z</time>
      </trkpt>
      <trkpt lat="45.91296" lon="4.7374">
        <ele>174</ele>
        <time>2018-08-02T08:19:22Z</time>
      </trkpt>
      <trkpt lat="45.91291" lon="4.73741">
        <ele>174</ele>
        <time>2018-08-02T08:19:23Z</time>
      </trkpt>
      <trkpt lat="45.91286" lon="4.73742">
        <ele>174</ele>
        <time>2018-08-02T08:19:24Z</time>
      </trkpt>
      <trkpt lat="45.9128" lon="4.73741">
        <ele>174</ele>
        <time>2018-08-02T08:19:25Z</time>
      </trkpt>
      <trkpt lat="45.91275" lon="4.73742">
        <ele>174</ele>
        <time>2018-08-02T08:19:26Z</time>
      </trkpt>
      <trkpt lat="45.9127" lon="4.73741">
        <ele>174</ele>
        <time>2018-08-02T08:19:27Z</time>
      </trkpt>
      <trkpt lat="45.91264" lon="4.73741">
        <ele>174</ele>
        <time>2018-08-02T08:19:28Z</time>
      </trkpt>
      <trkpt lat="45.91258" lon="4.7374">
        <ele>175</ele>
        <time>2018-08-02T08:19:29Z</time>
      </trkpt>
      <trkpt lat="45.91253" lon="4.73739">
        <ele>175</ele>
        <time>2018-08-02T08:19:30Z</time>
      </trkpt>
      <trkpt lat="45.91247" lon="4.7374">
        <ele>175</ele>
        <time>2018-08-02T08:19:31Z</time>
      </trkpt>
      <trkpt lat="45.91241" lon="4.7374">
        <ele>175</ele>
        <time>2018-08-02T08:19:32Z</time>
      </trkpt>
      <trkpt lat="45.91236" lon="4.73741">
        <ele>175</ele>
        <time>2018-08-02T08:19:33Z</time>
      </trkpt>
      <trkpt lat="45.91231" lon="4.73741">
        <ele>175</ele>
        <time>2018-08-02T08:19:34Z</time>
      </trkpt>
      <trkpt lat="45.91225" lon="4.73742">
        <ele>175</ele>
        <time>2018-08-02T08:19:35Z</time>
      </trkpt>
      <trkpt lat="45.9122" lon="4.73742">
        <ele>175</ele>
        <time>2018-08-02T08:19:36Z</time>
      </trkpt>
      <trkpt lat="45.91215" lon="4.73742">
        <ele>175</ele>
        <time>2018-08-02T08:19:37Z</time>
      </trkpt>
      <trkpt lat="45.91209" lon="4.73742">
        <ele>175</ele>
        <time>2018-08-02T08:19:38Z</time>
      </trkpt>
      <trkpt lat="45.91203" lon="4.7374">
        <ele>175</ele>
        <time>2018-08-02T08:19:39Z</time>
      </trkpt>
      <trkpt lat="45.91199" lon="4.7374">
        <ele>175</ele>
        <time>2018-08-02T08:19:40Z</time>
      </trkpt>
      <trkpt lat="45.91194" lon="4.73738">
        <ele>175</ele>
        <time>2018-08-02T08:19:41Z</time>
      </trkpt>
      <trkpt lat="45.91188" lon="4.73736">
        <ele>175</ele>
        <time>2018-08-02T08:19:42Z</time>
      </trkpt>
      <trkpt lat="45.91182" lon="4.73733">
        <ele>175</ele>
        <time>2018-08-02T08:19:43Z</time>
      </trkpt>
      <trkpt lat="45.91177" lon="4.73732">
        <ele>175</ele>
        <time>2018-08-02T08:19:44Z</time>
      </trkpt>
      <trkpt lat="45.91171" lon="4.73731">
        <ele>175</ele>
        <time>2018-08-02T08:19:45Z</time>
      </trkpt>
      <trkpt lat="45.91164" lon="4.73728">
        <ele>175</ele>
        <time>2018-08-02T08:19:47Z</time>
      </trkpt>
      <trkpt lat="45.91159" lon="4.73726">
        <ele>175</ele>
        <time>2018-08-02T08:19:48Z</time>
      </trkpt>
      <trkpt lat="45.91156" lon="4.73721">
        <ele>175</ele>
        <time>2018-08-02T08:19:49Z</time>
      </trkpt>
      <trkpt lat="45.91153" lon="4.73715">
        <ele>174</ele>
        <time>2018-08-02T08:19:50Z</time>
      </trkpt>
      <trkpt lat="45.91149" lon="4.73709">
        <ele>174</ele>
        <time>2018-08-02T08:19:51Z</time>
      </trkpt>
      <trkpt lat="45.91147" lon="4.73703">
        <ele>174</ele>
        <time>2018-08-02T08:19:52Z</time>
      </trkpt>
      <trkpt lat="45.91145" lon="4.73697">
        <ele>174</ele>
        <time>2018-08-02T08:19:53Z</time>
      </trkpt>
      <trkpt lat="45.9114" lon="4.7369">
        <ele>174</ele>
        <time>2018-08-02T08:19:54Z</time>
      </trkpt>
      <trkpt lat="45.91137" lon="4.73683">
        <ele>174</ele>
        <time>2018-08-02T08:19:55Z</time>
      </trkpt>
      <trkpt lat="45.91135" lon="4.73677">
        <ele>174</ele>
        <time>2018-08-02T08:19:56Z</time>
      </trkpt>
      <trkpt lat="45.91134" lon="4.73671">
        <ele>174</ele>
        <time>2018-08-02T08:19:57Z</time>
      </trkpt>
      <trkpt lat="45.91131" lon="4.73664">
        <ele>174</ele>
        <time>2018-08-02T08:19:58Z</time>
      </trkpt>
      <trkpt lat="45.91128" lon="4.73658">
        <ele>174</ele>
        <time>2018-08-02T08:19:59Z</time>
      </trkpt>
      <trkpt lat="45.91126" lon="4.73651">
        <ele>174</ele>
        <time>2018-08-02T08:20:00Z</time>
      </trkpt>
      <trkpt lat="45.91122" lon="4.7364">
        <ele>174</ele>
        <time>2018-08-02T08:20:02Z</time>
      </trkpt>
      <trkpt lat="45.91119" lon="4.73633">
        <ele>174</ele>
        <time>2018-08-02T08:20:03Z</time>
      </trkpt>
      <trkpt lat="45.91116" lon="4.73626">
        <ele>174</ele>
        <time>2018-08-02T08:20:04Z</time>
      </trkpt>
      <trkpt lat="45.91113" lon="4.73618">
        <ele>174</ele>
        <time>2018-08-02T08:20:05Z</time>
      </trkpt>
      <trkpt lat="45.91108" lon="4.73612">
        <ele>174</ele>
        <time>2018-08-02T08:20:06Z</time>
      </trkpt>
      <trkpt lat="45.91104" lon="4.73606">
        <ele>174</ele>
        <time>2018-08-02T08:20:07Z</time>
      </trkpt>
      <trkpt lat="45.911" lon="4.736">
        <ele>174</ele>
        <time>2018-08-02T08:20:08Z</time>
      </trkpt>
      <trkpt lat="45.91095" lon="4.73594">
        <ele>174</ele>
        <time>2018-08-02T08:20:09Z</time>
      </trkpt>
      <trkpt lat="45.91093" lon="4.73589">
        <ele>174</ele>
        <time>2018-08-02T08:20:10Z</time>
      </trkpt>
      <trkpt lat="45.9109" lon="4.73583">
        <ele>174</ele>
        <time>2018-08-02T08:20:11Z</time>
      </trkpt>
      <trkpt lat="45.91086" lon="4.73573">
        <ele>174</ele>
        <time>2018-08-02T08:20:13Z</time>
      </trkpt>
      <trkpt lat="45.91084" lon="4.73567">
        <ele>174</ele>
        <time>2018-08-02T08:20:14Z</time>
      </trkpt>
      <trkpt lat="45.91079" lon="4.73557">
        <ele>174</ele>
        <time>2018-08-02T08:20:16Z</time>
      </trkpt>
      <trkpt lat="45.91078" lon="4.73553">
        <ele>174</ele>
        <time>2018-08-02T08:20:17Z</time>
      </trkpt>
      <trkpt lat="45.91073" lon="4.73542">
        <ele>174</ele>
        <time>2018-08-02T08:20:19Z</time>
      </trkpt>
      <trkpt lat="45.9107" lon="4.73537">
        <ele>175</ele>
        <time>2018-08-02T08:20:20Z</time>
      </trkpt>
      <trkpt lat="45.91068" lon="4.73531">
        <ele>175</ele>
        <time>2018-08-02T08:20:21Z</time>
      </trkpt>
      <trkpt lat="45.91065" lon="4.73525">
        <ele>175</ele>
        <time>2018-08-02T08:20:22Z</time>
      </trkpt>
      <trkpt lat="45.91062" lon="4.7352">
        <ele>175</ele>
        <time>2018-08-02T08:20:23Z</time>
      </trkpt>
      <trkpt lat="45.91059" lon="4.73514">
        <ele>175</ele>
        <time>2018-08-02T08:20:24Z</time>
      </trkpt>
      <trkpt lat="45.91055" lon="4.73506">
        <ele>175</ele>
        <time>2018-08-02T08:20:25Z</time>
      </trkpt>
      <trkpt lat="45.91052" lon="4.735">
        <ele>175</ele>
        <time>2018-08-02T08:20:26Z</time>
      </trkpt>
      <trkpt lat="45.91049" lon="4.73494">
        <ele>175</ele>
        <time>2018-08-02T08:20:27Z</time>
      </trkpt>
      <trkpt lat="45.91046" lon="4.73488">
        <ele>175</ele>
        <time>2018-08-02T08:20:28Z</time>
      </trkpt>
      <trkpt lat="45.91043" lon="4.73482">
        <ele>175</ele>
        <time>2018-08-02T08:20:29Z</time>
      </trkpt>
      <trkpt lat="45.91042" lon="4.73476">
        <ele>175</ele>
        <time>2018-08-02T08:20:30Z</time>
      </trkpt>
      <trkpt lat="45.91041" lon="4.73468">
        <ele>175</ele>
        <time>2018-08-02T08:20:31Z</time>
      </trkpt>
      <trkpt lat="45.9104" lon="4.7346">
        <ele>175</ele>
        <time>2018-08-02T08:20:32Z</time>
      </trkpt>
      <trkpt lat="45.91039" lon="4.73453">
        <ele>175</ele>
        <time>2018-08-02T08:20:33Z</time>
      </trkpt>
      <trkpt lat="45.91039" lon="4.73446">
        <ele>175</ele>
        <time>2018-08-02T08:20:34Z</time>
      </trkpt>
      <trkpt lat="45.91039" lon="4.73434">
        <ele>175</ele>
        <time>2018-08-02T08:20:36Z</time>
      </trkpt>
      <trkpt lat="45.91038" lon="4.73426">
        <ele>175</ele>
        <time>2018-08-02T08:20:37Z</time>
      </trkpt>
      <trkpt lat="45.91034" lon="4.73421">
        <ele>175</ele>
        <time>2018-08-02T08:20:38Z</time>
      </trkpt>
      <trkpt lat="45.91031" lon="4.73416">
        <ele>174</ele>
        <time>2018-08-02T08:20:39Z</time>
      </trkpt>
      <trkpt lat="45.91026" lon="4.73414">
        <ele>174</ele>
        <time>2018-08-02T08:20:40Z</time>
      </trkpt>
      <trkpt lat="45.91021" lon="4.73415">
        <ele>174</ele>
        <time>2018-08-02T08:20:41Z</time>
      </trkpt>
      <trkpt lat="45.91016" lon="4.73419">
        <ele>175</ele>
        <time>2018-08-02T08:20:42Z</time>
      </trkpt>
      <trkpt lat="45.91007" lon="4.73423">
        <ele>175</ele>
        <time>2018-08-02T08:20:43Z</time>
      </trkpt>
      <trkpt lat="45.91003" lon="4.73427">
        <ele>175</ele>
        <time>2018-08-02T08:20:44Z</time>
      </trkpt>
      <trkpt lat="45.90999" lon="4.73432">
        <ele>175</ele>
        <time>2018-08-02T08:20:45Z</time>
      </trkpt>
      <trkpt lat="45.90994" lon="4.73438">
        <ele>175</ele>
        <time>2018-08-02T08:20:46Z</time>
      </trkpt>
      <trkpt lat="45.90988" lon="4.73441">
        <ele>175</ele>
        <time>2018-08-02T08:20:47Z</time>
      </trkpt>
      <trkpt lat="45.90983" lon="4.73448">
        <ele>175</ele>
        <time>2018-08-02T08:20:48Z</time>
      </trkpt>
      <trkpt lat="45.90976" lon="4.7345">
        <ele>175</ele>
        <time>2018-08-02T08:20:49Z</time>
      </trkpt>
      <trkpt lat="45.9097" lon="4.73452">
        <ele>175</ele>
        <time>2018-08-02T08:20:50Z</time>
      </trkpt>
      <trkpt lat="45.90965" lon="4.73454">
        <ele>175</ele>
        <time>2018-08-02T08:20:51Z</time>
      </trkpt>
      <trkpt lat="45.90959" lon="4.73456">
        <ele>175</ele>
        <time>2018-08-02T08:20:52Z</time>
      </trkpt>
      <trkpt lat="45.90954" lon="4.73457">
        <ele>175</ele>
        <time>2018-08-02T08:20:53Z</time>
      </trkpt>
      <trkpt lat="45.90948" lon="4.73459">
        <ele>175</ele>
        <time>2018-08-02T08:20:54Z</time>
      </trkpt>
      <trkpt lat="45.90942" lon="4.73461">
        <ele>175</ele>
        <time>2018-08-02T08:20:55Z</time>
      </trkpt>
      <trkpt lat="45.90937" lon="4.73464">
        <ele>175</ele>
        <time>2018-08-02T08:20:56Z</time>
      </trkpt>
      <trkpt lat="45.9093" lon="4.73466">
        <ele>175</ele>
        <time>2018-08-02T08:20:57Z</time>
      </trkpt>
      <trkpt lat="45.90925" lon="4.73469">
        <ele>175</ele>
        <time>2018-08-02T08:20:58Z</time>
      </trkpt>
      <trkpt lat="45.90918" lon="4.73472">
        <ele>175</ele>
        <time>2018-08-02T08:20:59Z</time>
      </trkpt>
      <trkpt lat="45.90913" lon="4.73474">
        <ele>175</ele>
        <time>2018-08-02T08:21:00Z</time>
      </trkpt>
      <trkpt lat="45.90907" lon="4.73477">
        <ele>175</ele>
        <time>2018-08-02T08:21:01Z</time>
      </trkpt>
      <trkpt lat="45.90901" lon="4.7348">
        <ele>175</ele>
        <time>2018-08-02T08:21:02Z</time>
      </trkpt>
      <trkpt lat="45.90895" lon="4.73484">
        <ele>175</ele>
        <time>2018-08-02T08:21:03Z</time>
      </trkpt>
      <trkpt lat="45.90889" lon="4.73486">
        <ele>175</ele>
        <time>2018-08-02T08:21:04Z</time>
      </trkpt>
      <trkpt lat="45.90884" lon="4.73488">
        <ele>175</ele>
        <time>2018-08-02T08:21:05Z</time>
      </trkpt>
      <trkpt lat="45.90879" lon="4.73491">
        <ele>175</ele>
        <time>2018-08-02T08:21:06Z</time>
      </trkpt>
      <trkpt lat="45.90873" lon="4.73494">
        <ele>175</ele>
        <time>2018-08-02T08:21:07Z</time>
      </trkpt>
      <trkpt lat="45.90868" lon="4.73496">
        <ele>175</ele>
        <time>2018-08-02T08:21:08Z</time>
      </trkpt>
      <trkpt lat="45.90862" lon="4.73498">
        <ele>175</ele>
        <time>2018-08-02T08:21:09Z</time>
      </trkpt>
      <trkpt lat="45.90858" lon="4.73502">
        <ele>174</ele>
        <time>2018-08-02T08:21:10Z</time>
      </trkpt>
      <trkpt lat="45.90851" lon="4.73504">
        <ele>174</ele>
        <time>2018-08-02T08:21:11Z</time>
      </trkpt>
      <trkpt lat="45.90845" lon="4.73506">
        <ele>174</ele>
        <time>2018-08-02T08:21:12Z</time>
      </trkpt>
      <trkpt lat="45.9084" lon="4.73511">
        <ele>174</ele>
        <time>2018-08-02T08:21:13Z</time>
      </trkpt>
      <trkpt lat="45.90834" lon="4.73512">
        <ele>174</ele>
        <time>2018-08-02T08:21:14Z</time>
      </trkpt>
      <trkpt lat="45.90828" lon="4.73515">
        <ele>175</ele>
        <time>2018-08-02T08:21:15Z</time>
      </trkpt>
      <trkpt lat="45.90822" lon="4.73518">
        <ele>175</ele>
        <time>2018-08-02T08:21:16Z</time>
      </trkpt>
      <trkpt lat="45.90817" lon="4.73519">
        <ele>175</ele>
        <time>2018-08-02T08:21:17Z</time>
      </trkpt>
      <trkpt lat="45.90811" lon="4.73522">
        <ele>175</ele>
        <time>2018-08-02T08:21:18Z</time>
      </trkpt>
      <trkpt lat="45.90806" lon="4.73525">
        <ele>175</ele>
        <time>2018-08-02T08:21:19Z</time>
      </trkpt>
      <trkpt lat="45.90798" lon="4.73528">
        <ele>175</ele>
        <time>2018-08-02T08:21:20Z</time>
      </trkpt>
      <trkpt lat="45.90793" lon="4.7353">
        <ele>176</ele>
        <time>2018-08-02T08:21:21Z</time>
      </trkpt>
      <trkpt lat="45.90787" lon="4.73533">
        <ele>176</ele>
        <time>2018-08-02T08:21:22Z</time>
      </trkpt>
      <trkpt lat="45.90782" lon="4.73538">
        <ele>176</ele>
        <time>2018-08-02T08:21:23Z</time>
      </trkpt>
      <trkpt lat="45.90777" lon="4.73541">
        <ele>176</ele>
        <time>2018-08-02T08:21:24Z</time>
      </trkpt>
      <trkpt lat="45.90771" lon="4.73543">
        <ele>176</ele>
        <time>2018-08-02T08:21:25Z</time>
      </trkpt>
      <trkpt lat="45.90765" lon="4.73545">
        <ele>176</ele>
        <time>2018-08-02T08:21:26Z</time>
      </trkpt>
      <trkpt lat="45.9076" lon="4.73549">
        <ele>176</ele>
        <time>2018-08-02T08:21:27Z</time>
      </trkpt>
      <trkpt lat="45.90754" lon="4.73551">
        <ele>177</ele>
        <time>2018-08-02T08:21:28Z</time>
      </trkpt>
      <trkpt lat="45.90749" lon="4.73552">
        <ele>178</ele>
        <time>2018-08-02T08:21:29Z</time>
      </trkpt>
      <trkpt lat="45.90744" lon="4.73554">
        <ele>178</ele>
        <time>2018-08-02T08:21:30Z</time>
      </trkpt>
      <trkpt lat="45.90739" lon="4.73555">
        <ele>178</ele>
        <time>2018-08-02T08:21:31Z</time>
      </trkpt>
      <trkpt lat="45.90731" lon="4.73559">
        <ele>178</ele>
        <time>2018-08-02T08:21:33Z</time>
      </trkpt>
      <trkpt lat="45.90726" lon="4.73561">
        <ele>178</ele>
        <time>2018-08-02T08:21:34Z</time>
      </trkpt>
      <trkpt lat="45.90721" lon="4.73562">
        <ele>178</ele>
        <time>2018-08-02T08:21:35Z</time>
      </trkpt>
      <trkpt lat="45.90717" lon="4.73565">
        <ele>178</ele>
        <time>2018-08-02T08:21:36Z</time>
      </trkpt>
      <trkpt lat="45.90712" lon="4.73567">
        <ele>178</ele>
        <time>2018-08-02T08:21:37Z</time>
      </trkpt>
      <trkpt lat="45.90708" lon="4.7357">
        <ele>178</ele>
        <time>2018-08-02T08:21:38Z</time>
      </trkpt>
      <trkpt lat="45.90703" lon="4.73573">
        <ele>178</ele>
        <time>2018-08-02T08:21:39Z</time>
      </trkpt>
      <trkpt lat="45.90698" lon="4.73575">
        <ele>178</ele>
        <time>2018-08-02T08:21:40Z</time>
      </trkpt>
      <trkpt lat="45.9069" lon="4.73577">
        <ele>179</ele>
        <time>2018-08-02T08:21:42Z</time>
      </trkpt>
      <trkpt lat="45.90686" lon="4.73579">
        <ele>179</ele>
        <time>2018-08-02T08:21:43Z</time>
      </trkpt>
      <trkpt lat="45.90679" lon="4.73582">
        <ele>179</ele>
        <time>2018-08-02T08:21:45Z</time>
      </trkpt>
      <trkpt lat="45.90675" lon="4.73584">
        <ele>180</ele>
        <time>2018-08-02T08:21:46Z</time>
      </trkpt>
      <trkpt lat="45.90667" lon="4.73585">
        <ele>180</ele>
        <time>2018-08-02T08:21:48Z</time>
      </trkpt>
      <trkpt lat="45.90664" lon="4.73586">
        <ele>180</ele>
        <time>2018-08-02T08:21:49Z</time>
      </trkpt>
      <trkpt lat="45.90655" lon="4.7359">
        <ele>181</ele>
        <time>2018-08-02T08:21:51Z</time>
      </trkpt>
      <trkpt lat="45.90651" lon="4.73592">
        <ele>181</ele>
        <time>2018-08-02T08:21:52Z</time>
      </trkpt>
      <trkpt lat="45.90644" lon="4.73594">
        <ele>181</ele>
        <time>2018-08-02T08:21:54Z</time>
      </trkpt>
      <trkpt lat="45.9064" lon="4.73596">
        <ele>181</ele>
        <time>2018-08-02T08:21:55Z</time>
      </trkpt>
      <trkpt lat="45.90631" lon="4.73598">
        <ele>181</ele>
        <time>2018-08-02T08:21:57Z</time>
      </trkpt>
      <trkpt lat="45.90627" lon="4.736">
        <ele>181</ele>
        <time>2018-08-02T08:21:58Z</time>
      </trkpt>
      <trkpt lat="45.90619" lon="4.73604">
        <ele>181</ele>
        <time>2018-08-02T08:22:00Z</time>
      </trkpt>
      <trkpt lat="45.90615" lon="4.73606">
        <ele>181</ele>
        <time>2018-08-02T08:22:01Z</time>
      </trkpt>
      <trkpt lat="45.9061" lon="4.73608">
        <ele>180</ele>
        <time>2018-08-02T08:22:02Z</time>
      </trkpt>
      <trkpt lat="45.90606" lon="4.7361">
        <ele>180</ele>
        <time>2018-08-02T08:22:03Z</time>
      </trkpt>
      <trkpt lat="45.90598" lon="4.73615">
        <ele>180</ele>
        <time>2018-08-02T08:22:05Z</time>
      </trkpt>
      <trkpt lat="45.90595" lon="4.73614">
        <ele>180</ele>
        <time>2018-08-02T08:22:06Z</time>
      </trkpt>
      <trkpt lat="45.90587" lon="4.73618">
        <ele>180</ele>
        <time>2018-08-02T08:22:08Z</time>
      </trkpt>
      <trkpt lat="45.90583" lon="4.7362">
        <ele>179</ele>
        <time>2018-08-02T08:22:09Z</time>
      </trkpt>
      <trkpt lat="45.90578" lon="4.73621">
        <ele>179</ele>
        <time>2018-08-02T08:22:10Z</time>
      </trkpt>
      <trkpt lat="45.90574" lon="4.73622">
        <ele>179</ele>
        <time>2018-08-02T08:22:11Z</time>
      </trkpt>
      <trkpt lat="45.90565" lon="4.73625">
        <ele>179</ele>
        <time>2018-08-02T08:22:13Z</time>
      </trkpt>
      <trkpt lat="45.9056" lon="4.73626">
        <ele>179</ele>
        <time>2018-08-02T08:22:14Z</time>
      </trkpt>
      <trkpt lat="45.90555" lon="4.73628">
        <ele>178</ele>
        <time>2018-08-02T08:22:15Z</time>
      </trkpt>
      <trkpt lat="45.90551" lon="4.73631">
        <ele>178</ele>
        <time>2018-08-02T08:22:16Z</time>
      </trkpt>
      <trkpt lat="45.90546" lon="4.73633">
        <ele>178</ele>
        <time>2018-08-02T08:22:17Z</time>
      </trkpt>
      <trkpt lat="45.90542" lon="4.73636">
        <ele>178</ele>
        <time>2018-08-02T08:22:18Z</time>
      </trkpt>
      <trkpt lat="45.90538" lon="4.73637">
        <ele>178</ele>
        <time>2018-08-02T08:22:19Z</time>
      </trkpt>
      <trkpt lat="45.90532" lon="4.7364">
        <ele>178</ele>
        <time>2018-08-02T08:22:20Z</time>
      </trkpt>
      <trkpt lat="45.90527" lon="4.73641">
        <ele>178</ele>
        <time>2018-08-02T08:22:21Z</time>
      </trkpt>
      <trkpt lat="45.9052" lon="4.73644">
        <ele>178</ele>
        <time>2018-08-02T08:22:22Z</time>
      </trkpt>
      <trkpt lat="45.90515" lon="4.73646">
        <ele>178</ele>
        <time>2018-08-02T08:22:23Z</time>
      </trkpt>
      <trkpt lat="45.9051" lon="4.73648">
        <ele>178</ele>
        <time>2018-08-02T08:22:24Z</time>
      </trkpt>
      <trkpt lat="45.90506" lon="4.73652">
        <ele>178</ele>
        <time>2018-08-02T08:22:25Z</time>
      </trkpt>
      <trkpt lat="45.90501" lon="4.73654">
        <ele>178</ele>
        <time>2018-08-02T08:22:26Z</time>
      </trkpt>
      <trkpt lat="45.90496" lon="4.73654">
        <ele>177</ele>
        <time>2018-08-02T08:22:27Z</time>
      </trkpt>
      <trkpt lat="45.90491" lon="4.73655">
        <ele>177</ele>
        <time>2018-08-02T08:22:28Z</time>
      </trkpt>
      <trkpt lat="45.90485" lon="4.73657">
        <ele>177</ele>
        <time>2018-08-02T08:22:29Z</time>
      </trkpt>
      <trkpt lat="45.9048" lon="4.73659">
        <ele>177</ele>
        <time>2018-08-02T08:22:30Z</time>
      </trkpt>
      <trkpt lat="45.90475" lon="4.73662">
        <ele>177</ele>
        <time>2018-08-02T08:22:31Z</time>
      </trkpt>
      <trkpt lat="45.9047" lon="4.73664">
        <ele>177</ele>
        <time>2018-08-02T08:22:32Z</time>
      </trkpt>
      <trkpt lat="45.90466" lon="4.73667">
        <ele>176</ele>
        <time>2018-08-02T08:22:33Z</time>
      </trkpt>
      <trkpt lat="45.90461" lon="4.73668">
        <ele>176</ele>
        <time>2018-08-02T08:22:34Z</time>
      </trkpt>
      <trkpt lat="45.90456" lon="4.73671">
        <ele>176</ele>
        <time>2018-08-02T08:22:35Z</time>
      </trkpt>
      <trkpt lat="45.90451" lon="4.73674">
        <ele>176</ele>
        <time>2018-08-02T08:22:36Z</time>
      </trkpt>
      <trkpt lat="45.90446" lon="4.73676">
        <ele>176</ele>
        <time>2018-08-02T08:22:37Z</time>
      </trkpt>
      <trkpt lat="45.9044" lon="4.73679">
        <ele>176</ele>
        <time>2018-08-02T08:22:38Z</time>
      </trkpt>
      <trkpt lat="45.90435" lon="4.73681">
        <ele>176</ele>
        <time>2018-08-02T08:22:39Z</time>
      </trkpt>
      <trkpt lat="45.90431" lon="4.73683">
        <ele>176</ele>
        <time>2018-08-02T08:22:40Z</time>
      </trkpt>
      <trkpt lat="45.90424" lon="4.73687">
        <ele>176</ele>
        <time>2018-08-02T08:22:41Z</time>
      </trkpt>
      <trkpt lat="45.90419" lon="4.73689">
        <ele>176</ele>
        <time>2018-08-02T08:22:42Z</time>
      </trkpt>
      <trkpt lat="45.90414" lon="4.73691">
        <ele>177</ele>
        <time>2018-08-02T08:22:43Z</time>
      </trkpt>
      <trkpt lat="45.90409" lon="4.73694">
        <ele>177</ele>
        <time>2018-08-02T08:22:44Z</time>
      </trkpt>
      <trkpt lat="45.90403" lon="4.73697">
        <ele>177</ele>
        <time>2018-08-02T08:22:45Z</time>
      </trkpt>
      <trkpt lat="45.90398" lon="4.737">
        <ele>177</ele>
        <time>2018-08-02T08:22:46Z</time>
      </trkpt>
      <trkpt lat="45.90392" lon="4.73704">
        <ele>177</ele>
        <time>2018-08-02T08:22:47Z</time>
      </trkpt>
      <trkpt lat="45.90387" lon="4.73706">
        <ele>177</ele>
        <time>2018-08-02T08:22:48Z</time>
      </trkpt>
      <trkpt lat="45.90381" lon="4.73709">
        <ele>177</ele>
        <time>2018-08-02T08:22:49Z</time>
      </trkpt>
      <trkpt lat="45.90375" lon="4.73712">
        <ele>177</ele>
        <time>2018-08-02T08:22:50Z</time>
      </trkpt>
      <trkpt lat="45.90368" lon="4.73715">
        <ele>177</ele>
        <time>2018-08-02T08:22:51Z</time>
      </trkpt>
      <trkpt lat="45.90362" lon="4.73718">
        <ele>177</ele>
        <time>2018-08-02T08:22:52Z</time>
      </trkpt>
      <trkpt lat="45.90355" lon="4.73719">
        <ele>177</ele>
        <time>2018-08-02T08:22:53Z</time>
      </trkpt>
      <trkpt lat="45.90348" lon="4.73723">
        <ele>177</ele>
        <time>2018-08-02T08:22:54Z</time>
      </trkpt>
      <trkpt lat="45.90341" lon="4.73726">
        <ele>177</ele>
        <time>2018-08-02T08:22:55Z</time>
      </trkpt>
      <trkpt lat="45.90333" lon="4.73727">
        <ele>177</ele>
        <time>2018-08-02T08:22:56Z</time>
      </trkpt>
      <trkpt lat="45.90326" lon="4.7373">
        <ele>177</ele>
        <time>2018-08-02T08:22:57Z</time>
      </trkpt>
      <trkpt lat="45.90319" lon="4.73733">
        <ele>177</ele>
        <time>2018-08-02T08:22:58Z</time>
      </trkpt>
      <trkpt lat="45.90312" lon="4.73736">
        <ele>177</ele>
        <time>2018-08-02T08:22:59Z</time>
      </trkpt>
      <trkpt lat="45.90305" lon="4.73738">
        <ele>177</ele>
        <time>2018-08-02T08:23:00Z</time>
      </trkpt>
      <trkpt lat="45.90299" lon="4.73742">
        <ele>177</ele>
        <time>2018-08-02T08:23:01Z</time>
      </trkpt>
      <trkpt lat="45.90293" lon="4.73746">
        <ele>177</ele>
        <time>2018-08-02T08:23:02Z</time>
      </trkpt>
      <trkpt lat="45.90286" lon="4.73749">
        <ele>177</ele>
        <time>2018-08-02T08:23:03Z</time>
      </trkpt>
      <trkpt lat="45.9028" lon="4.73751">
        <ele>177</ele>
        <time>2018-08-02T08:23:04Z</time>
      </trkpt>
      <trkpt lat="45.90274" lon="4.73754">
        <ele>177</ele>
        <time>2018-08-02T08:23:05Z</time>
      </trkpt>
      <trkpt lat="45.90268" lon="4.73756">
        <ele>177</ele>
        <time>2018-08-02T08:23:06Z</time>
      </trkpt>
      <trkpt lat="45.90262" lon="4.73758">
        <ele>177</ele>
        <time>2018-08-02T08:23:07Z</time>
      </trkpt>
      <trkpt lat="45.90255" lon="4.7376">
        <ele>178</ele>
        <time>2018-08-02T08:23:08Z</time>
      </trkpt>
      <trkpt lat="45.90249" lon="4.73762">
        <ele>178</ele>
        <time>2018-08-02T08:23:09Z</time>
      </trkpt>
      <trkpt lat="45.90244" lon="4.73765">
        <ele>178</ele>
        <time>2018-08-02T08:23:10Z</time>
      </trkpt>
      <trkpt lat="45.90238" lon="4.73767">
        <ele>177</ele>
        <time>2018-08-02T08:23:11Z</time>
      </trkpt>
      <trkpt lat="45.90233" lon="4.73768">
        <ele>177</ele>
        <time>2018-08-02T08:23:12Z</time>
      </trkpt>
      <trkpt lat="45.90227" lon="4.7377">
        <ele>177</ele>
        <time>2018-08-02T08:23:13Z</time>
      </trkpt>
      <trkpt lat="45.90221" lon="4.73772">
        <ele>177</ele>
        <time>2018-08-02T08:23:14Z</time>
      </trkpt>
      <trkpt lat="45.90216" lon="4.73774">
        <ele>177</ele>
        <time>2018-08-02T08:23:15Z</time>
      </trkpt>
      <trkpt lat="45.9021" lon="4.73775">
        <ele>177</ele>
        <time>2018-08-02T08:23:16Z</time>
      </trkpt>
      <trkpt lat="45.90204" lon="4.73777">
        <ele>177</ele>
        <time>2018-08-02T08:23:17Z</time>
      </trkpt>
      <trkpt lat="45.90198" lon="4.73779">
        <ele>177</ele>
        <time>2018-08-02T08:23:18Z</time>
      </trkpt>
      <trkpt lat="45.90192" lon="4.73782">
        <ele>177</ele>
        <time>2018-08-02T08:23:19Z</time>
      </trkpt>
      <trkpt lat="45.90186" lon="4.73785">
        <ele>177</ele>
        <time>2018-08-02T08:23:20Z</time>
      </trkpt>
      <trkpt lat="45.9018" lon="4.73787">
        <ele>177</ele>
        <time>2018-08-02T08:23:21Z</time>
      </trkpt>
      <trkpt lat="45.90174" lon="4.73788">
        <ele>177</ele>
        <time>2018-08-02T08:23:22Z</time>
      </trkpt>
      <trkpt lat="45.90167" lon="4.73791">
        <ele>177</ele>
        <time>2018-08-02T08:23:23Z</time>
      </trkpt>
      <trkpt lat="45.90162" lon="4.73794">
        <ele>176</ele>
        <time>2018-08-02T08:23:24Z</time>
      </trkpt>
      <trkpt lat="45.90156" lon="4.73798">
        <ele>177</ele>
        <time>2018-08-02T08:23:25Z</time>
      </trkpt>
      <trkpt lat="45.90151" lon="4.738">
        <ele>177</ele>
        <time>2018-08-02T08:23:26Z</time>
      </trkpt>
      <trkpt lat="45.90145" lon="4.73802">
        <ele>177</ele>
        <time>2018-08-02T08:23:27Z</time>
      </trkpt>
      <trkpt lat="45.90138" lon="4.73806">
        <ele>177</ele>
        <time>2018-08-02T08:23:28Z</time>
      </trkpt>
      <trkpt lat="45.90132" lon="4.73809">
        <ele>177</ele>
        <time>2018-08-02T08:23:29Z</time>
      </trkpt>
      <trkpt lat="45.90128" lon="4.7381">
        <ele>177</ele>
        <time>2018-08-02T08:23:30Z</time>
      </trkpt>
      <trkpt lat="45.90122" lon="4.73813">
        <ele>177</ele>
        <time>2018-08-02T08:23:31Z</time>
      </trkpt>
      <trkpt lat="45.90116" lon="4.73815">
        <ele>177</ele>
        <time>2018-08-02T08:23:32Z</time>
      </trkpt>
      <trkpt lat="45.90111" lon="4.73817">
        <ele>177</ele>
        <time>2018-08-02T08:23:33Z</time>
      </trkpt>
      <trkpt lat="45.90105" lon="4.7382">
        <ele>177</ele>
        <time>2018-08-02T08:23:34Z</time>
      </trkpt>
      <trkpt lat="45.901" lon="4.73822">
        <ele>177</ele>
        <time>2018-08-02T08:23:35Z</time>
      </trkpt>
      <trkpt lat="45.90094" lon="4.73825">
        <ele>177</ele>
        <time>2018-08-02T08:23:36Z</time>
      </trkpt>
      <trkpt lat="45.90087" lon="4.73827">
        <ele>178</ele>
        <time>2018-08-02T08:23:37Z</time>
      </trkpt>
      <trkpt lat="45.9008" lon="4.7383">
        <ele>178</ele>
        <time>2018-08-02T08:23:38Z</time>
      </trkpt>
      <trkpt lat="45.90075" lon="4.73832">
        <ele>178</ele>
        <time>2018-08-02T08:23:39Z</time>
      </trkpt>
      <trkpt lat="45.90069" lon="4.73834">
        <ele>178</ele>
        <time>2018-08-02T08:23:40Z</time>
      </trkpt>
      <trkpt lat="45.90063" lon="4.73837">
        <ele>178</ele>
        <time>2018-08-02T08:23:41Z</time>
      </trkpt>
      <trkpt lat="45.90057" lon="4.73841">
        <ele>178</ele>
        <time>2018-08-02T08:23:42Z</time>
      </trkpt>
      <trkpt lat="45.90052" lon="4.73843">
        <ele>178</ele>
        <time>2018-08-02T08:23:43Z</time>
      </trkpt>
      <trkpt lat="45.90047" lon="4.73845">
        <ele>178</ele>
        <time>2018-08-02T08:23:44Z</time>
      </trkpt>
      <trkpt lat="45.90042" lon="4.73848">
        <ele>178</ele>
        <time>2018-08-02T08:23:45Z</time>
      </trkpt>
      <trkpt lat="45.90037" lon="4.73848">
        <ele>178</ele>
        <time>2018-08-02T08:23:46Z</time>
      </trkpt>
      <trkpt lat="45.90032" lon="4.73849">
        <ele>178</ele>
        <time>2018-08-02T08:23:47Z</time>
      </trkpt>
      <trkpt lat="45.90027" lon="4.73851">
        <ele>178</ele>
        <time>2018-08-02T08:23:48Z</time>
      </trkpt>
      <trkpt lat="45.90021" lon="4.73852">
        <ele>178</ele>
        <time>2018-08-02T08:23:49Z</time>
      </trkpt>
      <trkpt lat="45.90015" lon="4.73854">
        <ele>178</ele>
        <time>2018-08-02T08:23:50Z</time>
      </trkpt>
      <trkpt lat="45.9001" lon="4.73857">
        <ele>178</ele>
        <time>2018-08-02T08:23:51Z</time>
      </trkpt>
      <trkpt lat="45.90004" lon="4.7386">
        <ele>178</ele>
        <time>2018-08-02T08:23:52Z</time>
      </trkpt>
      <trkpt lat="45.89998" lon="4.73863">
        <ele>178</ele>
        <time>2018-08-02T08:23:53Z</time>
      </trkpt>
      <trkpt lat="45.89991" lon="4.73864">
        <ele>178</ele>
        <time>2018-08-02T08:23:54Z</time>
      </trkpt>
      <trkpt lat="45.89984" lon="4.73868">
        <ele>178</ele>
        <time>2018-08-02T08:23:55Z</time>
      </trkpt>
      <trkpt lat="45.89978" lon="4.73871">
        <ele>178</ele>
        <time>2018-08-02T08:23:56Z</time>
      </trkpt>
      <trkpt lat="45.89971" lon="4.73874">
        <ele>178</ele>
        <time>2018-08-02T08:23:57Z</time>
      </trkpt>
      <trkpt lat="45.89965" lon="4.73876">
        <ele>178</ele>
        <time>2018-08-02T08:23:58Z</time>
      </trkpt>
      <trkpt lat="45.89958" lon="4.73882">
        <ele>178</ele>
        <time>2018-08-02T08:23:59Z</time>
      </trkpt>
      <trkpt lat="45.89951" lon="4.73885">
        <ele>178</ele>
        <time>2018-08-02T08:24:00Z</time>
      </trkpt>
      <trkpt lat="45.89946" lon="4.73889">
        <ele>178</ele>
        <time>2018-08-02T08:24:01Z</time>
      </trkpt>
      <trkpt lat="45.89941" lon="4.73891">
        <ele>178</ele>
        <time>2018-08-02T08:24:02Z</time>
      </trkpt>
      <trkpt lat="45.89935" lon="4.73892">
        <ele>178</ele>
        <time>2018-08-02T08:24:03Z</time>
      </trkpt>
      <trkpt lat="45.8993" lon="4.73893">
        <ele>178</ele>
        <time>2018-08-02T08:24:04Z</time>
      </trkpt>
      <trkpt lat="45.89925" lon="4.73894">
        <ele>178</ele>
        <time>2018-08-02T08:24:05Z</time>
      </trkpt>
      <trkpt lat="45.89919" lon="4.73896">
        <ele>178</ele>
        <time>2018-08-02T08:24:06Z</time>
      </trkpt>
      <trkpt lat="45.89913" lon="4.73899">
        <ele>178</ele>
        <time>2018-08-02T08:24:07Z</time>
      </trkpt>
      <trkpt lat="45.89908" lon="4.73899">
        <ele>178</ele>
        <time>2018-08-02T08:24:08Z</time>
      </trkpt>
      <trkpt lat="45.89902" lon="4.73903">
        <ele>178</ele>
        <time>2018-08-02T08:24:09Z</time>
      </trkpt>
      <trkpt lat="45.89896" lon="4.73905">
        <ele>178</ele>
        <time>2018-08-02T08:24:10Z</time>
      </trkpt>
      <trkpt lat="45.89891" lon="4.73907">
        <ele>179</ele>
        <time>2018-08-02T08:24:11Z</time>
      </trkpt>
      <trkpt lat="45.89884" lon="4.73911">
        <ele>179</ele>
        <time>2018-08-02T08:24:12Z</time>
      </trkpt>
      <trkpt lat="45.89878" lon="4.73913">
        <ele>179</ele>
        <time>2018-08-02T08:24:13Z</time>
      </trkpt>
      <trkpt lat="45.8987" lon="4.73916">
        <ele>179</ele>
        <time>2018-08-02T08:24:14Z</time>
      </trkpt>
      <trkpt lat="45.89864" lon="4.73918">
        <ele>179</ele>
        <time>2018-08-02T08:24:15Z</time>
      </trkpt>
      <trkpt lat="45.89858" lon="4.73921">
        <ele>179</ele>
        <time>2018-08-02T08:24:16Z</time>
      </trkpt>
      <trkpt lat="45.89851" lon="4.73924">
        <ele>179</ele>
        <time>2018-08-02T08:24:17Z</time>
      </trkpt>
      <trkpt lat="45.89846" lon="4.73926">
        <ele>179</ele>
        <time>2018-08-02T08:24:18Z</time>
      </trkpt>
      <trkpt lat="45.89841" lon="4.73928">
        <ele>179</ele>
        <time>2018-08-02T08:24:19Z</time>
      </trkpt>
      <trkpt lat="45.89836" lon="4.73931">
        <ele>179</ele>
        <time>2018-08-02T08:24:20Z</time>
      </trkpt>
      <trkpt lat="45.89831" lon="4.73932">
        <ele>179</ele>
        <time>2018-08-02T08:24:21Z</time>
      </trkpt>
      <trkpt lat="45.89826" lon="4.73934">
        <ele>179</ele>
        <time>2018-08-02T08:24:22Z</time>
      </trkpt>
      <trkpt lat="45.8982" lon="4.73936">
        <ele>179</ele>
        <time>2018-08-02T08:24:23Z</time>
      </trkpt>
      <trkpt lat="45.89815" lon="4.73939">
        <ele>179</ele>
        <time>2018-08-02T08:24:24Z</time>
      </trkpt>
      <trkpt lat="45.89809" lon="4.73942">
        <ele>179</ele>
        <time>2018-08-02T08:24:25Z</time>
      </trkpt>
      <trkpt lat="45.89804" lon="4.73943">
        <ele>179</ele>
        <time>2018-08-02T08:24:26Z</time>
      </trkpt>
      <trkpt lat="45.89799" lon="4.73946">
        <ele>179</ele>
        <time>2018-08-02T08:24:27Z</time>
      </trkpt>
      <trkpt lat="45.89794" lon="4.73949">
        <ele>179</ele>
        <time>2018-08-02T08:24:28Z</time>
      </trkpt>
      <trkpt lat="45.89788" lon="4.7395">
        <ele>179</ele>
        <time>2018-08-02T08:24:29Z</time>
      </trkpt>
      <trkpt lat="45.89783" lon="4.73951">
        <ele>179</ele>
        <time>2018-08-02T08:24:30Z</time>
      </trkpt>
      <trkpt lat="45.89778" lon="4.73955">
        <ele>179</ele>
        <time>2018-08-02T08:24:31Z</time>
      </trkpt>
      <trkpt lat="45.89773" lon="4.73957">
        <ele>179</ele>
        <time>2018-08-02T08:24:32Z</time>
      </trkpt>
      <trkpt lat="45.89768" lon="4.73959">
        <ele>179</ele>
        <time>2018-08-02T08:24:33Z</time>
      </trkpt>
      <trkpt lat="45.89764" lon="4.73961">
        <ele>179</ele>
        <time>2018-08-02T08:24:34Z</time>
      </trkpt>
      <trkpt lat="45.8976" lon="4.73964">
        <ele>178</ele>
        <time>2018-08-02T08:24:35Z</time>
      </trkpt>
      <trkpt lat="45.89754" lon="4.73968">
        <ele>178</ele>
        <time>2018-08-02T08:24:36Z</time>
      </trkpt>
      <trkpt lat="45.89748" lon="4.73968">
        <ele>178</ele>
        <time>2018-08-02T08:24:37Z</time>
      </trkpt>
      <trkpt lat="45.89743" lon="4.73974">
        <ele>178</ele>
        <time>2018-08-02T08:24:38Z</time>
      </trkpt>
      <trkpt lat="45.89738" lon="4.73974">
        <ele>178</ele>
        <time>2018-08-02T08:24:39Z</time>
      </trkpt>
      <trkpt lat="45.89733" lon="4.73977">
        <ele>178</ele>
        <time>2018-08-02T08:24:40Z</time>
      </trkpt>
      <trkpt lat="45.89729" lon="4.7398">
        <ele>178</ele>
        <time>2018-08-02T08:24:41Z</time>
      </trkpt>
      <trkpt lat="45.89721" lon="4.73981">
        <ele>178</ele>
        <time>2018-08-02T08:24:42Z</time>
      </trkpt>
      <trkpt lat="45.89716" lon="4.73984">
        <ele>178</ele>
        <time>2018-08-02T08:24:43Z</time>
      </trkpt>
      <trkpt lat="45.89711" lon="4.73984">
        <ele>178</ele>
        <time>2018-08-02T08:24:44Z</time>
      </trkpt>
      <trkpt lat="45.89704" lon="4.73988">
        <ele>178</ele>
        <time>2018-08-02T08:24:45Z</time>
      </trkpt>
      <trkpt lat="45.89699" lon="4.7399">
        <ele>178</ele>
        <time>2018-08-02T08:24:46Z</time>
      </trkpt>
      <trkpt lat="45.89693" lon="4.73995">
        <ele>178</ele>
        <time>2018-08-02T08:24:47Z</time>
      </trkpt>
      <trkpt lat="45.89688" lon="4.73996">
        <ele>179</ele>
        <time>2018-08-02T08:24:48Z</time>
      </trkpt>
      <trkpt lat="45.89683" lon="4.74">
        <ele>179</ele>
        <time>2018-08-02T08:24:49Z</time>
      </trkpt>
      <trkpt lat="45.89678" lon="4.74002">
        <ele>179</ele>
        <time>2018-08-02T08:24:50Z</time>
      </trkpt>
      <trkpt lat="45.89672" lon="4.74006">
        <ele>179</ele>
        <time>2018-08-02T08:24:51Z</time>
      </trkpt>
      <trkpt lat="45.89667" lon="4.74007">
        <ele>179</ele>
        <time>2018-08-02T08:24:52Z</time>
      </trkpt>
      <trkpt lat="45.89662" lon="4.74009">
        <ele>179</ele>
        <time>2018-08-02T08:24:53Z</time>
      </trkpt>
      <trkpt lat="45.89656" lon="4.7401">
        <ele>179</ele>
        <time>2018-08-02T08:24:54Z</time>
      </trkpt>
      <trkpt lat="45.89648" lon="4.74013">
        <ele>180</ele>
        <time>2018-08-02T08:24:55Z</time>
      </trkpt>
      <trkpt lat="45.89643" lon="4.74017">
        <ele>180</ele>
        <time>2018-08-02T08:24:56Z</time>
      </trkpt>
      <trkpt lat="45.89636" lon="4.74018">
        <ele>180</ele>
        <time>2018-08-02T08:24:57Z</time>
      </trkpt>
      <trkpt lat="45.89631" lon="4.7402">
        <ele>180</ele>
        <time>2018-08-02T08:24:58Z</time>
      </trkpt>
      <trkpt lat="45.89625" lon="4.74022">
        <ele>180</ele>
        <time>2018-08-02T08:24:59Z</time>
      </trkpt>
      <trkpt lat="45.89619" lon="4.74024">
        <ele>180</ele>
        <time>2018-08-02T08:25:00Z</time>
      </trkpt>
      <trkpt lat="45.89612" lon="4.74026">
        <ele>180</ele>
        <time>2018-08-02T08:25:01Z</time>
      </trkpt>
      <trkpt lat="45.89606" lon="4.74028">
        <ele>180</ele>
        <time>2018-08-02T08:25:02Z</time>
      </trkpt>
      <trkpt lat="45.896" lon="4.74033">
        <ele>180</ele>
        <time>2018-08-02T08:25:03Z</time>
      </trkpt>
      <trkpt lat="45.89596" lon="4.74035">
        <ele>180</ele>
        <time>2018-08-02T08:25:04Z</time>
      </trkpt>
      <trkpt lat="45.89589" lon="4.74037">
        <ele>180</ele>
        <time>2018-08-02T08:25:05Z</time>
      </trkpt>
      <trkpt lat="45.89584" lon="4.74039">
        <ele>180</ele>
        <time>2018-08-02T08:25:06Z</time>
      </trkpt>
      <trkpt lat="45.89577" lon="4.74044">
        <ele>181</ele>
        <time>2018-08-02T08:25:07Z</time>
      </trkpt>
      <trkpt lat="45.89571" lon="4.74045">
        <ele>181</ele>
        <time>2018-08-02T08:25:08Z</time>
      </trkpt>
      <trkpt lat="45.89565" lon="4.74047">
        <ele>181</ele>
        <time>2018-08-02T08:25:09Z</time>
      </trkpt>
      <trkpt lat="45.89561" lon="4.74051">
        <ele>181</ele>
        <time>2018-08-02T08:25:10Z</time>
      </trkpt>
      <trkpt lat="45.89555" lon="4.74053">
        <ele>181</ele>
        <time>2018-08-02T08:25:11Z</time>
      </trkpt>
      <trkpt lat="45.8955" lon="4.74056">
        <ele>181</ele>
        <time>2018-08-02T08:25:12Z</time>
      </trkpt>
      <trkpt lat="45.89543" lon="4.7406">
        <ele>181</ele>
        <time>2018-08-02T08:25:13Z</time>
      </trkpt>
      <trkpt lat="45.89538" lon="4.74062">
        <ele>181</ele>
        <time>2018-08-02T08:25:14Z</time>
      </trkpt>
      <trkpt lat="45.89532" lon="4.74064">
        <ele>181</ele>
        <time>2018-08-02T08:25:15Z</time>
      </trkpt>
      <trkpt lat="45.89525" lon="4.74066">
        <ele>181</ele>
        <time>2018-08-02T08:25:16Z</time>
      </trkpt>
      <trkpt lat="45.89519" lon="4.74069">
        <ele>181</ele>
        <time>2018-08-02T08:25:17Z</time>
      </trkpt>
      <trkpt lat="45.89513" lon="4.74071">
        <ele>181</ele>
        <time>2018-08-02T08:25:18Z</time>
      </trkpt>
      <trkpt lat="45.89508" lon="4.74074">
        <ele>181</ele>
        <time>2018-08-02T08:25:19Z</time>
      </trkpt>
      <trkpt lat="45.89501" lon="4.74076">
        <ele>181</ele>
        <time>2018-08-02T08:25:20Z</time>
      </trkpt>
      <trkpt lat="45.89495" lon="4.74078">
        <ele>181</ele>
        <time>2018-08-02T08:25:21Z</time>
      </trkpt>
      <trkpt lat="45.8949" lon="4.74079">
        <ele>181</ele>
        <time>2018-08-02T08:25:22Z</time>
      </trkpt>
      <trkpt lat="45.89485" lon="4.74081">
        <ele>181</ele>
        <time>2018-08-02T08:25:23Z</time>
      </trkpt>
      <trkpt lat="45.8948" lon="4.74083">
        <ele>182</ele>
        <time>2018-08-02T08:25:24Z</time>
      </trkpt>
      <trkpt lat="45.89476" lon="4.74085">
        <ele>182</ele>
        <time>2018-08-02T08:25:25Z</time>
      </trkpt>
      <trkpt lat="45.8947" lon="4.74089">
        <ele>182</ele>
        <time>2018-08-02T08:25:26Z</time>
      </trkpt>
      <trkpt lat="45.89465" lon="4.74091">
        <ele>182</ele>
        <time>2018-08-02T08:25:27Z</time>
      </trkpt>
      <trkpt lat="45.89458" lon="4.74093">
        <ele>182</ele>
        <time>2018-08-02T08:25:28Z</time>
      </trkpt>
      <trkpt lat="45.89453" lon="4.74095">
        <ele>182</ele>
        <time>2018-08-02T08:25:29Z</time>
      </trkpt>
      <trkpt lat="45.89448" lon="4.74098">
        <ele>182</ele>
        <time>2018-08-02T08:25:30Z</time>
      </trkpt>
      <trkpt lat="45.89443" lon="4.741">
        <ele>182</ele>
        <time>2018-08-02T08:25:31Z</time>
      </trkpt>
      <trkpt lat="45.89437" lon="4.74101">
        <ele>182</ele>
        <time>2018-08-02T08:25:32Z</time>
      </trkpt>
      <trkpt lat="45.89431" lon="4.74103">
        <ele>182</ele>
        <time>2018-08-02T08:25:33Z</time>
      </trkpt>
      <trkpt lat="45.89425" lon="4.74106">
        <ele>183</ele>
        <time>2018-08-02T08:25:34Z</time>
      </trkpt>
      <trkpt lat="45.89418" lon="4.74108">
        <ele>183</ele>
        <time>2018-08-02T08:25:35Z</time>
      </trkpt>
      <trkpt lat="45.89412" lon="4.74109">
        <ele>183</ele>
        <time>2018-08-02T08:25:36Z</time>
      </trkpt>
      <trkpt lat="45.89404" lon="4.74112">
        <ele>183</ele>
        <time>2018-08-02T08:25:37Z</time>
      </trkpt>
      <trkpt lat="45.89399" lon="4.74114">
        <ele>184</ele>
        <time>2018-08-02T08:25:38Z</time>
      </trkpt>
      <trkpt lat="45.89393" lon="4.74117">
        <ele>184</ele>
        <time>2018-08-02T08:25:39Z</time>
      </trkpt>
      <trkpt lat="45.89387" lon="4.7412">
        <ele>184</ele>
        <time>2018-08-02T08:25:40Z</time>
      </trkpt>
      <trkpt lat="45.8938" lon="4.74123">
        <ele>184</ele>
        <time>2018-08-02T08:25:41Z</time>
      </trkpt>
      <trkpt lat="45.89375" lon="4.74125">
        <ele>184</ele>
        <time>2018-08-02T08:25:42Z</time>
      </trkpt>
      <trkpt lat="45.89369" lon="4.74127">
        <ele>184</ele>
        <time>2018-08-02T08:25:43Z</time>
      </trkpt>
      <trkpt lat="45.89364" lon="4.7413">
        <ele>184</ele>
        <time>2018-08-02T08:25:44Z</time>
      </trkpt>
      <trkpt lat="45.89359" lon="4.74136">
        <ele>184</ele>
        <time>2018-08-02T08:25:45Z</time>
      </trkpt>
      <trkpt lat="45.89352" lon="4.7414">
        <ele>185</ele>
        <time>2018-08-02T08:25:46Z</time>
      </trkpt>
      <trkpt lat="45.89346" lon="4.74141">
        <ele>185</ele>
        <time>2018-08-02T08:25:47Z</time>
      </trkpt>
      <trkpt lat="45.8934" lon="4.74144">
        <ele>185</ele>
        <time>2018-08-02T08:25:48Z</time>
      </trkpt>
      <trkpt lat="45.89336" lon="4.74145">
        <ele>185</ele>
        <time>2018-08-02T08:25:49Z</time>
      </trkpt>
      <trkpt lat="45.8933" lon="4.74148">
        <ele>185</ele>
        <time>2018-08-02T08:25:50Z</time>
      </trkpt>
      <trkpt lat="45.89321" lon="4.7415">
        <ele>185</ele>
        <time>2018-08-02T08:25:52Z</time>
      </trkpt>
      <trkpt lat="45.89316" lon="4.7415">
        <ele>185</ele>
        <time>2018-08-02T08:25:53Z</time>
      </trkpt>
      <trkpt lat="45.8931" lon="4.74152">
        <ele>185</ele>
        <time>2018-08-02T08:25:54Z</time>
      </trkpt>
      <trkpt lat="45.89307" lon="4.74157">
        <ele>185</ele>
        <time>2018-08-02T08:25:55Z</time>
      </trkpt>
      <trkpt lat="45.89301" lon="4.7416">
        <ele>185</ele>
        <time>2018-08-02T08:25:56Z</time>
      </trkpt>
      <trkpt lat="45.89296" lon="4.74162">
        <ele>185</ele>
        <time>2018-08-02T08:25:57Z</time>
      </trkpt>
      <trkpt lat="45.89289" lon="4.74161">
        <ele>185</ele>
        <time>2018-08-02T08:25:58Z</time>
      </trkpt>
      <trkpt lat="45.89283" lon="4.74163">
        <ele>185</ele>
        <time>2018-08-02T08:25:59Z</time>
      </trkpt>
      <trkpt lat="45.89279" lon="4.74169">
        <ele>186</ele>
        <time>2018-08-02T08:26:00Z</time>
      </trkpt>
      <trkpt lat="45.89274" lon="4.74171">
        <ele>186</ele>
        <time>2018-08-02T08:26:01Z</time>
      </trkpt>
      <trkpt lat="45.89269" lon="4.74175">
        <ele>186</ele>
        <time>2018-08-02T08:26:02Z</time>
      </trkpt>
      <trkpt lat="45.89264" lon="4.74176">
        <ele>186</ele>
        <time>2018-08-02T08:26:03Z</time>
      </trkpt>
      <trkpt lat="45.89258" lon="4.74178">
        <ele>185</ele>
        <time>2018-08-02T08:26:04Z</time>
      </trkpt>
      <trkpt lat="45.89254" lon="4.74181">
        <ele>185</ele>
        <time>2018-08-02T08:26:05Z</time>
      </trkpt>
      <trkpt lat="45.89248" lon="4.74183">
        <ele>186</ele>
        <time>2018-08-02T08:26:06Z</time>
      </trkpt>
      <trkpt lat="45.8924" lon="4.74185">
        <ele>186</ele>
        <time>2018-08-02T08:26:07Z</time>
      </trkpt>
      <trkpt lat="45.89235" lon="4.74188">
        <ele>186</ele>
        <time>2018-08-02T08:26:08Z</time>
      </trkpt>
      <trkpt lat="45.89229" lon="4.74189">
        <ele>186</ele>
        <time>2018-08-02T08:26:09Z</time>
      </trkpt>
      <trkpt lat="45.89224" lon="4.74193">
        <ele>186</ele>
        <time>2018-08-02T08:26:10Z</time>
      </trkpt>
      <trkpt lat="45.89218" lon="4.74195">
        <ele>186</ele>
        <time>2018-08-02T08:26:11Z</time>
      </trkpt>
      <trkpt lat="45.89211" lon="4.74198">
        <ele>186</ele>
        <time>2018-08-02T08:26:12Z</time>
      </trkpt>
      <trkpt lat="45.89205" lon="4.74201">
        <ele>186</ele>
        <time>2018-08-02T08:26:13Z</time>
      </trkpt>
      <trkpt lat="45.89198" lon="4.74203">
        <ele>186</ele>
        <time>2018-08-02T08:26:14Z</time>
      </trkpt>
      <trkpt lat="45.89191" lon="4.74207">
        <ele>186</ele>
        <time>2018-08-02T08:26:15Z</time>
      </trkpt>
      <trkpt lat="45.89184" lon="4.74209">
        <ele>186</ele>
        <time>2018-08-02T08:26:16Z</time>
      </trkpt>
      <trkpt lat="45.89178" lon="4.74211">
        <ele>186</ele>
        <time>2018-08-02T08:26:17Z</time>
      </trkpt>
      <trkpt lat="45.89172" lon="4.74214">
        <ele>186</ele>
        <time>2018-08-02T08:26:18Z</time>
      </trkpt>
      <trkpt lat="45.89167" lon="4.74215">
        <ele>186</ele>
        <time>2018-08-02T08:26:19Z</time>
      </trkpt>
      <trkpt lat="45.89162" lon="4.74217">
        <ele>186</ele>
        <time>2018-08-02T08:26:20Z</time>
      </trkpt>
      <trkpt lat="45.89156" lon="4.74223">
        <ele>186</ele>
        <time>2018-08-02T08:26:21Z</time>
      </trkpt>
      <trkpt lat="45.8915" lon="4.74225">
        <ele>186</ele>
        <time>2018-08-02T08:26:22Z</time>
      </trkpt>
      <trkpt lat="45.89144" lon="4.74226">
        <ele>186</ele>
        <time>2018-08-02T08:26:23Z</time>
      </trkpt>
      <trkpt lat="45.89139" lon="4.74228">
        <ele>186</ele>
        <time>2018-08-02T08:26:24Z</time>
      </trkpt>
      <trkpt lat="45.89133" lon="4.7423">
        <ele>186</ele>
        <time>2018-08-02T08:26:25Z</time>
      </trkpt>
      <trkpt lat="45.89128" lon="4.74233">
        <ele>186</ele>
        <time>2018-08-02T08:26:26Z</time>
      </trkpt>
      <trkpt lat="45.89123" lon="4.74236">
        <ele>186</ele>
        <time>2018-08-02T08:26:27Z</time>
      </trkpt>
      <trkpt lat="45.89118" lon="4.74237">
        <ele>186</ele>
        <time>2018-08-02T08:26:28Z</time>
      </trkpt>
      <trkpt lat="45.89113" lon="4.74239">
        <ele>186</ele>
        <time>2018-08-02T08:26:29Z</time>
      </trkpt>
      <trkpt lat="45.89107" lon="4.7424">
        <ele>186</ele>
        <time>2018-08-02T08:26:30Z</time>
      </trkpt>
      <trkpt lat="45.89102" lon="4.74243">
        <ele>186</ele>
        <time>2018-08-02T08:26:31Z</time>
      </trkpt>
      <trkpt lat="45.89096" lon="4.74245">
        <ele>186</ele>
        <time>2018-08-02T08:26:32Z</time>
      </trkpt>
      <trkpt lat="45.8909" lon="4.74249">
        <ele>186</ele>
        <time>2018-08-02T08:26:33Z</time>
      </trkpt>
      <trkpt lat="45.89084" lon="4.7425">
        <ele>186</ele>
        <time>2018-08-02T08:26:34Z</time>
      </trkpt>
      <trkpt lat="45.89078" lon="4.74252">
        <ele>186</ele>
        <time>2018-08-02T08:26:35Z</time>
      </trkpt>
      <trkpt lat="45.89071" lon="4.74255">
        <ele>186</ele>
        <time>2018-08-02T08:26:36Z</time>
      </trkpt>
      <trkpt lat="45.89065" lon="4.74256">
        <ele>186</ele>
        <time>2018-08-02T08:26:37Z</time>
      </trkpt>
      <trkpt lat="45.8906" lon="4.74258">
        <ele>186</ele>
        <time>2018-08-02T08:26:38Z</time>
      </trkpt>
      <trkpt lat="45.89053" lon="4.7426">
        <ele>187</ele>
        <time>2018-08-02T08:26:39Z</time>
      </trkpt>
      <trkpt lat="45.89047" lon="4.7426">
        <ele>187</ele>
        <time>2018-08-02T08:26:40Z</time>
      </trkpt>
      <trkpt lat="45.89041" lon="4.74261">
        <ele>187</ele>
        <time>2018-08-02T08:26:41Z</time>
      </trkpt>
      <trkpt lat="45.89033" lon="4.74264">
        <ele>187</ele>
        <time>2018-08-02T08:26:42Z</time>
      </trkpt>
      <trkpt lat="45.89026" lon="4.74266">
        <ele>187</ele>
        <time>2018-08-02T08:26:43Z</time>
      </trkpt>
      <trkpt lat="45.89021" lon="4.74269">
        <ele>187</ele>
        <time>2018-08-02T08:26:44Z</time>
      </trkpt>
      <trkpt lat="45.89014" lon="4.7427">
        <ele>187</ele>
        <time>2018-08-02T08:26:45Z</time>
      </trkpt>
      <trkpt lat="45.89008" lon="4.74271">
        <ele>187</ele>
        <time>2018-08-02T08:26:46Z</time>
      </trkpt>
      <trkpt lat="45.89002" lon="4.74272">
        <ele>187</ele>
        <time>2018-08-02T08:26:47Z</time>
      </trkpt>
      <trkpt lat="45.88997" lon="4.74275">
        <ele>187</ele>
        <time>2018-08-02T08:26:48Z</time>
      </trkpt>
      <trkpt lat="45.88992" lon="4.74275">
        <ele>187</ele>
        <time>2018-08-02T08:26:49Z</time>
      </trkpt>
      <trkpt lat="45.88987" lon="4.74277">
        <ele>187</ele>
        <time>2018-08-02T08:26:50Z</time>
      </trkpt>
      <trkpt lat="45.88982" lon="4.74278">
        <ele>187</ele>
        <time>2018-08-02T08:26:51Z</time>
      </trkpt>
      <trkpt lat="45.88973" lon="4.74279">
        <ele>187</ele>
        <time>2018-08-02T08:26:53Z</time>
      </trkpt>
      <trkpt lat="45.88969" lon="4.74277">
        <ele>187</ele>
        <time>2018-08-02T08:26:54Z</time>
      </trkpt>
      <trkpt lat="45.88964" lon="4.74274">
        <ele>187</ele>
        <time>2018-08-02T08:26:55Z</time>
      </trkpt>
      <trkpt lat="45.8896" lon="4.74272">
        <ele>187</ele>
        <time>2018-08-02T08:26:56Z</time>
      </trkpt>
      <trkpt lat="45.88953" lon="4.74271">
        <ele>187</ele>
        <time>2018-08-02T08:26:57Z</time>
      </trkpt>
      <trkpt lat="45.88948" lon="4.74269">
        <ele>187</ele>
        <time>2018-08-02T08:26:58Z</time>
      </trkpt>
      <trkpt lat="45.88941" lon="4.74269">
        <ele>187</ele>
        <time>2018-08-02T08:26:59Z</time>
      </trkpt>
      <trkpt lat="45.88937" lon="4.74268">
        <ele>187</ele>
        <time>2018-08-02T08:27:00Z</time>
      </trkpt>
      <trkpt lat="45.88932" lon="4.74266">
        <ele>187</ele>
        <time>2018-08-02T08:27:01Z</time>
      </trkpt>
      <trkpt lat="45.88925" lon="4.74267">
        <ele>187</ele>
        <time>2018-08-02T08:27:02Z</time>
      </trkpt>
      <trkpt lat="45.88917" lon="4.74262">
        <ele>187</ele>
        <time>2018-08-02T08:27:04Z</time>
      </trkpt>
      <trkpt lat="45.88913" lon="4.74258">
        <ele>187</ele>
        <time>2018-08-02T08:27:05Z</time>
      </trkpt>
      <trkpt lat="45.88909" lon="4.74255">
        <ele>187</ele>
        <time>2018-08-02T08:27:06Z</time>
      </trkpt>
      <trkpt lat="45.88903" lon="4.74252">
        <ele>187</ele>
        <time>2018-08-02T08:27:07Z</time>
      </trkpt>
      <trkpt lat="45.88897" lon="4.74251">
        <ele>187</ele>
        <time>2018-08-02T08:27:08Z</time>
      </trkpt>
      <trkpt lat="45.88895" lon="4.74245">
        <ele>187</ele>
        <time>2018-08-02T08:27:09Z</time>
      </trkpt>
      <trkpt lat="45.88891" lon="4.74241">
        <ele>187</ele>
        <time>2018-08-02T08:27:10Z</time>
      </trkpt>
      <trkpt lat="45.88887" lon="4.74236">
        <ele>187</ele>
        <time>2018-08-02T08:27:11Z</time>
      </trkpt>
      <trkpt lat="45.88879" lon="4.74231">
        <ele>187</ele>
        <time>2018-08-02T08:27:13Z</time>
      </trkpt>
      <trkpt lat="45.88875" lon="4.74228">
        <ele>187</ele>
        <time>2018-08-02T08:27:14Z</time>
      </trkpt>
      <trkpt lat="45.88868" lon="4.74224">
        <ele>187</ele>
        <time>2018-08-02T08:27:16Z</time>
      </trkpt>
      <trkpt lat="45.88862" lon="4.7422">
        <ele>187</ele>
        <time>2018-08-02T08:27:17Z</time>
      </trkpt>
      <trkpt lat="45.88855" lon="4.74217">
        <ele>187</ele>
        <time>2018-08-02T08:27:19Z</time>
      </trkpt>
      <trkpt lat="45.88849" lon="4.74213">
        <ele>187</ele>
        <time>2018-08-02T08:27:20Z</time>
      </trkpt>
      <trkpt lat="45.88844" lon="4.7421">
        <ele>187</ele>
        <time>2018-08-02T08:27:21Z</time>
      </trkpt>
      <trkpt lat="45.88839" lon="4.74207">
        <ele>187</ele>
        <time>2018-08-02T08:27:22Z</time>
      </trkpt>
      <trkpt lat="45.88835" lon="4.74203">
        <ele>187</ele>
        <time>2018-08-02T08:27:23Z</time>
      </trkpt>
      <trkpt lat="45.8883" lon="4.742">
        <ele>187</ele>
        <time>2018-08-02T08:27:24Z</time>
      </trkpt>
      <trkpt lat="45.88825" lon="4.74196">
        <ele>187</ele>
        <time>2018-08-02T08:27:25Z</time>
      </trkpt>
      <trkpt lat="45.8882" lon="4.74194">
        <ele>187</ele>
        <time>2018-08-02T08:27:26Z</time>
      </trkpt>
      <trkpt lat="45.88815" lon="4.74191">
        <ele>187</ele>
        <time>2018-08-02T08:27:27Z</time>
      </trkpt>
      <trkpt lat="45.88809" lon="4.74186">
        <ele>187</ele>
        <time>2018-08-02T08:27:28Z</time>
      </trkpt>
      <trkpt lat="45.88801" lon="4.74183">
        <ele>187</ele>
        <time>2018-08-02T08:27:30Z</time>
      </trkpt>
      <trkpt lat="45.88796" lon="4.7418">
        <ele>187</ele>
        <time>2018-08-02T08:27:31Z</time>
      </trkpt>
      <trkpt lat="45.88788" lon="4.74175">
        <ele>188</ele>
        <time>2018-08-02T08:27:33Z</time>
      </trkpt>
      <trkpt lat="45.88785" lon="4.74173">
        <ele>188</ele>
        <time>2018-08-02T08:27:34Z</time>
      </trkpt>
      <trkpt lat="45.88776" lon="4.74168">
        <ele>188</ele>
        <time>2018-08-02T08:27:39Z</time>
      </trkpt>
      <trkpt lat="45.88768" lon="4.74162">
        <ele>187</ele>
        <time>2018-08-02T08:27:40Z</time>
      </trkpt>
      <trkpt lat="45.8876" lon="4.74157">
        <ele>187</ele>
        <time>2018-08-02T08:27:42Z</time>
      </trkpt>
      <trkpt lat="45.88757" lon="4.74154">
        <ele>187</ele>
        <time>2018-08-02T08:27:43Z</time>
      </trkpt>
      <trkpt lat="45.88753" lon="4.74151">
        <ele>187</ele>
        <time>2018-08-02T08:27:44Z</time>
      </trkpt>
      <trkpt lat="45.88747" lon="4.74147">
        <ele>188</ele>
        <time>2018-08-02T08:27:45Z</time>
      </trkpt>
      <trkpt lat="45.88741" lon="4.74143">
        <ele>188</ele>
        <time>2018-08-02T08:27:46Z</time>
      </trkpt>
      <trkpt lat="45.88736" lon="4.74138">
        <ele>188</ele>
        <time>2018-08-02T08:27:47Z</time>
      </trkpt>
      <trkpt lat="45.88731" lon="4.74134">
        <ele>188</ele>
        <time>2018-08-02T08:27:48Z</time>
      </trkpt>
      <trkpt lat="45.88728" lon="4.7413">
        <ele>188</ele>
        <time>2018-08-02T08:27:49Z</time>
      </trkpt>
      <trkpt lat="45.88722" lon="4.74127">
        <ele>188</ele>
        <time>2018-08-02T08:27:50Z</time>
      </trkpt>
      <trkpt lat="45.88716" lon="4.74123">
        <ele>188</ele>
        <time>2018-08-02T08:27:51Z</time>
      </trkpt>
      <trkpt lat="45.88711" lon="4.7412">
        <ele>188</ele>
        <time>2018-08-02T08:27:52Z</time>
      </trkpt>
      <trkpt lat="45.88707" lon="4.74117">
        <ele>188</ele>
        <time>2018-08-02T08:27:53Z</time>
      </trkpt>
      <trkpt lat="45.88701" lon="4.74112">
        <ele>188</ele>
        <time>2018-08-02T08:27:55Z</time>
      </trkpt>
      <trkpt lat="45.88696" lon="4.74112">
        <ele>188</ele>
        <time>2018-08-02T08:27:56Z</time>
      </trkpt>
      <trkpt lat="45.88691" lon="4.7411">
        <ele>188</ele>
        <time>2018-08-02T08:27:57Z</time>
      </trkpt>
      <trkpt lat="45.88685" lon="4.74108">
        <ele>188</ele>
        <time>2018-08-02T08:27:58Z</time>
      </trkpt>
      <trkpt lat="45.8868" lon="4.74105">
        <ele>188</ele>
        <time>2018-08-02T08:28:00Z</time>
      </trkpt>
      <trkpt lat="45.88678" lon="4.74096">
        <ele>188</ele>
        <time>2018-08-02T08:28:01Z</time>
      </trkpt>
      <trkpt lat="45.88674" lon="4.74085">
        <ele>188</ele>
        <time>2018-08-02T08:28:03Z</time>
      </trkpt>
      <trkpt lat="45.88672" lon="4.74079">
        <ele>188</ele>
        <time>2018-08-02T08:28:04Z</time>
      </trkpt>
      <trkpt lat="45.88668" lon="4.74071">
        <ele>187</ele>
        <time>2018-08-02T08:28:05Z</time>
      </trkpt>
      <trkpt lat="45.88666" lon="4.74064">
        <ele>188</ele>
        <time>2018-08-02T08:28:06Z</time>
      </trkpt>
      <trkpt lat="45.88664" lon="4.74058">
        <ele>187</ele>
        <time>2018-08-02T08:28:07Z</time>
      </trkpt>
      <trkpt lat="45.88662" lon="4.74051">
        <ele>187</ele>
        <time>2018-08-02T08:28:08Z</time>
      </trkpt>
      <trkpt lat="45.88661" lon="4.74044">
        <ele>187</ele>
        <time>2018-08-02T08:28:09Z</time>
      </trkpt>
      <trkpt lat="45.8866" lon="4.74036">
        <ele>187</ele>
        <time>2018-08-02T08:28:10Z</time>
      </trkpt>
      <trkpt lat="45.88658" lon="4.74027">
        <ele>187</ele>
        <time>2018-08-02T08:28:11Z</time>
      </trkpt>
      <trkpt lat="45.88659" lon="4.7402">
        <ele>187</ele>
        <time>2018-08-02T08:28:12Z</time>
      </trkpt>
      <trkpt lat="45.88657" lon="4.74011">
        <ele>187</ele>
        <time>2018-08-02T08:28:13Z</time>
      </trkpt>
      <trkpt lat="45.88656" lon="4.74002">
        <ele>186</ele>
        <time>2018-08-02T08:28:14Z</time>
      </trkpt>
      <trkpt lat="45.88654" lon="4.73995">
        <ele>186</ele>
        <time>2018-08-02T08:28:15Z</time>
      </trkpt>
      <trkpt lat="45.88653" lon="4.73987">
        <ele>186</ele>
        <time>2018-08-02T08:28:16Z</time>
      </trkpt>
      <trkpt lat="45.88651" lon="4.73978">
        <ele>187</ele>
        <time>2018-08-02T08:28:17Z</time>
      </trkpt>
      <trkpt lat="45.8865" lon="4.7397">
        <ele>187</ele>
        <time>2018-08-02T08:28:18Z</time>
      </trkpt>
      <trkpt lat="45.88649" lon="4.73963">
        <ele>187</ele>
        <time>2018-08-02T08:28:19Z</time>
      </trkpt>
      <trkpt lat="45.88648" lon="4.73955">
        <ele>187</ele>
        <time>2018-08-02T08:28:20Z</time>
      </trkpt>
      <trkpt lat="45.88646" lon="4.73946">
        <ele>187</ele>
        <time>2018-08-02T08:28:21Z</time>
      </trkpt>
      <trkpt lat="45.88645" lon="4.73938">
        <ele>187</ele>
        <time>2018-08-02T08:28:22Z</time>
      </trkpt>
      <trkpt lat="45.88644" lon="4.73929">
        <ele>187</ele>
        <time>2018-08-02T08:28:23Z</time>
      </trkpt>
      <trkpt lat="45.88644" lon="4.73921">
        <ele>187</ele>
        <time>2018-08-02T08:28:24Z</time>
      </trkpt>
      <trkpt lat="45.88643" lon="4.73912">
        <ele>187</ele>
        <time>2018-08-02T08:28:25Z</time>
      </trkpt>
      <trkpt lat="45.88644" lon="4.73903">
        <ele>187</ele>
        <time>2018-08-02T08:28:26Z</time>
      </trkpt>
      <trkpt lat="45.88643" lon="4.73893">
        <ele>187</ele>
        <time>2018-08-02T08:28:27Z</time>
      </trkpt>
      <trkpt lat="45.88643" lon="4.73884">
        <ele>187</ele>
        <time>2018-08-02T08:28:28Z</time>
      </trkpt>
      <trkpt lat="45.88642" lon="4.73875">
        <ele>187</ele>
        <time>2018-08-02T08:28:29Z</time>
      </trkpt>
      <trkpt lat="45.88643" lon="4.73866">
        <ele>187</ele>
        <time>2018-08-02T08:28:30Z</time>
      </trkpt>
      <trkpt lat="45.88643" lon="4.73857">
        <ele>187</ele>
        <time>2018-08-02T08:28:31Z</time>
      </trkpt>
      <trkpt lat="45.88643" lon="4.73849">
        <ele>187</ele>
        <time>2018-08-02T08:28:32Z</time>
      </trkpt>
      <trkpt lat="45.88644" lon="4.7384">
        <ele>187</ele>
        <time>2018-08-02T08:28:33Z</time>
      </trkpt>
      <trkpt lat="45.88644" lon="4.73832">
        <ele>187</ele>
        <time>2018-08-02T08:28:34Z</time>
      </trkpt>
      <trkpt lat="45.88645" lon="4.73825">
        <ele>187</ele>
        <time>2018-08-02T08:28:35Z</time>
      </trkpt>
      <trkpt lat="45.88644" lon="4.73816">
        <ele>187</ele>
        <time>2018-08-02T08:28:36Z</time>
      </trkpt>
      <trkpt lat="45.88644" lon="4.73808">
        <ele>187</ele>
        <time>2018-08-02T08:28:37Z</time>
      </trkpt>
      <trkpt lat="45.88644" lon="4.73801">
        <ele>187</ele>
        <time>2018-08-02T08:28:38Z</time>
      </trkpt>
      <trkpt lat="45.88644" lon="4.73794">
        <ele>187</ele>
        <time>2018-08-02T08:28:39Z</time>
      </trkpt>
      <trkpt lat="45.88644" lon="4.73788">
        <ele>187</ele>
        <time>2018-08-02T08:28:40Z</time>
      </trkpt>
      <trkpt lat="45.88644" lon="4.7378">
        <ele>187</ele>
        <time>2018-08-02T08:28:41Z</time>
      </trkpt>
      <trkpt lat="45.88645" lon="4.73773">
        <ele>187</ele>
        <time>2018-08-02T08:28:42Z</time>
      </trkpt>
      <trkpt lat="45.88646" lon="4.73761">
        <ele>187</ele>
        <time>2018-08-02T08:28:44Z</time>
      </trkpt>
      <trkpt lat="45.88646" lon="4.73754">
        <ele>187</ele>
        <time>2018-08-02T08:28:45Z</time>
      </trkpt>
      <trkpt lat="45.88647" lon="4.73746">
        <ele>187</ele>
        <time>2018-08-02T08:28:46Z</time>
      </trkpt>
      <trkpt lat="45.88648" lon="4.73741">
        <ele>187</ele>
        <time>2018-08-02T08:28:47Z</time>
      </trkpt>
      <trkpt lat="45.88648" lon="4.73729">
        <ele>186</ele>
        <time>2018-08-02T08:28:49Z</time>
      </trkpt>
      <trkpt lat="45.88647" lon="4.73721">
        <ele>186</ele>
        <time>2018-08-02T08:28:50Z</time>
      </trkpt>
      <trkpt lat="45.88647" lon="4.73709">
        <ele>186</ele>
        <time>2018-08-02T08:28:52Z</time>
      </trkpt>
      <trkpt lat="45.88647" lon="4.73702">
        <ele>186</ele>
        <time>2018-08-02T08:28:53Z</time>
      </trkpt>
      <trkpt lat="45.88646" lon="4.73691">
        <ele>186</ele>
        <time>2018-08-02T08:28:55Z</time>
      </trkpt>
      <trkpt lat="45.88646" lon="4.73684">
        <ele>186</ele>
        <time>2018-08-02T08:28:56Z</time>
      </trkpt>
      <trkpt lat="45.88646" lon="4.73671">
        <ele>186</ele>
        <time>2018-08-02T08:28:58Z</time>
      </trkpt>
      <trkpt lat="45.88647" lon="4.73665">
        <ele>186</ele>
        <time>2018-08-02T08:28:59Z</time>
      </trkpt>
      <trkpt lat="45.88648" lon="4.73653">
        <ele>186</ele>
        <time>2018-08-02T08:29:01Z</time>
      </trkpt>
      <trkpt lat="45.88648" lon="4.73647">
        <ele>186</ele>
        <time>2018-08-02T08:29:02Z</time>
      </trkpt>
      <trkpt lat="45.88647" lon="4.73639">
        <ele>186</ele>
        <time>2018-08-02T08:29:03Z</time>
      </trkpt>
      <trkpt lat="45.88648" lon="4.73634">
        <ele>186</ele>
        <time>2018-08-02T08:29:04Z</time>
      </trkpt>
      <trkpt lat="45.88648" lon="4.73621">
        <ele>186</ele>
        <time>2018-08-02T08:29:06Z</time>
      </trkpt>
      <trkpt lat="45.88649" lon="4.73612">
        <ele>186</ele>
        <time>2018-08-02T08:29:07Z</time>
      </trkpt>
      <trkpt lat="45.88649" lon="4.73604">
        <ele>186</ele>
        <time>2018-08-02T08:29:08Z</time>
      </trkpt>
      <trkpt lat="45.88648" lon="4.73597">
        <ele>185</ele>
        <time>2018-08-02T08:29:09Z</time>
      </trkpt>
      <trkpt lat="45.88649" lon="4.73589">
        <ele>185</ele>
        <time>2018-08-02T08:29:10Z</time>
      </trkpt>
      <trkpt lat="45.8865" lon="4.73581">
        <ele>185</ele>
        <time>2018-08-02T08:29:11Z</time>
      </trkpt>
      <trkpt lat="45.88651" lon="4.73573">
        <ele>185</ele>
        <time>2018-08-02T08:29:12Z</time>
      </trkpt>
      <trkpt lat="45.88653" lon="4.73565">
        <ele>185</ele>
        <time>2018-08-02T08:29:13Z</time>
      </trkpt>
      <trkpt lat="45.88652" lon="4.73554">
        <ele>185</ele>
        <time>2018-08-02T08:29:14Z</time>
      </trkpt>
      <trkpt lat="45.88653" lon="4.73546">
        <ele>185</ele>
        <time>2018-08-02T08:29:15Z</time>
      </trkpt>
      <trkpt lat="45.88653" lon="4.73537">
        <ele>185</ele>
        <time>2018-08-02T08:29:16Z</time>
      </trkpt>
      <trkpt lat="45.88653" lon="4.73527">
        <ele>185</ele>
        <time>2018-08-02T08:29:17Z</time>
      </trkpt>
      <trkpt lat="45.88658" lon="4.73518">
        <ele>185</ele>
        <time>2018-08-02T08:29:18Z</time>
      </trkpt>
      <trkpt lat="45.8866" lon="4.73511">
        <ele>184</ele>
        <time>2018-08-02T08:29:19Z</time>
      </trkpt>
      <trkpt lat="45.88662" lon="4.73504">
        <ele>184</ele>
        <time>2018-08-02T08:29:20Z</time>
      </trkpt>
      <trkpt lat="45.88663" lon="4.73497">
        <ele>184</ele>
        <time>2018-08-02T08:29:21Z</time>
      </trkpt>
      <trkpt lat="45.88662" lon="4.7349">
        <ele>184</ele>
        <time>2018-08-02T08:29:22Z</time>
      </trkpt>
      <trkpt lat="45.8866" lon="4.73483">
        <ele>184</ele>
        <time>2018-08-02T08:29:23Z</time>
      </trkpt>
      <trkpt lat="45.88655" lon="4.73477">
        <ele>184</ele>
        <time>2018-08-02T08:29:24Z</time>
      </trkpt>
      <trkpt lat="45.8865" lon="4.73473">
        <ele>184</ele>
        <time>2018-08-02T08:29:25Z</time>
      </trkpt>
      <trkpt lat="45.88645" lon="4.7347">
        <ele>184</ele>
        <time>2018-08-02T08:29:26Z</time>
      </trkpt>
      <trkpt lat="45.8864" lon="4.73464">
        <ele>184</ele>
        <time>2018-08-02T08:29:27Z</time>
      </trkpt>
      <trkpt lat="45.88637" lon="4.73457">
        <ele>184</ele>
        <time>2018-08-02T08:29:28Z</time>
      </trkpt>
      <trkpt lat="45.88635" lon="4.73449">
        <ele>184</ele>
        <time>2018-08-02T08:29:29Z</time>
      </trkpt>
      <trkpt lat="45.88637" lon="4.73442">
        <ele>184</ele>
        <time>2018-08-02T08:29:30Z</time>
      </trkpt>
      <trkpt lat="45.88638" lon="4.73435">
        <ele>184</ele>
        <time>2018-08-02T08:29:31Z</time>
      </trkpt>
      <trkpt lat="45.88639" lon="4.73429">
        <ele>184</ele>
        <time>2018-08-02T08:29:32Z</time>
      </trkpt>
      <trkpt lat="45.8864" lon="4.73421">
        <ele>184</ele>
        <time>2018-08-02T08:29:33Z</time>
      </trkpt>
      <trkpt lat="45.8864" lon="4.73411">
        <ele>184</ele>
        <time>2018-08-02T08:29:34Z</time>
      </trkpt>
      <trkpt lat="45.88638" lon="4.73402">
        <ele>184</ele>
        <time>2018-08-02T08:29:35Z</time>
      </trkpt>
      <trkpt lat="45.88635" lon="4.73395">
        <ele>184</ele>
        <time>2018-08-02T08:29:36Z</time>
      </trkpt>
      <trkpt lat="45.88631" lon="4.73389">
        <ele>183</ele>
        <time>2018-08-02T08:29:37Z</time>
      </trkpt>
      <trkpt lat="45.88626" lon="4.73385">
        <ele>183</ele>
        <time>2018-08-02T08:29:38Z</time>
      </trkpt>
      <trkpt lat="45.88621" lon="4.73384">
        <ele>183</ele>
        <time>2018-08-02T08:29:39Z</time>
      </trkpt>
      <trkpt lat="45.88614" lon="4.73387">
        <ele>183</ele>
        <time>2018-08-02T08:29:40Z</time>
      </trkpt>
      <trkpt lat="45.88609" lon="4.73387">
        <ele>183</ele>
        <time>2018-08-02T08:29:41Z</time>
      </trkpt>
      <trkpt lat="45.88602" lon="4.73388">
        <ele>183</ele>
        <time>2018-08-02T08:29:42Z</time>
      </trkpt>
      <trkpt lat="45.88596" lon="4.7339">
        <ele>183</ele>
        <time>2018-08-02T08:29:43Z</time>
      </trkpt>
      <trkpt lat="45.8859" lon="4.73392">
        <ele>183</ele>
        <time>2018-08-02T08:29:44Z</time>
      </trkpt>
      <trkpt lat="45.88584" lon="4.73393">
        <ele>183</ele>
        <time>2018-08-02T08:29:45Z</time>
      </trkpt>
      <trkpt lat="45.88578" lon="4.73394">
        <ele>183</ele>
        <time>2018-08-02T08:29:46Z</time>
      </trkpt>
      <trkpt lat="45.88573" lon="4.73395">
        <ele>183</ele>
        <time>2018-08-02T08:29:47Z</time>
      </trkpt>
      <trkpt lat="45.88567" lon="4.73397">
        <ele>183</ele>
        <time>2018-08-02T08:29:48Z</time>
      </trkpt>
      <trkpt lat="45.88562" lon="4.73398">
        <ele>183</ele>
        <time>2018-08-02T08:29:49Z</time>
      </trkpt>
      <trkpt lat="45.88557" lon="4.734">
        <ele>183</ele>
        <time>2018-08-02T08:29:50Z</time>
      </trkpt>
      <trkpt lat="45.88553" lon="4.73401">
        <ele>183</ele>
        <time>2018-08-02T08:29:51Z</time>
      </trkpt>
      <trkpt lat="45.88548" lon="4.73403">
        <ele>183</ele>
        <time>2018-08-02T08:29:52Z</time>
      </trkpt>
      <trkpt lat="45.88543" lon="4.73405">
        <ele>183</ele>
        <time>2018-08-02T08:29:53Z</time>
      </trkpt>
      <trkpt lat="45.88537" lon="4.73406">
        <ele>183</ele>
        <time>2018-08-02T08:29:54Z</time>
      </trkpt>
      <trkpt lat="45.88533" lon="4.73408">
        <ele>183</ele>
        <time>2018-08-02T08:29:55Z</time>
      </trkpt>
      <trkpt lat="45.88527" lon="4.7341">
        <ele>183</ele>
        <time>2018-08-02T08:29:56Z</time>
      </trkpt>
      <trkpt lat="45.88522" lon="4.73412">
        <ele>183</ele>
        <time>2018-08-02T08:29:57Z</time>
      </trkpt>
      <trkpt lat="45.88516" lon="4.73414">
        <ele>184</ele>
        <time>2018-08-02T08:29:58Z</time>
      </trkpt>
      <trkpt lat="45.8851" lon="4.73415">
        <ele>184</ele>
        <time>2018-08-02T08:29:59Z</time>
      </trkpt>
      <trkpt lat="45.88504" lon="4.73417">
        <ele>184</ele>
        <time>2018-08-02T08:30:00Z</time>
      </trkpt>
      <trkpt lat="45.88498" lon="4.73418">
        <ele>184</ele>
        <time>2018-08-02T08:30:01Z</time>
      </trkpt>
      <trkpt lat="45.88492" lon="4.73419">
        <ele>184</ele>
        <time>2018-08-02T08:30:02Z</time>
      </trkpt>
      <trkpt lat="45.88487" lon="4.73422">
        <ele>184</ele>
        <time>2018-08-02T08:30:03Z</time>
      </trkpt>
      <trkpt lat="45.88481" lon="4.73423">
        <ele>184</ele>
        <time>2018-08-02T08:30:04Z</time>
      </trkpt>
      <trkpt lat="45.88475" lon="4.73426">
        <ele>184</ele>
        <time>2018-08-02T08:30:05Z</time>
      </trkpt>
      <trkpt lat="45.8847" lon="4.73428">
        <ele>184</ele>
        <time>2018-08-02T08:30:06Z</time>
      </trkpt>
      <trkpt lat="45.88466" lon="4.73433">
        <ele>184</ele>
        <time>2018-08-02T08:30:07Z</time>
      </trkpt>
      <trkpt lat="45.88461" lon="4.73432">
        <ele>184</ele>
        <time>2018-08-02T08:30:08Z</time>
      </trkpt>
      <trkpt lat="45.88457" lon="4.73438">
        <ele>184</ele>
        <time>2018-08-02T08:30:09Z</time>
      </trkpt>
      <trkpt lat="45.88452" lon="4.73439">
        <ele>184</ele>
        <time>2018-08-02T08:30:10Z</time>
      </trkpt>
      <trkpt lat="45.88446" lon="4.7344">
        <ele>184</ele>
        <time>2018-08-02T08:30:11Z</time>
      </trkpt>
      <trkpt lat="45.8844" lon="4.73442">
        <ele>184</ele>
        <time>2018-08-02T08:30:12Z</time>
      </trkpt>
      <trkpt lat="45.88436" lon="4.73443">
        <ele>184</ele>
        <time>2018-08-02T08:30:13Z</time>
      </trkpt>
      <trkpt lat="45.88429" lon="4.73444">
        <ele>184</ele>
        <time>2018-08-02T08:30:14Z</time>
      </trkpt>
      <trkpt lat="45.88425" lon="4.73447">
        <ele>184</ele>
        <time>2018-08-02T08:30:15Z</time>
      </trkpt>
      <trkpt lat="45.88419" lon="4.73449">
        <ele>184</ele>
        <time>2018-08-02T08:30:16Z</time>
      </trkpt>
      <trkpt lat="45.88415" lon="4.7345">
        <ele>184</ele>
        <time>2018-08-02T08:30:17Z</time>
      </trkpt>
      <trkpt lat="45.88409" lon="4.73451">
        <ele>184</ele>
        <time>2018-08-02T08:30:18Z</time>
      </trkpt>
      <trkpt lat="45.88402" lon="4.7345">
        <ele>184</ele>
        <time>2018-08-02T08:30:19Z</time>
      </trkpt>
      <trkpt lat="45.88394" lon="4.73449">
        <ele>184</ele>
        <time>2018-08-02T08:30:20Z</time>
      </trkpt>
      <trkpt lat="45.88388" lon="4.7345">
        <ele>184</ele>
        <time>2018-08-02T08:30:21Z</time>
      </trkpt>
      <trkpt lat="45.88382" lon="4.73452">
        <ele>184</ele>
        <time>2018-08-02T08:30:22Z</time>
      </trkpt>
      <trkpt lat="45.88376" lon="4.73453">
        <ele>184</ele>
        <time>2018-08-02T08:30:23Z</time>
      </trkpt>
      <trkpt lat="45.88369" lon="4.73453">
        <ele>184</ele>
        <time>2018-08-02T08:30:24Z</time>
      </trkpt>
      <trkpt lat="45.88364" lon="4.73455">
        <ele>184</ele>
        <time>2018-08-02T08:30:25Z</time>
      </trkpt>
      <trkpt lat="45.88357" lon="4.73457">
        <ele>184</ele>
        <time>2018-08-02T08:30:26Z</time>
      </trkpt>
      <trkpt lat="45.88351" lon="4.7346">
        <ele>184</ele>
        <time>2018-08-02T08:30:27Z</time>
      </trkpt>
      <trkpt lat="45.88344" lon="4.7346">
        <ele>184</ele>
        <time>2018-08-02T08:30:28Z</time>
      </trkpt>
      <trkpt lat="45.88338" lon="4.73461">
        <ele>184</ele>
        <time>2018-08-02T08:30:29Z</time>
      </trkpt>
      <trkpt lat="45.88333" lon="4.73462">
        <ele>184</ele>
        <time>2018-08-02T08:30:30Z</time>
      </trkpt>
      <trkpt lat="45.88327" lon="4.73464">
        <ele>184</ele>
        <time>2018-08-02T08:30:31Z</time>
      </trkpt>
      <trkpt lat="45.88321" lon="4.73466">
        <ele>184</ele>
        <time>2018-08-02T08:30:32Z</time>
      </trkpt>
      <trkpt lat="45.88316" lon="4.73469">
        <ele>184</ele>
        <time>2018-08-02T08:30:33Z</time>
      </trkpt>
      <trkpt lat="45.88311" lon="4.73471">
        <ele>184</ele>
        <time>2018-08-02T08:30:34Z</time>
      </trkpt>
      <trkpt lat="45.88306" lon="4.73474">
        <ele>184</ele>
        <time>2018-08-02T08:30:35Z</time>
      </trkpt>
      <trkpt lat="45.88301" lon="4.73477">
        <ele>184</ele>
        <time>2018-08-02T08:30:36Z</time>
      </trkpt>
      <trkpt lat="45.88296" lon="4.73479">
        <ele>184</ele>
        <time>2018-08-02T08:30:37Z</time>
      </trkpt>
      <trkpt lat="45.88294" lon="4.73486">
        <ele>184</ele>
        <time>2018-08-02T08:30:38Z</time>
      </trkpt>
      <trkpt lat="45.88289" lon="4.7349">
        <ele>184</ele>
        <time>2018-08-02T08:30:39Z</time>
      </trkpt>
      <trkpt lat="45.88285" lon="4.73492">
        <ele>184</ele>
        <time>2018-08-02T08:30:40Z</time>
      </trkpt>
      <trkpt lat="45.88279" lon="4.73497">
        <ele>184</ele>
        <time>2018-08-02T08:30:41Z</time>
      </trkpt>
      <trkpt lat="45.88275" lon="4.735">
        <ele>184</ele>
        <time>2018-08-02T08:30:42Z</time>
      </trkpt>
      <trkpt lat="45.88272" lon="4.73504">
        <ele>185</ele>
        <time>2018-08-02T08:30:43Z</time>
      </trkpt>
      <trkpt lat="45.88267" lon="4.73507">
        <ele>185</ele>
        <time>2018-08-02T08:30:44Z</time>
      </trkpt>
      <trkpt lat="45.88262" lon="4.73508">
        <ele>185</ele>
        <time>2018-08-02T08:30:45Z</time>
      </trkpt>
      <trkpt lat="45.88258" lon="4.73511">
        <ele>185</ele>
        <time>2018-08-02T08:30:46Z</time>
      </trkpt>
      <trkpt lat="45.88252" lon="4.73512">
        <ele>185</ele>
        <time>2018-08-02T08:30:47Z</time>
      </trkpt>
      <trkpt lat="45.88247" lon="4.73516">
        <ele>185</ele>
        <time>2018-08-02T08:30:48Z</time>
      </trkpt>
      <trkpt lat="45.88243" lon="4.73521">
        <ele>185</ele>
        <time>2018-08-02T08:30:49Z</time>
      </trkpt>
      <trkpt lat="45.88238" lon="4.73524">
        <ele>185</ele>
        <time>2018-08-02T08:30:50Z</time>
      </trkpt>
      <trkpt lat="45.88232" lon="4.73528">
        <ele>185</ele>
        <time>2018-08-02T08:30:51Z</time>
      </trkpt>
      <trkpt lat="45.88227" lon="4.73531">
        <ele>185</ele>
        <time>2018-08-02T08:30:52Z</time>
      </trkpt>
      <trkpt lat="45.88223" lon="4.73535">
        <ele>185</ele>
        <time>2018-08-02T08:30:53Z</time>
      </trkpt>
      <trkpt lat="45.88216" lon="4.73541">
        <ele>185</ele>
        <time>2018-08-02T08:30:55Z</time>
      </trkpt>
      <trkpt lat="45.88211" lon="4.73544">
        <ele>185</ele>
        <time>2018-08-02T08:30:56Z</time>
      </trkpt>
      <trkpt lat="45.88203" lon="4.73549">
        <ele>186</ele>
        <time>2018-08-02T08:30:58Z</time>
      </trkpt>
      <trkpt lat="45.882" lon="4.73555">
        <ele>186</ele>
        <time>2018-08-02T08:30:59Z</time>
      </trkpt>
      <trkpt lat="45.88195" lon="4.73558">
        <ele>186</ele>
        <time>2018-08-02T08:31:00Z</time>
      </trkpt>
      <trkpt lat="45.8819" lon="4.7356">
        <ele>186</ele>
        <time>2018-08-02T08:31:01Z</time>
      </trkpt>
      <trkpt lat="45.88185" lon="4.73562">
        <ele>186</ele>
        <time>2018-08-02T08:31:02Z</time>
      </trkpt>
      <trkpt lat="45.8818" lon="4.73564">
        <ele>186</ele>
        <time>2018-08-02T08:31:03Z</time>
      </trkpt>
      <trkpt lat="45.88175" lon="4.73567">
        <ele>186</ele>
        <time>2018-08-02T08:31:04Z</time>
      </trkpt>
      <trkpt lat="45.8817" lon="4.7357">
        <ele>186</ele>
        <time>2018-08-02T08:31:05Z</time>
      </trkpt>
      <trkpt lat="45.88164" lon="4.73574">
        <ele>186</ele>
        <time>2018-08-02T08:31:06Z</time>
      </trkpt>
      <trkpt lat="45.88159" lon="4.73578">
        <ele>186</ele>
        <time>2018-08-02T08:31:07Z</time>
      </trkpt>
      <trkpt lat="45.88155" lon="4.73581">
        <ele>186</ele>
        <time>2018-08-02T08:31:08Z</time>
      </trkpt>
      <trkpt lat="45.8815" lon="4.73583">
        <ele>186</ele>
        <time>2018-08-02T08:31:09Z</time>
      </trkpt>
      <trkpt lat="45.88146" lon="4.73586">
        <ele>187</ele>
        <time>2018-08-02T08:31:10Z</time>
      </trkpt>
      <trkpt lat="45.88142" lon="4.7359">
        <ele>187</ele>
        <time>2018-08-02T08:31:11Z</time>
      </trkpt>
      <trkpt lat="45.88134" lon="4.73596">
        <ele>187</ele>
        <time>2018-08-02T08:31:13Z</time>
      </trkpt>
      <trkpt lat="45.88131" lon="4.73599">
        <ele>187</ele>
        <time>2018-08-02T08:31:14Z</time>
      </trkpt>
      <trkpt lat="45.88126" lon="4.73604">
        <ele>187</ele>
        <time>2018-08-02T08:31:15Z</time>
      </trkpt>
      <trkpt lat="45.88122" lon="4.73606">
        <ele>188</ele>
        <time>2018-08-02T08:31:16Z</time>
      </trkpt>
      <trkpt lat="45.88118" lon="4.73611">
        <ele>188</ele>
        <time>2018-08-02T08:31:17Z</time>
      </trkpt>
      <trkpt lat="45.88113" lon="4.73612">
        <ele>188</ele>
        <time>2018-08-02T08:31:18Z</time>
      </trkpt>
      <trkpt lat="45.88108" lon="4.73615">
        <ele>188</ele>
        <time>2018-08-02T08:31:19Z</time>
      </trkpt>
      <trkpt lat="45.88104" lon="4.73618">
        <ele>188</ele>
        <time>2018-08-02T08:31:20Z</time>
      </trkpt>
      <trkpt lat="45.881" lon="4.73621">
        <ele>188</ele>
        <time>2018-08-02T08:31:21Z</time>
      </trkpt>
      <trkpt lat="45.88095" lon="4.73623">
        <ele>188</ele>
        <time>2018-08-02T08:31:22Z</time>
      </trkpt>
      <trkpt lat="45.8809" lon="4.73625">
        <ele>188</ele>
        <time>2018-08-02T08:31:23Z</time>
      </trkpt>
      <trkpt lat="45.88085" lon="4.73628">
        <ele>188</ele>
        <time>2018-08-02T08:31:24Z</time>
      </trkpt>
      <trkpt lat="45.88078" lon="4.73633">
        <ele>189</ele>
        <time>2018-08-02T08:31:26Z</time>
      </trkpt>
      <trkpt lat="45.88073" lon="4.73634">
        <ele>189</ele>
        <time>2018-08-02T08:31:27Z</time>
      </trkpt>
      <trkpt lat="45.88069" lon="4.73635">
        <ele>189</ele>
        <time>2018-08-02T08:31:28Z</time>
      </trkpt>
      <trkpt lat="45.88064" lon="4.73638">
        <ele>189</ele>
        <time>2018-08-02T08:31:29Z</time>
      </trkpt>
      <trkpt lat="45.8806" lon="4.73641">
        <ele>189</ele>
        <time>2018-08-02T08:31:30Z</time>
      </trkpt>
      <trkpt lat="45.88056" lon="4.73644">
        <ele>189</ele>
        <time>2018-08-02T08:31:31Z</time>
      </trkpt>
      <trkpt lat="45.88051" lon="4.73647">
        <ele>189</ele>
        <time>2018-08-02T08:31:32Z</time>
      </trkpt>
      <trkpt lat="45.88046" lon="4.7365">
        <ele>189</ele>
        <time>2018-08-02T08:31:33Z</time>
      </trkpt>
      <trkpt lat="45.8804" lon="4.73653">
        <ele>189</ele>
        <time>2018-08-02T08:31:34Z</time>
      </trkpt>
      <trkpt lat="45.88035" lon="4.73656">
        <ele>189</ele>
        <time>2018-08-02T08:31:35Z</time>
      </trkpt>
      <trkpt lat="45.88028" lon="4.73658">
        <ele>189</ele>
        <time>2018-08-02T08:31:36Z</time>
      </trkpt>
      <trkpt lat="45.88023" lon="4.73659">
        <ele>189</ele>
        <time>2018-08-02T08:31:37Z</time>
      </trkpt>
      <trkpt lat="45.88018" lon="4.7366">
        <ele>189</ele>
        <time>2018-08-02T08:31:38Z</time>
      </trkpt>
      <trkpt lat="45.88013" lon="4.7366">
        <ele>189</ele>
        <time>2018-08-02T08:31:39Z</time>
      </trkpt>
      <trkpt lat="45.88008" lon="4.73659">
        <ele>190</ele>
        <time>2018-08-02T08:31:40Z</time>
      </trkpt>
      <trkpt lat="45.88003" lon="4.73657">
        <ele>190</ele>
        <time>2018-08-02T08:31:41Z</time>
      </trkpt>
      <trkpt lat="45.87998" lon="4.73655">
        <ele>190</ele>
        <time>2018-08-02T08:31:42Z</time>
      </trkpt>
      <trkpt lat="45.87993" lon="4.73653">
        <ele>190</ele>
        <time>2018-08-02T08:31:43Z</time>
      </trkpt>
      <trkpt lat="45.87988" lon="4.73651">
        <ele>190</ele>
        <time>2018-08-02T08:31:44Z</time>
      </trkpt>
      <trkpt lat="45.87982" lon="4.73646">
        <ele>190</ele>
        <time>2018-08-02T08:31:45Z</time>
      </trkpt>
      <trkpt lat="45.87978" lon="4.73644">
        <ele>189</ele>
        <time>2018-08-02T08:31:46Z</time>
      </trkpt>
      <trkpt lat="45.87973" lon="4.73643">
        <ele>189</ele>
        <time>2018-08-02T08:31:47Z</time>
      </trkpt>
      <trkpt lat="45.87965" lon="4.7364">
        <ele>189</ele>
        <time>2018-08-02T08:31:48Z</time>
      </trkpt>
      <trkpt lat="45.87959" lon="4.73639">
        <ele>189</ele>
        <time>2018-08-02T08:31:49Z</time>
      </trkpt>
      <trkpt lat="45.87952" lon="4.73638">
        <ele>189</ele>
        <time>2018-08-02T08:31:50Z</time>
      </trkpt>
      <trkpt lat="45.87947" lon="4.73637">
        <ele>189</ele>
        <time>2018-08-02T08:31:51Z</time>
      </trkpt>
      <trkpt lat="45.87939" lon="4.73635">
        <ele>190</ele>
        <time>2018-08-02T08:31:52Z</time>
      </trkpt>
      <trkpt lat="45.87933" lon="4.73633">
        <ele>190</ele>
        <time>2018-08-02T08:31:53Z</time>
      </trkpt>
      <trkpt lat="45.87928" lon="4.73631">
        <ele>189</ele>
        <time>2018-08-02T08:31:54Z</time>
      </trkpt>
      <trkpt lat="45.87923" lon="4.73629">
        <ele>189</ele>
        <time>2018-08-02T08:31:55Z</time>
      </trkpt>
      <trkpt lat="45.87918" lon="4.73628">
        <ele>189</ele>
        <time>2018-08-02T08:31:56Z</time>
      </trkpt>
      <trkpt lat="45.87913" lon="4.73626">
        <ele>190</ele>
        <time>2018-08-02T08:31:57Z</time>
      </trkpt>
      <trkpt lat="45.87908" lon="4.73624">
        <ele>190</ele>
        <time>2018-08-02T08:31:58Z</time>
      </trkpt>
      <trkpt lat="45.87903" lon="4.73622">
        <ele>190</ele>
        <time>2018-08-02T08:31:59Z</time>
      </trkpt>
      <trkpt lat="45.87898" lon="4.7362">
        <ele>190</ele>
        <time>2018-08-02T08:32:00Z</time>
      </trkpt>
      <trkpt lat="45.87893" lon="4.73619">
        <ele>190</ele>
        <time>2018-08-02T08:32:01Z</time>
      </trkpt>
      <trkpt lat="45.87887" lon="4.73616">
        <ele>190</ele>
        <time>2018-08-02T08:32:02Z</time>
      </trkpt>
      <trkpt lat="45.87882" lon="4.73615">
        <ele>190</ele>
        <time>2018-08-02T08:32:03Z</time>
      </trkpt>
      <trkpt lat="45.87877" lon="4.73614">
        <ele>190</ele>
        <time>2018-08-02T08:32:04Z</time>
      </trkpt>
      <trkpt lat="45.87873" lon="4.73614">
        <ele>190</ele>
        <time>2018-08-02T08:32:05Z</time>
      </trkpt>
      <trkpt lat="45.87868" lon="4.73615">
        <ele>190</ele>
        <time>2018-08-02T08:32:06Z</time>
      </trkpt>
      <trkpt lat="45.87862" lon="4.73616">
        <ele>190</ele>
        <time>2018-08-02T08:32:07Z</time>
      </trkpt>
      <trkpt lat="45.87855" lon="4.73622">
        <ele>190</ele>
        <time>2018-08-02T08:32:09Z</time>
      </trkpt>
      <trkpt lat="45.87852" lon="4.73628">
        <ele>190</ele>
        <time>2018-08-02T08:32:10Z</time>
      </trkpt>
      <trkpt lat="45.87846" lon="4.73633">
        <ele>191</ele>
        <time>2018-08-02T08:32:12Z</time>
      </trkpt>
      <trkpt lat="45.87843" lon="4.73636">
        <ele>191</ele>
        <time>2018-08-02T08:32:13Z</time>
      </trkpt>
      <trkpt lat="45.87838" lon="4.73628">
        <ele>191</ele>
        <time>2018-08-02T08:32:15Z</time>
      </trkpt>
      <trkpt lat="45.87834" lon="4.73622">
        <ele>190</ele>
        <time>2018-08-02T08:32:16Z</time>
      </trkpt>
      <trkpt lat="45.87828" lon="4.73614">
        <ele>190</ele>
        <time>2018-08-02T08:32:18Z</time>
      </trkpt>
      <trkpt lat="45.87825" lon="4.73607">
        <ele>190</ele>
        <time>2018-08-02T08:32:19Z</time>
      </trkpt>
      <trkpt lat="45.8782" lon="4.73597">
        <ele>190</ele>
        <time>2018-08-02T08:32:21Z</time>
      </trkpt>
      <trkpt lat="45.87817" lon="4.73591">
        <ele>190</ele>
        <time>2018-08-02T08:32:22Z</time>
      </trkpt>
      <trkpt lat="45.87814" lon="4.73584">
        <ele>190</ele>
        <time>2018-08-02T08:32:23Z</time>
      </trkpt>
      <trkpt lat="45.8781" lon="4.73577">
        <ele>189</ele>
        <time>2018-08-02T08:32:24Z</time>
      </trkpt>
      <trkpt lat="45.87809" lon="4.7357">
        <ele>189</ele>
        <time>2018-08-02T08:32:25Z</time>
      </trkpt>
      <trkpt lat="45.87806" lon="4.73563">
        <ele>189</ele>
        <time>2018-08-02T08:32:26Z</time>
      </trkpt>
      <trkpt lat="45.87803" lon="4.73557">
        <ele>189</ele>
        <time>2018-08-02T08:32:27Z</time>
      </trkpt>
      <trkpt lat="45.878" lon="4.73551">
        <ele>189</ele>
        <time>2018-08-02T08:32:28Z</time>
      </trkpt>
      <trkpt lat="45.87797" lon="4.73545">
        <ele>189</ele>
        <time>2018-08-02T08:32:29Z</time>
      </trkpt>
      <trkpt lat="45.87794" lon="4.73539">
        <ele>189</ele>
        <time>2018-08-02T08:32:30Z</time>
      </trkpt>
      <trkpt lat="45.87791" lon="4.73533">
        <ele>189</ele>
        <time>2018-08-02T08:32:31Z</time>
      </trkpt>
      <trkpt lat="45.87789" lon="4.73525">
        <ele>189</ele>
        <time>2018-08-02T08:32:32Z</time>
      </trkpt>
      <trkpt lat="45.87784" lon="4.73516">
        <ele>189</ele>
        <time>2018-08-02T08:32:34Z</time>
      </trkpt>
      <trkpt lat="45.87782" lon="4.7351">
        <ele>189</ele>
        <time>2018-08-02T08:32:35Z</time>
      </trkpt>
      <trkpt lat="45.8778" lon="4.73503">
        <ele>189</ele>
        <time>2018-08-02T08:32:36Z</time>
      </trkpt>
      <trkpt lat="45.87777" lon="4.73499">
        <ele>188</ele>
        <time>2018-08-02T08:32:37Z</time>
      </trkpt>
      <trkpt lat="45.87773" lon="4.73493">
        <ele>188</ele>
        <time>2018-08-02T08:32:38Z</time>
      </trkpt>
      <trkpt lat="45.87771" lon="4.73487">
        <ele>188</ele>
        <time>2018-08-02T08:32:39Z</time>
      </trkpt>
      <trkpt lat="45.87768" lon="4.7348">
        <ele>188</ele>
        <time>2018-08-02T08:32:40Z</time>
      </trkpt>
      <trkpt lat="45.87763" lon="4.73473">
        <ele>188</ele>
        <time>2018-08-02T08:32:41Z</time>
      </trkpt>
      <trkpt lat="45.87758" lon="4.73463">
        <ele>188</ele>
        <time>2018-08-02T08:32:42Z</time>
      </trkpt>
      <trkpt lat="45.87754" lon="4.73456">
        <ele>188</ele>
        <time>2018-08-02T08:32:43Z</time>
      </trkpt>
      <trkpt lat="45.87751" lon="4.7345">
        <ele>188</ele>
        <time>2018-08-02T08:32:44Z</time>
      </trkpt>
      <trkpt lat="45.87747" lon="4.73442">
        <ele>189</ele>
        <time>2018-08-02T08:32:45Z</time>
      </trkpt>
      <trkpt lat="45.87744" lon="4.73435">
        <ele>188</ele>
        <time>2018-08-02T08:32:46Z</time>
      </trkpt>
      <trkpt lat="45.8774" lon="4.73428">
        <ele>188</ele>
        <time>2018-08-02T08:32:47Z</time>
      </trkpt>
      <trkpt lat="45.87737" lon="4.73421">
        <ele>188</ele>
        <time>2018-08-02T08:32:48Z</time>
      </trkpt>
      <trkpt lat="45.87733" lon="4.73414">
        <ele>188</ele>
        <time>2018-08-02T08:32:49Z</time>
      </trkpt>
      <trkpt lat="45.8773" lon="4.73407">
        <ele>188</ele>
        <time>2018-08-02T08:32:50Z</time>
      </trkpt>
      <trkpt lat="45.87726" lon="4.734">
        <ele>188</ele>
        <time>2018-08-02T08:32:51Z</time>
      </trkpt>
      <trkpt lat="45.87723" lon="4.73393">
        <ele>188</ele>
        <time>2018-08-02T08:32:52Z</time>
      </trkpt>
      <trkpt lat="45.87721" lon="4.73385">
        <ele>188</ele>
        <time>2018-08-02T08:32:53Z</time>
      </trkpt>
      <trkpt lat="45.87717" lon="4.73379">
        <ele>187</ele>
        <time>2018-08-02T08:32:54Z</time>
      </trkpt>
      <trkpt lat="45.87714" lon="4.73372">
        <ele>187</ele>
        <time>2018-08-02T08:32:55Z</time>
      </trkpt>
      <trkpt lat="45.87711" lon="4.73366">
        <ele>187</ele>
        <time>2018-08-02T08:32:56Z</time>
      </trkpt>
      <trkpt lat="45.87707" lon="4.7336">
        <ele>187</ele>
        <time>2018-08-02T08:32:57Z</time>
      </trkpt>
      <trkpt lat="45.87705" lon="4.73354">
        <ele>187</ele>
        <time>2018-08-02T08:32:58Z</time>
      </trkpt>
      <trkpt lat="45.87702" lon="4.73348">
        <ele>187</ele>
        <time>2018-08-02T08:32:59Z</time>
      </trkpt>
      <trkpt lat="45.87698" lon="4.73342">
        <ele>187</ele>
        <time>2018-08-02T08:33:00Z</time>
      </trkpt>
      <trkpt lat="45.87694" lon="4.73335">
        <ele>188</ele>
        <time>2018-08-02T08:33:01Z</time>
      </trkpt>
      <trkpt lat="45.87691" lon="4.73329">
        <ele>188</ele>
        <time>2018-08-02T08:33:02Z</time>
      </trkpt>
      <trkpt lat="45.87689" lon="4.73323">
        <ele>188</ele>
        <time>2018-08-02T08:33:03Z</time>
      </trkpt>
      <trkpt lat="45.87686" lon="4.73315">
        <ele>188</ele>
        <time>2018-08-02T08:33:04Z</time>
      </trkpt>
      <trkpt lat="45.87683" lon="4.73309">
        <ele>188</ele>
        <time>2018-08-02T08:33:05Z</time>
      </trkpt>
      <trkpt lat="45.8768" lon="4.73302">
        <ele>188</ele>
        <time>2018-08-02T08:33:06Z</time>
      </trkpt>
      <trkpt lat="45.87677" lon="4.73295">
        <ele>188</ele>
        <time>2018-08-02T08:33:07Z</time>
      </trkpt>
      <trkpt lat="45.87675" lon="4.73289">
        <ele>188</ele>
        <time>2018-08-02T08:33:08Z</time>
      </trkpt>
      <trkpt lat="45.87671" lon="4.73281">
        <ele>188</ele>
        <time>2018-08-02T08:33:09Z</time>
      </trkpt>
      <trkpt lat="45.87667" lon="4.73273">
        <ele>188</ele>
        <time>2018-08-02T08:33:10Z</time>
      </trkpt>
      <trkpt lat="45.87665" lon="4.73266">
        <ele>189</ele>
        <time>2018-08-02T08:33:11Z</time>
      </trkpt>
      <trkpt lat="45.87661" lon="4.7326">
        <ele>189</ele>
        <time>2018-08-02T08:33:12Z</time>
      </trkpt>
      <trkpt lat="45.87657" lon="4.73253">
        <ele>189</ele>
        <time>2018-08-02T08:33:13Z</time>
      </trkpt>
      <trkpt lat="45.87654" lon="4.73246">
        <ele>188</ele>
        <time>2018-08-02T08:33:14Z</time>
      </trkpt>
      <trkpt lat="45.87651" lon="4.73239">
        <ele>188</ele>
        <time>2018-08-02T08:33:15Z</time>
      </trkpt>
      <trkpt lat="45.87649" lon="4.73231">
        <ele>188</ele>
        <time>2018-08-02T08:33:16Z</time>
      </trkpt>
      <trkpt lat="45.87646" lon="4.73224">
        <ele>188</ele>
        <time>2018-08-02T08:33:17Z</time>
      </trkpt>
      <trkpt lat="45.87642" lon="4.73217">
        <ele>188</ele>
        <time>2018-08-02T08:33:18Z</time>
      </trkpt>
      <trkpt lat="45.87638" lon="4.73211">
        <ele>188</ele>
        <time>2018-08-02T08:33:19Z</time>
      </trkpt>
      <trkpt lat="45.87635" lon="4.73204">
        <ele>188</ele>
        <time>2018-08-02T08:33:20Z</time>
      </trkpt>
      <trkpt lat="45.87631" lon="4.73197">
        <ele>188</ele>
        <time>2018-08-02T08:33:21Z</time>
      </trkpt>
      <trkpt lat="45.87628" lon="4.7319">
        <ele>188</ele>
        <time>2018-08-02T08:33:22Z</time>
      </trkpt>
      <trkpt lat="45.87625" lon="4.73183">
        <ele>188</ele>
        <time>2018-08-02T08:33:23Z</time>
      </trkpt>
      <trkpt lat="45.87622" lon="4.73176">
        <ele>187</ele>
        <time>2018-08-02T08:33:24Z</time>
      </trkpt>
      <trkpt lat="45.87618" lon="4.7317">
        <ele>187</ele>
        <time>2018-08-02T08:33:25Z</time>
      </trkpt>
      <trkpt lat="45.87614" lon="4.73163">
        <ele>187</ele>
        <time>2018-08-02T08:33:26Z</time>
      </trkpt>
      <trkpt lat="45.87611" lon="4.73157">
        <ele>187</ele>
        <time>2018-08-02T08:33:27Z</time>
      </trkpt>
      <trkpt lat="45.87607" lon="4.7315">
        <ele>187</ele>
        <time>2018-08-02T08:33:28Z</time>
      </trkpt>
      <trkpt lat="45.87603" lon="4.73142">
        <ele>187</ele>
        <time>2018-08-02T08:33:29Z</time>
      </trkpt>
      <trkpt lat="45.876" lon="4.73135">
        <ele>187</ele>
        <time>2018-08-02T08:33:30Z</time>
      </trkpt>
      <trkpt lat="45.87598" lon="4.73127">
        <ele>187</ele>
        <time>2018-08-02T08:33:31Z</time>
      </trkpt>
      <trkpt lat="45.87594" lon="4.73119">
        <ele>188</ele>
        <time>2018-08-02T08:33:32Z</time>
      </trkpt>
      <trkpt lat="45.87591" lon="4.73111">
        <ele>188</ele>
        <time>2018-08-02T08:33:33Z</time>
      </trkpt>
      <trkpt lat="45.87587" lon="4.73105">
        <ele>188</ele>
        <time>2018-08-02T08:33:34Z</time>
      </trkpt>
      <trkpt lat="45.87584" lon="4.73098">
        <ele>188</ele>
        <time>2018-08-02T08:33:35Z</time>
      </trkpt>
      <trkpt lat="45.87582" lon="4.7309">
        <ele>188</ele>
        <time>2018-08-02T08:33:36Z</time>
      </trkpt>
      <trkpt lat="45.87578" lon="4.73084">
        <ele>188</ele>
        <time>2018-08-02T08:33:37Z</time>
      </trkpt>
      <trkpt lat="45.87574" lon="4.73078">
        <ele>188</ele>
        <time>2018-08-02T08:33:38Z</time>
      </trkpt>
      <trkpt lat="45.87571" lon="4.73071">
        <ele>188</ele>
        <time>2018-08-02T08:33:39Z</time>
      </trkpt>
      <trkpt lat="45.87568" lon="4.73063">
        <ele>188</ele>
        <time>2018-08-02T08:33:40Z</time>
      </trkpt>
      <trkpt lat="45.87565" lon="4.73056">
        <ele>188</ele>
        <time>2018-08-02T08:33:41Z</time>
      </trkpt>
      <trkpt lat="45.87563" lon="4.7305">
        <ele>188</ele>
        <time>2018-08-02T08:33:42Z</time>
      </trkpt>
      <trkpt lat="45.8756" lon="4.73043">
        <ele>188</ele>
        <time>2018-08-02T08:33:43Z</time>
      </trkpt>
      <trkpt lat="45.87558" lon="4.73037">
        <ele>188</ele>
        <time>2018-08-02T08:33:44Z</time>
      </trkpt>
      <trkpt lat="45.87554" lon="4.7303">
        <ele>188</ele>
        <time>2018-08-02T08:33:45Z</time>
      </trkpt>
      <trkpt lat="45.8755" lon="4.73024">
        <ele>188</ele>
        <time>2018-08-02T08:33:46Z</time>
      </trkpt>
      <trkpt lat="45.87548" lon="4.73018">
        <ele>188</ele>
        <time>2018-08-02T08:33:47Z</time>
      </trkpt>
      <trkpt lat="45.87544" lon="4.7301">
        <ele>188</ele>
        <time>2018-08-02T08:33:48Z</time>
      </trkpt>
      <trkpt lat="45.8754" lon="4.73003">
        <ele>187</ele>
        <time>2018-08-02T08:33:49Z</time>
      </trkpt>
      <trkpt lat="45.87537" lon="4.72997">
        <ele>187</ele>
        <time>2018-08-02T08:33:50Z</time>
      </trkpt>
      <trkpt lat="45.87533" lon="4.7299">
        <ele>187</ele>
        <time>2018-08-02T08:33:51Z</time>
      </trkpt>
      <trkpt lat="45.8753" lon="4.72983">
        <ele>187</ele>
        <time>2018-08-02T08:33:52Z</time>
      </trkpt>
      <trkpt lat="45.87528" lon="4.72977">
        <ele>187</ele>
        <time>2018-08-02T08:33:53Z</time>
      </trkpt>
      <trkpt lat="45.87526" lon="4.7297">
        <ele>187</ele>
        <time>2018-08-02T08:33:54Z</time>
      </trkpt>
      <trkpt lat="45.87521" lon="4.72965">
        <ele>187</ele>
        <time>2018-08-02T08:33:55Z</time>
      </trkpt>
      <trkpt lat="45.87518" lon="4.7296">
        <ele>187</ele>
        <time>2018-08-02T08:33:56Z</time>
      </trkpt>
      <trkpt lat="45.87513" lon="4.72953">
        <ele>187</ele>
        <time>2018-08-02T08:33:57Z</time>
      </trkpt>
      <trkpt lat="45.87508" lon="4.72946">
        <ele>187</ele>
        <time>2018-08-02T08:33:59Z</time>
      </trkpt>
      <trkpt lat="45.87503" lon="4.72943">
        <ele>187</ele>
        <time>2018-08-02T08:34:00Z</time>
      </trkpt>
      <trkpt lat="45.87498" lon="4.72939">
        <ele>188</ele>
        <time>2018-08-02T08:34:01Z</time>
      </trkpt>
      <trkpt lat="45.87494" lon="4.72937">
        <ele>188</ele>
        <time>2018-08-02T08:34:02Z</time>
      </trkpt>
      <trkpt lat="45.87488" lon="4.72934">
        <ele>188</ele>
        <time>2018-08-02T08:34:03Z</time>
      </trkpt>
      <trkpt lat="45.87483" lon="4.72929">
        <ele>188</ele>
        <time>2018-08-02T08:34:04Z</time>
      </trkpt>
      <trkpt lat="45.87479" lon="4.72924">
        <ele>188</ele>
        <time>2018-08-02T08:34:05Z</time>
      </trkpt>
      <trkpt lat="45.87478" lon="4.72918">
        <ele>188</ele>
        <time>2018-08-02T08:34:06Z</time>
      </trkpt>
      <trkpt lat="45.87473" lon="4.72907">
        <ele>188</ele>
        <time>2018-08-02T08:34:08Z</time>
      </trkpt>
      <trkpt lat="45.87473" lon="4.72901">
        <ele>188</ele>
        <time>2018-08-02T08:34:09Z</time>
      </trkpt>
      <trkpt lat="45.87473" lon="4.72889">
        <ele>188</ele>
        <time>2018-08-02T08:34:11Z</time>
      </trkpt>
      <trkpt lat="45.87472" lon="4.72884">
        <ele>188</ele>
        <time>2018-08-02T08:34:12Z</time>
      </trkpt>
      <trkpt lat="45.8747" lon="4.72878">
        <ele>188</ele>
        <time>2018-08-02T08:34:13Z</time>
      </trkpt>
      <trkpt lat="45.87466" lon="4.72871">
        <ele>188</ele>
        <time>2018-08-02T08:34:14Z</time>
      </trkpt>
      <trkpt lat="45.87462" lon="4.72865">
        <ele>188</ele>
        <time>2018-08-02T08:34:15Z</time>
      </trkpt>
      <trkpt lat="45.8746" lon="4.72857">
        <ele>188</ele>
        <time>2018-08-02T08:34:16Z</time>
      </trkpt>
      <trkpt lat="45.87459" lon="4.7285">
        <ele>188</ele>
        <time>2018-08-02T08:34:17Z</time>
      </trkpt>
      <trkpt lat="45.87456" lon="4.72843">
        <ele>188</ele>
        <time>2018-08-02T08:34:18Z</time>
      </trkpt>
      <trkpt lat="45.87453" lon="4.72836">
        <ele>188</ele>
        <time>2018-08-02T08:34:19Z</time>
      </trkpt>
      <trkpt lat="45.87451" lon="4.72829">
        <ele>189</ele>
        <time>2018-08-02T08:34:20Z</time>
      </trkpt>
      <trkpt lat="45.87448" lon="4.72823">
        <ele>189</ele>
        <time>2018-08-02T08:34:21Z</time>
      </trkpt>
      <trkpt lat="45.87445" lon="4.72817">
        <ele>189</ele>
        <time>2018-08-02T08:34:22Z</time>
      </trkpt>
      <trkpt lat="45.87441" lon="4.7281">
        <ele>189</ele>
        <time>2018-08-02T08:34:23Z</time>
      </trkpt>
      <trkpt lat="45.8744" lon="4.72805">
        <ele>189</ele>
        <time>2018-08-02T08:34:24Z</time>
      </trkpt>
      <trkpt lat="45.87436" lon="4.72798">
        <ele>189</ele>
        <time>2018-08-02T08:34:25Z</time>
      </trkpt>
      <trkpt lat="45.87432" lon="4.72791">
        <ele>189</ele>
        <time>2018-08-02T08:34:26Z</time>
      </trkpt>
      <trkpt lat="45.8743" lon="4.72785">
        <ele>189</ele>
        <time>2018-08-02T08:34:27Z</time>
      </trkpt>
      <trkpt lat="45.87428" lon="4.7278">
        <ele>189</ele>
        <time>2018-08-02T08:34:28Z</time>
      </trkpt>
      <trkpt lat="45.87424" lon="4.72775">
        <ele>189</ele>
        <time>2018-08-02T08:34:29Z</time>
      </trkpt>
      <trkpt lat="45.87421" lon="4.72769">
        <ele>189</ele>
        <time>2018-08-02T08:34:30Z</time>
      </trkpt>
      <trkpt lat="45.87418" lon="4.72763">
        <ele>189</ele>
        <time>2018-08-02T08:34:31Z</time>
      </trkpt>
      <trkpt lat="45.87415" lon="4.72757">
        <ele>189</ele>
        <time>2018-08-02T08:34:32Z</time>
      </trkpt>
      <trkpt lat="45.87411" lon="4.7275">
        <ele>189</ele>
        <time>2018-08-02T08:34:33Z</time>
      </trkpt>
      <trkpt lat="45.87408" lon="4.72746">
        <ele>189</ele>
        <time>2018-08-02T08:34:34Z</time>
      </trkpt>
      <trkpt lat="45.87405" lon="4.72742">
        <ele>189</ele>
        <time>2018-08-02T08:34:35Z</time>
      </trkpt>
      <trkpt lat="45.874" lon="4.72738">
        <ele>189</ele>
        <time>2018-08-02T08:34:36Z</time>
      </trkpt>
      <trkpt lat="45.87397" lon="4.72734">
        <ele>190</ele>
        <time>2018-08-02T08:34:37Z</time>
      </trkpt>
      <trkpt lat="45.87395" lon="4.72727">
        <ele>190</ele>
        <time>2018-08-02T08:34:38Z</time>
      </trkpt>
      <trkpt lat="45.87392" lon="4.72722">
        <ele>190</ele>
        <time>2018-08-02T08:34:39Z</time>
      </trkpt>
      <trkpt lat="45.87388" lon="4.72715">
        <ele>190</ele>
        <time>2018-08-02T08:34:40Z</time>
      </trkpt>
      <trkpt lat="45.87385" lon="4.72708">
        <ele>190</ele>
        <time>2018-08-02T08:34:41Z</time>
      </trkpt>
      <trkpt lat="45.87382" lon="4.72701">
        <ele>190</ele>
        <time>2018-08-02T08:34:42Z</time>
      </trkpt>
      <trkpt lat="45.87378" lon="4.72695">
        <ele>190</ele>
        <time>2018-08-02T08:34:43Z</time>
      </trkpt>
      <trkpt lat="45.87374" lon="4.72689">
        <ele>190</ele>
        <time>2018-08-02T08:34:44Z</time>
      </trkpt>
      <trkpt lat="45.87371" lon="4.72685">
        <ele>190</ele>
        <time>2018-08-02T08:34:45Z</time>
      </trkpt>
      <trkpt lat="45.87368" lon="4.7268">
        <ele>190</ele>
        <time>2018-08-02T08:34:46Z</time>
      </trkpt>
      <trkpt lat="45.87363" lon="4.72676">
        <ele>190</ele>
        <time>2018-08-02T08:34:47Z</time>
      </trkpt>
      <trkpt lat="45.87358" lon="4.72672">
        <ele>190</ele>
        <time>2018-08-02T08:34:48Z</time>
      </trkpt>
      <trkpt lat="45.87354" lon="4.72668">
        <ele>190</ele>
        <time>2018-08-02T08:34:49Z</time>
      </trkpt>
      <trkpt lat="45.8735" lon="4.72665">
        <ele>190</ele>
        <time>2018-08-02T08:34:50Z</time>
      </trkpt>
      <trkpt lat="45.87346" lon="4.72661">
        <ele>190</ele>
        <time>2018-08-02T08:34:51Z</time>
      </trkpt>
      <trkpt lat="45.87343" lon="4.72657">
        <ele>190</ele>
        <time>2018-08-02T08:34:52Z</time>
      </trkpt>
      <trkpt lat="45.87336" lon="4.72651">
        <ele>190</ele>
        <time>2018-08-02T08:34:54Z</time>
      </trkpt>
      <trkpt lat="45.87331" lon="4.72647">
        <ele>192</ele>
        <time>2018-08-02T08:34:55Z</time>
      </trkpt>
      <trkpt lat="45.87326" lon="4.7264">
        <ele>192</ele>
        <time>2018-08-02T08:34:56Z</time>
      </trkpt>
      <trkpt lat="45.87321" lon="4.72635">
        <ele>193</ele>
        <time>2018-08-02T08:34:57Z</time>
      </trkpt>
      <trkpt lat="45.87317" lon="4.7263">
        <ele>193</ele>
        <time>2018-08-02T08:34:58Z</time>
      </trkpt>
      <trkpt lat="45.87312" lon="4.72628">
        <ele>193</ele>
        <time>2018-08-02T08:34:59Z</time>
      </trkpt>
      <trkpt lat="45.87308" lon="4.72623">
        <ele>193</ele>
        <time>2018-08-02T08:35:00Z</time>
      </trkpt>
      <trkpt lat="45.87303" lon="4.72616">
        <ele>193</ele>
        <time>2018-08-02T08:35:01Z</time>
      </trkpt>
      <trkpt lat="45.87299" lon="4.72611">
        <ele>194</ele>
        <time>2018-08-02T08:35:02Z</time>
      </trkpt>
      <trkpt lat="45.87295" lon="4.72605">
        <ele>194</ele>
        <time>2018-08-02T08:35:03Z</time>
      </trkpt>
      <trkpt lat="45.87292" lon="4.726">
        <ele>194</ele>
        <time>2018-08-02T08:35:04Z</time>
      </trkpt>
      <trkpt lat="45.87288" lon="4.72594">
        <ele>194</ele>
        <time>2018-08-02T08:35:05Z</time>
      </trkpt>
      <trkpt lat="45.87283" lon="4.72587">
        <ele>194</ele>
        <time>2018-08-02T08:35:07Z</time>
      </trkpt>
      <trkpt lat="45.8728" lon="4.72582">
        <ele>194</ele>
        <time>2018-08-02T08:35:08Z</time>
      </trkpt>
      <trkpt lat="45.87275" lon="4.72575">
        <ele>194</ele>
        <time>2018-08-02T08:35:11Z</time>
      </trkpt>
      <trkpt lat="45.87269" lon="4.72566">
        <ele>194</ele>
        <time>2018-08-02T08:35:12Z</time>
      </trkpt>
      <trkpt lat="45.87264" lon="4.72556">
        <ele>194</ele>
        <time>2018-08-02T08:35:14Z</time>
      </trkpt>
      <trkpt lat="45.87263" lon="4.72554">
        <ele>194</ele>
        <time>2018-08-02T08:35:15Z</time>
      </trkpt>
      <trkpt lat="45.87257" lon="4.72546">
        <ele>194</ele>
        <time>2018-08-02T08:35:18Z</time>
      </trkpt>
      <trkpt lat="45.87255" lon="4.72544">
        <ele>194</ele>
        <time>2018-08-02T08:35:19Z</time>
      </trkpt>
      <trkpt lat="45.87251" lon="4.72535">
        <ele>194</ele>
        <time>2018-08-02T08:35:24Z</time>
      </trkpt>
      <trkpt lat="45.8725" lon="4.72532">
        <ele>193</ele>
        <time>2018-08-02T08:35:25Z</time>
      </trkpt>
      <trkpt lat="45.87246" lon="4.72524">
        <ele>196</ele>
        <time>2018-08-02T08:35:28Z</time>
      </trkpt>
      <trkpt lat="45.8724" lon="4.72514">
        <ele>196</ele>
        <time>2018-08-02T08:35:29Z</time>
      </trkpt>
      <trkpt lat="45.87236" lon="4.72504">
        <ele>195</ele>
        <time>2018-08-02T08:35:31Z</time>
      </trkpt>
      <trkpt lat="45.87235" lon="4.72501">
        <ele>195</ele>
        <time>2018-08-02T08:35:32Z</time>
      </trkpt>
      <trkpt lat="45.87229" lon="4.72492">
        <ele>194</ele>
        <time>2018-08-02T08:35:34Z</time>
      </trkpt>
      <trkpt lat="45.87226" lon="4.72488">
        <ele>194</ele>
        <time>2018-08-02T08:35:35Z</time>
      </trkpt>
      <trkpt lat="45.87221" lon="4.7248">
        <ele>194</ele>
        <time>2018-08-02T08:35:37Z</time>
      </trkpt>
      <trkpt lat="45.87217" lon="4.72476">
        <ele>194</ele>
        <time>2018-08-02T08:35:38Z</time>
      </trkpt>
      <trkpt lat="45.87214" lon="4.72471">
        <ele>194</ele>
        <time>2018-08-02T08:35:39Z</time>
      </trkpt>
      <trkpt lat="45.87209" lon="4.72466">
        <ele>194</ele>
        <time>2018-08-02T08:35:40Z</time>
      </trkpt>
      <trkpt lat="45.87203" lon="4.72457">
        <ele>194</ele>
        <time>2018-08-02T08:35:42Z</time>
      </trkpt>
      <trkpt lat="45.87201" lon="4.72452">
        <ele>194</ele>
        <time>2018-08-02T08:35:43Z</time>
      </trkpt>
      <trkpt lat="45.87195" lon="4.72443">
        <ele>194</ele>
        <time>2018-08-02T08:35:45Z</time>
      </trkpt>
      <trkpt lat="45.87193" lon="4.72439">
        <ele>194</ele>
        <time>2018-08-02T08:35:46Z</time>
      </trkpt>
      <trkpt lat="45.87187" lon="4.72431">
        <ele>194</ele>
        <time>2018-08-02T08:35:48Z</time>
      </trkpt>
      <trkpt lat="45.87186" lon="4.72429">
        <ele>194</ele>
        <time>2018-08-02T08:35:49Z</time>
      </trkpt>
      <trkpt lat="45.87183" lon="4.72423">
        <ele>194</ele>
        <time>2018-08-02T08:35:51Z</time>
      </trkpt>
      <trkpt lat="45.87178" lon="4.72415">
        <ele>192</ele>
        <time>2018-08-02T08:35:52Z</time>
      </trkpt>
      <trkpt lat="45.87175" lon="4.72411">
        <ele>192</ele>
        <time>2018-08-02T08:35:53Z</time>
      </trkpt>
      <trkpt lat="45.87172" lon="4.72405">
        <ele>192</ele>
        <time>2018-08-02T08:35:54Z</time>
      </trkpt>
      <trkpt lat="45.87169" lon="4.72398">
        <ele>191</ele>
        <time>2018-08-02T08:35:55Z</time>
      </trkpt>
      <trkpt lat="45.87167" lon="4.72392">
        <ele>191</ele>
        <time>2018-08-02T08:35:56Z</time>
      </trkpt>
      <trkpt lat="45.87165" lon="4.72386">
        <ele>197</ele>
        <time>2018-08-02T08:35:57Z</time>
      </trkpt>
      <trkpt lat="45.87162" lon="4.7238">
        <ele>197</ele>
        <time>2018-08-02T08:35:58Z</time>
      </trkpt>
      <trkpt lat="45.8716" lon="4.72375">
        <ele>197</ele>
        <time>2018-08-02T08:35:59Z</time>
      </trkpt>
      <trkpt lat="45.87157" lon="4.72369">
        <ele>197</ele>
        <time>2018-08-02T08:36:00Z</time>
      </trkpt>
      <trkpt lat="45.87153" lon="4.72358">
        <ele>196</ele>
        <time>2018-08-02T08:36:02Z</time>
      </trkpt>
      <trkpt lat="45.87151" lon="4.72353">
        <ele>196</ele>
        <time>2018-08-02T08:36:03Z</time>
      </trkpt>
      <trkpt lat="45.87147" lon="4.72343">
        <ele>195</ele>
        <time>2018-08-02T08:36:05Z</time>
      </trkpt>
      <trkpt lat="45.87144" lon="4.72338">
        <ele>196</ele>
        <time>2018-08-02T08:36:06Z</time>
      </trkpt>
      <trkpt lat="45.87141" lon="4.72332">
        <ele>194</ele>
        <time>2018-08-02T08:36:07Z</time>
      </trkpt>
      <trkpt lat="45.87139" lon="4.72327">
        <ele>195</ele>
        <time>2018-08-02T08:36:08Z</time>
      </trkpt>
      <trkpt lat="45.87136" lon="4.7232">
        <ele>195</ele>
        <time>2018-08-02T08:36:09Z</time>
      </trkpt>
      <trkpt lat="45.87134" lon="4.72314">
        <ele>195</ele>
        <time>2018-08-02T08:36:10Z</time>
      </trkpt>
      <trkpt lat="45.87131" lon="4.72308">
        <ele>196</ele>
        <time>2018-08-02T08:36:11Z</time>
      </trkpt>
      <trkpt lat="45.87127" lon="4.72301">
        <ele>196</ele>
        <time>2018-08-02T08:36:12Z</time>
      </trkpt>
      <trkpt lat="45.87124" lon="4.72294">
        <ele>196</ele>
        <time>2018-08-02T08:36:13Z</time>
      </trkpt>
      <trkpt lat="45.87119" lon="4.72288">
        <ele>196</ele>
        <time>2018-08-02T08:36:14Z</time>
      </trkpt>
      <trkpt lat="45.87117" lon="4.72282">
        <ele>196</ele>
        <time>2018-08-02T08:36:15Z</time>
      </trkpt>
      <trkpt lat="45.87113" lon="4.72276">
        <ele>197</ele>
        <time>2018-08-02T08:36:16Z</time>
      </trkpt>
      <trkpt lat="45.87108" lon="4.7227">
        <ele>197</ele>
        <time>2018-08-02T08:36:17Z</time>
      </trkpt>
      <trkpt lat="45.87103" lon="4.72264">
        <ele>197</ele>
        <time>2018-08-02T08:36:18Z</time>
      </trkpt>
      <trkpt lat="45.87099" lon="4.72258">
        <ele>198</ele>
        <time>2018-08-02T08:36:19Z</time>
      </trkpt>
      <trkpt lat="45.87094" lon="4.72253">
        <ele>198</ele>
        <time>2018-08-02T08:36:20Z</time>
      </trkpt>
      <trkpt lat="45.87089" lon="4.72248">
        <ele>197</ele>
        <time>2018-08-02T08:36:21Z</time>
      </trkpt>
      <trkpt lat="45.87084" lon="4.72242">
        <ele>197</ele>
        <time>2018-08-02T08:36:22Z</time>
      </trkpt>
      <trkpt lat="45.87081" lon="4.72235">
        <ele>200</ele>
        <time>2018-08-02T08:36:23Z</time>
      </trkpt>
      <trkpt lat="45.87078" lon="4.7223">
        <ele>200</ele>
        <time>2018-08-02T08:36:24Z</time>
      </trkpt>
      <trkpt lat="45.87074" lon="4.72223">
        <ele>199</ele>
        <time>2018-08-02T08:36:25Z</time>
      </trkpt>
      <trkpt lat="45.87067" lon="4.72218">
        <ele>200</ele>
        <time>2018-08-02T08:36:26Z</time>
      </trkpt>
      <trkpt lat="45.87063" lon="4.72214">
        <ele>200</ele>
        <time>2018-08-02T08:36:27Z</time>
      </trkpt>
      <trkpt lat="45.87057" lon="4.72209">
        <ele>200</ele>
        <time>2018-08-02T08:36:28Z</time>
      </trkpt>
      <trkpt lat="45.87051" lon="4.72206">
        <ele>200</ele>
        <time>2018-08-02T08:36:29Z</time>
      </trkpt>
      <trkpt lat="45.87045" lon="4.72204">
        <ele>200</ele>
        <time>2018-08-02T08:36:30Z</time>
      </trkpt>
      <trkpt lat="45.8704" lon="4.722">
        <ele>200</ele>
        <time>2018-08-02T08:36:31Z</time>
      </trkpt>
      <trkpt lat="45.87035" lon="4.72194">
        <ele>200</ele>
        <time>2018-08-02T08:36:32Z</time>
      </trkpt>
      <trkpt lat="45.8703" lon="4.72191">
        <ele>201</ele>
        <time>2018-08-02T08:36:33Z</time>
      </trkpt>
      <trkpt lat="45.87024" lon="4.72189">
        <ele>201</ele>
        <time>2018-08-02T08:36:34Z</time>
      </trkpt>
      <trkpt lat="45.87019" lon="4.72184">
        <ele>201</ele>
        <time>2018-08-02T08:36:35Z</time>
      </trkpt>
      <trkpt lat="45.87014" lon="4.72181">
        <ele>201</ele>
        <time>2018-08-02T08:36:36Z</time>
      </trkpt>
      <trkpt lat="45.87008" lon="4.72177">
        <ele>201</ele>
        <time>2018-08-02T08:36:37Z</time>
      </trkpt>
      <trkpt lat="45.87002" lon="4.72172">
        <ele>201</ele>
        <time>2018-08-02T08:36:38Z</time>
      </trkpt>
      <trkpt lat="45.86995" lon="4.7217">
        <ele>204</ele>
        <time>2018-08-02T08:36:39Z</time>
      </trkpt>
      <trkpt lat="45.8699" lon="4.72167">
        <ele>201</ele>
        <time>2018-08-02T08:36:40Z</time>
      </trkpt>
      <trkpt lat="45.86985" lon="4.72163">
        <ele>201</ele>
        <time>2018-08-02T08:36:41Z</time>
      </trkpt>
      <trkpt lat="45.86979" lon="4.72159">
        <ele>201</ele>
        <time>2018-08-02T08:36:42Z</time>
      </trkpt>
      <trkpt lat="45.86974" lon="4.72154">
        <ele>200</ele>
        <time>2018-08-02T08:36:43Z</time>
      </trkpt>
      <trkpt lat="45.86969" lon="4.7215">
        <ele>200</ele>
        <time>2018-08-02T08:36:44Z</time>
      </trkpt>
      <trkpt lat="45.86963" lon="4.72149">
        <ele>201</ele>
        <time>2018-08-02T08:36:45Z</time>
      </trkpt>
      <trkpt lat="45.86958" lon="4.72148">
        <ele>201</ele>
        <time>2018-08-02T08:36:46Z</time>
      </trkpt>
      <trkpt lat="45.86952" lon="4.72143">
        <ele>201</ele>
        <time>2018-08-02T08:36:47Z</time>
      </trkpt>
      <trkpt lat="45.86944" lon="4.7214">
        <ele>201</ele>
        <time>2018-08-02T08:36:48Z</time>
      </trkpt>
      <trkpt lat="45.86939" lon="4.72136">
        <ele>201</ele>
        <time>2018-08-02T08:36:49Z</time>
      </trkpt>
      <trkpt lat="45.86933" lon="4.72133">
        <ele>201</ele>
        <time>2018-08-02T08:36:50Z</time>
      </trkpt>
      <trkpt lat="45.86926" lon="4.72129">
        <ele>201</ele>
        <time>2018-08-02T08:36:51Z</time>
      </trkpt>
      <trkpt lat="45.8692" lon="4.72128">
        <ele>200</ele>
        <time>2018-08-02T08:36:52Z</time>
      </trkpt>
      <trkpt lat="45.86914" lon="4.72126">
        <ele>203</ele>
        <time>2018-08-02T08:36:53Z</time>
      </trkpt>
      <trkpt lat="45.86908" lon="4.72123">
        <ele>202</ele>
        <time>2018-08-02T08:36:54Z</time>
      </trkpt>
      <trkpt lat="45.86902" lon="4.72119">
        <ele>201</ele>
        <time>2018-08-02T08:36:55Z</time>
      </trkpt>
      <trkpt lat="45.86895" lon="4.72116">
        <ele>201</ele>
        <time>2018-08-02T08:36:56Z</time>
      </trkpt>
      <trkpt lat="45.86889" lon="4.72113">
        <ele>201</ele>
        <time>2018-08-02T08:36:57Z</time>
      </trkpt>
      <trkpt lat="45.86882" lon="4.7211">
        <ele>201</ele>
        <time>2018-08-02T08:36:58Z</time>
      </trkpt>
      <trkpt lat="45.86875" lon="4.72108">
        <ele>201</ele>
        <time>2018-08-02T08:36:59Z</time>
      </trkpt>
      <trkpt lat="45.86869" lon="4.72105">
        <ele>200</ele>
        <time>2018-08-02T08:37:00Z</time>
      </trkpt>
      <trkpt lat="45.86863" lon="4.72103">
        <ele>200</ele>
        <time>2018-08-02T08:37:01Z</time>
      </trkpt>
      <trkpt lat="45.86858" lon="4.72102">
        <ele>200</ele>
        <time>2018-08-02T08:37:02Z</time>
      </trkpt>
      <trkpt lat="45.86852" lon="4.72099">
        <ele>199</ele>
        <time>2018-08-02T08:37:03Z</time>
      </trkpt>
      <trkpt lat="45.86846" lon="4.72098">
        <ele>198</ele>
        <time>2018-08-02T08:37:04Z</time>
      </trkpt>
      <trkpt lat="45.86841" lon="4.72095">
        <ele>197</ele>
        <time>2018-08-02T08:37:05Z</time>
      </trkpt>
      <trkpt lat="45.86835" lon="4.72093">
        <ele>196</ele>
        <time>2018-08-02T08:37:06Z</time>
      </trkpt>
      <trkpt lat="45.86828" lon="4.72091">
        <ele>197</ele>
        <time>2018-08-02T08:37:07Z</time>
      </trkpt>
      <trkpt lat="45.86822" lon="4.72089">
        <ele>198</ele>
        <time>2018-08-02T08:37:08Z</time>
      </trkpt>
      <trkpt lat="45.86816" lon="4.72087">
        <ele>199</ele>
        <time>2018-08-02T08:37:09Z</time>
      </trkpt>
      <trkpt lat="45.8681" lon="4.72083">
        <ele>194</ele>
        <time>2018-08-02T08:37:10Z</time>
      </trkpt>
      <trkpt lat="45.86803" lon="4.7208">
        <ele>194</ele>
        <time>2018-08-02T08:37:11.552Z</time>
      </trkpt>
      <trkpt lat="45.86797" lon="4.72078">
        <ele>194</ele>
        <time>2018-08-02T08:37:12Z</time>
      </trkpt>
      <trkpt lat="45.86791" lon="4.72075">
        <ele>194</ele>
        <time>2018-08-02T08:37:13Z</time>
      </trkpt>
      <trkpt lat="45.86785" lon="4.72072">
        <ele>194</ele>
        <time>2018-08-02T08:37:14Z</time>
      </trkpt>
      <trkpt lat="45.86778" lon="4.72069">
        <ele>195</ele>
        <time>2018-08-02T08:37:15Z</time>
      </trkpt>
      <trkpt lat="45.86772" lon="4.72067">
        <ele>195</ele>
        <time>2018-08-02T08:37:16Z</time>
      </trkpt>
      <trkpt lat="45.86766" lon="4.72064">
        <ele>195</ele>
        <time>2018-08-02T08:37:17Z</time>
      </trkpt>
      <trkpt lat="45.86761" lon="4.72061">
        <ele>195</ele>
        <time>2018-08-02T08:37:18Z</time>
      </trkpt>
      <trkpt lat="45.86755" lon="4.72059">
        <ele>195</ele>
        <time>2018-08-02T08:37:19Z</time>
      </trkpt>
      <trkpt lat="45.86751" lon="4.72059">
        <ele>195</ele>
        <time>2018-08-02T08:37:20Z</time>
      </trkpt>
      <trkpt lat="45.86745" lon="4.72056">
        <ele>197</ele>
        <time>2018-08-02T08:37:21Z</time>
      </trkpt>
      <trkpt lat="45.8674" lon="4.72055">
        <ele>197</ele>
        <time>2018-08-02T08:37:22Z</time>
      </trkpt>
      <trkpt lat="45.86737" lon="4.72057">
        <ele>197</ele>
        <time>2018-08-02T08:37:23Z</time>
      </trkpt>
      <trkpt lat="45.86731" lon="4.72055">
        <ele>197</ele>
        <time>2018-08-02T08:37:24Z</time>
      </trkpt>
      <trkpt lat="45.86726" lon="4.7205">
        <ele>197</ele>
        <time>2018-08-02T08:37:25Z</time>
      </trkpt>
      <trkpt lat="45.86721" lon="4.72045">
        <ele>197</ele>
        <time>2018-08-02T08:37:26Z</time>
      </trkpt>
      <trkpt lat="45.86715" lon="4.72041">
        <ele>197</ele>
        <time>2018-08-02T08:37:27Z</time>
      </trkpt>
      <trkpt lat="45.86709" lon="4.72037">
        <ele>197</ele>
        <time>2018-08-02T08:37:28Z</time>
      </trkpt>
      <trkpt lat="45.86704" lon="4.72032">
        <ele>197</ele>
        <time>2018-08-02T08:37:29Z</time>
      </trkpt>
      <trkpt lat="45.867" lon="4.72026">
        <ele>197</ele>
        <time>2018-08-02T08:37:30Z</time>
      </trkpt>
      <trkpt lat="45.86696" lon="4.72023">
        <ele>197</ele>
        <time>2018-08-02T08:37:31Z</time>
      </trkpt>
      <trkpt lat="45.86691" lon="4.72019">
        <ele>197</ele>
        <time>2018-08-02T08:37:32Z</time>
      </trkpt>
      <trkpt lat="45.86687" lon="4.72015">
        <ele>196</ele>
        <time>2018-08-02T08:37:33Z</time>
      </trkpt>
      <trkpt lat="45.8668" lon="4.7201">
        <ele>196</ele>
        <time>2018-08-02T08:37:34Z</time>
      </trkpt>
      <trkpt lat="45.86674" lon="4.72004">
        <ele>196</ele>
        <time>2018-08-02T08:37:35Z</time>
      </trkpt>
      <trkpt lat="45.86669" lon="4.72">
        <ele>195</ele>
        <time>2018-08-02T08:37:36Z</time>
      </trkpt>
      <trkpt lat="45.86664" lon="4.71995">
        <ele>195</ele>
        <time>2018-08-02T08:37:37Z</time>
      </trkpt>
      <trkpt lat="45.86659" lon="4.71992">
        <ele>195</ele>
        <time>2018-08-02T08:37:38Z</time>
      </trkpt>
      <trkpt lat="45.86654" lon="4.71989">
        <ele>195</ele>
        <time>2018-08-02T08:37:39Z</time>
      </trkpt>
      <trkpt lat="45.86649" lon="4.71985">
        <ele>195</ele>
        <time>2018-08-02T08:37:40Z</time>
      </trkpt>
      <trkpt lat="45.86646" lon="4.71979">
        <ele>195</ele>
        <time>2018-08-02T08:37:41Z</time>
      </trkpt>
      <trkpt lat="45.86642" lon="4.71975">
        <ele>195</ele>
        <time>2018-08-02T08:37:42Z</time>
      </trkpt>
      <trkpt lat="45.86637" lon="4.71971">
        <ele>195</ele>
        <time>2018-08-02T08:37:43Z</time>
      </trkpt>
      <trkpt lat="45.86633" lon="4.71969">
        <ele>195</ele>
        <time>2018-08-02T08:37:44Z</time>
      </trkpt>
      <trkpt lat="45.86626" lon="4.71965">
        <ele>195</ele>
        <time>2018-08-02T08:37:45Z</time>
      </trkpt>
      <trkpt lat="45.86621" lon="4.71961">
        <ele>195</ele>
        <time>2018-08-02T08:37:46Z</time>
      </trkpt>
      <trkpt lat="45.86616" lon="4.71957">
        <ele>194</ele>
        <time>2018-08-02T08:37:47Z</time>
      </trkpt>
      <trkpt lat="45.86611" lon="4.71954">
        <ele>194</ele>
        <time>2018-08-02T08:37:48Z</time>
      </trkpt>
      <trkpt lat="45.86606" lon="4.7195">
        <ele>194</ele>
        <time>2018-08-02T08:37:49Z</time>
      </trkpt>
      <trkpt lat="45.86602" lon="4.71946">
        <ele>194</ele>
        <time>2018-08-02T08:37:50Z</time>
      </trkpt>
      <trkpt lat="45.86597" lon="4.71944">
        <ele>194</ele>
        <time>2018-08-02T08:37:51Z</time>
      </trkpt>
      <trkpt lat="45.86593" lon="4.71941">
        <ele>194</ele>
        <time>2018-08-02T08:37:52Z</time>
      </trkpt>
      <trkpt lat="45.86589" lon="4.71935">
        <ele>194</ele>
        <time>2018-08-02T08:37:53Z</time>
      </trkpt>
      <trkpt lat="45.86579" lon="4.71934">
        <ele>195</ele>
        <time>2018-08-02T08:37:54Z</time>
      </trkpt>
      <trkpt lat="45.86575" lon="4.7193">
        <ele>195</ele>
        <time>2018-08-02T08:37:55Z</time>
      </trkpt>
      <trkpt lat="45.86567" lon="4.71924">
        <ele>195</ele>
        <time>2018-08-02T08:37:56Z</time>
      </trkpt>
      <trkpt lat="45.86562" lon="4.7192">
        <ele>196</ele>
        <time>2018-08-02T08:37:57Z</time>
      </trkpt>
      <trkpt lat="45.86557" lon="4.71915">
        <ele>195</ele>
        <time>2018-08-02T08:37:58Z</time>
      </trkpt>
      <trkpt lat="45.86552" lon="4.7191">
        <ele>195</ele>
        <time>2018-08-02T08:37:59Z</time>
      </trkpt>
      <trkpt lat="45.86548" lon="4.71906">
        <ele>195</ele>
        <time>2018-08-02T08:38:00Z</time>
      </trkpt>
      <trkpt lat="45.86543" lon="4.71902">
        <ele>195</ele>
        <time>2018-08-02T08:38:01Z</time>
      </trkpt>
      <trkpt lat="45.8654" lon="4.71898">
        <ele>195</ele>
        <time>2018-08-02T08:38:02Z</time>
      </trkpt>
      <trkpt lat="45.86536" lon="4.71895">
        <ele>195</ele>
        <time>2018-08-02T08:38:03Z</time>
      </trkpt>
      <trkpt lat="45.86532" lon="4.71891">
        <ele>195</ele>
        <time>2018-08-02T08:38:04Z</time>
      </trkpt>
      <trkpt lat="45.86528" lon="4.71888">
        <ele>195</ele>
        <time>2018-08-02T08:38:05Z</time>
      </trkpt>
      <trkpt lat="45.86524" lon="4.71884">
        <ele>195</ele>
        <time>2018-08-02T08:38:06Z</time>
      </trkpt>
      <trkpt lat="45.86514" lon="4.71877">
        <ele>195</ele>
        <time>2018-08-02T08:38:07Z</time>
      </trkpt>
      <trkpt lat="45.8651" lon="4.71873">
        <ele>195</ele>
        <time>2018-08-02T08:38:08Z</time>
      </trkpt>
      <trkpt lat="45.86505" lon="4.7187">
        <ele>195</ele>
        <time>2018-08-02T08:38:09Z</time>
      </trkpt>
      <trkpt lat="45.865" lon="4.71866">
        <ele>198</ele>
        <time>2018-08-02T08:38:10Z</time>
      </trkpt>
      <trkpt lat="45.86498" lon="4.71862">
        <ele>198</ele>
        <time>2018-08-02T08:38:11Z</time>
      </trkpt>
      <trkpt lat="45.86493" lon="4.71858">
        <ele>198</ele>
        <time>2018-08-02T08:38:12Z</time>
      </trkpt>
      <trkpt lat="45.86489" lon="4.71854">
        <ele>198</ele>
        <time>2018-08-02T08:38:13Z</time>
      </trkpt>
      <trkpt lat="45.86483" lon="4.7185">
        <ele>198</ele>
        <time>2018-08-02T08:38:14Z</time>
      </trkpt>
      <trkpt lat="45.86479" lon="4.71848">
        <ele>198</ele>
        <time>2018-08-02T08:38:15Z</time>
      </trkpt>
      <trkpt lat="45.86474" lon="4.71844">
        <ele>198</ele>
        <time>2018-08-02T08:38:16Z</time>
      </trkpt>
      <trkpt lat="45.86469" lon="4.71842">
        <ele>199</ele>
        <time>2018-08-02T08:38:17Z</time>
      </trkpt>
      <trkpt lat="45.86464" lon="4.71837">
        <ele>199</ele>
        <time>2018-08-02T08:38:18Z</time>
      </trkpt>
      <trkpt lat="45.86459" lon="4.71834">
        <ele>200</ele>
        <time>2018-08-02T08:38:19Z</time>
      </trkpt>
      <trkpt lat="45.86454" lon="4.7183">
        <ele>197</ele>
        <time>2018-08-02T08:38:20Z</time>
      </trkpt>
      <trkpt lat="45.86449" lon="4.71826">
        <ele>197</ele>
        <time>2018-08-02T08:38:21Z</time>
      </trkpt>
      <trkpt lat="45.86444" lon="4.71821">
        <ele>197</ele>
        <time>2018-08-02T08:38:22Z</time>
      </trkpt>
      <trkpt lat="45.86439" lon="4.71818">
        <ele>197</ele>
        <time>2018-08-02T08:38:23Z</time>
      </trkpt>
      <trkpt lat="45.86435" lon="4.71812">
        <ele>197</ele>
        <time>2018-08-02T08:38:24Z</time>
      </trkpt>
      <trkpt lat="45.86431" lon="4.71808">
        <ele>197</ele>
        <time>2018-08-02T08:38:25Z</time>
      </trkpt>
      <trkpt lat="45.86427" lon="4.71804">
        <ele>197</ele>
        <time>2018-08-02T08:38:26Z</time>
      </trkpt>
      <trkpt lat="45.86423" lon="4.71801">
        <ele>197</ele>
        <time>2018-08-02T08:38:27Z</time>
      </trkpt>
      <trkpt lat="45.86418" lon="4.71801">
        <ele>197</ele>
        <time>2018-08-02T08:38:28Z</time>
      </trkpt>
      <trkpt lat="45.86414" lon="4.71796">
        <ele>199</ele>
        <time>2018-08-02T08:38:29Z</time>
      </trkpt>
      <trkpt lat="45.86409" lon="4.71792">
        <ele>199</ele>
        <time>2018-08-02T08:38:30Z</time>
      </trkpt>
      <trkpt lat="45.86405" lon="4.71788">
        <ele>198</ele>
        <time>2018-08-02T08:38:31Z</time>
      </trkpt>
      <trkpt lat="45.86401" lon="4.71784">
        <ele>198</ele>
        <time>2018-08-02T08:38:32Z</time>
      </trkpt>
      <trkpt lat="45.86397" lon="4.7178">
        <ele>198</ele>
        <time>2018-08-02T08:38:33Z</time>
      </trkpt>
      <trkpt lat="45.86393" lon="4.71775">
        <ele>198</ele>
        <time>2018-08-02T08:38:34Z</time>
      </trkpt>
      <trkpt lat="45.86389" lon="4.71772">
        <ele>198</ele>
        <time>2018-08-02T08:38:35Z</time>
      </trkpt>
      <trkpt lat="45.86384" lon="4.71768">
        <ele>198</ele>
        <time>2018-08-02T08:38:36Z</time>
      </trkpt>
      <trkpt lat="45.86379" lon="4.71767">
        <ele>198</ele>
        <time>2018-08-02T08:38:37Z</time>
      </trkpt>
      <trkpt lat="45.86374" lon="4.71763">
        <ele>198</ele>
        <time>2018-08-02T08:38:38Z</time>
      </trkpt>
      <trkpt lat="45.86369" lon="4.71761">
        <ele>198</ele>
        <time>2018-08-02T08:38:39Z</time>
      </trkpt>
      <trkpt lat="45.86362" lon="4.71754">
        <ele>198</ele>
        <time>2018-08-02T08:38:41Z</time>
      </trkpt>
      <trkpt lat="45.86357" lon="4.7175">
        <ele>197</ele>
        <time>2018-08-02T08:38:42Z</time>
      </trkpt>
      <trkpt lat="45.86352" lon="4.71749">
        <ele>195</ele>
        <time>2018-08-02T08:38:43Z</time>
      </trkpt>
      <trkpt lat="45.86347" lon="4.71745">
        <ele>195</ele>
        <time>2018-08-02T08:38:44Z</time>
      </trkpt>
      <trkpt lat="45.8634" lon="4.71741">
        <ele>195</ele>
        <time>2018-08-02T08:38:46Z</time>
      </trkpt>
      <trkpt lat="45.86335" lon="4.71736">
        <ele>195</ele>
        <time>2018-08-02T08:38:47Z</time>
      </trkpt>
      <trkpt lat="45.86329" lon="4.71733">
        <ele>196</ele>
        <time>2018-08-02T08:38:48Z</time>
      </trkpt>
      <trkpt lat="45.86324" lon="4.7173">
        <ele>196</ele>
        <time>2018-08-02T08:38:49Z</time>
      </trkpt>
      <trkpt lat="45.86319" lon="4.71727">
        <ele>196</ele>
        <time>2018-08-02T08:38:50Z</time>
      </trkpt>
      <trkpt lat="45.86314" lon="4.71719">
        <ele>196</ele>
        <time>2018-08-02T08:38:51Z</time>
      </trkpt>
      <trkpt lat="45.86308" lon="4.71711">
        <ele>195</ele>
        <time>2018-08-02T08:38:53Z</time>
      </trkpt>
      <trkpt lat="45.86305" lon="4.71708">
        <ele>195</ele>
        <time>2018-08-02T08:38:54Z</time>
      </trkpt>
      <trkpt lat="45.86298" lon="4.71702">
        <ele>195</ele>
        <time>2018-08-02T08:38:56Z</time>
      </trkpt>
      <trkpt lat="45.86292" lon="4.717">
        <ele>195</ele>
        <time>2018-08-02T08:38:57Z</time>
      </trkpt>
      <trkpt lat="45.86287" lon="4.71697">
        <ele>195</ele>
        <time>2018-08-02T08:38:58Z</time>
      </trkpt>
      <trkpt lat="45.86283" lon="4.71692">
        <ele>195</ele>
        <time>2018-08-02T08:38:59Z</time>
      </trkpt>
      <trkpt lat="45.86278" lon="4.71687">
        <ele>195</ele>
        <time>2018-08-02T08:39:00Z</time>
      </trkpt>
      <trkpt lat="45.86272" lon="4.71684">
        <ele>195</ele>
        <time>2018-08-02T08:39:01Z</time>
      </trkpt>
      <trkpt lat="45.86267" lon="4.7168">
        <ele>195</ele>
        <time>2018-08-02T08:39:02Z</time>
      </trkpt>
      <trkpt lat="45.86261" lon="4.71675">
        <ele>195</ele>
        <time>2018-08-02T08:39:03Z</time>
      </trkpt>
      <trkpt lat="45.86255" lon="4.71671">
        <ele>195</ele>
        <time>2018-08-02T08:39:04Z</time>
      </trkpt>
      <trkpt lat="45.8625" lon="4.71666">
        <ele>195</ele>
        <time>2018-08-02T08:39:05Z</time>
      </trkpt>
      <trkpt lat="45.86246" lon="4.71663">
        <ele>195</ele>
        <time>2018-08-02T08:39:06Z</time>
      </trkpt>
      <trkpt lat="45.86241" lon="4.71659">
        <ele>195</ele>
        <time>2018-08-02T08:39:07Z</time>
      </trkpt>
      <trkpt lat="45.86237" lon="4.71656">
        <ele>195</ele>
        <time>2018-08-02T08:39:08Z</time>
      </trkpt>
      <trkpt lat="45.86229" lon="4.71652">
        <ele>195</ele>
        <time>2018-08-02T08:39:09Z</time>
      </trkpt>
      <trkpt lat="45.86225" lon="4.71648">
        <ele>195</ele>
        <time>2018-08-02T08:39:10Z</time>
      </trkpt>
      <trkpt lat="45.86221" lon="4.71644">
        <ele>195</ele>
        <time>2018-08-02T08:39:11Z</time>
      </trkpt>
      <trkpt lat="45.86215" lon="4.71635">
        <ele>195</ele>
        <time>2018-08-02T08:39:13Z</time>
      </trkpt>
      <trkpt lat="45.86215" lon="4.71626">
        <ele>195</ele>
        <time>2018-08-02T08:39:14Z</time>
      </trkpt>
      <trkpt lat="45.86214" lon="4.7162">
        <ele>195</ele>
        <time>2018-08-02T08:39:15Z</time>
      </trkpt>
      <trkpt lat="45.86213" lon="4.71613">
        <ele>195</ele>
        <time>2018-08-02T08:39:16Z</time>
      </trkpt>
      <trkpt lat="45.86208" lon="4.71602">
        <ele>195</ele>
        <time>2018-08-02T08:39:18Z</time>
      </trkpt>
      <trkpt lat="45.86203" lon="4.71597">
        <ele>195</ele>
        <time>2018-08-02T08:39:19Z</time>
      </trkpt>
      <trkpt lat="45.86199" lon="4.71593">
        <ele>195</ele>
        <time>2018-08-02T08:39:20Z</time>
      </trkpt>
      <trkpt lat="45.86195" lon="4.71588">
        <ele>195</ele>
        <time>2018-08-02T08:39:21Z</time>
      </trkpt>
      <trkpt lat="45.8619" lon="4.71582">
        <ele>195</ele>
        <time>2018-08-02T08:39:22Z</time>
      </trkpt>
      <trkpt lat="45.86186" lon="4.71577">
        <ele>195</ele>
        <time>2018-08-02T08:39:23Z</time>
      </trkpt>
      <trkpt lat="45.86181" lon="4.71571">
        <ele>195</ele>
        <time>2018-08-02T08:39:24Z</time>
      </trkpt>
      <trkpt lat="45.86178" lon="4.71565">
        <ele>195</ele>
        <time>2018-08-02T08:39:25Z</time>
      </trkpt>
      <trkpt lat="45.86174" lon="4.71559">
        <ele>195</ele>
        <time>2018-08-02T08:39:26Z</time>
      </trkpt>
      <trkpt lat="45.86173" lon="4.71553">
        <ele>195</ele>
        <time>2018-08-02T08:39:27Z</time>
      </trkpt>
      <trkpt lat="45.86166" lon="4.71544">
        <ele>196</ele>
        <time>2018-08-02T08:39:29Z</time>
      </trkpt>
      <trkpt lat="45.86163" lon="4.71539">
        <ele>195</ele>
        <time>2018-08-02T08:39:30Z</time>
      </trkpt>
      <trkpt lat="45.86159" lon="4.71528">
        <ele>195</ele>
        <time>2018-08-02T08:39:32Z</time>
      </trkpt>
      <trkpt lat="45.86157" lon="4.71522">
        <ele>195</ele>
        <time>2018-08-02T08:39:33Z</time>
      </trkpt>
      <trkpt lat="45.86154" lon="4.71516">
        <ele>195</ele>
        <time>2018-08-02T08:39:34Z</time>
      </trkpt>
      <trkpt lat="45.86151" lon="4.7151">
        <ele>195</ele>
        <time>2018-08-02T08:39:35Z</time>
      </trkpt>
      <trkpt lat="45.86149" lon="4.71503">
        <ele>195</ele>
        <time>2018-08-02T08:39:36Z</time>
      </trkpt>
      <trkpt lat="45.86147" lon="4.71497">
        <ele>195</ele>
        <time>2018-08-02T08:39:37Z</time>
      </trkpt>
      <trkpt lat="45.86145" lon="4.71491">
        <ele>195</ele>
        <time>2018-08-02T08:39:38Z</time>
      </trkpt>
      <trkpt lat="45.86142" lon="4.71485">
        <ele>195</ele>
        <time>2018-08-02T08:39:39Z</time>
      </trkpt>
      <trkpt lat="45.86138" lon="4.71475">
        <ele>195</ele>
        <time>2018-08-02T08:39:41Z</time>
      </trkpt>
      <trkpt lat="45.86136" lon="4.71469">
        <ele>195</ele>
        <time>2018-08-02T08:39:42Z</time>
      </trkpt>
      <trkpt lat="45.86133" lon="4.71458">
        <ele>195</ele>
        <time>2018-08-02T08:39:44Z</time>
      </trkpt>
      <trkpt lat="45.86131" lon="4.71451">
        <ele>195</ele>
        <time>2018-08-02T08:39:45Z</time>
      </trkpt>
      <trkpt lat="45.86129" lon="4.71444">
        <ele>195</ele>
        <time>2018-08-02T08:39:46Z</time>
      </trkpt>
      <trkpt lat="45.86127" lon="4.71438">
        <ele>195</ele>
        <time>2018-08-02T08:39:47Z</time>
      </trkpt>
      <trkpt lat="45.86126" lon="4.71432">
        <ele>195</ele>
        <time>2018-08-02T08:39:48Z</time>
      </trkpt>
      <trkpt lat="45.86125" lon="4.71426">
        <ele>195</ele>
        <time>2018-08-02T08:39:49Z</time>
      </trkpt>
      <trkpt lat="45.86124" lon="4.71413">
        <ele>196</ele>
        <time>2018-08-02T08:39:51Z</time>
      </trkpt>
      <trkpt lat="45.86119" lon="4.71404">
        <ele>196</ele>
        <time>2018-08-02T08:39:52Z</time>
      </trkpt>
      <trkpt lat="45.86119" lon="4.71396">
        <ele>196</ele>
        <time>2018-08-02T08:39:53Z</time>
      </trkpt>
      <trkpt lat="45.86119" lon="4.71389">
        <ele>196</ele>
        <time>2018-08-02T08:39:54Z</time>
      </trkpt>
      <trkpt lat="45.86118" lon="4.71381">
        <ele>196</ele>
        <time>2018-08-02T08:39:55Z</time>
      </trkpt>
      <trkpt lat="45.86116" lon="4.71375">
        <ele>196</ele>
        <time>2018-08-02T08:39:56Z</time>
      </trkpt>
      <trkpt lat="45.86116" lon="4.71368">
        <ele>196</ele>
        <time>2018-08-02T08:39:57Z</time>
      </trkpt>
      <trkpt lat="45.86115" lon="4.71361">
        <ele>196</ele>
        <time>2018-08-02T08:39:58Z</time>
      </trkpt>
      <trkpt lat="45.86114" lon="4.71354">
        <ele>196</ele>
        <time>2018-08-02T08:39:59Z</time>
      </trkpt>
      <trkpt lat="45.86113" lon="4.71347">
        <ele>196</ele>
        <time>2018-08-02T08:40:00Z</time>
      </trkpt>
      <trkpt lat="45.86112" lon="4.71341">
        <ele>196</ele>
        <time>2018-08-02T08:40:01Z</time>
      </trkpt>
      <trkpt lat="45.8611" lon="4.71334">
        <ele>196</ele>
        <time>2018-08-02T08:40:02Z</time>
      </trkpt>
      <trkpt lat="45.86107" lon="4.71326">
        <ele>196</ele>
        <time>2018-08-02T08:40:03Z</time>
      </trkpt>
      <trkpt lat="45.86106" lon="4.7132">
        <ele>196</ele>
        <time>2018-08-02T08:40:04Z</time>
      </trkpt>
      <trkpt lat="45.86105" lon="4.71308">
        <ele>196</ele>
        <time>2018-08-02T08:40:06Z</time>
      </trkpt>
      <trkpt lat="45.86104" lon="4.71303">
        <ele>197</ele>
        <time>2018-08-02T08:40:07Z</time>
      </trkpt>
      <trkpt lat="45.86103" lon="4.71295">
        <ele>197</ele>
        <time>2018-08-02T08:40:09Z</time>
      </trkpt>
      <trkpt lat="45.86103" lon="4.71289">
        <ele>197</ele>
        <time>2018-08-02T08:40:10Z</time>
      </trkpt>
      <trkpt lat="45.86101" lon="4.71277">
        <ele>197</ele>
        <time>2018-08-02T08:40:12Z</time>
      </trkpt>
      <trkpt lat="45.861" lon="4.71271">
        <ele>197</ele>
        <time>2018-08-02T08:40:13Z</time>
      </trkpt>
      <trkpt lat="45.86093" lon="4.71265">
        <ele>197</ele>
        <time>2018-08-02T08:40:14Z</time>
      </trkpt>
      <trkpt lat="45.86091" lon="4.71261">
        <ele>197</ele>
        <time>2018-08-02T08:40:15Z</time>
      </trkpt>
      <trkpt lat="45.86085" lon="4.71253">
        <ele>198</ele>
        <time>2018-08-02T08:40:17Z</time>
      </trkpt>
      <trkpt lat="45.86088" lon="4.71248">
        <ele>198</ele>
        <time>2018-08-02T08:40:18Z</time>
      </trkpt>
      <trkpt lat="45.86087" lon="4.71241">
        <ele>198</ele>
        <time>2018-08-02T08:40:19Z</time>
      </trkpt>
      <trkpt lat="45.86086" lon="4.71234">
        <ele>197</ele>
        <time>2018-08-02T08:40:20Z</time>
      </trkpt>
      <trkpt lat="45.8609" lon="4.71222">
        <ele>197</ele>
        <time>2018-08-02T08:40:22Z</time>
      </trkpt>
      <trkpt lat="45.86092" lon="4.71216">
        <ele>197</ele>
        <time>2018-08-02T08:40:23Z</time>
      </trkpt>
      <trkpt lat="45.86092" lon="4.71203">
        <ele>197</ele>
        <time>2018-08-02T08:40:25Z</time>
      </trkpt>
      <trkpt lat="45.86092" lon="4.71197">
        <ele>197</ele>
        <time>2018-08-02T08:40:26Z</time>
      </trkpt>
      <trkpt lat="45.86093" lon="4.71187">
        <ele>197</ele>
        <time>2018-08-02T08:40:28Z</time>
      </trkpt>
      <trkpt lat="45.86094" lon="4.71175">
        <ele>197</ele>
        <time>2018-08-02T08:40:29Z</time>
      </trkpt>
      <trkpt lat="45.86095" lon="4.71168">
        <ele>197</ele>
        <time>2018-08-02T08:40:30Z</time>
      </trkpt>
      <trkpt lat="45.86095" lon="4.71161">
        <ele>197</ele>
        <time>2018-08-02T08:40:31Z</time>
      </trkpt>
      <trkpt lat="45.86095" lon="4.71148">
        <ele>197</ele>
        <time>2018-08-02T08:40:33Z</time>
      </trkpt>
      <trkpt lat="45.86093" lon="4.71144">
        <ele>197</ele>
        <time>2018-08-02T08:40:34Z</time>
      </trkpt>
      <trkpt lat="45.86089" lon="4.7114">
        <ele>197</ele>
        <time>2018-08-02T08:40:35Z</time>
      </trkpt>
      <trkpt lat="45.86084" lon="4.71136">
        <ele>197</ele>
        <time>2018-08-02T08:40:36Z</time>
      </trkpt>
      <trkpt lat="45.86079" lon="4.71133">
        <ele>197</ele>
        <time>2018-08-02T08:40:37Z</time>
      </trkpt>
      <trkpt lat="45.86074" lon="4.71125">
        <ele>197</ele>
        <time>2018-08-02T08:40:38Z</time>
      </trkpt>
      <trkpt lat="45.86071" lon="4.71122">
        <ele>197</ele>
        <time>2018-08-02T08:40:39Z</time>
      </trkpt>
      <trkpt lat="45.86066" lon="4.71116">
        <ele>197</ele>
        <time>2018-08-02T08:40:40Z</time>
      </trkpt>
      <trkpt lat="45.8606" lon="4.71111">
        <ele>197</ele>
        <time>2018-08-02T08:40:41Z</time>
      </trkpt>
      <trkpt lat="45.86058" lon="4.71106">
        <ele>197</ele>
        <time>2018-08-02T08:40:42Z</time>
      </trkpt>
      <trkpt lat="45.86054" lon="4.711">
        <ele>197</ele>
        <time>2018-08-02T08:40:43Z</time>
      </trkpt>
      <trkpt lat="45.86052" lon="4.71094">
        <ele>197</ele>
        <time>2018-08-02T08:40:44Z</time>
      </trkpt>
      <trkpt lat="45.86048" lon="4.71089">
        <ele>197</ele>
        <time>2018-08-02T08:40:45Z</time>
      </trkpt>
      <trkpt lat="45.86046" lon="4.71082">
        <ele>196</ele>
        <time>2018-08-02T08:40:46Z</time>
      </trkpt>
      <trkpt lat="45.86043" lon="4.71071">
        <ele>196</ele>
        <time>2018-08-02T08:40:48Z</time>
      </trkpt>
      <trkpt lat="45.8604" lon="4.71063">
        <ele>197</ele>
        <time>2018-08-02T08:40:49Z</time>
      </trkpt>
      <trkpt lat="45.86037" lon="4.71056">
        <ele>197</ele>
        <time>2018-08-02T08:40:50Z</time>
      </trkpt>
      <trkpt lat="45.86036" lon="4.71049">
        <ele>197</ele>
        <time>2018-08-02T08:40:51Z</time>
      </trkpt>
      <trkpt lat="45.86035" lon="4.71042">
        <ele>197</ele>
        <time>2018-08-02T08:40:52Z</time>
      </trkpt>
      <trkpt lat="45.86033" lon="4.71035">
        <ele>197</ele>
        <time>2018-08-02T08:40:53Z</time>
      </trkpt>
      <trkpt lat="45.86028" lon="4.71027">
        <ele>197</ele>
        <time>2018-08-02T08:40:54Z</time>
      </trkpt>
      <trkpt lat="45.86026" lon="4.71021">
        <ele>197</ele>
        <time>2018-08-02T08:40:55Z</time>
      </trkpt>
      <trkpt lat="45.86021" lon="4.71012">
        <ele>197</ele>
        <time>2018-08-02T08:40:57Z</time>
      </trkpt>
      <trkpt lat="45.86019" lon="4.71007">
        <ele>197</ele>
        <time>2018-08-02T08:40:58Z</time>
      </trkpt>
      <trkpt lat="45.86013" lon="4.70998">
        <ele>197</ele>
        <time>2018-08-02T08:41:00Z</time>
      </trkpt>
      <trkpt lat="45.86009" lon="4.70993">
        <ele>197</ele>
        <time>2018-08-02T08:41:01Z</time>
      </trkpt>
      <trkpt lat="45.86004" lon="4.70989">
        <ele>197</ele>
        <time>2018-08-02T08:41:02Z</time>
      </trkpt>
      <trkpt lat="45.85999" lon="4.70985">
        <ele>197</ele>
        <time>2018-08-02T08:41:03Z</time>
      </trkpt>
      <trkpt lat="45.85994" lon="4.70982">
        <ele>197</ele>
        <time>2018-08-02T08:41:04Z</time>
      </trkpt>
      <trkpt lat="45.8599" lon="4.70979">
        <ele>197</ele>
        <time>2018-08-02T08:41:05Z</time>
      </trkpt>
      <trkpt lat="45.85985" lon="4.70977">
        <ele>197</ele>
        <time>2018-08-02T08:41:06Z</time>
      </trkpt>
      <trkpt lat="45.8598" lon="4.70974">
        <ele>197</ele>
        <time>2018-08-02T08:41:07Z</time>
      </trkpt>
      <trkpt lat="45.85975" lon="4.70971">
        <ele>197</ele>
        <time>2018-08-02T08:41:08Z</time>
      </trkpt>
      <trkpt lat="45.85971" lon="4.7097">
        <ele>197</ele>
        <time>2018-08-02T08:41:09Z</time>
      </trkpt>
      <trkpt lat="45.85967" lon="4.70969">
        <ele>197</ele>
        <time>2018-08-02T08:41:10Z</time>
      </trkpt>
      <trkpt lat="45.85962" lon="4.70966">
        <ele>197</ele>
        <time>2018-08-02T08:41:11Z</time>
      </trkpt>
      <trkpt lat="45.85957" lon="4.70966">
        <ele>197</ele>
        <time>2018-08-02T08:41:12Z</time>
      </trkpt>
      <trkpt lat="45.85952" lon="4.70966">
        <ele>197</ele>
        <time>2018-08-02T08:41:13Z</time>
      </trkpt>
      <trkpt lat="45.85945" lon="4.70965">
        <ele>197</ele>
        <time>2018-08-02T08:41:15Z</time>
      </trkpt>
      <trkpt lat="45.85942" lon="4.70961">
        <ele>197</ele>
        <time>2018-08-02T08:41:16Z</time>
      </trkpt>
      <trkpt lat="45.85942" lon="4.70953">
        <ele>197</ele>
        <time>2018-08-02T08:41:17Z</time>
      </trkpt>
      <trkpt lat="45.85942" lon="4.70948">
        <ele>197</ele>
        <time>2018-08-02T08:41:18Z</time>
      </trkpt>
      <trkpt lat="45.85943" lon="4.70937">
        <ele>197</ele>
        <time>2018-08-02T08:41:20Z</time>
      </trkpt>
      <trkpt lat="45.85944" lon="4.70932">
        <ele>197</ele>
        <time>2018-08-02T08:41:21Z</time>
      </trkpt>
      <trkpt lat="45.85944" lon="4.70925">
        <ele>197</ele>
        <time>2018-08-02T08:41:22Z</time>
      </trkpt>
      <trkpt lat="45.85946" lon="4.70918">
        <ele>197</ele>
        <time>2018-08-02T08:41:23Z</time>
      </trkpt>
      <trkpt lat="45.85948" lon="4.7091">
        <ele>197</ele>
        <time>2018-08-02T08:41:24Z</time>
      </trkpt>
      <trkpt lat="45.8595" lon="4.70903">
        <ele>197</ele>
        <time>2018-08-02T08:41:25Z</time>
      </trkpt>
      <trkpt lat="45.85952" lon="4.70896">
        <ele>197</ele>
        <time>2018-08-02T08:41:26Z</time>
      </trkpt>
      <trkpt lat="45.85954" lon="4.7089">
        <ele>197</ele>
        <time>2018-08-02T08:41:27Z</time>
      </trkpt>
      <trkpt lat="45.85954" lon="4.70882">
        <ele>197</ele>
        <time>2018-08-02T08:41:28Z</time>
      </trkpt>
      <trkpt lat="45.85955" lon="4.70875">
        <ele>196</ele>
        <time>2018-08-02T08:41:29Z</time>
      </trkpt>
      <trkpt lat="45.85959" lon="4.70868">
        <ele>196</ele>
        <time>2018-08-02T08:41:30Z</time>
      </trkpt>
      <trkpt lat="45.8596" lon="4.70861">
        <ele>196</ele>
        <time>2018-08-02T08:41:31Z</time>
      </trkpt>
      <trkpt lat="45.85961" lon="4.70854">
        <ele>196</ele>
        <time>2018-08-02T08:41:32Z</time>
      </trkpt>
      <trkpt lat="45.85961" lon="4.70844">
        <ele>196</ele>
        <time>2018-08-02T08:41:33Z</time>
      </trkpt>
      <trkpt lat="45.8596" lon="4.70831">
        <ele>196</ele>
        <time>2018-08-02T08:41:35Z</time>
      </trkpt>
      <trkpt lat="45.8596" lon="4.70824">
        <ele>196</ele>
        <time>2018-08-02T08:41:36Z</time>
      </trkpt>
      <trkpt lat="45.85959" lon="4.70812">
        <ele>195</ele>
        <time>2018-08-02T08:41:38Z</time>
      </trkpt>
      <trkpt lat="45.85958" lon="4.70806">
        <ele>195</ele>
        <time>2018-08-02T08:41:39Z</time>
      </trkpt>
      <trkpt lat="45.85961" lon="4.70796">
        <ele>195</ele>
        <time>2018-08-02T08:41:41Z</time>
      </trkpt>
      <trkpt lat="45.85958" lon="4.70787">
        <ele>195</ele>
        <time>2018-08-02T08:41:42Z</time>
      </trkpt>
      <trkpt lat="45.85959" lon="4.70782">
        <ele>195</ele>
        <time>2018-08-02T08:41:43Z</time>
      </trkpt>
      <trkpt lat="45.85952" lon="4.70773">
        <ele>195</ele>
        <time>2018-08-02T08:41:44Z</time>
      </trkpt>
      <trkpt lat="45.85953" lon="4.70766">
        <ele>195</ele>
        <time>2018-08-02T08:41:45Z</time>
      </trkpt>
      <trkpt lat="45.85955" lon="4.70759">
        <ele>195</ele>
        <time>2018-08-02T08:41:46Z</time>
      </trkpt>
      <trkpt lat="45.85956" lon="4.70752">
        <ele>195</ele>
        <time>2018-08-02T08:41:47Z</time>
      </trkpt>
      <trkpt lat="45.85957" lon="4.70745">
        <ele>194</ele>
        <time>2018-08-02T08:41:48Z</time>
      </trkpt>
      <trkpt lat="45.85958" lon="4.70737">
        <ele>194</ele>
        <time>2018-08-02T08:41:49Z</time>
      </trkpt>
      <trkpt lat="45.85959" lon="4.7073">
        <ele>194</ele>
        <time>2018-08-02T08:41:50Z</time>
      </trkpt>
      <trkpt lat="45.8596" lon="4.70722">
        <ele>194</ele>
        <time>2018-08-02T08:41:51Z</time>
      </trkpt>
      <trkpt lat="45.85961" lon="4.70716">
        <ele>194</ele>
        <time>2018-08-02T08:41:52Z</time>
      </trkpt>
      <trkpt lat="45.85963" lon="4.7071">
        <ele>194</ele>
        <time>2018-08-02T08:41:53Z</time>
      </trkpt>
      <trkpt lat="45.85963" lon="4.70701">
        <ele>194</ele>
        <time>2018-08-02T08:41:54Z</time>
      </trkpt>
      <trkpt lat="45.85963" lon="4.70693">
        <ele>194</ele>
        <time>2018-08-02T08:41:55Z</time>
      </trkpt>
      <trkpt lat="45.85962" lon="4.70684">
        <ele>194</ele>
        <time>2018-08-02T08:41:56Z</time>
      </trkpt>
      <trkpt lat="45.85963" lon="4.70678">
        <ele>194</ele>
        <time>2018-08-02T08:41:57Z</time>
      </trkpt>
      <trkpt lat="45.85958" lon="4.70671">
        <ele>194</ele>
        <time>2018-08-02T08:41:58Z</time>
      </trkpt>
      <trkpt lat="45.85957" lon="4.70664">
        <ele>194</ele>
        <time>2018-08-02T08:41:59Z</time>
      </trkpt>
      <trkpt lat="45.85955" lon="4.70658">
        <ele>194</ele>
        <time>2018-08-02T08:42:00Z</time>
      </trkpt>
      <trkpt lat="45.85948" lon="4.70649">
        <ele>194</ele>
        <time>2018-08-02T08:42:02Z</time>
      </trkpt>
      <trkpt lat="45.85945" lon="4.70646">
        <ele>194</ele>
        <time>2018-08-02T08:42:03Z</time>
      </trkpt>
      <trkpt lat="45.85939" lon="4.70641">
        <ele>194</ele>
        <time>2018-08-02T08:42:04Z</time>
      </trkpt>
      <trkpt lat="45.85936" lon="4.70634">
        <ele>194</ele>
        <time>2018-08-02T08:42:05Z</time>
      </trkpt>
      <trkpt lat="45.85932" lon="4.70628">
        <ele>194</ele>
        <time>2018-08-02T08:42:06Z</time>
      </trkpt>
      <trkpt lat="45.85928" lon="4.70623">
        <ele>194</ele>
        <time>2018-08-02T08:42:07Z</time>
      </trkpt>
      <trkpt lat="45.85925" lon="4.70616">
        <ele>194</ele>
        <time>2018-08-02T08:42:08Z</time>
      </trkpt>
      <trkpt lat="45.85921" lon="4.7061">
        <ele>194</ele>
        <time>2018-08-02T08:42:09Z</time>
      </trkpt>
      <trkpt lat="45.85918" lon="4.70604">
        <ele>194</ele>
        <time>2018-08-02T08:42:10Z</time>
      </trkpt>
      <trkpt lat="45.85914" lon="4.70597">
        <ele>195</ele>
        <time>2018-08-02T08:42:11Z</time>
      </trkpt>
      <trkpt lat="45.8591" lon="4.70591">
        <ele>195</ele>
        <time>2018-08-02T08:42:12Z</time>
      </trkpt>
      <trkpt lat="45.85906" lon="4.70585">
        <ele>195</ele>
        <time>2018-08-02T08:42:13Z</time>
      </trkpt>
      <trkpt lat="45.85901" lon="4.70581">
        <ele>195</ele>
        <time>2018-08-02T08:42:14Z</time>
      </trkpt>
      <trkpt lat="45.85897" lon="4.70577">
        <ele>195</ele>
        <time>2018-08-02T08:42:15Z</time>
      </trkpt>
      <trkpt lat="45.85892" lon="4.70575">
        <ele>195</ele>
        <time>2018-08-02T08:42:16Z</time>
      </trkpt>
      <trkpt lat="45.85887" lon="4.70568">
        <ele>195</ele>
        <time>2018-08-02T08:42:17Z</time>
      </trkpt>
      <trkpt lat="45.85881" lon="4.70562">
        <ele>195</ele>
        <time>2018-08-02T08:42:18Z</time>
      </trkpt>
      <trkpt lat="45.85877" lon="4.70564">
        <ele>195</ele>
        <time>2018-08-02T08:42:19Z</time>
      </trkpt>
      <trkpt lat="45.85872" lon="4.70563">
        <ele>195</ele>
        <time>2018-08-02T08:42:20Z</time>
      </trkpt>
      <trkpt lat="45.85865" lon="4.70563">
        <ele>195</ele>
        <time>2018-08-02T08:42:21Z</time>
      </trkpt>
      <trkpt lat="45.85859" lon="4.7056">
        <ele>195</ele>
        <time>2018-08-02T08:42:22Z</time>
      </trkpt>
      <trkpt lat="45.85853" lon="4.7056">
        <ele>195</ele>
        <time>2018-08-02T08:42:23Z</time>
      </trkpt>
      <trkpt lat="45.85848" lon="4.70557">
        <ele>195</ele>
        <time>2018-08-02T08:42:24Z</time>
      </trkpt>
      <trkpt lat="45.85844" lon="4.70557">
        <ele>195</ele>
        <time>2018-08-02T08:42:25Z</time>
      </trkpt>
      <trkpt lat="45.85838" lon="4.70554">
        <ele>195</ele>
        <time>2018-08-02T08:42:26Z</time>
      </trkpt>
      <trkpt lat="45.85833" lon="4.70553">
        <ele>195</ele>
        <time>2018-08-02T08:42:27Z</time>
      </trkpt>
      <trkpt lat="45.85827" lon="4.7055">
        <ele>195</ele>
        <time>2018-08-02T08:42:28Z</time>
      </trkpt>
      <trkpt lat="45.85823" lon="4.70551">
        <ele>195</ele>
        <time>2018-08-02T08:42:29Z</time>
      </trkpt>
      <trkpt lat="45.85818" lon="4.70549">
        <ele>195</ele>
        <time>2018-08-02T08:42:30Z</time>
      </trkpt>
      <trkpt lat="45.85812" lon="4.70547">
        <ele>195</ele>
        <time>2018-08-02T08:42:31Z</time>
      </trkpt>
      <trkpt lat="45.85806" lon="4.70545">
        <ele>195</ele>
        <time>2018-08-02T08:42:32Z</time>
      </trkpt>
      <trkpt lat="45.85801" lon="4.70543">
        <ele>195</ele>
        <time>2018-08-02T08:42:33Z</time>
      </trkpt>
      <trkpt lat="45.85797" lon="4.7054">
        <ele>195</ele>
        <time>2018-08-02T08:42:34Z</time>
      </trkpt>
      <trkpt lat="45.85792" lon="4.70538">
        <ele>195</ele>
        <time>2018-08-02T08:42:35Z</time>
      </trkpt>
      <trkpt lat="45.85788" lon="4.70535">
        <ele>196</ele>
        <time>2018-08-02T08:42:36Z</time>
      </trkpt>
      <trkpt lat="45.85783" lon="4.70532">
        <ele>196</ele>
        <time>2018-08-02T08:42:37Z</time>
      </trkpt>
      <trkpt lat="45.85778" lon="4.70529">
        <ele>196</ele>
        <time>2018-08-02T08:42:38Z</time>
      </trkpt>
      <trkpt lat="45.85774" lon="4.70525">
        <ele>196</ele>
        <time>2018-08-02T08:42:39Z</time>
      </trkpt>
      <trkpt lat="45.8577" lon="4.70522">
        <ele>196</ele>
        <time>2018-08-02T08:42:40Z</time>
      </trkpt>
      <trkpt lat="45.85765" lon="4.70517">
        <ele>196</ele>
        <time>2018-08-02T08:42:41Z</time>
      </trkpt>
      <trkpt lat="45.85758" lon="4.70511">
        <ele>196</ele>
        <time>2018-08-02T08:42:43Z</time>
      </trkpt>
      <trkpt lat="45.85756" lon="4.70508">
        <ele>196</ele>
        <time>2018-08-02T08:42:44Z</time>
      </trkpt>
      <trkpt lat="45.85751" lon="4.70505">
        <ele>196</ele>
        <time>2018-08-02T08:42:45Z</time>
      </trkpt>
      <trkpt lat="45.85746" lon="4.705">
        <ele>196</ele>
        <time>2018-08-02T08:42:46Z</time>
      </trkpt>
      <trkpt lat="45.85738" lon="4.70496">
        <ele>196</ele>
        <time>2018-08-02T08:42:47Z</time>
      </trkpt>
      <trkpt lat="45.85734" lon="4.70492">
        <ele>196</ele>
        <time>2018-08-02T08:42:48Z</time>
      </trkpt>
      <trkpt lat="45.8573" lon="4.70486">
        <ele>196</ele>
        <time>2018-08-02T08:42:49Z</time>
      </trkpt>
      <trkpt lat="45.85727" lon="4.70478">
        <ele>196</ele>
        <time>2018-08-02T08:42:50Z</time>
      </trkpt>
      <trkpt lat="45.85725" lon="4.70471">
        <ele>196</ele>
        <time>2018-08-02T08:42:51Z</time>
      </trkpt>
      <trkpt lat="45.85722" lon="4.70464">
        <ele>196</ele>
        <time>2018-08-02T08:42:52Z</time>
      </trkpt>
      <trkpt lat="45.8572" lon="4.70457">
        <ele>196</ele>
        <time>2018-08-02T08:42:53Z</time>
      </trkpt>
      <trkpt lat="45.85719" lon="4.70448">
        <ele>196</ele>
        <time>2018-08-02T08:42:54Z</time>
      </trkpt>
      <trkpt lat="45.85716" lon="4.70439">
        <ele>196</ele>
        <time>2018-08-02T08:42:55Z</time>
      </trkpt>
      <trkpt lat="45.85715" lon="4.70431">
        <ele>196</ele>
        <time>2018-08-02T08:42:56Z</time>
      </trkpt>
      <trkpt lat="45.85715" lon="4.70425">
        <ele>196</ele>
        <time>2018-08-02T08:42:57Z</time>
      </trkpt>
      <trkpt lat="45.85713" lon="4.70417">
        <ele>196</ele>
        <time>2018-08-02T08:42:58Z</time>
      </trkpt>
      <trkpt lat="45.85712" lon="4.70408">
        <ele>196</ele>
        <time>2018-08-02T08:42:59Z</time>
      </trkpt>
      <trkpt lat="45.85712" lon="4.70401">
        <ele>196</ele>
        <time>2018-08-02T08:43:00Z</time>
      </trkpt>
      <trkpt lat="45.85711" lon="4.70394">
        <ele>196</ele>
        <time>2018-08-02T08:43:01Z</time>
      </trkpt>
      <trkpt lat="45.85713" lon="4.70389">
        <ele>196</ele>
        <time>2018-08-02T08:43:02Z</time>
      </trkpt>
      <trkpt lat="45.85713" lon="4.70381">
        <ele>196</ele>
        <time>2018-08-02T08:43:03Z</time>
      </trkpt>
      <trkpt lat="45.85711" lon="4.70371">
        <ele>196</ele>
        <time>2018-08-02T08:43:04Z</time>
      </trkpt>
      <trkpt lat="45.85711" lon="4.70364">
        <ele>196</ele>
        <time>2018-08-02T08:43:05Z</time>
      </trkpt>
      <trkpt lat="45.85709" lon="4.70356">
        <ele>196</ele>
        <time>2018-08-02T08:43:06Z</time>
      </trkpt>
      <trkpt lat="45.85708" lon="4.70348">
        <ele>196</ele>
        <time>2018-08-02T08:43:07Z</time>
      </trkpt>
      <trkpt lat="45.85706" lon="4.7034">
        <ele>196</ele>
        <time>2018-08-02T08:43:08Z</time>
      </trkpt>
      <trkpt lat="45.85705" lon="4.70333">
        <ele>197</ele>
        <time>2018-08-02T08:43:09Z</time>
      </trkpt>
      <trkpt lat="45.85703" lon="4.70323">
        <ele>197</ele>
        <time>2018-08-02T08:43:10Z</time>
      </trkpt>
      <trkpt lat="45.85703" lon="4.70314">
        <ele>197</ele>
        <time>2018-08-02T08:43:11Z</time>
      </trkpt>
      <trkpt lat="45.85703" lon="4.70307">
        <ele>197</ele>
        <time>2018-08-02T08:43:12Z</time>
      </trkpt>
      <trkpt lat="45.85701" lon="4.70299">
        <ele>197</ele>
        <time>2018-08-02T08:43:13Z</time>
      </trkpt>
      <trkpt lat="45.85701" lon="4.70291">
        <ele>197</ele>
        <time>2018-08-02T08:43:14Z</time>
      </trkpt>
      <trkpt lat="45.857" lon="4.70284">
        <ele>197</ele>
        <time>2018-08-02T08:43:15Z</time>
      </trkpt>
      <trkpt lat="45.85699" lon="4.70275">
        <ele>197</ele>
        <time>2018-08-02T08:43:16Z</time>
      </trkpt>
      <trkpt lat="45.85698" lon="4.70267">
        <ele>197</ele>
        <time>2018-08-02T08:43:17Z</time>
      </trkpt>
      <trkpt lat="45.85697" lon="4.7026">
        <ele>197</ele>
        <time>2018-08-02T08:43:18Z</time>
      </trkpt>
      <trkpt lat="45.85696" lon="4.70252">
        <ele>197</ele>
        <time>2018-08-02T08:43:19Z</time>
      </trkpt>
      <trkpt lat="45.85697" lon="4.70244">
        <ele>197</ele>
        <time>2018-08-02T08:43:20Z</time>
      </trkpt>
      <trkpt lat="45.85695" lon="4.70236">
        <ele>197</ele>
        <time>2018-08-02T08:43:21Z</time>
      </trkpt>
      <trkpt lat="45.85694" lon="4.7023">
        <ele>197</ele>
        <time>2018-08-02T08:43:22Z</time>
      </trkpt>
      <trkpt lat="45.85694" lon="4.70222">
        <ele>197</ele>
        <time>2018-08-02T08:43:23Z</time>
      </trkpt>
      <trkpt lat="45.85694" lon="4.70216">
        <ele>197</ele>
        <time>2018-08-02T08:43:24Z</time>
      </trkpt>
      <trkpt lat="45.85692" lon="4.70209">
        <ele>197</ele>
        <time>2018-08-02T08:43:25Z</time>
      </trkpt>
      <trkpt lat="45.85691" lon="4.70201">
        <ele>197</ele>
        <time>2018-08-02T08:43:26Z</time>
      </trkpt>
      <trkpt lat="45.8569" lon="4.70194">
        <ele>197</ele>
        <time>2018-08-02T08:43:27Z</time>
      </trkpt>
      <trkpt lat="45.8569" lon="4.70188">
        <ele>197</ele>
        <time>2018-08-02T08:43:28Z</time>
      </trkpt>
      <trkpt lat="45.85688" lon="4.70181">
        <ele>197</ele>
        <time>2018-08-02T08:43:29Z</time>
      </trkpt>
      <trkpt lat="45.85686" lon="4.70174">
        <ele>197</ele>
        <time>2018-08-02T08:43:30Z</time>
      </trkpt>
      <trkpt lat="45.85684" lon="4.70167">
        <ele>197</ele>
        <time>2018-08-02T08:43:31Z</time>
      </trkpt>
      <trkpt lat="45.85682" lon="4.70161">
        <ele>197</ele>
        <time>2018-08-02T08:43:32Z</time>
      </trkpt>
      <trkpt lat="45.8568" lon="4.70153">
        <ele>197</ele>
        <time>2018-08-02T08:43:33Z</time>
      </trkpt>
      <trkpt lat="45.85679" lon="4.70145">
        <ele>197</ele>
        <time>2018-08-02T08:43:34Z</time>
      </trkpt>
      <trkpt lat="45.85678" lon="4.70137">
        <ele>197</ele>
        <time>2018-08-02T08:43:35Z</time>
      </trkpt>
      <trkpt lat="45.85679" lon="4.70129">
        <ele>197</ele>
        <time>2018-08-02T08:43:36Z</time>
      </trkpt>
      <trkpt lat="45.8568" lon="4.70121">
        <ele>197</ele>
        <time>2018-08-02T08:43:37Z</time>
      </trkpt>
      <trkpt lat="45.85679" lon="4.70114">
        <ele>197</ele>
        <time>2018-08-02T08:43:38Z</time>
      </trkpt>
      <trkpt lat="45.85679" lon="4.70107">
        <ele>196</ele>
        <time>2018-08-02T08:43:39Z</time>
      </trkpt>
      <trkpt lat="45.85677" lon="4.701">
        <ele>196</ele>
        <time>2018-08-02T08:43:40Z</time>
      </trkpt>
      <trkpt lat="45.85678" lon="4.70092">
        <ele>196</ele>
        <time>2018-08-02T08:43:41Z</time>
      </trkpt>
      <trkpt lat="45.85677" lon="4.70084">
        <ele>196</ele>
        <time>2018-08-02T08:43:42Z</time>
      </trkpt>
      <trkpt lat="45.85679" lon="4.70076">
        <ele>196</ele>
        <time>2018-08-02T08:43:43Z</time>
      </trkpt>
      <trkpt lat="45.85681" lon="4.7007">
        <ele>196</ele>
        <time>2018-08-02T08:43:44Z</time>
      </trkpt>
      <trkpt lat="45.85682" lon="4.70062">
        <ele>196</ele>
        <time>2018-08-02T08:43:45Z</time>
      </trkpt>
      <trkpt lat="45.85683" lon="4.70054">
        <ele>195</ele>
        <time>2018-08-02T08:43:46Z</time>
      </trkpt>
      <trkpt lat="45.85686" lon="4.70042">
        <ele>195</ele>
        <time>2018-08-02T08:43:48Z</time>
      </trkpt>
      <trkpt lat="45.85689" lon="4.70037">
        <ele>195</ele>
        <time>2018-08-02T08:43:49Z</time>
      </trkpt>
      <trkpt lat="45.8569" lon="4.70031">
        <ele>195</ele>
        <time>2018-08-02T08:43:50Z</time>
      </trkpt>
      <trkpt lat="45.85692" lon="4.70022">
        <ele>195</ele>
        <time>2018-08-02T08:43:51Z</time>
      </trkpt>
      <trkpt lat="45.85692" lon="4.70014">
        <ele>195</ele>
        <time>2018-08-02T08:43:52Z</time>
      </trkpt>
      <trkpt lat="45.85692" lon="4.70005">
        <ele>195</ele>
        <time>2018-08-02T08:43:53Z</time>
      </trkpt>
      <trkpt lat="45.85692" lon="4.69997">
        <ele>195</ele>
        <time>2018-08-02T08:43:54Z</time>
      </trkpt>
      <trkpt lat="45.85692" lon="4.69988">
        <ele>195</ele>
        <time>2018-08-02T08:43:55Z</time>
      </trkpt>
      <trkpt lat="45.85692" lon="4.69979">
        <ele>195</ele>
        <time>2018-08-02T08:43:56Z</time>
      </trkpt>
      <trkpt lat="45.85691" lon="4.69971">
        <ele>195</ele>
        <time>2018-08-02T08:43:57Z</time>
      </trkpt>
      <trkpt lat="45.85689" lon="4.69964">
        <ele>195</ele>
        <time>2018-08-02T08:43:58Z</time>
      </trkpt>
      <trkpt lat="45.85687" lon="4.69957">
        <ele>195</ele>
        <time>2018-08-02T08:43:59Z</time>
      </trkpt>
      <trkpt lat="45.85686" lon="4.6995">
        <ele>195</ele>
        <time>2018-08-02T08:44:00Z</time>
      </trkpt>
      <trkpt lat="45.85682" lon="4.69942">
        <ele>195</ele>
        <time>2018-08-02T08:44:01Z</time>
      </trkpt>
      <trkpt lat="45.85681" lon="4.69935">
        <ele>195</ele>
        <time>2018-08-02T08:44:02Z</time>
      </trkpt>
      <trkpt lat="45.8568" lon="4.69929">
        <ele>195</ele>
        <time>2018-08-02T08:44:03Z</time>
      </trkpt>
      <trkpt lat="45.85678" lon="4.69921">
        <ele>195</ele>
        <time>2018-08-02T08:44:04Z</time>
      </trkpt>
      <trkpt lat="45.85676" lon="4.69915">
        <ele>195</ele>
        <time>2018-08-02T08:44:05Z</time>
      </trkpt>
      <trkpt lat="45.85674" lon="4.69908">
        <ele>195</ele>
        <time>2018-08-02T08:44:06Z</time>
      </trkpt>
      <trkpt lat="45.85673" lon="4.69901">
        <ele>195</ele>
        <time>2018-08-02T08:44:07Z</time>
      </trkpt>
      <trkpt lat="45.85672" lon="4.69893">
        <ele>195</ele>
        <time>2018-08-02T08:44:08Z</time>
      </trkpt>
      <trkpt lat="45.8567" lon="4.69885">
        <ele>195</ele>
        <time>2018-08-02T08:44:09Z</time>
      </trkpt>
      <trkpt lat="45.85672" lon="4.69878">
        <ele>195</ele>
        <time>2018-08-02T08:44:10Z</time>
      </trkpt>
      <trkpt lat="45.85671" lon="4.6987">
        <ele>195</ele>
        <time>2018-08-02T08:44:11Z</time>
      </trkpt>
      <trkpt lat="45.85671" lon="4.69862">
        <ele>195</ele>
        <time>2018-08-02T08:44:12Z</time>
      </trkpt>
      <trkpt lat="45.85669" lon="4.69851">
        <ele>195</ele>
        <time>2018-08-02T08:44:13Z</time>
      </trkpt>
      <trkpt lat="45.85668" lon="4.69842">
        <ele>195</ele>
        <time>2018-08-02T08:44:14Z</time>
      </trkpt>
      <trkpt lat="45.85667" lon="4.69833">
        <ele>195</ele>
        <time>2018-08-02T08:44:15Z</time>
      </trkpt>
      <trkpt lat="45.85666" lon="4.69824">
        <ele>195</ele>
        <time>2018-08-02T08:44:16Z</time>
      </trkpt>
      <trkpt lat="45.85665" lon="4.69815">
        <ele>195</ele>
        <time>2018-08-02T08:44:17Z</time>
      </trkpt>
      <trkpt lat="45.85664" lon="4.69807">
        <ele>195</ele>
        <time>2018-08-02T08:44:18Z</time>
      </trkpt>
      <trkpt lat="45.85662" lon="4.69799">
        <ele>195</ele>
        <time>2018-08-02T08:44:19Z</time>
      </trkpt>
      <trkpt lat="45.85662" lon="4.69791">
        <ele>195</ele>
        <time>2018-08-02T08:44:20Z</time>
      </trkpt>
      <trkpt lat="45.85661" lon="4.69783">
        <ele>195</ele>
        <time>2018-08-02T08:44:21Z</time>
      </trkpt>
      <trkpt lat="45.85659" lon="4.69771">
        <ele>195</ele>
        <time>2018-08-02T08:44:23Z</time>
      </trkpt>
      <trkpt lat="45.85658" lon="4.69764">
        <ele>195</ele>
        <time>2018-08-02T08:44:24Z</time>
      </trkpt>
      <trkpt lat="45.85656" lon="4.69757">
        <ele>195</ele>
        <time>2018-08-02T08:44:25Z</time>
      </trkpt>
      <trkpt lat="45.85655" lon="4.69749">
        <ele>195</ele>
        <time>2018-08-02T08:44:26Z</time>
      </trkpt>
      <trkpt lat="45.85655" lon="4.69738">
        <ele>195</ele>
        <time>2018-08-02T08:44:28Z</time>
      </trkpt>
      <trkpt lat="45.85655" lon="4.6973">
        <ele>195</ele>
        <time>2018-08-02T08:44:29Z</time>
      </trkpt>
      <trkpt lat="45.85652" lon="4.69718">
        <ele>196</ele>
        <time>2018-08-02T08:44:31Z</time>
      </trkpt>
      <trkpt lat="45.85651" lon="4.69714">
        <ele>196</ele>
        <time>2018-08-02T08:44:32Z</time>
      </trkpt>
      <trkpt lat="45.85649" lon="4.69702">
        <ele>196</ele>
        <time>2018-08-02T08:44:34Z</time>
      </trkpt>
      <trkpt lat="45.85648" lon="4.69694">
        <ele>196</ele>
        <time>2018-08-02T08:44:35Z</time>
      </trkpt>
      <trkpt lat="45.85649" lon="4.69687">
        <ele>196</ele>
        <time>2018-08-02T08:44:36Z</time>
      </trkpt>
      <trkpt lat="45.85648" lon="4.69679">
        <ele>196</ele>
        <time>2018-08-02T08:44:37Z</time>
      </trkpt>
      <trkpt lat="45.85646" lon="4.69671">
        <ele>196</ele>
        <time>2018-08-02T08:44:38Z</time>
      </trkpt>
      <trkpt lat="45.85646" lon="4.69663">
        <ele>197</ele>
        <time>2018-08-02T08:44:39Z</time>
      </trkpt>
      <trkpt lat="45.85646" lon="4.69656">
        <ele>197</ele>
        <time>2018-08-02T08:44:40Z</time>
      </trkpt>
      <trkpt lat="45.85645" lon="4.69649">
        <ele>197</ele>
        <time>2018-08-02T08:44:41Z</time>
      </trkpt>
      <trkpt lat="45.85644" lon="4.6964">
        <ele>197</ele>
        <time>2018-08-02T08:44:42Z</time>
      </trkpt>
      <trkpt lat="45.85644" lon="4.69633">
        <ele>197</ele>
        <time>2018-08-02T08:44:43Z</time>
      </trkpt>
      <trkpt lat="45.85643" lon="4.69625">
        <ele>197</ele>
        <time>2018-08-02T08:44:44Z</time>
      </trkpt>
      <trkpt lat="45.85643" lon="4.69617">
        <ele>197</ele>
        <time>2018-08-02T08:44:45Z</time>
      </trkpt>
      <trkpt lat="45.85642" lon="4.69609">
        <ele>197</ele>
        <time>2018-08-02T08:44:46Z</time>
      </trkpt>
      <trkpt lat="45.85639" lon="4.69601">
        <ele>197</ele>
        <time>2018-08-02T08:44:47Z</time>
      </trkpt>
      <trkpt lat="45.85639" lon="4.69594">
        <ele>197</ele>
        <time>2018-08-02T08:44:48Z</time>
      </trkpt>
      <trkpt lat="45.85639" lon="4.69585">
        <ele>197</ele>
        <time>2018-08-02T08:44:49Z</time>
      </trkpt>
      <trkpt lat="45.85639" lon="4.69578">
        <ele>198</ele>
        <time>2018-08-02T08:44:50Z</time>
      </trkpt>
      <trkpt lat="45.85638" lon="4.69571">
        <ele>198</ele>
        <time>2018-08-02T08:44:51Z</time>
      </trkpt>
      <trkpt lat="45.85638" lon="4.69559">
        <ele>198</ele>
        <time>2018-08-02T08:44:53Z</time>
      </trkpt>
      <trkpt lat="45.85637" lon="4.69553">
        <ele>198</ele>
        <time>2018-08-02T08:44:54Z</time>
      </trkpt>
      <trkpt lat="45.85635" lon="4.69541">
        <ele>198</ele>
        <time>2018-08-02T08:44:56Z</time>
      </trkpt>
      <trkpt lat="45.85635" lon="4.69536">
        <ele>198</ele>
        <time>2018-08-02T08:44:57Z</time>
      </trkpt>
      <trkpt lat="45.85634" lon="4.6953">
        <ele>198</ele>
        <time>2018-08-02T08:44:58Z</time>
      </trkpt>
      <trkpt lat="45.85635" lon="4.69523">
        <ele>198</ele>
        <time>2018-08-02T08:44:59Z</time>
      </trkpt>
      <trkpt lat="45.85633" lon="4.69515">
        <ele>198</ele>
        <time>2018-08-02T08:45:00Z</time>
      </trkpt>
      <trkpt lat="45.85632" lon="4.69508">
        <ele>198</ele>
        <time>2018-08-02T08:45:01Z</time>
      </trkpt>
      <trkpt lat="45.8563" lon="4.69499">
        <ele>198</ele>
        <time>2018-08-02T08:45:02Z</time>
      </trkpt>
      <trkpt lat="45.8563" lon="4.69492">
        <ele>198</ele>
        <time>2018-08-02T08:45:03Z</time>
      </trkpt>
      <trkpt lat="45.85629" lon="4.69483">
        <ele>198</ele>
        <time>2018-08-02T08:45:04Z</time>
      </trkpt>
      <trkpt lat="45.85629" lon="4.69476">
        <ele>198</ele>
        <time>2018-08-02T08:45:05Z</time>
      </trkpt>
      <trkpt lat="45.85629" lon="4.69469">
        <ele>198</ele>
        <time>2018-08-02T08:45:06Z</time>
      </trkpt>
      <trkpt lat="45.85629" lon="4.69462">
        <ele>198</ele>
        <time>2018-08-02T08:45:07Z</time>
      </trkpt>
      <trkpt lat="45.8563" lon="4.69455">
        <ele>198</ele>
        <time>2018-08-02T08:45:08Z</time>
      </trkpt>
      <trkpt lat="45.85627" lon="4.69447">
        <ele>198</ele>
        <time>2018-08-02T08:45:09Z</time>
      </trkpt>
      <trkpt lat="45.85626" lon="4.69437">
        <ele>198</ele>
        <time>2018-08-02T08:45:10Z</time>
      </trkpt>
      <trkpt lat="45.85625" lon="4.69429">
        <ele>198</ele>
        <time>2018-08-02T08:45:11Z</time>
      </trkpt>
      <trkpt lat="45.85624" lon="4.69421">
        <ele>198</ele>
        <time>2018-08-02T08:45:12Z</time>
      </trkpt>
      <trkpt lat="45.85623" lon="4.69413">
        <ele>198</ele>
        <time>2018-08-02T08:45:13Z</time>
      </trkpt>
      <trkpt lat="45.85622" lon="4.69405">
        <ele>198</ele>
        <time>2018-08-02T08:45:14Z</time>
      </trkpt>
      <trkpt lat="45.85622" lon="4.69397">
        <ele>198</ele>
        <time>2018-08-02T08:45:15Z</time>
      </trkpt>
      <trkpt lat="45.85621" lon="4.69388">
        <ele>198</ele>
        <time>2018-08-02T08:45:16Z</time>
      </trkpt>
      <trkpt lat="45.8562" lon="4.69381">
        <ele>198</ele>
        <time>2018-08-02T08:45:17Z</time>
      </trkpt>
      <trkpt lat="45.8562" lon="4.69374">
        <ele>198</ele>
        <time>2018-08-02T08:45:18Z</time>
      </trkpt>
      <trkpt lat="45.85619" lon="4.69367">
        <ele>198</ele>
        <time>2018-08-02T08:45:19Z</time>
      </trkpt>
      <trkpt lat="45.85619" lon="4.6936">
        <ele>198</ele>
        <time>2018-08-02T08:45:20Z</time>
      </trkpt>
      <trkpt lat="45.85618" lon="4.69352">
        <ele>198</ele>
        <time>2018-08-02T08:45:21Z</time>
      </trkpt>
      <trkpt lat="45.85618" lon="4.69346">
        <ele>198</ele>
        <time>2018-08-02T08:45:22Z</time>
      </trkpt>
      <trkpt lat="45.85616" lon="4.69339">
        <ele>198</ele>
        <time>2018-08-02T08:45:23Z</time>
      </trkpt>
      <trkpt lat="45.85616" lon="4.69332">
        <ele>198</ele>
        <time>2018-08-02T08:45:24Z</time>
      </trkpt>
      <trkpt lat="45.85616" lon="4.69325">
        <ele>198</ele>
        <time>2018-08-02T08:45:25Z</time>
      </trkpt>
      <trkpt lat="45.85615" lon="4.69317">
        <ele>198</ele>
        <time>2018-08-02T08:45:26Z</time>
      </trkpt>
      <trkpt lat="45.85614" lon="4.69309">
        <ele>198</ele>
        <time>2018-08-02T08:45:27Z</time>
      </trkpt>
      <trkpt lat="45.85614" lon="4.69302">
        <ele>198</ele>
        <time>2018-08-02T08:45:28Z</time>
      </trkpt>
      <trkpt lat="45.85613" lon="4.69294">
        <ele>198</ele>
        <time>2018-08-02T08:45:29Z</time>
      </trkpt>
      <trkpt lat="45.85612" lon="4.69284">
        <ele>198</ele>
        <time>2018-08-02T08:45:30Z</time>
      </trkpt>
      <trkpt lat="45.85614" lon="4.69275">
        <ele>198</ele>
        <time>2018-08-02T08:45:31Z</time>
      </trkpt>
      <trkpt lat="45.85614" lon="4.69267">
        <ele>198</ele>
        <time>2018-08-02T08:45:32Z</time>
      </trkpt>
      <trkpt lat="45.85613" lon="4.6926">
        <ele>198</ele>
        <time>2018-08-02T08:45:33Z</time>
      </trkpt>
      <trkpt lat="45.85612" lon="4.69251">
        <ele>198</ele>
        <time>2018-08-02T08:45:34Z</time>
      </trkpt>
      <trkpt lat="45.85609" lon="4.69242">
        <ele>199</ele>
        <time>2018-08-02T08:45:35Z</time>
      </trkpt>
      <trkpt lat="45.85607" lon="4.69234">
        <ele>199</ele>
        <time>2018-08-02T08:45:36Z</time>
      </trkpt>
      <trkpt lat="45.85605" lon="4.69227">
        <ele>199</ele>
        <time>2018-08-02T08:45:37Z</time>
      </trkpt>
      <trkpt lat="45.85604" lon="4.69219">
        <ele>199</ele>
        <time>2018-08-02T08:45:38Z</time>
      </trkpt>
      <trkpt lat="45.85604" lon="4.6921">
        <ele>199</ele>
        <time>2018-08-02T08:45:39Z</time>
      </trkpt>
      <trkpt lat="45.85603" lon="4.69203">
        <ele>199</ele>
        <time>2018-08-02T08:45:40Z</time>
      </trkpt>
      <trkpt lat="45.85601" lon="4.69196">
        <ele>199</ele>
        <time>2018-08-02T08:45:41Z</time>
      </trkpt>
      <trkpt lat="45.85601" lon="4.69189">
        <ele>199</ele>
        <time>2018-08-02T08:45:42Z</time>
      </trkpt>
      <trkpt lat="45.85601" lon="4.69182">
        <ele>199</ele>
        <time>2018-08-02T08:45:43Z</time>
      </trkpt>
      <trkpt lat="45.85601" lon="4.69174">
        <ele>199</ele>
        <time>2018-08-02T08:45:44Z</time>
      </trkpt>
      <trkpt lat="45.85602" lon="4.69167">
        <ele>199</ele>
        <time>2018-08-02T08:45:45Z</time>
      </trkpt>
      <trkpt lat="45.856" lon="4.69159">
        <ele>199</ele>
        <time>2018-08-02T08:45:46Z</time>
      </trkpt>
      <trkpt lat="45.85599" lon="4.69151">
        <ele>199</ele>
        <time>2018-08-02T08:45:47Z</time>
      </trkpt>
      <trkpt lat="45.85599" lon="4.69143">
        <ele>199</ele>
        <time>2018-08-02T08:45:48Z</time>
      </trkpt>
      <trkpt lat="45.85598" lon="4.69135">
        <ele>198</ele>
        <time>2018-08-02T08:45:49Z</time>
      </trkpt>
      <trkpt lat="45.85597" lon="4.69127">
        <ele>198</ele>
        <time>2018-08-02T08:45:50Z</time>
      </trkpt>
      <trkpt lat="45.85596" lon="4.69119">
        <ele>198</ele>
        <time>2018-08-02T08:45:51Z</time>
      </trkpt>
      <trkpt lat="45.85595" lon="4.69111">
        <ele>199</ele>
        <time>2018-08-02T08:45:52Z</time>
      </trkpt>
      <trkpt lat="45.85595" lon="4.69104">
        <ele>199</ele>
        <time>2018-08-02T08:45:53Z</time>
      </trkpt>
      <trkpt lat="45.85596" lon="4.69092">
        <ele>199</ele>
        <time>2018-08-02T08:45:55Z</time>
      </trkpt>
      <trkpt lat="45.85597" lon="4.69086">
        <ele>199</ele>
        <time>2018-08-02T08:45:56Z</time>
      </trkpt>
      <trkpt lat="45.85595" lon="4.69079">
        <ele>199</ele>
        <time>2018-08-02T08:45:57Z</time>
      </trkpt>
      <trkpt lat="45.85591" lon="4.69071">
        <ele>199</ele>
        <time>2018-08-02T08:45:58Z</time>
      </trkpt>
      <trkpt lat="45.85591" lon="4.69063">
        <ele>199</ele>
        <time>2018-08-02T08:45:59Z</time>
      </trkpt>
      <trkpt lat="45.85591" lon="4.69055">
        <ele>199</ele>
        <time>2018-08-02T08:46:00Z</time>
      </trkpt>
      <trkpt lat="45.8559" lon="4.69046">
        <ele>199</ele>
        <time>2018-08-02T08:46:01Z</time>
      </trkpt>
      <trkpt lat="45.85588" lon="4.69036">
        <ele>199</ele>
        <time>2018-08-02T08:46:02Z</time>
      </trkpt>
      <trkpt lat="45.85587" lon="4.69026">
        <ele>199</ele>
        <time>2018-08-02T08:46:03Z</time>
      </trkpt>
      <trkpt lat="45.85585" lon="4.69018">
        <ele>199</ele>
        <time>2018-08-02T08:46:04Z</time>
      </trkpt>
      <trkpt lat="45.85585" lon="4.6901">
        <ele>200</ele>
        <time>2018-08-02T08:46:05Z</time>
      </trkpt>
      <trkpt lat="45.85584" lon="4.69001">
        <ele>200</ele>
        <time>2018-08-02T08:46:06Z</time>
      </trkpt>
      <trkpt lat="45.85584" lon="4.68993">
        <ele>200</ele>
        <time>2018-08-02T08:46:07Z</time>
      </trkpt>
      <trkpt lat="45.85583" lon="4.68985">
        <ele>200</ele>
        <time>2018-08-02T08:46:08Z</time>
      </trkpt>
      <trkpt lat="45.85583" lon="4.68977">
        <ele>200</ele>
        <time>2018-08-02T08:46:09Z</time>
      </trkpt>
      <trkpt lat="45.85582" lon="4.68969">
        <ele>200</ele>
        <time>2018-08-02T08:46:10Z</time>
      </trkpt>
      <trkpt lat="45.85582" lon="4.68962">
        <ele>200</ele>
        <time>2018-08-02T08:46:11Z</time>
      </trkpt>
      <trkpt lat="45.85581" lon="4.68955">
        <ele>200</ele>
        <time>2018-08-02T08:46:12Z</time>
      </trkpt>
      <trkpt lat="45.85579" lon="4.68947">
        <ele>200</ele>
        <time>2018-08-02T08:46:13Z</time>
      </trkpt>
      <trkpt lat="45.85578" lon="4.6894">
        <ele>200</ele>
        <time>2018-08-02T08:46:14Z</time>
      </trkpt>
      <trkpt lat="45.85576" lon="4.68932">
        <ele>200</ele>
        <time>2018-08-02T08:46:15Z</time>
      </trkpt>
      <trkpt lat="45.85575" lon="4.68924">
        <ele>200</ele>
        <time>2018-08-02T08:46:16Z</time>
      </trkpt>
      <trkpt lat="45.85576" lon="4.68917">
        <ele>200</ele>
        <time>2018-08-02T08:46:17Z</time>
      </trkpt>
      <trkpt lat="45.85576" lon="4.68909">
        <ele>200</ele>
        <time>2018-08-02T08:46:18Z</time>
      </trkpt>
      <trkpt lat="45.85578" lon="4.68901">
        <ele>200</ele>
        <time>2018-08-02T08:46:19Z</time>
      </trkpt>
      <trkpt lat="45.85577" lon="4.68893">
        <ele>200</ele>
        <time>2018-08-02T08:46:20Z</time>
      </trkpt>
      <trkpt lat="45.85575" lon="4.68884">
        <ele>200</ele>
        <time>2018-08-02T08:46:21Z</time>
      </trkpt>
      <trkpt lat="45.85573" lon="4.68874">
        <ele>200</ele>
        <time>2018-08-02T08:46:22Z</time>
      </trkpt>
      <trkpt lat="45.85574" lon="4.68866">
        <ele>200</ele>
        <time>2018-08-02T08:46:23Z</time>
      </trkpt>
      <trkpt lat="45.85574" lon="4.68857">
        <ele>200</ele>
        <time>2018-08-02T08:46:24Z</time>
      </trkpt>
      <trkpt lat="45.85572" lon="4.68844">
        <ele>200</ele>
        <time>2018-08-02T08:46:25Z</time>
      </trkpt>
      <trkpt lat="45.85571" lon="4.68835">
        <ele>200</ele>
        <time>2018-08-02T08:46:26Z</time>
      </trkpt>
      <trkpt lat="45.8557" lon="4.68827">
        <ele>200</ele>
        <time>2018-08-02T08:46:27Z</time>
      </trkpt>
      <trkpt lat="45.8557" lon="4.68817">
        <ele>200</ele>
        <time>2018-08-02T08:46:28Z</time>
      </trkpt>
      <trkpt lat="45.85569" lon="4.68809">
        <ele>200</ele>
        <time>2018-08-02T08:46:29Z</time>
      </trkpt>
      <trkpt lat="45.85569" lon="4.68801">
        <ele>200</ele>
        <time>2018-08-02T08:46:30Z</time>
      </trkpt>
      <trkpt lat="45.85568" lon="4.68792">
        <ele>200</ele>
        <time>2018-08-02T08:46:31Z</time>
      </trkpt>
      <trkpt lat="45.85569" lon="4.68785">
        <ele>200</ele>
        <time>2018-08-02T08:46:32Z</time>
      </trkpt>
      <trkpt lat="45.85568" lon="4.68777">
        <ele>200</ele>
        <time>2018-08-02T08:46:33Z</time>
      </trkpt>
      <trkpt lat="45.85566" lon="4.68767">
        <ele>200</ele>
        <time>2018-08-02T08:46:34Z</time>
      </trkpt>
      <trkpt lat="45.85566" lon="4.68759">
        <ele>200</ele>
        <time>2018-08-02T08:46:35Z</time>
      </trkpt>
      <trkpt lat="45.85566" lon="4.68751">
        <ele>200</ele>
        <time>2018-08-02T08:46:36Z</time>
      </trkpt>
      <trkpt lat="45.85564" lon="4.68742">
        <ele>200</ele>
        <time>2018-08-02T08:46:37Z</time>
      </trkpt>
      <trkpt lat="45.85563" lon="4.68735">
        <ele>200</ele>
        <time>2018-08-02T08:46:38Z</time>
      </trkpt>
      <trkpt lat="45.85561" lon="4.68727">
        <ele>200</ele>
        <time>2018-08-02T08:46:39Z</time>
      </trkpt>
      <trkpt lat="45.8556" lon="4.68719">
        <ele>200</ele>
        <time>2018-08-02T08:46:40Z</time>
      </trkpt>
      <trkpt lat="45.85558" lon="4.68711">
        <ele>200</ele>
        <time>2018-08-02T08:46:41Z</time>
      </trkpt>
      <trkpt lat="45.85557" lon="4.68702">
        <ele>200</ele>
        <time>2018-08-02T08:46:42Z</time>
      </trkpt>
      <trkpt lat="45.85556" lon="4.68694">
        <ele>200</ele>
        <time>2018-08-02T08:46:43Z</time>
      </trkpt>
      <trkpt lat="45.85556" lon="4.68685">
        <ele>200</ele>
        <time>2018-08-02T08:46:44Z</time>
      </trkpt>
      <trkpt lat="45.85556" lon="4.68676">
        <ele>200</ele>
        <time>2018-08-02T08:46:45Z</time>
      </trkpt>
      <trkpt lat="45.85556" lon="4.68668">
        <ele>200</ele>
        <time>2018-08-02T08:46:46Z</time>
      </trkpt>
      <trkpt lat="45.85555" lon="4.68659">
        <ele>200</ele>
        <time>2018-08-02T08:46:47Z</time>
      </trkpt>
      <trkpt lat="45.85554" lon="4.6865">
        <ele>201</ele>
        <time>2018-08-02T08:46:48Z</time>
      </trkpt>
      <trkpt lat="45.85554" lon="4.68642">
        <ele>201</ele>
        <time>2018-08-02T08:46:49Z</time>
      </trkpt>
      <trkpt lat="45.85552" lon="4.68634">
        <ele>201</ele>
        <time>2018-08-02T08:46:50Z</time>
      </trkpt>
      <trkpt lat="45.85551" lon="4.68627">
        <ele>201</ele>
        <time>2018-08-02T08:46:51Z</time>
      </trkpt>
      <trkpt lat="45.85552" lon="4.6862">
        <ele>201</ele>
        <time>2018-08-02T08:46:52Z</time>
      </trkpt>
      <trkpt lat="45.8555" lon="4.68613">
        <ele>201</ele>
        <time>2018-08-02T08:46:53Z</time>
      </trkpt>
      <trkpt lat="45.8555" lon="4.68605">
        <ele>201</ele>
        <time>2018-08-02T08:46:54Z</time>
      </trkpt>
      <trkpt lat="45.85549" lon="4.68597">
        <ele>201</ele>
        <time>2018-08-02T08:46:55Z</time>
      </trkpt>
      <trkpt lat="45.85548" lon="4.68589">
        <ele>201</ele>
        <time>2018-08-02T08:46:56Z</time>
      </trkpt>
      <trkpt lat="45.85546" lon="4.68581">
        <ele>201</ele>
        <time>2018-08-02T08:46:57Z</time>
      </trkpt>
      <trkpt lat="45.85545" lon="4.68571">
        <ele>201</ele>
        <time>2018-08-02T08:46:58Z</time>
      </trkpt>
      <trkpt lat="45.85544" lon="4.68561">
        <ele>201</ele>
        <time>2018-08-02T08:46:59Z</time>
      </trkpt>
      <trkpt lat="45.85545" lon="4.68552">
        <ele>201</ele>
        <time>2018-08-02T08:47:00Z</time>
      </trkpt>
      <trkpt lat="45.85544" lon="4.68542">
        <ele>201</ele>
        <time>2018-08-02T08:47:01Z</time>
      </trkpt>
      <trkpt lat="45.85543" lon="4.68533">
        <ele>201</ele>
        <time>2018-08-02T08:47:02Z</time>
      </trkpt>
      <trkpt lat="45.85542" lon="4.68524">
        <ele>201</ele>
        <time>2018-08-02T08:47:03Z</time>
      </trkpt>
      <trkpt lat="45.85541" lon="4.68516">
        <ele>201</ele>
        <time>2018-08-02T08:47:04Z</time>
      </trkpt>
      <trkpt lat="45.85539" lon="4.68508">
        <ele>201</ele>
        <time>2018-08-02T08:47:05Z</time>
      </trkpt>
      <trkpt lat="45.85538" lon="4.685">
        <ele>200</ele>
        <time>2018-08-02T08:47:06Z</time>
      </trkpt>
      <trkpt lat="45.85537" lon="4.68493">
        <ele>200</ele>
        <time>2018-08-02T08:47:07Z</time>
      </trkpt>
      <trkpt lat="45.85537" lon="4.68484">
        <ele>200</ele>
        <time>2018-08-02T08:47:08Z</time>
      </trkpt>
      <trkpt lat="45.85536" lon="4.68471">
        <ele>200</ele>
        <time>2018-08-02T08:47:10Z</time>
      </trkpt>
      <trkpt lat="45.85534" lon="4.68463">
        <ele>200</ele>
        <time>2018-08-02T08:47:11Z</time>
      </trkpt>
      <trkpt lat="45.85533" lon="4.68454">
        <ele>200</ele>
        <time>2018-08-02T08:47:12Z</time>
      </trkpt>
      <trkpt lat="45.85533" lon="4.68445">
        <ele>200</ele>
        <time>2018-08-02T08:47:13Z</time>
      </trkpt>
      <trkpt lat="45.8553" lon="4.68436">
        <ele>200</ele>
        <time>2018-08-02T08:47:14Z</time>
      </trkpt>
      <trkpt lat="45.85531" lon="4.68428">
        <ele>200</ele>
        <time>2018-08-02T08:47:15Z</time>
      </trkpt>
      <trkpt lat="45.8553" lon="4.68419">
        <ele>200</ele>
        <time>2018-08-02T08:47:16Z</time>
      </trkpt>
      <trkpt lat="45.85529" lon="4.68411">
        <ele>200</ele>
        <time>2018-08-02T08:47:17Z</time>
      </trkpt>
      <trkpt lat="45.85528" lon="4.68402">
        <ele>200</ele>
        <time>2018-08-02T08:47:18Z</time>
      </trkpt>
      <trkpt lat="45.85529" lon="4.68392">
        <ele>200</ele>
        <time>2018-08-02T08:47:19Z</time>
      </trkpt>
      <trkpt lat="45.85528" lon="4.68383">
        <ele>200</ele>
        <time>2018-08-02T08:47:20Z</time>
      </trkpt>
      <trkpt lat="45.85528" lon="4.68374">
        <ele>201</ele>
        <time>2018-08-02T08:47:21Z</time>
      </trkpt>
      <trkpt lat="45.85527" lon="4.68366">
        <ele>201</ele>
        <time>2018-08-02T08:47:22Z</time>
      </trkpt>
      <trkpt lat="45.85525" lon="4.68358">
        <ele>201</ele>
        <time>2018-08-02T08:47:23Z</time>
      </trkpt>
      <trkpt lat="45.85524" lon="4.68349">
        <ele>201</ele>
        <time>2018-08-02T08:47:24Z</time>
      </trkpt>
      <trkpt lat="45.85523" lon="4.68341">
        <ele>201</ele>
        <time>2018-08-02T08:47:25Z</time>
      </trkpt>
      <trkpt lat="45.85523" lon="4.68333">
        <ele>202</ele>
        <time>2018-08-02T08:47:26Z</time>
      </trkpt>
      <trkpt lat="45.85522" lon="4.68326">
        <ele>202</ele>
        <time>2018-08-02T08:47:27Z</time>
      </trkpt>
      <trkpt lat="45.85522" lon="4.68319">
        <ele>202</ele>
        <time>2018-08-02T08:47:28Z</time>
      </trkpt>
      <trkpt lat="45.85522" lon="4.68311">
        <ele>202</ele>
        <time>2018-08-02T08:47:29Z</time>
      </trkpt>
      <trkpt lat="45.85521" lon="4.68305">
        <ele>202</ele>
        <time>2018-08-02T08:47:30Z</time>
      </trkpt>
      <trkpt lat="45.85519" lon="4.68298">
        <ele>202</ele>
        <time>2018-08-02T08:47:31Z</time>
      </trkpt>
      <trkpt lat="45.85518" lon="4.6829">
        <ele>202</ele>
        <time>2018-08-02T08:47:32Z</time>
      </trkpt>
      <trkpt lat="45.85515" lon="4.68282">
        <ele>202</ele>
        <time>2018-08-02T08:47:33Z</time>
      </trkpt>
      <trkpt lat="45.85515" lon="4.68273">
        <ele>202</ele>
        <time>2018-08-02T08:47:34Z</time>
      </trkpt>
      <trkpt lat="45.85516" lon="4.68264">
        <ele>202</ele>
        <time>2018-08-02T08:47:35Z</time>
      </trkpt>
      <trkpt lat="45.85514" lon="4.68255">
        <ele>203</ele>
        <time>2018-08-02T08:47:36Z</time>
      </trkpt>
      <trkpt lat="45.85513" lon="4.68248">
        <ele>203</ele>
        <time>2018-08-02T08:47:37Z</time>
      </trkpt>
      <trkpt lat="45.85512" lon="4.6824">
        <ele>203</ele>
        <time>2018-08-02T08:47:38Z</time>
      </trkpt>
      <trkpt lat="45.85511" lon="4.68232">
        <ele>203</ele>
        <time>2018-08-02T08:47:39Z</time>
      </trkpt>
      <trkpt lat="45.85511" lon="4.68224">
        <ele>203</ele>
        <time>2018-08-02T08:47:40Z</time>
      </trkpt>
      <trkpt lat="45.8551" lon="4.68216">
        <ele>203</ele>
        <time>2018-08-02T08:47:41Z</time>
      </trkpt>
      <trkpt lat="45.85509" lon="4.68207">
        <ele>203</ele>
        <time>2018-08-02T08:47:42Z</time>
      </trkpt>
      <trkpt lat="45.85508" lon="4.682">
        <ele>203</ele>
        <time>2018-08-02T08:47:43Z</time>
      </trkpt>
      <trkpt lat="45.85507" lon="4.68193">
        <ele>203</ele>
        <time>2018-08-02T08:47:44Z</time>
      </trkpt>
      <trkpt lat="45.85505" lon="4.68184">
        <ele>203</ele>
        <time>2018-08-02T08:47:45Z</time>
      </trkpt>
      <trkpt lat="45.85505" lon="4.68177">
        <ele>204</ele>
        <time>2018-08-02T08:47:46Z</time>
      </trkpt>
      <trkpt lat="45.85505" lon="4.68168">
        <ele>204</ele>
        <time>2018-08-02T08:47:47Z</time>
      </trkpt>
      <trkpt lat="45.85504" lon="4.68161">
        <ele>204</ele>
        <time>2018-08-02T08:47:48Z</time>
      </trkpt>
      <trkpt lat="45.85503" lon="4.68152">
        <ele>203</ele>
        <time>2018-08-02T08:47:49Z</time>
      </trkpt>
      <trkpt lat="45.85503" lon="4.68146">
        <ele>203</ele>
        <time>2018-08-02T08:47:50Z</time>
      </trkpt>
      <trkpt lat="45.85504" lon="4.68139">
        <ele>203</ele>
        <time>2018-08-02T08:47:51Z</time>
      </trkpt>
      <trkpt lat="45.85503" lon="4.68131">
        <ele>203</ele>
        <time>2018-08-02T08:47:52Z</time>
      </trkpt>
      <trkpt lat="45.85501" lon="4.68125">
        <ele>203</ele>
        <time>2018-08-02T08:47:53Z</time>
      </trkpt>
      <trkpt lat="45.855" lon="4.68116">
        <ele>203</ele>
        <time>2018-08-02T08:47:54Z</time>
      </trkpt>
      <trkpt lat="45.85499" lon="4.68108">
        <ele>204</ele>
        <time>2018-08-02T08:47:55Z</time>
      </trkpt>
      <trkpt lat="45.855" lon="4.68101">
        <ele>204</ele>
        <time>2018-08-02T08:47:56Z</time>
      </trkpt>
      <trkpt lat="45.85499" lon="4.68094">
        <ele>204</ele>
        <time>2018-08-02T08:47:57Z</time>
      </trkpt>
      <trkpt lat="45.85498" lon="4.68086">
        <ele>204</ele>
        <time>2018-08-02T08:47:58Z</time>
      </trkpt>
      <trkpt lat="45.85498" lon="4.68079">
        <ele>205</ele>
        <time>2018-08-02T08:47:59Z</time>
      </trkpt>
      <trkpt lat="45.85497" lon="4.68073">
        <ele>205</ele>
        <time>2018-08-02T08:48:00Z</time>
      </trkpt>
      <trkpt lat="45.85496" lon="4.68066">
        <ele>206</ele>
        <time>2018-08-02T08:48:01Z</time>
      </trkpt>
      <trkpt lat="45.85495" lon="4.68059">
        <ele>206</ele>
        <time>2018-08-02T08:48:02Z</time>
      </trkpt>
      <trkpt lat="45.85495" lon="4.68053">
        <ele>206</ele>
        <time>2018-08-02T08:48:03Z</time>
      </trkpt>
      <trkpt lat="45.85495" lon="4.68046">
        <ele>206</ele>
        <time>2018-08-02T08:48:04Z</time>
      </trkpt>
      <trkpt lat="45.85495" lon="4.68039">
        <ele>206</ele>
        <time>2018-08-02T08:48:05Z</time>
      </trkpt>
      <trkpt lat="45.85495" lon="4.68031">
        <ele>207</ele>
        <time>2018-08-02T08:48:07Z</time>
      </trkpt>
      <trkpt lat="45.85495" lon="4.68023">
        <ele>207</ele>
        <time>2018-08-02T08:48:08Z</time>
      </trkpt>
      <trkpt lat="45.85495" lon="4.68011">
        <ele>206</ele>
        <time>2018-08-02T08:48:10Z</time>
      </trkpt>
      <trkpt lat="45.85497" lon="4.68006">
        <ele>206</ele>
        <time>2018-08-02T08:48:11Z</time>
      </trkpt>
      <trkpt lat="45.85499" lon="4.67999">
        <ele>206</ele>
        <time>2018-08-02T08:48:12Z</time>
      </trkpt>
      <trkpt lat="45.85503" lon="4.67994">
        <ele>206</ele>
        <time>2018-08-02T08:48:13Z</time>
      </trkpt>
      <trkpt lat="45.85508" lon="4.67988">
        <ele>206</ele>
        <time>2018-08-02T08:48:14Z</time>
      </trkpt>
      <trkpt lat="45.85511" lon="4.67983">
        <ele>206</ele>
        <time>2018-08-02T08:48:15Z</time>
      </trkpt>
      <trkpt lat="45.85517" lon="4.67976">
        <ele>206</ele>
        <time>2018-08-02T08:48:16Z</time>
      </trkpt>
      <trkpt lat="45.85522" lon="4.67971">
        <ele>206</ele>
        <time>2018-08-02T08:48:17Z</time>
      </trkpt>
      <trkpt lat="45.85527" lon="4.67966">
        <ele>206</ele>
        <time>2018-08-02T08:48:18Z</time>
      </trkpt>
      <trkpt lat="45.85533" lon="4.67962">
        <ele>205</ele>
        <time>2018-08-02T08:48:19Z</time>
      </trkpt>
      <trkpt lat="45.85538" lon="4.67957">
        <ele>205</ele>
        <time>2018-08-02T08:48:20Z</time>
      </trkpt>
      <trkpt lat="45.85544" lon="4.67951">
        <ele>205</ele>
        <time>2018-08-02T08:48:21Z</time>
      </trkpt>
      <trkpt lat="45.85548" lon="4.67947">
        <ele>205</ele>
        <time>2018-08-02T08:48:22Z</time>
      </trkpt>
      <trkpt lat="45.85553" lon="4.67944">
        <ele>205</ele>
        <time>2018-08-02T08:48:23Z</time>
      </trkpt>
      <trkpt lat="45.8556" lon="4.67937">
        <ele>205</ele>
        <time>2018-08-02T08:48:25Z</time>
      </trkpt>
      <trkpt lat="45.85562" lon="4.67936">
        <ele>205</ele>
        <time>2018-08-02T08:48:26Z</time>
      </trkpt>
      <trkpt lat="45.85565" lon="4.67933">
        <ele>205</ele>
        <time>2018-08-02T08:48:28Z</time>
      </trkpt>
      <trkpt lat="45.8557" lon="4.6793">
        <ele>205</ele>
        <time>2018-08-02T08:48:29Z</time>
      </trkpt>
      <trkpt lat="45.85576" lon="4.67923">
        <ele>204</ele>
        <time>2018-08-02T08:48:31Z</time>
      </trkpt>
      <trkpt lat="45.85578" lon="4.67916">
        <ele>205</ele>
        <time>2018-08-02T08:48:32Z</time>
      </trkpt>
      <trkpt lat="45.85577" lon="4.67906">
        <ele>205</ele>
        <time>2018-08-02T08:48:34Z</time>
      </trkpt>
      <trkpt lat="45.85575" lon="4.67899">
        <ele>206</ele>
        <time>2018-08-02T08:48:35Z</time>
      </trkpt>
      <trkpt lat="45.85575" lon="4.67892">
        <ele>206</ele>
        <time>2018-08-02T08:48:36Z</time>
      </trkpt>
      <trkpt lat="45.85575" lon="4.67883">
        <ele>206</ele>
        <time>2018-08-02T08:48:37Z</time>
      </trkpt>
      <trkpt lat="45.85575" lon="4.67874">
        <ele>206</ele>
        <time>2018-08-02T08:48:38Z</time>
      </trkpt>
      <trkpt lat="45.85575" lon="4.67865">
        <ele>207</ele>
        <time>2018-08-02T08:48:39Z</time>
      </trkpt>
      <trkpt lat="45.85575" lon="4.67858">
        <ele>206</ele>
        <time>2018-08-02T08:48:40Z</time>
      </trkpt>
      <trkpt lat="45.85574" lon="4.6785">
        <ele>206</ele>
        <time>2018-08-02T08:48:41Z</time>
      </trkpt>
      <trkpt lat="45.85575" lon="4.67839">
        <ele>206</ele>
        <time>2018-08-02T08:48:42Z</time>
      </trkpt>
      <trkpt lat="45.85576" lon="4.67831">
        <ele>206</ele>
        <time>2018-08-02T08:48:43Z</time>
      </trkpt>
      <trkpt lat="45.85578" lon="4.67822">
        <ele>206</ele>
        <time>2018-08-02T08:48:44Z</time>
      </trkpt>
      <trkpt lat="45.85579" lon="4.67815">
        <ele>206</ele>
        <time>2018-08-02T08:48:45Z</time>
      </trkpt>
      <trkpt lat="45.8558" lon="4.67807">
        <ele>206</ele>
        <time>2018-08-02T08:48:46Z</time>
      </trkpt>
      <trkpt lat="45.85582" lon="4.67801">
        <ele>206</ele>
        <time>2018-08-02T08:48:47Z</time>
      </trkpt>
      <trkpt lat="45.85584" lon="4.67794">
        <ele>209</ele>
        <time>2018-08-02T08:48:48Z</time>
      </trkpt>
      <trkpt lat="45.85588" lon="4.67788">
        <ele>210</ele>
        <time>2018-08-02T08:48:49Z</time>
      </trkpt>
      <trkpt lat="45.8559" lon="4.67778">
        <ele>209</ele>
        <time>2018-08-02T08:48:50Z</time>
      </trkpt>
      <trkpt lat="45.85593" lon="4.67772">
        <ele>209</ele>
        <time>2018-08-02T08:48:51Z</time>
      </trkpt>
      <trkpt lat="45.85596" lon="4.67765">
        <ele>208</ele>
        <time>2018-08-02T08:48:52Z</time>
      </trkpt>
      <trkpt lat="45.85601" lon="4.67757">
        <ele>208</ele>
        <time>2018-08-02T08:48:53Z</time>
      </trkpt>
      <trkpt lat="45.85603" lon="4.6775">
        <ele>207</ele>
        <time>2018-08-02T08:48:54Z</time>
      </trkpt>
      <trkpt lat="45.85606" lon="4.67743">
        <ele>207</ele>
        <time>2018-08-02T08:48:55Z</time>
      </trkpt>
      <trkpt lat="45.85608" lon="4.67736">
        <ele>208</ele>
        <time>2018-08-02T08:48:56Z</time>
      </trkpt>
      <trkpt lat="45.85612" lon="4.6773">
        <ele>208</ele>
        <time>2018-08-02T08:48:57Z</time>
      </trkpt>
      <trkpt lat="45.85615" lon="4.67725">
        <ele>209</ele>
        <time>2018-08-02T08:48:58Z</time>
      </trkpt>
      <trkpt lat="45.85618" lon="4.67721">
        <ele>209</ele>
        <time>2018-08-02T08:48:59Z</time>
      </trkpt>
      <trkpt lat="45.85623" lon="4.67715">
        <ele>209</ele>
        <time>2018-08-02T08:49:00Z</time>
      </trkpt>
      <trkpt lat="45.85626" lon="4.67711">
        <ele>209</ele>
        <time>2018-08-02T08:49:01Z</time>
      </trkpt>
      <trkpt lat="45.8563" lon="4.67706">
        <ele>209</ele>
        <time>2018-08-02T08:49:02Z</time>
      </trkpt>
      <trkpt lat="45.85634" lon="4.67702">
        <ele>209</ele>
        <time>2018-08-02T08:49:03Z</time>
      </trkpt>
      <trkpt lat="45.85638" lon="4.67697">
        <ele>209</ele>
        <time>2018-08-02T08:49:04Z</time>
      </trkpt>
      <trkpt lat="45.85642" lon="4.67692">
        <ele>209</ele>
        <time>2018-08-02T08:49:05Z</time>
      </trkpt>
      <trkpt lat="45.85646" lon="4.67688">
        <ele>209</ele>
        <time>2018-08-02T08:49:06Z</time>
      </trkpt>
      <trkpt lat="45.8565" lon="4.67686">
        <ele>209</ele>
        <time>2018-08-02T08:49:07Z</time>
      </trkpt>
      <trkpt lat="45.85655" lon="4.67681">
        <ele>209</ele>
        <time>2018-08-02T08:49:08Z</time>
      </trkpt>
      <trkpt lat="45.85661" lon="4.67678">
        <ele>209</ele>
        <time>2018-08-02T08:49:09Z</time>
      </trkpt>
      <trkpt lat="45.85666" lon="4.67673">
        <ele>209</ele>
        <time>2018-08-02T08:49:10Z</time>
      </trkpt>
      <trkpt lat="45.85673" lon="4.67669">
        <ele>212</ele>
        <time>2018-08-02T08:49:11Z</time>
      </trkpt>
      <trkpt lat="45.85679" lon="4.67665">
        <ele>210</ele>
        <time>2018-08-02T08:49:12Z</time>
      </trkpt>
      <trkpt lat="45.85685" lon="4.67659">
        <ele>210</ele>
        <time>2018-08-02T08:49:13Z</time>
      </trkpt>
      <trkpt lat="45.85691" lon="4.67654">
        <ele>211</ele>
        <time>2018-08-02T08:49:14Z</time>
      </trkpt>
      <trkpt lat="45.85696" lon="4.67653">
        <ele>211</ele>
        <time>2018-08-02T08:49:15Z</time>
      </trkpt>
      <trkpt lat="45.85701" lon="4.67651">
        <ele>211</ele>
        <time>2018-08-02T08:49:16Z</time>
      </trkpt>
      <trkpt lat="45.85708" lon="4.67647">
        <ele>212</ele>
        <time>2018-08-02T08:49:17Z</time>
      </trkpt>
      <trkpt lat="45.85714" lon="4.67643">
        <ele>212</ele>
        <time>2018-08-02T08:49:18Z</time>
      </trkpt>
      <trkpt lat="45.85719" lon="4.67638">
        <ele>212</ele>
        <time>2018-08-02T08:49:19Z</time>
      </trkpt>
      <trkpt lat="45.85724" lon="4.67636">
        <ele>212</ele>
        <time>2018-08-02T08:49:20Z</time>
      </trkpt>
      <trkpt lat="45.85729" lon="4.67634">
        <ele>212</ele>
        <time>2018-08-02T08:49:21Z</time>
      </trkpt>
      <trkpt lat="45.85738" lon="4.67631">
        <ele>212</ele>
        <time>2018-08-02T08:49:23Z</time>
      </trkpt>
      <trkpt lat="45.85742" lon="4.67628">
        <ele>212</ele>
        <time>2018-08-02T08:49:24Z</time>
      </trkpt>
      <trkpt lat="45.85747" lon="4.67625">
        <ele>212</ele>
        <time>2018-08-02T08:49:25Z</time>
      </trkpt>
      <trkpt lat="45.85751" lon="4.67624">
        <ele>219</ele>
        <time>2018-08-02T08:49:26Z</time>
      </trkpt>
      <trkpt lat="45.85755" lon="4.6762">
        <ele>219</ele>
        <time>2018-08-02T08:49:27.565Z</time>
      </trkpt>
      <trkpt lat="45.8576" lon="4.67617">
        <ele>219</ele>
        <time>2018-08-02T08:49:28Z</time>
      </trkpt>
      <trkpt lat="45.85765" lon="4.67612">
        <ele>218</ele>
        <time>2018-08-02T08:49:29Z</time>
      </trkpt>
      <trkpt lat="45.85769" lon="4.67608">
        <ele>218</ele>
        <time>2018-08-02T08:49:30Z</time>
      </trkpt>
      <trkpt lat="45.85774" lon="4.67603">
        <ele>218</ele>
        <time>2018-08-02T08:49:31Z</time>
      </trkpt>
      <trkpt lat="45.85778" lon="4.67599">
        <ele>218</ele>
        <time>2018-08-02T08:49:32Z</time>
      </trkpt>
      <trkpt lat="45.85782" lon="4.67594">
        <ele>218</ele>
        <time>2018-08-02T08:49:33Z</time>
      </trkpt>
      <trkpt lat="45.85786" lon="4.67591">
        <ele>219</ele>
        <time>2018-08-02T08:49:34Z</time>
      </trkpt>
      <trkpt lat="45.85788" lon="4.6759">
        <ele>219</ele>
        <time>2018-08-02T08:49:35Z</time>
      </trkpt>
      <trkpt lat="45.85795" lon="4.67584">
        <ele>220</ele>
        <time>2018-08-02T08:49:36Z</time>
      </trkpt>
      <trkpt lat="45.858" lon="4.67579">
        <ele>212</ele>
        <time>2018-08-02T08:49:37Z</time>
      </trkpt>
      <trkpt lat="45.85804" lon="4.67573">
        <ele>212</ele>
        <time>2018-08-02T08:49:38Z</time>
      </trkpt>
      <trkpt lat="45.85807" lon="4.67567">
        <ele>212</ele>
        <time>2018-08-02T08:49:39Z</time>
      </trkpt>
      <trkpt lat="45.85812" lon="4.67564">
        <ele>213</ele>
        <time>2018-08-02T08:49:40Z</time>
      </trkpt>
      <trkpt lat="45.85818" lon="4.67556">
        <ele>212</ele>
        <time>2018-08-02T08:49:42Z</time>
      </trkpt>
      <trkpt lat="45.85821" lon="4.67553">
        <ele>212</ele>
        <time>2018-08-02T08:49:43Z</time>
      </trkpt>
      <trkpt lat="45.85826" lon="4.67547">
        <ele>212</ele>
        <time>2018-08-02T08:49:44Z</time>
      </trkpt>
      <trkpt lat="45.85829" lon="4.67538">
        <ele>211</ele>
        <time>2018-08-02T08:49:45Z</time>
      </trkpt>
      <trkpt lat="45.85832" lon="4.67533">
        <ele>210</ele>
        <time>2018-08-02T08:49:46Z</time>
      </trkpt>
      <trkpt lat="45.85836" lon="4.67527">
        <ele>219</ele>
        <time>2018-08-02T08:49:47Z</time>
      </trkpt>
      <trkpt lat="45.8584" lon="4.67518">
        <ele>217</ele>
        <time>2018-08-02T08:49:49Z</time>
      </trkpt>
      <trkpt lat="45.85844" lon="4.67511">
        <ele>215</ele>
        <time>2018-08-02T08:49:50Z</time>
      </trkpt>
      <trkpt lat="45.85846" lon="4.67506">
        <ele>215</ele>
        <time>2018-08-02T08:49:51Z</time>
      </trkpt>
      <trkpt lat="45.85852" lon="4.67499">
        <ele>211</ele>
        <time>2018-08-02T08:49:52Z</time>
      </trkpt>
      <trkpt lat="45.85853" lon="4.67492">
        <ele>212</ele>
        <time>2018-08-02T08:49:53Z</time>
      </trkpt>
      <trkpt lat="45.85855" lon="4.67485">
        <ele>213</ele>
        <time>2018-08-02T08:49:54Z</time>
      </trkpt>
      <trkpt lat="45.85859" lon="4.67479">
        <ele>213</ele>
        <time>2018-08-02T08:49:55Z</time>
      </trkpt>
      <trkpt lat="45.85861" lon="4.6747">
        <ele>214</ele>
        <time>2018-08-02T08:49:56Z</time>
      </trkpt>
      <trkpt lat="45.85861" lon="4.67465">
        <ele>214</ele>
        <time>2018-08-02T08:49:57Z</time>
      </trkpt>
      <trkpt lat="45.85862" lon="4.67457">
        <ele>213</ele>
        <time>2018-08-02T08:49:58Z</time>
      </trkpt>
      <trkpt lat="45.85863" lon="4.6745">
        <ele>213</ele>
        <time>2018-08-02T08:49:59Z</time>
      </trkpt>
      <trkpt lat="45.85864" lon="4.67444">
        <ele>213</ele>
        <time>2018-08-02T08:50:00Z</time>
      </trkpt>
      <trkpt lat="45.85865" lon="4.67438">
        <ele>213</ele>
        <time>2018-08-02T08:50:01Z</time>
      </trkpt>
      <trkpt lat="45.85866" lon="4.67431">
        <ele>213</ele>
        <time>2018-08-02T08:50:02Z</time>
      </trkpt>
      <trkpt lat="45.85867" lon="4.67423">
        <ele>213</ele>
        <time>2018-08-02T08:50:03Z</time>
      </trkpt>
      <trkpt lat="45.85867" lon="4.67414">
        <ele>209</ele>
        <time>2018-08-02T08:50:04Z</time>
      </trkpt>
      <trkpt lat="45.85869" lon="4.67406">
        <ele>209</ele>
        <time>2018-08-02T08:50:05Z</time>
      </trkpt>
      <trkpt lat="45.85868" lon="4.67399">
        <ele>209</ele>
        <time>2018-08-02T08:50:06Z</time>
      </trkpt>
      <trkpt lat="45.85869" lon="4.6739">
        <ele>209</ele>
        <time>2018-08-02T08:50:07Z</time>
      </trkpt>
      <trkpt lat="45.85871" lon="4.67381">
        <ele>209</ele>
        <time>2018-08-02T08:50:08Z</time>
      </trkpt>
      <trkpt lat="45.85871" lon="4.6737">
        <ele>209</ele>
        <time>2018-08-02T08:50:09Z</time>
      </trkpt>
      <trkpt lat="45.85872" lon="4.6736">
        <ele>209</ele>
        <time>2018-08-02T08:50:10Z</time>
      </trkpt>
      <trkpt lat="45.85872" lon="4.67352">
        <ele>208</ele>
        <time>2018-08-02T08:50:11Z</time>
      </trkpt>
      <trkpt lat="45.85874" lon="4.67345">
        <ele>208</ele>
        <time>2018-08-02T08:50:12Z</time>
      </trkpt>
      <trkpt lat="45.85876" lon="4.67338">
        <ele>208</ele>
        <time>2018-08-02T08:50:13Z</time>
      </trkpt>
      <trkpt lat="45.85877" lon="4.67328">
        <ele>206</ele>
        <time>2018-08-02T08:50:14Z</time>
      </trkpt>
      <trkpt lat="45.85878" lon="4.6732">
        <ele>206</ele>
        <time>2018-08-02T08:50:15Z</time>
      </trkpt>
      <trkpt lat="45.85879" lon="4.67313">
        <ele>206</ele>
        <time>2018-08-02T08:50:16Z</time>
      </trkpt>
      <trkpt lat="45.8588" lon="4.67306">
        <ele>206</ele>
        <time>2018-08-02T08:50:17Z</time>
      </trkpt>
      <trkpt lat="45.8588" lon="4.67297">
        <ele>206</ele>
        <time>2018-08-02T08:50:18Z</time>
      </trkpt>
      <trkpt lat="45.85881" lon="4.67289">
        <ele>205</ele>
        <time>2018-08-02T08:50:19Z</time>
      </trkpt>
      <trkpt lat="45.85882" lon="4.67281">
        <ele>205</ele>
        <time>2018-08-02T08:50:20Z</time>
      </trkpt>
      <trkpt lat="45.85884" lon="4.67272">
        <ele>205</ele>
        <time>2018-08-02T08:50:21Z</time>
      </trkpt>
      <trkpt lat="45.85883" lon="4.67264">
        <ele>205</ele>
        <time>2018-08-02T08:50:22Z</time>
      </trkpt>
      <trkpt lat="45.85883" lon="4.67255">
        <ele>205</ele>
        <time>2018-08-02T08:50:23Z</time>
      </trkpt>
      <trkpt lat="45.85884" lon="4.67247">
        <ele>204</ele>
        <time>2018-08-02T08:50:24Z</time>
      </trkpt>
      <trkpt lat="45.85885" lon="4.67238">
        <ele>204</ele>
        <time>2018-08-02T08:50:25Z</time>
      </trkpt>
      <trkpt lat="45.85886" lon="4.67229">
        <ele>204</ele>
        <time>2018-08-02T08:50:26Z</time>
      </trkpt>
      <trkpt lat="45.85885" lon="4.67221">
        <ele>204</ele>
        <time>2018-08-02T08:50:27Z</time>
      </trkpt>
      <trkpt lat="45.85887" lon="4.67214">
        <ele>204</ele>
        <time>2018-08-02T08:50:28Z</time>
      </trkpt>
      <trkpt lat="45.85889" lon="4.67205">
        <ele>204</ele>
        <time>2018-08-02T08:50:29Z</time>
      </trkpt>
      <trkpt lat="45.85891" lon="4.67198">
        <ele>204</ele>
        <time>2018-08-02T08:50:30Z</time>
      </trkpt>
      <trkpt lat="45.85893" lon="4.67191">
        <ele>205</ele>
        <time>2018-08-02T08:50:31Z</time>
      </trkpt>
      <trkpt lat="45.85891" lon="4.67185">
        <ele>205</ele>
        <time>2018-08-02T08:50:32Z</time>
      </trkpt>
      <trkpt lat="45.85891" lon="4.67178">
        <ele>205</ele>
        <time>2018-08-02T08:50:33Z</time>
      </trkpt>
      <trkpt lat="45.85891" lon="4.6717">
        <ele>205</ele>
        <time>2018-08-02T08:50:34Z</time>
      </trkpt>
      <trkpt lat="45.85891" lon="4.67162">
        <ele>204</ele>
        <time>2018-08-02T08:50:35Z</time>
      </trkpt>
      <trkpt lat="45.85892" lon="4.67154">
        <ele>204</ele>
        <time>2018-08-02T08:50:36Z</time>
      </trkpt>
      <trkpt lat="45.85892" lon="4.67147">
        <ele>204</ele>
        <time>2018-08-02T08:50:37Z</time>
      </trkpt>
      <trkpt lat="45.85894" lon="4.67139">
        <ele>204</ele>
        <time>2018-08-02T08:50:38Z</time>
      </trkpt>
      <trkpt lat="45.85897" lon="4.67132">
        <ele>204</ele>
        <time>2018-08-02T08:50:39Z</time>
      </trkpt>
      <trkpt lat="45.85897" lon="4.67125">
        <ele>204</ele>
        <time>2018-08-02T08:50:40Z</time>
      </trkpt>
      <trkpt lat="45.85897" lon="4.67117">
        <ele>204</ele>
        <time>2018-08-02T08:50:41Z</time>
      </trkpt>
      <trkpt lat="45.85899" lon="4.67108">
        <ele>204</ele>
        <time>2018-08-02T08:50:42Z</time>
      </trkpt>
      <trkpt lat="45.85899" lon="4.67099">
        <ele>204</ele>
        <time>2018-08-02T08:50:43Z</time>
      </trkpt>
      <trkpt lat="45.859" lon="4.67091">
        <ele>204</ele>
        <time>2018-08-02T08:50:44Z</time>
      </trkpt>
      <trkpt lat="45.85901" lon="4.67083">
        <ele>204</ele>
        <time>2018-08-02T08:50:45Z</time>
      </trkpt>
      <trkpt lat="45.85904" lon="4.67076">
        <ele>204</ele>
        <time>2018-08-02T08:50:46Z</time>
      </trkpt>
      <trkpt lat="45.85905" lon="4.67069">
        <ele>205</ele>
        <time>2018-08-02T08:50:47Z</time>
      </trkpt>
      <trkpt lat="45.85904" lon="4.67059">
        <ele>205</ele>
        <time>2018-08-02T08:50:48Z</time>
      </trkpt>
      <trkpt lat="45.85907" lon="4.67052">
        <ele>205</ele>
        <time>2018-08-02T08:50:49Z</time>
      </trkpt>
      <trkpt lat="45.85908" lon="4.67046">
        <ele>205</ele>
        <time>2018-08-02T08:50:50Z</time>
      </trkpt>
      <trkpt lat="45.85907" lon="4.6704">
        <ele>205</ele>
        <time>2018-08-02T08:50:51Z</time>
      </trkpt>
      <trkpt lat="45.85907" lon="4.67032">
        <ele>205</ele>
        <time>2018-08-02T08:50:52Z</time>
      </trkpt>
      <trkpt lat="45.85912" lon="4.67024">
        <ele>205</ele>
        <time>2018-08-02T08:50:54Z</time>
      </trkpt>
      <trkpt lat="45.85912" lon="4.67021">
        <ele>205</ele>
        <time>2018-08-02T08:50:55Z</time>
      </trkpt>
      <trkpt lat="45.85916" lon="4.67011">
        <ele>206</ele>
        <time>2018-08-02T08:50:58Z</time>
      </trkpt>
      <trkpt lat="45.85916" lon="4.67001">
        <ele>206</ele>
        <time>2018-08-02T08:50:59Z</time>
      </trkpt>
      <trkpt lat="45.8592" lon="4.66992">
        <ele>207</ele>
        <time>2018-08-02T08:51:01Z</time>
      </trkpt>
      <trkpt lat="45.85923" lon="4.66987">
        <ele>208</ele>
        <time>2018-08-02T08:51:02Z</time>
      </trkpt>
      <trkpt lat="45.85925" lon="4.66982">
        <ele>208</ele>
        <time>2018-08-02T08:51:03Z</time>
      </trkpt>
      <trkpt lat="45.85928" lon="4.66974">
        <ele>208</ele>
        <time>2018-08-02T08:51:04Z</time>
      </trkpt>
      <trkpt lat="45.85928" lon="4.66966">
        <ele>209</ele>
        <time>2018-08-02T08:51:05Z</time>
      </trkpt>
      <trkpt lat="45.85926" lon="4.66959">
        <ele>209</ele>
        <time>2018-08-02T08:51:06Z</time>
      </trkpt>
      <trkpt lat="45.85929" lon="4.66948">
        <ele>209</ele>
        <time>2018-08-02T08:51:08Z</time>
      </trkpt>
      <trkpt lat="45.85928" lon="4.6694">
        <ele>209</ele>
        <time>2018-08-02T08:51:09Z</time>
      </trkpt>
      <trkpt lat="45.85927" lon="4.66932">
        <ele>208</ele>
        <time>2018-08-02T08:51:10Z</time>
      </trkpt>
      <trkpt lat="45.85927" lon="4.66923">
        <ele>208</ele>
        <time>2018-08-02T08:51:11Z</time>
      </trkpt>
      <trkpt lat="45.85928" lon="4.66914">
        <ele>208</ele>
        <time>2018-08-02T08:51:12Z</time>
      </trkpt>
      <trkpt lat="45.85931" lon="4.66907">
        <ele>209</ele>
        <time>2018-08-02T08:51:13Z</time>
      </trkpt>
      <trkpt lat="45.8593" lon="4.66898">
        <ele>209</ele>
        <time>2018-08-02T08:51:14Z</time>
      </trkpt>
      <trkpt lat="45.85931" lon="4.6689">
        <ele>210</ele>
        <time>2018-08-02T08:51:15Z</time>
      </trkpt>
      <trkpt lat="45.85933" lon="4.6688">
        <ele>210</ele>
        <time>2018-08-02T08:51:16Z</time>
      </trkpt>
      <trkpt lat="45.85935" lon="4.66872">
        <ele>210</ele>
        <time>2018-08-02T08:51:17Z</time>
      </trkpt>
      <trkpt lat="45.85937" lon="4.66865">
        <ele>210</ele>
        <time>2018-08-02T08:51:18Z</time>
      </trkpt>
      <trkpt lat="45.8594" lon="4.66858">
        <ele>210</ele>
        <time>2018-08-02T08:51:19Z</time>
      </trkpt>
      <trkpt lat="45.85942" lon="4.6685">
        <ele>210</ele>
        <time>2018-08-02T08:51:20Z</time>
      </trkpt>
      <trkpt lat="45.85945" lon="4.66842">
        <ele>210</ele>
        <time>2018-08-02T08:51:21Z</time>
      </trkpt>
      <trkpt lat="45.85947" lon="4.66835">
        <ele>211</ele>
        <time>2018-08-02T08:51:22Z</time>
      </trkpt>
      <trkpt lat="45.85949" lon="4.66828">
        <ele>212</ele>
        <time>2018-08-02T08:51:23Z</time>
      </trkpt>
      <trkpt lat="45.85951" lon="4.66822">
        <ele>212</ele>
        <time>2018-08-02T08:51:24Z</time>
      </trkpt>
      <trkpt lat="45.85951" lon="4.66815">
        <ele>213</ele>
        <time>2018-08-02T08:51:25Z</time>
      </trkpt>
      <trkpt lat="45.85953" lon="4.66808">
        <ele>213</ele>
        <time>2018-08-02T08:51:26Z</time>
      </trkpt>
      <trkpt lat="45.85955" lon="4.66802">
        <ele>213</ele>
        <time>2018-08-02T08:51:27Z</time>
      </trkpt>
      <trkpt lat="45.85957" lon="4.66795">
        <ele>213</ele>
        <time>2018-08-02T08:51:28Z</time>
      </trkpt>
      <trkpt lat="45.85958" lon="4.66788">
        <ele>213</ele>
        <time>2018-08-02T08:51:29Z</time>
      </trkpt>
      <trkpt lat="45.85962" lon="4.66779">
        <ele>214</ele>
        <time>2018-08-02T08:51:30Z</time>
      </trkpt>
      <trkpt lat="45.85964" lon="4.66773">
        <ele>214</ele>
        <time>2018-08-02T08:51:31Z</time>
      </trkpt>
      <trkpt lat="45.85966" lon="4.66766">
        <ele>214</ele>
        <time>2018-08-02T08:51:32Z</time>
      </trkpt>
      <trkpt lat="45.85968" lon="4.66759">
        <ele>214</ele>
        <time>2018-08-02T08:51:33Z</time>
      </trkpt>
      <trkpt lat="45.85971" lon="4.66752">
        <ele>214</ele>
        <time>2018-08-02T08:51:34Z</time>
      </trkpt>
      <trkpt lat="45.85974" lon="4.66747">
        <ele>216</ele>
        <time>2018-08-02T08:51:35Z</time>
      </trkpt>
      <trkpt lat="45.85976" lon="4.66739">
        <ele>216</ele>
        <time>2018-08-02T08:51:36Z</time>
      </trkpt>
      <trkpt lat="45.85979" lon="4.66734">
        <ele>216</ele>
        <time>2018-08-02T08:51:37Z</time>
      </trkpt>
      <trkpt lat="45.85983" lon="4.66724">
        <ele>216</ele>
        <time>2018-08-02T08:51:39Z</time>
      </trkpt>
      <trkpt lat="45.85986" lon="4.66719">
        <ele>215</ele>
        <time>2018-08-02T08:51:40Z</time>
      </trkpt>
      <trkpt lat="45.8599" lon="4.66714">
        <ele>215</ele>
        <time>2018-08-02T08:51:41Z</time>
      </trkpt>
      <trkpt lat="45.85993" lon="4.66708">
        <ele>215</ele>
        <time>2018-08-02T08:51:42Z</time>
      </trkpt>
      <trkpt lat="45.85997" lon="4.66703">
        <ele>215</ele>
        <time>2018-08-02T08:51:43Z</time>
      </trkpt>
      <trkpt lat="45.86001" lon="4.66699">
        <ele>219</ele>
        <time>2018-08-02T08:51:44Z</time>
      </trkpt>
      <trkpt lat="45.86006" lon="4.66691">
        <ele>218</ele>
        <time>2018-08-02T08:51:45Z</time>
      </trkpt>
      <trkpt lat="45.86009" lon="4.66686">
        <ele>217</ele>
        <time>2018-08-02T08:51:46Z</time>
      </trkpt>
      <trkpt lat="45.86013" lon="4.66682">
        <ele>217</ele>
        <time>2018-08-02T08:51:47Z</time>
      </trkpt>
      <trkpt lat="45.86017" lon="4.66677">
        <ele>217</ele>
        <time>2018-08-02T08:51:48Z</time>
      </trkpt>
      <trkpt lat="45.86021" lon="4.66674">
        <ele>218</ele>
        <time>2018-08-02T08:51:49Z</time>
      </trkpt>
      <trkpt lat="45.86026" lon="4.66669">
        <ele>218</ele>
        <time>2018-08-02T08:51:50Z</time>
      </trkpt>
      <trkpt lat="45.86029" lon="4.66663">
        <ele>214</ele>
        <time>2018-08-02T08:51:51Z</time>
      </trkpt>
      <trkpt lat="45.86033" lon="4.66658">
        <ele>214</ele>
        <time>2018-08-02T08:51:52Z</time>
      </trkpt>
      <trkpt lat="45.86039" lon="4.6665">
        <ele>214</ele>
        <time>2018-08-02T08:51:54.542Z</time>
      </trkpt>
      <trkpt lat="45.86043" lon="4.66645">
        <ele>214</ele>
        <time>2018-08-02T08:51:55Z</time>
      </trkpt>
      <trkpt lat="45.86046" lon="4.66641">
        <ele>214</ele>
        <time>2018-08-02T08:51:56Z</time>
      </trkpt>
      <trkpt lat="45.86051" lon="4.66636">
        <ele>214</ele>
        <time>2018-08-02T08:51:57Z</time>
      </trkpt>
      <trkpt lat="45.86055" lon="4.66634">
        <ele>215</ele>
        <time>2018-08-02T08:51:58Z</time>
      </trkpt>
      <trkpt lat="45.86061" lon="4.66626">
        <ele>214</ele>
        <time>2018-08-02T08:51:59Z</time>
      </trkpt>
      <trkpt lat="45.86066" lon="4.66622">
        <ele>214</ele>
        <time>2018-08-02T08:52:00Z</time>
      </trkpt>
      <trkpt lat="45.86069" lon="4.66618">
        <ele>214</ele>
        <time>2018-08-02T08:52:01Z</time>
      </trkpt>
      <trkpt lat="45.86076" lon="4.66613">
        <ele>213</ele>
        <time>2018-08-02T08:52:04Z</time>
      </trkpt>
      <trkpt lat="45.86078" lon="4.66612">
        <ele>213</ele>
        <time>2018-08-02T08:52:05Z</time>
      </trkpt>
      <trkpt lat="45.86085" lon="4.66611">
        <ele>219</ele>
        <time>2018-08-02T08:52:06Z</time>
      </trkpt>
      <trkpt lat="45.86089" lon="4.66612">
        <ele>220</ele>
        <time>2018-08-02T08:52:07Z</time>
      </trkpt>
      <trkpt lat="45.86098" lon="4.66601">
        <ele>218</ele>
        <time>2018-08-02T08:52:08Z</time>
      </trkpt>
      <trkpt lat="45.86102" lon="4.66604">
        <ele>220</ele>
        <time>2018-08-02T08:52:09Z</time>
      </trkpt>
      <trkpt lat="45.86108" lon="4.66601">
        <ele>220</ele>
        <time>2018-08-02T08:52:10Z</time>
      </trkpt>
      <trkpt lat="45.86116" lon="4.66594">
        <ele>220</ele>
        <time>2018-08-02T08:52:11Z</time>
      </trkpt>
      <trkpt lat="45.8612" lon="4.66589">
        <ele>221</ele>
        <time>2018-08-02T08:52:12Z</time>
      </trkpt>
      <trkpt lat="45.86126" lon="4.66583">
        <ele>214</ele>
        <time>2018-08-02T08:52:13Z</time>
      </trkpt>
      <trkpt lat="45.86131" lon="4.66583">
        <ele>215</ele>
        <time>2018-08-02T08:52:14Z</time>
      </trkpt>
      <trkpt lat="45.86136" lon="4.6658">
        <ele>215</ele>
        <time>2018-08-02T08:52:15Z</time>
      </trkpt>
      <trkpt lat="45.86141" lon="4.66575">
        <ele>216</ele>
        <time>2018-08-02T08:52:16Z</time>
      </trkpt>
      <trkpt lat="45.86145" lon="4.66569">
        <ele>216</ele>
        <time>2018-08-02T08:52:17Z</time>
      </trkpt>
      <trkpt lat="45.86149" lon="4.66563">
        <ele>216</ele>
        <time>2018-08-02T08:52:18Z</time>
      </trkpt>
      <trkpt lat="45.86154" lon="4.66558">
        <ele>215</ele>
        <time>2018-08-02T08:52:19Z</time>
      </trkpt>
      <trkpt lat="45.86158" lon="4.66554">
        <ele>215</ele>
        <time>2018-08-02T08:52:20Z</time>
      </trkpt>
      <trkpt lat="45.86162" lon="4.66548">
        <ele>215</ele>
        <time>2018-08-02T08:52:21Z</time>
      </trkpt>
      <trkpt lat="45.86166" lon="4.66543">
        <ele>214</ele>
        <time>2018-08-02T08:52:22Z</time>
      </trkpt>
      <trkpt lat="45.86169" lon="4.66537">
        <ele>219</ele>
        <time>2018-08-02T08:52:23Z</time>
      </trkpt>
      <trkpt lat="45.86174" lon="4.6653">
        <ele>218</ele>
        <time>2018-08-02T08:52:24Z</time>
      </trkpt>
      <trkpt lat="45.86176" lon="4.66523">
        <ele>217</ele>
        <time>2018-08-02T08:52:25Z</time>
      </trkpt>
      <trkpt lat="45.8618" lon="4.66517">
        <ele>217</ele>
        <time>2018-08-02T08:52:26Z</time>
      </trkpt>
      <trkpt lat="45.86185" lon="4.6651">
        <ele>216</ele>
        <time>2018-08-02T08:52:27Z</time>
      </trkpt>
      <trkpt lat="45.86188" lon="4.66503">
        <ele>216</ele>
        <time>2018-08-02T08:52:28Z</time>
      </trkpt>
      <trkpt lat="45.86192" lon="4.66496">
        <ele>212</ele>
        <time>2018-08-02T08:52:29Z</time>
      </trkpt>
      <trkpt lat="45.86195" lon="4.66489">
        <ele>213</ele>
        <time>2018-08-02T08:52:30Z</time>
      </trkpt>
      <trkpt lat="45.86198" lon="4.66483">
        <ele>213</ele>
        <time>2018-08-02T08:52:31Z</time>
      </trkpt>
      <trkpt lat="45.86203" lon="4.66476">
        <ele>213</ele>
        <time>2018-08-02T08:52:32Z</time>
      </trkpt>
      <trkpt lat="45.86205" lon="4.6647">
        <ele>213</ele>
        <time>2018-08-02T08:52:33Z</time>
      </trkpt>
      <trkpt lat="45.86209" lon="4.66464">
        <ele>213</ele>
        <time>2018-08-02T08:52:34Z</time>
      </trkpt>
      <trkpt lat="45.86213" lon="4.66457">
        <ele>213</ele>
        <time>2018-08-02T08:52:35Z</time>
      </trkpt>
      <trkpt lat="45.86217" lon="4.66451">
        <ele>213</ele>
        <time>2018-08-02T08:52:36Z</time>
      </trkpt>
      <trkpt lat="45.8622" lon="4.66445">
        <ele>213</ele>
        <time>2018-08-02T08:52:37Z</time>
      </trkpt>
      <trkpt lat="45.86223" lon="4.6644">
        <ele>213</ele>
        <time>2018-08-02T08:52:38Z</time>
      </trkpt>
      <trkpt lat="45.86226" lon="4.66433">
        <ele>213</ele>
        <time>2018-08-02T08:52:39Z</time>
      </trkpt>
      <trkpt lat="45.86229" lon="4.66427">
        <ele>214</ele>
        <time>2018-08-02T08:52:40Z</time>
      </trkpt>
      <trkpt lat="45.86233" lon="4.66421">
        <ele>214</ele>
        <time>2018-08-02T08:52:41Z</time>
      </trkpt>
      <trkpt lat="45.86236" lon="4.66417">
        <ele>214</ele>
        <time>2018-08-02T08:52:42Z</time>
      </trkpt>
      <trkpt lat="45.86239" lon="4.6641">
        <ele>213</ele>
        <time>2018-08-02T08:52:43Z</time>
      </trkpt>
      <trkpt lat="45.86243" lon="4.66404">
        <ele>213</ele>
        <time>2018-08-02T08:52:44Z</time>
      </trkpt>
      <trkpt lat="45.86246" lon="4.664">
        <ele>213</ele>
        <time>2018-08-02T08:52:45Z</time>
      </trkpt>
      <trkpt lat="45.86251" lon="4.66394">
        <ele>216</ele>
        <time>2018-08-02T08:52:46Z</time>
      </trkpt>
      <trkpt lat="45.86256" lon="4.66387">
        <ele>216</ele>
        <time>2018-08-02T08:52:47Z</time>
      </trkpt>
      <trkpt lat="45.86259" lon="4.66378">
        <ele>216</ele>
        <time>2018-08-02T08:52:48Z</time>
      </trkpt>
      <trkpt lat="45.86263" lon="4.66372">
        <ele>216</ele>
        <time>2018-08-02T08:52:49Z</time>
      </trkpt>
      <trkpt lat="45.86267" lon="4.66363">
        <ele>216</ele>
        <time>2018-08-02T08:52:50Z</time>
      </trkpt>
      <trkpt lat="45.86271" lon="4.66356">
        <ele>216</ele>
        <time>2018-08-02T08:52:51Z</time>
      </trkpt>
      <trkpt lat="45.86274" lon="4.6635">
        <ele>216</ele>
        <time>2018-08-02T08:52:52Z</time>
      </trkpt>
      <trkpt lat="45.86278" lon="4.66346">
        <ele>216</ele>
        <time>2018-08-02T08:52:53Z</time>
      </trkpt>
      <trkpt lat="45.86281" lon="4.66341">
        <ele>216</ele>
        <time>2018-08-02T08:52:54Z</time>
      </trkpt>
      <trkpt lat="45.86284" lon="4.66337">
        <ele>217</ele>
        <time>2018-08-02T08:52:55Z</time>
      </trkpt>
      <trkpt lat="45.8629" lon="4.66331">
        <ele>214</ele>
        <time>2018-08-02T08:52:56Z</time>
      </trkpt>
      <trkpt lat="45.86294" lon="4.66325">
        <ele>215</ele>
        <time>2018-08-02T08:52:57Z</time>
      </trkpt>
      <trkpt lat="45.86297" lon="4.6632">
        <ele>215</ele>
        <time>2018-08-02T08:52:58Z</time>
      </trkpt>
      <trkpt lat="45.86301" lon="4.66314">
        <ele>215</ele>
        <time>2018-08-02T08:52:59Z</time>
      </trkpt>
      <trkpt lat="45.86305" lon="4.6631">
        <ele>215</ele>
        <time>2018-08-02T08:53:00Z</time>
      </trkpt>
      <trkpt lat="45.86309" lon="4.66303">
        <ele>215</ele>
        <time>2018-08-02T08:53:01Z</time>
      </trkpt>
      <trkpt lat="45.86314" lon="4.66298">
        <ele>215</ele>
        <time>2018-08-02T08:53:02Z</time>
      </trkpt>
      <trkpt lat="45.86318" lon="4.66295">
        <ele>215</ele>
        <time>2018-08-02T08:53:03Z</time>
      </trkpt>
      <trkpt lat="45.86323" lon="4.66291">
        <ele>215</ele>
        <time>2018-08-02T08:53:04Z</time>
      </trkpt>
      <trkpt lat="45.86326" lon="4.66287">
        <ele>215</ele>
        <time>2018-08-02T08:53:05Z</time>
      </trkpt>
      <trkpt lat="45.8633" lon="4.66282">
        <ele>214</ele>
        <time>2018-08-02T08:53:06Z</time>
      </trkpt>
      <trkpt lat="45.86338" lon="4.66276">
        <ele>218</ele>
        <time>2018-08-02T08:53:08Z</time>
      </trkpt>
      <trkpt lat="45.86341" lon="4.6627">
        <ele>217</ele>
        <time>2018-08-02T08:53:09Z</time>
      </trkpt>
      <trkpt lat="45.86344" lon="4.66266">
        <ele>217</ele>
        <time>2018-08-02T08:53:10Z</time>
      </trkpt>
      <trkpt lat="45.86347" lon="4.66261">
        <ele>217</ele>
        <time>2018-08-02T08:53:11Z</time>
      </trkpt>
      <trkpt lat="45.86352" lon="4.66254">
        <ele>217</ele>
        <time>2018-08-02T08:53:12Z</time>
      </trkpt>
      <trkpt lat="45.86356" lon="4.66253">
        <ele>217</ele>
        <time>2018-08-02T08:53:13Z</time>
      </trkpt>
      <trkpt lat="45.86359" lon="4.6625">
        <ele>213</ele>
        <time>2018-08-02T08:53:14Z</time>
      </trkpt>
      <trkpt lat="45.86365" lon="4.66247">
        <ele>213</ele>
        <time>2018-08-02T08:53:15Z</time>
      </trkpt>
      <trkpt lat="45.86371" lon="4.66244">
        <ele>214</ele>
        <time>2018-08-02T08:53:16Z</time>
      </trkpt>
      <trkpt lat="45.86375" lon="4.66243">
        <ele>214</ele>
        <time>2018-08-02T08:53:17Z</time>
      </trkpt>
      <trkpt lat="45.8638" lon="4.6624">
        <ele>214</ele>
        <time>2018-08-02T08:53:18Z</time>
      </trkpt>
      <trkpt lat="45.86385" lon="4.66237">
        <ele>214</ele>
        <time>2018-08-02T08:53:19Z</time>
      </trkpt>
      <trkpt lat="45.86392" lon="4.66232">
        <ele>214</ele>
        <time>2018-08-02T08:53:20Z</time>
      </trkpt>
      <trkpt lat="45.86397" lon="4.66229">
        <ele>215</ele>
        <time>2018-08-02T08:53:21Z</time>
      </trkpt>
      <trkpt lat="45.86402" lon="4.66228">
        <ele>215</ele>
        <time>2018-08-02T08:53:22Z</time>
      </trkpt>
      <trkpt lat="45.86408" lon="4.66226">
        <ele>215</ele>
        <time>2018-08-02T08:53:23Z</time>
      </trkpt>
      <trkpt lat="45.86413" lon="4.66225">
        <ele>215</ele>
        <time>2018-08-02T08:53:24Z</time>
      </trkpt>
      <trkpt lat="45.86417" lon="4.66224">
        <ele>218</ele>
        <time>2018-08-02T08:53:25Z</time>
      </trkpt>
      <trkpt lat="45.86421" lon="4.66225">
        <ele>218</ele>
        <time>2018-08-02T08:53:26Z</time>
      </trkpt>
      <trkpt lat="45.86429" lon="4.66225">
        <ele>218</ele>
        <time>2018-08-02T08:53:27Z</time>
      </trkpt>
      <trkpt lat="45.86434" lon="4.66223">
        <ele>218</ele>
        <time>2018-08-02T08:53:28Z</time>
      </trkpt>
      <trkpt lat="45.8644" lon="4.6622">
        <ele>218</ele>
        <time>2018-08-02T08:53:29Z</time>
      </trkpt>
      <trkpt lat="45.86445" lon="4.66219">
        <ele>218</ele>
        <time>2018-08-02T08:53:30Z</time>
      </trkpt>
      <trkpt lat="45.8645" lon="4.66216">
        <ele>218</ele>
        <time>2018-08-02T08:53:31Z</time>
      </trkpt>
      <trkpt lat="45.86455" lon="4.66216">
        <ele>218</ele>
        <time>2018-08-02T08:53:32Z</time>
      </trkpt>
      <trkpt lat="45.86459" lon="4.66214">
        <ele>218</ele>
        <time>2018-08-02T08:53:33Z</time>
      </trkpt>
      <trkpt lat="45.86463" lon="4.66212">
        <ele>218</ele>
        <time>2018-08-02T08:53:34Z</time>
      </trkpt>
      <trkpt lat="45.86468" lon="4.6621">
        <ele>218</ele>
        <time>2018-08-02T08:53:35Z</time>
      </trkpt>
      <trkpt lat="45.86473" lon="4.66212">
        <ele>218</ele>
        <time>2018-08-02T08:53:37Z</time>
      </trkpt>
      <trkpt lat="45.86478" lon="4.66211">
        <ele>218</ele>
        <time>2018-08-02T08:53:38Z</time>
      </trkpt>
      <trkpt lat="45.86484" lon="4.66206">
        <ele>218</ele>
        <time>2018-08-02T08:53:39Z</time>
      </trkpt>
      <trkpt lat="45.86488" lon="4.66205">
        <ele>218</ele>
        <time>2018-08-02T08:53:40Z</time>
      </trkpt>
      <trkpt lat="45.86493" lon="4.66203">
        <ele>218</ele>
        <time>2018-08-02T08:53:41Z</time>
      </trkpt>
      <trkpt lat="45.86498" lon="4.662">
        <ele>218</ele>
        <time>2018-08-02T08:53:42Z</time>
      </trkpt>
      <trkpt lat="45.86502" lon="4.66199">
        <ele>223</ele>
        <time>2018-08-02T08:53:43Z</time>
      </trkpt>
      <trkpt lat="45.86507" lon="4.66196">
        <ele>223</ele>
        <time>2018-08-02T08:53:44Z</time>
      </trkpt>
      <trkpt lat="45.86512" lon="4.66193">
        <ele>223</ele>
        <time>2018-08-02T08:53:45Z</time>
      </trkpt>
      <trkpt lat="45.86519" lon="4.66187">
        <ele>223</ele>
        <time>2018-08-02T08:53:46Z</time>
      </trkpt>
      <trkpt lat="45.86525" lon="4.66184">
        <ele>224</ele>
        <time>2018-08-02T08:53:47Z</time>
      </trkpt>
      <trkpt lat="45.86529" lon="4.66182">
        <ele>224</ele>
        <time>2018-08-02T08:53:48Z</time>
      </trkpt>
      <trkpt lat="45.86534" lon="4.66178">
        <ele>224</ele>
        <time>2018-08-02T08:53:49Z</time>
      </trkpt>
      <trkpt lat="45.86538" lon="4.66175">
        <ele>225</ele>
        <time>2018-08-02T08:53:50Z</time>
      </trkpt>
      <trkpt lat="45.86542" lon="4.6617">
        <ele>225</ele>
        <time>2018-08-02T08:53:51Z</time>
      </trkpt>
      <trkpt lat="45.86546" lon="4.66166">
        <ele>218</ele>
        <time>2018-08-02T08:53:52Z</time>
      </trkpt>
      <trkpt lat="45.86551" lon="4.66163">
        <ele>218</ele>
        <time>2018-08-02T08:53:53Z</time>
      </trkpt>
      <trkpt lat="45.86555" lon="4.66158">
        <ele>219</ele>
        <time>2018-08-02T08:53:54Z</time>
      </trkpt>
      <trkpt lat="45.86561" lon="4.66152">
        <ele>219</ele>
        <time>2018-08-02T08:53:55Z</time>
      </trkpt>
      <trkpt lat="45.86565" lon="4.66147">
        <ele>219</ele>
        <time>2018-08-02T08:53:56Z</time>
      </trkpt>
      <trkpt lat="45.86572" lon="4.66142">
        <ele>219</ele>
        <time>2018-08-02T08:53:58Z</time>
      </trkpt>
      <trkpt lat="45.86576" lon="4.66139">
        <ele>219</ele>
        <time>2018-08-02T08:53:59Z</time>
      </trkpt>
      <trkpt lat="45.8658" lon="4.66136">
        <ele>218</ele>
        <time>2018-08-02T08:54:00Z</time>
      </trkpt>
      <trkpt lat="45.86585" lon="4.66131">
        <ele>224</ele>
        <time>2018-08-02T08:54:01Z</time>
      </trkpt>
      <trkpt lat="45.8659" lon="4.66127">
        <ele>224</ele>
        <time>2018-08-02T08:54:02Z</time>
      </trkpt>
      <trkpt lat="45.86595" lon="4.66123">
        <ele>223</ele>
        <time>2018-08-02T08:54:03Z</time>
      </trkpt>
      <trkpt lat="45.86599" lon="4.66118">
        <ele>223</ele>
        <time>2018-08-02T08:54:04Z</time>
      </trkpt>
      <trkpt lat="45.86605" lon="4.66114">
        <ele>223</ele>
        <time>2018-08-02T08:54:05Z</time>
      </trkpt>
      <trkpt lat="45.86609" lon="4.6611">
        <ele>222</ele>
        <time>2018-08-02T08:54:06Z</time>
      </trkpt>
      <trkpt lat="45.86614" lon="4.66106">
        <ele>222</ele>
        <time>2018-08-02T08:54:07Z</time>
      </trkpt>
      <trkpt lat="45.86619" lon="4.66103">
        <ele>223</ele>
        <time>2018-08-02T08:54:08Z</time>
      </trkpt>
      <trkpt lat="45.86624" lon="4.66101">
        <ele>223</ele>
        <time>2018-08-02T08:54:09Z</time>
      </trkpt>
      <trkpt lat="45.86629" lon="4.66098">
        <ele>223</ele>
        <time>2018-08-02T08:54:10Z</time>
      </trkpt>
      <trkpt lat="45.86634" lon="4.66094">
        <ele>223</ele>
        <time>2018-08-02T08:54:11Z</time>
      </trkpt>
      <trkpt lat="45.8664" lon="4.66093">
        <ele>223</ele>
        <time>2018-08-02T08:54:12Z</time>
      </trkpt>
      <trkpt lat="45.86645" lon="4.66093">
        <ele>223</ele>
        <time>2018-08-02T08:54:13Z</time>
      </trkpt>
      <trkpt lat="45.86651" lon="4.6609">
        <ele>222</ele>
        <time>2018-08-02T08:54:14Z</time>
      </trkpt>
      <trkpt lat="45.86656" lon="4.66088">
        <ele>222</ele>
        <time>2018-08-02T08:54:15Z</time>
      </trkpt>
      <trkpt lat="45.86664" lon="4.66084">
        <ele>220</ele>
        <time>2018-08-02T08:54:17Z</time>
      </trkpt>
      <trkpt lat="45.86669" lon="4.66081">
        <ele>219</ele>
        <time>2018-08-02T08:54:18Z</time>
      </trkpt>
      <trkpt lat="45.86676" lon="4.66079">
        <ele>220</ele>
        <time>2018-08-02T08:54:20Z</time>
      </trkpt>
      <trkpt lat="45.8668" lon="4.66077">
        <ele>220</ele>
        <time>2018-08-02T08:54:21Z</time>
      </trkpt>
      <trkpt lat="45.86688" lon="4.66077">
        <ele>221</ele>
        <time>2018-08-02T08:54:24Z</time>
      </trkpt>
      <trkpt lat="45.86694" lon="4.66078">
        <ele>222</ele>
        <time>2018-08-02T08:54:25Z</time>
      </trkpt>
      <trkpt lat="45.86701" lon="4.66071">
        <ele>223</ele>
        <time>2018-08-02T08:54:27Z</time>
      </trkpt>
      <trkpt lat="45.86707" lon="4.66067">
        <ele>223</ele>
        <time>2018-08-02T08:54:28Z</time>
      </trkpt>
      <trkpt lat="45.86714" lon="4.66063">
        <ele>224</ele>
        <time>2018-08-02T08:54:29Z</time>
      </trkpt>
      <trkpt lat="45.86719" lon="4.6606">
        <ele>224</ele>
        <time>2018-08-02T08:54:30Z</time>
      </trkpt>
      <trkpt lat="45.86723" lon="4.66058">
        <ele>225</ele>
        <time>2018-08-02T08:54:31Z</time>
      </trkpt>
      <trkpt lat="45.86729" lon="4.66051">
        <ele>224</ele>
        <time>2018-08-02T08:54:32Z</time>
      </trkpt>
      <trkpt lat="45.86738" lon="4.66049">
        <ele>225</ele>
        <time>2018-08-02T08:54:34Z</time>
      </trkpt>
      <trkpt lat="45.86744" lon="4.66048">
        <ele>225</ele>
        <time>2018-08-02T08:54:35Z</time>
      </trkpt>
      <trkpt lat="45.8675" lon="4.66039">
        <ele>223</ele>
        <time>2018-08-02T08:54:36Z</time>
      </trkpt>
      <trkpt lat="45.86753" lon="4.66036">
        <ele>233</ele>
        <time>2018-08-02T08:54:37Z</time>
      </trkpt>
      <trkpt lat="45.8676" lon="4.6603">
        <ele>232</ele>
        <time>2018-08-02T08:54:39Z</time>
      </trkpt>
      <trkpt lat="45.86766" lon="4.66026">
        <ele>231</ele>
        <time>2018-08-02T08:54:40Z</time>
      </trkpt>
      <trkpt lat="45.8677" lon="4.66022">
        <ele>231</ele>
        <time>2018-08-02T08:54:41Z</time>
      </trkpt>
      <trkpt lat="45.86774" lon="4.66017">
        <ele>231</ele>
        <time>2018-08-02T08:54:42Z</time>
      </trkpt>
      <trkpt lat="45.86778" lon="4.66012">
        <ele>231</ele>
        <time>2018-08-02T08:54:43Z</time>
      </trkpt>
      <trkpt lat="45.8678" lon="4.66006">
        <ele>231</ele>
        <time>2018-08-02T08:54:44Z</time>
      </trkpt>
      <trkpt lat="45.86782" lon="4.66002">
        <ele>231</ele>
        <time>2018-08-02T08:54:45Z</time>
      </trkpt>
      <trkpt lat="45.8679" lon="4.65997">
        <ele>223</ele>
        <time>2018-08-02T08:54:46Z</time>
      </trkpt>
      <trkpt lat="45.86791" lon="4.65991">
        <ele>223</ele>
        <time>2018-08-02T08:54:47Z</time>
      </trkpt>
      <trkpt lat="45.86794" lon="4.65986">
        <ele>223</ele>
        <time>2018-08-02T08:54:48Z</time>
      </trkpt>
      <trkpt lat="45.86799" lon="4.65979">
        <ele>223</ele>
        <time>2018-08-02T08:54:49Z</time>
      </trkpt>
      <trkpt lat="45.86802" lon="4.65974">
        <ele>223</ele>
        <time>2018-08-02T08:54:50Z</time>
      </trkpt>
      <trkpt lat="45.86805" lon="4.65969">
        <ele>223</ele>
        <time>2018-08-02T08:54:51Z</time>
      </trkpt>
      <trkpt lat="45.86808" lon="4.65964">
        <ele>223</ele>
        <time>2018-08-02T08:54:52Z</time>
      </trkpt>
      <trkpt lat="45.86813" lon="4.65957">
        <ele>223</ele>
        <time>2018-08-02T08:54:53Z</time>
      </trkpt>
      <trkpt lat="45.86814" lon="4.65952">
        <ele>222</ele>
        <time>2018-08-02T08:54:54Z</time>
      </trkpt>
      <trkpt lat="45.86818" lon="4.65946">
        <ele>222</ele>
        <time>2018-08-02T08:54:55Z</time>
      </trkpt>
      <trkpt lat="45.86822" lon="4.6594">
        <ele>222</ele>
        <time>2018-08-02T08:54:56Z</time>
      </trkpt>
      <trkpt lat="45.86825" lon="4.65934">
        <ele>222</ele>
        <time>2018-08-02T08:54:57Z</time>
      </trkpt>
      <trkpt lat="45.86828" lon="4.65928">
        <ele>221</ele>
        <time>2018-08-02T08:54:58Z</time>
      </trkpt>
      <trkpt lat="45.8683" lon="4.65926">
        <ele>221</ele>
        <time>2018-08-02T08:54:59Z</time>
      </trkpt>
      <trkpt lat="45.86835" lon="4.65918">
        <ele>223</ele>
        <time>2018-08-02T08:55:00Z</time>
      </trkpt>
      <trkpt lat="45.86838" lon="4.65913">
        <ele>223</ele>
        <time>2018-08-02T08:55:01Z</time>
      </trkpt>
      <trkpt lat="45.86842" lon="4.65906">
        <ele>225</ele>
        <time>2018-08-02T08:55:02Z</time>
      </trkpt>
      <trkpt lat="45.86847" lon="4.65895">
        <ele>226</ele>
        <time>2018-08-02T08:55:04.56Z</time>
      </trkpt>
      <trkpt lat="45.86851" lon="4.65889">
        <ele>227</ele>
        <time>2018-08-02T08:55:05Z</time>
      </trkpt>
      <trkpt lat="45.86853" lon="4.65883">
        <ele>227</ele>
        <time>2018-08-02T08:55:06Z</time>
      </trkpt>
      <trkpt lat="45.86856" lon="4.65875">
        <ele>227</ele>
        <time>2018-08-02T08:55:07Z</time>
      </trkpt>
      <trkpt lat="45.86859" lon="4.65868">
        <ele>226</ele>
        <time>2018-08-02T08:55:08Z</time>
      </trkpt>
      <trkpt lat="45.86862" lon="4.6586">
        <ele>226</ele>
        <time>2018-08-02T08:55:09Z</time>
      </trkpt>
      <trkpt lat="45.86865" lon="4.65853">
        <ele>226</ele>
        <time>2018-08-02T08:55:10Z</time>
      </trkpt>
      <trkpt lat="45.86868" lon="4.65845">
        <ele>226</ele>
        <time>2018-08-02T08:55:11Z</time>
      </trkpt>
      <trkpt lat="45.86871" lon="4.65838">
        <ele>226</ele>
        <time>2018-08-02T08:55:12Z</time>
      </trkpt>
      <trkpt lat="45.86873" lon="4.65831">
        <ele>222</ele>
        <time>2018-08-02T08:55:13Z</time>
      </trkpt>
      <trkpt lat="45.86874" lon="4.65823">
        <ele>222</ele>
        <time>2018-08-02T08:55:14Z</time>
      </trkpt>
      <trkpt lat="45.86878" lon="4.65816">
        <ele>223</ele>
        <time>2018-08-02T08:55:15Z</time>
      </trkpt>
      <trkpt lat="45.8688" lon="4.65808">
        <ele>223</ele>
        <time>2018-08-02T08:55:16Z</time>
      </trkpt>
      <trkpt lat="45.86881" lon="4.658">
        <ele>223</ele>
        <time>2018-08-02T08:55:17Z</time>
      </trkpt>
      <trkpt lat="45.86883" lon="4.65792">
        <ele>223</ele>
        <time>2018-08-02T08:55:18Z</time>
      </trkpt>
      <trkpt lat="45.86885" lon="4.65786">
        <ele>223</ele>
        <time>2018-08-02T08:55:19Z</time>
      </trkpt>
      <trkpt lat="45.86887" lon="4.6578">
        <ele>223</ele>
        <time>2018-08-02T08:55:20Z</time>
      </trkpt>
      <trkpt lat="45.86888" lon="4.65773">
        <ele>223</ele>
        <time>2018-08-02T08:55:21Z</time>
      </trkpt>
      <trkpt lat="45.8689" lon="4.65766">
        <ele>224</ele>
        <time>2018-08-02T08:55:22Z</time>
      </trkpt>
      <trkpt lat="45.86891" lon="4.65761">
        <ele>224</ele>
        <time>2018-08-02T08:55:23Z</time>
      </trkpt>
      <trkpt lat="45.86892" lon="4.65749">
        <ele>224</ele>
        <time>2018-08-02T08:55:25Z</time>
      </trkpt>
      <trkpt lat="45.86892" lon="4.65743">
        <ele>224</ele>
        <time>2018-08-02T08:55:26Z</time>
      </trkpt>
      <trkpt lat="45.86893" lon="4.65736">
        <ele>224</ele>
        <time>2018-08-02T08:55:27Z</time>
      </trkpt>
      <trkpt lat="45.86893" lon="4.65727">
        <ele>223</ele>
        <time>2018-08-02T08:55:28Z</time>
      </trkpt>
      <trkpt lat="45.86894" lon="4.6572">
        <ele>223</ele>
        <time>2018-08-02T08:55:29Z</time>
      </trkpt>
      <trkpt lat="45.86893" lon="4.65712">
        <ele>223</ele>
        <time>2018-08-02T08:55:30Z</time>
      </trkpt>
      <trkpt lat="45.86894" lon="4.65702">
        <ele>223</ele>
        <time>2018-08-02T08:55:31Z</time>
      </trkpt>
      <trkpt lat="45.86893" lon="4.65693">
        <ele>223</ele>
        <time>2018-08-02T08:55:32Z</time>
      </trkpt>
      <trkpt lat="45.86893" lon="4.65683">
        <ele>224</ele>
        <time>2018-08-02T08:55:33Z</time>
      </trkpt>
      <trkpt lat="45.86894" lon="4.65675">
        <ele>224</ele>
        <time>2018-08-02T08:55:34Z</time>
      </trkpt>
      <trkpt lat="45.86895" lon="4.65667">
        <ele>225</ele>
        <time>2018-08-02T08:55:35Z</time>
      </trkpt>
      <trkpt lat="45.86894" lon="4.65658">
        <ele>224</ele>
        <time>2018-08-02T08:55:36Z</time>
      </trkpt>
      <trkpt lat="45.86894" lon="4.65649">
        <ele>224</ele>
        <time>2018-08-02T08:55:37Z</time>
      </trkpt>
      <trkpt lat="45.86896" lon="4.65641">
        <ele>223</ele>
        <time>2018-08-02T08:55:38Z</time>
      </trkpt>
      <trkpt lat="45.86898" lon="4.6563">
        <ele>223</ele>
        <time>2018-08-02T08:55:39Z</time>
      </trkpt>
      <trkpt lat="45.86899" lon="4.65621">
        <ele>223</ele>
        <time>2018-08-02T08:55:40Z</time>
      </trkpt>
      <trkpt lat="45.86901" lon="4.65611">
        <ele>223</ele>
        <time>2018-08-02T08:55:41Z</time>
      </trkpt>
      <trkpt lat="45.86903" lon="4.65601">
        <ele>223</ele>
        <time>2018-08-02T08:55:42Z</time>
      </trkpt>
      <trkpt lat="45.86905" lon="4.65593">
        <ele>224</ele>
        <time>2018-08-02T08:55:43Z</time>
      </trkpt>
      <trkpt lat="45.86908" lon="4.65584">
        <ele>224</ele>
        <time>2018-08-02T08:55:44Z</time>
      </trkpt>
      <trkpt lat="45.8691" lon="4.65575">
        <ele>223</ele>
        <time>2018-08-02T08:55:45Z</time>
      </trkpt>
      <trkpt lat="45.86912" lon="4.65566">
        <ele>221</ele>
        <time>2018-08-02T08:55:46Z</time>
      </trkpt>
      <trkpt lat="45.86915" lon="4.65558">
        <ele>220</ele>
        <time>2018-08-02T08:55:47Z</time>
      </trkpt>
      <trkpt lat="45.86918" lon="4.65549">
        <ele>230</ele>
        <time>2018-08-02T08:55:48Z</time>
      </trkpt>
      <trkpt lat="45.86921" lon="4.65541">
        <ele>230</ele>
        <time>2018-08-02T08:55:49Z</time>
      </trkpt>
      <trkpt lat="45.86924" lon="4.65533">
        <ele>229</ele>
        <time>2018-08-02T08:55:50Z</time>
      </trkpt>
      <trkpt lat="45.86927" lon="4.65525">
        <ele>228</ele>
        <time>2018-08-02T08:55:51Z</time>
      </trkpt>
      <trkpt lat="45.8693" lon="4.65517">
        <ele>227</ele>
        <time>2018-08-02T08:55:52Z</time>
      </trkpt>
      <trkpt lat="45.86933" lon="4.65509">
        <ele>226</ele>
        <time>2018-08-02T08:55:53Z</time>
      </trkpt>
      <trkpt lat="45.86938" lon="4.65502">
        <ele>227</ele>
        <time>2018-08-02T08:55:54Z</time>
      </trkpt>
      <trkpt lat="45.86941" lon="4.65495">
        <ele>221</ele>
        <time>2018-08-02T08:55:55Z</time>
      </trkpt>
      <trkpt lat="45.86944" lon="4.65489">
        <ele>222</ele>
        <time>2018-08-02T08:55:56Z</time>
      </trkpt>
      <trkpt lat="45.86948" lon="4.65482">
        <ele>222</ele>
        <time>2018-08-02T08:55:57Z</time>
      </trkpt>
      <trkpt lat="45.86951" lon="4.65476">
        <ele>222</ele>
        <time>2018-08-02T08:55:58Z</time>
      </trkpt>
      <trkpt lat="45.86956" lon="4.65471">
        <ele>223</ele>
        <time>2018-08-02T08:55:59Z</time>
      </trkpt>
      <trkpt lat="45.8696" lon="4.65465">
        <ele>223</ele>
        <time>2018-08-02T08:56:00Z</time>
      </trkpt>
      <trkpt lat="45.86964" lon="4.6546">
        <ele>223</ele>
        <time>2018-08-02T08:56:01Z</time>
      </trkpt>
      <trkpt lat="45.86969" lon="4.65455">
        <ele>223</ele>
        <time>2018-08-02T08:56:02Z</time>
      </trkpt>
      <trkpt lat="45.86974" lon="4.65449">
        <ele>222</ele>
        <time>2018-08-02T08:56:03Z</time>
      </trkpt>
      <trkpt lat="45.86979" lon="4.65441">
        <ele>222</ele>
        <time>2018-08-02T08:56:04Z</time>
      </trkpt>
      <trkpt lat="45.86984" lon="4.65436">
        <ele>222</ele>
        <time>2018-08-02T08:56:05Z</time>
      </trkpt>
      <trkpt lat="45.86989" lon="4.6543">
        <ele>222</ele>
        <time>2018-08-02T08:56:06Z</time>
      </trkpt>
      <trkpt lat="45.86993" lon="4.65424">
        <ele>221</ele>
        <time>2018-08-02T08:56:07Z</time>
      </trkpt>
      <trkpt lat="45.86998" lon="4.65419">
        <ele>221</ele>
        <time>2018-08-02T08:56:08Z</time>
      </trkpt>
      <trkpt lat="45.87003" lon="4.65413">
        <ele>222</ele>
        <time>2018-08-02T08:56:09Z</time>
      </trkpt>
      <trkpt lat="45.87006" lon="4.65407">
        <ele>222</ele>
        <time>2018-08-02T08:56:10Z</time>
      </trkpt>
      <trkpt lat="45.8701" lon="4.65402">
        <ele>223</ele>
        <time>2018-08-02T08:56:11Z</time>
      </trkpt>
      <trkpt lat="45.87016" lon="4.65395">
        <ele>223</ele>
        <time>2018-08-02T08:56:12Z</time>
      </trkpt>
      <trkpt lat="45.87021" lon="4.6539">
        <ele>224</ele>
        <time>2018-08-02T08:56:13Z</time>
      </trkpt>
      <trkpt lat="45.87026" lon="4.65386">
        <ele>224</ele>
        <time>2018-08-02T08:56:14Z</time>
      </trkpt>
      <trkpt lat="45.8703" lon="4.6538">
        <ele>224</ele>
        <time>2018-08-02T08:56:15Z</time>
      </trkpt>
      <trkpt lat="45.87034" lon="4.65374">
        <ele>224</ele>
        <time>2018-08-02T08:56:16Z</time>
      </trkpt>
      <trkpt lat="45.87039" lon="4.65367">
        <ele>224</ele>
        <time>2018-08-02T08:56:17Z</time>
      </trkpt>
      <trkpt lat="45.87043" lon="4.65361">
        <ele>224</ele>
        <time>2018-08-02T08:56:18Z</time>
      </trkpt>
      <trkpt lat="45.87047" lon="4.65355">
        <ele>224</ele>
        <time>2018-08-02T08:56:19Z</time>
      </trkpt>
      <trkpt lat="45.87051" lon="4.65347">
        <ele>224</ele>
        <time>2018-08-02T08:56:20Z</time>
      </trkpt>
      <trkpt lat="45.87054" lon="4.65341">
        <ele>224</ele>
        <time>2018-08-02T08:56:21Z</time>
      </trkpt>
      <trkpt lat="45.8706" lon="4.65332">
        <ele>219</ele>
        <time>2018-08-02T08:56:22Z</time>
      </trkpt>
      <trkpt lat="45.87063" lon="4.65325">
        <ele>219</ele>
        <time>2018-08-02T08:56:23Z</time>
      </trkpt>
      <trkpt lat="45.87067" lon="4.65319">
        <ele>219</ele>
        <time>2018-08-02T08:56:24Z</time>
      </trkpt>
      <trkpt lat="45.87069" lon="4.65315">
        <ele>218</ele>
        <time>2018-08-02T08:56:25Z</time>
      </trkpt>
      <trkpt lat="45.87072" lon="4.65309">
        <ele>218</ele>
        <time>2018-08-02T08:56:26Z</time>
      </trkpt>
      <trkpt lat="45.87074" lon="4.65301">
        <ele>217</ele>
        <time>2018-08-02T08:56:27.572Z</time>
      </trkpt>
      <trkpt lat="45.87077" lon="4.65293">
        <ele>217</ele>
        <time>2018-08-02T08:56:28Z</time>
      </trkpt>
      <trkpt lat="45.8708" lon="4.65287">
        <ele>216</ele>
        <time>2018-08-02T08:56:29Z</time>
      </trkpt>
      <trkpt lat="45.87083" lon="4.6528">
        <ele>215</ele>
        <time>2018-08-02T08:56:30Z</time>
      </trkpt>
      <trkpt lat="45.87086" lon="4.65273">
        <ele>224</ele>
        <time>2018-08-02T08:56:31Z</time>
      </trkpt>
      <trkpt lat="45.87089" lon="4.65266">
        <ele>222</ele>
        <time>2018-08-02T08:56:32Z</time>
      </trkpt>
      <trkpt lat="45.87093" lon="4.65259">
        <ele>221</ele>
        <time>2018-08-02T08:56:33Z</time>
      </trkpt>
      <trkpt lat="45.87096" lon="4.65251">
        <ele>220</ele>
        <time>2018-08-02T08:56:34Z</time>
      </trkpt>
      <trkpt lat="45.87098" lon="4.65244">
        <ele>217</ele>
        <time>2018-08-02T08:56:35Z</time>
      </trkpt>
      <trkpt lat="45.87102" lon="4.65238">
        <ele>218</ele>
        <time>2018-08-02T08:56:36Z</time>
      </trkpt>
      <trkpt lat="45.87107" lon="4.65233">
        <ele>219</ele>
        <time>2018-08-02T08:56:37Z</time>
      </trkpt>
      <trkpt lat="45.87111" lon="4.65225">
        <ele>219</ele>
        <time>2018-08-02T08:56:38Z</time>
      </trkpt>
      <trkpt lat="45.87116" lon="4.65219">
        <ele>220</ele>
        <time>2018-08-02T08:56:39Z</time>
      </trkpt>
      <trkpt lat="45.87119" lon="4.65214">
        <ele>220</ele>
        <time>2018-08-02T08:56:40Z</time>
      </trkpt>
      <trkpt lat="45.87123" lon="4.65208">
        <ele>220</ele>
        <time>2018-08-02T08:56:41Z</time>
      </trkpt>
      <trkpt lat="45.87128" lon="4.65202">
        <ele>220</ele>
        <time>2018-08-02T08:56:42Z</time>
      </trkpt>
      <trkpt lat="45.87132" lon="4.65196">
        <ele>220</ele>
        <time>2018-08-02T08:56:43Z</time>
      </trkpt>
      <trkpt lat="45.87137" lon="4.65193">
        <ele>220</ele>
        <time>2018-08-02T08:56:44Z</time>
      </trkpt>
      <trkpt lat="45.87141" lon="4.65189">
        <ele>220</ele>
        <time>2018-08-02T08:56:45Z</time>
      </trkpt>
      <trkpt lat="45.87146" lon="4.65186">
        <ele>220</ele>
        <time>2018-08-02T08:56:46Z</time>
      </trkpt>
      <trkpt lat="45.87149" lon="4.65182">
        <ele>220</ele>
        <time>2018-08-02T08:56:47Z</time>
      </trkpt>
      <trkpt lat="45.87153" lon="4.65178">
        <ele>220</ele>
        <time>2018-08-02T08:56:48Z</time>
      </trkpt>
      <trkpt lat="45.87159" lon="4.65171">
        <ele>220</ele>
        <time>2018-08-02T08:56:50Z</time>
      </trkpt>
      <trkpt lat="45.87163" lon="4.65167">
        <ele>219</ele>
        <time>2018-08-02T08:56:51Z</time>
      </trkpt>
      <trkpt lat="45.87167" lon="4.65164">
        <ele>220</ele>
        <time>2018-08-02T08:56:52Z</time>
      </trkpt>
      <trkpt lat="45.87171" lon="4.65159">
        <ele>221</ele>
        <time>2018-08-02T08:56:53Z</time>
      </trkpt>
      <trkpt lat="45.87178" lon="4.65152">
        <ele>221</ele>
        <time>2018-08-02T08:56:55Z</time>
      </trkpt>
      <trkpt lat="45.87183" lon="4.65148">
        <ele>221</ele>
        <time>2018-08-02T08:56:56Z</time>
      </trkpt>
      <trkpt lat="45.87189" lon="4.65143">
        <ele>222</ele>
        <time>2018-08-02T08:56:57Z</time>
      </trkpt>
      <trkpt lat="45.87194" lon="4.65137">
        <ele>222</ele>
        <time>2018-08-02T08:56:58Z</time>
      </trkpt>
      <trkpt lat="45.87199" lon="4.65132">
        <ele>222</ele>
        <time>2018-08-02T08:56:59Z</time>
      </trkpt>
      <trkpt lat="45.87202" lon="4.65128">
        <ele>222</ele>
        <time>2018-08-02T08:57:00Z</time>
      </trkpt>
      <trkpt lat="45.87207" lon="4.65124">
        <ele>222</ele>
        <time>2018-08-02T08:57:01Z</time>
      </trkpt>
      <trkpt lat="45.87212" lon="4.65122">
        <ele>222</ele>
        <time>2018-08-02T08:57:02Z</time>
      </trkpt>
      <trkpt lat="45.87217" lon="4.65118">
        <ele>222</ele>
        <time>2018-08-02T08:57:03Z</time>
      </trkpt>
      <trkpt lat="45.8722" lon="4.65115">
        <ele>222</ele>
        <time>2018-08-02T08:57:04Z</time>
      </trkpt>
      <trkpt lat="45.87225" lon="4.65112">
        <ele>222</ele>
        <time>2018-08-02T08:57:05Z</time>
      </trkpt>
      <trkpt lat="45.87229" lon="4.65108">
        <ele>221</ele>
        <time>2018-08-02T08:57:06Z</time>
      </trkpt>
      <trkpt lat="45.87233" lon="4.65106">
        <ele>221</ele>
        <time>2018-08-02T08:57:07Z</time>
      </trkpt>
      <trkpt lat="45.87238" lon="4.65101">
        <ele>221</ele>
        <time>2018-08-02T08:57:08Z</time>
      </trkpt>
      <trkpt lat="45.87243" lon="4.65099">
        <ele>221</ele>
        <time>2018-08-02T08:57:09Z</time>
      </trkpt>
      <trkpt lat="45.87247" lon="4.65096">
        <ele>220</ele>
        <time>2018-08-02T08:57:10Z</time>
      </trkpt>
      <trkpt lat="45.87251" lon="4.65094">
        <ele>224</ele>
        <time>2018-08-02T08:57:11Z</time>
      </trkpt>
      <trkpt lat="45.87255" lon="4.65088">
        <ele>222</ele>
        <time>2018-08-02T08:57:12Z</time>
      </trkpt>
      <trkpt lat="45.87261" lon="4.65081">
        <ele>219</ele>
        <time>2018-08-02T08:57:14Z</time>
      </trkpt>
      <trkpt lat="45.87266" lon="4.65077">
        <ele>219</ele>
        <time>2018-08-02T08:57:15Z</time>
      </trkpt>
      <trkpt lat="45.87266" lon="4.65074">
        <ele>219</ele>
        <time>2018-08-02T08:57:16Z</time>
      </trkpt>
      <trkpt lat="45.87271" lon="4.65066">
        <ele>219</ele>
        <time>2018-08-02T08:57:17Z</time>
      </trkpt>
      <trkpt lat="45.87275" lon="4.6506">
        <ele>220</ele>
        <time>2018-08-02T08:57:18Z</time>
      </trkpt>
      <trkpt lat="45.8728" lon="4.65057">
        <ele>220</ele>
        <time>2018-08-02T08:57:19Z</time>
      </trkpt>
      <trkpt lat="45.87282" lon="4.65053">
        <ele>220</ele>
        <time>2018-08-02T08:57:20Z</time>
      </trkpt>
      <trkpt lat="45.87287" lon="4.65047">
        <ele>220</ele>
        <time>2018-08-02T08:57:21Z</time>
      </trkpt>
      <trkpt lat="45.87291" lon="4.65042">
        <ele>220</ele>
        <time>2018-08-02T08:57:22Z</time>
      </trkpt>
      <trkpt lat="45.87295" lon="4.65037">
        <ele>220</ele>
        <time>2018-08-02T08:57:23Z</time>
      </trkpt>
      <trkpt lat="45.87298" lon="4.65033">
        <ele>220</ele>
        <time>2018-08-02T08:57:24Z</time>
      </trkpt>
      <trkpt lat="45.87301" lon="4.65027">
        <ele>219</ele>
        <time>2018-08-02T08:57:25Z</time>
      </trkpt>
      <trkpt lat="45.87306" lon="4.65021">
        <ele>219</ele>
        <time>2018-08-02T08:57:26Z</time>
      </trkpt>
      <trkpt lat="45.87309" lon="4.65014">
        <ele>219</ele>
        <time>2018-08-02T08:57:27Z</time>
      </trkpt>
      <trkpt lat="45.87312" lon="4.65008">
        <ele>219</ele>
        <time>2018-08-02T08:57:28Z</time>
      </trkpt>
      <trkpt lat="45.87316" lon="4.65001">
        <ele>219</ele>
        <time>2018-08-02T08:57:29Z</time>
      </trkpt>
      <trkpt lat="45.8732" lon="4.64994">
        <ele>216</ele>
        <time>2018-08-02T08:57:30Z</time>
      </trkpt>
      <trkpt lat="45.87324" lon="4.64989">
        <ele>216</ele>
        <time>2018-08-02T08:57:31Z</time>
      </trkpt>
      <trkpt lat="45.87326" lon="4.64982">
        <ele>215</ele>
        <time>2018-08-02T08:57:32Z</time>
      </trkpt>
      <trkpt lat="45.87329" lon="4.64976">
        <ele>215</ele>
        <time>2018-08-02T08:57:33Z</time>
      </trkpt>
      <trkpt lat="45.87332" lon="4.64969">
        <ele>214</ele>
        <time>2018-08-02T08:57:34Z</time>
      </trkpt>
      <trkpt lat="45.87334" lon="4.64963">
        <ele>219</ele>
        <time>2018-08-02T08:57:35Z</time>
      </trkpt>
      <trkpt lat="45.87338" lon="4.64957">
        <ele>218</ele>
        <time>2018-08-02T08:57:36Z</time>
      </trkpt>
      <trkpt lat="45.87342" lon="4.6495">
        <ele>218</ele>
        <time>2018-08-02T08:57:37Z</time>
      </trkpt>
      <trkpt lat="45.87346" lon="4.64945">
        <ele>218</ele>
        <time>2018-08-02T08:57:38Z</time>
      </trkpt>
      <trkpt lat="45.8735" lon="4.6494">
        <ele>217</ele>
        <time>2018-08-02T08:57:39Z</time>
      </trkpt>
      <trkpt lat="45.87353" lon="4.64931">
        <ele>217</ele>
        <time>2018-08-02T08:57:40Z</time>
      </trkpt>
      <trkpt lat="45.87357" lon="4.64925">
        <ele>217</ele>
        <time>2018-08-02T08:57:41Z</time>
      </trkpt>
      <trkpt lat="45.8736" lon="4.64918">
        <ele>217</ele>
        <time>2018-08-02T08:57:42Z</time>
      </trkpt>
      <trkpt lat="45.87363" lon="4.64912">
        <ele>214</ele>
        <time>2018-08-02T08:57:43Z</time>
      </trkpt>
      <trkpt lat="45.87368" lon="4.64909">
        <ele>214</ele>
        <time>2018-08-02T08:57:44Z</time>
      </trkpt>
      <trkpt lat="45.87372" lon="4.64903">
        <ele>215</ele>
        <time>2018-08-02T08:57:45Z</time>
      </trkpt>
      <trkpt lat="45.87376" lon="4.64898">
        <ele>215</ele>
        <time>2018-08-02T08:57:46Z</time>
      </trkpt>
      <trkpt lat="45.8738" lon="4.64893">
        <ele>215</ele>
        <time>2018-08-02T08:57:47Z</time>
      </trkpt>
      <trkpt lat="45.87384" lon="4.64889">
        <ele>215</ele>
        <time>2018-08-02T08:57:48Z</time>
      </trkpt>
      <trkpt lat="45.87388" lon="4.64885">
        <ele>215</ele>
        <time>2018-08-02T08:57:49Z</time>
      </trkpt>
      <trkpt lat="45.87392" lon="4.64881">
        <ele>215</ele>
        <time>2018-08-02T08:57:50Z</time>
      </trkpt>
      <trkpt lat="45.87396" lon="4.64875">
        <ele>215</ele>
        <time>2018-08-02T08:57:51Z</time>
      </trkpt>
      <trkpt lat="45.87399" lon="4.6487">
        <ele>215</ele>
        <time>2018-08-02T08:57:52Z</time>
      </trkpt>
      <trkpt lat="45.87403" lon="4.64865">
        <ele>215</ele>
        <time>2018-08-02T08:57:53Z</time>
      </trkpt>
      <trkpt lat="45.87408" lon="4.64859">
        <ele>215</ele>
        <time>2018-08-02T08:57:54Z</time>
      </trkpt>
      <trkpt lat="45.87413" lon="4.64854">
        <ele>215</ele>
        <time>2018-08-02T08:57:55Z</time>
      </trkpt>
      <trkpt lat="45.87417" lon="4.64849">
        <ele>218</ele>
        <time>2018-08-02T08:57:56Z</time>
      </trkpt>
      <trkpt lat="45.87422" lon="4.64843">
        <ele>217</ele>
        <time>2018-08-02T08:57:57Z</time>
      </trkpt>
      <trkpt lat="45.87427" lon="4.64836">
        <ele>217</ele>
        <time>2018-08-02T08:57:58Z</time>
      </trkpt>
      <trkpt lat="45.87431" lon="4.6483">
        <ele>215</ele>
        <time>2018-08-02T08:57:59Z</time>
      </trkpt>
      <trkpt lat="45.87436" lon="4.64825">
        <ele>215</ele>
        <time>2018-08-02T08:58:00Z</time>
      </trkpt>
      <trkpt lat="45.8744" lon="4.6482">
        <ele>215</ele>
        <time>2018-08-02T08:58:01Z</time>
      </trkpt>
      <trkpt lat="45.87443" lon="4.64815">
        <ele>215</ele>
        <time>2018-08-02T08:58:02Z</time>
      </trkpt>
      <trkpt lat="45.87447" lon="4.64809">
        <ele>215</ele>
        <time>2018-08-02T08:58:03Z</time>
      </trkpt>
      <trkpt lat="45.87451" lon="4.64805">
        <ele>214</ele>
        <time>2018-08-02T08:58:04Z</time>
      </trkpt>
      <trkpt lat="45.87455" lon="4.64799">
        <ele>214</ele>
        <time>2018-08-02T08:58:05Z</time>
      </trkpt>
      <trkpt lat="45.87458" lon="4.64794">
        <ele>214</ele>
        <time>2018-08-02T08:58:06Z</time>
      </trkpt>
      <trkpt lat="45.87463" lon="4.64788">
        <ele>214</ele>
        <time>2018-08-02T08:58:07Z</time>
      </trkpt>
      <trkpt lat="45.87467" lon="4.64782">
        <ele>214</ele>
        <time>2018-08-02T08:58:08Z</time>
      </trkpt>
      <trkpt lat="45.87471" lon="4.64776">
        <ele>214</ele>
        <time>2018-08-02T08:58:09Z</time>
      </trkpt>
      <trkpt lat="45.87475" lon="4.6477">
        <ele>214</ele>
        <time>2018-08-02T08:58:10Z</time>
      </trkpt>
      <trkpt lat="45.87479" lon="4.64764">
        <ele>214</ele>
        <time>2018-08-02T08:58:11Z</time>
      </trkpt>
      <trkpt lat="45.87484" lon="4.64759">
        <ele>214</ele>
        <time>2018-08-02T08:58:12Z</time>
      </trkpt>
      <trkpt lat="45.87487" lon="4.64754">
        <ele>213</ele>
        <time>2018-08-02T08:58:13Z</time>
      </trkpt>
      <trkpt lat="45.87491" lon="4.64749">
        <ele>213</ele>
        <time>2018-08-02T08:58:14Z</time>
      </trkpt>
      <trkpt lat="45.87496" lon="4.64745">
        <ele>213</ele>
        <time>2018-08-02T08:58:15Z</time>
      </trkpt>
      <trkpt lat="45.87502" lon="4.64738">
        <ele>213</ele>
        <time>2018-08-02T08:58:17Z</time>
      </trkpt>
      <trkpt lat="45.87505" lon="4.64735">
        <ele>213</ele>
        <time>2018-08-02T08:58:18Z</time>
      </trkpt>
      <trkpt lat="45.87511" lon="4.64727">
        <ele>213</ele>
        <time>2018-08-02T08:58:20Z</time>
      </trkpt>
      <trkpt lat="45.87514" lon="4.64723">
        <ele>213</ele>
        <time>2018-08-02T08:58:21Z</time>
      </trkpt>
      <trkpt lat="45.8752" lon="4.64714">
        <ele>212</ele>
        <time>2018-08-02T08:58:23Z</time>
      </trkpt>
      <trkpt lat="45.87521" lon="4.64712">
        <ele>212</ele>
        <time>2018-08-02T08:58:24Z</time>
      </trkpt>
      <trkpt lat="45.87526" lon="4.64705">
        <ele>212</ele>
        <time>2018-08-02T08:58:26Z</time>
      </trkpt>
      <trkpt lat="45.8753" lon="4.647">
        <ele>212</ele>
        <time>2018-08-02T08:58:27Z</time>
      </trkpt>
      <trkpt lat="45.87536" lon="4.64692">
        <ele>212</ele>
        <time>2018-08-02T08:58:29Z</time>
      </trkpt>
      <trkpt lat="45.8754" lon="4.64686">
        <ele>212</ele>
        <time>2018-08-02T08:58:30Z</time>
      </trkpt>
      <trkpt lat="45.87543" lon="4.64682">
        <ele>212</ele>
        <time>2018-08-02T08:58:31Z</time>
      </trkpt>
      <trkpt lat="45.87545" lon="4.64675">
        <ele>212</ele>
        <time>2018-08-02T08:58:32Z</time>
      </trkpt>
      <trkpt lat="45.87549" lon="4.6467">
        <ele>212</ele>
        <time>2018-08-02T08:58:33Z</time>
      </trkpt>
      <trkpt lat="45.87552" lon="4.64664">
        <ele>212</ele>
        <time>2018-08-02T08:58:34Z</time>
      </trkpt>
      <trkpt lat="45.87554" lon="4.64658">
        <ele>212</ele>
        <time>2018-08-02T08:58:35Z</time>
      </trkpt>
      <trkpt lat="45.87557" lon="4.64653">
        <ele>212</ele>
        <time>2018-08-02T08:58:36Z</time>
      </trkpt>
      <trkpt lat="45.87564" lon="4.64646">
        <ele>212</ele>
        <time>2018-08-02T08:58:38Z</time>
      </trkpt>
      <trkpt lat="45.8757" lon="4.64637">
        <ele>212</ele>
        <time>2018-08-02T08:58:39Z</time>
      </trkpt>
      <trkpt lat="45.87574" lon="4.64632">
        <ele>212</ele>
        <time>2018-08-02T08:58:40Z</time>
      </trkpt>
      <trkpt lat="45.87578" lon="4.64626">
        <ele>212</ele>
        <time>2018-08-02T08:58:41Z</time>
      </trkpt>
      <trkpt lat="45.8758" lon="4.64621">
        <ele>212</ele>
        <time>2018-08-02T08:58:42Z</time>
      </trkpt>
      <trkpt lat="45.87584" lon="4.64615">
        <ele>212</ele>
        <time>2018-08-02T08:58:43Z</time>
      </trkpt>
      <trkpt lat="45.87587" lon="4.6461">
        <ele>212</ele>
        <time>2018-08-02T08:58:44Z</time>
      </trkpt>
      <trkpt lat="45.87591" lon="4.64605">
        <ele>212</ele>
        <time>2018-08-02T08:58:45Z</time>
      </trkpt>
      <trkpt lat="45.87598" lon="4.64597">
        <ele>212</ele>
        <time>2018-08-02T08:58:47Z</time>
      </trkpt>
      <trkpt lat="45.876" lon="4.64595">
        <ele>212</ele>
        <time>2018-08-02T08:58:48Z</time>
      </trkpt>
      <trkpt lat="45.87605" lon="4.6459">
        <ele>212</ele>
        <time>2018-08-02T08:58:49Z</time>
      </trkpt>
      <trkpt lat="45.8761" lon="4.64585">
        <ele>212</ele>
        <time>2018-08-02T08:58:50Z</time>
      </trkpt>
      <trkpt lat="45.87614" lon="4.64579">
        <ele>212</ele>
        <time>2018-08-02T08:58:51Z</time>
      </trkpt>
      <trkpt lat="45.87617" lon="4.64574">
        <ele>212</ele>
        <time>2018-08-02T08:58:52Z</time>
      </trkpt>
      <trkpt lat="45.87621" lon="4.64568">
        <ele>212</ele>
        <time>2018-08-02T08:58:53Z</time>
      </trkpt>
      <trkpt lat="45.87626" lon="4.64563">
        <ele>212</ele>
        <time>2018-08-02T08:58:54Z</time>
      </trkpt>
      <trkpt lat="45.87632" lon="4.64556">
        <ele>212</ele>
        <time>2018-08-02T08:58:56Z</time>
      </trkpt>
      <trkpt lat="45.87636" lon="4.64552">
        <ele>212</ele>
        <time>2018-08-02T08:58:57Z</time>
      </trkpt>
      <trkpt lat="45.87642" lon="4.64545">
        <ele>212</ele>
        <time>2018-08-02T08:58:59Z</time>
      </trkpt>
      <trkpt lat="45.87646" lon="4.6454">
        <ele>213</ele>
        <time>2018-08-02T08:59:00Z</time>
      </trkpt>
      <trkpt lat="45.87651" lon="4.6453">
        <ele>213</ele>
        <time>2018-08-02T08:59:02Z</time>
      </trkpt>
      <trkpt lat="45.87654" lon="4.64526">
        <ele>213</ele>
        <time>2018-08-02T08:59:03Z</time>
      </trkpt>
      <trkpt lat="45.87661" lon="4.64518">
        <ele>213</ele>
        <time>2018-08-02T08:59:05Z</time>
      </trkpt>
      <trkpt lat="45.87663" lon="4.64515">
        <ele>213</ele>
        <time>2018-08-02T08:59:06Z</time>
      </trkpt>
      <trkpt lat="45.87668" lon="4.64508">
        <ele>214</ele>
        <time>2018-08-02T08:59:08Z</time>
      </trkpt>
      <trkpt lat="45.8767" lon="4.64503">
        <ele>214</ele>
        <time>2018-08-02T08:59:09Z</time>
      </trkpt>
      <trkpt lat="45.87679" lon="4.645">
        <ele>214</ele>
        <time>2018-08-02T08:59:11Z</time>
      </trkpt>
      <trkpt lat="45.8768" lon="4.64499">
        <ele>214</ele>
        <time>2018-08-02T08:59:12Z</time>
      </trkpt>
      <trkpt lat="45.87686" lon="4.64509">
        <ele>215</ele>
        <time>2018-08-02T08:59:14Z</time>
      </trkpt>
      <trkpt lat="45.87688" lon="4.64511">
        <ele>215</ele>
        <time>2018-08-02T08:59:15Z</time>
      </trkpt>
      <trkpt lat="45.87692" lon="4.64515">
        <ele>215</ele>
        <time>2018-08-02T08:59:16Z</time>
      </trkpt>
      <trkpt lat="45.87694" lon="4.64521">
        <ele>215</ele>
        <time>2018-08-02T08:59:17Z</time>
      </trkpt>
      <trkpt lat="45.87699" lon="4.64529">
        <ele>215</ele>
        <time>2018-08-02T08:59:19Z</time>
      </trkpt>
      <trkpt lat="45.87702" lon="4.64533">
        <ele>216</ele>
        <time>2018-08-02T08:59:20Z</time>
      </trkpt>
      <trkpt lat="45.87708" lon="4.6454">
        <ele>216</ele>
        <time>2018-08-02T08:59:22Z</time>
      </trkpt>
      <trkpt lat="45.87709" lon="4.64542">
        <ele>216</ele>
        <time>2018-08-02T08:59:23Z</time>
      </trkpt>
      <trkpt lat="45.87714" lon="4.64548">
        <ele>216</ele>
        <time>2018-08-02T08:59:26Z</time>
      </trkpt>
      <trkpt lat="45.87716" lon="4.64551">
        <ele>216</ele>
        <time>2018-08-02T08:59:27Z</time>
      </trkpt>
      <trkpt lat="45.87722" lon="4.64559">
        <ele>216</ele>
        <time>2018-08-02T08:59:31Z</time>
      </trkpt>
      <trkpt lat="45.87723" lon="4.64561">
        <ele>217</ele>
        <time>2018-08-02T08:59:32Z</time>
      </trkpt>
      <trkpt lat="45.87719" lon="4.6455">
        <ele>216</ele>
        <time>2018-08-02T09:00:02Z</time>
      </trkpt>
      <trkpt lat="45.87719" lon="4.64549">
        <ele>216</ele>
        <time>2018-08-02T09:00:03Z</time>
      </trkpt>
      <trkpt lat="45.87713" lon="4.64539">
        <ele>216</ele>
        <time>2018-08-02T09:00:14Z</time>
      </trkpt>
      <trkpt lat="45.87713" lon="4.64539">
        <ele>216</ele>
        <time>2018-08-02T09:00:15Z</time>
      </trkpt>
      <trkpt lat="45.87719" lon="4.64547">
        <ele>216</ele>
        <time>2018-08-02T09:01:17Z</time>
      </trkpt>
      <trkpt lat="45.8772" lon="4.64548">
        <ele>216</ele>
        <time>2018-08-02T09:01:18Z</time>
      </trkpt>
      <trkpt lat="45.87721" lon="4.64559">
        <ele>216</ele>
        <time>2018-08-02T09:01:48Z</time>
      </trkpt>
      <trkpt lat="45.87722" lon="4.64562">
        <ele>217</ele>
        <time>2018-08-02T09:01:49Z</time>
      </trkpt>
      <trkpt lat="45.87722" lon="4.64573">
        <ele>217</ele>
        <time>2018-08-02T09:01:52Z</time>
      </trkpt>
      <trkpt lat="45.87722" lon="4.64578">
        <ele>217</ele>
        <time>2018-08-02T09:01:53Z</time>
      </trkpt>
      <trkpt lat="45.87722" lon="4.64585">
        <ele>217</ele>
        <time>2018-08-02T09:01:54.59Z</time>
      </trkpt>
      <trkpt lat="45.87723" lon="4.64598">
        <ele>217</ele>
        <time>2018-08-02T09:01:55Z</time>
      </trkpt>
      <trkpt lat="45.87724" lon="4.64608">
        <ele>217</ele>
        <time>2018-08-02T09:01:57Z</time>
      </trkpt>
      <trkpt lat="45.87724" lon="4.64611">
        <ele>217</ele>
        <time>2018-08-02T09:01:58Z</time>
      </trkpt>
      <trkpt lat="45.8773" lon="4.64635">
        <ele>217</ele>
        <time>2018-08-02T09:01:59Z</time>
      </trkpt>
      <trkpt lat="45.87729" lon="4.64644">
        <ele>217</ele>
        <time>2018-08-02T09:02:01Z</time>
      </trkpt>
      <trkpt lat="45.87729" lon="4.64649">
        <ele>217</ele>
        <time>2018-08-02T09:02:02Z</time>
      </trkpt>
      <trkpt lat="45.87728" lon="4.64657">
        <ele>217</ele>
        <time>2018-08-02T09:02:03Z</time>
      </trkpt>
      <trkpt lat="45.87727" lon="4.64663">
        <ele>217</ele>
        <time>2018-08-02T09:02:04Z</time>
      </trkpt>
      <trkpt lat="45.87726" lon="4.64674">
        <ele>216</ele>
        <time>2018-08-02T09:02:06Z</time>
      </trkpt>
      <trkpt lat="45.87724" lon="4.6468">
        <ele>216</ele>
        <time>2018-08-02T09:02:07Z</time>
      </trkpt>
      <trkpt lat="45.87723" lon="4.64691">
        <ele>216</ele>
        <time>2018-08-02T09:02:09Z</time>
      </trkpt>
      <trkpt lat="45.87723" lon="4.64697">
        <ele>215</ele>
        <time>2018-08-02T09:02:10Z</time>
      </trkpt>
      <trkpt lat="45.87723" lon="4.64707">
        <ele>215</ele>
        <time>2018-08-02T09:02:12Z</time>
      </trkpt>
      <trkpt lat="45.87723" lon="4.64713">
        <ele>215</ele>
        <time>2018-08-02T09:02:13Z</time>
      </trkpt>
      <trkpt lat="45.87726" lon="4.64722">
        <ele>215</ele>
        <time>2018-08-02T09:02:14Z</time>
      </trkpt>
      <trkpt lat="45.87727" lon="4.6473">
        <ele>215</ele>
        <time>2018-08-02T09:02:15Z</time>
      </trkpt>
      <trkpt lat="45.87728" lon="4.64742">
        <ele>214</ele>
        <time>2018-08-02T09:02:17Z</time>
      </trkpt>
      <trkpt lat="45.87729" lon="4.64744">
        <ele>214</ele>
        <time>2018-08-02T09:02:18Z</time>
      </trkpt>
      <trkpt lat="45.87729" lon="4.64747">
        <ele>214</ele>
        <time>2018-08-02T09:02:19Z</time>
      </trkpt>
      <trkpt lat="45.87731" lon="4.64757">
        <ele>213</ele>
        <time>2018-08-02T09:02:20Z</time>
      </trkpt>
      <trkpt lat="45.87734" lon="4.64767">
        <ele>213</ele>
        <time>2018-08-02T09:02:22Z</time>
      </trkpt>
      <trkpt lat="45.87734" lon="4.64772">
        <ele>213</ele>
        <time>2018-08-02T09:02:23Z</time>
      </trkpt>
      <trkpt lat="45.87736" lon="4.64782">
        <ele>213</ele>
        <time>2018-08-02T09:02:25Z</time>
      </trkpt>
      <trkpt lat="45.87737" lon="4.64784">
        <ele>213</ele>
        <time>2018-08-02T09:02:26Z</time>
      </trkpt>
      <trkpt lat="45.8774" lon="4.6479">
        <ele>213</ele>
        <time>2018-08-02T09:02:27Z</time>
      </trkpt>
      <trkpt lat="45.87742" lon="4.64795">
        <ele>214</ele>
        <time>2018-08-02T09:02:28Z</time>
      </trkpt>
      <trkpt lat="45.87745" lon="4.648">
        <ele>214</ele>
        <time>2018-08-02T09:02:30Z</time>
      </trkpt>
      <trkpt lat="45.87749" lon="4.64808">
        <ele>214</ele>
        <time>2018-08-02T09:02:31Z</time>
      </trkpt>
      <trkpt lat="45.87755" lon="4.64816">
        <ele>214</ele>
        <time>2018-08-02T09:02:33Z</time>
      </trkpt>
      <trkpt lat="45.87756" lon="4.64818">
        <ele>214</ele>
        <time>2018-08-02T09:02:34Z</time>
      </trkpt>
      <trkpt lat="45.87761" lon="4.64825">
        <ele>214</ele>
        <time>2018-08-02T09:02:37Z</time>
      </trkpt>
      <trkpt lat="45.87766" lon="4.64832">
        <ele>214</ele>
        <time>2018-08-02T09:02:38Z</time>
      </trkpt>
      <trkpt lat="45.87768" lon="4.64837">
        <ele>216</ele>
        <time>2018-08-02T09:02:40Z</time>
      </trkpt>
      <trkpt lat="45.87772" lon="4.64844">
        <ele>217</ele>
        <time>2018-08-02T09:02:41Z</time>
      </trkpt>
      <trkpt lat="45.87778" lon="4.64853">
        <ele>217</ele>
        <time>2018-08-02T09:02:45Z</time>
      </trkpt>
      <trkpt lat="45.87779" lon="4.64855">
        <ele>217</ele>
        <time>2018-08-02T09:02:46Z</time>
      </trkpt>
      <trkpt lat="45.87784" lon="4.64863">
        <ele>218</ele>
        <time>2018-08-02T09:02:49Z</time>
      </trkpt>
      <trkpt lat="45.87786" lon="4.64866">
        <ele>218</ele>
        <time>2018-08-02T09:02:50Z</time>
      </trkpt>
      <trkpt lat="45.87791" lon="4.64872">
        <ele>218</ele>
        <time>2018-08-02T09:02:53Z</time>
      </trkpt>
      <trkpt lat="45.87793" lon="4.64874">
        <ele>218</ele>
        <time>2018-08-02T09:02:54Z</time>
      </trkpt>
      <trkpt lat="45.87798" lon="4.64885">
        <ele>219</ele>
        <time>2018-08-02T09:02:58Z</time>
      </trkpt>
      <trkpt lat="45.87799" lon="4.64888">
        <ele>219</ele>
        <time>2018-08-02T09:02:59Z</time>
      </trkpt>
      <trkpt lat="45.87803" lon="4.64899">
        <ele>220</ele>
        <time>2018-08-02T09:03:03Z</time>
      </trkpt>
      <trkpt lat="45.87804" lon="4.64902">
        <ele>220</ele>
        <time>2018-08-02T09:03:04Z</time>
      </trkpt>
      <trkpt lat="45.87808" lon="4.6491">
        <ele>220</ele>
        <time>2018-08-02T09:03:07Z</time>
      </trkpt>
      <trkpt lat="45.87809" lon="4.64912">
        <ele>220</ele>
        <time>2018-08-02T09:03:08Z</time>
      </trkpt>
      <trkpt lat="45.87813" lon="4.6492">
        <ele>224</ele>
        <time>2018-08-02T09:03:11Z</time>
      </trkpt>
      <trkpt lat="45.87814" lon="4.64922">
        <ele>224</ele>
        <time>2018-08-02T09:03:12Z</time>
      </trkpt>
      <trkpt lat="45.87819" lon="4.64931">
        <ele>224</ele>
        <time>2018-08-02T09:03:16Z</time>
      </trkpt>
      <trkpt lat="45.8782" lon="4.64933">
        <ele>224</ele>
        <time>2018-08-02T09:03:17Z</time>
      </trkpt>
      <trkpt lat="45.87826" lon="4.64942">
        <ele>225</ele>
        <time>2018-08-02T09:03:21Z</time>
      </trkpt>
      <trkpt lat="45.87827" lon="4.64944">
        <ele>225</ele>
        <time>2018-08-02T09:03:22Z</time>
      </trkpt>
      <trkpt lat="45.87834" lon="4.6495">
        <ele>227</ele>
        <time>2018-08-02T09:03:26Z</time>
      </trkpt>
      <trkpt lat="45.87836" lon="4.64951">
        <ele>227</ele>
        <time>2018-08-02T09:03:27Z</time>
      </trkpt>
      <trkpt lat="45.87842" lon="4.64959">
        <ele>228</ele>
        <time>2018-08-02T09:03:31Z</time>
      </trkpt>
      <trkpt lat="45.87844" lon="4.64961">
        <ele>228</ele>
        <time>2018-08-02T09:03:32Z</time>
      </trkpt>
      <trkpt lat="45.87851" lon="4.64967">
        <ele>229</ele>
        <time>2018-08-02T09:03:36Z</time>
      </trkpt>
      <trkpt lat="45.87853" lon="4.64968">
        <ele>229</ele>
        <time>2018-08-02T09:03:37Z</time>
      </trkpt>
      <trkpt lat="45.8786" lon="4.64973">
        <ele>229</ele>
        <time>2018-08-02T09:03:41Z</time>
      </trkpt>
      <trkpt lat="45.87862" lon="4.64974">
        <ele>229</ele>
        <time>2018-08-02T09:03:42Z</time>
      </trkpt>
      <trkpt lat="45.87869" lon="4.64978">
        <ele>230</ele>
        <time>2018-08-02T09:03:46Z</time>
      </trkpt>
      <trkpt lat="45.87871" lon="4.64978">
        <ele>230</ele>
        <time>2018-08-02T09:03:47Z</time>
      </trkpt>
      <trkpt lat="45.87878" lon="4.64981">
        <ele>230</ele>
        <time>2018-08-02T09:03:51Z</time>
      </trkpt>
      <trkpt lat="45.8788" lon="4.64981">
        <ele>230</ele>
        <time>2018-08-02T09:03:52Z</time>
      </trkpt>
      <trkpt lat="45.87887" lon="4.64982">
        <ele>231</ele>
        <time>2018-08-02T09:03:56Z</time>
      </trkpt>
      <trkpt lat="45.87889" lon="4.64982">
        <ele>231</ele>
        <time>2018-08-02T09:03:57Z</time>
      </trkpt>
      <trkpt lat="45.87897" lon="4.64984">
        <ele>232</ele>
        <time>2018-08-02T09:04:01Z</time>
      </trkpt>
      <trkpt lat="45.87899" lon="4.64984">
        <ele>232</ele>
        <time>2018-08-02T09:04:02Z</time>
      </trkpt>
      <trkpt lat="45.87908" lon="4.64984">
        <ele>233</ele>
        <time>2018-08-02T09:04:06Z</time>
      </trkpt>
      <trkpt lat="45.8791" lon="4.64984">
        <ele>233</ele>
        <time>2018-08-02T09:04:07Z</time>
      </trkpt>
      <trkpt lat="45.87917" lon="4.64984">
        <ele>237</ele>
        <time>2018-08-02T09:04:11Z</time>
      </trkpt>
      <trkpt lat="45.87919" lon="4.64984">
        <ele>237</ele>
        <time>2018-08-02T09:04:12Z</time>
      </trkpt>
      <trkpt lat="45.87926" lon="4.64983">
        <ele>237</ele>
        <time>2018-08-02T09:04:16Z</time>
      </trkpt>
      <trkpt lat="45.87936" lon="4.64979">
        <ele>237</ele>
        <time>2018-08-02T09:04:17Z</time>
      </trkpt>
      <trkpt lat="45.87944" lon="4.64976">
        <ele>237</ele>
        <time>2018-08-02T09:04:23Z</time>
      </trkpt>
      <trkpt lat="45.87945" lon="4.64976">
        <ele>237</ele>
        <time>2018-08-02T09:04:24Z</time>
      </trkpt>
      <trkpt lat="45.87952" lon="4.64975">
        <ele>238</ele>
        <time>2018-08-02T09:04:29Z</time>
      </trkpt>
      <trkpt lat="45.87954" lon="4.64974">
        <ele>238</ele>
        <time>2018-08-02T09:04:30Z</time>
      </trkpt>
      <trkpt lat="45.87961" lon="4.64966">
        <ele>238</ele>
        <time>2018-08-02T09:04:33Z</time>
      </trkpt>
      <trkpt lat="45.87963" lon="4.64964">
        <ele>238</ele>
        <time>2018-08-02T09:04:34Z</time>
      </trkpt>
      <trkpt lat="45.87969" lon="4.64956">
        <ele>237</ele>
        <time>2018-08-02T09:04:37Z</time>
      </trkpt>
      <trkpt lat="45.87971" lon="4.64953">
        <ele>237</ele>
        <time>2018-08-02T09:04:38Z</time>
      </trkpt>
      <trkpt lat="45.87977" lon="4.64946">
        <ele>237</ele>
        <time>2018-08-02T09:04:40Z</time>
      </trkpt>
      <trkpt lat="45.87986" lon="4.6494">
        <ele>237</ele>
        <time>2018-08-02T09:04:41Z</time>
      </trkpt>
      <trkpt lat="45.87995" lon="4.64943">
        <ele>237</ele>
        <time>2018-08-02T09:04:49Z</time>
      </trkpt>
      <trkpt lat="45.87996" lon="4.64943">
        <ele>237</ele>
        <time>2018-08-02T09:04:50Z</time>
      </trkpt>
      <trkpt lat="45.88003" lon="4.64936">
        <ele>244</ele>
        <time>2018-08-02T09:04:54Z</time>
      </trkpt>
      <trkpt lat="45.88004" lon="4.64933">
        <ele>243</ele>
        <time>2018-08-02T09:04:55Z</time>
      </trkpt>
      <trkpt lat="45.8801" lon="4.64926">
        <ele>242</ele>
        <time>2018-08-02T09:04:59Z</time>
      </trkpt>
      <trkpt lat="45.88012" lon="4.64925">
        <ele>242</ele>
        <time>2018-08-02T09:05:00Z</time>
      </trkpt>
      <trkpt lat="45.88018" lon="4.64921">
        <ele>244</ele>
        <time>2018-08-02T09:05:04Z</time>
      </trkpt>
      <trkpt lat="45.8802" lon="4.64919">
        <ele>244</ele>
        <time>2018-08-02T09:05:05Z</time>
      </trkpt>
      <trkpt lat="45.88027" lon="4.64912">
        <ele>238</ele>
        <time>2018-08-02T09:05:09Z</time>
      </trkpt>
      <trkpt lat="45.88028" lon="4.6491">
        <ele>238</ele>
        <time>2018-08-02T09:05:10Z</time>
      </trkpt>
      <trkpt lat="45.88034" lon="4.64904">
        <ele>239</ele>
        <time>2018-08-02T09:05:13Z</time>
      </trkpt>
      <trkpt lat="45.88037" lon="4.64902">
        <ele>239</ele>
        <time>2018-08-02T09:05:14Z</time>
      </trkpt>
      <trkpt lat="45.88043" lon="4.64896">
        <ele>240</ele>
        <time>2018-08-02T09:05:17.579Z</time>
      </trkpt>
      <trkpt lat="45.88045" lon="4.64894">
        <ele>240</ele>
        <time>2018-08-02T09:05:18Z</time>
      </trkpt>
      <trkpt lat="45.88051" lon="4.64888">
        <ele>240</ele>
        <time>2018-08-02T09:05:21Z</time>
      </trkpt>
      <trkpt lat="45.88052" lon="4.64886">
        <ele>240</ele>
        <time>2018-08-02T09:05:22Z</time>
      </trkpt>
      <trkpt lat="45.88059" lon="4.64879">
        <ele>240</ele>
        <time>2018-08-02T09:05:28Z</time>
      </trkpt>
      <trkpt lat="45.8806" lon="4.64878">
        <ele>240</ele>
        <time>2018-08-02T09:05:29Z</time>
      </trkpt>
      <trkpt lat="45.88067" lon="4.64874">
        <ele>240</ele>
        <time>2018-08-02T09:05:34Z</time>
      </trkpt>
      <trkpt lat="45.88069" lon="4.64873">
        <ele>240</ele>
        <time>2018-08-02T09:05:35Z</time>
      </trkpt>
      <trkpt lat="45.88076" lon="4.64869">
        <ele>239</ele>
        <time>2018-08-02T09:05:38Z</time>
      </trkpt>
      <trkpt lat="45.88078" lon="4.64868">
        <ele>239</ele>
        <time>2018-08-02T09:05:39Z</time>
      </trkpt>
      <trkpt lat="45.88086" lon="4.64864">
        <ele>246</ele>
        <time>2018-08-02T09:05:43Z</time>
      </trkpt>
      <trkpt lat="45.881" lon="4.64847">
        <ele>244</ele>
        <time>2018-08-02T09:05:44Z</time>
      </trkpt>
      <trkpt lat="45.88108" lon="4.64843">
        <ele>245</ele>
        <time>2018-08-02T09:05:47Z</time>
      </trkpt>
      <trkpt lat="45.8811" lon="4.64841">
        <ele>245</ele>
        <time>2018-08-02T09:05:48Z</time>
      </trkpt>
      <trkpt lat="45.88118" lon="4.64848">
        <ele>246</ele>
        <time>2018-08-02T09:05:58Z</time>
      </trkpt>
      <trkpt lat="45.88119" lon="4.64849">
        <ele>246</ele>
        <time>2018-08-02T09:05:59Z</time>
      </trkpt>
      <trkpt lat="45.88128" lon="4.64851">
        <ele>247</ele>
        <time>2018-08-02T09:06:04Z</time>
      </trkpt>
      <trkpt lat="45.8813" lon="4.6485">
        <ele>247</ele>
        <time>2018-08-02T09:06:05Z</time>
      </trkpt>
      <trkpt lat="45.88137" lon="4.64847">
        <ele>247</ele>
        <time>2018-08-02T09:06:08Z</time>
      </trkpt>
      <trkpt lat="45.8814" lon="4.64846">
        <ele>247</ele>
        <time>2018-08-02T09:06:09Z</time>
      </trkpt>
      <trkpt lat="45.88145" lon="4.64845">
        <ele>247</ele>
        <time>2018-08-02T09:06:11Z</time>
      </trkpt>
      <trkpt lat="45.88149" lon="4.64843">
        <ele>247</ele>
        <time>2018-08-02T09:06:12Z</time>
      </trkpt>
      <trkpt lat="45.88152" lon="4.64842">
        <ele>247</ele>
        <time>2018-08-02T09:06:13Z</time>
      </trkpt>
      <trkpt lat="45.88164" lon="4.64835">
        <ele>246</ele>
        <time>2018-08-02T09:06:14Z</time>
      </trkpt>
      <trkpt lat="45.88171" lon="4.64829">
        <ele>245</ele>
        <time>2018-08-02T09:06:17Z</time>
      </trkpt>
      <trkpt lat="45.88172" lon="4.64828">
        <ele>245</ele>
        <time>2018-08-02T09:06:18Z</time>
      </trkpt>
      <trkpt lat="45.8818" lon="4.6483">
        <ele>244</ele>
        <time>2018-08-02T09:06:25Z</time>
      </trkpt>
      <trkpt lat="45.88181" lon="4.64831">
        <ele>245</ele>
        <time>2018-08-02T09:06:26Z</time>
      </trkpt>
      <trkpt lat="45.88189" lon="4.64833">
        <ele>245</ele>
        <time>2018-08-02T09:06:32Z</time>
      </trkpt>
      <trkpt lat="45.88192" lon="4.64832">
        <ele>245</ele>
        <time>2018-08-02T09:06:33Z</time>
      </trkpt>
      <trkpt lat="45.88199" lon="4.64829">
        <ele>245</ele>
        <time>2018-08-02T09:06:36Z</time>
      </trkpt>
      <trkpt lat="45.88202" lon="4.64828">
        <ele>245</ele>
        <time>2018-08-02T09:06:37Z</time>
      </trkpt>
      <trkpt lat="45.88209" lon="4.64825">
        <ele>246</ele>
        <time>2018-08-02T09:06:40Z</time>
      </trkpt>
      <trkpt lat="45.88211" lon="4.64824">
        <ele>246</ele>
        <time>2018-08-02T09:06:41Z</time>
      </trkpt>
      <trkpt lat="45.88219" lon="4.64823">
        <ele>247</ele>
        <time>2018-08-02T09:06:45Z</time>
      </trkpt>
      <trkpt lat="45.88221" lon="4.64823">
        <ele>247</ele>
        <time>2018-08-02T09:06:46Z</time>
      </trkpt>
      <trkpt lat="45.88228" lon="4.64822">
        <ele>249</ele>
        <time>2018-08-02T09:06:50Z</time>
      </trkpt>
      <trkpt lat="45.8823" lon="4.64822">
        <ele>249</ele>
        <time>2018-08-02T09:06:51Z</time>
      </trkpt>
      <trkpt lat="45.88239" lon="4.6482">
        <ele>250</ele>
        <time>2018-08-02T09:06:57Z</time>
      </trkpt>
      <trkpt lat="45.8824" lon="4.64819">
        <ele>250</ele>
        <time>2018-08-02T09:06:58Z</time>
      </trkpt>
      <trkpt lat="45.88249" lon="4.64817">
        <ele>251</ele>
        <time>2018-08-02T09:07:03Z</time>
      </trkpt>
      <trkpt lat="45.8825" lon="4.64817">
        <ele>257</ele>
        <time>2018-08-02T09:07:03.546Z</time>
      </trkpt>
      <trkpt lat="45.88258" lon="4.64813">
        <ele>257</ele>
        <time>2018-08-02T09:07:07Z</time>
      </trkpt>
      <trkpt lat="45.88261" lon="4.64812">
        <ele>257</ele>
        <time>2018-08-02T09:07:08Z</time>
      </trkpt>
      <trkpt lat="45.88269" lon="4.64809">
        <ele>257</ele>
        <time>2018-08-02T09:07:12Z</time>
      </trkpt>
      <trkpt lat="45.88272" lon="4.64809">
        <ele>257</ele>
        <time>2018-08-02T09:07:13Z</time>
      </trkpt>
      <trkpt lat="45.88279" lon="4.64808">
        <ele>258</ele>
        <time>2018-08-02T09:07:16Z</time>
      </trkpt>
      <trkpt lat="45.88281" lon="4.64808">
        <ele>258</ele>
        <time>2018-08-02T09:07:17Z</time>
      </trkpt>
      <trkpt lat="45.88289" lon="4.64805">
        <ele>258</ele>
        <time>2018-08-02T09:07:21Z</time>
      </trkpt>
      <trkpt lat="45.88291" lon="4.64805">
        <ele>258</ele>
        <time>2018-08-02T09:07:22Z</time>
      </trkpt>
      <trkpt lat="45.88299" lon="4.64802">
        <ele>259</ele>
        <time>2018-08-02T09:07:28Z</time>
      </trkpt>
      <trkpt lat="45.88301" lon="4.64801">
        <ele>259</ele>
        <time>2018-08-02T09:07:29Z</time>
      </trkpt>
      <trkpt lat="45.88307" lon="4.64797">
        <ele>259</ele>
        <time>2018-08-02T09:07:32Z</time>
      </trkpt>
      <trkpt lat="45.8831" lon="4.64796">
        <ele>259</ele>
        <time>2018-08-02T09:07:33Z</time>
      </trkpt>
      <trkpt lat="45.88317" lon="4.64795">
        <ele>260</ele>
        <time>2018-08-02T09:07:36Z</time>
      </trkpt>
      <trkpt lat="45.88319" lon="4.64795">
        <ele>260</ele>
        <time>2018-08-02T09:07:37Z</time>
      </trkpt>
      <trkpt lat="45.88327" lon="4.64795">
        <ele>260</ele>
        <time>2018-08-02T09:07:42Z</time>
      </trkpt>
      <trkpt lat="45.88329" lon="4.64794">
        <ele>260</ele>
        <time>2018-08-02T09:07:43Z</time>
      </trkpt>
      <trkpt lat="45.88337" lon="4.64792">
        <ele>266</ele>
        <time>2018-08-02T09:07:47Z</time>
      </trkpt>
      <trkpt lat="45.88339" lon="4.64792">
        <ele>266</ele>
        <time>2018-08-02T09:07:48Z</time>
      </trkpt>
      <trkpt lat="45.88347" lon="4.64792">
        <ele>267</ele>
        <time>2018-08-02T09:07:52Z</time>
      </trkpt>
      <trkpt lat="45.88349" lon="4.64792">
        <ele>267</ele>
        <time>2018-08-02T09:07:53Z</time>
      </trkpt>
      <trkpt lat="45.88356" lon="4.64789">
        <ele>267</ele>
        <time>2018-08-02T09:07:56Z</time>
      </trkpt>
      <trkpt lat="45.88357" lon="4.64788">
        <ele>266</ele>
        <time>2018-08-02T09:07:56.546Z</time>
      </trkpt>
      <trkpt lat="45.88364" lon="4.64784">
        <ele>266</ele>
        <time>2018-08-02T09:07:59Z</time>
      </trkpt>
      <trkpt lat="45.88367" lon="4.64782">
        <ele>266</ele>
        <time>2018-08-02T09:08:00Z</time>
      </trkpt>
      <trkpt lat="45.88373" lon="4.64778">
        <ele>266</ele>
        <time>2018-08-02T09:08:03Z</time>
      </trkpt>
      <trkpt lat="45.88375" lon="4.64778">
        <ele>266</ele>
        <time>2018-08-02T09:08:04Z</time>
      </trkpt>
      <trkpt lat="45.88383" lon="4.64778">
        <ele>266</ele>
        <time>2018-08-02T09:08:08Z</time>
      </trkpt>
      <trkpt lat="45.88386" lon="4.64777">
        <ele>267</ele>
        <time>2018-08-02T09:08:09Z</time>
      </trkpt>
      <trkpt lat="45.88394" lon="4.64775">
        <ele>266</ele>
        <time>2018-08-02T09:08:13Z</time>
      </trkpt>
      <trkpt lat="45.88396" lon="4.64776">
        <ele>267</ele>
        <time>2018-08-02T09:08:14Z</time>
      </trkpt>
      <trkpt lat="45.88405" lon="4.64779">
        <ele>267</ele>
        <time>2018-08-02T09:08:19Z</time>
      </trkpt>
      <trkpt lat="45.88407" lon="4.64778">
        <ele>267</ele>
        <time>2018-08-02T09:08:20Z</time>
      </trkpt>
      <trkpt lat="45.88415" lon="4.64774">
        <ele>266</ele>
        <time>2018-08-02T09:08:24Z</time>
      </trkpt>
      <trkpt lat="45.88417" lon="4.64774">
        <ele>269</ele>
        <time>2018-08-02T09:08:25Z</time>
      </trkpt>
      <trkpt lat="45.88425" lon="4.64771">
        <ele>269</ele>
        <time>2018-08-02T09:08:29Z</time>
      </trkpt>
      <trkpt lat="45.88427" lon="4.6477">
        <ele>269</ele>
        <time>2018-08-02T09:08:30Z</time>
      </trkpt>
      <trkpt lat="45.88436" lon="4.64769">
        <ele>269</ele>
        <time>2018-08-02T09:08:35.308Z</time>
      </trkpt>
      <trkpt lat="45.88437" lon="4.64769">
        <ele>269</ele>
        <time>2018-08-02T09:08:35Z</time>
      </trkpt>
      <trkpt lat="45.88446" lon="4.64769">
        <ele>270</ele>
        <time>2018-08-02T09:08:40Z</time>
      </trkpt>
      <trkpt lat="45.88447" lon="4.64769">
        <ele>270</ele>
        <time>2018-08-02T09:08:41Z</time>
      </trkpt>
      <trkpt lat="45.88456" lon="4.6477">
        <ele>270</ele>
        <time>2018-08-02T09:08:46Z</time>
      </trkpt>
      <trkpt lat="45.88458" lon="4.6477">
        <ele>270</ele>
        <time>2018-08-02T09:08:47Z</time>
      </trkpt>
      <trkpt lat="45.88467" lon="4.64769">
        <ele>271</ele>
        <time>2018-08-02T09:08:51Z</time>
      </trkpt>
      <trkpt lat="45.88469" lon="4.64769">
        <ele>271</ele>
        <time>2018-08-02T09:08:52Z</time>
      </trkpt>
      <trkpt lat="45.88475" lon="4.64762">
        <ele>270</ele>
        <time>2018-08-02T09:08:55.562Z</time>
      </trkpt>
      <trkpt lat="45.88477" lon="4.6476">
        <ele>270</ele>
        <time>2018-08-02T09:08:56Z</time>
      </trkpt>
      <trkpt lat="45.88485" lon="4.64757">
        <ele>269</ele>
        <time>2018-08-02T09:09:00Z</time>
      </trkpt>
      <trkpt lat="45.88487" lon="4.64757">
        <ele>269</ele>
        <time>2018-08-02T09:09:01Z</time>
      </trkpt>
      <trkpt lat="45.88495" lon="4.64758">
        <ele>269</ele>
        <time>2018-08-02T09:09:05Z</time>
      </trkpt>
      <trkpt lat="45.88497" lon="4.64758">
        <ele>268</ele>
        <time>2018-08-02T09:09:06Z</time>
      </trkpt>
      <trkpt lat="45.88506" lon="4.64758">
        <ele>269</ele>
        <time>2018-08-02T09:09:10Z</time>
      </trkpt>
      <trkpt lat="45.88508" lon="4.64758">
        <ele>269</ele>
        <time>2018-08-02T09:09:11Z</time>
      </trkpt>
      <trkpt lat="45.88517" lon="4.64759">
        <ele>270</ele>
        <time>2018-08-02T09:09:15Z</time>
      </trkpt>
      <trkpt lat="45.88519" lon="4.64761">
        <ele>270</ele>
        <time>2018-08-02T09:09:16Z</time>
      </trkpt>
      <trkpt lat="45.88525" lon="4.64766">
        <ele>270</ele>
        <time>2018-08-02T09:09:20Z</time>
      </trkpt>
      <trkpt lat="45.88527" lon="4.64767">
        <ele>270</ele>
        <time>2018-08-02T09:09:21Z</time>
      </trkpt>
      <trkpt lat="45.88533" lon="4.64775">
        <ele>271</ele>
        <time>2018-08-02T09:09:25Z</time>
      </trkpt>
      <trkpt lat="45.88535" lon="4.64777">
        <ele>271</ele>
        <time>2018-08-02T09:09:26Z</time>
      </trkpt>
      <trkpt lat="45.88541" lon="4.64784">
        <ele>271</ele>
        <time>2018-08-02T09:09:30Z</time>
      </trkpt>
      <trkpt lat="45.88543" lon="4.64786">
        <ele>271</ele>
        <time>2018-08-02T09:09:31Z</time>
      </trkpt>
      <trkpt lat="45.88547" lon="4.64795">
        <ele>272</ele>
        <time>2018-08-02T09:09:35Z</time>
      </trkpt>
      <trkpt lat="45.88547" lon="4.64798">
        <ele>272</ele>
        <time>2018-08-02T09:09:36Z</time>
      </trkpt>
      <trkpt lat="45.88549" lon="4.6481">
        <ele>272</ele>
        <time>2018-08-02T09:09:40Z</time>
      </trkpt>
      <trkpt lat="45.88549" lon="4.64813">
        <ele>273</ele>
        <time>2018-08-02T09:09:41Z</time>
      </trkpt>
      <trkpt lat="45.8855" lon="4.64825">
        <ele>273</ele>
        <time>2018-08-02T09:09:45Z</time>
      </trkpt>
      <trkpt lat="45.8855" lon="4.64828">
        <ele>273</ele>
        <time>2018-08-02T09:09:46Z</time>
      </trkpt>
      <trkpt lat="45.8855" lon="4.6484">
        <ele>276</ele>
        <time>2018-08-02T09:09:50Z</time>
      </trkpt>
      <trkpt lat="45.88549" lon="4.64843">
        <ele>276</ele>
        <time>2018-08-02T09:09:51Z</time>
      </trkpt>
      <trkpt lat="45.88547" lon="4.64856">
        <ele>277</ele>
        <time>2018-08-02T09:09:55Z</time>
      </trkpt>
      <trkpt lat="45.88546" lon="4.64858">
        <ele>277</ele>
        <time>2018-08-02T09:09:56Z</time>
      </trkpt>
      <trkpt lat="45.88543" lon="4.6487">
        <ele>277</ele>
        <time>2018-08-02T09:10:00Z</time>
      </trkpt>
      <trkpt lat="45.88543" lon="4.64873">
        <ele>277</ele>
        <time>2018-08-02T09:10:01Z</time>
      </trkpt>
      <trkpt lat="45.88543" lon="4.64884">
        <ele>277</ele>
        <time>2018-08-02T09:10:05Z</time>
      </trkpt>
      <trkpt lat="45.88543" lon="4.64887">
        <ele>277</ele>
        <time>2018-08-02T09:10:06Z</time>
      </trkpt>
      <trkpt lat="45.88542" lon="4.64896">
        <ele>277</ele>
        <time>2018-08-02T09:10:09Z</time>
      </trkpt>
      <trkpt lat="45.88542" lon="4.64899">
        <ele>277</ele>
        <time>2018-08-02T09:10:10Z</time>
      </trkpt>
      <trkpt lat="45.88541" lon="4.6491">
        <ele>278</ele>
        <time>2018-08-02T09:10:14Z</time>
      </trkpt>
      <trkpt lat="45.8854" lon="4.64913">
        <ele>278</ele>
        <time>2018-08-02T09:10:15Z</time>
      </trkpt>
      <trkpt lat="45.88538" lon="4.64924">
        <ele>280</ele>
        <time>2018-08-02T09:10:19Z</time>
      </trkpt>
      <trkpt lat="45.88538" lon="4.64927">
        <ele>280</ele>
        <time>2018-08-02T09:10:20Z</time>
      </trkpt>
      <trkpt lat="45.88535" lon="4.64938">
        <ele>280</ele>
        <time>2018-08-02T09:10:24Z</time>
      </trkpt>
      <trkpt lat="45.88534" lon="4.64941">
        <ele>281</ele>
        <time>2018-08-02T09:10:25Z</time>
      </trkpt>
      <trkpt lat="45.88532" lon="4.64952">
        <ele>281</ele>
        <time>2018-08-02T09:10:29Z</time>
      </trkpt>
      <trkpt lat="45.88531" lon="4.64955">
        <ele>281</ele>
        <time>2018-08-02T09:10:30Z</time>
      </trkpt>
      <trkpt lat="45.88528" lon="4.64966">
        <ele>282</ele>
        <time>2018-08-02T09:10:34Z</time>
      </trkpt>
      <trkpt lat="45.88527" lon="4.64969">
        <ele>282</ele>
        <time>2018-08-02T09:10:35Z</time>
      </trkpt>
      <trkpt lat="45.88525" lon="4.6498">
        <ele>283</ele>
        <time>2018-08-02T09:10:39Z</time>
      </trkpt>
      <trkpt lat="45.88525" lon="4.64982">
        <ele>283</ele>
        <time>2018-08-02T09:10:40Z</time>
      </trkpt>
      <trkpt lat="45.88524" lon="4.64993">
        <ele>283</ele>
        <time>2018-08-02T09:10:44Z</time>
      </trkpt>
      <trkpt lat="45.88524" lon="4.64996">
        <ele>283</ele>
        <time>2018-08-02T09:10:45Z</time>
      </trkpt>
      <trkpt lat="45.88522" lon="4.65006">
        <ele>285</ele>
        <time>2018-08-02T09:10:48Z</time>
      </trkpt>
      <trkpt lat="45.88521" lon="4.65009">
        <ele>286</ele>
        <time>2018-08-02T09:10:49Z</time>
      </trkpt>
      <trkpt lat="45.88518" lon="4.65018">
        <ele>286</ele>
        <time>2018-08-02T09:10:52Z</time>
      </trkpt>
      <trkpt lat="45.88517" lon="4.65021">
        <ele>286</ele>
        <time>2018-08-02T09:10:53Z</time>
      </trkpt>
      <trkpt lat="45.88515" lon="4.65032">
        <ele>285</ele>
        <time>2018-08-02T09:10:57Z</time>
      </trkpt>
      <trkpt lat="45.88515" lon="4.65035">
        <ele>285</ele>
        <time>2018-08-02T09:10:58Z</time>
      </trkpt>
      <trkpt lat="45.88512" lon="4.65045">
        <ele>286</ele>
        <time>2018-08-02T09:11:02Z</time>
      </trkpt>
      <trkpt lat="45.88511" lon="4.65047">
        <ele>286</ele>
        <time>2018-08-02T09:11:03Z</time>
      </trkpt>
      <trkpt lat="45.88509" lon="4.65058">
        <ele>286</ele>
        <time>2018-08-02T09:11:07Z</time>
      </trkpt>
      <trkpt lat="45.88508" lon="4.6506">
        <ele>286</ele>
        <time>2018-08-02T09:11:08Z</time>
      </trkpt>
      <trkpt lat="45.88505" lon="4.6507">
        <ele>287</ele>
        <time>2018-08-02T09:11:12Z</time>
      </trkpt>
      <trkpt lat="45.88504" lon="4.65072">
        <ele>288</ele>
        <time>2018-08-02T09:11:13Z</time>
      </trkpt>
      <trkpt lat="45.885" lon="4.65082">
        <ele>290</ele>
        <time>2018-08-02T09:11:17Z</time>
      </trkpt>
      <trkpt lat="45.88499" lon="4.65085">
        <ele>290</ele>
        <time>2018-08-02T09:11:18Z</time>
      </trkpt>
      <trkpt lat="45.88494" lon="4.65093">
        <ele>291</ele>
        <time>2018-08-02T09:11:22Z</time>
      </trkpt>
      <trkpt lat="45.88493" lon="4.65095">
        <ele>292</ele>
        <time>2018-08-02T09:11:23Z</time>
      </trkpt>
      <trkpt lat="45.88488" lon="4.65103">
        <ele>292</ele>
        <time>2018-08-02T09:11:27Z</time>
      </trkpt>
      <trkpt lat="45.88487" lon="4.65105">
        <ele>293</ele>
        <time>2018-08-02T09:11:28Z</time>
      </trkpt>
      <trkpt lat="45.88482" lon="4.65114">
        <ele>293</ele>
        <time>2018-08-02T09:11:32Z</time>
      </trkpt>
      <trkpt lat="45.88481" lon="4.65116">
        <ele>293</ele>
        <time>2018-08-02T09:11:33Z</time>
      </trkpt>
      <trkpt lat="45.88476" lon="4.65125">
        <ele>294</ele>
        <time>2018-08-02T09:11:37Z</time>
      </trkpt>
      <trkpt lat="45.88474" lon="4.65127">
        <ele>294</ele>
        <time>2018-08-02T09:11:38Z</time>
      </trkpt>
      <trkpt lat="45.88469" lon="4.65135">
        <ele>294</ele>
        <time>2018-08-02T09:11:42Z</time>
      </trkpt>
      <trkpt lat="45.88467" lon="4.65137">
        <ele>294</ele>
        <time>2018-08-02T09:11:43Z</time>
      </trkpt>
      <trkpt lat="45.88461" lon="4.65146">
        <ele>294</ele>
        <time>2018-08-02T09:11:47Z</time>
      </trkpt>
      <trkpt lat="45.88459" lon="4.65148">
        <ele>294</ele>
        <time>2018-08-02T09:11:48Z</time>
      </trkpt>
      <trkpt lat="45.88454" lon="4.65155">
        <ele>295</ele>
        <time>2018-08-02T09:11:52Z</time>
      </trkpt>
      <trkpt lat="45.88452" lon="4.65157">
        <ele>295</ele>
        <time>2018-08-02T09:11:53Z</time>
      </trkpt>
      <trkpt lat="45.88445" lon="4.65162">
        <ele>296</ele>
        <time>2018-08-02T09:11:57Z</time>
      </trkpt>
      <trkpt lat="45.88443" lon="4.65163">
        <ele>296</ele>
        <time>2018-08-02T09:11:58Z</time>
      </trkpt>
      <trkpt lat="45.88436" lon="4.65169">
        <ele>298</ele>
        <time>2018-08-02T09:12:02Z</time>
      </trkpt>
      <trkpt lat="45.88434" lon="4.65171">
        <ele>298</ele>
        <time>2018-08-02T09:12:03Z</time>
      </trkpt>
      <trkpt lat="45.88427" lon="4.65176">
        <ele>298</ele>
        <time>2018-08-02T09:12:07Z</time>
      </trkpt>
      <trkpt lat="45.88426" lon="4.65177">
        <ele>298</ele>
        <time>2018-08-02T09:12:08Z</time>
      </trkpt>
      <trkpt lat="45.8842" lon="4.65184">
        <ele>298</ele>
        <time>2018-08-02T09:12:12Z</time>
      </trkpt>
      <trkpt lat="45.88419" lon="4.65186">
        <ele>298</ele>
        <time>2018-08-02T09:12:13Z</time>
      </trkpt>
      <trkpt lat="45.88413" lon="4.65193">
        <ele>299</ele>
        <time>2018-08-02T09:12:17Z</time>
      </trkpt>
      <trkpt lat="45.88411" lon="4.65195">
        <ele>299</ele>
        <time>2018-08-02T09:12:18Z</time>
      </trkpt>
      <trkpt lat="45.88404" lon="4.652">
        <ele>300</ele>
        <time>2018-08-02T09:12:22Z</time>
      </trkpt>
      <trkpt lat="45.88402" lon="4.65202">
        <ele>300</ele>
        <time>2018-08-02T09:12:23Z</time>
      </trkpt>
      <trkpt lat="45.88395" lon="4.65207">
        <ele>300</ele>
        <time>2018-08-02T09:12:27Z</time>
      </trkpt>
      <trkpt lat="45.88394" lon="4.65208">
        <ele>300</ele>
        <time>2018-08-02T09:12:28Z</time>
      </trkpt>
      <trkpt lat="45.88388" lon="4.65213">
        <ele>300</ele>
        <time>2018-08-02T09:12:31Z</time>
      </trkpt>
      <trkpt lat="45.88386" lon="4.65216">
        <ele>300</ele>
        <time>2018-08-02T09:12:32Z</time>
      </trkpt>
      <trkpt lat="45.88379" lon="4.65224">
        <ele>300</ele>
        <time>2018-08-02T09:12:36Z</time>
      </trkpt>
      <trkpt lat="45.88378" lon="4.65226">
        <ele>300</ele>
        <time>2018-08-02T09:12:37Z</time>
      </trkpt>
      <trkpt lat="45.88371" lon="4.65233">
        <ele>300</ele>
        <time>2018-08-02T09:12:41Z</time>
      </trkpt>
      <trkpt lat="45.88369" lon="4.65235">
        <ele>300</ele>
        <time>2018-08-02T09:12:42Z</time>
      </trkpt>
      <trkpt lat="45.88362" lon="4.65242">
        <ele>300</ele>
        <time>2018-08-02T09:12:46Z</time>
      </trkpt>
      <trkpt lat="45.8836" lon="4.65244">
        <ele>300</ele>
        <time>2018-08-02T09:12:47Z</time>
      </trkpt>
      <trkpt lat="45.88354" lon="4.65252">
        <ele>301</ele>
        <time>2018-08-02T09:12:51Z</time>
      </trkpt>
      <trkpt lat="45.88352" lon="4.65254">
        <ele>301</ele>
        <time>2018-08-02T09:12:52Z</time>
      </trkpt>
      <trkpt lat="45.88346" lon="4.6526">
        <ele>301</ele>
        <time>2018-08-02T09:12:56Z</time>
      </trkpt>
      <trkpt lat="45.88344" lon="4.65262">
        <ele>301</ele>
        <time>2018-08-02T09:12:57Z</time>
      </trkpt>
      <trkpt lat="45.88339" lon="4.65269">
        <ele>301</ele>
        <time>2018-08-02T09:13:01Z</time>
      </trkpt>
      <trkpt lat="45.88337" lon="4.65271">
        <ele>301</ele>
        <time>2018-08-02T09:13:02Z</time>
      </trkpt>
      <trkpt lat="45.88331" lon="4.65278">
        <ele>303</ele>
        <time>2018-08-02T09:13:06Z</time>
      </trkpt>
      <trkpt lat="45.8833" lon="4.65279">
        <ele>304</ele>
        <time>2018-08-02T09:13:07Z</time>
      </trkpt>
      <trkpt lat="45.88324" lon="4.65287">
        <ele>304</ele>
        <time>2018-08-02T09:13:11Z</time>
      </trkpt>
      <trkpt lat="45.88323" lon="4.65289">
        <ele>304</ele>
        <time>2018-08-02T09:13:12Z</time>
      </trkpt>
      <trkpt lat="45.88318" lon="4.65296">
        <ele>304</ele>
        <time>2018-08-02T09:13:15Z</time>
      </trkpt>
      <trkpt lat="45.88317" lon="4.65299">
        <ele>304</ele>
        <time>2018-08-02T09:13:16Z</time>
      </trkpt>
      <trkpt lat="45.88313" lon="4.65308">
        <ele>305</ele>
        <time>2018-08-02T09:13:19Z</time>
      </trkpt>
      <trkpt lat="45.88311" lon="4.65311">
        <ele>305</ele>
        <time>2018-08-02T09:13:20Z</time>
      </trkpt>
      <trkpt lat="45.88306" lon="4.6532">
        <ele>305</ele>
        <time>2018-08-02T09:13:23Z</time>
      </trkpt>
      <trkpt lat="45.88305" lon="4.65322">
        <ele>305</ele>
        <time>2018-08-02T09:13:24Z</time>
      </trkpt>
      <trkpt lat="45.883" lon="4.65332">
        <ele>305</ele>
        <time>2018-08-02T09:13:28Z</time>
      </trkpt>
      <trkpt lat="45.88299" lon="4.65335">
        <ele>307</ele>
        <time>2018-08-02T09:13:29Z</time>
      </trkpt>
      <trkpt lat="45.88295" lon="4.65344">
        <ele>307</ele>
        <time>2018-08-02T09:13:33Z</time>
      </trkpt>
      <trkpt lat="45.88294" lon="4.65347">
        <ele>307</ele>
        <time>2018-08-02T09:13:34Z</time>
      </trkpt>
      <trkpt lat="45.8829" lon="4.65356">
        <ele>308</ele>
        <time>2018-08-02T09:13:38Z</time>
      </trkpt>
      <trkpt lat="45.88289" lon="4.65358">
        <ele>308</ele>
        <time>2018-08-02T09:13:39Z</time>
      </trkpt>
      <trkpt lat="45.88285" lon="4.65368">
        <ele>308</ele>
        <time>2018-08-02T09:13:43Z</time>
      </trkpt>
      <trkpt lat="45.88284" lon="4.6537">
        <ele>308</ele>
        <time>2018-08-02T09:13:44Z</time>
      </trkpt>
      <trkpt lat="45.88282" lon="4.65381">
        <ele>308</ele>
        <time>2018-08-02T09:13:48Z</time>
      </trkpt>
      <trkpt lat="45.88281" lon="4.65384">
        <ele>308</ele>
        <time>2018-08-02T09:13:49Z</time>
      </trkpt>
      <trkpt lat="45.88278" lon="4.65394">
        <ele>308</ele>
        <time>2018-08-02T09:13:53Z</time>
      </trkpt>
      <trkpt lat="45.88277" lon="4.65397">
        <ele>309</ele>
        <time>2018-08-02T09:13:54Z</time>
      </trkpt>
      <trkpt lat="45.88274" lon="4.65409">
        <ele>309</ele>
        <time>2018-08-02T09:13:59Z</time>
      </trkpt>
      <trkpt lat="45.88274" lon="4.65411">
        <ele>309</ele>
        <time>2018-08-02T09:14:00Z</time>
      </trkpt>
      <trkpt lat="45.8827" lon="4.65423">
        <ele>311</ele>
        <time>2018-08-02T09:14:05Z</time>
      </trkpt>
      <trkpt lat="45.88269" lon="4.65425">
        <ele>311</ele>
        <time>2018-08-02T09:14:06Z</time>
      </trkpt>
      <trkpt lat="45.88265" lon="4.65435">
        <ele>311</ele>
        <time>2018-08-02T09:14:10Z</time>
      </trkpt>
      <trkpt lat="45.88264" lon="4.65437">
        <ele>311</ele>
        <time>2018-08-02T09:14:11Z</time>
      </trkpt>
      <trkpt lat="45.88261" lon="4.65448">
        <ele>311</ele>
        <time>2018-08-02T09:14:15Z</time>
      </trkpt>
      <trkpt lat="45.8826" lon="4.6545">
        <ele>311</ele>
        <time>2018-08-02T09:14:16Z</time>
      </trkpt>
      <trkpt lat="45.88256" lon="4.6546">
        <ele>311</ele>
        <time>2018-08-02T09:14:21Z</time>
      </trkpt>
      <trkpt lat="45.88255" lon="4.65462">
        <ele>311</ele>
        <time>2018-08-02T09:14:22Z</time>
      </trkpt>
      <trkpt lat="45.88251" lon="4.65473">
        <ele>312</ele>
        <time>2018-08-02T09:14:26Z</time>
      </trkpt>
      <trkpt lat="45.8825" lon="4.65475">
        <ele>312</ele>
        <time>2018-08-02T09:14:27Z</time>
      </trkpt>
      <trkpt lat="45.88247" lon="4.65485">
        <ele>316</ele>
        <time>2018-08-02T09:14:31Z</time>
      </trkpt>
      <trkpt lat="45.88246" lon="4.65488">
        <ele>316</ele>
        <time>2018-08-02T09:14:32Z</time>
      </trkpt>
      <trkpt lat="45.88243" lon="4.65497">
        <ele>316</ele>
        <time>2018-08-02T09:14:35Z</time>
      </trkpt>
      <trkpt lat="45.88242" lon="4.655">
        <ele>316</ele>
        <time>2018-08-02T09:14:36Z</time>
      </trkpt>
      <trkpt lat="45.88238" lon="4.6551">
        <ele>318</ele>
        <time>2018-08-02T09:14:40Z</time>
      </trkpt>
      <trkpt lat="45.88236" lon="4.65512">
        <ele>318</ele>
        <time>2018-08-02T09:14:41Z</time>
      </trkpt>
      <trkpt lat="45.88232" lon="4.65521">
        <ele>319</ele>
        <time>2018-08-02T09:14:45Z</time>
      </trkpt>
      <trkpt lat="45.88232" lon="4.65524">
        <ele>319</ele>
        <time>2018-08-02T09:14:46Z</time>
      </trkpt>
      <trkpt lat="45.88229" lon="4.65533">
        <ele>320</ele>
        <time>2018-08-02T09:14:50Z</time>
      </trkpt>
      <trkpt lat="45.88228" lon="4.65536">
        <ele>320</ele>
        <time>2018-08-02T09:14:51Z</time>
      </trkpt>
      <trkpt lat="45.88224" lon="4.65547">
        <ele>320</ele>
        <time>2018-08-02T09:14:55Z</time>
      </trkpt>
      <trkpt lat="45.88224" lon="4.65549">
        <ele>320</ele>
        <time>2018-08-02T09:14:56Z</time>
      </trkpt>
      <trkpt lat="45.88221" lon="4.6556">
        <ele>320</ele>
        <time>2018-08-02T09:15:00Z</time>
      </trkpt>
      <trkpt lat="45.88221" lon="4.65563">
        <ele>320</ele>
        <time>2018-08-02T09:15:01Z</time>
      </trkpt>
      <trkpt lat="45.88217" lon="4.65574">
        <ele>321</ele>
        <time>2018-08-02T09:15:05Z</time>
      </trkpt>
      <trkpt lat="45.88216" lon="4.65577">
        <ele>321</ele>
        <time>2018-08-02T09:15:06Z</time>
      </trkpt>
      <trkpt lat="45.88212" lon="4.65586">
        <ele>321</ele>
        <time>2018-08-02T09:15:10Z</time>
      </trkpt>
      <trkpt lat="45.88211" lon="4.65589">
        <ele>321</ele>
        <time>2018-08-02T09:15:11Z</time>
      </trkpt>
      <trkpt lat="45.88208" lon="4.65599">
        <ele>321</ele>
        <time>2018-08-02T09:15:15Z</time>
      </trkpt>
      <trkpt lat="45.88207" lon="4.65602">
        <ele>321</ele>
        <time>2018-08-02T09:15:16Z</time>
      </trkpt>
      <trkpt lat="45.88204" lon="4.65612">
        <ele>321</ele>
        <time>2018-08-02T09:15:20Z</time>
      </trkpt>
      <trkpt lat="45.88203" lon="4.65615">
        <ele>321</ele>
        <time>2018-08-02T09:15:21Z</time>
      </trkpt>
      <trkpt lat="45.88199" lon="4.65626">
        <ele>322</ele>
        <time>2018-08-02T09:15:26Z</time>
      </trkpt>
      <trkpt lat="45.88198" lon="4.65628">
        <ele>322</ele>
        <time>2018-08-02T09:15:27Z</time>
      </trkpt>
      <trkpt lat="45.88194" lon="4.65639">
        <ele>322</ele>
        <time>2018-08-02T09:15:32Z</time>
      </trkpt>
      <trkpt lat="45.88193" lon="4.65641">
        <ele>322</ele>
        <time>2018-08-02T09:15:33Z</time>
      </trkpt>
      <trkpt lat="45.88189" lon="4.65652">
        <ele>322</ele>
        <time>2018-08-02T09:15:38Z</time>
      </trkpt>
      <trkpt lat="45.88188" lon="4.65654">
        <ele>322</ele>
        <time>2018-08-02T09:15:39Z</time>
      </trkpt>
      <trkpt lat="45.88183" lon="4.65663">
        <ele>323</ele>
        <time>2018-08-02T09:15:43Z</time>
      </trkpt>
      <trkpt lat="45.88182" lon="4.65666">
        <ele>323</ele>
        <time>2018-08-02T09:15:44Z</time>
      </trkpt>
      <trkpt lat="45.88178" lon="4.65674">
        <ele>323</ele>
        <time>2018-08-02T09:15:48Z</time>
      </trkpt>
      <trkpt lat="45.88177" lon="4.65676">
        <ele>323</ele>
        <time>2018-08-02T09:15:49Z</time>
      </trkpt>
      <trkpt lat="45.88171" lon="4.65685">
        <ele>323</ele>
        <time>2018-08-02T09:15:53Z</time>
      </trkpt>
      <trkpt lat="45.8817" lon="4.65687">
        <ele>322</ele>
        <time>2018-08-02T09:15:54Z</time>
      </trkpt>
      <trkpt lat="45.88165" lon="4.65694">
        <ele>330</ele>
        <time>2018-08-02T09:15:58Z</time>
      </trkpt>
      <trkpt lat="45.88164" lon="4.65696">
        <ele>330</ele>
        <time>2018-08-02T09:15:59Z</time>
      </trkpt>
      <trkpt lat="45.8816" lon="4.65705">
        <ele>331</ele>
        <time>2018-08-02T09:16:02Z</time>
      </trkpt>
      <trkpt lat="45.88159" lon="4.65708">
        <ele>331</ele>
        <time>2018-08-02T09:16:03Z</time>
      </trkpt>
      <trkpt lat="45.88155" lon="4.65718">
        <ele>331</ele>
        <time>2018-08-02T09:16:07Z</time>
      </trkpt>
      <trkpt lat="45.88154" lon="4.65721">
        <ele>331</ele>
        <time>2018-08-02T09:16:08Z</time>
      </trkpt>
      <trkpt lat="45.88148" lon="4.6573">
        <ele>331</ele>
        <time>2018-08-02T09:16:13Z</time>
      </trkpt>
      <trkpt lat="45.88147" lon="4.65731">
        <ele>331</ele>
        <time>2018-08-02T09:16:14Z</time>
      </trkpt>
      <trkpt lat="45.88141" lon="4.65741">
        <ele>332</ele>
        <time>2018-08-02T09:16:20Z</time>
      </trkpt>
      <trkpt lat="45.88141" lon="4.65742">
        <ele>332</ele>
        <time>2018-08-02T09:16:21Z</time>
      </trkpt>
      <trkpt lat="45.88133" lon="4.65748">
        <ele>333</ele>
        <time>2018-08-02T09:16:28Z</time>
      </trkpt>
      <trkpt lat="45.88132" lon="4.65749">
        <ele>333</ele>
        <time>2018-08-02T09:16:29Z</time>
      </trkpt>
      <trkpt lat="45.88127" lon="4.65757">
        <ele>333</ele>
        <time>2018-08-02T09:16:33Z</time>
      </trkpt>
      <trkpt lat="45.88126" lon="4.65759">
        <ele>333</ele>
        <time>2018-08-02T09:16:34Z</time>
      </trkpt>
      <trkpt lat="45.8812" lon="4.65766">
        <ele>333</ele>
        <time>2018-08-02T09:16:38Z</time>
      </trkpt>
      <trkpt lat="45.88118" lon="4.65768">
        <ele>334</ele>
        <time>2018-08-02T09:16:39Z</time>
      </trkpt>
      <trkpt lat="45.88111" lon="4.65775">
        <ele>334</ele>
        <time>2018-08-02T09:16:43Z</time>
      </trkpt>
      <trkpt lat="45.88109" lon="4.65777">
        <ele>334</ele>
        <time>2018-08-02T09:16:44Z</time>
      </trkpt>
      <trkpt lat="45.88103" lon="4.65784">
        <ele>334</ele>
        <time>2018-08-02T09:16:47Z</time>
      </trkpt>
      <trkpt lat="45.88101" lon="4.65786">
        <ele>334</ele>
        <time>2018-08-02T09:16:48Z</time>
      </trkpt>
      <trkpt lat="45.88094" lon="4.65792">
        <ele>334</ele>
        <time>2018-08-02T09:16:52Z</time>
      </trkpt>
      <trkpt lat="45.88092" lon="4.65793">
        <ele>334</ele>
        <time>2018-08-02T09:16:53Z</time>
      </trkpt>
      <trkpt lat="45.88086" lon="4.65799">
        <ele>334</ele>
        <time>2018-08-02T09:16:57Z</time>
      </trkpt>
      <trkpt lat="45.88084" lon="4.658">
        <ele>334</ele>
        <time>2018-08-02T09:16:58Z</time>
      </trkpt>
      <trkpt lat="45.88076" lon="4.65806">
        <ele>341</ele>
        <time>2018-08-02T09:17:02Z</time>
      </trkpt>
      <trkpt lat="45.88074" lon="4.65807">
        <ele>341</ele>
        <time>2018-08-02T09:17:03Z</time>
      </trkpt>
      <trkpt lat="45.88066" lon="4.65812">
        <ele>341</ele>
        <time>2018-08-02T09:17:07Z</time>
      </trkpt>
      <trkpt lat="45.88064" lon="4.65813">
        <ele>341</ele>
        <time>2018-08-02T09:17:08Z</time>
      </trkpt>
      <trkpt lat="45.88057" lon="4.65819">
        <ele>341</ele>
        <time>2018-08-02T09:17:11Z</time>
      </trkpt>
      <trkpt lat="45.88054" lon="4.6582">
        <ele>342</ele>
        <time>2018-08-02T09:17:12Z</time>
      </trkpt>
      <trkpt lat="45.88047" lon="4.65825">
        <ele>342</ele>
        <time>2018-08-02T09:17:15Z</time>
      </trkpt>
      <trkpt lat="45.88044" lon="4.65827">
        <ele>342</ele>
        <time>2018-08-02T09:17:16Z</time>
      </trkpt>
      <trkpt lat="45.88037" lon="4.65832">
        <ele>343</ele>
        <time>2018-08-02T09:17:19Z</time>
      </trkpt>
      <trkpt lat="45.88035" lon="4.65834">
        <ele>338</ele>
        <time>2018-08-02T09:17:20Z</time>
      </trkpt>
      <trkpt lat="45.88027" lon="4.65837">
        <ele>339</ele>
        <time>2018-08-02T09:17:24Z</time>
      </trkpt>
      <trkpt lat="45.88025" lon="4.65838">
        <ele>339</ele>
        <time>2018-08-02T09:17:25Z</time>
      </trkpt>
      <trkpt lat="45.88021" lon="4.6584">
        <ele>340</ele>
        <time>2018-08-02T09:17:27Z</time>
      </trkpt>
      <trkpt lat="45.88013" lon="4.65844">
        <ele>340</ele>
        <time>2018-08-02T09:17:28Z</time>
      </trkpt>
      <trkpt lat="45.88008" lon="4.65849">
        <ele>340</ele>
        <time>2018-08-02T09:17:31Z</time>
      </trkpt>
      <trkpt lat="45.88005" lon="4.65851">
        <ele>340</ele>
        <time>2018-08-02T09:17:32Z</time>
      </trkpt>
      <trkpt lat="45.87999" lon="4.65857">
        <ele>344</ele>
        <time>2018-08-02T09:17:35Z</time>
      </trkpt>
      <trkpt lat="45.87997" lon="4.65859">
        <ele>344</ele>
        <time>2018-08-02T09:17:36Z</time>
      </trkpt>
      <trkpt lat="45.87991" lon="4.65866">
        <ele>343</ele>
        <time>2018-08-02T09:17:39Z</time>
      </trkpt>
      <trkpt lat="45.87981" lon="4.65877">
        <ele>343</ele>
        <time>2018-08-02T09:17:40Z</time>
      </trkpt>
      <trkpt lat="45.87976" lon="4.65883">
        <ele>343</ele>
        <time>2018-08-02T09:17:42Z</time>
      </trkpt>
      <trkpt lat="45.87974" lon="4.65885">
        <ele>343</ele>
        <time>2018-08-02T09:17:43Z</time>
      </trkpt>
      <trkpt lat="45.87967" lon="4.65894">
        <ele>343</ele>
        <time>2018-08-02T09:17:47Z</time>
      </trkpt>
      <trkpt lat="45.87966" lon="4.65896">
        <ele>343</ele>
        <time>2018-08-02T09:17:48Z</time>
      </trkpt>
      <trkpt lat="45.8796" lon="4.65903">
        <ele>343</ele>
        <time>2018-08-02T09:17:51Z</time>
      </trkpt>
      <trkpt lat="45.87958" lon="4.65906">
        <ele>343</ele>
        <time>2018-08-02T09:17:52Z</time>
      </trkpt>
      <trkpt lat="45.87952" lon="4.65914">
        <ele>343</ele>
        <time>2018-08-02T09:17:55Z</time>
      </trkpt>
      <trkpt lat="45.8795" lon="4.65917">
        <ele>341</ele>
        <time>2018-08-02T09:17:56Z</time>
      </trkpt>
      <trkpt lat="45.87944" lon="4.65926">
        <ele>341</ele>
        <time>2018-08-02T09:17:59Z</time>
      </trkpt>
      <trkpt lat="45.87942" lon="4.65929">
        <ele>341</ele>
        <time>2018-08-02T09:18:00Z</time>
      </trkpt>
      <trkpt lat="45.87938" lon="4.65936">
        <ele>341</ele>
        <time>2018-08-02T09:18:02Z</time>
      </trkpt>
      <trkpt lat="45.87936" lon="4.65939">
        <ele>341</ele>
        <time>2018-08-02T09:18:03Z</time>
      </trkpt>
      <trkpt lat="45.87931" lon="4.65947">
        <ele>341</ele>
        <time>2018-08-02T09:18:06Z</time>
      </trkpt>
      <trkpt lat="45.87929" lon="4.65949">
        <ele>341</ele>
        <time>2018-08-02T09:18:07Z</time>
      </trkpt>
      <trkpt lat="45.87925" lon="4.65958">
        <ele>341</ele>
        <time>2018-08-02T09:18:10Z</time>
      </trkpt>
      <trkpt lat="45.87924" lon="4.65961">
        <ele>341</ele>
        <time>2018-08-02T09:18:11Z</time>
      </trkpt>
      <trkpt lat="45.87922" lon="4.65973">
        <ele>341</ele>
        <time>2018-08-02T09:18:15Z</time>
      </trkpt>
      <trkpt lat="45.87922" lon="4.65976">
        <ele>341</ele>
        <time>2018-08-02T09:18:16Z</time>
      </trkpt>
      <trkpt lat="45.87922" lon="4.65989">
        <ele>342</ele>
        <time>2018-08-02T09:18:20Z</time>
      </trkpt>
      <trkpt lat="45.87922" lon="4.65992">
        <ele>342</ele>
        <time>2018-08-02T09:18:21Z</time>
      </trkpt>
      <trkpt lat="45.87921" lon="4.66002">
        <ele>343</ele>
        <time>2018-08-02T09:18:24Z</time>
      </trkpt>
      <trkpt lat="45.87921" lon="4.66005">
        <ele>343</ele>
        <time>2018-08-02T09:18:25Z</time>
      </trkpt>
      <trkpt lat="45.8792" lon="4.66015">
        <ele>342</ele>
        <time>2018-08-02T09:18:28Z</time>
      </trkpt>
      <trkpt lat="45.8792" lon="4.66018">
        <ele>342</ele>
        <time>2018-08-02T09:18:29Z</time>
      </trkpt>
      <trkpt lat="45.8792" lon="4.66031">
        <ele>342</ele>
        <time>2018-08-02T09:18:33Z</time>
      </trkpt>
      <trkpt lat="45.8792" lon="4.66035">
        <ele>342</ele>
        <time>2018-08-02T09:18:34Z</time>
      </trkpt>
      <trkpt lat="45.8792" lon="4.66045">
        <ele>342</ele>
        <time>2018-08-02T09:18:37Z</time>
      </trkpt>
      <trkpt lat="45.8792" lon="4.66048">
        <ele>342</ele>
        <time>2018-08-02T09:18:38Z</time>
      </trkpt>
      <trkpt lat="45.87921" lon="4.6606">
        <ele>342</ele>
        <time>2018-08-02T09:18:42Z</time>
      </trkpt>
      <trkpt lat="45.87921" lon="4.66063">
        <ele>343</ele>
        <time>2018-08-02T09:18:43Z</time>
      </trkpt>
      <trkpt lat="45.87922" lon="4.66075">
        <ele>343</ele>
        <time>2018-08-02T09:18:47Z</time>
      </trkpt>
      <trkpt lat="45.87922" lon="4.66078">
        <ele>343</ele>
        <time>2018-08-02T09:18:48Z</time>
      </trkpt>
      <trkpt lat="45.87923" lon="4.66088">
        <ele>345</ele>
        <time>2018-08-02T09:18:51Z</time>
      </trkpt>
      <trkpt lat="45.87923" lon="4.66092">
        <ele>345</ele>
        <time>2018-08-02T09:18:52Z</time>
      </trkpt>
      <trkpt lat="45.87921" lon="4.66103">
        <ele>346</ele>
        <time>2018-08-02T09:18:55Z</time>
      </trkpt>
      <trkpt lat="45.87921" lon="4.66107">
        <ele>346</ele>
        <time>2018-08-02T09:18:56Z</time>
      </trkpt>
      <trkpt lat="45.87921" lon="4.66119">
        <ele>347</ele>
        <time>2018-08-02T09:19:00Z</time>
      </trkpt>
      <trkpt lat="45.87921" lon="4.66123">
        <ele>348</ele>
        <time>2018-08-02T09:19:01Z</time>
      </trkpt>
      <trkpt lat="45.87924" lon="4.66131">
        <ele>348</ele>
        <time>2018-08-02T09:19:04Z</time>
      </trkpt>
      <trkpt lat="45.87926" lon="4.66134">
        <ele>349</ele>
        <time>2018-08-02T09:19:05Z</time>
      </trkpt>
      <trkpt lat="45.87931" lon="4.66139">
        <ele>349</ele>
        <time>2018-08-02T09:19:07Z</time>
      </trkpt>
      <trkpt lat="45.87934" lon="4.66141">
        <ele>349</ele>
        <time>2018-08-02T09:19:08Z</time>
      </trkpt>
      <trkpt lat="45.87943" lon="4.66143">
        <ele>349</ele>
        <time>2018-08-02T09:19:11Z</time>
      </trkpt>
      <trkpt lat="45.87945" lon="4.66142">
        <ele>349</ele>
        <time>2018-08-02T09:19:12Z</time>
      </trkpt>
      <trkpt lat="45.87954" lon="4.66141">
        <ele>348</ele>
        <time>2018-08-02T09:19:15Z</time>
      </trkpt>
      <trkpt lat="45.87957" lon="4.6614">
        <ele>348</ele>
        <time>2018-08-02T09:19:16Z</time>
      </trkpt>
      <trkpt lat="45.87965" lon="4.66139">
        <ele>348</ele>
        <time>2018-08-02T09:19:19Z</time>
      </trkpt>
      <trkpt lat="45.87968" lon="4.66139">
        <ele>348</ele>
        <time>2018-08-02T09:19:20Z</time>
      </trkpt>
      <trkpt lat="45.87976" lon="4.66139">
        <ele>348</ele>
        <time>2018-08-02T09:19:23Z</time>
      </trkpt>
      <trkpt lat="45.87979" lon="4.66139">
        <ele>348</ele>
        <time>2018-08-02T09:19:24Z</time>
      </trkpt>
      <trkpt lat="45.87984" lon="4.66139">
        <ele>348</ele>
        <time>2018-08-02T09:19:26Z</time>
      </trkpt>
      <trkpt lat="45.87988" lon="4.66138">
        <ele>348</ele>
        <time>2018-08-02T09:19:27Z</time>
      </trkpt>
      <trkpt lat="45.87996" lon="4.66138">
        <ele>348</ele>
        <time>2018-08-02T09:19:30Z</time>
      </trkpt>
      <trkpt lat="45.87999" lon="4.66138">
        <ele>348</ele>
        <time>2018-08-02T09:19:31Z</time>
      </trkpt>
      <trkpt lat="45.88008" lon="4.66139">
        <ele>348</ele>
        <time>2018-08-02T09:19:32Z</time>
      </trkpt>
      <trkpt lat="45.88016" lon="4.66139">
        <ele>348</ele>
        <time>2018-08-02T09:19:35Z</time>
      </trkpt>
      <trkpt lat="45.88018" lon="4.66138">
        <ele>348</ele>
        <time>2018-08-02T09:19:36Z</time>
      </trkpt>
      <trkpt lat="45.88026" lon="4.66137">
        <ele>347</ele>
        <time>2018-08-02T09:19:38Z</time>
      </trkpt>
      <trkpt lat="45.88028" lon="4.66138">
        <ele>347</ele>
        <time>2018-08-02T09:19:39Z</time>
      </trkpt>
      <trkpt lat="45.88035" lon="4.66138">
        <ele>347</ele>
        <time>2018-08-02T09:19:42Z</time>
      </trkpt>
      <trkpt lat="45.88038" lon="4.66138">
        <ele>347</ele>
        <time>2018-08-02T09:19:43Z</time>
      </trkpt>
      <trkpt lat="45.88047" lon="4.66137">
        <ele>347</ele>
        <time>2018-08-02T09:19:44Z</time>
      </trkpt>
      <trkpt lat="45.88055" lon="4.66137">
        <ele>348</ele>
        <time>2018-08-02T09:19:48Z</time>
      </trkpt>
      <trkpt lat="45.88058" lon="4.66136">
        <ele>348</ele>
        <time>2018-08-02T09:19:49Z</time>
      </trkpt>
      <trkpt lat="45.8806" lon="4.66136">
        <ele>348</ele>
        <time>2018-08-02T09:19:50Z</time>
      </trkpt>
      <trkpt lat="45.88067" lon="4.66136">
        <ele>348</ele>
        <time>2018-08-02T09:19:51Z</time>
      </trkpt>
      <trkpt lat="45.88075" lon="4.66136">
        <ele>348</ele>
        <time>2018-08-02T09:19:54Z</time>
      </trkpt>
      <trkpt lat="45.88077" lon="4.66136">
        <ele>348</ele>
        <time>2018-08-02T09:19:55Z</time>
      </trkpt>
      <trkpt lat="45.88082" lon="4.66136">
        <ele>348</ele>
        <time>2018-08-02T09:19:57Z</time>
      </trkpt>
      <trkpt lat="45.8809" lon="4.66137">
        <ele>349</ele>
        <time>2018-08-02T09:19:58Z</time>
      </trkpt>
      <trkpt lat="45.88099" lon="4.66136">
        <ele>349</ele>
        <time>2018-08-02T09:20:02Z</time>
      </trkpt>
      <trkpt lat="45.88107" lon="4.66134">
        <ele>349</ele>
        <time>2018-08-02T09:20:03Z</time>
      </trkpt>
      <trkpt lat="45.88111" lon="4.66134">
        <ele>349</ele>
        <time>2018-08-02T09:20:05Z</time>
      </trkpt>
      <trkpt lat="45.88117" lon="4.66132">
        <ele>349</ele>
        <time>2018-08-02T09:20:06Z</time>
      </trkpt>
      <trkpt lat="45.88122" lon="4.66131">
        <ele>349</ele>
        <time>2018-08-02T09:20:09Z</time>
      </trkpt>
      <trkpt lat="45.88129" lon="4.66131">
        <ele>349</ele>
        <time>2018-08-02T09:20:10Z</time>
      </trkpt>
      <trkpt lat="45.88133" lon="4.66131">
        <ele>349</ele>
        <time>2018-08-02T09:20:11Z</time>
      </trkpt>
      <trkpt lat="45.88138" lon="4.6613">
        <ele>349</ele>
        <time>2018-08-02T09:20:12Z</time>
      </trkpt>
      <trkpt lat="45.88147" lon="4.66127">
        <ele>349</ele>
        <time>2018-08-02T09:20:14Z</time>
      </trkpt>
      <trkpt lat="45.88149" lon="4.66127">
        <ele>349</ele>
        <time>2018-08-02T09:20:15Z</time>
      </trkpt>
      <trkpt lat="45.88156" lon="4.66125">
        <ele>349</ele>
        <time>2018-08-02T09:20:17Z</time>
      </trkpt>
      <trkpt lat="45.88161" lon="4.66124">
        <ele>349</ele>
        <time>2018-08-02T09:20:18Z</time>
      </trkpt>
      <trkpt lat="45.88169" lon="4.66126">
        <ele>349</ele>
        <time>2018-08-02T09:20:22Z</time>
      </trkpt>
      <trkpt lat="45.88171" lon="4.66126">
        <ele>349</ele>
        <time>2018-08-02T09:20:23Z</time>
      </trkpt>
      <trkpt lat="45.88179" lon="4.66127">
        <ele>350</ele>
        <time>2018-08-02T09:20:26Z</time>
      </trkpt>
      <trkpt lat="45.88182" lon="4.66128">
        <ele>350</ele>
        <time>2018-08-02T09:20:27Z</time>
      </trkpt>
      <trkpt lat="45.88193" lon="4.66128">
        <ele>350</ele>
        <time>2018-08-02T09:20:28Z</time>
      </trkpt>
      <trkpt lat="45.88201" lon="4.66129">
        <ele>350</ele>
        <time>2018-08-02T09:20:32Z</time>
      </trkpt>
      <trkpt lat="45.88203" lon="4.66129">
        <ele>350</ele>
        <time>2018-08-02T09:20:33Z</time>
      </trkpt>
      <trkpt lat="45.88206" lon="4.6613">
        <ele>350</ele>
        <time>2018-08-02T09:20:34Z</time>
      </trkpt>
      <trkpt lat="45.88215" lon="4.66132">
        <ele>350</ele>
        <time>2018-08-02T09:20:35Z</time>
      </trkpt>
      <trkpt lat="45.88223" lon="4.66132">
        <ele>350</ele>
        <time>2018-08-02T09:20:39Z</time>
      </trkpt>
      <trkpt lat="45.88225" lon="4.66132">
        <ele>350</ele>
        <time>2018-08-02T09:20:40Z</time>
      </trkpt>
      <trkpt lat="45.88233" lon="4.66132">
        <ele>350</ele>
        <time>2018-08-02T09:20:43Z</time>
      </trkpt>
      <trkpt lat="45.88235" lon="4.66132">
        <ele>350</ele>
        <time>2018-08-02T09:20:44Z</time>
      </trkpt>
      <trkpt lat="45.88243" lon="4.66131">
        <ele>350</ele>
        <time>2018-08-02T09:20:47Z</time>
      </trkpt>
      <trkpt lat="45.88245" lon="4.66131">
        <ele>350</ele>
        <time>2018-08-02T09:20:48Z</time>
      </trkpt>
      <trkpt lat="45.88253" lon="4.66131">
        <ele>351</ele>
        <time>2018-08-02T09:20:51Z</time>
      </trkpt>
      <trkpt lat="45.88255" lon="4.66132">
        <ele>351</ele>
        <time>2018-08-02T09:20:52Z</time>
      </trkpt>
      <trkpt lat="45.88263" lon="4.66132">
        <ele>351</ele>
        <time>2018-08-02T09:20:55Z</time>
      </trkpt>
      <trkpt lat="45.88266" lon="4.66132">
        <ele>351</ele>
        <time>2018-08-02T09:20:56Z</time>
      </trkpt>
      <trkpt lat="45.88273" lon="4.66133">
        <ele>352</ele>
        <time>2018-08-02T09:20:59Z</time>
      </trkpt>
      <trkpt lat="45.88275" lon="4.66133">
        <ele>352</ele>
        <time>2018-08-02T09:21:00Z</time>
      </trkpt>
      <trkpt lat="45.88283" lon="4.66133">
        <ele>352</ele>
        <time>2018-08-02T09:21:03Z</time>
      </trkpt>
      <trkpt lat="45.88286" lon="4.66133">
        <ele>352</ele>
        <time>2018-08-02T09:21:04Z</time>
      </trkpt>
      <trkpt lat="45.88293" lon="4.66134">
        <ele>352</ele>
        <time>2018-08-02T09:21:07Z</time>
      </trkpt>
      <trkpt lat="45.88296" lon="4.66134">
        <ele>352</ele>
        <time>2018-08-02T09:21:08Z</time>
      </trkpt>
      <trkpt lat="45.88303" lon="4.66134">
        <ele>353</ele>
        <time>2018-08-02T09:21:11Z</time>
      </trkpt>
      <trkpt lat="45.88306" lon="4.66134">
        <ele>353</ele>
        <time>2018-08-02T09:21:12Z</time>
      </trkpt>
      <trkpt lat="45.88312" lon="4.66135">
        <ele>353</ele>
        <time>2018-08-02T09:21:15Z</time>
      </trkpt>
      <trkpt lat="45.88316" lon="4.66135">
        <ele>353</ele>
        <time>2018-08-02T09:21:16Z</time>
      </trkpt>
      <trkpt lat="45.88322" lon="4.66136">
        <ele>353</ele>
        <time>2018-08-02T09:21:19Z</time>
      </trkpt>
      <trkpt lat="45.88325" lon="4.66136">
        <ele>354</ele>
        <time>2018-08-02T09:21:20Z</time>
      </trkpt>
      <trkpt lat="45.88333" lon="4.66137">
        <ele>354</ele>
        <time>2018-08-02T09:21:24Z</time>
      </trkpt>
      <trkpt lat="45.88335" lon="4.66137">
        <ele>356</ele>
        <time>2018-08-02T09:21:25Z</time>
      </trkpt>
      <trkpt lat="45.88344" lon="4.66138">
        <ele>356</ele>
        <time>2018-08-02T09:21:29Z</time>
      </trkpt>
      <trkpt lat="45.88346" lon="4.66138">
        <ele>356</ele>
        <time>2018-08-02T09:21:30Z</time>
      </trkpt>
      <trkpt lat="45.88354" lon="4.66137">
        <ele>356</ele>
        <time>2018-08-02T09:21:34Z</time>
      </trkpt>
      <trkpt lat="45.88356" lon="4.66137">
        <ele>356</ele>
        <time>2018-08-02T09:21:35Z</time>
      </trkpt>
      <trkpt lat="45.88364" lon="4.66136">
        <ele>356</ele>
        <time>2018-08-02T09:21:39Z</time>
      </trkpt>
      <trkpt lat="45.88366" lon="4.66137">
        <ele>356</ele>
        <time>2018-08-02T09:21:40Z</time>
      </trkpt>
      <trkpt lat="45.88374" lon="4.66138">
        <ele>357</ele>
        <time>2018-08-02T09:21:44Z</time>
      </trkpt>
      <trkpt lat="45.88375" lon="4.66138">
        <ele>357</ele>
        <time>2018-08-02T09:21:45Z</time>
      </trkpt>
      <trkpt lat="45.88383" lon="4.66139">
        <ele>357</ele>
        <time>2018-08-02T09:21:49Z</time>
      </trkpt>
      <trkpt lat="45.88385" lon="4.66139">
        <ele>357</ele>
        <time>2018-08-02T09:21:50Z</time>
      </trkpt>
      <trkpt lat="45.88393" lon="4.6614">
        <ele>357</ele>
        <time>2018-08-02T09:21:54Z</time>
      </trkpt>
      <trkpt lat="45.88395" lon="4.6614">
        <ele>358</ele>
        <time>2018-08-02T09:21:55Z</time>
      </trkpt>
      <trkpt lat="45.88403" lon="4.66141">
        <ele>358</ele>
        <time>2018-08-02T09:21:59Z</time>
      </trkpt>
      <trkpt lat="45.88405" lon="4.66141">
        <ele>358</ele>
        <time>2018-08-02T09:22:00Z</time>
      </trkpt>
      <trkpt lat="45.88413" lon="4.6614">
        <ele>358</ele>
        <time>2018-08-02T09:22:04Z</time>
      </trkpt>
      <trkpt lat="45.88415" lon="4.66139">
        <ele>358</ele>
        <time>2018-08-02T09:22:05Z</time>
      </trkpt>
      <trkpt lat="45.88422" lon="4.66141">
        <ele>361</ele>
        <time>2018-08-02T09:22:09Z</time>
      </trkpt>
      <trkpt lat="45.88424" lon="4.66141">
        <ele>361</ele>
        <time>2018-08-02T09:22:10Z</time>
      </trkpt>
      <trkpt lat="45.88431" lon="4.66141">
        <ele>361</ele>
        <time>2018-08-02T09:22:14Z</time>
      </trkpt>
      <trkpt lat="45.88433" lon="4.66141">
        <ele>361</ele>
        <time>2018-08-02T09:22:15Z</time>
      </trkpt>
      <trkpt lat="45.88441" lon="4.66141">
        <ele>361</ele>
        <time>2018-08-02T09:22:19Z</time>
      </trkpt>
      <trkpt lat="45.88443" lon="4.66141">
        <ele>361</ele>
        <time>2018-08-02T09:22:20Z</time>
      </trkpt>
      <trkpt lat="45.88451" lon="4.66144">
        <ele>361</ele>
        <time>2018-08-02T09:22:26Z</time>
      </trkpt>
      <trkpt lat="45.88452" lon="4.66145">
        <ele>361</ele>
        <time>2018-08-02T09:22:27Z</time>
      </trkpt>
      <trkpt lat="45.8846" lon="4.66149">
        <ele>361</ele>
        <time>2018-08-02T09:22:33Z</time>
      </trkpt>
      <trkpt lat="45.88461" lon="4.66149">
        <ele>361</ele>
        <time>2018-08-02T09:22:34Z</time>
      </trkpt>
      <trkpt lat="45.88469" lon="4.66151">
        <ele>362</ele>
        <time>2018-08-02T09:22:38Z</time>
      </trkpt>
      <trkpt lat="45.88471" lon="4.66151">
        <ele>362</ele>
        <time>2018-08-02T09:22:39Z</time>
      </trkpt>
      <trkpt lat="45.8848" lon="4.66152">
        <ele>363</ele>
        <time>2018-08-02T09:22:43Z</time>
      </trkpt>
      <trkpt lat="45.88481" lon="4.66153">
        <ele>363</ele>
        <time>2018-08-02T09:22:44Z</time>
      </trkpt>
      <trkpt lat="45.88488" lon="4.66159">
        <ele>364</ele>
        <time>2018-08-02T09:22:49Z</time>
      </trkpt>
      <trkpt lat="45.88489" lon="4.66161">
        <ele>364</ele>
        <time>2018-08-02T09:22:50Z</time>
      </trkpt>
      <trkpt lat="45.88496" lon="4.66168">
        <ele>368</ele>
        <time>2018-08-02T09:22:56Z</time>
      </trkpt>
      <trkpt lat="45.88497" lon="4.66169">
        <ele>368</ele>
        <time>2018-08-02T09:22:57Z</time>
      </trkpt>
      <trkpt lat="45.88505" lon="4.66175">
        <ele>368</ele>
        <time>2018-08-02T09:23:02Z</time>
      </trkpt>
      <trkpt lat="45.88506" lon="4.66177">
        <ele>368</ele>
        <time>2018-08-02T09:23:03Z</time>
      </trkpt>
      <trkpt lat="45.88513" lon="4.66183">
        <ele>369</ele>
        <time>2018-08-02T09:23:08Z</time>
      </trkpt>
      <trkpt lat="45.88514" lon="4.66185">
        <ele>369</ele>
        <time>2018-08-02T09:23:09Z</time>
      </trkpt>
      <trkpt lat="45.88523" lon="4.6619">
        <ele>369</ele>
        <time>2018-08-02T09:23:14Z</time>
      </trkpt>
      <trkpt lat="45.88524" lon="4.66191">
        <ele>369</ele>
        <time>2018-08-02T09:23:15Z</time>
      </trkpt>
      <trkpt lat="45.88533" lon="4.66195">
        <ele>369</ele>
        <time>2018-08-02T09:23:20Z</time>
      </trkpt>
      <trkpt lat="45.88534" lon="4.66196">
        <ele>370</ele>
        <time>2018-08-02T09:23:21Z</time>
      </trkpt>
      <trkpt lat="45.88541" lon="4.66203">
        <ele>370</ele>
        <time>2018-08-02T09:23:25Z</time>
      </trkpt>
      <trkpt lat="45.88543" lon="4.66205">
        <ele>370</ele>
        <time>2018-08-02T09:23:26Z</time>
      </trkpt>
      <trkpt lat="45.88549" lon="4.66212">
        <ele>370</ele>
        <time>2018-08-02T09:23:30Z</time>
      </trkpt>
      <trkpt lat="45.8855" lon="4.66214">
        <ele>370</ele>
        <time>2018-08-02T09:23:31Z</time>
      </trkpt>
      <trkpt lat="45.88556" lon="4.66222">
        <ele>370</ele>
        <time>2018-08-02T09:23:35Z</time>
      </trkpt>
      <trkpt lat="45.88558" lon="4.66223">
        <ele>370</ele>
        <time>2018-08-02T09:23:36Z</time>
      </trkpt>
      <trkpt lat="45.88564" lon="4.66231">
        <ele>370</ele>
        <time>2018-08-02T09:23:40Z</time>
      </trkpt>
      <trkpt lat="45.88566" lon="4.66233">
        <ele>370</ele>
        <time>2018-08-02T09:23:41Z</time>
      </trkpt>
      <trkpt lat="45.88571" lon="4.66239">
        <ele>371</ele>
        <time>2018-08-02T09:23:44Z</time>
      </trkpt>
      <trkpt lat="45.88573" lon="4.66241">
        <ele>371</ele>
        <time>2018-08-02T09:23:45Z</time>
      </trkpt>
      <trkpt lat="45.88579" lon="4.66246">
        <ele>371</ele>
        <time>2018-08-02T09:23:48Z</time>
      </trkpt>
      <trkpt lat="45.88581" lon="4.66248">
        <ele>371</ele>
        <time>2018-08-02T09:23:49Z</time>
      </trkpt>
      <trkpt lat="45.88587" lon="4.66257">
        <ele>371</ele>
        <time>2018-08-02T09:23:53Z</time>
      </trkpt>
      <trkpt lat="45.88589" lon="4.66259">
        <ele>371</ele>
        <time>2018-08-02T09:23:54Z</time>
      </trkpt>
      <trkpt lat="45.88594" lon="4.66269">
        <ele>372</ele>
        <time>2018-08-02T09:23:58Z</time>
      </trkpt>
      <trkpt lat="45.88596" lon="4.66271">
        <ele>372</ele>
        <time>2018-08-02T09:23:59Z</time>
      </trkpt>
      <trkpt lat="45.88601" lon="4.66279">
        <ele>372</ele>
        <time>2018-08-02T09:24:02Z</time>
      </trkpt>
      <trkpt lat="45.88602" lon="4.66281">
        <ele>372</ele>
        <time>2018-08-02T09:24:03Z</time>
      </trkpt>
      <trkpt lat="45.88607" lon="4.66289">
        <ele>373</ele>
        <time>2018-08-02T09:24:06Z</time>
      </trkpt>
      <trkpt lat="45.88608" lon="4.66292">
        <ele>373</ele>
        <time>2018-08-02T09:24:07Z</time>
      </trkpt>
      <trkpt lat="45.88612" lon="4.66301">
        <ele>373</ele>
        <time>2018-08-02T09:24:10Z</time>
      </trkpt>
      <trkpt lat="45.88613" lon="4.66304">
        <ele>373</ele>
        <time>2018-08-02T09:24:11Z</time>
      </trkpt>
      <trkpt lat="45.88618" lon="4.66313">
        <ele>374</ele>
        <time>2018-08-02T09:24:14Z</time>
      </trkpt>
      <trkpt lat="45.88619" lon="4.66316">
        <ele>374</ele>
        <time>2018-08-02T09:24:15Z</time>
      </trkpt>
      <trkpt lat="45.88623" lon="4.66324">
        <ele>374</ele>
        <time>2018-08-02T09:24:18Z</time>
      </trkpt>
      <trkpt lat="45.88625" lon="4.66326">
        <ele>374</ele>
        <time>2018-08-02T09:24:19Z</time>
      </trkpt>
      <trkpt lat="45.8863" lon="4.66335">
        <ele>380</ele>
        <time>2018-08-02T09:24:22Z</time>
      </trkpt>
      <trkpt lat="45.88632" lon="4.66337">
        <ele>380</ele>
        <time>2018-08-02T09:24:23Z</time>
      </trkpt>
      <trkpt lat="45.88638" lon="4.66346">
        <ele>379</ele>
        <time>2018-08-02T09:24:27Z</time>
      </trkpt>
      <trkpt lat="45.8864" lon="4.66348">
        <ele>379</ele>
        <time>2018-08-02T09:24:28Z</time>
      </trkpt>
      <trkpt lat="45.88645" lon="4.66354">
        <ele>379</ele>
        <time>2018-08-02T09:24:31Z</time>
      </trkpt>
      <trkpt lat="45.88647" lon="4.66356">
        <ele>379</ele>
        <time>2018-08-02T09:24:32Z</time>
      </trkpt>
      <trkpt lat="45.88651" lon="4.66364">
        <ele>380</ele>
        <time>2018-08-02T09:24:35Z</time>
      </trkpt>
      <trkpt lat="45.88653" lon="4.66367">
        <ele>380</ele>
        <time>2018-08-02T09:24:36Z</time>
      </trkpt>
      <trkpt lat="45.88658" lon="4.66377">
        <ele>381</ele>
        <time>2018-08-02T09:24:40Z</time>
      </trkpt>
      <trkpt lat="45.8866" lon="4.66379">
        <ele>381</ele>
        <time>2018-08-02T09:24:41Z</time>
      </trkpt>
      <trkpt lat="45.88665" lon="4.66385">
        <ele>381</ele>
        <time>2018-08-02T09:24:44Z</time>
      </trkpt>
      <trkpt lat="45.88667" lon="4.66387">
        <ele>378</ele>
        <time>2018-08-02T09:24:45Z</time>
      </trkpt>
      <trkpt lat="45.88673" lon="4.66393">
        <ele>378</ele>
        <time>2018-08-02T09:24:48Z</time>
      </trkpt>
      <trkpt lat="45.88675" lon="4.66395">
        <ele>378</ele>
        <time>2018-08-02T09:24:49Z</time>
      </trkpt>
      <trkpt lat="45.88681" lon="4.66401">
        <ele>379</ele>
        <time>2018-08-02T09:24:52Z</time>
      </trkpt>
      <trkpt lat="45.88683" lon="4.66402">
        <ele>379</ele>
        <time>2018-08-02T09:24:53Z</time>
      </trkpt>
      <trkpt lat="45.88691" lon="4.66407">
        <ele>378</ele>
        <time>2018-08-02T09:24:57Z</time>
      </trkpt>
      <trkpt lat="45.88693" lon="4.66409">
        <ele>378</ele>
        <time>2018-08-02T09:24:58Z</time>
      </trkpt>
      <trkpt lat="45.887" lon="4.66415">
        <ele>378</ele>
        <time>2018-08-02T09:25:02Z</time>
      </trkpt>
      <trkpt lat="45.88702" lon="4.66417">
        <ele>378</ele>
        <time>2018-08-02T09:25:03Z</time>
      </trkpt>
      <trkpt lat="45.88708" lon="4.66423">
        <ele>383</ele>
        <time>2018-08-02T09:25:06Z</time>
      </trkpt>
      <trkpt lat="45.88709" lon="4.66425">
        <ele>383</ele>
        <time>2018-08-02T09:25:07Z</time>
      </trkpt>
      <trkpt lat="45.88716" lon="4.66433">
        <ele>383</ele>
        <time>2018-08-02T09:25:11Z</time>
      </trkpt>
      <trkpt lat="45.88717" lon="4.66435">
        <ele>383</ele>
        <time>2018-08-02T09:25:12Z</time>
      </trkpt>
      <trkpt lat="45.88724" lon="4.66441">
        <ele>383</ele>
        <time>2018-08-02T09:25:16Z</time>
      </trkpt>
      <trkpt lat="45.88726" lon="4.66443">
        <ele>383</ele>
        <time>2018-08-02T09:25:17Z</time>
      </trkpt>
      <trkpt lat="45.88732" lon="4.66451">
        <ele>384</ele>
        <time>2018-08-02T09:25:21Z</time>
      </trkpt>
      <trkpt lat="45.88733" lon="4.66453">
        <ele>384</ele>
        <time>2018-08-02T09:25:22Z</time>
      </trkpt>
      <trkpt lat="45.88739" lon="4.6646">
        <ele>384</ele>
        <time>2018-08-02T09:25:26Z</time>
      </trkpt>
      <trkpt lat="45.8874" lon="4.66462">
        <ele>384</ele>
        <time>2018-08-02T09:25:27Z</time>
      </trkpt>
      <trkpt lat="45.88746" lon="4.66472">
        <ele>385</ele>
        <time>2018-08-02T09:25:31Z</time>
      </trkpt>
      <trkpt lat="45.88747" lon="4.66474">
        <ele>385</ele>
        <time>2018-08-02T09:25:32Z</time>
      </trkpt>
      <trkpt lat="45.88752" lon="4.66482">
        <ele>384</ele>
        <time>2018-08-02T09:25:36Z</time>
      </trkpt>
      <trkpt lat="45.88753" lon="4.66484">
        <ele>384</ele>
        <time>2018-08-02T09:25:37Z</time>
      </trkpt>
      <trkpt lat="45.88759" lon="4.66491">
        <ele>385</ele>
        <time>2018-08-02T09:25:42Z</time>
      </trkpt>
      <trkpt lat="45.88761" lon="4.66493">
        <ele>385</ele>
        <time>2018-08-02T09:25:43Z</time>
      </trkpt>
      <trkpt lat="45.88767" lon="4.665">
        <ele>384</ele>
        <time>2018-08-02T09:25:47Z</time>
      </trkpt>
      <trkpt lat="45.88769" lon="4.66501">
        <ele>389</ele>
        <time>2018-08-02T09:25:48Z</time>
      </trkpt>
      <trkpt lat="45.88775" lon="4.66508">
        <ele>390</ele>
        <time>2018-08-02T09:25:52Z</time>
      </trkpt>
      <trkpt lat="45.88776" lon="4.66509">
        <ele>390</ele>
        <time>2018-08-02T09:25:53Z</time>
      </trkpt>
      <trkpt lat="45.88781" lon="4.66516">
        <ele>390</ele>
        <time>2018-08-02T09:25:57Z</time>
      </trkpt>
      <trkpt lat="45.88782" lon="4.66518">
        <ele>390</ele>
        <time>2018-08-02T09:25:58Z</time>
      </trkpt>
      <trkpt lat="45.88789" lon="4.66527">
        <ele>391</ele>
        <time>2018-08-02T09:26:03Z</time>
      </trkpt>
      <trkpt lat="45.8879" lon="4.66528">
        <ele>391</ele>
        <time>2018-08-02T09:26:04Z</time>
      </trkpt>
      <trkpt lat="45.88796" lon="4.66534">
        <ele>391</ele>
        <time>2018-08-02T09:26:08Z</time>
      </trkpt>
      <trkpt lat="45.88798" lon="4.66535">
        <ele>391</ele>
        <time>2018-08-02T09:26:09Z</time>
      </trkpt>
      <trkpt lat="45.88805" lon="4.6654">
        <ele>391</ele>
        <time>2018-08-02T09:26:13Z</time>
      </trkpt>
      <trkpt lat="45.88806" lon="4.66541">
        <ele>391</ele>
        <time>2018-08-02T09:26:14Z</time>
      </trkpt>
      <trkpt lat="45.88814" lon="4.66545">
        <ele>392</ele>
        <time>2018-08-02T09:26:19Z</time>
      </trkpt>
      <trkpt lat="45.88815" lon="4.66546">
        <ele>392</ele>
        <time>2018-08-02T09:26:20Z</time>
      </trkpt>
      <trkpt lat="45.88823" lon="4.6655">
        <ele>392</ele>
        <time>2018-08-02T09:26:25Z</time>
      </trkpt>
      <trkpt lat="45.88825" lon="4.66551">
        <ele>392</ele>
        <time>2018-08-02T09:26:26Z</time>
      </trkpt>
      <trkpt lat="45.88832" lon="4.66557">
        <ele>393</ele>
        <time>2018-08-02T09:26:31Z</time>
      </trkpt>
      <trkpt lat="45.88833" lon="4.66558">
        <ele>391</ele>
        <time>2018-08-02T09:26:32Z</time>
      </trkpt>
      <trkpt lat="45.88842" lon="4.66562">
        <ele>392</ele>
        <time>2018-08-02T09:26:38Z</time>
      </trkpt>
      <trkpt lat="45.88843" lon="4.66563">
        <ele>392</ele>
        <time>2018-08-02T09:26:39Z</time>
      </trkpt>
      <trkpt lat="45.8885" lon="4.6657">
        <ele>392</ele>
        <time>2018-08-02T09:26:44Z</time>
      </trkpt>
      <trkpt lat="45.88851" lon="4.66571">
        <ele>392</ele>
        <time>2018-08-02T09:26:45Z</time>
      </trkpt>
      <trkpt lat="45.88857" lon="4.66578">
        <ele>392</ele>
        <time>2018-08-02T09:26:50Z</time>
      </trkpt>
      <trkpt lat="45.88858" lon="4.6658">
        <ele>392</ele>
        <time>2018-08-02T09:26:51Z</time>
      </trkpt>
      <trkpt lat="45.88864" lon="4.66588">
        <ele>399</ele>
        <time>2018-08-02T09:26:56Z</time>
      </trkpt>
      <trkpt lat="45.88865" lon="4.66589">
        <ele>399</ele>
        <time>2018-08-02T09:26:57Z</time>
      </trkpt>
      <trkpt lat="45.88871" lon="4.66597">
        <ele>400</ele>
        <time>2018-08-02T09:27:01Z</time>
      </trkpt>
      <trkpt lat="45.88872" lon="4.66599">
        <ele>400</ele>
        <time>2018-08-02T09:27:02Z</time>
      </trkpt>
      <trkpt lat="45.88877" lon="4.66608">
        <ele>400</ele>
        <time>2018-08-02T09:27:08Z</time>
      </trkpt>
      <trkpt lat="45.88878" lon="4.6661">
        <ele>400</ele>
        <time>2018-08-02T09:27:09Z</time>
      </trkpt>
      <trkpt lat="45.88883" lon="4.66618">
        <ele>401</ele>
        <time>2018-08-02T09:27:16Z</time>
      </trkpt>
      <trkpt lat="45.88884" lon="4.6662">
        <ele>401</ele>
        <time>2018-08-02T09:27:17Z</time>
      </trkpt>
      <trkpt lat="45.88889" lon="4.66627">
        <ele>401</ele>
        <time>2018-08-02T09:27:21Z</time>
      </trkpt>
      <trkpt lat="45.88891" lon="4.66629">
        <ele>401</ele>
        <time>2018-08-02T09:27:22Z</time>
      </trkpt>
      <trkpt lat="45.88897" lon="4.66637">
        <ele>402</ele>
        <time>2018-08-02T09:27:27Z</time>
      </trkpt>
      <trkpt lat="45.88899" lon="4.66639">
        <ele>402</ele>
        <time>2018-08-02T09:27:28Z</time>
      </trkpt>
      <trkpt lat="45.88906" lon="4.66645">
        <ele>403</ele>
        <time>2018-08-02T09:27:32Z</time>
      </trkpt>
      <trkpt lat="45.88908" lon="4.66647">
        <ele>403</ele>
        <time>2018-08-02T09:27:33Z</time>
      </trkpt>
      <trkpt lat="45.88916" lon="4.66653">
        <ele>404</ele>
        <time>2018-08-02T09:27:37Z</time>
      </trkpt>
      <trkpt lat="45.88918" lon="4.66654">
        <ele>403</ele>
        <time>2018-08-02T09:27:38Z</time>
      </trkpt>
      <trkpt lat="45.88925" lon="4.6666">
        <ele>403</ele>
        <time>2018-08-02T09:27:41Z</time>
      </trkpt>
      <trkpt lat="45.88927" lon="4.66661">
        <ele>403</ele>
        <time>2018-08-02T09:27:42Z</time>
      </trkpt>
      <trkpt lat="45.88933" lon="4.66667">
        <ele>408</ele>
        <time>2018-08-02T09:27:45Z</time>
      </trkpt>
      <trkpt lat="45.88935" lon="4.66669">
        <ele>408</ele>
        <time>2018-08-02T09:27:46Z</time>
      </trkpt>
      <trkpt lat="45.88942" lon="4.66675">
        <ele>408</ele>
        <time>2018-08-02T09:27:50Z</time>
      </trkpt>
      <trkpt lat="45.88944" lon="4.66676">
        <ele>408</ele>
        <time>2018-08-02T09:27:51Z</time>
      </trkpt>
      <trkpt lat="45.8895" lon="4.66681">
        <ele>408</ele>
        <time>2018-08-02T09:27:54Z</time>
      </trkpt>
      <trkpt lat="45.88952" lon="4.66683">
        <ele>408</ele>
        <time>2018-08-02T09:27:55Z</time>
      </trkpt>
      <trkpt lat="45.88959" lon="4.66688">
        <ele>409</ele>
        <time>2018-08-02T09:27:58Z</time>
      </trkpt>
      <trkpt lat="45.88961" lon="4.66688">
        <ele>409</ele>
        <time>2018-08-02T09:27:59Z</time>
      </trkpt>
      <trkpt lat="45.88968" lon="4.66689">
        <ele>408</ele>
        <time>2018-08-02T09:28:02Z</time>
      </trkpt>
      <trkpt lat="45.8897" lon="4.6669">
        <ele>408</ele>
        <time>2018-08-02T09:28:03Z</time>
      </trkpt>
      <trkpt lat="45.88978" lon="4.66694">
        <ele>408</ele>
        <time>2018-08-02T09:28:06Z</time>
      </trkpt>
      <trkpt lat="45.88981" lon="4.66696">
        <ele>408</ele>
        <time>2018-08-02T09:28:07Z</time>
      </trkpt>
      <trkpt lat="45.88988" lon="4.66701">
        <ele>409</ele>
        <time>2018-08-02T09:28:10Z</time>
      </trkpt>
      <trkpt lat="45.8899" lon="4.66703">
        <ele>409</ele>
        <time>2018-08-02T09:28:11Z</time>
      </trkpt>
      <trkpt lat="45.88997" lon="4.6671">
        <ele>409</ele>
        <time>2018-08-02T09:28:15Z</time>
      </trkpt>
      <trkpt lat="45.88999" lon="4.66712">
        <ele>410</ele>
        <time>2018-08-02T09:28:16Z</time>
      </trkpt>
      <trkpt lat="45.89007" lon="4.66714">
        <ele>407</ele>
        <time>2018-08-02T09:28:20Z</time>
      </trkpt>
      <trkpt lat="45.89008" lon="4.66715">
        <ele>407</ele>
        <time>2018-08-02T09:28:21Z</time>
      </trkpt>
      <trkpt lat="45.89016" lon="4.66719">
        <ele>407</ele>
        <time>2018-08-02T09:28:24Z</time>
      </trkpt>
      <trkpt lat="45.89019" lon="4.66721">
        <ele>407</ele>
        <time>2018-08-02T09:28:25Z</time>
      </trkpt>
      <trkpt lat="45.89026" lon="4.66728">
        <ele>408</ele>
        <time>2018-08-02T09:28:28Z</time>
      </trkpt>
      <trkpt lat="45.89028" lon="4.6673">
        <ele>408</ele>
        <time>2018-08-02T09:28:29Z</time>
      </trkpt>
      <trkpt lat="45.8903" lon="4.66732">
        <ele>408</ele>
        <time>2018-08-02T09:28:30Z</time>
      </trkpt>
      <trkpt lat="45.89042" lon="4.66741">
        <ele>408</ele>
        <time>2018-08-02T09:28:31Z</time>
      </trkpt>
      <trkpt lat="45.89048" lon="4.66744">
        <ele>407</ele>
        <time>2018-08-02T09:28:35Z</time>
      </trkpt>
      <trkpt lat="45.89057" lon="4.6675">
        <ele>407</ele>
        <time>2018-08-02T09:28:36Z</time>
      </trkpt>
      <trkpt lat="45.89064" lon="4.66756">
        <ele>412</ele>
        <time>2018-08-02T09:28:44Z</time>
      </trkpt>
      <trkpt lat="45.89065" lon="4.66757">
        <ele>412</ele>
        <time>2018-08-02T09:28:45Z</time>
      </trkpt>
      <trkpt lat="45.89072" lon="4.66761">
        <ele>411</ele>
        <time>2018-08-02T09:28:49.168Z</time>
      </trkpt>
      <trkpt lat="45.89073" lon="4.66763">
        <ele>411</ele>
        <time>2018-08-02T09:28:49Z</time>
      </trkpt>
      <trkpt lat="45.89077" lon="4.66765">
        <ele>411</ele>
        <time>2018-08-02T09:28:51Z</time>
      </trkpt>
      <trkpt lat="45.89085" lon="4.66768">
        <ele>409</ele>
        <time>2018-08-02T09:28:52Z</time>
      </trkpt>
      <trkpt lat="45.89092" lon="4.66773">
        <ele>410</ele>
        <time>2018-08-02T09:28:55Z</time>
      </trkpt>
      <trkpt lat="45.89094" lon="4.66775">
        <ele>410</ele>
        <time>2018-08-02T09:28:56Z</time>
      </trkpt>
      <trkpt lat="45.89099" lon="4.66785">
        <ele>410</ele>
        <time>2018-08-02T09:28:59Z</time>
      </trkpt>
      <trkpt lat="45.891" lon="4.66788">
        <ele>410</ele>
        <time>2018-08-02T09:29:00Z</time>
      </trkpt>
      <trkpt lat="45.89106" lon="4.66796">
        <ele>410</ele>
        <time>2018-08-02T09:29:04Z</time>
      </trkpt>
      <trkpt lat="45.89108" lon="4.66798">
        <ele>411</ele>
        <time>2018-08-02T09:29:05Z</time>
      </trkpt>
      <trkpt lat="45.89115" lon="4.66804">
        <ele>411</ele>
        <time>2018-08-02T09:29:09Z</time>
      </trkpt>
      <trkpt lat="45.89116" lon="4.66805">
        <ele>411</ele>
        <time>2018-08-02T09:29:09.552Z</time>
      </trkpt>
      <trkpt lat="45.89122" lon="4.66811">
        <ele>411</ele>
        <time>2018-08-02T09:29:12Z</time>
      </trkpt>
      <trkpt lat="45.89124" lon="4.66814">
        <ele>411</ele>
        <time>2018-08-02T09:29:13Z</time>
      </trkpt>
      <trkpt lat="45.89126" lon="4.66826">
        <ele>411</ele>
        <time>2018-08-02T09:29:17Z</time>
      </trkpt>
      <trkpt lat="45.89126" lon="4.66828">
        <ele>411</ele>
        <time>2018-08-02T09:29:18Z</time>
      </trkpt>
      <trkpt lat="45.89121" lon="4.66826">
        <ele>411</ele>
        <time>2018-08-02T09:37:47Z</time>
      </trkpt>
      <trkpt lat="45.89121" lon="4.66826">
        <ele>411</ele>
        <time>2018-08-02T09:37:48Z</time>
      </trkpt>
      <trkpt lat="45.89118" lon="4.66815">
        <ele>411</ele>
        <time>2018-08-02T09:38:05Z</time>
      </trkpt>
      <trkpt lat="45.89117" lon="4.66814">
        <ele>411</ele>
        <time>2018-08-02T09:38:06Z</time>
      </trkpt>
      <trkpt lat="45.89116" lon="4.66807">
        <ele>411</ele>
        <time>2018-08-02T09:38:23Z</time>
      </trkpt>
      <trkpt lat="45.89116" lon="4.66807">
        <ele>411</ele>
        <time>2018-08-02T09:38:24Z</time>
      </trkpt>
      <trkpt lat="45.89116" lon="4.66803">
        <ele>411</ele>
        <time>2018-08-02T09:38:40Z</time>
      </trkpt>
      <trkpt lat="45.89116" lon="4.66803">
        <ele>411</ele>
        <time>2018-08-02T09:38:41Z</time>
      </trkpt>
      <trkpt lat="45.89117" lon="4.66816">
        <ele>411</ele>
        <time>2018-08-02T09:44:43Z</time>
      </trkpt>
      <trkpt lat="45.89118" lon="4.66819">
        <ele>411</ele>
        <time>2018-08-02T09:44:44Z</time>
      </trkpt>
      <trkpt lat="45.8912" lon="4.66829">
        <ele>412</ele>
        <time>2018-08-02T09:44:47Z</time>
      </trkpt>
      <trkpt lat="45.8912" lon="4.66833">
        <ele>412</ele>
        <time>2018-08-02T09:44:48Z</time>
      </trkpt>
      <trkpt lat="45.89125" lon="4.66844">
        <ele>414</ele>
        <time>2018-08-02T09:44:55Z</time>
      </trkpt>
      <trkpt lat="45.89125" lon="4.66844">
        <ele>414</ele>
        <time>2018-08-02T09:44:56Z</time>
      </trkpt>
      <trkpt lat="45.89129" lon="4.66836">
        <ele>414</ele>
        <time>2018-08-02T09:45:00Z</time>
      </trkpt>
      <trkpt lat="45.8913" lon="4.66832">
        <ele>411</ele>
        <time>2018-08-02T09:45:01Z</time>
      </trkpt>
      <trkpt lat="45.89133" lon="4.66823">
        <ele>411</ele>
        <time>2018-08-02T09:45:04Z</time>
      </trkpt>
      <trkpt lat="45.89136" lon="4.66818">
        <ele>411</ele>
        <time>2018-08-02T09:45:05Z</time>
      </trkpt>
      <trkpt lat="45.89142" lon="4.6682">
        <ele>411</ele>
        <time>2018-08-02T09:45:07Z</time>
      </trkpt>
      <trkpt lat="45.89147" lon="4.66823">
        <ele>412</ele>
        <time>2018-08-02T09:45:08Z</time>
      </trkpt>
      <trkpt lat="45.89153" lon="4.66828">
        <ele>412</ele>
        <time>2018-08-02T09:45:11Z</time>
      </trkpt>
      <trkpt lat="45.89155" lon="4.66831">
        <ele>412</ele>
        <time>2018-08-02T09:45:12Z</time>
      </trkpt>
      <trkpt lat="45.89157" lon="4.66841">
        <ele>414</ele>
        <time>2018-08-02T09:45:16Z</time>
      </trkpt>
      <trkpt lat="45.89158" lon="4.66844">
        <ele>414</ele>
        <time>2018-08-02T09:45:17Z</time>
      </trkpt>
      <trkpt lat="45.89157" lon="4.66854">
        <ele>414</ele>
        <time>2018-08-02T09:45:20Z</time>
      </trkpt>
      <trkpt lat="45.89156" lon="4.66857">
        <ele>414</ele>
        <time>2018-08-02T09:45:21Z</time>
      </trkpt>
      <trkpt lat="45.89155" lon="4.6686">
        <ele>414</ele>
        <time>2018-08-02T09:45:22Z</time>
      </trkpt>
      <trkpt lat="45.89155" lon="4.66874">
        <ele>414</ele>
        <time>2018-08-02T09:45:23Z</time>
      </trkpt>
      <trkpt lat="45.89157" lon="4.66885">
        <ele>414</ele>
        <time>2018-08-02T09:45:25Z</time>
      </trkpt>
      <trkpt lat="45.89157" lon="4.66887">
        <ele>414</ele>
        <time>2018-08-02T09:45:26Z</time>
      </trkpt>
      <trkpt lat="45.89159" lon="4.66895">
        <ele>414</ele>
        <time>2018-08-02T09:45:27Z</time>
      </trkpt>
      <trkpt lat="45.8916" lon="4.669">
        <ele>415</ele>
        <time>2018-08-02T09:45:28Z</time>
      </trkpt>
      <trkpt lat="45.89163" lon="4.66911">
        <ele>415</ele>
        <time>2018-08-02T09:45:30Z</time>
      </trkpt>
      <trkpt lat="45.89164" lon="4.66917">
        <ele>415</ele>
        <time>2018-08-02T09:45:31Z</time>
      </trkpt>
      <trkpt lat="45.89166" lon="4.66929">
        <ele>413</ele>
        <time>2018-08-02T09:45:33Z</time>
      </trkpt>
      <trkpt lat="45.89168" lon="4.66935">
        <ele>415</ele>
        <time>2018-08-02T09:45:34Z</time>
      </trkpt>
      <trkpt lat="45.89172" lon="4.66945">
        <ele>415</ele>
        <time>2018-08-02T09:45:35Z</time>
      </trkpt>
      <trkpt lat="45.89173" lon="4.6695">
        <ele>415</ele>
        <time>2018-08-02T09:45:36Z</time>
      </trkpt>
      <trkpt lat="45.89176" lon="4.66961">
        <ele>415</ele>
        <time>2018-08-02T09:45:38Z</time>
      </trkpt>
      <trkpt lat="45.89176" lon="4.66964">
        <ele>415</ele>
        <time>2018-08-02T09:45:39Z</time>
      </trkpt>
      <trkpt lat="45.89177" lon="4.66971">
        <ele>415</ele>
        <time>2018-08-02T09:45:41Z</time>
      </trkpt>
      <trkpt lat="45.8918" lon="4.66981">
        <ele>414</ele>
        <time>2018-08-02T09:45:42Z</time>
      </trkpt>
      <trkpt lat="45.89181" lon="4.66988">
        <ele>414</ele>
        <time>2018-08-02T09:45:43Z</time>
      </trkpt>
      <trkpt lat="45.8918" lon="4.66994">
        <ele>413</ele>
        <time>2018-08-02T09:45:44Z</time>
      </trkpt>
      <trkpt lat="45.89183" lon="4.67005">
        <ele>412</ele>
        <time>2018-08-02T09:45:46Z</time>
      </trkpt>
      <trkpt lat="45.89187" lon="4.67012">
        <ele>413</ele>
        <time>2018-08-02T09:45:47Z</time>
      </trkpt>
      <trkpt lat="45.89189" lon="4.67018">
        <ele>413</ele>
        <time>2018-08-02T09:45:48Z</time>
      </trkpt>
      <trkpt lat="45.8919" lon="4.67024">
        <ele>413</ele>
        <time>2018-08-02T09:45:49Z</time>
      </trkpt>
      <trkpt lat="45.89194" lon="4.67034">
        <ele>413</ele>
        <time>2018-08-02T09:45:51Z</time>
      </trkpt>
      <trkpt lat="45.89196" lon="4.67039">
        <ele>413</ele>
        <time>2018-08-02T09:45:52Z</time>
      </trkpt>
      <trkpt lat="45.89197" lon="4.6705">
        <ele>412</ele>
        <time>2018-08-02T09:45:54Z</time>
      </trkpt>
      <trkpt lat="45.89199" lon="4.67057">
        <ele>412</ele>
        <time>2018-08-02T09:45:55Z</time>
      </trkpt>
      <trkpt lat="45.89204" lon="4.67064">
        <ele>412</ele>
        <time>2018-08-02T09:45:56Z</time>
      </trkpt>
      <trkpt lat="45.89204" lon="4.67072">
        <ele>412</ele>
        <time>2018-08-02T09:45:57Z</time>
      </trkpt>
      <trkpt lat="45.89208" lon="4.67083">
        <ele>412</ele>
        <time>2018-08-02T09:45:59Z</time>
      </trkpt>
      <trkpt lat="45.8921" lon="4.67088">
        <ele>410</ele>
        <time>2018-08-02T09:46:00Z</time>
      </trkpt>
      <trkpt lat="45.89213" lon="4.67095">
        <ele>410</ele>
        <time>2018-08-02T09:46:01Z</time>
      </trkpt>
      <trkpt lat="45.89215" lon="4.67099">
        <ele>410</ele>
        <time>2018-08-02T09:46:02Z</time>
      </trkpt>
      <trkpt lat="45.89219" lon="4.67104">
        <ele>411</ele>
        <time>2018-08-02T09:46:03Z</time>
      </trkpt>
      <trkpt lat="45.89221" lon="4.67109">
        <ele>411</ele>
        <time>2018-08-02T09:46:04Z</time>
      </trkpt>
      <trkpt lat="45.89223" lon="4.67115">
        <ele>411</ele>
        <time>2018-08-02T09:46:05Z</time>
      </trkpt>
      <trkpt lat="45.89227" lon="4.67121">
        <ele>411</ele>
        <time>2018-08-02T09:46:06Z</time>
      </trkpt>
      <trkpt lat="45.89231" lon="4.67127">
        <ele>411</ele>
        <time>2018-08-02T09:46:07Z</time>
      </trkpt>
      <trkpt lat="45.89233" lon="4.67132">
        <ele>411</ele>
        <time>2018-08-02T09:46:08Z</time>
      </trkpt>
      <trkpt lat="45.89235" lon="4.67138">
        <ele>411</ele>
        <time>2018-08-02T09:46:09Z</time>
      </trkpt>
      <trkpt lat="45.89239" lon="4.67143">
        <ele>411</ele>
        <time>2018-08-02T09:46:10Z</time>
      </trkpt>
      <trkpt lat="45.89242" lon="4.67148">
        <ele>411</ele>
        <time>2018-08-02T09:46:11Z</time>
      </trkpt>
      <trkpt lat="45.89246" lon="4.67153">
        <ele>412</ele>
        <time>2018-08-02T09:46:12Z</time>
      </trkpt>
      <trkpt lat="45.89251" lon="4.67158">
        <ele>414</ele>
        <time>2018-08-02T09:46:13Z</time>
      </trkpt>
      <trkpt lat="45.89256" lon="4.67162">
        <ele>414</ele>
        <time>2018-08-02T09:46:14Z</time>
      </trkpt>
      <trkpt lat="45.8926" lon="4.67168">
        <ele>412</ele>
        <time>2018-08-02T09:46:15Z</time>
      </trkpt>
      <trkpt lat="45.89266" lon="4.67173">
        <ele>412</ele>
        <time>2018-08-02T09:46:16Z</time>
      </trkpt>
      <trkpt lat="45.89272" lon="4.67179">
        <ele>412</ele>
        <time>2018-08-02T09:46:17Z</time>
      </trkpt>
      <trkpt lat="45.89278" lon="4.67182">
        <ele>412</ele>
        <time>2018-08-02T09:46:18Z</time>
      </trkpt>
      <trkpt lat="45.89285" lon="4.67185">
        <ele>412</ele>
        <time>2018-08-02T09:46:19Z</time>
      </trkpt>
      <trkpt lat="45.89287" lon="4.67191">
        <ele>412</ele>
        <time>2018-08-02T09:46:20Z</time>
      </trkpt>
      <trkpt lat="45.89294" lon="4.67194">
        <ele>412</ele>
        <time>2018-08-02T09:46:21Z</time>
      </trkpt>
      <trkpt lat="45.89296" lon="4.67197">
        <ele>412</ele>
        <time>2018-08-02T09:46:22Z</time>
      </trkpt>
      <trkpt lat="45.89301" lon="4.672">
        <ele>412</ele>
        <time>2018-08-02T09:46:23Z</time>
      </trkpt>
      <trkpt lat="45.89308" lon="4.67203">
        <ele>412</ele>
        <time>2018-08-02T09:46:24Z</time>
      </trkpt>
      <trkpt lat="45.89313" lon="4.67206">
        <ele>412</ele>
        <time>2018-08-02T09:46:25Z</time>
      </trkpt>
      <trkpt lat="45.89318" lon="4.67207">
        <ele>412</ele>
        <time>2018-08-02T09:46:26Z</time>
      </trkpt>
      <trkpt lat="45.89324" lon="4.67209">
        <ele>412</ele>
        <time>2018-08-02T09:46:27Z</time>
      </trkpt>
      <trkpt lat="45.89329" lon="4.6721">
        <ele>412</ele>
        <time>2018-08-02T09:46:28Z</time>
      </trkpt>
      <trkpt lat="45.89334" lon="4.67211">
        <ele>416</ele>
        <time>2018-08-02T09:46:29Z</time>
      </trkpt>
      <trkpt lat="45.89339" lon="4.67213">
        <ele>416</ele>
        <time>2018-08-02T09:46:30Z</time>
      </trkpt>
      <trkpt lat="45.89343" lon="4.67215">
        <ele>415</ele>
        <time>2018-08-02T09:46:31Z</time>
      </trkpt>
      <trkpt lat="45.89347" lon="4.67219">
        <ele>415</ele>
        <time>2018-08-02T09:46:32Z</time>
      </trkpt>
      <trkpt lat="45.8935" lon="4.67224">
        <ele>415</ele>
        <time>2018-08-02T09:46:33Z</time>
      </trkpt>
      <trkpt lat="45.89355" lon="4.67229">
        <ele>415</ele>
        <time>2018-08-02T09:46:34Z</time>
      </trkpt>
      <trkpt lat="45.89361" lon="4.67238">
        <ele>415</ele>
        <time>2018-08-02T09:46:36Z</time>
      </trkpt>
      <trkpt lat="45.89364" lon="4.67246">
        <ele>415</ele>
        <time>2018-08-02T09:46:37Z</time>
      </trkpt>
      <trkpt lat="45.89367" lon="4.67254">
        <ele>409</ele>
        <time>2018-08-02T09:46:38Z</time>
      </trkpt>
      <trkpt lat="45.8937" lon="4.67259">
        <ele>409</ele>
        <time>2018-08-02T09:46:39Z</time>
      </trkpt>
      <trkpt lat="45.89375" lon="4.67265">
        <ele>409</ele>
        <time>2018-08-02T09:46:40Z</time>
      </trkpt>
      <trkpt lat="45.89377" lon="4.6727">
        <ele>409</ele>
        <time>2018-08-02T09:46:41Z</time>
      </trkpt>
      <trkpt lat="45.89381" lon="4.67275">
        <ele>409</ele>
        <time>2018-08-02T09:46:42Z</time>
      </trkpt>
      <trkpt lat="45.89384" lon="4.67281">
        <ele>409</ele>
        <time>2018-08-02T09:46:43Z</time>
      </trkpt>
      <trkpt lat="45.89387" lon="4.67288">
        <ele>408</ele>
        <time>2018-08-02T09:46:44Z</time>
      </trkpt>
      <trkpt lat="45.89389" lon="4.67295">
        <ele>408</ele>
        <time>2018-08-02T09:46:45Z</time>
      </trkpt>
      <trkpt lat="45.89391" lon="4.67298">
        <ele>408</ele>
        <time>2018-08-02T09:46:46Z</time>
      </trkpt>
      <trkpt lat="45.89392" lon="4.67308">
        <ele>407</ele>
        <time>2018-08-02T09:46:47Z</time>
      </trkpt>
      <trkpt lat="45.89399" lon="4.67312">
        <ele>407</ele>
        <time>2018-08-02T09:46:48Z</time>
      </trkpt>
      <trkpt lat="45.89405" lon="4.67318">
        <ele>407</ele>
        <time>2018-08-02T09:46:49Z</time>
      </trkpt>
      <trkpt lat="45.89412" lon="4.67321">
        <ele>407</ele>
        <time>2018-08-02T09:46:50Z</time>
      </trkpt>
      <trkpt lat="45.89416" lon="4.67327">
        <ele>407</ele>
        <time>2018-08-02T09:46:51Z</time>
      </trkpt>
      <trkpt lat="45.89422" lon="4.67331">
        <ele>409</ele>
        <time>2018-08-02T09:46:52Z</time>
      </trkpt>
      <trkpt lat="45.89427" lon="4.67337">
        <ele>407</ele>
        <time>2018-08-02T09:46:53Z</time>
      </trkpt>
      <trkpt lat="45.89431" lon="4.67342">
        <ele>407</ele>
        <time>2018-08-02T09:46:54Z</time>
      </trkpt>
      <trkpt lat="45.89435" lon="4.67348">
        <ele>407</ele>
        <time>2018-08-02T09:46:55Z</time>
      </trkpt>
      <trkpt lat="45.89439" lon="4.67353">
        <ele>407</ele>
        <time>2018-08-02T09:46:56Z</time>
      </trkpt>
      <trkpt lat="45.89441" lon="4.67361">
        <ele>407</ele>
        <time>2018-08-02T09:46:57Z</time>
      </trkpt>
      <trkpt lat="45.89449" lon="4.67363">
        <ele>407</ele>
        <time>2018-08-02T09:46:58Z</time>
      </trkpt>
      <trkpt lat="45.89455" lon="4.67369">
        <ele>407</ele>
        <time>2018-08-02T09:46:59Z</time>
      </trkpt>
      <trkpt lat="45.89461" lon="4.67373">
        <ele>407</ele>
        <time>2018-08-02T09:47:00Z</time>
      </trkpt>
      <trkpt lat="45.89466" lon="4.6738">
        <ele>407</ele>
        <time>2018-08-02T09:47:01Z</time>
      </trkpt>
      <trkpt lat="45.89472" lon="4.67384">
        <ele>407</ele>
        <time>2018-08-02T09:47:02Z</time>
      </trkpt>
      <trkpt lat="45.89477" lon="4.67389">
        <ele>407</ele>
        <time>2018-08-02T09:47:03Z</time>
      </trkpt>
      <trkpt lat="45.8948" lon="4.67392">
        <ele>407</ele>
        <time>2018-08-02T09:47:04Z</time>
      </trkpt>
      <trkpt lat="45.89486" lon="4.67396">
        <ele>406</ele>
        <time>2018-08-02T09:47:05Z</time>
      </trkpt>
      <trkpt lat="45.89493" lon="4.67399">
        <ele>406</ele>
        <time>2018-08-02T09:47:06Z</time>
      </trkpt>
      <trkpt lat="45.895" lon="4.67402">
        <ele>406</ele>
        <time>2018-08-02T09:47:07Z</time>
      </trkpt>
      <trkpt lat="45.89502" lon="4.6741">
        <ele>406</ele>
        <time>2018-08-02T09:47:08Z</time>
      </trkpt>
      <trkpt lat="45.8951" lon="4.67412">
        <ele>407</ele>
        <time>2018-08-02T09:47:09Z</time>
      </trkpt>
      <trkpt lat="45.89516" lon="4.67417">
        <ele>402</ele>
        <time>2018-08-02T09:47:10Z</time>
      </trkpt>
      <trkpt lat="45.89522" lon="4.67422">
        <ele>402</ele>
        <time>2018-08-02T09:47:11Z</time>
      </trkpt>
      <trkpt lat="45.89528" lon="4.67425">
        <ele>402</ele>
        <time>2018-08-02T09:47:12Z</time>
      </trkpt>
      <trkpt lat="45.89533" lon="4.67427">
        <ele>402</ele>
        <time>2018-08-02T09:47:13Z</time>
      </trkpt>
      <trkpt lat="45.89539" lon="4.67431">
        <ele>402</ele>
        <time>2018-08-02T09:47:14Z</time>
      </trkpt>
      <trkpt lat="45.8955" lon="4.67427">
        <ele>403</ele>
        <time>2018-08-02T09:47:15Z</time>
      </trkpt>
      <trkpt lat="45.89557" lon="4.67429">
        <ele>403</ele>
        <time>2018-08-02T09:47:16Z</time>
      </trkpt>
      <trkpt lat="45.89562" lon="4.67434">
        <ele>403</ele>
        <time>2018-08-02T09:47:17Z</time>
      </trkpt>
      <trkpt lat="45.89565" lon="4.67442">
        <ele>402</ele>
        <time>2018-08-02T09:47:18Z</time>
      </trkpt>
      <trkpt lat="45.89571" lon="4.67443">
        <ele>403</ele>
        <time>2018-08-02T09:47:19Z</time>
      </trkpt>
      <trkpt lat="45.89579" lon="4.67442">
        <ele>403</ele>
        <time>2018-08-02T09:47:20Z</time>
      </trkpt>
      <trkpt lat="45.89589" lon="4.67442">
        <ele>405</ele>
        <time>2018-08-02T09:47:21Z</time>
      </trkpt>
      <trkpt lat="45.89596" lon="4.6744">
        <ele>405</ele>
        <time>2018-08-02T09:47:22Z</time>
      </trkpt>
      <trkpt lat="45.89607" lon="4.67436">
        <ele>405</ele>
        <time>2018-08-02T09:47:23Z</time>
      </trkpt>
      <trkpt lat="45.89612" lon="4.6744">
        <ele>405</ele>
        <time>2018-08-02T09:47:24Z</time>
      </trkpt>
      <trkpt lat="45.89619" lon="4.67445">
        <ele>404</ele>
        <time>2018-08-02T09:47:25Z</time>
      </trkpt>
      <trkpt lat="45.89623" lon="4.67453">
        <ele>404</ele>
        <time>2018-08-02T09:47:26Z</time>
      </trkpt>
      <trkpt lat="45.89626" lon="4.67456">
        <ele>403</ele>
        <time>2018-08-02T09:47:27Z</time>
      </trkpt>
      <trkpt lat="45.89632" lon="4.67461">
        <ele>403</ele>
        <time>2018-08-02T09:47:28Z</time>
      </trkpt>
      <trkpt lat="45.89637" lon="4.67463">
        <ele>403</ele>
        <time>2018-08-02T09:47:29Z</time>
      </trkpt>
      <trkpt lat="45.89645" lon="4.67463">
        <ele>403</ele>
        <time>2018-08-02T09:47:30Z</time>
      </trkpt>
      <trkpt lat="45.89652" lon="4.67465">
        <ele>403</ele>
        <time>2018-08-02T09:47:31Z</time>
      </trkpt>
      <trkpt lat="45.89658" lon="4.67465">
        <ele>403</ele>
        <time>2018-08-02T09:47:32Z</time>
      </trkpt>
      <trkpt lat="45.89663" lon="4.67471">
        <ele>402</ele>
        <time>2018-08-02T09:47:33Z</time>
      </trkpt>
      <trkpt lat="45.89666" lon="4.67476">
        <ele>402</ele>
        <time>2018-08-02T09:47:34Z</time>
      </trkpt>
      <trkpt lat="45.89678" lon="4.67474">
        <ele>403</ele>
        <time>2018-08-02T09:47:35Z</time>
      </trkpt>
      <trkpt lat="45.89684" lon="4.67474">
        <ele>403</ele>
        <time>2018-08-02T09:47:36Z</time>
      </trkpt>
      <trkpt lat="45.89688" lon="4.67476">
        <ele>403</ele>
        <time>2018-08-02T09:47:37Z</time>
      </trkpt>
      <trkpt lat="45.89695" lon="4.67476">
        <ele>403</ele>
        <time>2018-08-02T09:47:38Z</time>
      </trkpt>
      <trkpt lat="45.89701" lon="4.67479">
        <ele>403</ele>
        <time>2018-08-02T09:47:39Z</time>
      </trkpt>
      <trkpt lat="45.89704" lon="4.67488">
        <ele>402</ele>
        <time>2018-08-02T09:47:40Z</time>
      </trkpt>
      <trkpt lat="45.8971" lon="4.67494">
        <ele>402</ele>
        <time>2018-08-02T09:47:41Z</time>
      </trkpt>
      <trkpt lat="45.89716" lon="4.67495">
        <ele>402</ele>
        <time>2018-08-02T09:47:42Z</time>
      </trkpt>
      <trkpt lat="45.89727" lon="4.67494">
        <ele>402</ele>
        <time>2018-08-02T09:47:43Z</time>
      </trkpt>
      <trkpt lat="45.89737" lon="4.67493">
        <ele>401</ele>
        <time>2018-08-02T09:47:44Z</time>
      </trkpt>
      <trkpt lat="45.89745" lon="4.67491">
        <ele>401</ele>
        <time>2018-08-02T09:47:45Z</time>
      </trkpt>
      <trkpt lat="45.89749" lon="4.67492">
        <ele>400</ele>
        <time>2018-08-02T09:47:46Z</time>
      </trkpt>
      <trkpt lat="45.89756" lon="4.6749">
        <ele>399</ele>
        <time>2018-08-02T09:47:47Z</time>
      </trkpt>
      <trkpt lat="45.89762" lon="4.67492">
        <ele>399</ele>
        <time>2018-08-02T09:47:48Z</time>
      </trkpt>
      <trkpt lat="45.8977" lon="4.67491">
        <ele>399</ele>
        <time>2018-08-02T09:47:49Z</time>
      </trkpt>
      <trkpt lat="45.89776" lon="4.67492">
        <ele>399</ele>
        <time>2018-08-02T09:47:50Z</time>
      </trkpt>
      <trkpt lat="45.89784" lon="4.6749">
        <ele>399</ele>
        <time>2018-08-02T09:47:51Z</time>
      </trkpt>
      <trkpt lat="45.89789" lon="4.67493">
        <ele>399</ele>
        <time>2018-08-02T09:47:52Z</time>
      </trkpt>
      <trkpt lat="45.89792" lon="4.67492">
        <ele>399</ele>
        <time>2018-08-02T09:47:53Z</time>
      </trkpt>
      <trkpt lat="45.89801" lon="4.67485">
        <ele>398</ele>
        <time>2018-08-02T09:47:54Z</time>
      </trkpt>
      <trkpt lat="45.8981" lon="4.67473">
        <ele>398</ele>
        <time>2018-08-02T09:47:55Z</time>
      </trkpt>
      <trkpt lat="45.89812" lon="4.67471">
        <ele>398</ele>
        <time>2018-08-02T09:47:56Z</time>
      </trkpt>
      <trkpt lat="45.89814" lon="4.67457">
        <ele>399</ele>
        <time>2018-08-02T09:47:57Z</time>
      </trkpt>
      <trkpt lat="45.89822" lon="4.67446">
        <ele>399</ele>
        <time>2018-08-02T09:47:58Z</time>
      </trkpt>
      <trkpt lat="45.89822" lon="4.67435">
        <ele>398</ele>
        <time>2018-08-02T09:47:59Z</time>
      </trkpt>
      <trkpt lat="45.89825" lon="4.67424">
        <ele>398</ele>
        <time>2018-08-02T09:48:00Z</time>
      </trkpt>
      <trkpt lat="45.89826" lon="4.67412">
        <ele>400</ele>
        <time>2018-08-02T09:48:01Z</time>
      </trkpt>
      <trkpt lat="45.8983" lon="4.67403">
        <ele>401</ele>
        <time>2018-08-02T09:48:02Z</time>
      </trkpt>
      <trkpt lat="45.89832" lon="4.67395">
        <ele>402</ele>
        <time>2018-08-02T09:48:03Z</time>
      </trkpt>
      <trkpt lat="45.89837" lon="4.67388">
        <ele>397</ele>
        <time>2018-08-02T09:48:04Z</time>
      </trkpt>
      <trkpt lat="45.89841" lon="4.67379">
        <ele>398</ele>
        <time>2018-08-02T09:48:05Z</time>
      </trkpt>
      <trkpt lat="45.89847" lon="4.67373">
        <ele>398</ele>
        <time>2018-08-02T09:48:06Z</time>
      </trkpt>
      <trkpt lat="45.89853" lon="4.67367">
        <ele>398</ele>
        <time>2018-08-02T09:48:07Z</time>
      </trkpt>
      <trkpt lat="45.89859" lon="4.67362">
        <ele>399</ele>
        <time>2018-08-02T09:48:08Z</time>
      </trkpt>
      <trkpt lat="45.89866" lon="4.67356">
        <ele>399</ele>
        <time>2018-08-02T09:48:09Z</time>
      </trkpt>
      <trkpt lat="45.8987" lon="4.67352">
        <ele>399</ele>
        <time>2018-08-02T09:48:10Z</time>
      </trkpt>
      <trkpt lat="45.89877" lon="4.67345">
        <ele>399</ele>
        <time>2018-08-02T09:48:11Z</time>
      </trkpt>
      <trkpt lat="45.89884" lon="4.67345">
        <ele>398</ele>
        <time>2018-08-02T09:48:12Z</time>
      </trkpt>
      <trkpt lat="45.89891" lon="4.67345">
        <ele>398</ele>
        <time>2018-08-02T09:48:13Z</time>
      </trkpt>
      <trkpt lat="45.899" lon="4.67347">
        <ele>398</ele>
        <time>2018-08-02T09:48:14Z</time>
      </trkpt>
      <trkpt lat="45.89908" lon="4.67351">
        <ele>398</ele>
        <time>2018-08-02T09:48:15Z</time>
      </trkpt>
      <trkpt lat="45.89916" lon="4.67355">
        <ele>398</ele>
        <time>2018-08-02T09:48:16Z</time>
      </trkpt>
      <trkpt lat="45.89926" lon="4.67356">
        <ele>396</ele>
        <time>2018-08-02T09:48:17Z</time>
      </trkpt>
      <trkpt lat="45.89934" lon="4.67357">
        <ele>396</ele>
        <time>2018-08-02T09:48:18Z</time>
      </trkpt>
      <trkpt lat="45.89942" lon="4.67357">
        <ele>395</ele>
        <time>2018-08-02T09:48:19Z</time>
      </trkpt>
      <trkpt lat="45.89948" lon="4.67359">
        <ele>395</ele>
        <time>2018-08-02T09:48:20Z</time>
      </trkpt>
      <trkpt lat="45.89956" lon="4.67362">
        <ele>395</ele>
        <time>2018-08-02T09:48:21Z</time>
      </trkpt>
      <trkpt lat="45.89964" lon="4.67366">
        <ele>395</ele>
        <time>2018-08-02T09:48:22Z</time>
      </trkpt>
      <trkpt lat="45.89971" lon="4.67369">
        <ele>394</ele>
        <time>2018-08-02T09:48:23Z</time>
      </trkpt>
      <trkpt lat="45.89979" lon="4.67375">
        <ele>394</ele>
        <time>2018-08-02T09:48:24Z</time>
      </trkpt>
      <trkpt lat="45.89985" lon="4.67376">
        <ele>394</ele>
        <time>2018-08-02T09:48:25Z</time>
      </trkpt>
      <trkpt lat="45.89993" lon="4.67374">
        <ele>394</ele>
        <time>2018-08-02T09:48:26Z</time>
      </trkpt>
      <trkpt lat="45.9" lon="4.67376">
        <ele>397</ele>
        <time>2018-08-02T09:48:27Z</time>
      </trkpt>
      <trkpt lat="45.90011" lon="4.67386">
        <ele>395</ele>
        <time>2018-08-02T09:48:28Z</time>
      </trkpt>
      <trkpt lat="45.90019" lon="4.67395">
        <ele>394</ele>
        <time>2018-08-02T09:48:29Z</time>
      </trkpt>
      <trkpt lat="45.90025" lon="4.67401">
        <ele>394</ele>
        <time>2018-08-02T09:48:30Z</time>
      </trkpt>
      <trkpt lat="45.90034" lon="4.6741">
        <ele>395</ele>
        <time>2018-08-02T09:48:31Z</time>
      </trkpt>
      <trkpt lat="45.9004" lon="4.6742">
        <ele>385</ele>
        <time>2018-08-02T09:48:32Z</time>
      </trkpt>
      <trkpt lat="45.90049" lon="4.67423">
        <ele>385</ele>
        <time>2018-08-02T09:48:33Z</time>
      </trkpt>
      <trkpt lat="45.90057" lon="4.67429">
        <ele>386</ele>
        <time>2018-08-02T09:48:34Z</time>
      </trkpt>
      <trkpt lat="45.90062" lon="4.6744">
        <ele>385</ele>
        <time>2018-08-02T09:48:35Z</time>
      </trkpt>
      <trkpt lat="45.90066" lon="4.67452">
        <ele>384</ele>
        <time>2018-08-02T09:48:36Z</time>
      </trkpt>
      <trkpt lat="45.90077" lon="4.67458">
        <ele>383</ele>
        <time>2018-08-02T09:48:37Z</time>
      </trkpt>
      <trkpt lat="45.90083" lon="4.67464">
        <ele>387</ele>
        <time>2018-08-02T09:48:38Z</time>
      </trkpt>
      <trkpt lat="45.90091" lon="4.6747">
        <ele>386</ele>
        <time>2018-08-02T09:48:39Z</time>
      </trkpt>
      <trkpt lat="45.90099" lon="4.67478">
        <ele>385</ele>
        <time>2018-08-02T09:48:40Z</time>
      </trkpt>
      <trkpt lat="45.90105" lon="4.67487">
        <ele>385</ele>
        <time>2018-08-02T09:48:41Z</time>
      </trkpt>
      <trkpt lat="45.90114" lon="4.6749">
        <ele>386</ele>
        <time>2018-08-02T09:48:42Z</time>
      </trkpt>
      <trkpt lat="45.90119" lon="4.67503">
        <ele>378</ele>
        <time>2018-08-02T09:48:43Z</time>
      </trkpt>
      <trkpt lat="45.90126" lon="4.6751">
        <ele>378</ele>
        <time>2018-08-02T09:48:44Z</time>
      </trkpt>
      <trkpt lat="45.9013" lon="4.67523">
        <ele>378</ele>
        <time>2018-08-02T09:48:45Z</time>
      </trkpt>
      <trkpt lat="45.90135" lon="4.67531">
        <ele>378</ele>
        <time>2018-08-02T09:48:46Z</time>
      </trkpt>
      <trkpt lat="45.90139" lon="4.67541">
        <ele>377</ele>
        <time>2018-08-02T09:48:47Z</time>
      </trkpt>
      <trkpt lat="45.90143" lon="4.6755">
        <ele>377</ele>
        <time>2018-08-02T09:48:48Z</time>
      </trkpt>
      <trkpt lat="45.90148" lon="4.67559">
        <ele>377</ele>
        <time>2018-08-02T09:48:49Z</time>
      </trkpt>
      <trkpt lat="45.90154" lon="4.6757">
        <ele>376</ele>
        <time>2018-08-02T09:48:50Z</time>
      </trkpt>
      <trkpt lat="45.90159" lon="4.67577">
        <ele>376</ele>
        <time>2018-08-02T09:48:51Z</time>
      </trkpt>
      <trkpt lat="45.90165" lon="4.67584">
        <ele>375</ele>
        <time>2018-08-02T09:48:52Z</time>
      </trkpt>
      <trkpt lat="45.9017" lon="4.67593">
        <ele>376</ele>
        <time>2018-08-02T09:48:53Z</time>
      </trkpt>
      <trkpt lat="45.90175" lon="4.67599">
        <ele>376</ele>
        <time>2018-08-02T09:48:54Z</time>
      </trkpt>
      <trkpt lat="45.90181" lon="4.67608">
        <ele>376</ele>
        <time>2018-08-02T09:48:55Z</time>
      </trkpt>
      <trkpt lat="45.90187" lon="4.67616">
        <ele>376</ele>
        <time>2018-08-02T09:48:56Z</time>
      </trkpt>
      <trkpt lat="45.90194" lon="4.67623">
        <ele>375</ele>
        <time>2018-08-02T09:48:57Z</time>
      </trkpt>
      <trkpt lat="45.90199" lon="4.67631">
        <ele>375</ele>
        <time>2018-08-02T09:48:58Z</time>
      </trkpt>
      <trkpt lat="45.90205" lon="4.67637">
        <ele>375</ele>
        <time>2018-08-02T09:48:59Z</time>
      </trkpt>
      <trkpt lat="45.90211" lon="4.67644">
        <ele>375</ele>
        <time>2018-08-02T09:49:00Z</time>
      </trkpt>
      <trkpt lat="45.90218" lon="4.67651">
        <ele>375</ele>
        <time>2018-08-02T09:49:01Z</time>
      </trkpt>
      <trkpt lat="45.90225" lon="4.67656">
        <ele>375</ele>
        <time>2018-08-02T09:49:02Z</time>
      </trkpt>
      <trkpt lat="45.90231" lon="4.6766">
        <ele>375</ele>
        <time>2018-08-02T09:49:03Z</time>
      </trkpt>
      <trkpt lat="45.90238" lon="4.67664">
        <ele>375</ele>
        <time>2018-08-02T09:49:04Z</time>
      </trkpt>
      <trkpt lat="45.90244" lon="4.67669">
        <ele>373</ele>
        <time>2018-08-02T09:49:05Z</time>
      </trkpt>
      <trkpt lat="45.9025" lon="4.67672">
        <ele>374</ele>
        <time>2018-08-02T09:49:06Z</time>
      </trkpt>
      <trkpt lat="45.90255" lon="4.67675">
        <ele>374</ele>
        <time>2018-08-02T09:49:07Z</time>
      </trkpt>
      <trkpt lat="45.90261" lon="4.67679">
        <ele>374</ele>
        <time>2018-08-02T09:49:08Z</time>
      </trkpt>
      <trkpt lat="45.90267" lon="4.67681">
        <ele>374</ele>
        <time>2018-08-02T09:49:09Z</time>
      </trkpt>
      <trkpt lat="45.90272" lon="4.67684">
        <ele>374</ele>
        <time>2018-08-02T09:49:10Z</time>
      </trkpt>
      <trkpt lat="45.90277" lon="4.67685">
        <ele>374</ele>
        <time>2018-08-02T09:49:11Z</time>
      </trkpt>
      <trkpt lat="45.90281" lon="4.67688">
        <ele>374</ele>
        <time>2018-08-02T09:49:12Z</time>
      </trkpt>
      <trkpt lat="45.90288" lon="4.67691">
        <ele>374</ele>
        <time>2018-08-02T09:49:13Z</time>
      </trkpt>
      <trkpt lat="45.90293" lon="4.67694">
        <ele>374</ele>
        <time>2018-08-02T09:49:14Z</time>
      </trkpt>
      <trkpt lat="45.90298" lon="4.67696">
        <ele>374</ele>
        <time>2018-08-02T09:49:15Z</time>
      </trkpt>
      <trkpt lat="45.90306" lon="4.67694">
        <ele>374</ele>
        <time>2018-08-02T09:49:16Z</time>
      </trkpt>
      <trkpt lat="45.90313" lon="4.67699">
        <ele>374</ele>
        <time>2018-08-02T09:49:17Z</time>
      </trkpt>
      <trkpt lat="45.90318" lon="4.67702">
        <ele>374</ele>
        <time>2018-08-02T09:49:18Z</time>
      </trkpt>
      <trkpt lat="45.90326" lon="4.67703">
        <ele>374</ele>
        <time>2018-08-02T09:49:19Z</time>
      </trkpt>
      <trkpt lat="45.90333" lon="4.67705">
        <ele>374</ele>
        <time>2018-08-02T09:49:20Z</time>
      </trkpt>
      <trkpt lat="45.90339" lon="4.67708">
        <ele>372</ele>
        <time>2018-08-02T09:49:21Z</time>
      </trkpt>
      <trkpt lat="45.90345" lon="4.67709">
        <ele>372</ele>
        <time>2018-08-02T09:49:22Z</time>
      </trkpt>
      <trkpt lat="45.90352" lon="4.67712">
        <ele>371</ele>
        <time>2018-08-02T09:49:23Z</time>
      </trkpt>
      <trkpt lat="45.90358" lon="4.67715">
        <ele>371</ele>
        <time>2018-08-02T09:49:24Z</time>
      </trkpt>
      <trkpt lat="45.90365" lon="4.67718">
        <ele>371</ele>
        <time>2018-08-02T09:49:25Z</time>
      </trkpt>
      <trkpt lat="45.90371" lon="4.67719">
        <ele>371</ele>
        <time>2018-08-02T09:49:26Z</time>
      </trkpt>
      <trkpt lat="45.90377" lon="4.67721">
        <ele>370</ele>
        <time>2018-08-02T09:49:27Z</time>
      </trkpt>
      <trkpt lat="45.90385" lon="4.67723">
        <ele>370</ele>
        <time>2018-08-02T09:49:28Z</time>
      </trkpt>
      <trkpt lat="45.90391" lon="4.67728">
        <ele>370</ele>
        <time>2018-08-02T09:49:29Z</time>
      </trkpt>
      <trkpt lat="45.90397" lon="4.6773">
        <ele>369</ele>
        <time>2018-08-02T09:49:30Z</time>
      </trkpt>
      <trkpt lat="45.90406" lon="4.6773">
        <ele>369</ele>
        <time>2018-08-02T09:49:31Z</time>
      </trkpt>
      <trkpt lat="45.90413" lon="4.67732">
        <ele>368</ele>
        <time>2018-08-02T09:49:32Z</time>
      </trkpt>
      <trkpt lat="45.90419" lon="4.67735">
        <ele>366</ele>
        <time>2018-08-02T09:49:33Z</time>
      </trkpt>
      <trkpt lat="45.90426" lon="4.67738">
        <ele>366</ele>
        <time>2018-08-02T09:49:34Z</time>
      </trkpt>
      <trkpt lat="45.90432" lon="4.67742">
        <ele>366</ele>
        <time>2018-08-02T09:49:35Z</time>
      </trkpt>
      <trkpt lat="45.90438" lon="4.67744">
        <ele>366</ele>
        <time>2018-08-02T09:49:36Z</time>
      </trkpt>
      <trkpt lat="45.90445" lon="4.67747">
        <ele>367</ele>
        <time>2018-08-02T09:49:37Z</time>
      </trkpt>
      <trkpt lat="45.90452" lon="4.6775">
        <ele>364</ele>
        <time>2018-08-02T09:49:38Z</time>
      </trkpt>
      <trkpt lat="45.90458" lon="4.67751">
        <ele>364</ele>
        <time>2018-08-02T09:49:39Z</time>
      </trkpt>
      <trkpt lat="45.90465" lon="4.67757">
        <ele>364</ele>
        <time>2018-08-02T09:49:40Z</time>
      </trkpt>
      <trkpt lat="45.90472" lon="4.67758">
        <ele>364</ele>
        <time>2018-08-02T09:49:41Z</time>
      </trkpt>
      <trkpt lat="45.9048" lon="4.6776">
        <ele>364</ele>
        <time>2018-08-02T09:49:42Z</time>
      </trkpt>
      <trkpt lat="45.90488" lon="4.67764">
        <ele>364</ele>
        <time>2018-08-02T09:49:43Z</time>
      </trkpt>
      <trkpt lat="45.90495" lon="4.67766">
        <ele>364</ele>
        <time>2018-08-02T09:49:44Z</time>
      </trkpt>
      <trkpt lat="45.90502" lon="4.67769">
        <ele>364</ele>
        <time>2018-08-02T09:49:45Z</time>
      </trkpt>
      <trkpt lat="45.90507" lon="4.67771">
        <ele>364</ele>
        <time>2018-08-02T09:49:46Z</time>
      </trkpt>
      <trkpt lat="45.90514" lon="4.67774">
        <ele>365</ele>
        <time>2018-08-02T09:49:47Z</time>
      </trkpt>
      <trkpt lat="45.9052" lon="4.67776">
        <ele>365</ele>
        <time>2018-08-02T09:49:48Z</time>
      </trkpt>
      <trkpt lat="45.90524" lon="4.67779">
        <ele>365</ele>
        <time>2018-08-02T09:49:49Z</time>
      </trkpt>
      <trkpt lat="45.9053" lon="4.67781">
        <ele>365</ele>
        <time>2018-08-02T09:49:50Z</time>
      </trkpt>
      <trkpt lat="45.90535" lon="4.67783">
        <ele>365</ele>
        <time>2018-08-02T09:49:51Z</time>
      </trkpt>
      <trkpt lat="45.90541" lon="4.67784">
        <ele>365</ele>
        <time>2018-08-02T09:49:52Z</time>
      </trkpt>
      <trkpt lat="45.90546" lon="4.67786">
        <ele>365</ele>
        <time>2018-08-02T09:49:53Z</time>
      </trkpt>
      <trkpt lat="45.9055" lon="4.67787">
        <ele>365</ele>
        <time>2018-08-02T09:49:54Z</time>
      </trkpt>
      <trkpt lat="45.90555" lon="4.67787">
        <ele>365</ele>
        <time>2018-08-02T09:49:55Z</time>
      </trkpt>
      <trkpt lat="45.9056" lon="4.67789">
        <ele>365</ele>
        <time>2018-08-02T09:49:56Z</time>
      </trkpt>
      <trkpt lat="45.90564" lon="4.67791">
        <ele>365</ele>
        <time>2018-08-02T09:49:57Z</time>
      </trkpt>
      <trkpt lat="45.90569" lon="4.67792">
        <ele>365</ele>
        <time>2018-08-02T09:49:58Z</time>
      </trkpt>
      <trkpt lat="45.90574" lon="4.67792">
        <ele>366</ele>
        <time>2018-08-02T09:49:59Z</time>
      </trkpt>
      <trkpt lat="45.9058" lon="4.67792">
        <ele>366</ele>
        <time>2018-08-02T09:50:00Z</time>
      </trkpt>
      <trkpt lat="45.90585" lon="4.67793">
        <ele>367</ele>
        <time>2018-08-02T09:50:01Z</time>
      </trkpt>
      <trkpt lat="45.90589" lon="4.67794">
        <ele>367</ele>
        <time>2018-08-02T09:50:02Z</time>
      </trkpt>
      <trkpt lat="45.90598" lon="4.67795">
        <ele>367</ele>
        <time>2018-08-02T09:50:04Z</time>
      </trkpt>
      <trkpt lat="45.90602" lon="4.67795">
        <ele>367</ele>
        <time>2018-08-02T09:50:05Z</time>
      </trkpt>
      <trkpt lat="45.90607" lon="4.67796">
        <ele>367</ele>
        <time>2018-08-02T09:50:06Z</time>
      </trkpt>
      <trkpt lat="45.90612" lon="4.67796">
        <ele>367</ele>
        <time>2018-08-02T09:50:07Z</time>
      </trkpt>
      <trkpt lat="45.90621" lon="4.67797">
        <ele>367</ele>
        <time>2018-08-02T09:50:09Z</time>
      </trkpt>
      <trkpt lat="45.90625" lon="4.67796">
        <ele>367</ele>
        <time>2018-08-02T09:50:10Z</time>
      </trkpt>
      <trkpt lat="45.90633" lon="4.67796">
        <ele>367</ele>
        <time>2018-08-02T09:50:12Z</time>
      </trkpt>
      <trkpt lat="45.90637" lon="4.67796">
        <ele>367</ele>
        <time>2018-08-02T09:50:13Z</time>
      </trkpt>
      <trkpt lat="45.90642" lon="4.67796">
        <ele>367</ele>
        <time>2018-08-02T09:50:14Z</time>
      </trkpt>
      <trkpt lat="45.90647" lon="4.67795">
        <ele>367</ele>
        <time>2018-08-02T09:50:15Z</time>
      </trkpt>
      <trkpt lat="45.90654" lon="4.67797">
        <ele>368</ele>
        <time>2018-08-02T09:50:17Z</time>
      </trkpt>
      <trkpt lat="45.90658" lon="4.67797">
        <ele>368</ele>
        <time>2018-08-02T09:50:18Z</time>
      </trkpt>
      <trkpt lat="45.90666" lon="4.67798">
        <ele>368</ele>
        <time>2018-08-02T09:50:20Z</time>
      </trkpt>
      <trkpt lat="45.9067" lon="4.67798">
        <ele>368</ele>
        <time>2018-08-02T09:50:21Z</time>
      </trkpt>
      <trkpt lat="45.90678" lon="4.67799">
        <ele>368</ele>
        <time>2018-08-02T09:50:23Z</time>
      </trkpt>
      <trkpt lat="45.90682" lon="4.678">
        <ele>368</ele>
        <time>2018-08-02T09:50:24Z</time>
      </trkpt>
      <trkpt lat="45.90687" lon="4.67801">
        <ele>368</ele>
        <time>2018-08-02T09:50:26Z</time>
      </trkpt>
      <trkpt lat="45.90693" lon="4.67803">
        <ele>368</ele>
        <time>2018-08-02T09:50:27Z</time>
      </trkpt>
      <trkpt lat="45.90701" lon="4.67805">
        <ele>368</ele>
        <time>2018-08-02T09:50:31Z</time>
      </trkpt>
      <trkpt lat="45.90704" lon="4.67806">
        <ele>368</ele>
        <time>2018-08-02T09:50:32Z</time>
      </trkpt>
      <trkpt lat="45.90712" lon="4.67809">
        <ele>368</ele>
        <time>2018-08-02T09:50:35Z</time>
      </trkpt>
      <trkpt lat="45.90715" lon="4.67811">
        <ele>368</ele>
        <time>2018-08-02T09:50:36Z</time>
      </trkpt>
      <trkpt lat="45.90721" lon="4.67813">
        <ele>369</ele>
        <time>2018-08-02T09:50:38Z</time>
      </trkpt>
      <trkpt lat="45.90724" lon="4.67815">
        <ele>369</ele>
        <time>2018-08-02T09:50:39Z</time>
      </trkpt>
      <trkpt lat="45.90727" lon="4.67816">
        <ele>369</ele>
        <time>2018-08-02T09:50:40Z</time>
      </trkpt>
      <trkpt lat="45.90737" lon="4.6782">
        <ele>369</ele>
        <time>2018-08-02T09:50:41Z</time>
      </trkpt>
      <trkpt lat="45.90743" lon="4.67822">
        <ele>370</ele>
        <time>2018-08-02T09:50:43Z</time>
      </trkpt>
      <trkpt lat="45.90748" lon="4.67824">
        <ele>370</ele>
        <time>2018-08-02T09:50:44Z</time>
      </trkpt>
      <trkpt lat="45.90755" lon="4.67827">
        <ele>370</ele>
        <time>2018-08-02T09:50:46Z</time>
      </trkpt>
      <trkpt lat="45.90757" lon="4.67828">
        <ele>370</ele>
        <time>2018-08-02T09:50:47Z</time>
      </trkpt>
      <trkpt lat="45.90762" lon="4.67829">
        <ele>370</ele>
        <time>2018-08-02T09:50:48Z</time>
      </trkpt>
      <trkpt lat="45.90766" lon="4.6783">
        <ele>369</ele>
        <time>2018-08-02T09:50:49Z</time>
      </trkpt>
      <trkpt lat="45.9077" lon="4.67832">
        <ele>369</ele>
        <time>2018-08-02T09:50:51Z</time>
      </trkpt>
      <trkpt lat="45.90776" lon="4.67834">
        <ele>371</ele>
        <time>2018-08-02T09:50:52Z</time>
      </trkpt>
      <trkpt lat="45.90784" lon="4.67836">
        <ele>371</ele>
        <time>2018-08-02T09:50:54Z</time>
      </trkpt>
      <trkpt lat="45.90788" lon="4.67836">
        <ele>371</ele>
        <time>2018-08-02T09:50:55Z</time>
      </trkpt>
      <trkpt lat="45.90796" lon="4.67837">
        <ele>371</ele>
        <time>2018-08-02T09:50:57Z</time>
      </trkpt>
      <trkpt lat="45.90798" lon="4.67838">
        <ele>371</ele>
        <time>2018-08-02T09:50:58Z</time>
      </trkpt>
      <trkpt lat="45.90801" lon="4.6784">
        <ele>371</ele>
        <time>2018-08-02T09:51:00Z</time>
      </trkpt>
      <trkpt lat="45.90808" lon="4.67845">
        <ele>371</ele>
        <time>2018-08-02T09:51:01Z</time>
      </trkpt>
      <trkpt lat="45.90816" lon="4.67847">
        <ele>371</ele>
        <time>2018-08-02T09:51:03Z</time>
      </trkpt>
      <trkpt lat="45.9082" lon="4.67848">
        <ele>370</ele>
        <time>2018-08-02T09:51:04Z</time>
      </trkpt>
      <trkpt lat="45.90828" lon="4.67851">
        <ele>370</ele>
        <time>2018-08-02T09:51:06Z</time>
      </trkpt>
      <trkpt lat="45.90832" lon="4.67852">
        <ele>370</ele>
        <time>2018-08-02T09:51:07Z</time>
      </trkpt>
      <trkpt lat="45.90839" lon="4.67856">
        <ele>370</ele>
        <time>2018-08-02T09:51:09Z</time>
      </trkpt>
      <trkpt lat="45.90843" lon="4.67857">
        <ele>370</ele>
        <time>2018-08-02T09:51:10Z</time>
      </trkpt>
      <trkpt lat="45.90851" lon="4.67859">
        <ele>370</ele>
        <time>2018-08-02T09:51:12Z</time>
      </trkpt>
      <trkpt lat="45.90856" lon="4.67861">
        <ele>370</ele>
        <time>2018-08-02T09:51:13Z</time>
      </trkpt>
      <trkpt lat="45.90864" lon="4.67864">
        <ele>370</ele>
        <time>2018-08-02T09:51:15Z</time>
      </trkpt>
      <trkpt lat="45.90869" lon="4.67867">
        <ele>370</ele>
        <time>2018-08-02T09:51:16Z</time>
      </trkpt>
      <trkpt lat="45.90873" lon="4.67869">
        <ele>370</ele>
        <time>2018-08-02T09:51:17Z</time>
      </trkpt>
      <trkpt lat="45.90879" lon="4.6787">
        <ele>370</ele>
        <time>2018-08-02T09:51:18Z</time>
      </trkpt>
      <trkpt lat="45.90887" lon="4.67873">
        <ele>370</ele>
        <time>2018-08-02T09:51:20Z</time>
      </trkpt>
      <trkpt lat="45.90892" lon="4.67874">
        <ele>370</ele>
        <time>2018-08-02T09:51:21Z</time>
      </trkpt>
      <trkpt lat="45.90896" lon="4.67876">
        <ele>370</ele>
        <time>2018-08-02T09:51:22Z</time>
      </trkpt>
      <trkpt lat="45.90901" lon="4.67876">
        <ele>370</ele>
        <time>2018-08-02T09:51:23Z</time>
      </trkpt>
      <trkpt lat="45.90906" lon="4.67878">
        <ele>370</ele>
        <time>2018-08-02T09:51:24Z</time>
      </trkpt>
      <trkpt lat="45.9091" lon="4.6788">
        <ele>370</ele>
        <time>2018-08-02T09:51:25Z</time>
      </trkpt>
      <trkpt lat="45.90918" lon="4.67883">
        <ele>369</ele>
        <time>2018-08-02T09:51:27Z</time>
      </trkpt>
      <trkpt lat="45.90922" lon="4.67885">
        <ele>370</ele>
        <time>2018-08-02T09:51:28Z</time>
      </trkpt>
      <trkpt lat="45.9093" lon="4.67889">
        <ele>370</ele>
        <time>2018-08-02T09:51:30Z</time>
      </trkpt>
      <trkpt lat="45.90934" lon="4.67891">
        <ele>370</ele>
        <time>2018-08-02T09:51:31Z</time>
      </trkpt>
      <trkpt lat="45.90942" lon="4.67895">
        <ele>370</ele>
        <time>2018-08-02T09:51:33Z</time>
      </trkpt>
      <trkpt lat="45.90946" lon="4.67897">
        <ele>370</ele>
        <time>2018-08-02T09:51:34Z</time>
      </trkpt>
      <trkpt lat="45.90953" lon="4.679">
        <ele>370</ele>
        <time>2018-08-02T09:51:36Z</time>
      </trkpt>
      <trkpt lat="45.90957" lon="4.67902">
        <ele>370</ele>
        <time>2018-08-02T09:51:37Z</time>
      </trkpt>
      <trkpt lat="45.90964" lon="4.67905">
        <ele>370</ele>
        <time>2018-08-02T09:51:39Z</time>
      </trkpt>
      <trkpt lat="45.90968" lon="4.67906">
        <ele>370</ele>
        <time>2018-08-02T09:51:40Z</time>
      </trkpt>
      <trkpt lat="45.90976" lon="4.67907">
        <ele>370</ele>
        <time>2018-08-02T09:51:42Z</time>
      </trkpt>
      <trkpt lat="45.90978" lon="4.67908">
        <ele>370</ele>
        <time>2018-08-02T09:51:43Z</time>
      </trkpt>
      <trkpt lat="45.90983" lon="4.6791">
        <ele>371</ele>
        <time>2018-08-02T09:51:44Z</time>
      </trkpt>
      <trkpt lat="45.90986" lon="4.67912">
        <ele>371</ele>
        <time>2018-08-02T09:51:45Z</time>
      </trkpt>
      <trkpt lat="45.90993" lon="4.67917">
        <ele>372</ele>
        <time>2018-08-02T09:51:47Z</time>
      </trkpt>
      <trkpt lat="45.90995" lon="4.67918">
        <ele>372</ele>
        <time>2018-08-02T09:51:48Z</time>
      </trkpt>
      <trkpt lat="45.91002" lon="4.67922">
        <ele>372</ele>
        <time>2018-08-02T09:51:51Z</time>
      </trkpt>
      <trkpt lat="45.91004" lon="4.67923">
        <ele>373</ele>
        <time>2018-08-02T09:51:52Z</time>
      </trkpt>
      <trkpt lat="45.91012" lon="4.67928">
        <ele>373</ele>
        <time>2018-08-02T09:51:55Z</time>
      </trkpt>
      <trkpt lat="45.91015" lon="4.6793">
        <ele>373</ele>
        <time>2018-08-02T09:51:56Z</time>
      </trkpt>
      <trkpt lat="45.91021" lon="4.67934">
        <ele>374</ele>
        <time>2018-08-02T09:51:58Z</time>
      </trkpt>
      <trkpt lat="45.91024" lon="4.67936">
        <ele>374</ele>
        <time>2018-08-02T09:51:59Z</time>
      </trkpt>
      <trkpt lat="45.9103" lon="4.67939">
        <ele>374</ele>
        <time>2018-08-02T09:52:01Z</time>
      </trkpt>
      <trkpt lat="45.91033" lon="4.6794">
        <ele>374</ele>
        <time>2018-08-02T09:52:02Z</time>
      </trkpt>
      <trkpt lat="45.91043" lon="4.67945">
        <ele>374</ele>
        <time>2018-08-02T09:52:03Z</time>
      </trkpt>
      <trkpt lat="45.91052" lon="4.67948">
        <ele>375</ele>
        <time>2018-08-02T09:52:07Z</time>
      </trkpt>
      <trkpt lat="45.91055" lon="4.67948">
        <ele>375</ele>
        <time>2018-08-02T09:52:08Z</time>
      </trkpt>
      <trkpt lat="45.91063" lon="4.67951">
        <ele>375</ele>
        <time>2018-08-02T09:52:11Z</time>
      </trkpt>
      <trkpt lat="45.91066" lon="4.67951">
        <ele>375</ele>
        <time>2018-08-02T09:52:12Z</time>
      </trkpt>
      <trkpt lat="45.91075" lon="4.67953">
        <ele>375</ele>
        <time>2018-08-02T09:52:15Z</time>
      </trkpt>
      <trkpt lat="45.91078" lon="4.67953">
        <ele>375</ele>
        <time>2018-08-02T09:52:16Z</time>
      </trkpt>
      <trkpt lat="45.91084" lon="4.67955">
        <ele>376</ele>
        <time>2018-08-02T09:52:18Z</time>
      </trkpt>
      <trkpt lat="45.91087" lon="4.67955">
        <ele>376</ele>
        <time>2018-08-02T09:52:19Z</time>
      </trkpt>
      <trkpt lat="45.91093" lon="4.67957">
        <ele>376</ele>
        <time>2018-08-02T09:52:21Z</time>
      </trkpt>
      <trkpt lat="45.91096" lon="4.67958">
        <ele>377</ele>
        <time>2018-08-02T09:52:22Z</time>
      </trkpt>
      <trkpt lat="45.91102" lon="4.6796">
        <ele>377</ele>
        <time>2018-08-02T09:52:24Z</time>
      </trkpt>
      <trkpt lat="45.91106" lon="4.67961">
        <ele>377</ele>
        <time>2018-08-02T09:52:25Z</time>
      </trkpt>
      <trkpt lat="45.91112" lon="4.67963">
        <ele>377</ele>
        <time>2018-08-02T09:52:27Z</time>
      </trkpt>
      <trkpt lat="45.91115" lon="4.67964">
        <ele>377</ele>
        <time>2018-08-02T09:52:28Z</time>
      </trkpt>
      <trkpt lat="45.91122" lon="4.67967">
        <ele>377</ele>
        <time>2018-08-02T09:52:31Z</time>
      </trkpt>
      <trkpt lat="45.91125" lon="4.67968">
        <ele>377</ele>
        <time>2018-08-02T09:52:32Z</time>
      </trkpt>
      <trkpt lat="45.91133" lon="4.6797">
        <ele>377</ele>
        <time>2018-08-02T09:52:35Z</time>
      </trkpt>
      <trkpt lat="45.91136" lon="4.67971">
        <ele>377</ele>
        <time>2018-08-02T09:52:36Z</time>
      </trkpt>
      <trkpt lat="45.91145" lon="4.67973">
        <ele>378</ele>
        <time>2018-08-02T09:52:39Z</time>
      </trkpt>
      <trkpt lat="45.91147" lon="4.67974">
        <ele>378</ele>
        <time>2018-08-02T09:52:40Z</time>
      </trkpt>
      <trkpt lat="45.91156" lon="4.67978">
        <ele>378</ele>
        <time>2018-08-02T09:52:43Z</time>
      </trkpt>
      <trkpt lat="45.91159" lon="4.67979">
        <ele>378</ele>
        <time>2018-08-02T09:52:44Z</time>
      </trkpt>
      <trkpt lat="45.91167" lon="4.67984">
        <ele>380</ele>
        <time>2018-08-02T09:52:47Z</time>
      </trkpt>
      <trkpt lat="45.91169" lon="4.67986">
        <ele>380</ele>
        <time>2018-08-02T09:52:48Z</time>
      </trkpt>
      <trkpt lat="45.91177" lon="4.6799">
        <ele>380</ele>
        <time>2018-08-02T09:52:51Z</time>
      </trkpt>
      <trkpt lat="45.9118" lon="4.67992">
        <ele>380</ele>
        <time>2018-08-02T09:52:52Z</time>
      </trkpt>
      <trkpt lat="45.91188" lon="4.67997">
        <ele>380</ele>
        <time>2018-08-02T09:52:55Z</time>
      </trkpt>
      <trkpt lat="45.91191" lon="4.67998">
        <ele>380</ele>
        <time>2018-08-02T09:52:56Z</time>
      </trkpt>
      <trkpt lat="45.91199" lon="4.68002">
        <ele>383</ele>
        <time>2018-08-02T09:52:59Z</time>
      </trkpt>
      <trkpt lat="45.91202" lon="4.68003">
        <ele>383</ele>
        <time>2018-08-02T09:53:00Z</time>
      </trkpt>
      <trkpt lat="45.9121" lon="4.68007">
        <ele>383</ele>
        <time>2018-08-02T09:53:03Z</time>
      </trkpt>
      <trkpt lat="45.91212" lon="4.68009">
        <ele>383</ele>
        <time>2018-08-02T09:53:04Z</time>
      </trkpt>
      <trkpt lat="45.9122" lon="4.68014">
        <ele>384</ele>
        <time>2018-08-02T09:53:07Z</time>
      </trkpt>
      <trkpt lat="45.91223" lon="4.68016">
        <ele>384</ele>
        <time>2018-08-02T09:53:08Z</time>
      </trkpt>
      <trkpt lat="45.9123" lon="4.6802">
        <ele>384</ele>
        <time>2018-08-02T09:53:11Z</time>
      </trkpt>
      <trkpt lat="45.91233" lon="4.68021">
        <ele>384</ele>
        <time>2018-08-02T09:53:12Z</time>
      </trkpt>
      <trkpt lat="45.9124" lon="4.68025">
        <ele>384</ele>
        <time>2018-08-02T09:53:15Z</time>
      </trkpt>
      <trkpt lat="45.91243" lon="4.68027">
        <ele>384</ele>
        <time>2018-08-02T09:53:16Z</time>
      </trkpt>
      <trkpt lat="45.91246" lon="4.68029">
        <ele>384</ele>
        <time>2018-08-02T09:53:17Z</time>
      </trkpt>
      <trkpt lat="45.91256" lon="4.68033">
        <ele>385</ele>
        <time>2018-08-02T09:53:18Z</time>
      </trkpt>
      <trkpt lat="45.91263" lon="4.68034">
        <ele>385</ele>
        <time>2018-08-02T09:53:21Z</time>
      </trkpt>
      <trkpt lat="45.91266" lon="4.68035">
        <ele>385</ele>
        <time>2018-08-02T09:53:22Z</time>
      </trkpt>
      <trkpt lat="45.91272" lon="4.68038">
        <ele>385</ele>
        <time>2018-08-02T09:53:24Z</time>
      </trkpt>
      <trkpt lat="45.91275" lon="4.68039">
        <ele>385</ele>
        <time>2018-08-02T09:53:25Z</time>
      </trkpt>
      <trkpt lat="45.91281" lon="4.68042">
        <ele>385</ele>
        <time>2018-08-02T09:53:27Z</time>
      </trkpt>
      <trkpt lat="45.91284" lon="4.68043">
        <ele>385</ele>
        <time>2018-08-02T09:53:28Z</time>
      </trkpt>
      <trkpt lat="45.9129" lon="4.68046">
        <ele>385</ele>
        <time>2018-08-02T09:53:30Z</time>
      </trkpt>
      <trkpt lat="45.91293" lon="4.68047">
        <ele>385</ele>
        <time>2018-08-02T09:53:31Z</time>
      </trkpt>
      <trkpt lat="45.91299" lon="4.6805">
        <ele>385</ele>
        <time>2018-08-02T09:53:33Z</time>
      </trkpt>
      <trkpt lat="45.91302" lon="4.68052">
        <ele>385</ele>
        <time>2018-08-02T09:53:34Z</time>
      </trkpt>
      <trkpt lat="45.91313" lon="4.68059">
        <ele>385</ele>
        <time>2018-08-02T09:53:35Z</time>
      </trkpt>
      <trkpt lat="45.91317" lon="4.68061">
        <ele>385</ele>
        <time>2018-08-02T09:53:36Z</time>
      </trkpt>
      <trkpt lat="45.91321" lon="4.68063">
        <ele>385</ele>
        <time>2018-08-02T09:53:37Z</time>
      </trkpt>
      <trkpt lat="45.91328" lon="4.68068">
        <ele>385</ele>
        <time>2018-08-02T09:53:39Z</time>
      </trkpt>
      <trkpt lat="45.91332" lon="4.6807">
        <ele>385</ele>
        <time>2018-08-02T09:53:40Z</time>
      </trkpt>
      <trkpt lat="45.9134" lon="4.68072">
        <ele>385</ele>
        <time>2018-08-02T09:53:42Z</time>
      </trkpt>
      <trkpt lat="45.91344" lon="4.68073">
        <ele>385</ele>
        <time>2018-08-02T09:53:43Z</time>
      </trkpt>
      <trkpt lat="45.91352" lon="4.68078">
        <ele>385</ele>
        <time>2018-08-02T09:53:46Z</time>
      </trkpt>
      <trkpt lat="45.91354" lon="4.68079">
        <ele>385</ele>
        <time>2018-08-02T09:53:47Z</time>
      </trkpt>
      <trkpt lat="45.91361" lon="4.68082">
        <ele>385</ele>
        <time>2018-08-02T09:53:50Z</time>
      </trkpt>
      <trkpt lat="45.91363" lon="4.68083">
        <ele>385</ele>
        <time>2018-08-02T09:53:51Z</time>
      </trkpt>
      <trkpt lat="45.91373" lon="4.68088">
        <ele>386</ele>
        <time>2018-08-02T09:53:52Z</time>
      </trkpt>
      <trkpt lat="45.91379" lon="4.68092">
        <ele>386</ele>
        <time>2018-08-02T09:53:55Z</time>
      </trkpt>
      <trkpt lat="45.91393" lon="4.68092">
        <ele>386</ele>
        <time>2018-08-02T09:53:56Z</time>
      </trkpt>
      <trkpt lat="45.914" lon="4.68092">
        <ele>386</ele>
        <time>2018-08-02T09:53:58Z</time>
      </trkpt>
      <trkpt lat="45.91405" lon="4.68091">
        <ele>386</ele>
        <time>2018-08-02T09:53:59Z</time>
      </trkpt>
      <trkpt lat="45.91412" lon="4.68089">
        <ele>386</ele>
        <time>2018-08-02T09:54:01Z</time>
      </trkpt>
      <trkpt lat="45.91416" lon="4.68088">
        <ele>386</ele>
        <time>2018-08-02T09:54:02Z</time>
      </trkpt>
      <trkpt lat="45.91424" lon="4.68089">
        <ele>385</ele>
        <time>2018-08-02T09:54:04Z</time>
      </trkpt>
      <trkpt lat="45.91428" lon="4.68089">
        <ele>385</ele>
        <time>2018-08-02T09:54:05Z</time>
      </trkpt>
      <trkpt lat="45.91437" lon="4.6809">
        <ele>385</ele>
        <time>2018-08-02T09:54:07Z</time>
      </trkpt>
      <trkpt lat="45.91444" lon="4.68087">
        <ele>385</ele>
        <time>2018-08-02T09:54:08Z</time>
      </trkpt>
      <trkpt lat="45.91452" lon="4.68091">
        <ele>384</ele>
        <time>2018-08-02T09:54:10Z</time>
      </trkpt>
      <trkpt lat="45.91457" lon="4.68093">
        <ele>384</ele>
        <time>2018-08-02T09:54:11Z</time>
      </trkpt>
      <trkpt lat="45.9146" lon="4.68096">
        <ele>384</ele>
        <time>2018-08-02T09:54:12Z</time>
      </trkpt>
      <trkpt lat="45.91468" lon="4.68097">
        <ele>384</ele>
        <time>2018-08-02T09:54:13Z</time>
      </trkpt>
      <trkpt lat="45.91475" lon="4.68097">
        <ele>383</ele>
        <time>2018-08-02T09:54:14Z</time>
      </trkpt>
      <trkpt lat="45.91478" lon="4.68103">
        <ele>383</ele>
        <time>2018-08-02T09:54:15Z</time>
      </trkpt>
      <trkpt lat="45.91483" lon="4.68108">
        <ele>383</ele>
        <time>2018-08-02T09:54:16Z</time>
      </trkpt>
      <trkpt lat="45.91489" lon="4.68114">
        <ele>383</ele>
        <time>2018-08-02T09:54:17Z</time>
      </trkpt>
      <trkpt lat="45.91494" lon="4.68117">
        <ele>383</ele>
        <time>2018-08-02T09:54:18Z</time>
      </trkpt>
      <trkpt lat="45.91499" lon="4.6812">
        <ele>383</ele>
        <time>2018-08-02T09:54:19Z</time>
      </trkpt>
      <trkpt lat="45.91506" lon="4.68125">
        <ele>380</ele>
        <time>2018-08-02T09:54:20Z</time>
      </trkpt>
      <trkpt lat="45.91514" lon="4.68126">
        <ele>380</ele>
        <time>2018-08-02T09:54:21Z</time>
      </trkpt>
      <trkpt lat="45.91519" lon="4.6813">
        <ele>380</ele>
        <time>2018-08-02T09:54:22Z</time>
      </trkpt>
      <trkpt lat="45.91525" lon="4.68133">
        <ele>379</ele>
        <time>2018-08-02T09:54:23Z</time>
      </trkpt>
      <trkpt lat="45.91531" lon="4.68137">
        <ele>379</ele>
        <time>2018-08-02T09:54:24Z</time>
      </trkpt>
      <trkpt lat="45.91537" lon="4.6814">
        <ele>379</ele>
        <time>2018-08-02T09:54:25Z</time>
      </trkpt>
      <trkpt lat="45.91543" lon="4.68143">
        <ele>379</ele>
        <time>2018-08-02T09:54:26Z</time>
      </trkpt>
      <trkpt lat="45.91549" lon="4.68147">
        <ele>379</ele>
        <time>2018-08-02T09:54:27Z</time>
      </trkpt>
      <trkpt lat="45.91555" lon="4.6815">
        <ele>379</ele>
        <time>2018-08-02T09:54:28Z</time>
      </trkpt>
      <trkpt lat="45.91563" lon="4.68154">
        <ele>378</ele>
        <time>2018-08-02T09:54:29Z</time>
      </trkpt>
      <trkpt lat="45.91569" lon="4.6816">
        <ele>378</ele>
        <time>2018-08-02T09:54:30Z</time>
      </trkpt>
      <trkpt lat="45.91577" lon="4.68162">
        <ele>378</ele>
        <time>2018-08-02T09:54:31Z</time>
      </trkpt>
      <trkpt lat="45.91586" lon="4.68165">
        <ele>377</ele>
        <time>2018-08-02T09:54:32Z</time>
      </trkpt>
      <trkpt lat="45.91594" lon="4.68169">
        <ele>377</ele>
        <time>2018-08-02T09:54:33Z</time>
      </trkpt>
      <trkpt lat="45.91602" lon="4.68178">
        <ele>376</ele>
        <time>2018-08-02T09:54:34Z</time>
      </trkpt>
      <trkpt lat="45.91609" lon="4.68184">
        <ele>376</ele>
        <time>2018-08-02T09:54:35Z</time>
      </trkpt>
      <trkpt lat="45.91616" lon="4.68189">
        <ele>375</ele>
        <time>2018-08-02T09:54:36Z</time>
      </trkpt>
      <trkpt lat="45.91621" lon="4.68196">
        <ele>375</ele>
        <time>2018-08-02T09:54:37Z</time>
      </trkpt>
      <trkpt lat="45.9163" lon="4.68197">
        <ele>375</ele>
        <time>2018-08-02T09:54:38Z</time>
      </trkpt>
      <trkpt lat="45.91639" lon="4.68204">
        <ele>374</ele>
        <time>2018-08-02T09:54:39Z</time>
      </trkpt>
      <trkpt lat="45.91648" lon="4.68207">
        <ele>374</ele>
        <time>2018-08-02T09:54:40Z</time>
      </trkpt>
      <trkpt lat="45.91653" lon="4.68213">
        <ele>374</ele>
        <time>2018-08-02T09:54:41Z</time>
      </trkpt>
      <trkpt lat="45.91661" lon="4.6822">
        <ele>374</ele>
        <time>2018-08-02T09:54:42Z</time>
      </trkpt>
      <trkpt lat="45.9167" lon="4.68223">
        <ele>371</ele>
        <time>2018-08-02T09:54:43Z</time>
      </trkpt>
      <trkpt lat="45.91677" lon="4.68227">
        <ele>371</ele>
        <time>2018-08-02T09:54:44Z</time>
      </trkpt>
      <trkpt lat="45.91683" lon="4.68235">
        <ele>371</ele>
        <time>2018-08-02T09:54:45Z</time>
      </trkpt>
      <trkpt lat="45.91691" lon="4.6824">
        <ele>371</ele>
        <time>2018-08-02T09:54:46Z</time>
      </trkpt>
      <trkpt lat="45.91699" lon="4.68244">
        <ele>370</ele>
        <time>2018-08-02T09:54:47Z</time>
      </trkpt>
      <trkpt lat="45.91705" lon="4.68253">
        <ele>373</ele>
        <time>2018-08-02T09:54:48Z</time>
      </trkpt>
      <trkpt lat="45.91712" lon="4.68255">
        <ele>373</ele>
        <time>2018-08-02T09:54:49Z</time>
      </trkpt>
      <trkpt lat="45.91718" lon="4.68258">
        <ele>372</ele>
        <time>2018-08-02T09:54:50Z</time>
      </trkpt>
      <trkpt lat="45.91726" lon="4.6826">
        <ele>372</ele>
        <time>2018-08-02T09:54:51Z</time>
      </trkpt>
      <trkpt lat="45.91733" lon="4.68264">
        <ele>372</ele>
        <time>2018-08-02T09:54:52Z</time>
      </trkpt>
      <trkpt lat="45.91739" lon="4.68265">
        <ele>372</ele>
        <time>2018-08-02T09:54:53Z</time>
      </trkpt>
      <trkpt lat="45.91744" lon="4.68265">
        <ele>372</ele>
        <time>2018-08-02T09:54:54Z</time>
      </trkpt>
      <trkpt lat="45.9175" lon="4.68265">
        <ele>371</ele>
        <time>2018-08-02T09:54:55Z</time>
      </trkpt>
      <trkpt lat="45.91755" lon="4.68267">
        <ele>372</ele>
        <time>2018-08-02T09:54:56Z</time>
      </trkpt>
      <trkpt lat="45.91761" lon="4.68265">
        <ele>372</ele>
        <time>2018-08-02T09:54:57Z</time>
      </trkpt>
      <trkpt lat="45.91766" lon="4.68266">
        <ele>372</ele>
        <time>2018-08-02T09:54:58Z</time>
      </trkpt>
      <trkpt lat="45.91772" lon="4.68267">
        <ele>372</ele>
        <time>2018-08-02T09:54:59Z</time>
      </trkpt>
      <trkpt lat="45.91776" lon="4.6827">
        <ele>372</ele>
        <time>2018-08-02T09:55:00Z</time>
      </trkpt>
      <trkpt lat="45.91785" lon="4.68266">
        <ele>372</ele>
        <time>2018-08-02T09:55:01Z</time>
      </trkpt>
      <trkpt lat="45.91792" lon="4.68272">
        <ele>372</ele>
        <time>2018-08-02T09:55:03Z</time>
      </trkpt>
      <trkpt lat="45.91795" lon="4.68272">
        <ele>372</ele>
        <time>2018-08-02T09:55:04Z</time>
      </trkpt>
      <trkpt lat="45.91803" lon="4.68271">
        <ele>372</ele>
        <time>2018-08-02T09:55:06Z</time>
      </trkpt>
      <trkpt lat="45.91806" lon="4.68271">
        <ele>372</ele>
        <time>2018-08-02T09:55:07Z</time>
      </trkpt>
      <trkpt lat="45.91814" lon="4.6827">
        <ele>372</ele>
        <time>2018-08-02T09:55:09Z</time>
      </trkpt>
      <trkpt lat="45.91816" lon="4.68271">
        <ele>372</ele>
        <time>2018-08-02T09:55:10Z</time>
      </trkpt>
      <trkpt lat="45.91825" lon="4.68276">
        <ele>372</ele>
        <time>2018-08-02T09:55:12Z</time>
      </trkpt>
      <trkpt lat="45.91832" lon="4.68276">
        <ele>372</ele>
        <time>2018-08-02T09:55:13Z</time>
      </trkpt>
      <trkpt lat="45.91837" lon="4.68276">
        <ele>374</ele>
        <time>2018-08-02T09:55:14Z</time>
      </trkpt>
      <trkpt lat="45.91842" lon="4.68276">
        <ele>374</ele>
        <time>2018-08-02T09:55:15Z</time>
      </trkpt>
      <trkpt lat="45.91849" lon="4.6828">
        <ele>374</ele>
        <time>2018-08-02T09:55:19Z</time>
      </trkpt>
      <trkpt lat="45.91851" lon="4.68281">
        <ele>375</ele>
        <time>2018-08-02T09:55:20Z</time>
      </trkpt>
      <trkpt lat="45.9186" lon="4.68283">
        <ele>375</ele>
        <time>2018-08-02T09:55:23Z</time>
      </trkpt>
      <trkpt lat="45.91863" lon="4.68284">
        <ele>375</ele>
        <time>2018-08-02T09:55:24Z</time>
      </trkpt>
      <trkpt lat="45.91871" lon="4.68286">
        <ele>375</ele>
        <time>2018-08-02T09:55:27Z</time>
      </trkpt>
      <trkpt lat="45.91874" lon="4.68287">
        <ele>376</ele>
        <time>2018-08-02T09:55:28Z</time>
      </trkpt>
      <trkpt lat="45.91883" lon="4.68289">
        <ele>376</ele>
        <time>2018-08-02T09:55:31Z</time>
      </trkpt>
      <trkpt lat="45.91893" lon="4.68293">
        <ele>376</ele>
        <time>2018-08-02T09:55:32Z</time>
      </trkpt>
      <trkpt lat="45.919" lon="4.68296">
        <ele>377</ele>
        <time>2018-08-02T09:55:36Z</time>
      </trkpt>
      <trkpt lat="45.91902" lon="4.68297">
        <ele>377</ele>
        <time>2018-08-02T09:55:37Z</time>
      </trkpt>
      <trkpt lat="45.9191" lon="4.68299">
        <ele>377</ele>
        <time>2018-08-02T09:55:40Z</time>
      </trkpt>
      <trkpt lat="45.91919" lon="4.683">
        <ele>379</ele>
        <time>2018-08-02T09:55:41Z</time>
      </trkpt>
      <trkpt lat="45.91923" lon="4.68301">
        <ele>379</ele>
        <time>2018-08-02T09:55:43Z</time>
      </trkpt>
      <trkpt lat="45.91929" lon="4.68301">
        <ele>379</ele>
        <time>2018-08-02T09:55:44Z</time>
      </trkpt>
      <trkpt lat="45.91933" lon="4.68301">
        <ele>379</ele>
        <time>2018-08-02T09:55:46Z</time>
      </trkpt>
      <trkpt lat="45.9194" lon="4.68301">
        <ele>379</ele>
        <time>2018-08-02T09:55:47Z</time>
      </trkpt>
      <trkpt lat="45.91947" lon="4.68302">
        <ele>379</ele>
        <time>2018-08-02T09:55:50Z</time>
      </trkpt>
      <trkpt lat="45.9195" lon="4.68303">
        <ele>379</ele>
        <time>2018-08-02T09:55:51Z</time>
      </trkpt>
      <trkpt lat="45.91958" lon="4.68306">
        <ele>379</ele>
        <time>2018-08-02T09:55:54Z</time>
      </trkpt>
      <trkpt lat="45.91961" lon="4.68306">
        <ele>380</ele>
        <time>2018-08-02T09:55:55Z</time>
      </trkpt>
      <trkpt lat="45.91969" lon="4.68309">
        <ele>380</ele>
        <time>2018-08-02T09:55:58Z</time>
      </trkpt>
      <trkpt lat="45.91971" lon="4.6831">
        <ele>380</ele>
        <time>2018-08-02T09:55:59Z</time>
      </trkpt>
      <trkpt lat="45.91978" lon="4.68312">
        <ele>380</ele>
        <time>2018-08-02T09:56:01Z</time>
      </trkpt>
      <trkpt lat="45.91989" lon="4.68315">
        <ele>381</ele>
        <time>2018-08-02T09:56:02Z</time>
      </trkpt>
      <trkpt lat="45.91995" lon="4.68317">
        <ele>381</ele>
        <time>2018-08-02T09:56:05Z</time>
      </trkpt>
      <trkpt lat="45.91998" lon="4.68317">
        <ele>381</ele>
        <time>2018-08-02T09:56:06Z</time>
      </trkpt>
      <trkpt lat="45.92007" lon="4.68319">
        <ele>381</ele>
        <time>2018-08-02T09:56:07Z</time>
      </trkpt>
      <trkpt lat="45.92015" lon="4.68319">
        <ele>380</ele>
        <time>2018-08-02T09:56:09Z</time>
      </trkpt>
      <trkpt lat="45.92017" lon="4.68319">
        <ele>380</ele>
        <time>2018-08-02T09:56:10Z</time>
      </trkpt>
      <trkpt lat="45.92023" lon="4.68318">
        <ele>380</ele>
        <time>2018-08-02T09:56:11Z</time>
      </trkpt>
      <trkpt lat="45.92027" lon="4.68318">
        <ele>380</ele>
        <time>2018-08-02T09:56:12Z</time>
      </trkpt>
      <trkpt lat="45.92035" lon="4.68319">
        <ele>380</ele>
        <time>2018-08-02T09:56:14Z</time>
      </trkpt>
      <trkpt lat="45.92037" lon="4.68319">
        <ele>380</ele>
        <time>2018-08-02T09:56:15Z</time>
      </trkpt>
      <trkpt lat="45.92042" lon="4.6832">
        <ele>380</ele>
        <time>2018-08-02T09:56:16Z</time>
      </trkpt>
      <trkpt lat="45.92046" lon="4.6832">
        <ele>380</ele>
        <time>2018-08-02T09:56:17Z</time>
      </trkpt>
      <trkpt lat="45.92055" lon="4.68322">
        <ele>380</ele>
        <time>2018-08-02T09:56:19Z</time>
      </trkpt>
      <trkpt lat="45.9206" lon="4.68323">
        <ele>380</ele>
        <time>2018-08-02T09:56:20Z</time>
      </trkpt>
      <trkpt lat="45.92065" lon="4.68324">
        <ele>380</ele>
        <time>2018-08-02T09:56:21Z</time>
      </trkpt>
      <trkpt lat="45.92069" lon="4.68327">
        <ele>380</ele>
        <time>2018-08-02T09:56:22Z</time>
      </trkpt>
      <trkpt lat="45.92074" lon="4.68328">
        <ele>381</ele>
        <time>2018-08-02T09:56:23Z</time>
      </trkpt>
      <trkpt lat="45.9208" lon="4.6833">
        <ele>381</ele>
        <time>2018-08-02T09:56:24Z</time>
      </trkpt>
      <trkpt lat="45.92088" lon="4.68332">
        <ele>381</ele>
        <time>2018-08-02T09:56:26Z</time>
      </trkpt>
      <trkpt lat="45.9209" lon="4.68332">
        <ele>381</ele>
        <time>2018-08-02T09:56:27Z</time>
      </trkpt>
      <trkpt lat="45.92097" lon="4.68332">
        <ele>379</ele>
        <time>2018-08-02T09:56:28Z</time>
      </trkpt>
      <trkpt lat="45.921" lon="4.68332">
        <ele>379</ele>
        <time>2018-08-02T09:56:29Z</time>
      </trkpt>
      <trkpt lat="45.92108" lon="4.68333">
        <ele>383</ele>
        <time>2018-08-02T09:56:31Z</time>
      </trkpt>
      <trkpt lat="45.92111" lon="4.68336">
        <ele>383</ele>
        <time>2018-08-02T09:56:32Z</time>
      </trkpt>
      <trkpt lat="45.92116" lon="4.68338">
        <ele>383</ele>
        <time>2018-08-02T09:56:33Z</time>
      </trkpt>
      <trkpt lat="45.9212" lon="4.68342">
        <ele>383</ele>
        <time>2018-08-02T09:56:34Z</time>
      </trkpt>
      <trkpt lat="45.92124" lon="4.68346">
        <ele>383</ele>
        <time>2018-08-02T09:56:35Z</time>
      </trkpt>
      <trkpt lat="45.92127" lon="4.6835">
        <ele>383</ele>
        <time>2018-08-02T09:56:36Z</time>
      </trkpt>
      <trkpt lat="45.92135" lon="4.68356">
        <ele>383</ele>
        <time>2018-08-02T09:56:38Z</time>
      </trkpt>
      <trkpt lat="45.92138" lon="4.6836">
        <ele>383</ele>
        <time>2018-08-02T09:56:39Z</time>
      </trkpt>
      <trkpt lat="45.92145" lon="4.68366">
        <ele>383</ele>
        <time>2018-08-02T09:56:41Z</time>
      </trkpt>
      <trkpt lat="45.92148" lon="4.68369">
        <ele>383</ele>
        <time>2018-08-02T09:56:42Z</time>
      </trkpt>
      <trkpt lat="45.92154" lon="4.68375">
        <ele>384</ele>
        <time>2018-08-02T09:56:44Z</time>
      </trkpt>
      <trkpt lat="45.92157" lon="4.68379">
        <ele>384</ele>
        <time>2018-08-02T09:56:45Z</time>
      </trkpt>
      <trkpt lat="45.92164" lon="4.68386">
        <ele>384</ele>
        <time>2018-08-02T09:56:47Z</time>
      </trkpt>
      <trkpt lat="45.92167" lon="4.6839">
        <ele>383</ele>
        <time>2018-08-02T09:56:48Z</time>
      </trkpt>
      <trkpt lat="45.9217" lon="4.68396">
        <ele>383</ele>
        <time>2018-08-02T09:56:49Z</time>
      </trkpt>
      <trkpt lat="45.92173" lon="4.68402">
        <ele>384</ele>
        <time>2018-08-02T09:56:50Z</time>
      </trkpt>
      <trkpt lat="45.92178" lon="4.68412">
        <ele>384</ele>
        <time>2018-08-02T09:56:52Z</time>
      </trkpt>
      <trkpt lat="45.92182" lon="4.68414">
        <ele>384</ele>
        <time>2018-08-02T09:56:53Z</time>
      </trkpt>
      <trkpt lat="45.92187" lon="4.68418">
        <ele>386</ele>
        <time>2018-08-02T09:56:54Z</time>
      </trkpt>
      <trkpt lat="45.92191" lon="4.6842">
        <ele>386</ele>
        <time>2018-08-02T09:56:55Z</time>
      </trkpt>
      <trkpt lat="45.92195" lon="4.68422">
        <ele>386</ele>
        <time>2018-08-02T09:56:56Z</time>
      </trkpt>
      <trkpt lat="45.92199" lon="4.68424">
        <ele>386</ele>
        <time>2018-08-02T09:56:57Z</time>
      </trkpt>
      <trkpt lat="45.92204" lon="4.68427">
        <ele>386</ele>
        <time>2018-08-02T09:56:58Z</time>
      </trkpt>
      <trkpt lat="45.92208" lon="4.68428">
        <ele>386</ele>
        <time>2018-08-02T09:56:59Z</time>
      </trkpt>
      <trkpt lat="45.92212" lon="4.68432">
        <ele>386</ele>
        <time>2018-08-02T09:57:00Z</time>
      </trkpt>
      <trkpt lat="45.92216" lon="4.68435">
        <ele>386</ele>
        <time>2018-08-02T09:57:01Z</time>
      </trkpt>
      <trkpt lat="45.9222" lon="4.68439">
        <ele>386</ele>
        <time>2018-08-02T09:57:02Z</time>
      </trkpt>
      <trkpt lat="45.92224" lon="4.68443">
        <ele>386</ele>
        <time>2018-08-02T09:57:03Z</time>
      </trkpt>
      <trkpt lat="45.92231" lon="4.6845">
        <ele>386</ele>
        <time>2018-08-02T09:57:05Z</time>
      </trkpt>
      <trkpt lat="45.92236" lon="4.68452">
        <ele>386</ele>
        <time>2018-08-02T09:57:06Z</time>
      </trkpt>
      <trkpt lat="45.92243" lon="4.68458">
        <ele>386</ele>
        <time>2018-08-02T09:57:08Z</time>
      </trkpt>
      <trkpt lat="45.92247" lon="4.68462">
        <ele>386</ele>
        <time>2018-08-02T09:57:09Z</time>
      </trkpt>
      <trkpt lat="45.92252" lon="4.68466">
        <ele>383</ele>
        <time>2018-08-02T09:57:10Z</time>
      </trkpt>
      <trkpt lat="45.92255" lon="4.6847">
        <ele>384</ele>
        <time>2018-08-02T09:57:11Z</time>
      </trkpt>
      <trkpt lat="45.92259" lon="4.68475">
        <ele>384</ele>
        <time>2018-08-02T09:57:12Z</time>
      </trkpt>
      <trkpt lat="45.92262" lon="4.6848">
        <ele>384</ele>
        <time>2018-08-02T09:57:13Z</time>
      </trkpt>
      <trkpt lat="45.92267" lon="4.68483">
        <ele>384</ele>
        <time>2018-08-02T09:57:14Z</time>
      </trkpt>
      <trkpt lat="45.92272" lon="4.68486">
        <ele>384</ele>
        <time>2018-08-02T09:57:15Z</time>
      </trkpt>
      <trkpt lat="45.92275" lon="4.6849">
        <ele>384</ele>
        <time>2018-08-02T09:57:16Z</time>
      </trkpt>
      <trkpt lat="45.92278" lon="4.68495">
        <ele>384</ele>
        <time>2018-08-02T09:57:17Z</time>
      </trkpt>
      <trkpt lat="45.92285" lon="4.68502">
        <ele>387</ele>
        <time>2018-08-02T09:57:19Z</time>
      </trkpt>
      <trkpt lat="45.92287" lon="4.68506">
        <ele>387</ele>
        <time>2018-08-02T09:57:20Z</time>
      </trkpt>
      <trkpt lat="45.92295" lon="4.68512">
        <ele>387</ele>
        <time>2018-08-02T09:57:22Z</time>
      </trkpt>
      <trkpt lat="45.92298" lon="4.68516">
        <ele>387</ele>
        <time>2018-08-02T09:57:23Z</time>
      </trkpt>
      <trkpt lat="45.92304" lon="4.68524">
        <ele>387</ele>
        <time>2018-08-02T09:57:25Z</time>
      </trkpt>
      <trkpt lat="45.92309" lon="4.68527">
        <ele>387</ele>
        <time>2018-08-02T09:57:26Z</time>
      </trkpt>
      <trkpt lat="45.92313" lon="4.68531">
        <ele>387</ele>
        <time>2018-08-02T09:57:27Z</time>
      </trkpt>
      <trkpt lat="45.92318" lon="4.68535">
        <ele>387</ele>
        <time>2018-08-02T09:57:28Z</time>
      </trkpt>
      <trkpt lat="45.92322" lon="4.68537">
        <ele>388</ele>
        <time>2018-08-02T09:57:29Z</time>
      </trkpt>
      <trkpt lat="45.92327" lon="4.68539">
        <ele>388</ele>
        <time>2018-08-02T09:57:30Z</time>
      </trkpt>
      <trkpt lat="45.92331" lon="4.68542">
        <ele>388</ele>
        <time>2018-08-02T09:57:31Z</time>
      </trkpt>
      <trkpt lat="45.92335" lon="4.68545">
        <ele>384</ele>
        <time>2018-08-02T09:57:32Z</time>
      </trkpt>
      <trkpt lat="45.92339" lon="4.68548">
        <ele>385</ele>
        <time>2018-08-02T09:57:33Z</time>
      </trkpt>
      <trkpt lat="45.92344" lon="4.68551">
        <ele>385</ele>
        <time>2018-08-02T09:57:34Z</time>
      </trkpt>
      <trkpt lat="45.92349" lon="4.68555">
        <ele>385</ele>
        <time>2018-08-02T09:57:35Z</time>
      </trkpt>
      <trkpt lat="45.92354" lon="4.68557">
        <ele>385</ele>
        <time>2018-08-02T09:57:36Z</time>
      </trkpt>
      <trkpt lat="45.92359" lon="4.68558">
        <ele>385</ele>
        <time>2018-08-02T09:57:37Z</time>
      </trkpt>
      <trkpt lat="45.92364" lon="4.68561">
        <ele>384</ele>
        <time>2018-08-02T09:57:38Z</time>
      </trkpt>
      <trkpt lat="45.92368" lon="4.68564">
        <ele>384</ele>
        <time>2018-08-02T09:57:39Z</time>
      </trkpt>
      <trkpt lat="45.92374" lon="4.68567">
        <ele>384</ele>
        <time>2018-08-02T09:57:40Z</time>
      </trkpt>
      <trkpt lat="45.92378" lon="4.68571">
        <ele>384</ele>
        <time>2018-08-02T09:57:41Z</time>
      </trkpt>
      <trkpt lat="45.92382" lon="4.68575">
        <ele>384</ele>
        <time>2018-08-02T09:57:42Z</time>
      </trkpt>
      <trkpt lat="45.92387" lon="4.68578">
        <ele>383</ele>
        <time>2018-08-02T09:57:43Z</time>
      </trkpt>
      <trkpt lat="45.92392" lon="4.68583">
        <ele>383</ele>
        <time>2018-08-02T09:57:44Z</time>
      </trkpt>
      <trkpt lat="45.92396" lon="4.68587">
        <ele>386</ele>
        <time>2018-08-02T09:57:45Z</time>
      </trkpt>
      <trkpt lat="45.92402" lon="4.6859">
        <ele>385</ele>
        <time>2018-08-02T09:57:46Z</time>
      </trkpt>
      <trkpt lat="45.92408" lon="4.68594">
        <ele>385</ele>
        <time>2018-08-02T09:57:47Z</time>
      </trkpt>
      <trkpt lat="45.92413" lon="4.68596">
        <ele>384</ele>
        <time>2018-08-02T09:57:48Z</time>
      </trkpt>
      <trkpt lat="45.92418" lon="4.68599">
        <ele>381</ele>
        <time>2018-08-02T09:57:49Z</time>
      </trkpt>
      <trkpt lat="45.92423" lon="4.68602">
        <ele>381</ele>
        <time>2018-08-02T09:57:50Z</time>
      </trkpt>
      <trkpt lat="45.9243" lon="4.68604">
        <ele>381</ele>
        <time>2018-08-02T09:57:51Z</time>
      </trkpt>
      <trkpt lat="45.92435" lon="4.68606">
        <ele>381</ele>
        <time>2018-08-02T09:57:52Z</time>
      </trkpt>
      <trkpt lat="45.92441" lon="4.68609">
        <ele>381</ele>
        <time>2018-08-02T09:57:53Z</time>
      </trkpt>
      <trkpt lat="45.92447" lon="4.68614">
        <ele>380</ele>
        <time>2018-08-02T09:57:54Z</time>
      </trkpt>
      <trkpt lat="45.92453" lon="4.68618">
        <ele>380</ele>
        <time>2018-08-02T09:57:55Z</time>
      </trkpt>
      <trkpt lat="45.92458" lon="4.68623">
        <ele>380</ele>
        <time>2018-08-02T09:57:56Z</time>
      </trkpt>
      <trkpt lat="45.92466" lon="4.68624">
        <ele>380</ele>
        <time>2018-08-02T09:57:57Z</time>
      </trkpt>
      <trkpt lat="45.92472" lon="4.68628">
        <ele>379</ele>
        <time>2018-08-02T09:57:58Z</time>
      </trkpt>
      <trkpt lat="45.92478" lon="4.68631">
        <ele>379</ele>
        <time>2018-08-02T09:57:59Z</time>
      </trkpt>
      <trkpt lat="45.92485" lon="4.68633">
        <ele>379</ele>
        <time>2018-08-02T09:58:00Z</time>
      </trkpt>
      <trkpt lat="45.92492" lon="4.68635">
        <ele>379</ele>
        <time>2018-08-02T09:58:01Z</time>
      </trkpt>
      <trkpt lat="45.92496" lon="4.68641">
        <ele>379</ele>
        <time>2018-08-02T09:58:02Z</time>
      </trkpt>
      <trkpt lat="45.92504" lon="4.68641">
        <ele>375</ele>
        <time>2018-08-02T09:58:03Z</time>
      </trkpt>
      <trkpt lat="45.92511" lon="4.6864">
        <ele>375</ele>
        <time>2018-08-02T09:58:04Z</time>
      </trkpt>
      <trkpt lat="45.92516" lon="4.68644">
        <ele>375</ele>
        <time>2018-08-02T09:58:05Z</time>
      </trkpt>
      <trkpt lat="45.92522" lon="4.68647">
        <ele>375</ele>
        <time>2018-08-02T09:58:06Z</time>
      </trkpt>
      <trkpt lat="45.92526" lon="4.68649">
        <ele>375</ele>
        <time>2018-08-02T09:58:07Z</time>
      </trkpt>
      <trkpt lat="45.92534" lon="4.68651">
        <ele>375</ele>
        <time>2018-08-02T09:58:08Z</time>
      </trkpt>
      <trkpt lat="45.92537" lon="4.68652">
        <ele>375</ele>
        <time>2018-08-02T09:58:09Z</time>
      </trkpt>
      <trkpt lat="45.92544" lon="4.68651">
        <ele>374</ele>
        <time>2018-08-02T09:58:10Z</time>
      </trkpt>
      <trkpt lat="45.9255" lon="4.6865">
        <ele>374</ele>
        <time>2018-08-02T09:58:11Z</time>
      </trkpt>
      <trkpt lat="45.92556" lon="4.68651">
        <ele>374</ele>
        <time>2018-08-02T09:58:12Z</time>
      </trkpt>
      <trkpt lat="45.92562" lon="4.68649">
        <ele>374</ele>
        <time>2018-08-02T09:58:13Z</time>
      </trkpt>
      <trkpt lat="45.92565" lon="4.68647">
        <ele>374</ele>
        <time>2018-08-02T09:58:14Z</time>
      </trkpt>
      <trkpt lat="45.92571" lon="4.68643">
        <ele>374</ele>
        <time>2018-08-02T09:58:15Z</time>
      </trkpt>
      <trkpt lat="45.92574" lon="4.68639">
        <ele>374</ele>
        <time>2018-08-02T09:58:16Z</time>
      </trkpt>
      <trkpt lat="45.92582" lon="4.68636">
        <ele>373</ele>
        <time>2018-08-02T09:58:18Z</time>
      </trkpt>
      <trkpt lat="45.92585" lon="4.68633">
        <ele>370</ele>
        <time>2018-08-02T09:58:19Z</time>
      </trkpt>
      <trkpt lat="45.92593" lon="4.68631">
        <ele>370</ele>
        <time>2018-08-02T09:58:23Z</time>
      </trkpt>
      <trkpt lat="45.92595" lon="4.6863">
        <ele>370</ele>
        <time>2018-08-02T09:58:24Z</time>
      </trkpt>
      <trkpt lat="45.926" lon="4.6863">
        <ele>369</ele>
        <time>2018-08-02T09:58:26Z</time>
      </trkpt>
      <trkpt lat="45.92613" lon="4.68627">
        <ele>369</ele>
        <time>2018-08-02T09:58:27Z</time>
      </trkpt>
      <trkpt lat="45.92619" lon="4.68626">
        <ele>369</ele>
        <time>2018-08-02T09:58:29Z</time>
      </trkpt>
      <trkpt lat="45.92626" lon="4.68623">
        <ele>368</ele>
        <time>2018-08-02T09:58:30Z</time>
      </trkpt>
      <trkpt lat="45.92632" lon="4.68621">
        <ele>368</ele>
        <time>2018-08-02T09:58:31Z</time>
      </trkpt>
      <trkpt lat="45.92637" lon="4.68619">
        <ele>368</ele>
        <time>2018-08-02T09:58:32Z</time>
      </trkpt>
      <trkpt lat="45.92645" lon="4.68619">
        <ele>367</ele>
        <time>2018-08-02T09:58:34Z</time>
      </trkpt>
      <trkpt lat="45.92649" lon="4.68617">
        <ele>367</ele>
        <time>2018-08-02T09:58:35Z</time>
      </trkpt>
      <trkpt lat="45.92655" lon="4.68614">
        <ele>367</ele>
        <time>2018-08-02T09:58:36Z</time>
      </trkpt>
      <trkpt lat="45.92663" lon="4.68607">
        <ele>367</ele>
        <time>2018-08-02T09:58:37Z</time>
      </trkpt>
      <trkpt lat="45.92665" lon="4.68607">
        <ele>367</ele>
        <time>2018-08-02T09:58:38Z</time>
      </trkpt>
      <trkpt lat="45.92673" lon="4.68605">
        <ele>364</ele>
        <time>2018-08-02T09:58:39Z</time>
      </trkpt>
      <trkpt lat="45.92677" lon="4.68605">
        <ele>364</ele>
        <time>2018-08-02T09:58:40Z</time>
      </trkpt>
      <trkpt lat="45.92684" lon="4.686">
        <ele>364</ele>
        <time>2018-08-02T09:58:41Z</time>
      </trkpt>
      <trkpt lat="45.92689" lon="4.68595">
        <ele>364</ele>
        <time>2018-08-02T09:58:42Z</time>
      </trkpt>
      <trkpt lat="45.92695" lon="4.68594">
        <ele>364</ele>
        <time>2018-08-02T09:58:43Z</time>
      </trkpt>
      <trkpt lat="45.92701" lon="4.68592">
        <ele>364</ele>
        <time>2018-08-02T09:58:44Z</time>
      </trkpt>
      <trkpt lat="45.92706" lon="4.68589">
        <ele>364</ele>
        <time>2018-08-02T09:58:45Z</time>
      </trkpt>
      <trkpt lat="45.92712" lon="4.68587">
        <ele>364</ele>
        <time>2018-08-02T09:58:46Z</time>
      </trkpt>
      <trkpt lat="45.92717" lon="4.68585">
        <ele>364</ele>
        <time>2018-08-02T09:58:47Z</time>
      </trkpt>
      <trkpt lat="45.92724" lon="4.68584">
        <ele>364</ele>
        <time>2018-08-02T09:58:49Z</time>
      </trkpt>
      <trkpt lat="45.92731" lon="4.68579">
        <ele>366</ele>
        <time>2018-08-02T09:58:50Z</time>
      </trkpt>
      <trkpt lat="45.92738" lon="4.68579">
        <ele>366</ele>
        <time>2018-08-02T09:58:52Z</time>
      </trkpt>
      <trkpt lat="45.92744" lon="4.68579">
        <ele>366</ele>
        <time>2018-08-02T09:58:53Z</time>
      </trkpt>
      <trkpt lat="45.92749" lon="4.68578">
        <ele>366</ele>
        <time>2018-08-02T09:58:54Z</time>
      </trkpt>
      <trkpt lat="45.92755" lon="4.68576">
        <ele>366</ele>
        <time>2018-08-02T09:58:55Z</time>
      </trkpt>
      <trkpt lat="45.92763" lon="4.68572">
        <ele>365</ele>
        <time>2018-08-02T09:58:56Z</time>
      </trkpt>
      <trkpt lat="45.92767" lon="4.68574">
        <ele>365</ele>
        <time>2018-08-02T09:58:57Z</time>
      </trkpt>
      <trkpt lat="45.92773" lon="4.68576">
        <ele>365</ele>
        <time>2018-08-02T09:58:58Z</time>
      </trkpt>
      <trkpt lat="45.92777" lon="4.68578">
        <ele>365</ele>
        <time>2018-08-02T09:58:59Z</time>
      </trkpt>
      <trkpt lat="45.92784" lon="4.68577">
        <ele>365</ele>
        <time>2018-08-02T09:59:00Z</time>
      </trkpt>
      <trkpt lat="45.92791" lon="4.68574">
        <ele>364</ele>
        <time>2018-08-02T09:59:01Z</time>
      </trkpt>
      <trkpt lat="45.92797" lon="4.68575">
        <ele>364</ele>
        <time>2018-08-02T09:59:02Z</time>
      </trkpt>
      <trkpt lat="45.92802" lon="4.68576">
        <ele>364</ele>
        <time>2018-08-02T09:59:03Z</time>
      </trkpt>
      <trkpt lat="45.92807" lon="4.68579">
        <ele>364</ele>
        <time>2018-08-02T09:59:04Z</time>
      </trkpt>
      <trkpt lat="45.92812" lon="4.68579">
        <ele>363</ele>
        <time>2018-08-02T09:59:05Z</time>
      </trkpt>
      <trkpt lat="45.92818" lon="4.6858">
        <ele>363</ele>
        <time>2018-08-02T09:59:06Z</time>
      </trkpt>
      <trkpt lat="45.92824" lon="4.68582">
        <ele>362</ele>
        <time>2018-08-02T09:59:07Z</time>
      </trkpt>
      <trkpt lat="45.9283" lon="4.68583">
        <ele>361</ele>
        <time>2018-08-02T09:59:08Z</time>
      </trkpt>
      <trkpt lat="45.92837" lon="4.68584">
        <ele>361</ele>
        <time>2018-08-02T09:59:09Z</time>
      </trkpt>
      <trkpt lat="45.92842" lon="4.68585">
        <ele>360</ele>
        <time>2018-08-02T09:59:10Z</time>
      </trkpt>
      <trkpt lat="45.92847" lon="4.68586">
        <ele>360</ele>
        <time>2018-08-02T09:59:11Z</time>
      </trkpt>
      <trkpt lat="45.92854" lon="4.68587">
        <ele>359</ele>
        <time>2018-08-02T09:59:12Z</time>
      </trkpt>
      <trkpt lat="45.9286" lon="4.68587">
        <ele>359</ele>
        <time>2018-08-02T09:59:13Z</time>
      </trkpt>
      <trkpt lat="45.92866" lon="4.68588">
        <ele>359</ele>
        <time>2018-08-02T09:59:14Z</time>
      </trkpt>
      <trkpt lat="45.92872" lon="4.68589">
        <ele>359</ele>
        <time>2018-08-02T09:59:15Z</time>
      </trkpt>
      <trkpt lat="45.92878" lon="4.6859">
        <ele>358</ele>
        <time>2018-08-02T09:59:16Z</time>
      </trkpt>
      <trkpt lat="45.92884" lon="4.68591">
        <ele>358</ele>
        <time>2018-08-02T09:59:17Z</time>
      </trkpt>
      <trkpt lat="45.9289" lon="4.68592">
        <ele>358</ele>
        <time>2018-08-02T09:59:18Z</time>
      </trkpt>
      <trkpt lat="45.92896" lon="4.68593">
        <ele>358</ele>
        <time>2018-08-02T09:59:19Z</time>
      </trkpt>
      <trkpt lat="45.92901" lon="4.68594">
        <ele>358</ele>
        <time>2018-08-02T09:59:20Z</time>
      </trkpt>
      <trkpt lat="45.92907" lon="4.68595">
        <ele>358</ele>
        <time>2018-08-02T09:59:21Z</time>
      </trkpt>
      <trkpt lat="45.92913" lon="4.68596">
        <ele>359</ele>
        <time>2018-08-02T09:59:22Z</time>
      </trkpt>
      <trkpt lat="45.92919" lon="4.68598">
        <ele>359</ele>
        <time>2018-08-02T09:59:23Z</time>
      </trkpt>
      <trkpt lat="45.92924" lon="4.68601">
        <ele>359</ele>
        <time>2018-08-02T09:59:24Z</time>
      </trkpt>
      <trkpt lat="45.9293" lon="4.68603">
        <ele>358</ele>
        <time>2018-08-02T09:59:25Z</time>
      </trkpt>
      <trkpt lat="45.92936" lon="4.68604">
        <ele>358</ele>
        <time>2018-08-02T09:59:26Z</time>
      </trkpt>
      <trkpt lat="45.92942" lon="4.68605">
        <ele>358</ele>
        <time>2018-08-02T09:59:27Z</time>
      </trkpt>
      <trkpt lat="45.92951" lon="4.68606">
        <ele>358</ele>
        <time>2018-08-02T09:59:28Z</time>
      </trkpt>
      <trkpt lat="45.92958" lon="4.68606">
        <ele>358</ele>
        <time>2018-08-02T09:59:29Z</time>
      </trkpt>
      <trkpt lat="45.92964" lon="4.68607">
        <ele>358</ele>
        <time>2018-08-02T09:59:30Z</time>
      </trkpt>
      <trkpt lat="45.92971" lon="4.68608">
        <ele>358</ele>
        <time>2018-08-02T09:59:31Z</time>
      </trkpt>
      <trkpt lat="45.92977" lon="4.68608">
        <ele>358</ele>
        <time>2018-08-02T09:59:32Z</time>
      </trkpt>
      <trkpt lat="45.92982" lon="4.68609">
        <ele>358</ele>
        <time>2018-08-02T09:59:33Z</time>
      </trkpt>
      <trkpt lat="45.92988" lon="4.68611">
        <ele>358</ele>
        <time>2018-08-02T09:59:34Z</time>
      </trkpt>
      <trkpt lat="45.92995" lon="4.68611">
        <ele>358</ele>
        <time>2018-08-02T09:59:35Z</time>
      </trkpt>
      <trkpt lat="45.93" lon="4.68613">
        <ele>358</ele>
        <time>2018-08-02T09:59:36Z</time>
      </trkpt>
      <trkpt lat="45.93006" lon="4.68615">
        <ele>356</ele>
        <time>2018-08-02T09:59:37Z</time>
      </trkpt>
      <trkpt lat="45.9301" lon="4.68617">
        <ele>356</ele>
        <time>2018-08-02T09:59:38Z</time>
      </trkpt>
      <trkpt lat="45.93017" lon="4.6862">
        <ele>356</ele>
        <time>2018-08-02T09:59:39Z</time>
      </trkpt>
      <trkpt lat="45.93028" lon="4.68621">
        <ele>356</ele>
        <time>2018-08-02T09:59:40Z</time>
      </trkpt>
      <trkpt lat="45.93034" lon="4.68622">
        <ele>355</ele>
        <time>2018-08-02T09:59:41Z</time>
      </trkpt>
      <trkpt lat="45.93039" lon="4.68622">
        <ele>355</ele>
        <time>2018-08-02T09:59:42Z</time>
      </trkpt>
      <trkpt lat="45.93046" lon="4.68628">
        <ele>355</ele>
        <time>2018-08-02T09:59:44Z</time>
      </trkpt>
      <trkpt lat="45.93051" lon="4.68631">
        <ele>355</ele>
        <time>2018-08-02T09:59:45Z</time>
      </trkpt>
      <trkpt lat="45.93056" lon="4.68633">
        <ele>355</ele>
        <time>2018-08-02T09:59:46Z</time>
      </trkpt>
      <trkpt lat="45.93067" lon="4.68628">
        <ele>354</ele>
        <time>2018-08-02T09:59:47Z</time>
      </trkpt>
      <trkpt lat="45.93075" lon="4.68628">
        <ele>354</ele>
        <time>2018-08-02T09:59:48Z</time>
      </trkpt>
      <trkpt lat="45.93078" lon="4.68631">
        <ele>354</ele>
        <time>2018-08-02T09:59:49Z</time>
      </trkpt>
      <trkpt lat="45.93087" lon="4.68631">
        <ele>349</ele>
        <time>2018-08-02T09:59:50Z</time>
      </trkpt>
      <trkpt lat="45.93092" lon="4.68633">
        <ele>349</ele>
        <time>2018-08-02T09:59:51Z</time>
      </trkpt>
      <trkpt lat="45.931" lon="4.68634">
        <ele>349</ele>
        <time>2018-08-02T09:59:52Z</time>
      </trkpt>
      <trkpt lat="45.93107" lon="4.68634">
        <ele>348</ele>
        <time>2018-08-02T09:59:53Z</time>
      </trkpt>
      <trkpt lat="45.93113" lon="4.68636">
        <ele>348</ele>
        <time>2018-08-02T09:59:54Z</time>
      </trkpt>
      <trkpt lat="45.93121" lon="4.68637">
        <ele>348</ele>
        <time>2018-08-02T09:59:55Z</time>
      </trkpt>
      <trkpt lat="45.9313" lon="4.68641">
        <ele>348</ele>
        <time>2018-08-02T09:59:56Z</time>
      </trkpt>
      <trkpt lat="45.93137" lon="4.68643">
        <ele>347</ele>
        <time>2018-08-02T09:59:57Z</time>
      </trkpt>
      <trkpt lat="45.93146" lon="4.68645">
        <ele>347</ele>
        <time>2018-08-02T09:59:58Z</time>
      </trkpt>
      <trkpt lat="45.93154" lon="4.68648">
        <ele>347</ele>
        <time>2018-08-02T09:59:59Z</time>
      </trkpt>
      <trkpt lat="45.93161" lon="4.6865">
        <ele>347</ele>
        <time>2018-08-02T10:00:00Z</time>
      </trkpt>
      <trkpt lat="45.9317" lon="4.68651">
        <ele>345</ele>
        <time>2018-08-02T10:00:01Z</time>
      </trkpt>
      <trkpt lat="45.93178" lon="4.68654">
        <ele>345</ele>
        <time>2018-08-02T10:00:02Z</time>
      </trkpt>
      <trkpt lat="45.93186" lon="4.68656">
        <ele>345</ele>
        <time>2018-08-02T10:00:03Z</time>
      </trkpt>
      <trkpt lat="45.93196" lon="4.68658">
        <ele>345</ele>
        <time>2018-08-02T10:00:04Z</time>
      </trkpt>
      <trkpt lat="45.93206" lon="4.68657">
        <ele>344</ele>
        <time>2018-08-02T10:00:05Z</time>
      </trkpt>
      <trkpt lat="45.93212" lon="4.68663">
        <ele>344</ele>
        <time>2018-08-02T10:00:06Z</time>
      </trkpt>
      <trkpt lat="45.93218" lon="4.68666">
        <ele>344</ele>
        <time>2018-08-02T10:00:07Z</time>
      </trkpt>
      <trkpt lat="45.93227" lon="4.68669">
        <ele>345</ele>
        <time>2018-08-02T10:00:08Z</time>
      </trkpt>
      <trkpt lat="45.93233" lon="4.68672">
        <ele>345</ele>
        <time>2018-08-02T10:00:09Z</time>
      </trkpt>
      <trkpt lat="45.9324" lon="4.68673">
        <ele>344</ele>
        <time>2018-08-02T10:00:10Z</time>
      </trkpt>
      <trkpt lat="45.93248" lon="4.68674">
        <ele>344</ele>
        <time>2018-08-02T10:00:11Z</time>
      </trkpt>
      <trkpt lat="45.93254" lon="4.68676">
        <ele>344</ele>
        <time>2018-08-02T10:00:12Z</time>
      </trkpt>
      <trkpt lat="45.93261" lon="4.68676">
        <ele>344</ele>
        <time>2018-08-02T10:00:13Z</time>
      </trkpt>
      <trkpt lat="45.93268" lon="4.68677">
        <ele>344</ele>
        <time>2018-08-02T10:00:14Z</time>
      </trkpt>
      <trkpt lat="45.93275" lon="4.68678">
        <ele>344</ele>
        <time>2018-08-02T10:00:15Z</time>
      </trkpt>
      <trkpt lat="45.93283" lon="4.6868">
        <ele>344</ele>
        <time>2018-08-02T10:00:16Z</time>
      </trkpt>
      <trkpt lat="45.93289" lon="4.68681">
        <ele>344</ele>
        <time>2018-08-02T10:00:17Z</time>
      </trkpt>
      <trkpt lat="45.93296" lon="4.68682">
        <ele>344</ele>
        <time>2018-08-02T10:00:18Z</time>
      </trkpt>
      <trkpt lat="45.93301" lon="4.68682">
        <ele>344</ele>
        <time>2018-08-02T10:00:19Z</time>
      </trkpt>
      <trkpt lat="45.93307" lon="4.68682">
        <ele>344</ele>
        <time>2018-08-02T10:00:20Z</time>
      </trkpt>
      <trkpt lat="45.93313" lon="4.68684">
        <ele>344</ele>
        <time>2018-08-02T10:00:21Z</time>
      </trkpt>
      <trkpt lat="45.93318" lon="4.68686">
        <ele>344</ele>
        <time>2018-08-02T10:00:22Z</time>
      </trkpt>
      <trkpt lat="45.93324" lon="4.68687">
        <ele>344</ele>
        <time>2018-08-02T10:00:23Z</time>
      </trkpt>
      <trkpt lat="45.9333" lon="4.68689">
        <ele>344</ele>
        <time>2018-08-02T10:00:24Z</time>
      </trkpt>
      <trkpt lat="45.93336" lon="4.6869">
        <ele>344</ele>
        <time>2018-08-02T10:00:25Z</time>
      </trkpt>
      <trkpt lat="45.93341" lon="4.68692">
        <ele>344</ele>
        <time>2018-08-02T10:00:26Z</time>
      </trkpt>
      <trkpt lat="45.93347" lon="4.68692">
        <ele>344</ele>
        <time>2018-08-02T10:00:27Z</time>
      </trkpt>
      <trkpt lat="45.93353" lon="4.68693">
        <ele>344</ele>
        <time>2018-08-02T10:00:28Z</time>
      </trkpt>
      <trkpt lat="45.93359" lon="4.68695">
        <ele>344</ele>
        <time>2018-08-02T10:00:29Z</time>
      </trkpt>
      <trkpt lat="45.93366" lon="4.68697">
        <ele>344</ele>
        <time>2018-08-02T10:00:30Z</time>
      </trkpt>
      <trkpt lat="45.93372" lon="4.68698">
        <ele>344</ele>
        <time>2018-08-02T10:00:31Z</time>
      </trkpt>
      <trkpt lat="45.93378" lon="4.68701">
        <ele>344</ele>
        <time>2018-08-02T10:00:32Z</time>
      </trkpt>
      <trkpt lat="45.93385" lon="4.68702">
        <ele>344</ele>
        <time>2018-08-02T10:00:33Z</time>
      </trkpt>
      <trkpt lat="45.93391" lon="4.68704">
        <ele>344</ele>
        <time>2018-08-02T10:00:34Z</time>
      </trkpt>
      <trkpt lat="45.93396" lon="4.68704">
        <ele>344</ele>
        <time>2018-08-02T10:00:35Z</time>
      </trkpt>
      <trkpt lat="45.93402" lon="4.68705">
        <ele>344</ele>
        <time>2018-08-02T10:00:36Z</time>
      </trkpt>
      <trkpt lat="45.93406" lon="4.68707">
        <ele>344</ele>
        <time>2018-08-02T10:00:37Z</time>
      </trkpt>
      <trkpt lat="45.93412" lon="4.68708">
        <ele>344</ele>
        <time>2018-08-02T10:00:38Z</time>
      </trkpt>
      <trkpt lat="45.93417" lon="4.6871">
        <ele>343</ele>
        <time>2018-08-02T10:00:39Z</time>
      </trkpt>
      <trkpt lat="45.93423" lon="4.68712">
        <ele>343</ele>
        <time>2018-08-02T10:00:40Z</time>
      </trkpt>
      <trkpt lat="45.93428" lon="4.68712">
        <ele>343</ele>
        <time>2018-08-02T10:00:41Z</time>
      </trkpt>
      <trkpt lat="45.93434" lon="4.68714">
        <ele>343</ele>
        <time>2018-08-02T10:00:42Z</time>
      </trkpt>
      <trkpt lat="45.93439" lon="4.68716">
        <ele>343</ele>
        <time>2018-08-02T10:00:43Z</time>
      </trkpt>
      <trkpt lat="45.93444" lon="4.68717">
        <ele>343</ele>
        <time>2018-08-02T10:00:44Z</time>
      </trkpt>
      <trkpt lat="45.93451" lon="4.68719">
        <ele>342</ele>
        <time>2018-08-02T10:00:45Z</time>
      </trkpt>
      <trkpt lat="45.93456" lon="4.6872">
        <ele>342</ele>
        <time>2018-08-02T10:00:46Z</time>
      </trkpt>
      <trkpt lat="45.93462" lon="4.68721">
        <ele>342</ele>
        <time>2018-08-02T10:00:47Z</time>
      </trkpt>
      <trkpt lat="45.93468" lon="4.68722">
        <ele>342</ele>
        <time>2018-08-02T10:00:48Z</time>
      </trkpt>
      <trkpt lat="45.93473" lon="4.68723">
        <ele>342</ele>
        <time>2018-08-02T10:00:49Z</time>
      </trkpt>
      <trkpt lat="45.93479" lon="4.68723">
        <ele>342</ele>
        <time>2018-08-02T10:00:50Z</time>
      </trkpt>
      <trkpt lat="45.93483" lon="4.68723">
        <ele>342</ele>
        <time>2018-08-02T10:00:51Z</time>
      </trkpt>
      <trkpt lat="45.93488" lon="4.68724">
        <ele>342</ele>
        <time>2018-08-02T10:00:52Z</time>
      </trkpt>
      <trkpt lat="45.93494" lon="4.68725">
        <ele>342</ele>
        <time>2018-08-02T10:00:53Z</time>
      </trkpt>
      <trkpt lat="45.93499" lon="4.68726">
        <ele>342</ele>
        <time>2018-08-02T10:00:54Z</time>
      </trkpt>
      <trkpt lat="45.93504" lon="4.68728">
        <ele>342</ele>
        <time>2018-08-02T10:00:55Z</time>
      </trkpt>
      <trkpt lat="45.93509" lon="4.68728">
        <ele>342</ele>
        <time>2018-08-02T10:00:56Z</time>
      </trkpt>
      <trkpt lat="45.93513" lon="4.68731">
        <ele>342</ele>
        <time>2018-08-02T10:00:57Z</time>
      </trkpt>
      <trkpt lat="45.93518" lon="4.68732">
        <ele>342</ele>
        <time>2018-08-02T10:00:58Z</time>
      </trkpt>
      <trkpt lat="45.93523" lon="4.68734">
        <ele>342</ele>
        <time>2018-08-02T10:00:59Z</time>
      </trkpt>
      <trkpt lat="45.93529" lon="4.68735">
        <ele>342</ele>
        <time>2018-08-02T10:01:00Z</time>
      </trkpt>
      <trkpt lat="45.93535" lon="4.68735">
        <ele>342</ele>
        <time>2018-08-02T10:01:01Z</time>
      </trkpt>
      <trkpt lat="45.9354" lon="4.68736">
        <ele>342</ele>
        <time>2018-08-02T10:01:02Z</time>
      </trkpt>
      <trkpt lat="45.93544" lon="4.68738">
        <ele>342</ele>
        <time>2018-08-02T10:01:03Z</time>
      </trkpt>
      <trkpt lat="45.93551" lon="4.68741">
        <ele>342</ele>
        <time>2018-08-02T10:01:04Z</time>
      </trkpt>
      <trkpt lat="45.93555" lon="4.6874">
        <ele>342</ele>
        <time>2018-08-02T10:01:05Z</time>
      </trkpt>
      <trkpt lat="45.9356" lon="4.68741">
        <ele>342</ele>
        <time>2018-08-02T10:01:06Z</time>
      </trkpt>
      <trkpt lat="45.93566" lon="4.68744">
        <ele>343</ele>
        <time>2018-08-02T10:01:07Z</time>
      </trkpt>
      <trkpt lat="45.93572" lon="4.68746">
        <ele>343</ele>
        <time>2018-08-02T10:01:08Z</time>
      </trkpt>
      <trkpt lat="45.93576" lon="4.68748">
        <ele>343</ele>
        <time>2018-08-02T10:01:09Z</time>
      </trkpt>
      <trkpt lat="45.9358" lon="4.68749">
        <ele>344</ele>
        <time>2018-08-02T10:01:10Z</time>
      </trkpt>
      <trkpt lat="45.93585" lon="4.68748">
        <ele>344</ele>
        <time>2018-08-02T10:01:11Z</time>
      </trkpt>
      <trkpt lat="45.9359" lon="4.6875">
        <ele>343</ele>
        <time>2018-08-02T10:01:12Z</time>
      </trkpt>
      <trkpt lat="45.93595" lon="4.68751">
        <ele>344</ele>
        <time>2018-08-02T10:01:13Z</time>
      </trkpt>
      <trkpt lat="45.936" lon="4.68752">
        <ele>344</ele>
        <time>2018-08-02T10:01:14Z</time>
      </trkpt>
      <trkpt lat="45.93605" lon="4.68754">
        <ele>344</ele>
        <time>2018-08-02T10:01:15Z</time>
      </trkpt>
      <trkpt lat="45.9361" lon="4.68756">
        <ele>344</ele>
        <time>2018-08-02T10:01:16Z</time>
      </trkpt>
      <trkpt lat="45.93616" lon="4.68756">
        <ele>343</ele>
        <time>2018-08-02T10:01:17Z</time>
      </trkpt>
      <trkpt lat="45.93623" lon="4.68757">
        <ele>343</ele>
        <time>2018-08-02T10:01:18Z</time>
      </trkpt>
      <trkpt lat="45.93626" lon="4.68761">
        <ele>343</ele>
        <time>2018-08-02T10:01:19Z</time>
      </trkpt>
      <trkpt lat="45.93631" lon="4.68761">
        <ele>343</ele>
        <time>2018-08-02T10:01:20Z</time>
      </trkpt>
      <trkpt lat="45.93637" lon="4.68763">
        <ele>343</ele>
        <time>2018-08-02T10:01:21Z</time>
      </trkpt>
      <trkpt lat="45.93643" lon="4.68764">
        <ele>343</ele>
        <time>2018-08-02T10:01:22Z</time>
      </trkpt>
      <trkpt lat="45.93649" lon="4.68767">
        <ele>343</ele>
        <time>2018-08-02T10:01:23Z</time>
      </trkpt>
      <trkpt lat="45.93654" lon="4.68769">
        <ele>343</ele>
        <time>2018-08-02T10:01:24Z</time>
      </trkpt>
      <trkpt lat="45.93659" lon="4.6877">
        <ele>343</ele>
        <time>2018-08-02T10:01:25Z</time>
      </trkpt>
      <trkpt lat="45.93667" lon="4.68773">
        <ele>342</ele>
        <time>2018-08-02T10:01:27Z</time>
      </trkpt>
      <trkpt lat="45.93672" lon="4.68774">
        <ele>342</ele>
        <time>2018-08-02T10:01:28Z</time>
      </trkpt>
      <trkpt lat="45.9368" lon="4.68776">
        <ele>342</ele>
        <time>2018-08-02T10:01:30Z</time>
      </trkpt>
      <trkpt lat="45.93683" lon="4.68777">
        <ele>342</ele>
        <time>2018-08-02T10:01:31Z</time>
      </trkpt>
      <trkpt lat="45.93688" lon="4.6878">
        <ele>342</ele>
        <time>2018-08-02T10:01:32Z</time>
      </trkpt>
      <trkpt lat="45.93694" lon="4.68779">
        <ele>342</ele>
        <time>2018-08-02T10:01:33Z</time>
      </trkpt>
      <trkpt lat="45.93699" lon="4.68781">
        <ele>342</ele>
        <time>2018-08-02T10:01:34Z</time>
      </trkpt>
      <trkpt lat="45.93705" lon="4.68782">
        <ele>342</ele>
        <time>2018-08-02T10:01:35Z</time>
      </trkpt>
      <trkpt lat="45.93711" lon="4.68783">
        <ele>342</ele>
        <time>2018-08-02T10:01:36Z</time>
      </trkpt>
      <trkpt lat="45.93717" lon="4.68783">
        <ele>342</ele>
        <time>2018-08-02T10:01:37Z</time>
      </trkpt>
      <trkpt lat="45.93723" lon="4.68784">
        <ele>342</ele>
        <time>2018-08-02T10:01:38Z</time>
      </trkpt>
      <trkpt lat="45.9373" lon="4.68783">
        <ele>342</ele>
        <time>2018-08-02T10:01:39Z</time>
      </trkpt>
      <trkpt lat="45.93737" lon="4.68785">
        <ele>342</ele>
        <time>2018-08-02T10:01:40Z</time>
      </trkpt>
      <trkpt lat="45.93743" lon="4.68786">
        <ele>342</ele>
        <time>2018-08-02T10:01:41Z</time>
      </trkpt>
      <trkpt lat="45.93748" lon="4.68789">
        <ele>342</ele>
        <time>2018-08-02T10:01:42Z</time>
      </trkpt>
      <trkpt lat="45.93754" lon="4.68791">
        <ele>341</ele>
        <time>2018-08-02T10:01:43Z</time>
      </trkpt>
      <trkpt lat="45.9376" lon="4.68793">
        <ele>341</ele>
        <time>2018-08-02T10:01:44Z</time>
      </trkpt>
      <trkpt lat="45.93766" lon="4.68792">
        <ele>341</ele>
        <time>2018-08-02T10:01:45Z</time>
      </trkpt>
      <trkpt lat="45.93774" lon="4.68796">
        <ele>341</ele>
        <time>2018-08-02T10:01:47Z</time>
      </trkpt>
      <trkpt lat="45.93779" lon="4.68798">
        <ele>341</ele>
        <time>2018-08-02T10:01:48Z</time>
      </trkpt>
      <trkpt lat="45.93784" lon="4.688">
        <ele>341</ele>
        <time>2018-08-02T10:01:49Z</time>
      </trkpt>
      <trkpt lat="45.9379" lon="4.68803">
        <ele>341</ele>
        <time>2018-08-02T10:01:50Z</time>
      </trkpt>
      <trkpt lat="45.93796" lon="4.68805">
        <ele>341</ele>
        <time>2018-08-02T10:01:51Z</time>
      </trkpt>
      <trkpt lat="45.938" lon="4.6881">
        <ele>341</ele>
        <time>2018-08-02T10:01:52Z</time>
      </trkpt>
      <trkpt lat="45.93805" lon="4.68813">
        <ele>341</ele>
        <time>2018-08-02T10:01:53Z</time>
      </trkpt>
      <trkpt lat="45.93808" lon="4.68819">
        <ele>341</ele>
        <time>2018-08-02T10:01:54Z</time>
      </trkpt>
      <trkpt lat="45.93814" lon="4.68821">
        <ele>341</ele>
        <time>2018-08-02T10:01:55Z</time>
      </trkpt>
      <trkpt lat="45.93819" lon="4.68826">
        <ele>341</ele>
        <time>2018-08-02T10:01:56Z</time>
      </trkpt>
      <trkpt lat="45.93826" lon="4.68827">
        <ele>342</ele>
        <time>2018-08-02T10:01:57Z</time>
      </trkpt>
      <trkpt lat="45.9383" lon="4.68833">
        <ele>342</ele>
        <time>2018-08-02T10:01:58Z</time>
      </trkpt>
      <trkpt lat="45.93835" lon="4.68839">
        <ele>342</ele>
        <time>2018-08-02T10:01:59Z</time>
      </trkpt>
      <trkpt lat="45.93839" lon="4.68843">
        <ele>342</ele>
        <time>2018-08-02T10:02:00Z</time>
      </trkpt>
      <trkpt lat="45.93845" lon="4.68845">
        <ele>342</ele>
        <time>2018-08-02T10:02:01Z</time>
      </trkpt>
      <trkpt lat="45.9385" lon="4.68848">
        <ele>342</ele>
        <time>2018-08-02T10:02:02Z</time>
      </trkpt>
      <trkpt lat="45.93854" lon="4.68853">
        <ele>342</ele>
        <time>2018-08-02T10:02:03Z</time>
      </trkpt>
      <trkpt lat="45.93859" lon="4.68856">
        <ele>342</ele>
        <time>2018-08-02T10:02:04Z</time>
      </trkpt>
      <trkpt lat="45.93864" lon="4.68859">
        <ele>342</ele>
        <time>2018-08-02T10:02:05Z</time>
      </trkpt>
      <trkpt lat="45.93869" lon="4.68863">
        <ele>342</ele>
        <time>2018-08-02T10:02:06Z</time>
      </trkpt>
      <trkpt lat="45.93873" lon="4.68867">
        <ele>342</ele>
        <time>2018-08-02T10:02:07Z</time>
      </trkpt>
      <trkpt lat="45.93879" lon="4.6887">
        <ele>343</ele>
        <time>2018-08-02T10:02:08Z</time>
      </trkpt>
      <trkpt lat="45.93883" lon="4.68874">
        <ele>343</ele>
        <time>2018-08-02T10:02:09Z</time>
      </trkpt>
      <trkpt lat="45.93888" lon="4.68877">
        <ele>342</ele>
        <time>2018-08-02T10:02:10Z</time>
      </trkpt>
      <trkpt lat="45.93895" lon="4.6888">
        <ele>342</ele>
        <time>2018-08-02T10:02:11Z</time>
      </trkpt>
      <trkpt lat="45.93899" lon="4.68883">
        <ele>342</ele>
        <time>2018-08-02T10:02:12Z</time>
      </trkpt>
      <trkpt lat="45.93904" lon="4.68886">
        <ele>342</ele>
        <time>2018-08-02T10:02:13Z</time>
      </trkpt>
      <trkpt lat="45.93909" lon="4.68889">
        <ele>342</ele>
        <time>2018-08-02T10:02:14Z</time>
      </trkpt>
      <trkpt lat="45.93914" lon="4.68889">
        <ele>342</ele>
        <time>2018-08-02T10:02:15Z</time>
      </trkpt>
      <trkpt lat="45.93919" lon="4.68891">
        <ele>342</ele>
        <time>2018-08-02T10:02:16Z</time>
      </trkpt>
      <trkpt lat="45.93924" lon="4.68893">
        <ele>342</ele>
        <time>2018-08-02T10:02:17Z</time>
      </trkpt>
      <trkpt lat="45.9393" lon="4.68893">
        <ele>342</ele>
        <time>2018-08-02T10:02:18Z</time>
      </trkpt>
      <trkpt lat="45.93935" lon="4.68894">
        <ele>342</ele>
        <time>2018-08-02T10:02:19Z</time>
      </trkpt>
      <trkpt lat="45.93941" lon="4.68894">
        <ele>342</ele>
        <time>2018-08-02T10:02:20Z</time>
      </trkpt>
      <trkpt lat="45.93946" lon="4.68896">
        <ele>342</ele>
        <time>2018-08-02T10:02:21Z</time>
      </trkpt>
      <trkpt lat="45.93951" lon="4.68896">
        <ele>342</ele>
        <time>2018-08-02T10:02:22Z</time>
      </trkpt>
      <trkpt lat="45.93956" lon="4.68898">
        <ele>342</ele>
        <time>2018-08-02T10:02:23Z</time>
      </trkpt>
      <trkpt lat="45.93962" lon="4.68899">
        <ele>342</ele>
        <time>2018-08-02T10:02:24Z</time>
      </trkpt>
      <trkpt lat="45.93967" lon="4.689">
        <ele>342</ele>
        <time>2018-08-02T10:02:25Z</time>
      </trkpt>
      <trkpt lat="45.93973" lon="4.68901">
        <ele>342</ele>
        <time>2018-08-02T10:02:26Z</time>
      </trkpt>
      <trkpt lat="45.93979" lon="4.68904">
        <ele>342</ele>
        <time>2018-08-02T10:02:27Z</time>
      </trkpt>
      <trkpt lat="45.93985" lon="4.68906">
        <ele>342</ele>
        <time>2018-08-02T10:02:28Z</time>
      </trkpt>
      <trkpt lat="45.93991" lon="4.68908">
        <ele>342</ele>
        <time>2018-08-02T10:02:29Z</time>
      </trkpt>
      <trkpt lat="45.93997" lon="4.6891">
        <ele>342</ele>
        <time>2018-08-02T10:02:30Z</time>
      </trkpt>
      <trkpt lat="45.94002" lon="4.68913">
        <ele>342</ele>
        <time>2018-08-02T10:02:31Z</time>
      </trkpt>
      <trkpt lat="45.94007" lon="4.68915">
        <ele>341</ele>
        <time>2018-08-02T10:02:32Z</time>
      </trkpt>
      <trkpt lat="45.94014" lon="4.68917">
        <ele>341</ele>
        <time>2018-08-02T10:02:33Z</time>
      </trkpt>
      <trkpt lat="45.94019" lon="4.68919">
        <ele>341</ele>
        <time>2018-08-02T10:02:34Z</time>
      </trkpt>
      <trkpt lat="45.94023" lon="4.68921">
        <ele>341</ele>
        <time>2018-08-02T10:02:35Z</time>
      </trkpt>
      <trkpt lat="45.94029" lon="4.68923">
        <ele>341</ele>
        <time>2018-08-02T10:02:36Z</time>
      </trkpt>
      <trkpt lat="45.94034" lon="4.68927">
        <ele>341</ele>
        <time>2018-08-02T10:02:37Z</time>
      </trkpt>
      <trkpt lat="45.9404" lon="4.6893">
        <ele>341</ele>
        <time>2018-08-02T10:02:38Z</time>
      </trkpt>
      <trkpt lat="45.94046" lon="4.68932">
        <ele>341</ele>
        <time>2018-08-02T10:02:39Z</time>
      </trkpt>
      <trkpt lat="45.94051" lon="4.68935">
        <ele>341</ele>
        <time>2018-08-02T10:02:40Z</time>
      </trkpt>
      <trkpt lat="45.94056" lon="4.68939">
        <ele>341</ele>
        <time>2018-08-02T10:02:41Z</time>
      </trkpt>
      <trkpt lat="45.94062" lon="4.68943">
        <ele>341</ele>
        <time>2018-08-02T10:02:42Z</time>
      </trkpt>
      <trkpt lat="45.94067" lon="4.68946">
        <ele>341</ele>
        <time>2018-08-02T10:02:43Z</time>
      </trkpt>
      <trkpt lat="45.94074" lon="4.68948">
        <ele>341</ele>
        <time>2018-08-02T10:02:44Z</time>
      </trkpt>
      <trkpt lat="45.94079" lon="4.6895">
        <ele>341</ele>
        <time>2018-08-02T10:02:45Z</time>
      </trkpt>
      <trkpt lat="45.94085" lon="4.68948">
        <ele>340</ele>
        <time>2018-08-02T10:02:46Z</time>
      </trkpt>
      <trkpt lat="45.94091" lon="4.68949">
        <ele>340</ele>
        <time>2018-08-02T10:02:47Z</time>
      </trkpt>
      <trkpt lat="45.94098" lon="4.68949">
        <ele>340</ele>
        <time>2018-08-02T10:02:48Z</time>
      </trkpt>
      <trkpt lat="45.94104" lon="4.68952">
        <ele>340</ele>
        <time>2018-08-02T10:02:49Z</time>
      </trkpt>
      <trkpt lat="45.9411" lon="4.68955">
        <ele>340</ele>
        <time>2018-08-02T10:02:50Z</time>
      </trkpt>
      <trkpt lat="45.94116" lon="4.68957">
        <ele>340</ele>
        <time>2018-08-02T10:02:51Z</time>
      </trkpt>
      <trkpt lat="45.94123" lon="4.68959">
        <ele>340</ele>
        <time>2018-08-02T10:02:52Z</time>
      </trkpt>
      <trkpt lat="45.94129" lon="4.68961">
        <ele>340</ele>
        <time>2018-08-02T10:02:53Z</time>
      </trkpt>
      <trkpt lat="45.94135" lon="4.68964">
        <ele>340</ele>
        <time>2018-08-02T10:02:54Z</time>
      </trkpt>
      <trkpt lat="45.94141" lon="4.68967">
        <ele>340</ele>
        <time>2018-08-02T10:02:55Z</time>
      </trkpt>
      <trkpt lat="45.94147" lon="4.68969">
        <ele>340</ele>
        <time>2018-08-02T10:02:56Z</time>
      </trkpt>
      <trkpt lat="45.94153" lon="4.68971">
        <ele>340</ele>
        <time>2018-08-02T10:02:57Z</time>
      </trkpt>
      <trkpt lat="45.9416" lon="4.68972">
        <ele>340</ele>
        <time>2018-08-02T10:02:58Z</time>
      </trkpt>
      <trkpt lat="45.94167" lon="4.68973">
        <ele>340</ele>
        <time>2018-08-02T10:02:59Z</time>
      </trkpt>
      <trkpt lat="45.94171" lon="4.68976">
        <ele>339</ele>
        <time>2018-08-02T10:03:00Z</time>
      </trkpt>
      <trkpt lat="45.94177" lon="4.68977">
        <ele>339</ele>
        <time>2018-08-02T10:03:01Z</time>
      </trkpt>
      <trkpt lat="45.94183" lon="4.68979">
        <ele>338</ele>
        <time>2018-08-02T10:03:02Z</time>
      </trkpt>
      <trkpt lat="45.94188" lon="4.68982">
        <ele>338</ele>
        <time>2018-08-02T10:03:03Z</time>
      </trkpt>
      <trkpt lat="45.94195" lon="4.68984">
        <ele>338</ele>
        <time>2018-08-02T10:03:04Z</time>
      </trkpt>
      <trkpt lat="45.94201" lon="4.68988">
        <ele>338</ele>
        <time>2018-08-02T10:03:05Z</time>
      </trkpt>
      <trkpt lat="45.94208" lon="4.68987">
        <ele>338</ele>
        <time>2018-08-02T10:03:06Z</time>
      </trkpt>
      <trkpt lat="45.94213" lon="4.68988">
        <ele>338</ele>
        <time>2018-08-02T10:03:07Z</time>
      </trkpt>
      <trkpt lat="45.94219" lon="4.68989">
        <ele>338</ele>
        <time>2018-08-02T10:03:08Z</time>
      </trkpt>
      <trkpt lat="45.94226" lon="4.6899">
        <ele>338</ele>
        <time>2018-08-02T10:03:09Z</time>
      </trkpt>
      <trkpt lat="45.94231" lon="4.68992">
        <ele>338</ele>
        <time>2018-08-02T10:03:10Z</time>
      </trkpt>
      <trkpt lat="45.94237" lon="4.68992">
        <ele>338</ele>
        <time>2018-08-02T10:03:11Z</time>
      </trkpt>
      <trkpt lat="45.94244" lon="4.68993">
        <ele>338</ele>
        <time>2018-08-02T10:03:12Z</time>
      </trkpt>
      <trkpt lat="45.9425" lon="4.68994">
        <ele>338</ele>
        <time>2018-08-02T10:03:13Z</time>
      </trkpt>
      <trkpt lat="45.94255" lon="4.68996">
        <ele>338</ele>
        <time>2018-08-02T10:03:14Z</time>
      </trkpt>
      <trkpt lat="45.9426" lon="4.68997">
        <ele>337</ele>
        <time>2018-08-02T10:03:15Z</time>
      </trkpt>
      <trkpt lat="45.94265" lon="4.68999">
        <ele>337</ele>
        <time>2018-08-02T10:03:16Z</time>
      </trkpt>
      <trkpt lat="45.9427" lon="4.69">
        <ele>337</ele>
        <time>2018-08-02T10:03:17Z</time>
      </trkpt>
      <trkpt lat="45.94275" lon="4.69001">
        <ele>337</ele>
        <time>2018-08-02T10:03:18Z</time>
      </trkpt>
      <trkpt lat="45.9428" lon="4.69002">
        <ele>337</ele>
        <time>2018-08-02T10:03:19Z</time>
      </trkpt>
      <trkpt lat="45.94284" lon="4.69002">
        <ele>337</ele>
        <time>2018-08-02T10:03:20Z</time>
      </trkpt>
      <trkpt lat="45.9429" lon="4.69004">
        <ele>337</ele>
        <time>2018-08-02T10:03:21Z</time>
      </trkpt>
      <trkpt lat="45.94294" lon="4.69004">
        <ele>337</ele>
        <time>2018-08-02T10:03:22Z</time>
      </trkpt>
      <trkpt lat="45.943" lon="4.69005">
        <ele>337</ele>
        <time>2018-08-02T10:03:23Z</time>
      </trkpt>
      <trkpt lat="45.94305" lon="4.69006">
        <ele>337</ele>
        <time>2018-08-02T10:03:24Z</time>
      </trkpt>
      <trkpt lat="45.94309" lon="4.69007">
        <ele>337</ele>
        <time>2018-08-02T10:03:25Z</time>
      </trkpt>
      <trkpt lat="45.94314" lon="4.69007">
        <ele>337</ele>
        <time>2018-08-02T10:03:26Z</time>
      </trkpt>
      <trkpt lat="45.94319" lon="4.69007">
        <ele>337</ele>
        <time>2018-08-02T10:03:27Z</time>
      </trkpt>
      <trkpt lat="45.94325" lon="4.69008">
        <ele>337</ele>
        <time>2018-08-02T10:03:28Z</time>
      </trkpt>
      <trkpt lat="45.9433" lon="4.69008">
        <ele>337</ele>
        <time>2018-08-02T10:03:29Z</time>
      </trkpt>
      <trkpt lat="45.94336" lon="4.69008">
        <ele>337</ele>
        <time>2018-08-02T10:03:30Z</time>
      </trkpt>
      <trkpt lat="45.94341" lon="4.69009">
        <ele>337</ele>
        <time>2018-08-02T10:03:31Z</time>
      </trkpt>
      <trkpt lat="45.94346" lon="4.69008">
        <ele>338</ele>
        <time>2018-08-02T10:03:32Z</time>
      </trkpt>
      <trkpt lat="45.94351" lon="4.69009">
        <ele>338</ele>
        <time>2018-08-02T10:03:33Z</time>
      </trkpt>
      <trkpt lat="45.94356" lon="4.6901">
        <ele>338</ele>
        <time>2018-08-02T10:03:34Z</time>
      </trkpt>
      <trkpt lat="45.9436" lon="4.6901">
        <ele>338</ele>
        <time>2018-08-02T10:03:35Z</time>
      </trkpt>
      <trkpt lat="45.94365" lon="4.69011">
        <ele>338</ele>
        <time>2018-08-02T10:03:36Z</time>
      </trkpt>
      <trkpt lat="45.9437" lon="4.69012">
        <ele>338</ele>
        <time>2018-08-02T10:03:37Z</time>
      </trkpt>
      <trkpt lat="45.94374" lon="4.69013">
        <ele>338</ele>
        <time>2018-08-02T10:03:38Z</time>
      </trkpt>
      <trkpt lat="45.94379" lon="4.69014">
        <ele>338</ele>
        <time>2018-08-02T10:03:39Z</time>
      </trkpt>
      <trkpt lat="45.94384" lon="4.69013">
        <ele>338</ele>
        <time>2018-08-02T10:03:40Z</time>
      </trkpt>
      <trkpt lat="45.94388" lon="4.69014">
        <ele>338</ele>
        <time>2018-08-02T10:03:41Z</time>
      </trkpt>
      <trkpt lat="45.94393" lon="4.69012">
        <ele>338</ele>
        <time>2018-08-02T10:03:42Z</time>
      </trkpt>
      <trkpt lat="45.94398" lon="4.69011">
        <ele>339</ele>
        <time>2018-08-02T10:03:43Z</time>
      </trkpt>
      <trkpt lat="45.94403" lon="4.69011">
        <ele>339</ele>
        <time>2018-08-02T10:03:44Z</time>
      </trkpt>
      <trkpt lat="45.94407" lon="4.6901">
        <ele>339</ele>
        <time>2018-08-02T10:03:45Z</time>
      </trkpt>
      <trkpt lat="45.94413" lon="4.69009">
        <ele>339</ele>
        <time>2018-08-02T10:03:46Z</time>
      </trkpt>
      <trkpt lat="45.94417" lon="4.69009">
        <ele>340</ele>
        <time>2018-08-02T10:03:47Z</time>
      </trkpt>
      <trkpt lat="45.94422" lon="4.69009">
        <ele>340</ele>
        <time>2018-08-02T10:03:48Z</time>
      </trkpt>
      <trkpt lat="45.94426" lon="4.69008">
        <ele>340</ele>
        <time>2018-08-02T10:03:49Z</time>
      </trkpt>
      <trkpt lat="45.94431" lon="4.69007">
        <ele>340</ele>
        <time>2018-08-02T10:03:50Z</time>
      </trkpt>
      <trkpt lat="45.9444" lon="4.69007">
        <ele>340</ele>
        <time>2018-08-02T10:03:52Z</time>
      </trkpt>
      <trkpt lat="45.94445" lon="4.69006">
        <ele>340</ele>
        <time>2018-08-02T10:03:53Z</time>
      </trkpt>
      <trkpt lat="45.94453" lon="4.69008">
        <ele>340</ele>
        <time>2018-08-02T10:03:55Z</time>
      </trkpt>
      <trkpt lat="45.94458" lon="4.69007">
        <ele>340</ele>
        <time>2018-08-02T10:03:56Z</time>
      </trkpt>
      <trkpt lat="45.94463" lon="4.69008">
        <ele>341</ele>
        <time>2018-08-02T10:03:57Z</time>
      </trkpt>
      <trkpt lat="45.94467" lon="4.69009">
        <ele>341</ele>
        <time>2018-08-02T10:03:58Z</time>
      </trkpt>
      <trkpt lat="45.94472" lon="4.6901">
        <ele>341</ele>
        <time>2018-08-02T10:03:59Z</time>
      </trkpt>
      <trkpt lat="45.94477" lon="4.69011">
        <ele>341</ele>
        <time>2018-08-02T10:04:00Z</time>
      </trkpt>
      <trkpt lat="45.94482" lon="4.6901">
        <ele>341</ele>
        <time>2018-08-02T10:04:01Z</time>
      </trkpt>
      <trkpt lat="45.94487" lon="4.69011">
        <ele>341</ele>
        <time>2018-08-02T10:04:02Z</time>
      </trkpt>
      <trkpt lat="45.94492" lon="4.69012">
        <ele>341</ele>
        <time>2018-08-02T10:04:03Z</time>
      </trkpt>
      <trkpt lat="45.94497" lon="4.69014">
        <ele>341</ele>
        <time>2018-08-02T10:04:04Z</time>
      </trkpt>
      <trkpt lat="45.94502" lon="4.69015">
        <ele>341</ele>
        <time>2018-08-02T10:04:05Z</time>
      </trkpt>
      <trkpt lat="45.94506" lon="4.69016">
        <ele>342</ele>
        <time>2018-08-02T10:04:06Z</time>
      </trkpt>
      <trkpt lat="45.94512" lon="4.69017">
        <ele>342</ele>
        <time>2018-08-02T10:04:07Z</time>
      </trkpt>
      <trkpt lat="45.94517" lon="4.69018">
        <ele>342</ele>
        <time>2018-08-02T10:04:08Z</time>
      </trkpt>
      <trkpt lat="45.94522" lon="4.69019">
        <ele>342</ele>
        <time>2018-08-02T10:04:09Z</time>
      </trkpt>
      <trkpt lat="45.94527" lon="4.6902">
        <ele>342</ele>
        <time>2018-08-02T10:04:10Z</time>
      </trkpt>
      <trkpt lat="45.94532" lon="4.69021">
        <ele>342</ele>
        <time>2018-08-02T10:04:11Z</time>
      </trkpt>
      <trkpt lat="45.94537" lon="4.69022">
        <ele>342</ele>
        <time>2018-08-02T10:04:12Z</time>
      </trkpt>
      <trkpt lat="45.94542" lon="4.69023">
        <ele>342</ele>
        <time>2018-08-02T10:04:13Z</time>
      </trkpt>
      <trkpt lat="45.94548" lon="4.69024">
        <ele>342</ele>
        <time>2018-08-02T10:04:14Z</time>
      </trkpt>
      <trkpt lat="45.94554" lon="4.69026">
        <ele>342</ele>
        <time>2018-08-02T10:04:15Z</time>
      </trkpt>
      <trkpt lat="45.94559" lon="4.69028">
        <ele>342</ele>
        <time>2018-08-02T10:04:16Z</time>
      </trkpt>
      <trkpt lat="45.94564" lon="4.6903">
        <ele>342</ele>
        <time>2018-08-02T10:04:17Z</time>
      </trkpt>
      <trkpt lat="45.94569" lon="4.69031">
        <ele>342</ele>
        <time>2018-08-02T10:04:18Z</time>
      </trkpt>
      <trkpt lat="45.94574" lon="4.69033">
        <ele>342</ele>
        <time>2018-08-02T10:04:19Z</time>
      </trkpt>
      <trkpt lat="45.94579" lon="4.69034">
        <ele>342</ele>
        <time>2018-08-02T10:04:20Z</time>
      </trkpt>
      <trkpt lat="45.94583" lon="4.69036">
        <ele>342</ele>
        <time>2018-08-02T10:04:21Z</time>
      </trkpt>
      <trkpt lat="45.94588" lon="4.69038">
        <ele>342</ele>
        <time>2018-08-02T10:04:22Z</time>
      </trkpt>
      <trkpt lat="45.94593" lon="4.6904">
        <ele>342</ele>
        <time>2018-08-02T10:04:23Z</time>
      </trkpt>
      <trkpt lat="45.94597" lon="4.69042">
        <ele>342</ele>
        <time>2018-08-02T10:04:24Z</time>
      </trkpt>
      <trkpt lat="45.94602" lon="4.69043">
        <ele>342</ele>
        <time>2018-08-02T10:04:25Z</time>
      </trkpt>
      <trkpt lat="45.94607" lon="4.69045">
        <ele>342</ele>
        <time>2018-08-02T10:04:26Z</time>
      </trkpt>
      <trkpt lat="45.94612" lon="4.69047">
        <ele>342</ele>
        <time>2018-08-02T10:04:27Z</time>
      </trkpt>
      <trkpt lat="45.94617" lon="4.69048">
        <ele>342</ele>
        <time>2018-08-02T10:04:28Z</time>
      </trkpt>
      <trkpt lat="45.94625" lon="4.69049">
        <ele>342</ele>
        <time>2018-08-02T10:04:30Z</time>
      </trkpt>
      <trkpt lat="45.9463" lon="4.6905">
        <ele>342</ele>
        <time>2018-08-02T10:04:31Z</time>
      </trkpt>
      <trkpt lat="45.94634" lon="4.69052">
        <ele>342</ele>
        <time>2018-08-02T10:04:32Z</time>
      </trkpt>
      <trkpt lat="45.94639" lon="4.69054">
        <ele>342</ele>
        <time>2018-08-02T10:04:33Z</time>
      </trkpt>
      <trkpt lat="45.94645" lon="4.69056">
        <ele>342</ele>
        <time>2018-08-02T10:04:34Z</time>
      </trkpt>
      <trkpt lat="45.9465" lon="4.69059">
        <ele>342</ele>
        <time>2018-08-02T10:04:35Z</time>
      </trkpt>
      <trkpt lat="45.94658" lon="4.69062">
        <ele>342</ele>
        <time>2018-08-02T10:04:37Z</time>
      </trkpt>
      <trkpt lat="45.94663" lon="4.6906">
        <ele>342</ele>
        <time>2018-08-02T10:04:38Z</time>
      </trkpt>
      <trkpt lat="45.94667" lon="4.69062">
        <ele>342</ele>
        <time>2018-08-02T10:04:39Z</time>
      </trkpt>
      <trkpt lat="45.94672" lon="4.69064">
        <ele>342</ele>
        <time>2018-08-02T10:04:40Z</time>
      </trkpt>
      <trkpt lat="45.94681" lon="4.69067">
        <ele>342</ele>
        <time>2018-08-02T10:04:42Z</time>
      </trkpt>
      <trkpt lat="45.94685" lon="4.69069">
        <ele>342</ele>
        <time>2018-08-02T10:04:43Z</time>
      </trkpt>
      <trkpt lat="45.9469" lon="4.69071">
        <ele>342</ele>
        <time>2018-08-02T10:04:44Z</time>
      </trkpt>
      <trkpt lat="45.94695" lon="4.69072">
        <ele>342</ele>
        <time>2018-08-02T10:04:45Z</time>
      </trkpt>
      <trkpt lat="45.947" lon="4.69073">
        <ele>342</ele>
        <time>2018-08-02T10:04:46Z</time>
      </trkpt>
      <trkpt lat="45.94705" lon="4.69074">
        <ele>342</ele>
        <time>2018-08-02T10:04:47Z</time>
      </trkpt>
      <trkpt lat="45.9471" lon="4.69075">
        <ele>343</ele>
        <time>2018-08-02T10:04:48Z</time>
      </trkpt>
      <trkpt lat="45.94715" lon="4.69075">
        <ele>343</ele>
        <time>2018-08-02T10:04:49Z</time>
      </trkpt>
      <trkpt lat="45.94721" lon="4.69078">
        <ele>343</ele>
        <time>2018-08-02T10:04:50Z</time>
      </trkpt>
      <trkpt lat="45.94726" lon="4.6908">
        <ele>343</ele>
        <time>2018-08-02T10:04:51Z</time>
      </trkpt>
      <trkpt lat="45.94732" lon="4.69082">
        <ele>343</ele>
        <time>2018-08-02T10:04:52Z</time>
      </trkpt>
      <trkpt lat="45.94737" lon="4.69084">
        <ele>344</ele>
        <time>2018-08-02T10:04:53Z</time>
      </trkpt>
      <trkpt lat="45.94742" lon="4.69086">
        <ele>345</ele>
        <time>2018-08-02T10:04:54Z</time>
      </trkpt>
      <trkpt lat="45.94747" lon="4.69086">
        <ele>345</ele>
        <time>2018-08-02T10:04:55Z</time>
      </trkpt>
      <trkpt lat="45.94752" lon="4.69089">
        <ele>345</ele>
        <time>2018-08-02T10:04:56Z</time>
      </trkpt>
      <trkpt lat="45.94757" lon="4.6909">
        <ele>345</ele>
        <time>2018-08-02T10:04:57Z</time>
      </trkpt>
      <trkpt lat="45.94762" lon="4.6909">
        <ele>345</ele>
        <time>2018-08-02T10:04:58Z</time>
      </trkpt>
      <trkpt lat="45.94767" lon="4.69092">
        <ele>344</ele>
        <time>2018-08-02T10:04:59Z</time>
      </trkpt>
      <trkpt lat="45.94771" lon="4.69093">
        <ele>344</ele>
        <time>2018-08-02T10:05:00Z</time>
      </trkpt>
      <trkpt lat="45.94776" lon="4.69095">
        <ele>344</ele>
        <time>2018-08-02T10:05:01Z</time>
      </trkpt>
      <trkpt lat="45.94781" lon="4.69098">
        <ele>344</ele>
        <time>2018-08-02T10:05:02Z</time>
      </trkpt>
      <trkpt lat="45.94786" lon="4.691">
        <ele>344</ele>
        <time>2018-08-02T10:05:03Z</time>
      </trkpt>
      <trkpt lat="45.9479" lon="4.69101">
        <ele>344</ele>
        <time>2018-08-02T10:05:04Z</time>
      </trkpt>
      <trkpt lat="45.94795" lon="4.69103">
        <ele>344</ele>
        <time>2018-08-02T10:05:05Z</time>
      </trkpt>
      <trkpt lat="45.94799" lon="4.69105">
        <ele>344</ele>
        <time>2018-08-02T10:05:06Z</time>
      </trkpt>
      <trkpt lat="45.94805" lon="4.69106">
        <ele>344</ele>
        <time>2018-08-02T10:05:07Z</time>
      </trkpt>
      <trkpt lat="45.9481" lon="4.69109">
        <ele>344</ele>
        <time>2018-08-02T10:05:08Z</time>
      </trkpt>
      <trkpt lat="45.94815" lon="4.6911">
        <ele>344</ele>
        <time>2018-08-02T10:05:09Z</time>
      </trkpt>
      <trkpt lat="45.9482" lon="4.6911">
        <ele>344</ele>
        <time>2018-08-02T10:05:10Z</time>
      </trkpt>
      <trkpt lat="45.94825" lon="4.69112">
        <ele>344</ele>
        <time>2018-08-02T10:05:11Z</time>
      </trkpt>
      <trkpt lat="45.9483" lon="4.69114">
        <ele>344</ele>
        <time>2018-08-02T10:05:12Z</time>
      </trkpt>
      <trkpt lat="45.94835" lon="4.69117">
        <ele>342</ele>
        <time>2018-08-02T10:05:13Z</time>
      </trkpt>
      <trkpt lat="45.9484" lon="4.69119">
        <ele>342</ele>
        <time>2018-08-02T10:05:14Z</time>
      </trkpt>
      <trkpt lat="45.94845" lon="4.69121">
        <ele>342</ele>
        <time>2018-08-02T10:05:15Z</time>
      </trkpt>
      <trkpt lat="45.94851" lon="4.69123">
        <ele>342</ele>
        <time>2018-08-02T10:05:16Z</time>
      </trkpt>
      <trkpt lat="45.94857" lon="4.69125">
        <ele>342</ele>
        <time>2018-08-02T10:05:17Z</time>
      </trkpt>
      <trkpt lat="45.94863" lon="4.69124">
        <ele>342</ele>
        <time>2018-08-02T10:05:18Z</time>
      </trkpt>
      <trkpt lat="45.94868" lon="4.69126">
        <ele>342</ele>
        <time>2018-08-02T10:05:19Z</time>
      </trkpt>
      <trkpt lat="45.94874" lon="4.69129">
        <ele>342</ele>
        <time>2018-08-02T10:05:20Z</time>
      </trkpt>
      <trkpt lat="45.94879" lon="4.69132">
        <ele>342</ele>
        <time>2018-08-02T10:05:21Z</time>
      </trkpt>
      <trkpt lat="45.94884" lon="4.69135">
        <ele>342</ele>
        <time>2018-08-02T10:05:22Z</time>
      </trkpt>
      <trkpt lat="45.94889" lon="4.6914">
        <ele>342</ele>
        <time>2018-08-02T10:05:23Z</time>
      </trkpt>
      <trkpt lat="45.94894" lon="4.69141">
        <ele>342</ele>
        <time>2018-08-02T10:05:24Z</time>
      </trkpt>
      <trkpt lat="45.949" lon="4.69144">
        <ele>342</ele>
        <time>2018-08-02T10:05:25Z</time>
      </trkpt>
      <trkpt lat="45.94904" lon="4.69148">
        <ele>342</ele>
        <time>2018-08-02T10:05:26Z</time>
      </trkpt>
      <trkpt lat="45.9491" lon="4.69152">
        <ele>342</ele>
        <time>2018-08-02T10:05:27Z</time>
      </trkpt>
      <trkpt lat="45.94915" lon="4.69156">
        <ele>342</ele>
        <time>2018-08-02T10:05:28Z</time>
      </trkpt>
      <trkpt lat="45.94921" lon="4.6916">
        <ele>341</ele>
        <time>2018-08-02T10:05:29Z</time>
      </trkpt>
      <trkpt lat="45.94927" lon="4.69163">
        <ele>340</ele>
        <time>2018-08-02T10:05:30Z</time>
      </trkpt>
      <trkpt lat="45.94933" lon="4.69167">
        <ele>340</ele>
        <time>2018-08-02T10:05:31Z</time>
      </trkpt>
      <trkpt lat="45.94939" lon="4.69171">
        <ele>341</ele>
        <time>2018-08-02T10:05:32Z</time>
      </trkpt>
      <trkpt lat="45.94945" lon="4.69175">
        <ele>341</ele>
        <time>2018-08-02T10:05:33Z</time>
      </trkpt>
      <trkpt lat="45.94951" lon="4.6918">
        <ele>340</ele>
        <time>2018-08-02T10:05:34Z</time>
      </trkpt>
      <trkpt lat="45.94958" lon="4.69185">
        <ele>340</ele>
        <time>2018-08-02T10:05:35Z</time>
      </trkpt>
      <trkpt lat="45.94964" lon="4.6919">
        <ele>340</ele>
        <time>2018-08-02T10:05:36Z</time>
      </trkpt>
      <trkpt lat="45.94968" lon="4.69196">
        <ele>340</ele>
        <time>2018-08-02T10:05:37Z</time>
      </trkpt>
      <trkpt lat="45.94975" lon="4.69202">
        <ele>340</ele>
        <time>2018-08-02T10:05:38Z</time>
      </trkpt>
      <trkpt lat="45.94981" lon="4.69208">
        <ele>340</ele>
        <time>2018-08-02T10:05:39Z</time>
      </trkpt>
      <trkpt lat="45.94987" lon="4.69212">
        <ele>340</ele>
        <time>2018-08-02T10:05:40Z</time>
      </trkpt>
      <trkpt lat="45.94998" lon="4.69213">
        <ele>340</ele>
        <time>2018-08-02T10:05:41Z</time>
      </trkpt>
      <trkpt lat="45.95005" lon="4.69214">
        <ele>337</ele>
        <time>2018-08-02T10:05:42Z</time>
      </trkpt>
      <trkpt lat="45.95012" lon="4.69217">
        <ele>337</ele>
        <time>2018-08-02T10:05:43Z</time>
      </trkpt>
      <trkpt lat="45.95018" lon="4.69223">
        <ele>337</ele>
        <time>2018-08-02T10:05:44Z</time>
      </trkpt>
      <trkpt lat="45.95025" lon="4.69228">
        <ele>337</ele>
        <time>2018-08-02T10:05:45Z</time>
      </trkpt>
      <trkpt lat="45.95031" lon="4.69235">
        <ele>336</ele>
        <time>2018-08-02T10:05:46Z</time>
      </trkpt>
      <trkpt lat="45.95038" lon="4.69243">
        <ele>336</ele>
        <time>2018-08-02T10:05:47Z</time>
      </trkpt>
      <trkpt lat="45.95045" lon="4.6925">
        <ele>336</ele>
        <time>2018-08-02T10:05:48Z</time>
      </trkpt>
      <trkpt lat="45.95051" lon="4.69254">
        <ele>337</ele>
        <time>2018-08-02T10:05:49Z</time>
      </trkpt>
      <trkpt lat="45.95058" lon="4.6926">
        <ele>336</ele>
        <time>2018-08-02T10:05:50Z</time>
      </trkpt>
      <trkpt lat="45.95064" lon="4.69267">
        <ele>336</ele>
        <time>2018-08-02T10:05:51Z</time>
      </trkpt>
      <trkpt lat="45.95072" lon="4.69272">
        <ele>336</ele>
        <time>2018-08-02T10:05:52Z</time>
      </trkpt>
      <trkpt lat="45.95079" lon="4.69276">
        <ele>336</ele>
        <time>2018-08-02T10:05:53Z</time>
      </trkpt>
      <trkpt lat="45.95085" lon="4.69283">
        <ele>334</ele>
        <time>2018-08-02T10:05:54Z</time>
      </trkpt>
      <trkpt lat="45.9509" lon="4.69292">
        <ele>334</ele>
        <time>2018-08-02T10:05:55Z</time>
      </trkpt>
      <trkpt lat="45.95097" lon="4.69297">
        <ele>334</ele>
        <time>2018-08-02T10:05:56Z</time>
      </trkpt>
      <trkpt lat="45.95102" lon="4.69303">
        <ele>334</ele>
        <time>2018-08-02T10:05:57Z</time>
      </trkpt>
      <trkpt lat="45.95109" lon="4.69307">
        <ele>334</ele>
        <time>2018-08-02T10:05:58Z</time>
      </trkpt>
      <trkpt lat="45.95115" lon="4.69313">
        <ele>334</ele>
        <time>2018-08-02T10:05:59Z</time>
      </trkpt>
      <trkpt lat="45.95121" lon="4.6932">
        <ele>334</ele>
        <time>2018-08-02T10:06:00Z</time>
      </trkpt>
      <trkpt lat="45.95125" lon="4.69326">
        <ele>334</ele>
        <time>2018-08-02T10:06:01Z</time>
      </trkpt>
      <trkpt lat="45.9513" lon="4.69333">
        <ele>334</ele>
        <time>2018-08-02T10:06:02Z</time>
      </trkpt>
      <trkpt lat="45.95136" lon="4.69339">
        <ele>337</ele>
        <time>2018-08-02T10:06:03Z</time>
      </trkpt>
      <trkpt lat="45.95141" lon="4.69344">
        <ele>337</ele>
        <time>2018-08-02T10:06:04Z</time>
      </trkpt>
      <trkpt lat="45.95146" lon="4.6935">
        <ele>337</ele>
        <time>2018-08-02T10:06:05Z</time>
      </trkpt>
      <trkpt lat="45.9515" lon="4.69355">
        <ele>337</ele>
        <time>2018-08-02T10:06:06Z</time>
      </trkpt>
      <trkpt lat="45.95155" lon="4.6936">
        <ele>337</ele>
        <time>2018-08-02T10:06:07Z</time>
      </trkpt>
      <trkpt lat="45.9516" lon="4.69362">
        <ele>337</ele>
        <time>2018-08-02T10:06:08Z</time>
      </trkpt>
      <trkpt lat="45.95163" lon="4.69368">
        <ele>337</ele>
        <time>2018-08-02T10:06:09Z</time>
      </trkpt>
      <trkpt lat="45.95167" lon="4.69372">
        <ele>337</ele>
        <time>2018-08-02T10:06:10Z</time>
      </trkpt>
      <trkpt lat="45.95171" lon="4.69377">
        <ele>337</ele>
        <time>2018-08-02T10:06:11Z</time>
      </trkpt>
      <trkpt lat="45.95176" lon="4.69381">
        <ele>337</ele>
        <time>2018-08-02T10:06:12Z</time>
      </trkpt>
      <trkpt lat="45.9518" lon="4.69385">
        <ele>337</ele>
        <time>2018-08-02T10:06:13Z</time>
      </trkpt>
      <trkpt lat="45.95186" lon="4.69389">
        <ele>337</ele>
        <time>2018-08-02T10:06:14Z</time>
      </trkpt>
      <trkpt lat="45.9519" lon="4.69392">
        <ele>337</ele>
        <time>2018-08-02T10:06:15Z</time>
      </trkpt>
      <trkpt lat="45.95195" lon="4.69395">
        <ele>337</ele>
        <time>2018-08-02T10:06:16Z</time>
      </trkpt>
      <trkpt lat="45.952" lon="4.69397">
        <ele>337</ele>
        <time>2018-08-02T10:06:17Z</time>
      </trkpt>
      <trkpt lat="45.95204" lon="4.694">
        <ele>337</ele>
        <time>2018-08-02T10:06:18Z</time>
      </trkpt>
      <trkpt lat="45.95209" lon="4.69403">
        <ele>337</ele>
        <time>2018-08-02T10:06:19Z</time>
      </trkpt>
      <trkpt lat="45.95214" lon="4.69405">
        <ele>337</ele>
        <time>2018-08-02T10:06:20Z</time>
      </trkpt>
      <trkpt lat="45.95218" lon="4.69409">
        <ele>337</ele>
        <time>2018-08-02T10:06:21Z</time>
      </trkpt>
      <trkpt lat="45.95223" lon="4.69411">
        <ele>337</ele>
        <time>2018-08-02T10:06:22Z</time>
      </trkpt>
      <trkpt lat="45.95228" lon="4.69413">
        <ele>337</ele>
        <time>2018-08-02T10:06:23Z</time>
      </trkpt>
      <trkpt lat="45.95233" lon="4.69415">
        <ele>337</ele>
        <time>2018-08-02T10:06:24Z</time>
      </trkpt>
      <trkpt lat="45.95238" lon="4.69417">
        <ele>339</ele>
        <time>2018-08-02T10:06:25Z</time>
      </trkpt>
      <trkpt lat="45.95243" lon="4.69421">
        <ele>339</ele>
        <time>2018-08-02T10:06:26Z</time>
      </trkpt>
      <trkpt lat="45.95249" lon="4.69423">
        <ele>339</ele>
        <time>2018-08-02T10:06:27Z</time>
      </trkpt>
      <trkpt lat="45.95254" lon="4.69426">
        <ele>338</ele>
        <time>2018-08-02T10:06:28Z</time>
      </trkpt>
      <trkpt lat="45.9526" lon="4.69429">
        <ele>338</ele>
        <time>2018-08-02T10:06:29Z</time>
      </trkpt>
      <trkpt lat="45.95265" lon="4.69433">
        <ele>338</ele>
        <time>2018-08-02T10:06:30Z</time>
      </trkpt>
      <trkpt lat="45.9527" lon="4.69435">
        <ele>338</ele>
        <time>2018-08-02T10:06:31Z</time>
      </trkpt>
      <trkpt lat="45.95275" lon="4.69437">
        <ele>338</ele>
        <time>2018-08-02T10:06:32Z</time>
      </trkpt>
      <trkpt lat="45.95281" lon="4.69439">
        <ele>338</ele>
        <time>2018-08-02T10:06:33Z</time>
      </trkpt>
      <trkpt lat="45.95286" lon="4.69441">
        <ele>338</ele>
        <time>2018-08-02T10:06:34Z</time>
      </trkpt>
      <trkpt lat="45.95291" lon="4.69445">
        <ele>338</ele>
        <time>2018-08-02T10:06:35Z</time>
      </trkpt>
      <trkpt lat="45.95298" lon="4.69447">
        <ele>338</ele>
        <time>2018-08-02T10:06:37Z</time>
      </trkpt>
      <trkpt lat="45.95303" lon="4.6945">
        <ele>338</ele>
        <time>2018-08-02T10:06:38Z</time>
      </trkpt>
      <trkpt lat="45.95308" lon="4.69453">
        <ele>338</ele>
        <time>2018-08-02T10:06:39Z</time>
      </trkpt>
      <trkpt lat="45.95311" lon="4.69456">
        <ele>338</ele>
        <time>2018-08-02T10:06:40Z</time>
      </trkpt>
      <trkpt lat="45.95316" lon="4.69459">
        <ele>338</ele>
        <time>2018-08-02T10:06:41Z</time>
      </trkpt>
      <trkpt lat="45.95321" lon="4.69462">
        <ele>338</ele>
        <time>2018-08-02T10:06:42Z</time>
      </trkpt>
      <trkpt lat="45.95327" lon="4.69466">
        <ele>339</ele>
        <time>2018-08-02T10:06:43Z</time>
      </trkpt>
      <trkpt lat="45.95332" lon="4.69469">
        <ele>339</ele>
        <time>2018-08-02T10:06:44Z</time>
      </trkpt>
      <trkpt lat="45.95338" lon="4.69472">
        <ele>337</ele>
        <time>2018-08-02T10:06:45Z</time>
      </trkpt>
      <trkpt lat="45.95343" lon="4.69476">
        <ele>337</ele>
        <time>2018-08-02T10:06:46Z</time>
      </trkpt>
      <trkpt lat="45.95349" lon="4.69479">
        <ele>337</ele>
        <time>2018-08-02T10:06:47Z</time>
      </trkpt>
      <trkpt lat="45.95354" lon="4.69483">
        <ele>337</ele>
        <time>2018-08-02T10:06:48Z</time>
      </trkpt>
      <trkpt lat="45.95358" lon="4.69488">
        <ele>337</ele>
        <time>2018-08-02T10:06:49Z</time>
      </trkpt>
      <trkpt lat="45.95365" lon="4.69491">
        <ele>337</ele>
        <time>2018-08-02T10:06:50Z</time>
      </trkpt>
      <trkpt lat="45.95371" lon="4.69493">
        <ele>337</ele>
        <time>2018-08-02T10:06:51Z</time>
      </trkpt>
      <trkpt lat="45.95376" lon="4.69499">
        <ele>337</ele>
        <time>2018-08-02T10:06:52Z</time>
      </trkpt>
      <trkpt lat="45.95383" lon="4.69504">
        <ele>340</ele>
        <time>2018-08-02T10:06:53Z</time>
      </trkpt>
      <trkpt lat="45.95389" lon="4.69507">
        <ele>340</ele>
        <time>2018-08-02T10:06:54Z</time>
      </trkpt>
      <trkpt lat="45.95394" lon="4.69511">
        <ele>339</ele>
        <time>2018-08-02T10:06:55Z</time>
      </trkpt>
      <trkpt lat="45.95399" lon="4.69514">
        <ele>339</ele>
        <time>2018-08-02T10:06:56Z</time>
      </trkpt>
      <trkpt lat="45.95405" lon="4.69517">
        <ele>339</ele>
        <time>2018-08-02T10:06:57Z</time>
      </trkpt>
      <trkpt lat="45.95411" lon="4.69522">
        <ele>339</ele>
        <time>2018-08-02T10:06:58Z</time>
      </trkpt>
      <trkpt lat="45.95416" lon="4.69526">
        <ele>339</ele>
        <time>2018-08-02T10:06:59Z</time>
      </trkpt>
      <trkpt lat="45.95422" lon="4.69529">
        <ele>337</ele>
        <time>2018-08-02T10:07:00Z</time>
      </trkpt>
      <trkpt lat="45.95427" lon="4.69533">
        <ele>337</ele>
        <time>2018-08-02T10:07:01Z</time>
      </trkpt>
      <trkpt lat="45.95433" lon="4.69537">
        <ele>337</ele>
        <time>2018-08-02T10:07:02Z</time>
      </trkpt>
      <trkpt lat="45.9544" lon="4.69539">
        <ele>337</ele>
        <time>2018-08-02T10:07:03Z</time>
      </trkpt>
      <trkpt lat="45.95446" lon="4.69542">
        <ele>337</ele>
        <time>2018-08-02T10:07:04Z</time>
      </trkpt>
      <trkpt lat="45.95453" lon="4.69543">
        <ele>337</ele>
        <time>2018-08-02T10:07:05Z</time>
      </trkpt>
      <trkpt lat="45.9546" lon="4.69545">
        <ele>337</ele>
        <time>2018-08-02T10:07:06Z</time>
      </trkpt>
      <trkpt lat="45.95466" lon="4.69548">
        <ele>336</ele>
        <time>2018-08-02T10:07:07Z</time>
      </trkpt>
      <trkpt lat="45.95473" lon="4.69551">
        <ele>336</ele>
        <time>2018-08-02T10:07:08Z</time>
      </trkpt>
      <trkpt lat="45.95478" lon="4.69555">
        <ele>336</ele>
        <time>2018-08-02T10:07:09Z</time>
      </trkpt>
      <trkpt lat="45.95485" lon="4.69559">
        <ele>336</ele>
        <time>2018-08-02T10:07:10Z</time>
      </trkpt>
      <trkpt lat="45.95494" lon="4.6956">
        <ele>336</ele>
        <time>2018-08-02T10:07:11Z</time>
      </trkpt>
      <trkpt lat="45.95501" lon="4.69566">
        <ele>334</ele>
        <time>2018-08-02T10:07:12Z</time>
      </trkpt>
      <trkpt lat="45.95506" lon="4.6957">
        <ele>334</ele>
        <time>2018-08-02T10:07:13Z</time>
      </trkpt>
      <trkpt lat="45.95513" lon="4.69572">
        <ele>334</ele>
        <time>2018-08-02T10:07:14Z</time>
      </trkpt>
      <trkpt lat="45.9552" lon="4.69573">
        <ele>333</ele>
        <time>2018-08-02T10:07:15Z</time>
      </trkpt>
      <trkpt lat="45.95528" lon="4.69577">
        <ele>333</ele>
        <time>2018-08-02T10:07:16Z</time>
      </trkpt>
      <trkpt lat="45.95536" lon="4.69579">
        <ele>332</ele>
        <time>2018-08-02T10:07:17Z</time>
      </trkpt>
      <trkpt lat="45.95544" lon="4.69582">
        <ele>331</ele>
        <time>2018-08-02T10:07:18Z</time>
      </trkpt>
      <trkpt lat="45.95552" lon="4.69585">
        <ele>331</ele>
        <time>2018-08-02T10:07:19Z</time>
      </trkpt>
      <trkpt lat="45.95559" lon="4.69588">
        <ele>330</ele>
        <time>2018-08-02T10:07:20Z</time>
      </trkpt>
      <trkpt lat="45.95566" lon="4.69593">
        <ele>330</ele>
        <time>2018-08-02T10:07:21Z</time>
      </trkpt>
      <trkpt lat="45.95574" lon="4.69596">
        <ele>330</ele>
        <time>2018-08-02T10:07:22Z</time>
      </trkpt>
      <trkpt lat="45.95582" lon="4.696">
        <ele>329</ele>
        <time>2018-08-02T10:07:23Z</time>
      </trkpt>
      <trkpt lat="45.95589" lon="4.69604">
        <ele>328</ele>
        <time>2018-08-02T10:07:24Z</time>
      </trkpt>
      <trkpt lat="45.95597" lon="4.69607">
        <ele>328</ele>
        <time>2018-08-02T10:07:25Z</time>
      </trkpt>
      <trkpt lat="45.95605" lon="4.69611">
        <ele>328</ele>
        <time>2018-08-02T10:07:26Z</time>
      </trkpt>
      <trkpt lat="45.95613" lon="4.69615">
        <ele>328</ele>
        <time>2018-08-02T10:07:27Z</time>
      </trkpt>
      <trkpt lat="45.95621" lon="4.6962">
        <ele>328</ele>
        <time>2018-08-02T10:07:28Z</time>
      </trkpt>
      <trkpt lat="45.95628" lon="4.69625">
        <ele>328</ele>
        <time>2018-08-02T10:07:29Z</time>
      </trkpt>
      <trkpt lat="45.95637" lon="4.69628">
        <ele>328</ele>
        <time>2018-08-02T10:07:30Z</time>
      </trkpt>
      <trkpt lat="45.95645" lon="4.69632">
        <ele>328</ele>
        <time>2018-08-02T10:07:31Z</time>
      </trkpt>
      <trkpt lat="45.95652" lon="4.69637">
        <ele>328</ele>
        <time>2018-08-02T10:07:32Z</time>
      </trkpt>
      <trkpt lat="45.9566" lon="4.6964">
        <ele>327</ele>
        <time>2018-08-02T10:07:33Z</time>
      </trkpt>
      <trkpt lat="45.95668" lon="4.69643">
        <ele>326</ele>
        <time>2018-08-02T10:07:34Z</time>
      </trkpt>
      <trkpt lat="45.95676" lon="4.69646">
        <ele>326</ele>
        <time>2018-08-02T10:07:35Z</time>
      </trkpt>
      <trkpt lat="45.95684" lon="4.69648">
        <ele>326</ele>
        <time>2018-08-02T10:07:36Z</time>
      </trkpt>
      <trkpt lat="45.95691" lon="4.69651">
        <ele>326</ele>
        <time>2018-08-02T10:07:37Z</time>
      </trkpt>
      <trkpt lat="45.95698" lon="4.69655">
        <ele>326</ele>
        <time>2018-08-02T10:07:38Z</time>
      </trkpt>
      <trkpt lat="45.95705" lon="4.69657">
        <ele>326</ele>
        <time>2018-08-02T10:07:39Z</time>
      </trkpt>
      <trkpt lat="45.95712" lon="4.6966">
        <ele>326</ele>
        <time>2018-08-02T10:07:40Z</time>
      </trkpt>
      <trkpt lat="45.95719" lon="4.69663">
        <ele>326</ele>
        <time>2018-08-02T10:07:41Z</time>
      </trkpt>
      <trkpt lat="45.95726" lon="4.69665">
        <ele>326</ele>
        <time>2018-08-02T10:07:42Z</time>
      </trkpt>
      <trkpt lat="45.95733" lon="4.69667">
        <ele>326</ele>
        <time>2018-08-02T10:07:43Z</time>
      </trkpt>
      <trkpt lat="45.95738" lon="4.69671">
        <ele>326</ele>
        <time>2018-08-02T10:07:44Z</time>
      </trkpt>
      <trkpt lat="45.95743" lon="4.69675">
        <ele>326</ele>
        <time>2018-08-02T10:07:45Z</time>
      </trkpt>
      <trkpt lat="45.95748" lon="4.69678">
        <ele>326</ele>
        <time>2018-08-02T10:07:46Z</time>
      </trkpt>
      <trkpt lat="45.95753" lon="4.69681">
        <ele>326</ele>
        <time>2018-08-02T10:07:47Z</time>
      </trkpt>
      <trkpt lat="45.95759" lon="4.69684">
        <ele>326</ele>
        <time>2018-08-02T10:07:48Z</time>
      </trkpt>
      <trkpt lat="45.95766" lon="4.69686">
        <ele>326</ele>
        <time>2018-08-02T10:07:49Z</time>
      </trkpt>
      <trkpt lat="45.9577" lon="4.69688">
        <ele>326</ele>
        <time>2018-08-02T10:07:50Z</time>
      </trkpt>
      <trkpt lat="45.95775" lon="4.69689">
        <ele>326</ele>
        <time>2018-08-02T10:07:51Z</time>
      </trkpt>
      <trkpt lat="45.9578" lon="4.69692">
        <ele>326</ele>
        <time>2018-08-02T10:07:52Z</time>
      </trkpt>
      <trkpt lat="45.95784" lon="4.69697">
        <ele>326</ele>
        <time>2018-08-02T10:07:53Z</time>
      </trkpt>
      <trkpt lat="45.95788" lon="4.69702">
        <ele>326</ele>
        <time>2018-08-02T10:07:54Z</time>
      </trkpt>
      <trkpt lat="45.95792" lon="4.69707">
        <ele>326</ele>
        <time>2018-08-02T10:07:55Z</time>
      </trkpt>
      <trkpt lat="45.95796" lon="4.69712">
        <ele>326</ele>
        <time>2018-08-02T10:07:56Z</time>
      </trkpt>
      <trkpt lat="45.95799" lon="4.69717">
        <ele>326</ele>
        <time>2018-08-02T10:07:57Z</time>
      </trkpt>
      <trkpt lat="45.95803" lon="4.69722">
        <ele>326</ele>
        <time>2018-08-02T10:07:58Z</time>
      </trkpt>
      <trkpt lat="45.95807" lon="4.69727">
        <ele>326</ele>
        <time>2018-08-02T10:07:59Z</time>
      </trkpt>
      <trkpt lat="45.95811" lon="4.69732">
        <ele>326</ele>
        <time>2018-08-02T10:08:00Z</time>
      </trkpt>
      <trkpt lat="45.95814" lon="4.69737">
        <ele>327</ele>
        <time>2018-08-02T10:08:01Z</time>
      </trkpt>
      <trkpt lat="45.95818" lon="4.69742">
        <ele>327</ele>
        <time>2018-08-02T10:08:02Z</time>
      </trkpt>
      <trkpt lat="45.95823" lon="4.69752">
        <ele>327</ele>
        <time>2018-08-02T10:08:04Z</time>
      </trkpt>
      <trkpt lat="45.95826" lon="4.69757">
        <ele>327</ele>
        <time>2018-08-02T10:08:05Z</time>
      </trkpt>
      <trkpt lat="45.9583" lon="4.69763">
        <ele>328</ele>
        <time>2018-08-02T10:08:06Z</time>
      </trkpt>
      <trkpt lat="45.95833" lon="4.69767">
        <ele>328</ele>
        <time>2018-08-02T10:08:07Z</time>
      </trkpt>
      <trkpt lat="45.95837" lon="4.69776">
        <ele>327</ele>
        <time>2018-08-02T10:08:09Z</time>
      </trkpt>
      <trkpt lat="45.9584" lon="4.69781">
        <ele>327</ele>
        <time>2018-08-02T10:08:10Z</time>
      </trkpt>
      <trkpt lat="45.95845" lon="4.69792">
        <ele>327</ele>
        <time>2018-08-02T10:08:12Z</time>
      </trkpt>
      <trkpt lat="45.95847" lon="4.69798">
        <ele>327</ele>
        <time>2018-08-02T10:08:13Z</time>
      </trkpt>
      <trkpt lat="45.95852" lon="4.69808">
        <ele>328</ele>
        <time>2018-08-02T10:08:15Z</time>
      </trkpt>
      <trkpt lat="45.95855" lon="4.69815">
        <ele>328</ele>
        <time>2018-08-02T10:08:16Z</time>
      </trkpt>
      <trkpt lat="45.95858" lon="4.6982">
        <ele>328</ele>
        <time>2018-08-02T10:08:17Z</time>
      </trkpt>
      <trkpt lat="45.95861" lon="4.69826">
        <ele>328</ele>
        <time>2018-08-02T10:08:18Z</time>
      </trkpt>
      <trkpt lat="45.95864" lon="4.69832">
        <ele>328</ele>
        <time>2018-08-02T10:08:19Z</time>
      </trkpt>
      <trkpt lat="45.95865" lon="4.69839">
        <ele>329</ele>
        <time>2018-08-02T10:08:20Z</time>
      </trkpt>
      <trkpt lat="45.95868" lon="4.69845">
        <ele>329</ele>
        <time>2018-08-02T10:08:21Z</time>
      </trkpt>
      <trkpt lat="45.9587" lon="4.69851">
        <ele>329</ele>
        <time>2018-08-02T10:08:22Z</time>
      </trkpt>
      <trkpt lat="45.95872" lon="4.69858">
        <ele>329</ele>
        <time>2018-08-02T10:08:23Z</time>
      </trkpt>
      <trkpt lat="45.95874" lon="4.69864">
        <ele>329</ele>
        <time>2018-08-02T10:08:24Z</time>
      </trkpt>
      <trkpt lat="45.95877" lon="4.69875">
        <ele>329</ele>
        <time>2018-08-02T10:08:26Z</time>
      </trkpt>
      <trkpt lat="45.95878" lon="4.69881">
        <ele>329</ele>
        <time>2018-08-02T10:08:27Z</time>
      </trkpt>
      <trkpt lat="45.9588" lon="4.69892">
        <ele>329</ele>
        <time>2018-08-02T10:08:29Z</time>
      </trkpt>
      <trkpt lat="45.95882" lon="4.69897">
        <ele>329</ele>
        <time>2018-08-02T10:08:30Z</time>
      </trkpt>
      <trkpt lat="45.95882" lon="4.69903">
        <ele>329</ele>
        <time>2018-08-02T10:08:32Z</time>
      </trkpt>
      <trkpt lat="45.95884" lon="4.69912">
        <ele>329</ele>
        <time>2018-08-02T10:08:33Z</time>
      </trkpt>
      <trkpt lat="45.95886" lon="4.69922">
        <ele>328</ele>
        <time>2018-08-02T10:08:35Z</time>
      </trkpt>
      <trkpt lat="45.95887" lon="4.69928">
        <ele>328</ele>
        <time>2018-08-02T10:08:36Z</time>
      </trkpt>
      <trkpt lat="45.95889" lon="4.69939">
        <ele>328</ele>
        <time>2018-08-02T10:08:38Z</time>
      </trkpt>
      <trkpt lat="45.9589" lon="4.69944">
        <ele>328</ele>
        <time>2018-08-02T10:08:39Z</time>
      </trkpt>
      <trkpt lat="45.95892" lon="4.69954">
        <ele>328</ele>
        <time>2018-08-02T10:08:41Z</time>
      </trkpt>
      <trkpt lat="45.95893" lon="4.6996">
        <ele>328</ele>
        <time>2018-08-02T10:08:42Z</time>
      </trkpt>
      <trkpt lat="45.95896" lon="4.6997">
        <ele>328</ele>
        <time>2018-08-02T10:08:44Z</time>
      </trkpt>
      <trkpt lat="45.95898" lon="4.69975">
        <ele>328</ele>
        <time>2018-08-02T10:08:45Z</time>
      </trkpt>
      <trkpt lat="45.959" lon="4.69981">
        <ele>328</ele>
        <time>2018-08-02T10:08:46Z</time>
      </trkpt>
      <trkpt lat="45.95902" lon="4.69988">
        <ele>328</ele>
        <time>2018-08-02T10:08:47Z</time>
      </trkpt>
      <trkpt lat="45.95904" lon="4.69993">
        <ele>328</ele>
        <time>2018-08-02T10:08:48Z</time>
      </trkpt>
      <trkpt lat="45.95907" lon="4.69999">
        <ele>328</ele>
        <time>2018-08-02T10:08:49Z</time>
      </trkpt>
      <trkpt lat="45.9591" lon="4.70005">
        <ele>328</ele>
        <time>2018-08-02T10:08:50Z</time>
      </trkpt>
      <trkpt lat="45.95913" lon="4.70012">
        <ele>328</ele>
        <time>2018-08-02T10:08:51Z</time>
      </trkpt>
      <trkpt lat="45.95915" lon="4.70017">
        <ele>328</ele>
        <time>2018-08-02T10:08:52Z</time>
      </trkpt>
      <trkpt lat="45.95918" lon="4.70023">
        <ele>328</ele>
        <time>2018-08-02T10:08:53Z</time>
      </trkpt>
      <trkpt lat="45.95923" lon="4.70033">
        <ele>328</ele>
        <time>2018-08-02T10:08:55Z</time>
      </trkpt>
      <trkpt lat="45.95925" lon="4.70038">
        <ele>328</ele>
        <time>2018-08-02T10:08:56Z</time>
      </trkpt>
      <trkpt lat="45.95929" lon="4.70043">
        <ele>328</ele>
        <time>2018-08-02T10:08:57Z</time>
      </trkpt>
      <trkpt lat="45.95933" lon="4.70048">
        <ele>328</ele>
        <time>2018-08-02T10:08:58Z</time>
      </trkpt>
      <trkpt lat="45.95937" lon="4.70054">
        <ele>328</ele>
        <time>2018-08-02T10:09:00Z</time>
      </trkpt>
      <trkpt lat="45.95942" lon="4.70061">
        <ele>328</ele>
        <time>2018-08-02T10:09:01Z</time>
      </trkpt>
      <trkpt lat="45.95949" lon="4.70069">
        <ele>328</ele>
        <time>2018-08-02T10:09:03Z</time>
      </trkpt>
      <trkpt lat="45.95952" lon="4.70073">
        <ele>328</ele>
        <time>2018-08-02T10:09:04Z</time>
      </trkpt>
      <trkpt lat="45.95955" lon="4.70077">
        <ele>328</ele>
        <time>2018-08-02T10:09:05Z</time>
      </trkpt>
      <trkpt lat="45.95959" lon="4.70081">
        <ele>328</ele>
        <time>2018-08-02T10:09:06Z</time>
      </trkpt>
      <trkpt lat="45.95963" lon="4.70085">
        <ele>328</ele>
        <time>2018-08-02T10:09:07Z</time>
      </trkpt>
      <trkpt lat="45.95968" lon="4.70089">
        <ele>328</ele>
        <time>2018-08-02T10:09:08Z</time>
      </trkpt>
      <trkpt lat="45.95975" lon="4.70096">
        <ele>328</ele>
        <time>2018-08-02T10:09:10Z</time>
      </trkpt>
      <trkpt lat="45.9598" lon="4.70101">
        <ele>328</ele>
        <time>2018-08-02T10:09:11Z</time>
      </trkpt>
      <trkpt lat="45.95985" lon="4.70106">
        <ele>328</ele>
        <time>2018-08-02T10:09:12Z</time>
      </trkpt>
      <trkpt lat="45.95989" lon="4.7011">
        <ele>328</ele>
        <time>2018-08-02T10:09:13Z</time>
      </trkpt>
      <trkpt lat="45.95993" lon="4.70114">
        <ele>328</ele>
        <time>2018-08-02T10:09:14Z</time>
      </trkpt>
      <trkpt lat="45.95998" lon="4.70119">
        <ele>328</ele>
        <time>2018-08-02T10:09:15Z</time>
      </trkpt>
      <trkpt lat="45.96001" lon="4.70122">
        <ele>328</ele>
        <time>2018-08-02T10:09:16Z</time>
      </trkpt>
      <trkpt lat="45.96006" lon="4.70127">
        <ele>328</ele>
        <time>2018-08-02T10:09:17Z</time>
      </trkpt>
      <trkpt lat="45.96011" lon="4.70132">
        <ele>328</ele>
        <time>2018-08-02T10:09:18Z</time>
      </trkpt>
      <trkpt lat="45.96015" lon="4.70137">
        <ele>328</ele>
        <time>2018-08-02T10:09:19Z</time>
      </trkpt>
      <trkpt lat="45.96021" lon="4.70142">
        <ele>329</ele>
        <time>2018-08-02T10:09:20Z</time>
      </trkpt>
      <trkpt lat="45.96025" lon="4.70146">
        <ele>329</ele>
        <time>2018-08-02T10:09:21Z</time>
      </trkpt>
      <trkpt lat="45.9603" lon="4.7015">
        <ele>329</ele>
        <time>2018-08-02T10:09:22Z</time>
      </trkpt>
      <trkpt lat="45.96034" lon="4.70154">
        <ele>329</ele>
        <time>2018-08-02T10:09:23Z</time>
      </trkpt>
      <trkpt lat="45.96038" lon="4.70159">
        <ele>329</ele>
        <time>2018-08-02T10:09:24Z</time>
      </trkpt>
      <trkpt lat="45.96043" lon="4.70163">
        <ele>328</ele>
        <time>2018-08-02T10:09:25Z</time>
      </trkpt>
      <trkpt lat="45.96049" lon="4.70167">
        <ele>327</ele>
        <time>2018-08-02T10:09:26Z</time>
      </trkpt>
      <trkpt lat="45.96054" lon="4.70171">
        <ele>327</ele>
        <time>2018-08-02T10:09:27Z</time>
      </trkpt>
      <trkpt lat="45.9606" lon="4.70177">
        <ele>327</ele>
        <time>2018-08-02T10:09:28Z</time>
      </trkpt>
      <trkpt lat="45.96065" lon="4.7018">
        <ele>327</ele>
        <time>2018-08-02T10:09:29Z</time>
      </trkpt>
      <trkpt lat="45.9607" lon="4.70184">
        <ele>327</ele>
        <time>2018-08-02T10:09:30Z</time>
      </trkpt>
      <trkpt lat="45.96075" lon="4.70189">
        <ele>327</ele>
        <time>2018-08-02T10:09:31Z</time>
      </trkpt>
      <trkpt lat="45.9608" lon="4.70193">
        <ele>327</ele>
        <time>2018-08-02T10:09:32Z</time>
      </trkpt>
      <trkpt lat="45.96084" lon="4.70197">
        <ele>327</ele>
        <time>2018-08-02T10:09:33Z</time>
      </trkpt>
      <trkpt lat="45.96088" lon="4.70201">
        <ele>327</ele>
        <time>2018-08-02T10:09:34Z</time>
      </trkpt>
      <trkpt lat="45.96094" lon="4.70203">
        <ele>327</ele>
        <time>2018-08-02T10:09:35Z</time>
      </trkpt>
      <trkpt lat="45.961" lon="4.70206">
        <ele>327</ele>
        <time>2018-08-02T10:09:36Z</time>
      </trkpt>
      <trkpt lat="45.96106" lon="4.70211">
        <ele>327</ele>
        <time>2018-08-02T10:09:37Z</time>
      </trkpt>
      <trkpt lat="45.96111" lon="4.70217">
        <ele>327</ele>
        <time>2018-08-02T10:09:38Z</time>
      </trkpt>
      <trkpt lat="45.96116" lon="4.70222">
        <ele>327</ele>
        <time>2018-08-02T10:09:39Z</time>
      </trkpt>
      <trkpt lat="45.96122" lon="4.70227">
        <ele>327</ele>
        <time>2018-08-02T10:09:40Z</time>
      </trkpt>
      <trkpt lat="45.96128" lon="4.70233">
        <ele>327</ele>
        <time>2018-08-02T10:09:41Z</time>
      </trkpt>
      <trkpt lat="45.96133" lon="4.70239">
        <ele>327</ele>
        <time>2018-08-02T10:09:42Z</time>
      </trkpt>
      <trkpt lat="45.96139" lon="4.70245">
        <ele>327</ele>
        <time>2018-08-02T10:09:43Z</time>
      </trkpt>
      <trkpt lat="45.96143" lon="4.70252">
        <ele>324</ele>
        <time>2018-08-02T10:09:44Z</time>
      </trkpt>
      <trkpt lat="45.96148" lon="4.70257">
        <ele>324</ele>
        <time>2018-08-02T10:09:45Z</time>
      </trkpt>
      <trkpt lat="45.96153" lon="4.70263">
        <ele>324</ele>
        <time>2018-08-02T10:09:46Z</time>
      </trkpt>
      <trkpt lat="45.96158" lon="4.70268">
        <ele>324</ele>
        <time>2018-08-02T10:09:47Z</time>
      </trkpt>
      <trkpt lat="45.96163" lon="4.70273">
        <ele>324</ele>
        <time>2018-08-02T10:09:48Z</time>
      </trkpt>
      <trkpt lat="45.96167" lon="4.70278">
        <ele>327</ele>
        <time>2018-08-02T10:09:49Z</time>
      </trkpt>
      <trkpt lat="45.96173" lon="4.70284">
        <ele>326</ele>
        <time>2018-08-02T10:09:50Z</time>
      </trkpt>
      <trkpt lat="45.96175" lon="4.70291">
        <ele>326</ele>
        <time>2018-08-02T10:09:51Z</time>
      </trkpt>
      <trkpt lat="45.96179" lon="4.70298">
        <ele>326</ele>
        <time>2018-08-02T10:09:52Z</time>
      </trkpt>
      <trkpt lat="45.96185" lon="4.70305">
        <ele>325</ele>
        <time>2018-08-02T10:09:53Z</time>
      </trkpt>
      <trkpt lat="45.9619" lon="4.70312">
        <ele>325</ele>
        <time>2018-08-02T10:09:54Z</time>
      </trkpt>
      <trkpt lat="45.96195" lon="4.70319">
        <ele>325</ele>
        <time>2018-08-02T10:09:55Z</time>
      </trkpt>
      <trkpt lat="45.962" lon="4.70326">
        <ele>325</ele>
        <time>2018-08-02T10:09:56Z</time>
      </trkpt>
      <trkpt lat="45.96204" lon="4.70331">
        <ele>326</ele>
        <time>2018-08-02T10:09:57Z</time>
      </trkpt>
      <trkpt lat="45.96208" lon="4.70338">
        <ele>321</ele>
        <time>2018-08-02T10:09:58Z</time>
      </trkpt>
      <trkpt lat="45.96212" lon="4.70345">
        <ele>321</ele>
        <time>2018-08-02T10:09:59Z</time>
      </trkpt>
      <trkpt lat="45.96217" lon="4.70353">
        <ele>321</ele>
        <time>2018-08-02T10:10:00Z</time>
      </trkpt>
      <trkpt lat="45.96222" lon="4.7036">
        <ele>321</ele>
        <time>2018-08-02T10:10:01Z</time>
      </trkpt>
      <trkpt lat="45.96227" lon="4.70367">
        <ele>321</ele>
        <time>2018-08-02T10:10:02Z</time>
      </trkpt>
      <trkpt lat="45.96232" lon="4.70375">
        <ele>321</ele>
        <time>2018-08-02T10:10:03Z</time>
      </trkpt>
      <trkpt lat="45.96236" lon="4.70383">
        <ele>320</ele>
        <time>2018-08-02T10:10:04Z</time>
      </trkpt>
      <trkpt lat="45.96241" lon="4.7039">
        <ele>320</ele>
        <time>2018-08-02T10:10:05Z</time>
      </trkpt>
      <trkpt lat="45.96246" lon="4.70398">
        <ele>320</ele>
        <time>2018-08-02T10:10:06Z</time>
      </trkpt>
      <trkpt lat="45.96251" lon="4.70405">
        <ele>323</ele>
        <time>2018-08-02T10:10:07Z</time>
      </trkpt>
      <trkpt lat="45.96255" lon="4.70413">
        <ele>322</ele>
        <time>2018-08-02T10:10:08Z</time>
      </trkpt>
      <trkpt lat="45.9626" lon="4.7042">
        <ele>320</ele>
        <time>2018-08-02T10:10:09Z</time>
      </trkpt>
      <trkpt lat="45.96266" lon="4.70429">
        <ele>321</ele>
        <time>2018-08-02T10:10:10Z</time>
      </trkpt>
      <trkpt lat="45.9627" lon="4.70436">
        <ele>321</ele>
        <time>2018-08-02T10:10:11Z</time>
      </trkpt>
      <trkpt lat="45.96274" lon="4.70442">
        <ele>321</ele>
        <time>2018-08-02T10:10:12Z</time>
      </trkpt>
      <trkpt lat="45.96279" lon="4.70449">
        <ele>321</ele>
        <time>2018-08-02T10:10:13Z</time>
      </trkpt>
      <trkpt lat="45.96284" lon="4.70454">
        <ele>321</ele>
        <time>2018-08-02T10:10:14Z</time>
      </trkpt>
      <trkpt lat="45.96288" lon="4.70463">
        <ele>320</ele>
        <time>2018-08-02T10:10:15Z</time>
      </trkpt>
      <trkpt lat="45.96293" lon="4.7047">
        <ele>320</ele>
        <time>2018-08-02T10:10:16Z</time>
      </trkpt>
      <trkpt lat="45.96298" lon="4.70477">
        <ele>320</ele>
        <time>2018-08-02T10:10:17Z</time>
      </trkpt>
      <trkpt lat="45.96303" lon="4.70486">
        <ele>320</ele>
        <time>2018-08-02T10:10:18Z</time>
      </trkpt>
      <trkpt lat="45.96308" lon="4.70493">
        <ele>320</ele>
        <time>2018-08-02T10:10:19Z</time>
      </trkpt>
      <trkpt lat="45.96314" lon="4.705">
        <ele>316</ele>
        <time>2018-08-02T10:10:20Z</time>
      </trkpt>
      <trkpt lat="45.9632" lon="4.70507">
        <ele>317</ele>
        <time>2018-08-02T10:10:21Z</time>
      </trkpt>
      <trkpt lat="45.96325" lon="4.70515">
        <ele>316</ele>
        <time>2018-08-02T10:10:22Z</time>
      </trkpt>
      <trkpt lat="45.96331" lon="4.70521">
        <ele>316</ele>
        <time>2018-08-02T10:10:23Z</time>
      </trkpt>
      <trkpt lat="45.96337" lon="4.70529">
        <ele>319</ele>
        <time>2018-08-02T10:10:24Z</time>
      </trkpt>
      <trkpt lat="45.96344" lon="4.70536">
        <ele>319</ele>
        <time>2018-08-02T10:10:25Z</time>
      </trkpt>
      <trkpt lat="45.9635" lon="4.70543">
        <ele>318</ele>
        <time>2018-08-02T10:10:26Z</time>
      </trkpt>
      <trkpt lat="45.96357" lon="4.70552">
        <ele>318</ele>
        <time>2018-08-02T10:10:27Z</time>
      </trkpt>
      <trkpt lat="45.96365" lon="4.70557">
        <ele>318</ele>
        <time>2018-08-02T10:10:28Z</time>
      </trkpt>
      <trkpt lat="45.96369" lon="4.70567">
        <ele>318</ele>
        <time>2018-08-02T10:10:29Z</time>
      </trkpt>
      <trkpt lat="45.96376" lon="4.70575">
        <ele>318</ele>
        <time>2018-08-02T10:10:30Z</time>
      </trkpt>
      <trkpt lat="45.96382" lon="4.70582">
        <ele>318</ele>
        <time>2018-08-02T10:10:31Z</time>
      </trkpt>
      <trkpt lat="45.96388" lon="4.7059">
        <ele>312</ele>
        <time>2018-08-02T10:10:32Z</time>
      </trkpt>
      <trkpt lat="45.96394" lon="4.70597">
        <ele>313</ele>
        <time>2018-08-02T10:10:33Z</time>
      </trkpt>
      <trkpt lat="45.964" lon="4.70606">
        <ele>312</ele>
        <time>2018-08-02T10:10:34Z</time>
      </trkpt>
      <trkpt lat="45.96406" lon="4.70615">
        <ele>312</ele>
        <time>2018-08-02T10:10:35Z</time>
      </trkpt>
      <trkpt lat="45.96413" lon="4.70621">
        <ele>311</ele>
        <time>2018-08-02T10:10:36Z</time>
      </trkpt>
      <trkpt lat="45.9642" lon="4.70629">
        <ele>313</ele>
        <time>2018-08-02T10:10:37Z</time>
      </trkpt>
      <trkpt lat="45.96427" lon="4.70638">
        <ele>313</ele>
        <time>2018-08-02T10:10:38Z</time>
      </trkpt>
      <trkpt lat="45.96434" lon="4.70645">
        <ele>312</ele>
        <time>2018-08-02T10:10:39Z</time>
      </trkpt>
      <trkpt lat="45.96441" lon="4.70652">
        <ele>312</ele>
        <time>2018-08-02T10:10:40Z</time>
      </trkpt>
      <trkpt lat="45.96448" lon="4.70659">
        <ele>312</ele>
        <time>2018-08-02T10:10:41Z</time>
      </trkpt>
      <trkpt lat="45.96457" lon="4.70667">
        <ele>305</ele>
        <time>2018-08-02T10:10:42Z</time>
      </trkpt>
      <trkpt lat="45.96466" lon="4.70674">
        <ele>305</ele>
        <time>2018-08-02T10:10:43Z</time>
      </trkpt>
      <trkpt lat="45.96474" lon="4.70681">
        <ele>306</ele>
        <time>2018-08-02T10:10:44Z</time>
      </trkpt>
      <trkpt lat="45.96483" lon="4.70688">
        <ele>306</ele>
        <time>2018-08-02T10:10:45Z</time>
      </trkpt>
      <trkpt lat="45.96491" lon="4.70696">
        <ele>305</ele>
        <time>2018-08-02T10:10:46Z</time>
      </trkpt>
      <trkpt lat="45.96499" lon="4.70703">
        <ele>305</ele>
        <time>2018-08-02T10:10:47Z</time>
      </trkpt>
      <trkpt lat="45.96507" lon="4.70711">
        <ele>306</ele>
        <time>2018-08-02T10:10:48Z</time>
      </trkpt>
      <trkpt lat="45.96516" lon="4.70718">
        <ele>305</ele>
        <time>2018-08-02T10:10:49Z</time>
      </trkpt>
      <trkpt lat="45.96523" lon="4.70725">
        <ele>305</ele>
        <time>2018-08-02T10:10:50Z</time>
      </trkpt>
      <trkpt lat="45.96531" lon="4.70733">
        <ele>305</ele>
        <time>2018-08-02T10:10:51Z</time>
      </trkpt>
      <trkpt lat="45.9654" lon="4.7074">
        <ele>305</ele>
        <time>2018-08-02T10:10:52Z</time>
      </trkpt>
      <trkpt lat="45.96549" lon="4.70747">
        <ele>305</ele>
        <time>2018-08-02T10:10:53Z</time>
      </trkpt>
      <trkpt lat="45.96558" lon="4.70753">
        <ele>299</ele>
        <time>2018-08-02T10:10:54Z</time>
      </trkpt>
      <trkpt lat="45.96567" lon="4.7076">
        <ele>299</ele>
        <time>2018-08-02T10:10:55Z</time>
      </trkpt>
      <trkpt lat="45.96576" lon="4.70766">
        <ele>299</ele>
        <time>2018-08-02T10:10:56Z</time>
      </trkpt>
      <trkpt lat="45.96584" lon="4.70774">
        <ele>300</ele>
        <time>2018-08-02T10:10:57Z</time>
      </trkpt>
      <trkpt lat="45.96593" lon="4.7078">
        <ele>299</ele>
        <time>2018-08-02T10:10:58Z</time>
      </trkpt>
      <trkpt lat="45.96602" lon="4.70788">
        <ele>299</ele>
        <time>2018-08-02T10:10:59Z</time>
      </trkpt>
      <trkpt lat="45.96612" lon="4.70794">
        <ele>298</ele>
        <time>2018-08-02T10:11:00Z</time>
      </trkpt>
      <trkpt lat="45.96621" lon="4.708">
        <ele>298</ele>
        <time>2018-08-02T10:11:01Z</time>
      </trkpt>
      <trkpt lat="45.96631" lon="4.70808">
        <ele>298</ele>
        <time>2018-08-02T10:11:02Z</time>
      </trkpt>
      <trkpt lat="45.9664" lon="4.70813">
        <ele>297</ele>
        <time>2018-08-02T10:11:03Z</time>
      </trkpt>
      <trkpt lat="45.9665" lon="4.7082">
        <ele>297</ele>
        <time>2018-08-02T10:11:04Z</time>
      </trkpt>
      <trkpt lat="45.96659" lon="4.70825">
        <ele>296</ele>
        <time>2018-08-02T10:11:05Z</time>
      </trkpt>
      <trkpt lat="45.96669" lon="4.70829">
        <ele>296</ele>
        <time>2018-08-02T10:11:06Z</time>
      </trkpt>
      <trkpt lat="45.96678" lon="4.70836">
        <ele>293</ele>
        <time>2018-08-02T10:11:07Z</time>
      </trkpt>
      <trkpt lat="45.96687" lon="4.70842">
        <ele>291</ele>
        <time>2018-08-02T10:11:08Z</time>
      </trkpt>
      <trkpt lat="45.96695" lon="4.70848">
        <ele>290</ele>
        <time>2018-08-02T10:11:09Z</time>
      </trkpt>
      <trkpt lat="45.96705" lon="4.70854">
        <ele>290</ele>
        <time>2018-08-02T10:11:10Z</time>
      </trkpt>
      <trkpt lat="45.96714" lon="4.70861">
        <ele>289</ele>
        <time>2018-08-02T10:11:11Z</time>
      </trkpt>
      <trkpt lat="45.96721" lon="4.70867">
        <ele>289</ele>
        <time>2018-08-02T10:11:12Z</time>
      </trkpt>
      <trkpt lat="45.9673" lon="4.70874">
        <ele>288</ele>
        <time>2018-08-02T10:11:13Z</time>
      </trkpt>
      <trkpt lat="45.96739" lon="4.70877">
        <ele>288</ele>
        <time>2018-08-02T10:11:14Z</time>
      </trkpt>
      <trkpt lat="45.96747" lon="4.70884">
        <ele>287</ele>
        <time>2018-08-02T10:11:15Z</time>
      </trkpt>
      <trkpt lat="45.96756" lon="4.7089">
        <ele>288</ele>
        <time>2018-08-02T10:11:16Z</time>
      </trkpt>
      <trkpt lat="45.96765" lon="4.70896">
        <ele>288</ele>
        <time>2018-08-02T10:11:17Z</time>
      </trkpt>
      <trkpt lat="45.96774" lon="4.70901">
        <ele>288</ele>
        <time>2018-08-02T10:11:18Z</time>
      </trkpt>
      <trkpt lat="45.96783" lon="4.70907">
        <ele>288</ele>
        <time>2018-08-02T10:11:19Z</time>
      </trkpt>
      <trkpt lat="45.96792" lon="4.70913">
        <ele>288</ele>
        <time>2018-08-02T10:11:20Z</time>
      </trkpt>
      <trkpt lat="45.96802" lon="4.70919">
        <ele>280</ele>
        <time>2018-08-02T10:11:21Z</time>
      </trkpt>
      <trkpt lat="45.9681" lon="4.70924">
        <ele>281</ele>
        <time>2018-08-02T10:11:22Z</time>
      </trkpt>
      <trkpt lat="45.96819" lon="4.70929">
        <ele>281</ele>
        <time>2018-08-02T10:11:23Z</time>
      </trkpt>
      <trkpt lat="45.96828" lon="4.70934">
        <ele>281</ele>
        <time>2018-08-02T10:11:24Z</time>
      </trkpt>
      <trkpt lat="45.96837" lon="4.7094">
        <ele>282</ele>
        <time>2018-08-02T10:11:25Z</time>
      </trkpt>
      <trkpt lat="45.96845" lon="4.70946">
        <ele>281</ele>
        <time>2018-08-02T10:11:26Z</time>
      </trkpt>
      <trkpt lat="45.96853" lon="4.70953">
        <ele>280</ele>
        <time>2018-08-02T10:11:27Z</time>
      </trkpt>
      <trkpt lat="45.96862" lon="4.70959">
        <ele>279</ele>
        <time>2018-08-02T10:11:28Z</time>
      </trkpt>
      <trkpt lat="45.96872" lon="4.70963">
        <ele>279</ele>
        <time>2018-08-02T10:11:29Z</time>
      </trkpt>
      <trkpt lat="45.96881" lon="4.70967">
        <ele>279</ele>
        <time>2018-08-02T10:11:30Z</time>
      </trkpt>
      <trkpt lat="45.9689" lon="4.70971">
        <ele>278</ele>
        <time>2018-08-02T10:11:31Z</time>
      </trkpt>
      <trkpt lat="45.969" lon="4.70973">
        <ele>278</ele>
        <time>2018-08-02T10:11:32Z</time>
      </trkpt>
      <trkpt lat="45.96909" lon="4.70975">
        <ele>277</ele>
        <time>2018-08-02T10:11:33Z</time>
      </trkpt>
      <trkpt lat="45.96919" lon="4.70977">
        <ele>275</ele>
        <time>2018-08-02T10:11:34Z</time>
      </trkpt>
      <trkpt lat="45.96928" lon="4.7098">
        <ele>275</ele>
        <time>2018-08-02T10:11:35Z</time>
      </trkpt>
      <trkpt lat="45.96938" lon="4.70982">
        <ele>275</ele>
        <time>2018-08-02T10:11:36Z</time>
      </trkpt>
      <trkpt lat="45.96947" lon="4.70985">
        <ele>275</ele>
        <time>2018-08-02T10:11:37Z</time>
      </trkpt>
      <trkpt lat="45.96956" lon="4.70987">
        <ele>275</ele>
        <time>2018-08-02T10:11:38Z</time>
      </trkpt>
      <trkpt lat="45.96965" lon="4.70988">
        <ele>274</ele>
        <time>2018-08-02T10:11:39Z</time>
      </trkpt>
      <trkpt lat="45.96974" lon="4.7099">
        <ele>273</ele>
        <time>2018-08-02T10:11:40Z</time>
      </trkpt>
      <trkpt lat="45.96985" lon="4.70989">
        <ele>272</ele>
        <time>2018-08-02T10:11:41Z</time>
      </trkpt>
      <trkpt lat="45.96994" lon="4.70991">
        <ele>271</ele>
        <time>2018-08-02T10:11:42Z</time>
      </trkpt>
      <trkpt lat="45.97004" lon="4.7099">
        <ele>269</ele>
        <time>2018-08-02T10:11:43Z</time>
      </trkpt>
      <trkpt lat="45.97013" lon="4.70991">
        <ele>269</ele>
        <time>2018-08-02T10:11:44Z</time>
      </trkpt>
      <trkpt lat="45.97023" lon="4.7099">
        <ele>269</ele>
        <time>2018-08-02T10:11:45Z</time>
      </trkpt>
      <trkpt lat="45.97032" lon="4.7099">
        <ele>269</ele>
        <time>2018-08-02T10:11:46Z</time>
      </trkpt>
      <trkpt lat="45.97042" lon="4.7099">
        <ele>269</ele>
        <time>2018-08-02T10:11:47Z</time>
      </trkpt>
      <trkpt lat="45.97052" lon="4.7099">
        <ele>269</ele>
        <time>2018-08-02T10:11:48Z</time>
      </trkpt>
      <trkpt lat="45.97061" lon="4.7099">
        <ele>268</ele>
        <time>2018-08-02T10:11:49Z</time>
      </trkpt>
      <trkpt lat="45.97071" lon="4.70988">
        <ele>267</ele>
        <time>2018-08-02T10:11:50Z</time>
      </trkpt>
      <trkpt lat="45.97083" lon="4.70984">
        <ele>267</ele>
        <time>2018-08-02T10:11:51Z</time>
      </trkpt>
      <trkpt lat="45.97092" lon="4.70982">
        <ele>264</ele>
        <time>2018-08-02T10:11:52Z</time>
      </trkpt>
      <trkpt lat="45.97103" lon="4.70977">
        <ele>264</ele>
        <time>2018-08-02T10:11:53Z</time>
      </trkpt>
      <trkpt lat="45.97113" lon="4.70975">
        <ele>264</ele>
        <time>2018-08-02T10:11:54Z</time>
      </trkpt>
      <trkpt lat="45.97125" lon="4.70967">
        <ele>264</ele>
        <time>2018-08-02T10:11:55Z</time>
      </trkpt>
      <trkpt lat="45.97137" lon="4.7096">
        <ele>263</ele>
        <time>2018-08-02T10:11:56Z</time>
      </trkpt>
      <trkpt lat="45.97146" lon="4.70957">
        <ele>263</ele>
        <time>2018-08-02T10:11:57Z</time>
      </trkpt>
      <trkpt lat="45.97152" lon="4.70956">
        <ele>263</ele>
        <time>2018-08-02T10:11:58Z</time>
      </trkpt>
      <trkpt lat="45.97163" lon="4.7095">
        <ele>263</ele>
        <time>2018-08-02T10:11:59Z</time>
      </trkpt>
      <trkpt lat="45.9717" lon="4.70945">
        <ele>258</ele>
        <time>2018-08-02T10:12:00Z</time>
      </trkpt>
      <trkpt lat="45.97179" lon="4.7094">
        <ele>258</ele>
        <time>2018-08-02T10:12:01Z</time>
      </trkpt>
      <trkpt lat="45.97187" lon="4.70932">
        <ele>258</ele>
        <time>2018-08-02T10:12:02Z</time>
      </trkpt>
      <trkpt lat="45.97194" lon="4.70929">
        <ele>257</ele>
        <time>2018-08-02T10:12:03Z</time>
      </trkpt>
      <trkpt lat="45.97203" lon="4.70921">
        <ele>257</ele>
        <time>2018-08-02T10:12:04Z</time>
      </trkpt>
      <trkpt lat="45.97211" lon="4.70914">
        <ele>260</ele>
        <time>2018-08-02T10:12:05Z</time>
      </trkpt>
      <trkpt lat="45.97219" lon="4.70905">
        <ele>259</ele>
        <time>2018-08-02T10:12:06Z</time>
      </trkpt>
      <trkpt lat="45.97226" lon="4.70898">
        <ele>259</ele>
        <time>2018-08-02T10:12:07Z</time>
      </trkpt>
      <trkpt lat="45.97233" lon="4.7089">
        <ele>259</ele>
        <time>2018-08-02T10:12:08Z</time>
      </trkpt>
      <trkpt lat="45.97242" lon="4.70878">
        <ele>259</ele>
        <time>2018-08-02T10:12:09Z</time>
      </trkpt>
      <trkpt lat="45.97248" lon="4.70869">
        <ele>259</ele>
        <time>2018-08-02T10:12:10Z</time>
      </trkpt>
      <trkpt lat="45.97256" lon="4.70859">
        <ele>253</ele>
        <time>2018-08-02T10:12:11Z</time>
      </trkpt>
      <trkpt lat="45.97263" lon="4.70848">
        <ele>254</ele>
        <time>2018-08-02T10:12:12Z</time>
      </trkpt>
      <trkpt lat="45.97269" lon="4.70838">
        <ele>254</ele>
        <time>2018-08-02T10:12:13Z</time>
      </trkpt>
      <trkpt lat="45.97276" lon="4.70827">
        <ele>255</ele>
        <time>2018-08-02T10:12:14Z</time>
      </trkpt>
      <trkpt lat="45.97282" lon="4.70818">
        <ele>254</ele>
        <time>2018-08-02T10:12:15Z</time>
      </trkpt>
      <trkpt lat="45.97288" lon="4.7081">
        <ele>254</ele>
        <time>2018-08-02T10:12:16Z</time>
      </trkpt>
      <trkpt lat="45.97294" lon="4.70803">
        <ele>253</ele>
        <time>2018-08-02T10:12:17Z</time>
      </trkpt>
      <trkpt lat="45.973" lon="4.70795">
        <ele>253</ele>
        <time>2018-08-02T10:12:18Z</time>
      </trkpt>
      <trkpt lat="45.97306" lon="4.70789">
        <ele>253</ele>
        <time>2018-08-02T10:12:19Z</time>
      </trkpt>
      <trkpt lat="45.97311" lon="4.70784">
        <ele>253</ele>
        <time>2018-08-02T10:12:20Z</time>
      </trkpt>
      <trkpt lat="45.97317" lon="4.70778">
        <ele>252</ele>
        <time>2018-08-02T10:12:21Z</time>
      </trkpt>
      <trkpt lat="45.97322" lon="4.70774">
        <ele>252</ele>
        <time>2018-08-02T10:12:22Z</time>
      </trkpt>
      <trkpt lat="45.9733" lon="4.7077">
        <ele>251</ele>
        <time>2018-08-02T10:12:23Z</time>
      </trkpt>
      <trkpt lat="45.97335" lon="4.70768">
        <ele>246</ele>
        <time>2018-08-02T10:12:24Z</time>
      </trkpt>
      <trkpt lat="45.97343" lon="4.70764">
        <ele>246</ele>
        <time>2018-08-02T10:12:25Z</time>
      </trkpt>
      <trkpt lat="45.97352" lon="4.70758">
        <ele>246</ele>
        <time>2018-08-02T10:12:26Z</time>
      </trkpt>
      <trkpt lat="45.9736" lon="4.70756">
        <ele>245</ele>
        <time>2018-08-02T10:12:27Z</time>
      </trkpt>
      <trkpt lat="45.97367" lon="4.70753">
        <ele>245</ele>
        <time>2018-08-02T10:12:28Z</time>
      </trkpt>
      <trkpt lat="45.97377" lon="4.70748">
        <ele>244</ele>
        <time>2018-08-02T10:12:29Z</time>
      </trkpt>
      <trkpt lat="45.97385" lon="4.70743">
        <ele>243</ele>
        <time>2018-08-02T10:12:30Z</time>
      </trkpt>
      <trkpt lat="45.97391" lon="4.70744">
        <ele>243</ele>
        <time>2018-08-02T10:12:31Z</time>
      </trkpt>
      <trkpt lat="45.974" lon="4.70744">
        <ele>242</ele>
        <time>2018-08-02T10:12:32Z</time>
      </trkpt>
      <trkpt lat="45.97408" lon="4.70745">
        <ele>241</ele>
        <time>2018-08-02T10:12:33Z</time>
      </trkpt>
      <trkpt lat="45.97416" lon="4.70745">
        <ele>241</ele>
        <time>2018-08-02T10:12:34Z</time>
      </trkpt>
      <trkpt lat="45.97424" lon="4.70747">
        <ele>239</ele>
        <time>2018-08-02T10:12:35Z</time>
      </trkpt>
      <trkpt lat="45.97433" lon="4.70748">
        <ele>239</ele>
        <time>2018-08-02T10:12:36Z</time>
      </trkpt>
      <trkpt lat="45.97441" lon="4.7075">
        <ele>239</ele>
        <time>2018-08-02T10:12:37Z</time>
      </trkpt>
      <trkpt lat="45.97449" lon="4.70751">
        <ele>238</ele>
        <time>2018-08-02T10:12:38Z</time>
      </trkpt>
      <trkpt lat="45.97459" lon="4.7075">
        <ele>238</ele>
        <time>2018-08-02T10:12:39Z</time>
      </trkpt>
      <trkpt lat="45.97466" lon="4.70749">
        <ele>238</ele>
        <time>2018-08-02T10:12:40Z</time>
      </trkpt>
      <trkpt lat="45.97474" lon="4.70748">
        <ele>237</ele>
        <time>2018-08-02T10:12:41Z</time>
      </trkpt>
      <trkpt lat="45.97479" lon="4.70749">
        <ele>237</ele>
        <time>2018-08-02T10:12:42Z</time>
      </trkpt>
      <trkpt lat="45.97486" lon="4.70747">
        <ele>237</ele>
        <time>2018-08-02T10:12:43Z</time>
      </trkpt>
      <trkpt lat="45.97495" lon="4.70743">
        <ele>237</ele>
        <time>2018-08-02T10:12:44Z</time>
      </trkpt>
      <trkpt lat="45.97503" lon="4.7074">
        <ele>235</ele>
        <time>2018-08-02T10:12:45Z</time>
      </trkpt>
      <trkpt lat="45.97511" lon="4.70738">
        <ele>235</ele>
        <time>2018-08-02T10:12:46Z</time>
      </trkpt>
      <trkpt lat="45.97517" lon="4.70737">
        <ele>235</ele>
        <time>2018-08-02T10:12:47Z</time>
      </trkpt>
      <trkpt lat="45.97522" lon="4.70737">
        <ele>234</ele>
        <time>2018-08-02T10:12:48Z</time>
      </trkpt>
      <trkpt lat="45.97529" lon="4.70737">
        <ele>234</ele>
        <time>2018-08-02T10:12:49Z</time>
      </trkpt>
      <trkpt lat="45.97536" lon="4.70737">
        <ele>234</ele>
        <time>2018-08-02T10:12:50Z</time>
      </trkpt>
      <trkpt lat="45.97542" lon="4.70736">
        <ele>233</ele>
        <time>2018-08-02T10:12:51Z</time>
      </trkpt>
      <trkpt lat="45.97548" lon="4.70734">
        <ele>233</ele>
        <time>2018-08-02T10:12:52Z</time>
      </trkpt>
      <trkpt lat="45.97555" lon="4.70734">
        <ele>233</ele>
        <time>2018-08-02T10:12:53Z</time>
      </trkpt>
      <trkpt lat="45.9756" lon="4.70733">
        <ele>233</ele>
        <time>2018-08-02T10:12:54Z</time>
      </trkpt>
      <trkpt lat="45.97568" lon="4.7073">
        <ele>233</ele>
        <time>2018-08-02T10:12:55Z</time>
      </trkpt>
      <trkpt lat="45.97576" lon="4.70727">
        <ele>232</ele>
        <time>2018-08-02T10:12:56Z</time>
      </trkpt>
      <trkpt lat="45.97585" lon="4.70727">
        <ele>229</ele>
        <time>2018-08-02T10:12:57Z</time>
      </trkpt>
      <trkpt lat="45.97596" lon="4.70728">
        <ele>229</ele>
        <time>2018-08-02T10:12:58Z</time>
      </trkpt>
      <trkpt lat="45.97603" lon="4.70729">
        <ele>229</ele>
        <time>2018-08-02T10:12:59Z</time>
      </trkpt>
      <trkpt lat="45.97611" lon="4.7073">
        <ele>229</ele>
        <time>2018-08-02T10:13:00Z</time>
      </trkpt>
      <trkpt lat="45.97619" lon="4.70735">
        <ele>228</ele>
        <time>2018-08-02T10:13:01Z</time>
      </trkpt>
      <trkpt lat="45.97626" lon="4.70738">
        <ele>228</ele>
        <time>2018-08-02T10:13:02Z</time>
      </trkpt>
      <trkpt lat="45.97635" lon="4.7074">
        <ele>227</ele>
        <time>2018-08-02T10:13:03Z</time>
      </trkpt>
      <trkpt lat="45.97643" lon="4.70742">
        <ele>227</ele>
        <time>2018-08-02T10:13:04Z</time>
      </trkpt>
      <trkpt lat="45.97651" lon="4.70746">
        <ele>226</ele>
        <time>2018-08-02T10:13:05Z</time>
      </trkpt>
      <trkpt lat="45.97659" lon="4.70749">
        <ele>225</ele>
        <time>2018-08-02T10:13:06Z</time>
      </trkpt>
      <trkpt lat="45.97667" lon="4.70753">
        <ele>224</ele>
        <time>2018-08-02T10:13:07Z</time>
      </trkpt>
      <trkpt lat="45.97675" lon="4.70755">
        <ele>224</ele>
        <time>2018-08-02T10:13:08Z</time>
      </trkpt>
      <trkpt lat="45.97683" lon="4.70759">
        <ele>223</ele>
        <time>2018-08-02T10:13:09Z</time>
      </trkpt>
      <trkpt lat="45.9769" lon="4.70762">
        <ele>223</ele>
        <time>2018-08-02T10:13:10Z</time>
      </trkpt>
      <trkpt lat="45.97697" lon="4.70766">
        <ele>223</ele>
        <time>2018-08-02T10:13:11Z</time>
      </trkpt>
      <trkpt lat="45.97705" lon="4.70769">
        <ele>223</ele>
        <time>2018-08-02T10:13:12Z</time>
      </trkpt>
      <trkpt lat="45.97713" lon="4.70772">
        <ele>223</ele>
        <time>2018-08-02T10:13:13Z</time>
      </trkpt>
      <trkpt lat="45.97721" lon="4.70775">
        <ele>222</ele>
        <time>2018-08-02T10:13:14Z</time>
      </trkpt>
      <trkpt lat="45.97729" lon="4.70776">
        <ele>222</ele>
        <time>2018-08-02T10:13:15Z</time>
      </trkpt>
      <trkpt lat="45.97738" lon="4.70779">
        <ele>222</ele>
        <time>2018-08-02T10:13:16Z</time>
      </trkpt>
      <trkpt lat="45.97746" lon="4.70779">
        <ele>222</ele>
        <time>2018-08-02T10:13:17Z</time>
      </trkpt>
      <trkpt lat="45.97755" lon="4.70783">
        <ele>221</ele>
        <time>2018-08-02T10:13:18Z</time>
      </trkpt>
      <trkpt lat="45.97762" lon="4.70785">
        <ele>221</ele>
        <time>2018-08-02T10:13:19Z</time>
      </trkpt>
      <trkpt lat="45.97767" lon="4.70788">
        <ele>221</ele>
        <time>2018-08-02T10:13:20Z</time>
      </trkpt>
      <trkpt lat="45.97771" lon="4.70793">
        <ele>221</ele>
        <time>2018-08-02T10:13:21Z</time>
      </trkpt>
      <trkpt lat="45.97778" lon="4.70796">
        <ele>221</ele>
        <time>2018-08-02T10:13:22Z</time>
      </trkpt>
      <trkpt lat="45.97783" lon="4.708">
        <ele>221</ele>
        <time>2018-08-02T10:13:23Z</time>
      </trkpt>
      <trkpt lat="45.97789" lon="4.70804">
        <ele>221</ele>
        <time>2018-08-02T10:13:24Z</time>
      </trkpt>
      <trkpt lat="45.97795" lon="4.70808">
        <ele>221</ele>
        <time>2018-08-02T10:13:25Z</time>
      </trkpt>
      <trkpt lat="45.978" lon="4.70814">
        <ele>221</ele>
        <time>2018-08-02T10:13:26Z</time>
      </trkpt>
      <trkpt lat="45.97805" lon="4.70819">
        <ele>221</ele>
        <time>2018-08-02T10:13:27Z</time>
      </trkpt>
      <trkpt lat="45.97808" lon="4.70826">
        <ele>221</ele>
        <time>2018-08-02T10:13:28Z</time>
      </trkpt>
      <trkpt lat="45.9781" lon="4.70833">
        <ele>221</ele>
        <time>2018-08-02T10:13:29Z</time>
      </trkpt>
      <trkpt lat="45.97812" lon="4.70843">
        <ele>220</ele>
        <time>2018-08-02T10:13:30Z</time>
      </trkpt>
      <trkpt lat="45.97813" lon="4.7085">
        <ele>220</ele>
        <time>2018-08-02T10:13:31Z</time>
      </trkpt>
      <trkpt lat="45.97815" lon="4.7086">
        <ele>220</ele>
        <time>2018-08-02T10:13:32Z</time>
      </trkpt>
      <trkpt lat="45.97815" lon="4.70868">
        <ele>220</ele>
        <time>2018-08-02T10:13:33Z</time>
      </trkpt>
      <trkpt lat="45.97816" lon="4.70877">
        <ele>220</ele>
        <time>2018-08-02T10:13:34Z</time>
      </trkpt>
      <trkpt lat="45.97816" lon="4.70885">
        <ele>220</ele>
        <time>2018-08-02T10:13:35Z</time>
      </trkpt>
      <trkpt lat="45.97815" lon="4.70892">
        <ele>220</ele>
        <time>2018-08-02T10:13:36Z</time>
      </trkpt>
      <trkpt lat="45.97815" lon="4.709">
        <ele>220</ele>
        <time>2018-08-02T10:13:37Z</time>
      </trkpt>
      <trkpt lat="45.97815" lon="4.7091">
        <ele>220</ele>
        <time>2018-08-02T10:13:38Z</time>
      </trkpt>
      <trkpt lat="45.97814" lon="4.70921">
        <ele>219</ele>
        <time>2018-08-02T10:13:39Z</time>
      </trkpt>
      <trkpt lat="45.97815" lon="4.70933">
        <ele>218</ele>
        <time>2018-08-02T10:13:40Z</time>
      </trkpt>
      <trkpt lat="45.97819" lon="4.70941">
        <ele>218</ele>
        <time>2018-08-02T10:13:41Z</time>
      </trkpt>
      <trkpt lat="45.97822" lon="4.70948">
        <ele>218</ele>
        <time>2018-08-02T10:13:42Z</time>
      </trkpt>
      <trkpt lat="45.97825" lon="4.70956">
        <ele>218</ele>
        <time>2018-08-02T10:13:43Z</time>
      </trkpt>
      <trkpt lat="45.97825" lon="4.70964">
        <ele>218</ele>
        <time>2018-08-02T10:13:44Z</time>
      </trkpt>
      <trkpt lat="45.97826" lon="4.70974">
        <ele>218</ele>
        <time>2018-08-02T10:13:45Z</time>
      </trkpt>
      <trkpt lat="45.97827" lon="4.70983">
        <ele>217</ele>
        <time>2018-08-02T10:13:46Z</time>
      </trkpt>
      <trkpt lat="45.97828" lon="4.70994">
        <ele>217</ele>
        <time>2018-08-02T10:13:47Z</time>
      </trkpt>
      <trkpt lat="45.97829" lon="4.71004">
        <ele>216</ele>
        <time>2018-08-02T10:13:48Z</time>
      </trkpt>
      <trkpt lat="45.9783" lon="4.71013">
        <ele>216</ele>
        <time>2018-08-02T10:13:49Z</time>
      </trkpt>
      <trkpt lat="45.97832" lon="4.71024">
        <ele>216</ele>
        <time>2018-08-02T10:13:50Z</time>
      </trkpt>
      <trkpt lat="45.97834" lon="4.71036">
        <ele>216</ele>
        <time>2018-08-02T10:13:51Z</time>
      </trkpt>
      <trkpt lat="45.97835" lon="4.71045">
        <ele>215</ele>
        <time>2018-08-02T10:13:52Z</time>
      </trkpt>
      <trkpt lat="45.97837" lon="4.71056">
        <ele>215</ele>
        <time>2018-08-02T10:13:53Z</time>
      </trkpt>
      <trkpt lat="45.97838" lon="4.71067">
        <ele>215</ele>
        <time>2018-08-02T10:13:54Z</time>
      </trkpt>
      <trkpt lat="45.97839" lon="4.71077">
        <ele>215</ele>
        <time>2018-08-02T10:13:55Z</time>
      </trkpt>
      <trkpt lat="45.9784" lon="4.71088">
        <ele>214</ele>
        <time>2018-08-02T10:13:56Z</time>
      </trkpt>
      <trkpt lat="45.97842" lon="4.71099">
        <ele>213</ele>
        <time>2018-08-02T10:13:57Z</time>
      </trkpt>
      <trkpt lat="45.97842" lon="4.71109">
        <ele>213</ele>
        <time>2018-08-02T10:13:58Z</time>
      </trkpt>
      <trkpt lat="45.97842" lon="4.71119">
        <ele>213</ele>
        <time>2018-08-02T10:13:59Z</time>
      </trkpt>
      <trkpt lat="45.97842" lon="4.71128">
        <ele>212</ele>
        <time>2018-08-02T10:14:00Z</time>
      </trkpt>
      <trkpt lat="45.97842" lon="4.71138">
        <ele>212</ele>
        <time>2018-08-02T10:14:01Z</time>
      </trkpt>
      <trkpt lat="45.97844" lon="4.71147">
        <ele>212</ele>
        <time>2018-08-02T10:14:02Z</time>
      </trkpt>
      <trkpt lat="45.97845" lon="4.71156">
        <ele>212</ele>
        <time>2018-08-02T10:14:03Z</time>
      </trkpt>
      <trkpt lat="45.97847" lon="4.71164">
        <ele>212</ele>
        <time>2018-08-02T10:14:04Z</time>
      </trkpt>
      <trkpt lat="45.97847" lon="4.71172">
        <ele>210</ele>
        <time>2018-08-02T10:14:05Z</time>
      </trkpt>
      <trkpt lat="45.97848" lon="4.71179">
        <ele>210</ele>
        <time>2018-08-02T10:14:06Z</time>
      </trkpt>
      <trkpt lat="45.97848" lon="4.71185">
        <ele>209</ele>
        <time>2018-08-02T10:14:07Z</time>
      </trkpt>
      <trkpt lat="45.97848" lon="4.71193">
        <ele>209</ele>
        <time>2018-08-02T10:14:08Z</time>
      </trkpt>
      <trkpt lat="45.97848" lon="4.71201">
        <ele>209</ele>
        <time>2018-08-02T10:14:09Z</time>
      </trkpt>
      <trkpt lat="45.97848" lon="4.71209">
        <ele>209</ele>
        <time>2018-08-02T10:14:10Z</time>
      </trkpt>
      <trkpt lat="45.97848" lon="4.71218">
        <ele>208</ele>
        <time>2018-08-02T10:14:11Z</time>
      </trkpt>
      <trkpt lat="45.97849" lon="4.71228">
        <ele>208</ele>
        <time>2018-08-02T10:14:12Z</time>
      </trkpt>
      <trkpt lat="45.9785" lon="4.71236">
        <ele>208</ele>
        <time>2018-08-02T10:14:13Z</time>
      </trkpt>
      <trkpt lat="45.97849" lon="4.71245">
        <ele>208</ele>
        <time>2018-08-02T10:14:14Z</time>
      </trkpt>
      <trkpt lat="45.97849" lon="4.71255">
        <ele>207</ele>
        <time>2018-08-02T10:14:15Z</time>
      </trkpt>
      <trkpt lat="45.97849" lon="4.71264">
        <ele>207</ele>
        <time>2018-08-02T10:14:16Z</time>
      </trkpt>
      <trkpt lat="45.97849" lon="4.71275">
        <ele>206</ele>
        <time>2018-08-02T10:14:17Z</time>
      </trkpt>
      <trkpt lat="45.97849" lon="4.71286">
        <ele>206</ele>
        <time>2018-08-02T10:14:18Z</time>
      </trkpt>
      <trkpt lat="45.97849" lon="4.71297">
        <ele>206</ele>
        <time>2018-08-02T10:14:19Z</time>
      </trkpt>
      <trkpt lat="45.97849" lon="4.71308">
        <ele>205</ele>
        <time>2018-08-02T10:14:20Z</time>
      </trkpt>
      <trkpt lat="45.97849" lon="4.71319">
        <ele>205</ele>
        <time>2018-08-02T10:14:21Z</time>
      </trkpt>
      <trkpt lat="45.9785" lon="4.71329">
        <ele>205</ele>
        <time>2018-08-02T10:14:22Z</time>
      </trkpt>
      <trkpt lat="45.97849" lon="4.71339">
        <ele>204</ele>
        <time>2018-08-02T10:14:23Z</time>
      </trkpt>
      <trkpt lat="45.97849" lon="4.71349">
        <ele>204</ele>
        <time>2018-08-02T10:14:24Z</time>
      </trkpt>
      <trkpt lat="45.97847" lon="4.71357">
        <ele>204</ele>
        <time>2018-08-02T10:14:25Z</time>
      </trkpt>
      <trkpt lat="45.97847" lon="4.71367">
        <ele>204</ele>
        <time>2018-08-02T10:14:26Z</time>
      </trkpt>
      <trkpt lat="45.97848" lon="4.71379">
        <ele>203</ele>
        <time>2018-08-02T10:14:27Z</time>
      </trkpt>
      <trkpt lat="45.97847" lon="4.71389">
        <ele>203</ele>
        <time>2018-08-02T10:14:28Z</time>
      </trkpt>
      <trkpt lat="45.97848" lon="4.71399">
        <ele>203</ele>
        <time>2018-08-02T10:14:29Z</time>
      </trkpt>
      <trkpt lat="45.9785" lon="4.71407">
        <ele>203</ele>
        <time>2018-08-02T10:14:30Z</time>
      </trkpt>
      <trkpt lat="45.97852" lon="4.71417">
        <ele>202</ele>
        <time>2018-08-02T10:14:31Z</time>
      </trkpt>
      <trkpt lat="45.97854" lon="4.71425">
        <ele>202</ele>
        <time>2018-08-02T10:14:32Z</time>
      </trkpt>
      <trkpt lat="45.97855" lon="4.71434">
        <ele>201</ele>
        <time>2018-08-02T10:14:33Z</time>
      </trkpt>
      <trkpt lat="45.97857" lon="4.71444">
        <ele>201</ele>
        <time>2018-08-02T10:14:34Z</time>
      </trkpt>
      <trkpt lat="45.97858" lon="4.71455">
        <ele>201</ele>
        <time>2018-08-02T10:14:35Z</time>
      </trkpt>
      <trkpt lat="45.97859" lon="4.71462">
        <ele>201</ele>
        <time>2018-08-02T10:14:36Z</time>
      </trkpt>
      <trkpt lat="45.97861" lon="4.71473">
        <ele>201</ele>
        <time>2018-08-02T10:14:37Z</time>
      </trkpt>
      <trkpt lat="45.97863" lon="4.71484">
        <ele>201</ele>
        <time>2018-08-02T10:14:38Z</time>
      </trkpt>
      <trkpt lat="45.97865" lon="4.71493">
        <ele>201</ele>
        <time>2018-08-02T10:14:39Z</time>
      </trkpt>
      <trkpt lat="45.97866" lon="4.71499">
        <ele>201</ele>
        <time>2018-08-02T10:14:40Z</time>
      </trkpt>
      <trkpt lat="45.97867" lon="4.71508">
        <ele>199</ele>
        <time>2018-08-02T10:14:41Z</time>
      </trkpt>
      <trkpt lat="45.97871" lon="4.71519">
        <ele>199</ele>
        <time>2018-08-02T10:14:42Z</time>
      </trkpt>
      <trkpt lat="45.97873" lon="4.71529">
        <ele>199</ele>
        <time>2018-08-02T10:14:43Z</time>
      </trkpt>
      <trkpt lat="45.97872" lon="4.71536">
        <ele>199</ele>
        <time>2018-08-02T10:14:44Z</time>
      </trkpt>
      <trkpt lat="45.97872" lon="4.71545">
        <ele>199</ele>
        <time>2018-08-02T10:14:45Z</time>
      </trkpt>
      <trkpt lat="45.97873" lon="4.71555">
        <ele>199</ele>
        <time>2018-08-02T10:14:46Z</time>
      </trkpt>
      <trkpt lat="45.97875" lon="4.71564">
        <ele>198</ele>
        <time>2018-08-02T10:14:47Z</time>
      </trkpt>
      <trkpt lat="45.97876" lon="4.71573">
        <ele>198</ele>
        <time>2018-08-02T10:14:48Z</time>
      </trkpt>
      <trkpt lat="45.97877" lon="4.71583">
        <ele>198</ele>
        <time>2018-08-02T10:14:49Z</time>
      </trkpt>
      <trkpt lat="45.97878" lon="4.71592">
        <ele>197</ele>
        <time>2018-08-02T10:14:50Z</time>
      </trkpt>
      <trkpt lat="45.97877" lon="4.71602">
        <ele>197</ele>
        <time>2018-08-02T10:14:51Z</time>
      </trkpt>
      <trkpt lat="45.97877" lon="4.71611">
        <ele>197</ele>
        <time>2018-08-02T10:14:52Z</time>
      </trkpt>
      <trkpt lat="45.97878" lon="4.71624">
        <ele>197</ele>
        <time>2018-08-02T10:14:53Z</time>
      </trkpt>
      <trkpt lat="45.97878" lon="4.71635">
        <ele>197</ele>
        <time>2018-08-02T10:14:54Z</time>
      </trkpt>
      <trkpt lat="45.97879" lon="4.71642">
        <ele>197</ele>
        <time>2018-08-02T10:14:55Z</time>
      </trkpt>
      <trkpt lat="45.97878" lon="4.71649">
        <ele>197</ele>
        <time>2018-08-02T10:14:56Z</time>
      </trkpt>
      <trkpt lat="45.97875" lon="4.71658">
        <ele>197</ele>
        <time>2018-08-02T10:14:57Z</time>
      </trkpt>
      <trkpt lat="45.97875" lon="4.71666">
        <ele>197</ele>
        <time>2018-08-02T10:14:58Z</time>
      </trkpt>
      <trkpt lat="45.97871" lon="4.71672">
        <ele>196</ele>
        <time>2018-08-02T10:14:59Z</time>
      </trkpt>
      <trkpt lat="45.9787" lon="4.71681">
        <ele>196</ele>
        <time>2018-08-02T10:15:00Z</time>
      </trkpt>
      <trkpt lat="45.97867" lon="4.71688">
        <ele>196</ele>
        <time>2018-08-02T10:15:01Z</time>
      </trkpt>
      <trkpt lat="45.97865" lon="4.71696">
        <ele>196</ele>
        <time>2018-08-02T10:15:02Z</time>
      </trkpt>
      <trkpt lat="45.97862" lon="4.71702">
        <ele>196</ele>
        <time>2018-08-02T10:15:03Z</time>
      </trkpt>
      <trkpt lat="45.97859" lon="4.71709">
        <ele>196</ele>
        <time>2018-08-02T10:15:04Z</time>
      </trkpt>
      <trkpt lat="45.97854" lon="4.71713">
        <ele>196</ele>
        <time>2018-08-02T10:15:05Z</time>
      </trkpt>
      <trkpt lat="45.9785" lon="4.71716">
        <ele>196</ele>
        <time>2018-08-02T10:15:06Z</time>
      </trkpt>
      <trkpt lat="45.97849" lon="4.71726">
        <ele>196</ele>
        <time>2018-08-02T10:15:07Z</time>
      </trkpt>
      <trkpt lat="45.97841" lon="4.71733">
        <ele>196</ele>
        <time>2018-08-02T10:15:09Z</time>
      </trkpt>
      <trkpt lat="45.97837" lon="4.71738">
        <ele>195</ele>
        <time>2018-08-02T10:15:10Z</time>
      </trkpt>
      <trkpt lat="45.97831" lon="4.71742">
        <ele>195</ele>
        <time>2018-08-02T10:15:11Z</time>
      </trkpt>
      <trkpt lat="45.97825" lon="4.71739">
        <ele>196</ele>
        <time>2018-08-02T10:15:12Z</time>
      </trkpt>
      <trkpt lat="45.97819" lon="4.71741">
        <ele>196</ele>
        <time>2018-08-02T10:15:13Z</time>
      </trkpt>
      <trkpt lat="45.97812" lon="4.71742">
        <ele>196</ele>
        <time>2018-08-02T10:15:14Z</time>
      </trkpt>
      <trkpt lat="45.97806" lon="4.71741">
        <ele>196</ele>
        <time>2018-08-02T10:15:15Z</time>
      </trkpt>
      <trkpt lat="45.97802" lon="4.7174">
        <ele>196</ele>
        <time>2018-08-02T10:15:16Z</time>
      </trkpt>
      <trkpt lat="45.97796" lon="4.7174">
        <ele>196</ele>
        <time>2018-08-02T10:15:17Z</time>
      </trkpt>
      <trkpt lat="45.9779" lon="4.71739">
        <ele>196</ele>
        <time>2018-08-02T10:15:18Z</time>
      </trkpt>
      <trkpt lat="45.97784" lon="4.71738">
        <ele>196</ele>
        <time>2018-08-02T10:15:19Z</time>
      </trkpt>
      <trkpt lat="45.97779" lon="4.71738">
        <ele>196</ele>
        <time>2018-08-02T10:15:20Z</time>
      </trkpt>
      <trkpt lat="45.97773" lon="4.71736">
        <ele>196</ele>
        <time>2018-08-02T10:15:21Z</time>
      </trkpt>
      <trkpt lat="45.97767" lon="4.71735">
        <ele>196</ele>
        <time>2018-08-02T10:15:22Z</time>
      </trkpt>
      <trkpt lat="45.97761" lon="4.71734">
        <ele>196</ele>
        <time>2018-08-02T10:15:23Z</time>
      </trkpt>
      <trkpt lat="45.97755" lon="4.71733">
        <ele>196</ele>
        <time>2018-08-02T10:15:24Z</time>
      </trkpt>
      <trkpt lat="45.97749" lon="4.71731">
        <ele>196</ele>
        <time>2018-08-02T10:15:25Z</time>
      </trkpt>
      <trkpt lat="45.97745" lon="4.71731">
        <ele>196</ele>
        <time>2018-08-02T10:15:26Z</time>
      </trkpt>
      <trkpt lat="45.97739" lon="4.71731">
        <ele>196</ele>
        <time>2018-08-02T10:15:27Z</time>
      </trkpt>
      <trkpt lat="45.97733" lon="4.7173">
        <ele>196</ele>
        <time>2018-08-02T10:15:28Z</time>
      </trkpt>
      <trkpt lat="45.97728" lon="4.7173">
        <ele>196</ele>
        <time>2018-08-02T10:15:29Z</time>
      </trkpt>
      <trkpt lat="45.9772" lon="4.7173">
        <ele>196</ele>
        <time>2018-08-02T10:15:30Z</time>
      </trkpt>
      <trkpt lat="45.97716" lon="4.7173">
        <ele>196</ele>
        <time>2018-08-02T10:15:31Z</time>
      </trkpt>
      <trkpt lat="45.9771" lon="4.7173">
        <ele>196</ele>
        <time>2018-08-02T10:15:32Z</time>
      </trkpt>
      <trkpt lat="45.97706" lon="4.7173">
        <ele>196</ele>
        <time>2018-08-02T10:15:33Z</time>
      </trkpt>
      <trkpt lat="45.97701" lon="4.7173">
        <ele>196</ele>
        <time>2018-08-02T10:15:34Z</time>
      </trkpt>
      <trkpt lat="45.97695" lon="4.71729">
        <ele>196</ele>
        <time>2018-08-02T10:15:35Z</time>
      </trkpt>
      <trkpt lat="45.9769" lon="4.71727">
        <ele>196</ele>
        <time>2018-08-02T10:15:36Z</time>
      </trkpt>
      <trkpt lat="45.97683" lon="4.71725">
        <ele>196</ele>
        <time>2018-08-02T10:15:38Z</time>
      </trkpt>
      <trkpt lat="45.97677" lon="4.71726">
        <ele>196</ele>
        <time>2018-08-02T10:15:39Z</time>
      </trkpt>
      <trkpt lat="45.97671" lon="4.71724">
        <ele>196</ele>
        <time>2018-08-02T10:15:40Z</time>
      </trkpt>
      <trkpt lat="45.97666" lon="4.71723">
        <ele>196</ele>
        <time>2018-08-02T10:15:41Z</time>
      </trkpt>
      <trkpt lat="45.97658" lon="4.71723">
        <ele>196</ele>
        <time>2018-08-02T10:15:42Z</time>
      </trkpt>
      <trkpt lat="45.97651" lon="4.71723">
        <ele>196</ele>
        <time>2018-08-02T10:15:43Z</time>
      </trkpt>
      <trkpt lat="45.97645" lon="4.71722">
        <ele>196</ele>
        <time>2018-08-02T10:15:44Z</time>
      </trkpt>
      <trkpt lat="45.97639" lon="4.71721">
        <ele>196</ele>
        <time>2018-08-02T10:15:45Z</time>
      </trkpt>
      <trkpt lat="45.97631" lon="4.71724">
        <ele>196</ele>
        <time>2018-08-02T10:15:47Z</time>
      </trkpt>
      <trkpt lat="45.97628" lon="4.71717">
        <ele>197</ele>
        <time>2018-08-02T10:15:48Z</time>
      </trkpt>
      <trkpt lat="45.97625" lon="4.71714">
        <ele>197</ele>
        <time>2018-08-02T10:15:49Z</time>
      </trkpt>
      <trkpt lat="45.97619" lon="4.71711">
        <ele>197</ele>
        <time>2018-08-02T10:15:50Z</time>
      </trkpt>
      <trkpt lat="45.97616" lon="4.71711">
        <ele>197</ele>
        <time>2018-08-02T10:15:51Z</time>
      </trkpt>
      <trkpt lat="45.9761" lon="4.71711">
        <ele>197</ele>
        <time>2018-08-02T10:15:52Z</time>
      </trkpt>
      <trkpt lat="45.97605" lon="4.71712">
        <ele>197</ele>
        <time>2018-08-02T10:15:53Z</time>
      </trkpt>
      <trkpt lat="45.97599" lon="4.71714">
        <ele>197</ele>
        <time>2018-08-02T10:15:54Z</time>
      </trkpt>
      <trkpt lat="45.97594" lon="4.71717">
        <ele>197</ele>
        <time>2018-08-02T10:15:55Z</time>
      </trkpt>
      <trkpt lat="45.97588" lon="4.71721">
        <ele>197</ele>
        <time>2018-08-02T10:15:56Z</time>
      </trkpt>
      <trkpt lat="45.97582" lon="4.71721">
        <ele>197</ele>
        <time>2018-08-02T10:15:57Z</time>
      </trkpt>
      <trkpt lat="45.97573" lon="4.71723">
        <ele>197</ele>
        <time>2018-08-02T10:15:58Z</time>
      </trkpt>
      <trkpt lat="45.97568" lon="4.71721">
        <ele>198</ele>
        <time>2018-08-02T10:15:59Z</time>
      </trkpt>
      <trkpt lat="45.97561" lon="4.71718">
        <ele>198</ele>
        <time>2018-08-02T10:16:00Z</time>
      </trkpt>
      <trkpt lat="45.97557" lon="4.71718">
        <ele>198</ele>
        <time>2018-08-02T10:16:01Z</time>
      </trkpt>
      <trkpt lat="45.97551" lon="4.71719">
        <ele>198</ele>
        <time>2018-08-02T10:16:02Z</time>
      </trkpt>
      <trkpt lat="45.97544" lon="4.71722">
        <ele>198</ele>
        <time>2018-08-02T10:16:04Z</time>
      </trkpt>
      <trkpt lat="45.9754" lon="4.7172">
        <ele>198</ele>
        <time>2018-08-02T10:16:05Z</time>
      </trkpt>
      <trkpt lat="45.97532" lon="4.71718">
        <ele>198</ele>
        <time>2018-08-02T10:16:06Z</time>
      </trkpt>
      <trkpt lat="45.97529" lon="4.71717">
        <ele>198</ele>
        <time>2018-08-02T10:16:07Z</time>
      </trkpt>
      <trkpt lat="45.9752" lon="4.71715">
        <ele>198</ele>
        <time>2018-08-02T10:16:08Z</time>
      </trkpt>
      <trkpt lat="45.97514" lon="4.71714">
        <ele>199</ele>
        <time>2018-08-02T10:16:09Z</time>
      </trkpt>
      <trkpt lat="45.97509" lon="4.71713">
        <ele>199</ele>
        <time>2018-08-02T10:16:10Z</time>
      </trkpt>
      <trkpt lat="45.97502" lon="4.71712">
        <ele>199</ele>
        <time>2018-08-02T10:16:11Z</time>
      </trkpt>
      <trkpt lat="45.97497" lon="4.71713">
        <ele>198</ele>
        <time>2018-08-02T10:16:12Z</time>
      </trkpt>
      <trkpt lat="45.97489" lon="4.71712">
        <ele>198</ele>
        <time>2018-08-02T10:16:13Z</time>
      </trkpt>
      <trkpt lat="45.97485" lon="4.71713">
        <ele>198</ele>
        <time>2018-08-02T10:16:14Z</time>
      </trkpt>
      <trkpt lat="45.97479" lon="4.71713">
        <ele>198</ele>
        <time>2018-08-02T10:16:15Z</time>
      </trkpt>
      <trkpt lat="45.97471" lon="4.71711">
        <ele>197</ele>
        <time>2018-08-02T10:16:16Z</time>
      </trkpt>
      <trkpt lat="45.97466" lon="4.7171">
        <ele>197</ele>
        <time>2018-08-02T10:16:17Z</time>
      </trkpt>
      <trkpt lat="45.97462" lon="4.71709">
        <ele>197</ele>
        <time>2018-08-02T10:16:18Z</time>
      </trkpt>
      <trkpt lat="45.97456" lon="4.71708">
        <ele>197</ele>
        <time>2018-08-02T10:16:19Z</time>
      </trkpt>
      <trkpt lat="45.97451" lon="4.71709">
        <ele>197</ele>
        <time>2018-08-02T10:16:20Z</time>
      </trkpt>
      <trkpt lat="45.97447" lon="4.71708">
        <ele>197</ele>
        <time>2018-08-02T10:16:21Z</time>
      </trkpt>
      <trkpt lat="45.97441" lon="4.71708">
        <ele>197</ele>
        <time>2018-08-02T10:16:22Z</time>
      </trkpt>
      <trkpt lat="45.97433" lon="4.71708">
        <ele>197</ele>
        <time>2018-08-02T10:16:23Z</time>
      </trkpt>
      <trkpt lat="45.97429" lon="4.71707">
        <ele>197</ele>
        <time>2018-08-02T10:16:24Z</time>
      </trkpt>
      <trkpt lat="45.97423" lon="4.71708">
        <ele>196</ele>
        <time>2018-08-02T10:16:25Z</time>
      </trkpt>
      <trkpt lat="45.97415" lon="4.71708">
        <ele>195</ele>
        <time>2018-08-02T10:16:26Z</time>
      </trkpt>
      <trkpt lat="45.97408" lon="4.71708">
        <ele>195</ele>
        <time>2018-08-02T10:16:27Z</time>
      </trkpt>
      <trkpt lat="45.97403" lon="4.71707">
        <ele>195</ele>
        <time>2018-08-02T10:16:28Z</time>
      </trkpt>
      <trkpt lat="45.97397" lon="4.71706">
        <ele>195</ele>
        <time>2018-08-02T10:16:29Z</time>
      </trkpt>
      <trkpt lat="45.97392" lon="4.71706">
        <ele>195</ele>
        <time>2018-08-02T10:16:30Z</time>
      </trkpt>
      <trkpt lat="45.97385" lon="4.71706">
        <ele>195</ele>
        <time>2018-08-02T10:16:31Z</time>
      </trkpt>
      <trkpt lat="45.97381" lon="4.71706">
        <ele>195</ele>
        <time>2018-08-02T10:16:32Z</time>
      </trkpt>
      <trkpt lat="45.97376" lon="4.71705">
        <ele>195</ele>
        <time>2018-08-02T10:16:33Z</time>
      </trkpt>
      <trkpt lat="45.9737" lon="4.71704">
        <ele>195</ele>
        <time>2018-08-02T10:16:34Z</time>
      </trkpt>
      <trkpt lat="45.97364" lon="4.71705">
        <ele>195</ele>
        <time>2018-08-02T10:16:36Z</time>
      </trkpt>
      <trkpt lat="45.97361" lon="4.71704">
        <ele>195</ele>
        <time>2018-08-02T10:16:37Z</time>
      </trkpt>
      <trkpt lat="45.97354" lon="4.71703">
        <ele>195</ele>
        <time>2018-08-02T10:16:38Z</time>
      </trkpt>
      <trkpt lat="45.97351" lon="4.71703">
        <ele>195</ele>
        <time>2018-08-02T10:16:39Z</time>
      </trkpt>
      <trkpt lat="45.97346" lon="4.71702">
        <ele>196</ele>
        <time>2018-08-02T10:16:40Z</time>
      </trkpt>
      <trkpt lat="45.97341" lon="4.71702">
        <ele>196</ele>
        <time>2018-08-02T10:16:41Z</time>
      </trkpt>
      <trkpt lat="45.97335" lon="4.71701">
        <ele>196</ele>
        <time>2018-08-02T10:16:42Z</time>
      </trkpt>
      <trkpt lat="45.97329" lon="4.717">
        <ele>196</ele>
        <time>2018-08-02T10:16:43Z</time>
      </trkpt>
      <trkpt lat="45.97324" lon="4.71698">
        <ele>196</ele>
        <time>2018-08-02T10:16:44Z</time>
      </trkpt>
      <trkpt lat="45.9732" lon="4.71695">
        <ele>196</ele>
        <time>2018-08-02T10:16:45Z</time>
      </trkpt>
      <trkpt lat="45.97315" lon="4.71693">
        <ele>196</ele>
        <time>2018-08-02T10:16:46Z</time>
      </trkpt>
      <trkpt lat="45.9731" lon="4.71691">
        <ele>196</ele>
        <time>2018-08-02T10:16:47Z</time>
      </trkpt>
      <trkpt lat="45.97306" lon="4.71692">
        <ele>196</ele>
        <time>2018-08-02T10:16:48Z</time>
      </trkpt>
      <trkpt lat="45.973" lon="4.71694">
        <ele>196</ele>
        <time>2018-08-02T10:16:49Z</time>
      </trkpt>
      <trkpt lat="45.97293" lon="4.71696">
        <ele>196</ele>
        <time>2018-08-02T10:16:50Z</time>
      </trkpt>
      <trkpt lat="45.97287" lon="4.71699">
        <ele>196</ele>
        <time>2018-08-02T10:16:51Z</time>
      </trkpt>
      <trkpt lat="45.97281" lon="4.717">
        <ele>197</ele>
        <time>2018-08-02T10:16:52Z</time>
      </trkpt>
      <trkpt lat="45.97275" lon="4.71697">
        <ele>197</ele>
        <time>2018-08-02T10:16:53Z</time>
      </trkpt>
      <trkpt lat="45.97268" lon="4.71696">
        <ele>197</ele>
        <time>2018-08-02T10:16:54Z</time>
      </trkpt>
      <trkpt lat="45.97261" lon="4.71695">
        <ele>197</ele>
        <time>2018-08-02T10:16:55Z</time>
      </trkpt>
      <trkpt lat="45.97255" lon="4.71694">
        <ele>197</ele>
        <time>2018-08-02T10:16:56Z</time>
      </trkpt>
      <trkpt lat="45.97248" lon="4.71694">
        <ele>197</ele>
        <time>2018-08-02T10:16:57Z</time>
      </trkpt>
      <trkpt lat="45.97242" lon="4.71692">
        <ele>197</ele>
        <time>2018-08-02T10:16:58Z</time>
      </trkpt>
      <trkpt lat="45.97235" lon="4.71692">
        <ele>197</ele>
        <time>2018-08-02T10:16:59Z</time>
      </trkpt>
      <trkpt lat="45.97228" lon="4.71692">
        <ele>197</ele>
        <time>2018-08-02T10:17:00Z</time>
      </trkpt>
      <trkpt lat="45.97221" lon="4.71691">
        <ele>197</ele>
        <time>2018-08-02T10:17:01Z</time>
      </trkpt>
      <trkpt lat="45.97215" lon="4.7169">
        <ele>197</ele>
        <time>2018-08-02T10:17:02Z</time>
      </trkpt>
      <trkpt lat="45.97208" lon="4.7169">
        <ele>197</ele>
        <time>2018-08-02T10:17:03Z</time>
      </trkpt>
      <trkpt lat="45.972" lon="4.71689">
        <ele>197</ele>
        <time>2018-08-02T10:17:04Z</time>
      </trkpt>
      <trkpt lat="45.97195" lon="4.71689">
        <ele>197</ele>
        <time>2018-08-02T10:17:05Z</time>
      </trkpt>
      <trkpt lat="45.97189" lon="4.71691">
        <ele>197</ele>
        <time>2018-08-02T10:17:06Z</time>
      </trkpt>
      <trkpt lat="45.97179" lon="4.71691">
        <ele>197</ele>
        <time>2018-08-02T10:17:07Z</time>
      </trkpt>
      <trkpt lat="45.97176" lon="4.7169">
        <ele>197</ele>
        <time>2018-08-02T10:17:08Z</time>
      </trkpt>
      <trkpt lat="45.97165" lon="4.71691">
        <ele>196</ele>
        <time>2018-08-02T10:17:09Z</time>
      </trkpt>
      <trkpt lat="45.97158" lon="4.71691">
        <ele>195</ele>
        <time>2018-08-02T10:17:10Z</time>
      </trkpt>
      <trkpt lat="45.97151" lon="4.7169">
        <ele>195</ele>
        <time>2018-08-02T10:17:11Z</time>
      </trkpt>
      <trkpt lat="45.97145" lon="4.71689">
        <ele>195</ele>
        <time>2018-08-02T10:17:12Z</time>
      </trkpt>
      <trkpt lat="45.97137" lon="4.71688">
        <ele>195</ele>
        <time>2018-08-02T10:17:13Z</time>
      </trkpt>
      <trkpt lat="45.97131" lon="4.71687">
        <ele>195</ele>
        <time>2018-08-02T10:17:14Z</time>
      </trkpt>
      <trkpt lat="45.97123" lon="4.71688">
        <ele>195</ele>
        <time>2018-08-02T10:17:15Z</time>
      </trkpt>
      <trkpt lat="45.97117" lon="4.71689">
        <ele>194</ele>
        <time>2018-08-02T10:17:16Z</time>
      </trkpt>
      <trkpt lat="45.97112" lon="4.71688">
        <ele>194</ele>
        <time>2018-08-02T10:17:17Z</time>
      </trkpt>
      <trkpt lat="45.97103" lon="4.71688">
        <ele>194</ele>
        <time>2018-08-02T10:17:18Z</time>
      </trkpt>
      <trkpt lat="45.97095" lon="4.71687">
        <ele>194</ele>
        <time>2018-08-02T10:17:19Z</time>
      </trkpt>
      <trkpt lat="45.97087" lon="4.71686">
        <ele>194</ele>
        <time>2018-08-02T10:17:20Z</time>
      </trkpt>
      <trkpt lat="45.9708" lon="4.71686">
        <ele>193</ele>
        <time>2018-08-02T10:17:21Z</time>
      </trkpt>
      <trkpt lat="45.97074" lon="4.71683">
        <ele>193</ele>
        <time>2018-08-02T10:17:22Z</time>
      </trkpt>
      <trkpt lat="45.97067" lon="4.71681">
        <ele>193</ele>
        <time>2018-08-02T10:17:23Z</time>
      </trkpt>
      <trkpt lat="45.97059" lon="4.7168">
        <ele>193</ele>
        <time>2018-08-02T10:17:24Z</time>
      </trkpt>
      <trkpt lat="45.97051" lon="4.71676">
        <ele>193</ele>
        <time>2018-08-02T10:17:25Z</time>
      </trkpt>
      <trkpt lat="45.97044" lon="4.71675">
        <ele>193</ele>
        <time>2018-08-02T10:17:26Z</time>
      </trkpt>
      <trkpt lat="45.97039" lon="4.71673">
        <ele>193</ele>
        <time>2018-08-02T10:17:27Z</time>
      </trkpt>
      <trkpt lat="45.97034" lon="4.71674">
        <ele>193</ele>
        <time>2018-08-02T10:17:28Z</time>
      </trkpt>
      <trkpt lat="45.97027" lon="4.71673">
        <ele>193</ele>
        <time>2018-08-02T10:17:29Z</time>
      </trkpt>
      <trkpt lat="45.97022" lon="4.71672">
        <ele>193</ele>
        <time>2018-08-02T10:17:30Z</time>
      </trkpt>
      <trkpt lat="45.97015" lon="4.71673">
        <ele>193</ele>
        <time>2018-08-02T10:17:31Z</time>
      </trkpt>
      <trkpt lat="45.97007" lon="4.71671">
        <ele>193</ele>
        <time>2018-08-02T10:17:32Z</time>
      </trkpt>
      <trkpt lat="45.97001" lon="4.71672">
        <ele>194</ele>
        <time>2018-08-02T10:17:33Z</time>
      </trkpt>
      <trkpt lat="45.96989" lon="4.71671">
        <ele>193</ele>
        <time>2018-08-02T10:17:34Z</time>
      </trkpt>
      <trkpt lat="45.96981" lon="4.71671">
        <ele>192</ele>
        <time>2018-08-02T10:17:35Z</time>
      </trkpt>
      <trkpt lat="45.96972" lon="4.71671">
        <ele>192</ele>
        <time>2018-08-02T10:17:36Z</time>
      </trkpt>
      <trkpt lat="45.96964" lon="4.71671">
        <ele>192</ele>
        <time>2018-08-02T10:17:37Z</time>
      </trkpt>
      <trkpt lat="45.96957" lon="4.71671">
        <ele>192</ele>
        <time>2018-08-02T10:17:38Z</time>
      </trkpt>
      <trkpt lat="45.96949" lon="4.7167">
        <ele>192</ele>
        <time>2018-08-02T10:17:39Z</time>
      </trkpt>
      <trkpt lat="45.96941" lon="4.7167">
        <ele>192</ele>
        <time>2018-08-02T10:17:40Z</time>
      </trkpt>
      <trkpt lat="45.96934" lon="4.71667">
        <ele>195</ele>
        <time>2018-08-02T10:17:41Z</time>
      </trkpt>
      <trkpt lat="45.96926" lon="4.71667">
        <ele>194</ele>
        <time>2018-08-02T10:17:42Z</time>
      </trkpt>
      <trkpt lat="45.96919" lon="4.71666">
        <ele>195</ele>
        <time>2018-08-02T10:17:43Z</time>
      </trkpt>
      <trkpt lat="45.96912" lon="4.71665">
        <ele>195</ele>
        <time>2018-08-02T10:17:44Z</time>
      </trkpt>
      <trkpt lat="45.96905" lon="4.71664">
        <ele>195</ele>
        <time>2018-08-02T10:17:45Z</time>
      </trkpt>
      <trkpt lat="45.96899" lon="4.71664">
        <ele>195</ele>
        <time>2018-08-02T10:17:46Z</time>
      </trkpt>
      <trkpt lat="45.9689" lon="4.71663">
        <ele>195</ele>
        <time>2018-08-02T10:17:47Z</time>
      </trkpt>
      <trkpt lat="45.96883" lon="4.71663">
        <ele>195</ele>
        <time>2018-08-02T10:17:48Z</time>
      </trkpt>
      <trkpt lat="45.96875" lon="4.71661">
        <ele>195</ele>
        <time>2018-08-02T10:17:49Z</time>
      </trkpt>
      <trkpt lat="45.96866" lon="4.7166">
        <ele>195</ele>
        <time>2018-08-02T10:17:50Z</time>
      </trkpt>
      <trkpt lat="45.9686" lon="4.71659">
        <ele>194</ele>
        <time>2018-08-02T10:17:51Z</time>
      </trkpt>
      <trkpt lat="45.96853" lon="4.71657">
        <ele>194</ele>
        <time>2018-08-02T10:17:52Z</time>
      </trkpt>
      <trkpt lat="45.96844" lon="4.71656">
        <ele>194</ele>
        <time>2018-08-02T10:17:53Z</time>
      </trkpt>
      <trkpt lat="45.96838" lon="4.71653">
        <ele>194</ele>
        <time>2018-08-02T10:17:54Z</time>
      </trkpt>
      <trkpt lat="45.96832" lon="4.71652">
        <ele>193</ele>
        <time>2018-08-02T10:17:55Z</time>
      </trkpt>
      <trkpt lat="45.96821" lon="4.71652">
        <ele>193</ele>
        <time>2018-08-02T10:17:56Z</time>
      </trkpt>
      <trkpt lat="45.96809" lon="4.71651">
        <ele>193</ele>
        <time>2018-08-02T10:17:57Z</time>
      </trkpt>
      <trkpt lat="45.96801" lon="4.7165">
        <ele>193</ele>
        <time>2018-08-02T10:17:58Z</time>
      </trkpt>
      <trkpt lat="45.96792" lon="4.71649">
        <ele>193</ele>
        <time>2018-08-02T10:17:59Z</time>
      </trkpt>
      <trkpt lat="45.96787" lon="4.71648">
        <ele>192</ele>
        <time>2018-08-02T10:18:00Z</time>
      </trkpt>
      <trkpt lat="45.96782" lon="4.71646">
        <ele>192</ele>
        <time>2018-08-02T10:18:01Z</time>
      </trkpt>
      <trkpt lat="45.96775" lon="4.71645">
        <ele>192</ele>
        <time>2018-08-02T10:18:02Z</time>
      </trkpt>
      <trkpt lat="45.96766" lon="4.71644">
        <ele>192</ele>
        <time>2018-08-02T10:18:03Z</time>
      </trkpt>
      <trkpt lat="45.96758" lon="4.71643">
        <ele>192</ele>
        <time>2018-08-02T10:18:04Z</time>
      </trkpt>
      <trkpt lat="45.96748" lon="4.71642">
        <ele>190</ele>
        <time>2018-08-02T10:18:05Z</time>
      </trkpt>
      <trkpt lat="45.9674" lon="4.7164">
        <ele>190</ele>
        <time>2018-08-02T10:18:06Z</time>
      </trkpt>
      <trkpt lat="45.96731" lon="4.71638">
        <ele>190</ele>
        <time>2018-08-02T10:18:07Z</time>
      </trkpt>
      <trkpt lat="45.96725" lon="4.71637">
        <ele>190</ele>
        <time>2018-08-02T10:18:08Z</time>
      </trkpt>
      <trkpt lat="45.96718" lon="4.71635">
        <ele>190</ele>
        <time>2018-08-02T10:18:09Z</time>
      </trkpt>
      <trkpt lat="45.96711" lon="4.71634">
        <ele>190</ele>
        <time>2018-08-02T10:18:10Z</time>
      </trkpt>
      <trkpt lat="45.96704" lon="4.71634">
        <ele>190</ele>
        <time>2018-08-02T10:18:11Z</time>
      </trkpt>
      <trkpt lat="45.96697" lon="4.71633">
        <ele>190</ele>
        <time>2018-08-02T10:18:12Z</time>
      </trkpt>
      <trkpt lat="45.9669" lon="4.71632">
        <ele>190</ele>
        <time>2018-08-02T10:18:13Z</time>
      </trkpt>
      <trkpt lat="45.9668" lon="4.71631">
        <ele>190</ele>
        <time>2018-08-02T10:18:14Z</time>
      </trkpt>
      <trkpt lat="45.96671" lon="4.71631">
        <ele>190</ele>
        <time>2018-08-02T10:18:15Z</time>
      </trkpt>
      <trkpt lat="45.96666" lon="4.7163">
        <ele>188</ele>
        <time>2018-08-02T10:18:16Z</time>
      </trkpt>
      <trkpt lat="45.9666" lon="4.71629">
        <ele>188</ele>
        <time>2018-08-02T10:18:17Z</time>
      </trkpt>
      <trkpt lat="45.96652" lon="4.71627">
        <ele>188</ele>
        <time>2018-08-02T10:18:18Z</time>
      </trkpt>
      <trkpt lat="45.96646" lon="4.71626">
        <ele>188</ele>
        <time>2018-08-02T10:18:19Z</time>
      </trkpt>
      <trkpt lat="45.96636" lon="4.71625">
        <ele>188</ele>
        <time>2018-08-02T10:18:20Z</time>
      </trkpt>
      <trkpt lat="45.96629" lon="4.71625">
        <ele>188</ele>
        <time>2018-08-02T10:18:21Z</time>
      </trkpt>
      <trkpt lat="45.96622" lon="4.71623">
        <ele>188</ele>
        <time>2018-08-02T10:18:22Z</time>
      </trkpt>
      <trkpt lat="45.96616" lon="4.71622">
        <ele>188</ele>
        <time>2018-08-02T10:18:23Z</time>
      </trkpt>
      <trkpt lat="45.96607" lon="4.71621">
        <ele>188</ele>
        <time>2018-08-02T10:18:24Z</time>
      </trkpt>
      <trkpt lat="45.96601" lon="4.7162">
        <ele>188</ele>
        <time>2018-08-02T10:18:25Z</time>
      </trkpt>
      <trkpt lat="45.96593" lon="4.71619">
        <ele>187</ele>
        <time>2018-08-02T10:18:26Z</time>
      </trkpt>
      <trkpt lat="45.96585" lon="4.71618">
        <ele>187</ele>
        <time>2018-08-02T10:18:27Z</time>
      </trkpt>
      <trkpt lat="45.96579" lon="4.71617">
        <ele>185</ele>
        <time>2018-08-02T10:18:28Z</time>
      </trkpt>
      <trkpt lat="45.9657" lon="4.71616">
        <ele>185</ele>
        <time>2018-08-02T10:18:29Z</time>
      </trkpt>
      <trkpt lat="45.96564" lon="4.71614">
        <ele>185</ele>
        <time>2018-08-02T10:18:30Z</time>
      </trkpt>
      <trkpt lat="45.96558" lon="4.71613">
        <ele>185</ele>
        <time>2018-08-02T10:18:31Z</time>
      </trkpt>
      <trkpt lat="45.96552" lon="4.7161">
        <ele>185</ele>
        <time>2018-08-02T10:18:32Z</time>
      </trkpt>
      <trkpt lat="45.96547" lon="4.71605">
        <ele>185</ele>
        <time>2018-08-02T10:18:33Z</time>
      </trkpt>
      <trkpt lat="45.96542" lon="4.71601">
        <ele>185</ele>
        <time>2018-08-02T10:18:34Z</time>
      </trkpt>
      <trkpt lat="45.96535" lon="4.71598">
        <ele>185</ele>
        <time>2018-08-02T10:18:35Z</time>
      </trkpt>
      <trkpt lat="45.96527" lon="4.71597">
        <ele>185</ele>
        <time>2018-08-02T10:18:36Z</time>
      </trkpt>
      <trkpt lat="45.9652" lon="4.71599">
        <ele>185</ele>
        <time>2018-08-02T10:18:37Z</time>
      </trkpt>
      <trkpt lat="45.96514" lon="4.71601">
        <ele>185</ele>
        <time>2018-08-02T10:18:38Z</time>
      </trkpt>
      <trkpt lat="45.96507" lon="4.71602">
        <ele>184</ele>
        <time>2018-08-02T10:18:39Z</time>
      </trkpt>
      <trkpt lat="45.965" lon="4.71603">
        <ele>184</ele>
        <time>2018-08-02T10:18:40Z</time>
      </trkpt>
      <trkpt lat="45.96492" lon="4.716">
        <ele>184</ele>
        <time>2018-08-02T10:18:41Z</time>
      </trkpt>
      <trkpt lat="45.96485" lon="4.71599">
        <ele>184</ele>
        <time>2018-08-02T10:18:42Z</time>
      </trkpt>
      <trkpt lat="45.96477" lon="4.71597">
        <ele>183</ele>
        <time>2018-08-02T10:18:43Z</time>
      </trkpt>
      <trkpt lat="45.96472" lon="4.71596">
        <ele>183</ele>
        <time>2018-08-02T10:18:44Z</time>
      </trkpt>
      <trkpt lat="45.96465" lon="4.71594">
        <ele>183</ele>
        <time>2018-08-02T10:18:45Z</time>
      </trkpt>
      <trkpt lat="45.96455" lon="4.71597">
        <ele>183</ele>
        <time>2018-08-02T10:18:46Z</time>
      </trkpt>
      <trkpt lat="45.96445" lon="4.71595">
        <ele>183</ele>
        <time>2018-08-02T10:18:47Z</time>
      </trkpt>
      <trkpt lat="45.96439" lon="4.71594">
        <ele>184</ele>
        <time>2018-08-02T10:18:48Z</time>
      </trkpt>
      <trkpt lat="45.96431" lon="4.71593">
        <ele>184</ele>
        <time>2018-08-02T10:18:49Z</time>
      </trkpt>
      <trkpt lat="45.96423" lon="4.71592">
        <ele>184</ele>
        <time>2018-08-02T10:18:50Z</time>
      </trkpt>
      <trkpt lat="45.96415" lon="4.71591">
        <ele>184</ele>
        <time>2018-08-02T10:18:51Z</time>
      </trkpt>
      <trkpt lat="45.96407" lon="4.7159">
        <ele>184</ele>
        <time>2018-08-02T10:18:52Z</time>
      </trkpt>
      <trkpt lat="45.964" lon="4.71589">
        <ele>183</ele>
        <time>2018-08-02T10:18:53Z</time>
      </trkpt>
      <trkpt lat="45.96394" lon="4.71588">
        <ele>183</ele>
        <time>2018-08-02T10:18:54Z</time>
      </trkpt>
      <trkpt lat="45.96386" lon="4.71586">
        <ele>183</ele>
        <time>2018-08-02T10:18:55Z</time>
      </trkpt>
      <trkpt lat="45.9638" lon="4.71586">
        <ele>183</ele>
        <time>2018-08-02T10:18:56Z</time>
      </trkpt>
      <trkpt lat="45.96373" lon="4.71585">
        <ele>182</ele>
        <time>2018-08-02T10:18:57Z</time>
      </trkpt>
      <trkpt lat="45.96367" lon="4.71583">
        <ele>186</ele>
        <time>2018-08-02T10:18:58Z</time>
      </trkpt>
      <trkpt lat="45.96359" lon="4.71582">
        <ele>185</ele>
        <time>2018-08-02T10:18:59Z</time>
      </trkpt>
      <trkpt lat="45.96352" lon="4.71581">
        <ele>185</ele>
        <time>2018-08-02T10:19:00Z</time>
      </trkpt>
      <trkpt lat="45.96345" lon="4.71579">
        <ele>184</ele>
        <time>2018-08-02T10:19:01Z</time>
      </trkpt>
      <trkpt lat="45.96337" lon="4.71577">
        <ele>184</ele>
        <time>2018-08-02T10:19:02Z</time>
      </trkpt>
      <trkpt lat="45.96328" lon="4.71576">
        <ele>184</ele>
        <time>2018-08-02T10:19:03Z</time>
      </trkpt>
      <trkpt lat="45.9632" lon="4.71575">
        <ele>184</ele>
        <time>2018-08-02T10:19:04Z</time>
      </trkpt>
      <trkpt lat="45.96312" lon="4.71573">
        <ele>184</ele>
        <time>2018-08-02T10:19:05Z</time>
      </trkpt>
      <trkpt lat="45.96305" lon="4.71571">
        <ele>184</ele>
        <time>2018-08-02T10:19:06Z</time>
      </trkpt>
      <trkpt lat="45.96299" lon="4.7157">
        <ele>184</ele>
        <time>2018-08-02T10:19:07Z</time>
      </trkpt>
      <trkpt lat="45.96289" lon="4.7157">
        <ele>184</ele>
        <time>2018-08-02T10:19:08Z</time>
      </trkpt>
      <trkpt lat="45.9628" lon="4.7157">
        <ele>184</ele>
        <time>2018-08-02T10:19:09Z</time>
      </trkpt>
      <trkpt lat="45.96273" lon="4.71569">
        <ele>184</ele>
        <time>2018-08-02T10:19:10Z</time>
      </trkpt>
      <trkpt lat="45.96266" lon="4.71569">
        <ele>183</ele>
        <time>2018-08-02T10:19:11Z</time>
      </trkpt>
      <trkpt lat="45.96258" lon="4.71568">
        <ele>183</ele>
        <time>2018-08-02T10:19:12Z</time>
      </trkpt>
      <trkpt lat="45.9625" lon="4.71566">
        <ele>183</ele>
        <time>2018-08-02T10:19:13Z</time>
      </trkpt>
      <trkpt lat="45.96243" lon="4.71564">
        <ele>183</ele>
        <time>2018-08-02T10:19:14Z</time>
      </trkpt>
      <trkpt lat="45.96235" lon="4.71562">
        <ele>183</ele>
        <time>2018-08-02T10:19:15Z</time>
      </trkpt>
      <trkpt lat="45.96228" lon="4.7156">
        <ele>183</ele>
        <time>2018-08-02T10:19:16Z</time>
      </trkpt>
      <trkpt lat="45.96221" lon="4.71559">
        <ele>183</ele>
        <time>2018-08-02T10:19:17Z</time>
      </trkpt>
      <trkpt lat="45.96215" lon="4.71558">
        <ele>184</ele>
        <time>2018-08-02T10:19:18Z</time>
      </trkpt>
      <trkpt lat="45.96207" lon="4.71557">
        <ele>184</ele>
        <time>2018-08-02T10:19:19Z</time>
      </trkpt>
      <trkpt lat="45.962" lon="4.71555">
        <ele>184</ele>
        <time>2018-08-02T10:19:20Z</time>
      </trkpt>
      <trkpt lat="45.96191" lon="4.71553">
        <ele>184</ele>
        <time>2018-08-02T10:19:21Z</time>
      </trkpt>
      <trkpt lat="45.96183" lon="4.71552">
        <ele>184</ele>
        <time>2018-08-02T10:19:22Z</time>
      </trkpt>
      <trkpt lat="45.96176" lon="4.71551">
        <ele>184</ele>
        <time>2018-08-02T10:19:23Z</time>
      </trkpt>
      <trkpt lat="45.96169" lon="4.7155">
        <ele>184</ele>
        <time>2018-08-02T10:19:24Z</time>
      </trkpt>
      <trkpt lat="45.96161" lon="4.71548">
        <ele>184</ele>
        <time>2018-08-02T10:19:25Z</time>
      </trkpt>
      <trkpt lat="45.96153" lon="4.71547">
        <ele>184</ele>
        <time>2018-08-02T10:19:26Z</time>
      </trkpt>
      <trkpt lat="45.96146" lon="4.71545">
        <ele>184</ele>
        <time>2018-08-02T10:19:27Z</time>
      </trkpt>
      <trkpt lat="45.96139" lon="4.71544">
        <ele>185</ele>
        <time>2018-08-02T10:19:28Z</time>
      </trkpt>
      <trkpt lat="45.96132" lon="4.71544">
        <ele>185</ele>
        <time>2018-08-02T10:19:29Z</time>
      </trkpt>
      <trkpt lat="45.96124" lon="4.71542">
        <ele>185</ele>
        <time>2018-08-02T10:19:30Z</time>
      </trkpt>
      <trkpt lat="45.96118" lon="4.71541">
        <ele>185</ele>
        <time>2018-08-02T10:19:31Z</time>
      </trkpt>
      <trkpt lat="45.96111" lon="4.71541">
        <ele>185</ele>
        <time>2018-08-02T10:19:32Z</time>
      </trkpt>
      <trkpt lat="45.96103" lon="4.7154">
        <ele>185</ele>
        <time>2018-08-02T10:19:33Z</time>
      </trkpt>
      <trkpt lat="45.96098" lon="4.71539">
        <ele>185</ele>
        <time>2018-08-02T10:19:34Z</time>
      </trkpt>
      <trkpt lat="45.96091" lon="4.71539">
        <ele>185</ele>
        <time>2018-08-02T10:19:35Z</time>
      </trkpt>
      <trkpt lat="45.96085" lon="4.71538">
        <ele>185</ele>
        <time>2018-08-02T10:19:36Z</time>
      </trkpt>
      <trkpt lat="45.96079" lon="4.71536">
        <ele>186</ele>
        <time>2018-08-02T10:19:37Z</time>
      </trkpt>
      <trkpt lat="45.96073" lon="4.71535">
        <ele>186</ele>
        <time>2018-08-02T10:19:38Z</time>
      </trkpt>
      <trkpt lat="45.96069" lon="4.71533">
        <ele>186</ele>
        <time>2018-08-02T10:19:39Z</time>
      </trkpt>
      <trkpt lat="45.96065" lon="4.71532">
        <ele>186</ele>
        <time>2018-08-02T10:19:40Z</time>
      </trkpt>
      <trkpt lat="45.9606" lon="4.7153">
        <ele>186</ele>
        <time>2018-08-02T10:19:41Z</time>
      </trkpt>
      <trkpt lat="45.96053" lon="4.71529">
        <ele>186</ele>
        <time>2018-08-02T10:19:42Z</time>
      </trkpt>
      <trkpt lat="45.96047" lon="4.71528">
        <ele>186</ele>
        <time>2018-08-02T10:19:43Z</time>
      </trkpt>
      <trkpt lat="45.96041" lon="4.71528">
        <ele>186</ele>
        <time>2018-08-02T10:19:44Z</time>
      </trkpt>
      <trkpt lat="45.96036" lon="4.71526">
        <ele>186</ele>
        <time>2018-08-02T10:19:45Z</time>
      </trkpt>
      <trkpt lat="45.96031" lon="4.71525">
        <ele>186</ele>
        <time>2018-08-02T10:19:46Z</time>
      </trkpt>
      <trkpt lat="45.96025" lon="4.71524">
        <ele>186</ele>
        <time>2018-08-02T10:19:47Z</time>
      </trkpt>
      <trkpt lat="45.96016" lon="4.71522">
        <ele>186</ele>
        <time>2018-08-02T10:19:49Z</time>
      </trkpt>
      <trkpt lat="45.96013" lon="4.71521">
        <ele>186</ele>
        <time>2018-08-02T10:19:50Z</time>
      </trkpt>
      <trkpt lat="45.9601" lon="4.71518">
        <ele>186</ele>
        <time>2018-08-02T10:19:51Z</time>
      </trkpt>
      <trkpt lat="45.96005" lon="4.71515">
        <ele>187</ele>
        <time>2018-08-02T10:19:52Z</time>
      </trkpt>
      <trkpt lat="45.96" lon="4.71513">
        <ele>186</ele>
        <time>2018-08-02T10:19:53Z</time>
      </trkpt>
      <trkpt lat="45.95995" lon="4.7151">
        <ele>186</ele>
        <time>2018-08-02T10:19:54Z</time>
      </trkpt>
      <trkpt lat="45.95989" lon="4.7151">
        <ele>186</ele>
        <time>2018-08-02T10:19:55Z</time>
      </trkpt>
      <trkpt lat="45.95984" lon="4.71512">
        <ele>185</ele>
        <time>2018-08-02T10:19:56Z</time>
      </trkpt>
      <trkpt lat="45.95977" lon="4.71513">
        <ele>185</ele>
        <time>2018-08-02T10:19:57Z</time>
      </trkpt>
      <trkpt lat="45.95968" lon="4.71517">
        <ele>184</ele>
        <time>2018-08-02T10:19:58Z</time>
      </trkpt>
      <trkpt lat="45.95962" lon="4.71518">
        <ele>184</ele>
        <time>2018-08-02T10:19:59Z</time>
      </trkpt>
      <trkpt lat="45.95955" lon="4.71519">
        <ele>184</ele>
        <time>2018-08-02T10:20:00Z</time>
      </trkpt>
      <trkpt lat="45.95949" lon="4.71521">
        <ele>184</ele>
        <time>2018-08-02T10:20:01Z</time>
      </trkpt>
      <trkpt lat="45.95941" lon="4.7152">
        <ele>184</ele>
        <time>2018-08-02T10:20:02Z</time>
      </trkpt>
      <trkpt lat="45.95937" lon="4.71519">
        <ele>184</ele>
        <time>2018-08-02T10:20:03Z</time>
      </trkpt>
      <trkpt lat="45.95926" lon="4.71517">
        <ele>184</ele>
        <time>2018-08-02T10:20:04Z</time>
      </trkpt>
      <trkpt lat="45.95916" lon="4.71519">
        <ele>183</ele>
        <time>2018-08-02T10:20:05Z</time>
      </trkpt>
      <trkpt lat="45.95909" lon="4.71518">
        <ele>183</ele>
        <time>2018-08-02T10:20:06Z</time>
      </trkpt>
      <trkpt lat="45.959" lon="4.7152">
        <ele>183</ele>
        <time>2018-08-02T10:20:07Z</time>
      </trkpt>
      <trkpt lat="45.95893" lon="4.7152">
        <ele>182</ele>
        <time>2018-08-02T10:20:08Z</time>
      </trkpt>
      <trkpt lat="45.95886" lon="4.71519">
        <ele>182</ele>
        <time>2018-08-02T10:20:09Z</time>
      </trkpt>
      <trkpt lat="45.95881" lon="4.7152">
        <ele>182</ele>
        <time>2018-08-02T10:20:10Z</time>
      </trkpt>
      <trkpt lat="45.95874" lon="4.71519">
        <ele>182</ele>
        <time>2018-08-02T10:20:11Z</time>
      </trkpt>
      <trkpt lat="45.95867" lon="4.71519">
        <ele>182</ele>
        <time>2018-08-02T10:20:12Z</time>
      </trkpt>
      <trkpt lat="45.95858" lon="4.71518">
        <ele>182</ele>
        <time>2018-08-02T10:20:13Z</time>
      </trkpt>
      <trkpt lat="45.9585" lon="4.71518">
        <ele>182</ele>
        <time>2018-08-02T10:20:14Z</time>
      </trkpt>
      <trkpt lat="45.95846" lon="4.71515">
        <ele>183</ele>
        <time>2018-08-02T10:20:15Z</time>
      </trkpt>
      <trkpt lat="45.95838" lon="4.71515">
        <ele>183</ele>
        <time>2018-08-02T10:20:16Z</time>
      </trkpt>
      <trkpt lat="45.95833" lon="4.71516">
        <ele>182</ele>
        <time>2018-08-02T10:20:17Z</time>
      </trkpt>
      <trkpt lat="45.95826" lon="4.71515">
        <ele>182</ele>
        <time>2018-08-02T10:20:18Z</time>
      </trkpt>
      <trkpt lat="45.95818" lon="4.71515">
        <ele>182</ele>
        <time>2018-08-02T10:20:19Z</time>
      </trkpt>
      <trkpt lat="45.95809" lon="4.71515">
        <ele>181</ele>
        <time>2018-08-02T10:20:20Z</time>
      </trkpt>
      <trkpt lat="45.95798" lon="4.71514">
        <ele>181</ele>
        <time>2018-08-02T10:20:21Z</time>
      </trkpt>
      <trkpt lat="45.9579" lon="4.71513">
        <ele>181</ele>
        <time>2018-08-02T10:20:22Z</time>
      </trkpt>
      <trkpt lat="45.95783" lon="4.71512">
        <ele>181</ele>
        <time>2018-08-02T10:20:23Z</time>
      </trkpt>
      <trkpt lat="45.95767" lon="4.71513">
        <ele>181</ele>
        <time>2018-08-02T10:20:24Z</time>
      </trkpt>
      <trkpt lat="45.95761" lon="4.71512">
        <ele>181</ele>
        <time>2018-08-02T10:20:25Z</time>
      </trkpt>
      <trkpt lat="45.95753" lon="4.71512">
        <ele>181</ele>
        <time>2018-08-02T10:20:26Z</time>
      </trkpt>
      <trkpt lat="45.95742" lon="4.71512">
        <ele>181</ele>
        <time>2018-08-02T10:20:27Z</time>
      </trkpt>
      <trkpt lat="45.95734" lon="4.71511">
        <ele>181</ele>
        <time>2018-08-02T10:20:28Z</time>
      </trkpt>
      <trkpt lat="45.95728" lon="4.71512">
        <ele>180</ele>
        <time>2018-08-02T10:20:29Z</time>
      </trkpt>
      <trkpt lat="45.9572" lon="4.71511">
        <ele>180</ele>
        <time>2018-08-02T10:20:30Z</time>
      </trkpt>
      <trkpt lat="45.95713" lon="4.7151">
        <ele>180</ele>
        <time>2018-08-02T10:20:31Z</time>
      </trkpt>
      <trkpt lat="45.95705" lon="4.71509">
        <ele>180</ele>
        <time>2018-08-02T10:20:32Z</time>
      </trkpt>
      <trkpt lat="45.95697" lon="4.71509">
        <ele>180</ele>
        <time>2018-08-02T10:20:33Z</time>
      </trkpt>
      <trkpt lat="45.9569" lon="4.71508">
        <ele>181</ele>
        <time>2018-08-02T10:20:34Z</time>
      </trkpt>
      <trkpt lat="45.95683" lon="4.71508">
        <ele>181</ele>
        <time>2018-08-02T10:20:35Z</time>
      </trkpt>
      <trkpt lat="45.95677" lon="4.71506">
        <ele>181</ele>
        <time>2018-08-02T10:20:36Z</time>
      </trkpt>
      <trkpt lat="45.9567" lon="4.71506">
        <ele>181</ele>
        <time>2018-08-02T10:20:37Z</time>
      </trkpt>
      <trkpt lat="45.95664" lon="4.71506">
        <ele>181</ele>
        <time>2018-08-02T10:20:38Z</time>
      </trkpt>
      <trkpt lat="45.95656" lon="4.71505">
        <ele>181</ele>
        <time>2018-08-02T10:20:39Z</time>
      </trkpt>
      <trkpt lat="45.95648" lon="4.71504">
        <ele>180</ele>
        <time>2018-08-02T10:20:40Z</time>
      </trkpt>
      <trkpt lat="45.95639" lon="4.71503">
        <ele>180</ele>
        <time>2018-08-02T10:20:41Z</time>
      </trkpt>
      <trkpt lat="45.95633" lon="4.71502">
        <ele>180</ele>
        <time>2018-08-02T10:20:42Z</time>
      </trkpt>
      <trkpt lat="45.95627" lon="4.71501">
        <ele>180</ele>
        <time>2018-08-02T10:20:43Z</time>
      </trkpt>
      <trkpt lat="45.95618" lon="4.71501">
        <ele>180</ele>
        <time>2018-08-02T10:20:44Z</time>
      </trkpt>
      <trkpt lat="45.9561" lon="4.715">
        <ele>179</ele>
        <time>2018-08-02T10:20:45Z</time>
      </trkpt>
      <trkpt lat="45.95601" lon="4.715">
        <ele>181</ele>
        <time>2018-08-02T10:20:46Z</time>
      </trkpt>
      <trkpt lat="45.95592" lon="4.71499">
        <ele>181</ele>
        <time>2018-08-02T10:20:47Z</time>
      </trkpt>
      <trkpt lat="45.95581" lon="4.71499">
        <ele>180</ele>
        <time>2018-08-02T10:20:48Z</time>
      </trkpt>
      <trkpt lat="45.95573" lon="4.71498">
        <ele>180</ele>
        <time>2018-08-02T10:20:49Z</time>
      </trkpt>
      <trkpt lat="45.95563" lon="4.71497">
        <ele>179</ele>
        <time>2018-08-02T10:20:50Z</time>
      </trkpt>
      <trkpt lat="45.95556" lon="4.71496">
        <ele>179</ele>
        <time>2018-08-02T10:20:51Z</time>
      </trkpt>
      <trkpt lat="45.95545" lon="4.71496">
        <ele>179</ele>
        <time>2018-08-02T10:20:52Z</time>
      </trkpt>
      <trkpt lat="45.95537" lon="4.71495">
        <ele>179</ele>
        <time>2018-08-02T10:20:53Z</time>
      </trkpt>
      <trkpt lat="45.95529" lon="4.71495">
        <ele>178</ele>
        <time>2018-08-02T10:20:54Z</time>
      </trkpt>
      <trkpt lat="45.95522" lon="4.71495">
        <ele>178</ele>
        <time>2018-08-02T10:20:55Z</time>
      </trkpt>
      <trkpt lat="45.95512" lon="4.71495">
        <ele>178</ele>
        <time>2018-08-02T10:20:56Z</time>
      </trkpt>
      <trkpt lat="45.95505" lon="4.71495">
        <ele>177</ele>
        <time>2018-08-02T10:20:57Z</time>
      </trkpt>
      <trkpt lat="45.95497" lon="4.71495">
        <ele>177</ele>
        <time>2018-08-02T10:20:58Z</time>
      </trkpt>
      <trkpt lat="45.95489" lon="4.71494">
        <ele>177</ele>
        <time>2018-08-02T10:20:59Z</time>
      </trkpt>
      <trkpt lat="45.9548" lon="4.71491">
        <ele>176</ele>
        <time>2018-08-02T10:21:00Z</time>
      </trkpt>
      <trkpt lat="45.95471" lon="4.71489">
        <ele>176</ele>
        <time>2018-08-02T10:21:01Z</time>
      </trkpt>
      <trkpt lat="45.95463" lon="4.71489">
        <ele>176</ele>
        <time>2018-08-02T10:21:02Z</time>
      </trkpt>
      <trkpt lat="45.95453" lon="4.71488">
        <ele>176</ele>
        <time>2018-08-02T10:21:03Z</time>
      </trkpt>
      <trkpt lat="45.95446" lon="4.71489">
        <ele>176</ele>
        <time>2018-08-02T10:21:04Z</time>
      </trkpt>
      <trkpt lat="45.95437" lon="4.71488">
        <ele>175</ele>
        <time>2018-08-02T10:21:05Z</time>
      </trkpt>
      <trkpt lat="45.9543" lon="4.71489">
        <ele>175</ele>
        <time>2018-08-02T10:21:06Z</time>
      </trkpt>
      <trkpt lat="45.95424" lon="4.71489">
        <ele>175</ele>
        <time>2018-08-02T10:21:07Z</time>
      </trkpt>
      <trkpt lat="45.95415" lon="4.71488">
        <ele>175</ele>
        <time>2018-08-02T10:21:08Z</time>
      </trkpt>
      <trkpt lat="45.95407" lon="4.71488">
        <ele>175</ele>
        <time>2018-08-02T10:21:09Z</time>
      </trkpt>
      <trkpt lat="45.95398" lon="4.71487">
        <ele>175</ele>
        <time>2018-08-02T10:21:10Z</time>
      </trkpt>
      <trkpt lat="45.95388" lon="4.71486">
        <ele>175</ele>
        <time>2018-08-02T10:21:11Z</time>
      </trkpt>
      <trkpt lat="45.95378" lon="4.71486">
        <ele>175</ele>
        <time>2018-08-02T10:21:12Z</time>
      </trkpt>
      <trkpt lat="45.9537" lon="4.71485">
        <ele>175</ele>
        <time>2018-08-02T10:21:13Z</time>
      </trkpt>
      <trkpt lat="45.95363" lon="4.71485">
        <ele>175</ele>
        <time>2018-08-02T10:21:14Z</time>
      </trkpt>
      <trkpt lat="45.95356" lon="4.71484">
        <ele>175</ele>
        <time>2018-08-02T10:21:15Z</time>
      </trkpt>
      <trkpt lat="45.95348" lon="4.71483">
        <ele>175</ele>
        <time>2018-08-02T10:21:16Z</time>
      </trkpt>
      <trkpt lat="45.95341" lon="4.71484">
        <ele>175</ele>
        <time>2018-08-02T10:21:17Z</time>
      </trkpt>
      <trkpt lat="45.95333" lon="4.71483">
        <ele>175</ele>
        <time>2018-08-02T10:21:18Z</time>
      </trkpt>
      <trkpt lat="45.95325" lon="4.71482">
        <ele>175</ele>
        <time>2018-08-02T10:21:19Z</time>
      </trkpt>
      <trkpt lat="45.95318" lon="4.71482">
        <ele>175</ele>
        <time>2018-08-02T10:21:20Z</time>
      </trkpt>
      <trkpt lat="45.9531" lon="4.71481">
        <ele>175</ele>
        <time>2018-08-02T10:21:21Z</time>
      </trkpt>
      <trkpt lat="45.95301" lon="4.7148">
        <ele>176</ele>
        <time>2018-08-02T10:21:22Z</time>
      </trkpt>
      <trkpt lat="45.9529" lon="4.71481">
        <ele>176</ele>
        <time>2018-08-02T10:21:23Z</time>
      </trkpt>
      <trkpt lat="45.95285" lon="4.71482">
        <ele>176</ele>
        <time>2018-08-02T10:21:24Z</time>
      </trkpt>
      <trkpt lat="45.95277" lon="4.71481">
        <ele>176</ele>
        <time>2018-08-02T10:21:25Z</time>
      </trkpt>
      <trkpt lat="45.95269" lon="4.71479">
        <ele>176</ele>
        <time>2018-08-02T10:21:26Z</time>
      </trkpt>
      <trkpt lat="45.95263" lon="4.71478">
        <ele>176</ele>
        <time>2018-08-02T10:21:27Z</time>
      </trkpt>
      <trkpt lat="45.95256" lon="4.71478">
        <ele>176</ele>
        <time>2018-08-02T10:21:28Z</time>
      </trkpt>
      <trkpt lat="45.9525" lon="4.71478">
        <ele>177</ele>
        <time>2018-08-02T10:21:29Z</time>
      </trkpt>
      <trkpt lat="45.95243" lon="4.71479">
        <ele>177</ele>
        <time>2018-08-02T10:21:30Z</time>
      </trkpt>
      <trkpt lat="45.95237" lon="4.71478">
        <ele>177</ele>
        <time>2018-08-02T10:21:31Z</time>
      </trkpt>
      <trkpt lat="45.9523" lon="4.71477">
        <ele>177</ele>
        <time>2018-08-02T10:21:32Z</time>
      </trkpt>
      <trkpt lat="45.95226" lon="4.71477">
        <ele>177</ele>
        <time>2018-08-02T10:21:33Z</time>
      </trkpt>
      <trkpt lat="45.95219" lon="4.71477">
        <ele>177</ele>
        <time>2018-08-02T10:21:34Z</time>
      </trkpt>
      <trkpt lat="45.95211" lon="4.71477">
        <ele>177</ele>
        <time>2018-08-02T10:21:35Z</time>
      </trkpt>
      <trkpt lat="45.95207" lon="4.7148">
        <ele>177</ele>
        <time>2018-08-02T10:21:36Z</time>
      </trkpt>
      <trkpt lat="45.95201" lon="4.7148">
        <ele>177</ele>
        <time>2018-08-02T10:21:37Z</time>
      </trkpt>
      <trkpt lat="45.95195" lon="4.71478">
        <ele>177</ele>
        <time>2018-08-02T10:21:38Z</time>
      </trkpt>
      <trkpt lat="45.95189" lon="4.71476">
        <ele>177</ele>
        <time>2018-08-02T10:21:39Z</time>
      </trkpt>
      <trkpt lat="45.95182" lon="4.71475">
        <ele>177</ele>
        <time>2018-08-02T10:21:40Z</time>
      </trkpt>
      <trkpt lat="45.95175" lon="4.71472">
        <ele>177</ele>
        <time>2018-08-02T10:21:41Z</time>
      </trkpt>
      <trkpt lat="45.95168" lon="4.71471">
        <ele>177</ele>
        <time>2018-08-02T10:21:42Z</time>
      </trkpt>
      <trkpt lat="45.95161" lon="4.71471">
        <ele>178</ele>
        <time>2018-08-02T10:21:43Z</time>
      </trkpt>
      <trkpt lat="45.95154" lon="4.7147">
        <ele>178</ele>
        <time>2018-08-02T10:21:44Z</time>
      </trkpt>
      <trkpt lat="45.95148" lon="4.7147">
        <ele>178</ele>
        <time>2018-08-02T10:21:45Z</time>
      </trkpt>
      <trkpt lat="45.95142" lon="4.71468">
        <ele>178</ele>
        <time>2018-08-02T10:21:46Z</time>
      </trkpt>
      <trkpt lat="45.95137" lon="4.71467">
        <ele>178</ele>
        <time>2018-08-02T10:21:47Z</time>
      </trkpt>
      <trkpt lat="45.9513" lon="4.71467">
        <ele>178</ele>
        <time>2018-08-02T10:21:48Z</time>
      </trkpt>
      <trkpt lat="45.95125" lon="4.71467">
        <ele>178</ele>
        <time>2018-08-02T10:21:49Z</time>
      </trkpt>
      <trkpt lat="45.9512" lon="4.71467">
        <ele>179</ele>
        <time>2018-08-02T10:21:50Z</time>
      </trkpt>
      <trkpt lat="45.95115" lon="4.71467">
        <ele>179</ele>
        <time>2018-08-02T10:21:51Z</time>
      </trkpt>
      <trkpt lat="45.95106" lon="4.71467">
        <ele>179</ele>
        <time>2018-08-02T10:21:53Z</time>
      </trkpt>
      <trkpt lat="45.951" lon="4.71466">
        <ele>179</ele>
        <time>2018-08-02T10:21:54Z</time>
      </trkpt>
      <trkpt lat="45.95095" lon="4.71465">
        <ele>179</ele>
        <time>2018-08-02T10:21:55Z</time>
      </trkpt>
      <trkpt lat="45.9509" lon="4.71465">
        <ele>179</ele>
        <time>2018-08-02T10:21:56Z</time>
      </trkpt>
      <trkpt lat="45.95084" lon="4.71464">
        <ele>179</ele>
        <time>2018-08-02T10:21:57Z</time>
      </trkpt>
      <trkpt lat="45.95079" lon="4.71463">
        <ele>181</ele>
        <time>2018-08-02T10:21:58Z</time>
      </trkpt>
      <trkpt lat="45.95074" lon="4.71462">
        <ele>181</ele>
        <time>2018-08-02T10:21:59Z</time>
      </trkpt>
      <trkpt lat="45.95069" lon="4.71463">
        <ele>181</ele>
        <time>2018-08-02T10:22:00Z</time>
      </trkpt>
      <trkpt lat="45.95064" lon="4.71463">
        <ele>181</ele>
        <time>2018-08-02T10:22:01Z</time>
      </trkpt>
      <trkpt lat="45.95058" lon="4.71463">
        <ele>181</ele>
        <time>2018-08-02T10:22:02Z</time>
      </trkpt>
      <trkpt lat="45.95049" lon="4.71464">
        <ele>181</ele>
        <time>2018-08-02T10:22:05Z</time>
      </trkpt>
      <trkpt lat="45.95045" lon="4.71463">
        <ele>182</ele>
        <time>2018-08-02T10:22:06Z</time>
      </trkpt>
      <trkpt lat="45.95037" lon="4.71462">
        <ele>182</ele>
        <time>2018-08-02T10:22:08Z</time>
      </trkpt>
      <trkpt lat="45.95032" lon="4.71462">
        <ele>182</ele>
        <time>2018-08-02T10:22:09Z</time>
      </trkpt>
      <trkpt lat="45.95025" lon="4.71459">
        <ele>182</ele>
        <time>2018-08-02T10:22:11Z</time>
      </trkpt>
      <trkpt lat="45.95021" lon="4.71458">
        <ele>182</ele>
        <time>2018-08-02T10:22:12Z</time>
      </trkpt>
      <trkpt lat="45.95014" lon="4.71458">
        <ele>182</ele>
        <time>2018-08-02T10:22:14Z</time>
      </trkpt>
      <trkpt lat="45.95009" lon="4.71459">
        <ele>182</ele>
        <time>2018-08-02T10:22:15Z</time>
      </trkpt>
      <trkpt lat="45.95002" lon="4.71457">
        <ele>182</ele>
        <time>2018-08-02T10:22:17Z</time>
      </trkpt>
      <trkpt lat="45.94997" lon="4.71455">
        <ele>184</ele>
        <time>2018-08-02T10:22:18Z</time>
      </trkpt>
      <trkpt lat="45.9499" lon="4.71447">
        <ele>184</ele>
        <time>2018-08-02T10:22:21Z</time>
      </trkpt>
      <trkpt lat="45.94987" lon="4.71442">
        <ele>184</ele>
        <time>2018-08-02T10:22:22Z</time>
      </trkpt>
      <trkpt lat="45.94984" lon="4.71438">
        <ele>185</ele>
        <time>2018-08-02T10:22:23Z</time>
      </trkpt>
      <trkpt lat="45.94979" lon="4.71436">
        <ele>185</ele>
        <time>2018-08-02T10:22:24Z</time>
      </trkpt>
      <trkpt lat="45.94976" lon="4.71434">
        <ele>185</ele>
        <time>2018-08-02T10:22:25Z</time>
      </trkpt>
      <trkpt lat="45.9497" lon="4.71433">
        <ele>185</ele>
        <time>2018-08-02T10:22:26Z</time>
      </trkpt>
      <trkpt lat="45.94964" lon="4.71433">
        <ele>184</ele>
        <time>2018-08-02T10:22:27Z</time>
      </trkpt>
      <trkpt lat="45.94957" lon="4.71434">
        <ele>184</ele>
        <time>2018-08-02T10:22:28Z</time>
      </trkpt>
      <trkpt lat="45.9495" lon="4.71441">
        <ele>184</ele>
        <time>2018-08-02T10:22:30Z</time>
      </trkpt>
      <trkpt lat="45.94946" lon="4.71445">
        <ele>184</ele>
        <time>2018-08-02T10:22:31Z</time>
      </trkpt>
      <trkpt lat="45.94941" lon="4.71449">
        <ele>184</ele>
        <time>2018-08-02T10:22:32Z</time>
      </trkpt>
      <trkpt lat="45.94937" lon="4.71453">
        <ele>184</ele>
        <time>2018-08-02T10:22:33Z</time>
      </trkpt>
      <trkpt lat="45.94933" lon="4.71455">
        <ele>184</ele>
        <time>2018-08-02T10:22:34Z</time>
      </trkpt>
      <trkpt lat="45.94928" lon="4.71455">
        <ele>184</ele>
        <time>2018-08-02T10:22:35Z</time>
      </trkpt>
      <trkpt lat="45.94922" lon="4.71455">
        <ele>184</ele>
        <time>2018-08-02T10:22:36Z</time>
      </trkpt>
      <trkpt lat="45.94918" lon="4.71456">
        <ele>184</ele>
        <time>2018-08-02T10:22:37Z</time>
      </trkpt>
      <trkpt lat="45.94914" lon="4.71456">
        <ele>184</ele>
        <time>2018-08-02T10:22:38Z</time>
      </trkpt>
      <trkpt lat="45.94908" lon="4.71456">
        <ele>184</ele>
        <time>2018-08-02T10:22:39Z</time>
      </trkpt>
      <trkpt lat="45.94901" lon="4.71455">
        <ele>184</ele>
        <time>2018-08-02T10:22:40Z</time>
      </trkpt>
      <trkpt lat="45.94894" lon="4.71455">
        <ele>184</ele>
        <time>2018-08-02T10:22:41Z</time>
      </trkpt>
      <trkpt lat="45.94886" lon="4.71458">
        <ele>184</ele>
        <time>2018-08-02T10:22:43Z</time>
      </trkpt>
      <trkpt lat="45.9488" lon="4.71458">
        <ele>184</ele>
        <time>2018-08-02T10:22:44Z</time>
      </trkpt>
      <trkpt lat="45.94871" lon="4.71455">
        <ele>184</ele>
        <time>2018-08-02T10:22:45Z</time>
      </trkpt>
      <trkpt lat="45.94864" lon="4.71454">
        <ele>184</ele>
        <time>2018-08-02T10:22:46Z</time>
      </trkpt>
      <trkpt lat="45.94858" lon="4.71453">
        <ele>184</ele>
        <time>2018-08-02T10:22:47Z</time>
      </trkpt>
      <trkpt lat="45.94853" lon="4.71453">
        <ele>184</ele>
        <time>2018-08-02T10:22:48Z</time>
      </trkpt>
      <trkpt lat="45.94848" lon="4.71454">
        <ele>184</ele>
        <time>2018-08-02T10:22:49Z</time>
      </trkpt>
      <trkpt lat="45.94843" lon="4.71454">
        <ele>184</ele>
        <time>2018-08-02T10:22:50Z</time>
      </trkpt>
      <trkpt lat="45.94836" lon="4.71453">
        <ele>184</ele>
        <time>2018-08-02T10:22:51Z</time>
      </trkpt>
      <trkpt lat="45.94832" lon="4.71452">
        <ele>183</ele>
        <time>2018-08-02T10:22:52Z</time>
      </trkpt>
      <trkpt lat="45.94826" lon="4.71452">
        <ele>183</ele>
        <time>2018-08-02T10:22:53Z</time>
      </trkpt>
      <trkpt lat="45.9482" lon="4.71452">
        <ele>183</ele>
        <time>2018-08-02T10:22:54Z</time>
      </trkpt>
      <trkpt lat="45.94814" lon="4.71452">
        <ele>183</ele>
        <time>2018-08-02T10:22:55Z</time>
      </trkpt>
      <trkpt lat="45.9481" lon="4.71451">
        <ele>183</ele>
        <time>2018-08-02T10:22:56Z</time>
      </trkpt>
      <trkpt lat="45.94803" lon="4.7145">
        <ele>183</ele>
        <time>2018-08-02T10:22:57Z</time>
      </trkpt>
      <trkpt lat="45.94799" lon="4.71449">
        <ele>183</ele>
        <time>2018-08-02T10:22:58Z</time>
      </trkpt>
      <trkpt lat="45.94792" lon="4.71449">
        <ele>183</ele>
        <time>2018-08-02T10:22:59Z</time>
      </trkpt>
      <trkpt lat="45.94789" lon="4.71448">
        <ele>183</ele>
        <time>2018-08-02T10:23:00Z</time>
      </trkpt>
      <trkpt lat="45.94783" lon="4.71444">
        <ele>184</ele>
        <time>2018-08-02T10:23:01Z</time>
      </trkpt>
      <trkpt lat="45.94779" lon="4.71444">
        <ele>184</ele>
        <time>2018-08-02T10:23:02Z</time>
      </trkpt>
      <trkpt lat="45.94771" lon="4.71444">
        <ele>184</ele>
        <time>2018-08-02T10:23:04Z</time>
      </trkpt>
      <trkpt lat="45.94767" lon="4.71444">
        <ele>184</ele>
        <time>2018-08-02T10:23:05Z</time>
      </trkpt>
      <trkpt lat="45.94759" lon="4.71446">
        <ele>184</ele>
        <time>2018-08-02T10:23:07Z</time>
      </trkpt>
      <trkpt lat="45.94755" lon="4.71445">
        <ele>184</ele>
        <time>2018-08-02T10:23:08Z</time>
      </trkpt>
      <trkpt lat="45.9475" lon="4.71444">
        <ele>183</ele>
        <time>2018-08-02T10:23:09Z</time>
      </trkpt>
      <trkpt lat="45.94741" lon="4.71442">
        <ele>183</ele>
        <time>2018-08-02T10:23:10Z</time>
      </trkpt>
      <trkpt lat="45.94733" lon="4.71438">
        <ele>183</ele>
        <time>2018-08-02T10:23:12Z</time>
      </trkpt>
      <trkpt lat="45.94724" lon="4.71438">
        <ele>183</ele>
        <time>2018-08-02T10:23:13Z</time>
      </trkpt>
      <trkpt lat="45.9472" lon="4.71436">
        <ele>183</ele>
        <time>2018-08-02T10:23:14Z</time>
      </trkpt>
      <trkpt lat="45.94715" lon="4.71436">
        <ele>183</ele>
        <time>2018-08-02T10:23:15Z</time>
      </trkpt>
      <trkpt lat="45.94709" lon="4.71435">
        <ele>182</ele>
        <time>2018-08-02T10:23:16Z</time>
      </trkpt>
      <trkpt lat="45.94701" lon="4.71433">
        <ele>182</ele>
        <time>2018-08-02T10:23:17Z</time>
      </trkpt>
      <trkpt lat="45.94697" lon="4.71435">
        <ele>182</ele>
        <time>2018-08-02T10:23:18Z</time>
      </trkpt>
      <trkpt lat="45.94692" lon="4.71435">
        <ele>182</ele>
        <time>2018-08-02T10:23:19Z</time>
      </trkpt>
      <trkpt lat="45.94686" lon="4.71437">
        <ele>182</ele>
        <time>2018-08-02T10:23:20Z</time>
      </trkpt>
      <trkpt lat="45.9468" lon="4.71435">
        <ele>182</ele>
        <time>2018-08-02T10:23:21Z</time>
      </trkpt>
      <trkpt lat="45.94676" lon="4.71435">
        <ele>182</ele>
        <time>2018-08-02T10:23:22Z</time>
      </trkpt>
      <trkpt lat="45.94669" lon="4.71436">
        <ele>182</ele>
        <time>2018-08-02T10:23:23Z</time>
      </trkpt>
      <trkpt lat="45.94664" lon="4.71436">
        <ele>182</ele>
        <time>2018-08-02T10:23:24Z</time>
      </trkpt>
      <trkpt lat="45.94657" lon="4.71436">
        <ele>182</ele>
        <time>2018-08-02T10:23:25Z</time>
      </trkpt>
      <trkpt lat="45.94652" lon="4.71435">
        <ele>182</ele>
        <time>2018-08-02T10:23:26Z</time>
      </trkpt>
      <trkpt lat="45.94646" lon="4.71434">
        <ele>182</ele>
        <time>2018-08-02T10:23:27Z</time>
      </trkpt>
      <trkpt lat="45.94639" lon="4.71434">
        <ele>182</ele>
        <time>2018-08-02T10:23:28Z</time>
      </trkpt>
      <trkpt lat="45.94634" lon="4.71434">
        <ele>182</ele>
        <time>2018-08-02T10:23:29Z</time>
      </trkpt>
      <trkpt lat="45.94629" lon="4.71433">
        <ele>182</ele>
        <time>2018-08-02T10:23:30Z</time>
      </trkpt>
      <trkpt lat="45.94623" lon="4.71433">
        <ele>182</ele>
        <time>2018-08-02T10:23:31Z</time>
      </trkpt>
      <trkpt lat="45.94615" lon="4.71433">
        <ele>182</ele>
        <time>2018-08-02T10:23:32Z</time>
      </trkpt>
      <trkpt lat="45.9461" lon="4.71433">
        <ele>182</ele>
        <time>2018-08-02T10:23:33Z</time>
      </trkpt>
      <trkpt lat="45.94604" lon="4.71433">
        <ele>182</ele>
        <time>2018-08-02T10:23:34Z</time>
      </trkpt>
      <trkpt lat="45.94599" lon="4.71433">
        <ele>182</ele>
        <time>2018-08-02T10:23:35Z</time>
      </trkpt>
      <trkpt lat="45.94592" lon="4.71432">
        <ele>183</ele>
        <time>2018-08-02T10:23:36Z</time>
      </trkpt>
      <trkpt lat="45.94587" lon="4.71433">
        <ele>183</ele>
        <time>2018-08-02T10:23:37Z</time>
      </trkpt>
      <trkpt lat="45.94581" lon="4.71434">
        <ele>182</ele>
        <time>2018-08-02T10:23:38Z</time>
      </trkpt>
      <trkpt lat="45.94577" lon="4.71435">
        <ele>182</ele>
        <time>2018-08-02T10:23:39Z</time>
      </trkpt>
      <trkpt lat="45.94569" lon="4.71437">
        <ele>182</ele>
        <time>2018-08-02T10:23:40Z</time>
      </trkpt>
      <trkpt lat="45.94562" lon="4.71438">
        <ele>181</ele>
        <time>2018-08-02T10:23:41Z</time>
      </trkpt>
      <trkpt lat="45.94555" lon="4.7144">
        <ele>181</ele>
        <time>2018-08-02T10:23:42Z</time>
      </trkpt>
      <trkpt lat="45.94548" lon="4.71441">
        <ele>181</ele>
        <time>2018-08-02T10:23:43Z</time>
      </trkpt>
      <trkpt lat="45.94541" lon="4.71443">
        <ele>181</ele>
        <time>2018-08-02T10:23:44Z</time>
      </trkpt>
      <trkpt lat="45.94534" lon="4.71447">
        <ele>180</ele>
        <time>2018-08-02T10:23:45Z</time>
      </trkpt>
      <trkpt lat="45.94526" lon="4.71449">
        <ele>180</ele>
        <time>2018-08-02T10:23:46Z</time>
      </trkpt>
      <trkpt lat="45.9452" lon="4.71452">
        <ele>180</ele>
        <time>2018-08-02T10:23:47Z</time>
      </trkpt>
      <trkpt lat="45.94513" lon="4.71452">
        <ele>180</ele>
        <time>2018-08-02T10:23:48Z</time>
      </trkpt>
      <trkpt lat="45.94507" lon="4.71456">
        <ele>180</ele>
        <time>2018-08-02T10:23:49Z</time>
      </trkpt>
      <trkpt lat="45.94498" lon="4.71457">
        <ele>179</ele>
        <time>2018-08-02T10:23:50Z</time>
      </trkpt>
      <trkpt lat="45.94491" lon="4.71459">
        <ele>179</ele>
        <time>2018-08-02T10:23:51Z</time>
      </trkpt>
      <trkpt lat="45.94482" lon="4.71464">
        <ele>179</ele>
        <time>2018-08-02T10:23:52Z</time>
      </trkpt>
      <trkpt lat="45.94476" lon="4.71466">
        <ele>179</ele>
        <time>2018-08-02T10:23:53Z</time>
      </trkpt>
      <trkpt lat="45.9447" lon="4.71468">
        <ele>179</ele>
        <time>2018-08-02T10:23:54Z</time>
      </trkpt>
      <trkpt lat="45.94463" lon="4.71472">
        <ele>179</ele>
        <time>2018-08-02T10:23:55Z</time>
      </trkpt>
      <trkpt lat="45.94457" lon="4.71475">
        <ele>179</ele>
        <time>2018-08-02T10:23:56Z</time>
      </trkpt>
      <trkpt lat="45.9445" lon="4.71478">
        <ele>179</ele>
        <time>2018-08-02T10:23:57Z</time>
      </trkpt>
      <trkpt lat="45.94442" lon="4.7148">
        <ele>179</ele>
        <time>2018-08-02T10:23:58Z</time>
      </trkpt>
      <trkpt lat="45.94434" lon="4.71482">
        <ele>179</ele>
        <time>2018-08-02T10:23:59Z</time>
      </trkpt>
      <trkpt lat="45.94427" lon="4.71485">
        <ele>178</ele>
        <time>2018-08-02T10:24:00Z</time>
      </trkpt>
      <trkpt lat="45.9442" lon="4.71488">
        <ele>178</ele>
        <time>2018-08-02T10:24:01Z</time>
      </trkpt>
      <trkpt lat="45.94412" lon="4.7149">
        <ele>178</ele>
        <time>2018-08-02T10:24:02Z</time>
      </trkpt>
      <trkpt lat="45.94405" lon="4.71493">
        <ele>178</ele>
        <time>2018-08-02T10:24:03Z</time>
      </trkpt>
      <trkpt lat="45.94397" lon="4.71495">
        <ele>178</ele>
        <time>2018-08-02T10:24:04Z</time>
      </trkpt>
      <trkpt lat="45.94389" lon="4.71498">
        <ele>177</ele>
        <time>2018-08-02T10:24:05Z</time>
      </trkpt>
      <trkpt lat="45.94382" lon="4.71501">
        <ele>177</ele>
        <time>2018-08-02T10:24:06Z</time>
      </trkpt>
      <trkpt lat="45.94375" lon="4.71503">
        <ele>177</ele>
        <time>2018-08-02T10:24:07Z</time>
      </trkpt>
      <trkpt lat="45.94367" lon="4.71507">
        <ele>176</ele>
        <time>2018-08-02T10:24:08Z</time>
      </trkpt>
      <trkpt lat="45.94359" lon="4.7151">
        <ele>176</ele>
        <time>2018-08-02T10:24:09Z</time>
      </trkpt>
      <trkpt lat="45.94352" lon="4.71513">
        <ele>176</ele>
        <time>2018-08-02T10:24:10Z</time>
      </trkpt>
      <trkpt lat="45.94344" lon="4.71516">
        <ele>176</ele>
        <time>2018-08-02T10:24:11Z</time>
      </trkpt>
      <trkpt lat="45.94337" lon="4.71518">
        <ele>176</ele>
        <time>2018-08-02T10:24:12Z</time>
      </trkpt>
      <trkpt lat="45.94331" lon="4.71523">
        <ele>176</ele>
        <time>2018-08-02T10:24:13Z</time>
      </trkpt>
      <trkpt lat="45.94323" lon="4.71523">
        <ele>176</ele>
        <time>2018-08-02T10:24:14Z</time>
      </trkpt>
      <trkpt lat="45.94316" lon="4.71528">
        <ele>175</ele>
        <time>2018-08-02T10:24:15Z</time>
      </trkpt>
      <trkpt lat="45.9431" lon="4.71531">
        <ele>175</ele>
        <time>2018-08-02T10:24:16Z</time>
      </trkpt>
      <trkpt lat="45.94305" lon="4.71535">
        <ele>175</ele>
        <time>2018-08-02T10:24:17Z</time>
      </trkpt>
      <trkpt lat="45.94297" lon="4.71537">
        <ele>175</ele>
        <time>2018-08-02T10:24:18Z</time>
      </trkpt>
      <trkpt lat="45.94291" lon="4.7154">
        <ele>175</ele>
        <time>2018-08-02T10:24:19Z</time>
      </trkpt>
      <trkpt lat="45.94284" lon="4.71543">
        <ele>175</ele>
        <time>2018-08-02T10:24:20Z</time>
      </trkpt>
      <trkpt lat="45.94277" lon="4.71544">
        <ele>175</ele>
        <time>2018-08-02T10:24:21Z</time>
      </trkpt>
      <trkpt lat="45.9427" lon="4.71545">
        <ele>175</ele>
        <time>2018-08-02T10:24:22Z</time>
      </trkpt>
      <trkpt lat="45.94265" lon="4.71548">
        <ele>175</ele>
        <time>2018-08-02T10:24:23Z</time>
      </trkpt>
      <trkpt lat="45.94256" lon="4.7155">
        <ele>175</ele>
        <time>2018-08-02T10:24:24Z</time>
      </trkpt>
      <trkpt lat="45.9425" lon="4.71553">
        <ele>175</ele>
        <time>2018-08-02T10:24:25Z</time>
      </trkpt>
      <trkpt lat="45.94243" lon="4.71555">
        <ele>174</ele>
        <time>2018-08-02T10:24:26Z</time>
      </trkpt>
      <trkpt lat="45.94236" lon="4.71557">
        <ele>174</ele>
        <time>2018-08-02T10:24:27Z</time>
      </trkpt>
      <trkpt lat="45.9423" lon="4.71559">
        <ele>174</ele>
        <time>2018-08-02T10:24:28Z</time>
      </trkpt>
      <trkpt lat="45.94226" lon="4.71562">
        <ele>174</ele>
        <time>2018-08-02T10:24:29Z</time>
      </trkpt>
      <trkpt lat="45.9422" lon="4.71565">
        <ele>174</ele>
        <time>2018-08-02T10:24:30Z</time>
      </trkpt>
      <trkpt lat="45.94213" lon="4.71567">
        <ele>174</ele>
        <time>2018-08-02T10:24:31Z</time>
      </trkpt>
      <trkpt lat="45.94208" lon="4.71571">
        <ele>174</ele>
        <time>2018-08-02T10:24:32Z</time>
      </trkpt>
      <trkpt lat="45.94201" lon="4.71574">
        <ele>174</ele>
        <time>2018-08-02T10:24:33Z</time>
      </trkpt>
      <trkpt lat="45.94195" lon="4.71575">
        <ele>174</ele>
        <time>2018-08-02T10:24:34Z</time>
      </trkpt>
      <trkpt lat="45.94189" lon="4.71576">
        <ele>174</ele>
        <time>2018-08-02T10:24:35Z</time>
      </trkpt>
      <trkpt lat="45.94183" lon="4.71579">
        <ele>174</ele>
        <time>2018-08-02T10:24:36Z</time>
      </trkpt>
      <trkpt lat="45.94177" lon="4.71582">
        <ele>174</ele>
        <time>2018-08-02T10:24:37Z</time>
      </trkpt>
      <trkpt lat="45.94172" lon="4.71584">
        <ele>174</ele>
        <time>2018-08-02T10:24:38Z</time>
      </trkpt>
      <trkpt lat="45.94164" lon="4.71586">
        <ele>174</ele>
        <time>2018-08-02T10:24:39Z</time>
      </trkpt>
      <trkpt lat="45.94158" lon="4.71589">
        <ele>174</ele>
        <time>2018-08-02T10:24:40Z</time>
      </trkpt>
      <trkpt lat="45.94152" lon="4.7159">
        <ele>173</ele>
        <time>2018-08-02T10:24:41Z</time>
      </trkpt>
      <trkpt lat="45.94146" lon="4.71594">
        <ele>173</ele>
        <time>2018-08-02T10:24:42Z</time>
      </trkpt>
      <trkpt lat="45.9414" lon="4.71597">
        <ele>173</ele>
        <time>2018-08-02T10:24:43Z</time>
      </trkpt>
      <trkpt lat="45.94135" lon="4.71601">
        <ele>173</ele>
        <time>2018-08-02T10:24:44Z</time>
      </trkpt>
      <trkpt lat="45.94129" lon="4.71603">
        <ele>173</ele>
        <time>2018-08-02T10:24:45Z</time>
      </trkpt>
      <trkpt lat="45.94123" lon="4.71605">
        <ele>173</ele>
        <time>2018-08-02T10:24:46Z</time>
      </trkpt>
      <trkpt lat="45.94118" lon="4.71608">
        <ele>173</ele>
        <time>2018-08-02T10:24:47Z</time>
      </trkpt>
      <trkpt lat="45.94111" lon="4.71608">
        <ele>173</ele>
        <time>2018-08-02T10:24:48Z</time>
      </trkpt>
      <trkpt lat="45.94105" lon="4.7161">
        <ele>173</ele>
        <time>2018-08-02T10:24:49Z</time>
      </trkpt>
      <trkpt lat="45.94099" lon="4.71613">
        <ele>173</ele>
        <time>2018-08-02T10:24:50Z</time>
      </trkpt>
      <trkpt lat="45.94093" lon="4.71615">
        <ele>173</ele>
        <time>2018-08-02T10:24:51Z</time>
      </trkpt>
      <trkpt lat="45.94089" lon="4.71619">
        <ele>173</ele>
        <time>2018-08-02T10:24:52Z</time>
      </trkpt>
      <trkpt lat="45.94082" lon="4.71622">
        <ele>174</ele>
        <time>2018-08-02T10:24:53Z</time>
      </trkpt>
      <trkpt lat="45.94076" lon="4.71625">
        <ele>174</ele>
        <time>2018-08-02T10:24:54Z</time>
      </trkpt>
      <trkpt lat="45.94069" lon="4.71627">
        <ele>174</ele>
        <time>2018-08-02T10:24:55Z</time>
      </trkpt>
      <trkpt lat="45.94063" lon="4.71629">
        <ele>174</ele>
        <time>2018-08-02T10:24:56Z</time>
      </trkpt>
      <trkpt lat="45.94056" lon="4.71631">
        <ele>174</ele>
        <time>2018-08-02T10:24:57Z</time>
      </trkpt>
      <trkpt lat="45.94051" lon="4.71633">
        <ele>175</ele>
        <time>2018-08-02T10:24:58Z</time>
      </trkpt>
      <trkpt lat="45.94045" lon="4.71635">
        <ele>175</ele>
        <time>2018-08-02T10:24:59Z</time>
      </trkpt>
      <trkpt lat="45.94037" lon="4.71635">
        <ele>175</ele>
        <time>2018-08-02T10:25:00Z</time>
      </trkpt>
      <trkpt lat="45.94031" lon="4.71638">
        <ele>175</ele>
        <time>2018-08-02T10:25:01Z</time>
      </trkpt>
      <trkpt lat="45.94023" lon="4.71639">
        <ele>175</ele>
        <time>2018-08-02T10:25:02Z</time>
      </trkpt>
      <trkpt lat="45.94019" lon="4.71644">
        <ele>175</ele>
        <time>2018-08-02T10:25:03Z</time>
      </trkpt>
      <trkpt lat="45.94015" lon="4.71648">
        <ele>176</ele>
        <time>2018-08-02T10:25:04Z</time>
      </trkpt>
      <trkpt lat="45.94007" lon="4.71652">
        <ele>176</ele>
        <time>2018-08-02T10:25:05Z</time>
      </trkpt>
      <trkpt lat="45.94002" lon="4.71655">
        <ele>176</ele>
        <time>2018-08-02T10:25:06Z</time>
      </trkpt>
      <trkpt lat="45.93996" lon="4.71659">
        <ele>177</ele>
        <time>2018-08-02T10:25:07Z</time>
      </trkpt>
      <trkpt lat="45.93988" lon="4.71659">
        <ele>177</ele>
        <time>2018-08-02T10:25:08Z</time>
      </trkpt>
      <trkpt lat="45.93981" lon="4.71661">
        <ele>177</ele>
        <time>2018-08-02T10:25:09Z</time>
      </trkpt>
      <trkpt lat="45.93975" lon="4.71662">
        <ele>177</ele>
        <time>2018-08-02T10:25:10Z</time>
      </trkpt>
      <trkpt lat="45.93972" lon="4.71664">
        <ele>177</ele>
        <time>2018-08-02T10:25:11Z</time>
      </trkpt>
      <trkpt lat="45.93965" lon="4.71667">
        <ele>177</ele>
        <time>2018-08-02T10:25:12Z</time>
      </trkpt>
      <trkpt lat="45.9396" lon="4.71669">
        <ele>175</ele>
        <time>2018-08-02T10:25:13Z</time>
      </trkpt>
      <trkpt lat="45.93955" lon="4.71671">
        <ele>175</ele>
        <time>2018-08-02T10:25:14Z</time>
      </trkpt>
      <trkpt lat="45.9395" lon="4.71673">
        <ele>175</ele>
        <time>2018-08-02T10:25:15Z</time>
      </trkpt>
      <trkpt lat="45.93944" lon="4.71675">
        <ele>175</ele>
        <time>2018-08-02T10:25:16Z</time>
      </trkpt>
      <trkpt lat="45.93938" lon="4.71676">
        <ele>175</ele>
        <time>2018-08-02T10:25:17Z</time>
      </trkpt>
      <trkpt lat="45.9393" lon="4.71678">
        <ele>175</ele>
        <time>2018-08-02T10:25:18Z</time>
      </trkpt>
      <trkpt lat="45.93923" lon="4.71679">
        <ele>175</ele>
        <time>2018-08-02T10:25:19Z</time>
      </trkpt>
      <trkpt lat="45.93915" lon="4.71682">
        <ele>175</ele>
        <time>2018-08-02T10:25:20Z</time>
      </trkpt>
      <trkpt lat="45.93912" lon="4.71686">
        <ele>174</ele>
        <time>2018-08-02T10:25:21Z</time>
      </trkpt>
      <trkpt lat="45.93906" lon="4.71689">
        <ele>174</ele>
        <time>2018-08-02T10:25:22Z</time>
      </trkpt>
      <trkpt lat="45.939" lon="4.71691">
        <ele>174</ele>
        <time>2018-08-02T10:25:23Z</time>
      </trkpt>
      <trkpt lat="45.93896" lon="4.71691">
        <ele>174</ele>
        <time>2018-08-02T10:25:24Z</time>
      </trkpt>
      <trkpt lat="45.93889" lon="4.71694">
        <ele>174</ele>
        <time>2018-08-02T10:25:25Z</time>
      </trkpt>
      <trkpt lat="45.93883" lon="4.71697">
        <ele>174</ele>
        <time>2018-08-02T10:25:26Z</time>
      </trkpt>
      <trkpt lat="45.93878" lon="4.71699">
        <ele>174</ele>
        <time>2018-08-02T10:25:27Z</time>
      </trkpt>
      <trkpt lat="45.93873" lon="4.717">
        <ele>174</ele>
        <time>2018-08-02T10:25:28Z</time>
      </trkpt>
      <trkpt lat="45.93868" lon="4.71702">
        <ele>174</ele>
        <time>2018-08-02T10:25:29Z</time>
      </trkpt>
      <trkpt lat="45.93864" lon="4.71704">
        <ele>174</ele>
        <time>2018-08-02T10:25:30Z</time>
      </trkpt>
      <trkpt lat="45.93858" lon="4.71707">
        <ele>174</ele>
        <time>2018-08-02T10:25:31Z</time>
      </trkpt>
      <trkpt lat="45.9385" lon="4.71709">
        <ele>174</ele>
        <time>2018-08-02T10:25:32Z</time>
      </trkpt>
      <trkpt lat="45.93845" lon="4.71711">
        <ele>174</ele>
        <time>2018-08-02T10:25:33Z</time>
      </trkpt>
      <trkpt lat="45.9384" lon="4.71715">
        <ele>175</ele>
        <time>2018-08-02T10:25:34Z</time>
      </trkpt>
      <trkpt lat="45.93834" lon="4.71717">
        <ele>175</ele>
        <time>2018-08-02T10:25:35Z</time>
      </trkpt>
      <trkpt lat="45.93828" lon="4.71718">
        <ele>175</ele>
        <time>2018-08-02T10:25:36Z</time>
      </trkpt>
      <trkpt lat="45.93824" lon="4.71717">
        <ele>175</ele>
        <time>2018-08-02T10:25:37Z</time>
      </trkpt>
      <trkpt lat="45.93815" lon="4.71717">
        <ele>175</ele>
        <time>2018-08-02T10:25:38Z</time>
      </trkpt>
      <trkpt lat="45.93811" lon="4.71721">
        <ele>175</ele>
        <time>2018-08-02T10:25:39Z</time>
      </trkpt>
      <trkpt lat="45.93803" lon="4.71723">
        <ele>175</ele>
        <time>2018-08-02T10:25:40Z</time>
      </trkpt>
      <trkpt lat="45.93797" lon="4.71727">
        <ele>175</ele>
        <time>2018-08-02T10:25:41Z</time>
      </trkpt>
      <trkpt lat="45.93792" lon="4.71729">
        <ele>175</ele>
        <time>2018-08-02T10:25:42Z</time>
      </trkpt>
      <trkpt lat="45.93786" lon="4.71732">
        <ele>175</ele>
        <time>2018-08-02T10:25:43Z</time>
      </trkpt>
      <trkpt lat="45.9378" lon="4.71732">
        <ele>175</ele>
        <time>2018-08-02T10:25:44Z</time>
      </trkpt>
      <trkpt lat="45.93772" lon="4.71737">
        <ele>175</ele>
        <time>2018-08-02T10:25:46Z</time>
      </trkpt>
      <trkpt lat="45.93768" lon="4.71742">
        <ele>175</ele>
        <time>2018-08-02T10:25:47Z</time>
      </trkpt>
      <trkpt lat="45.93761" lon="4.71743">
        <ele>175</ele>
        <time>2018-08-02T10:25:48Z</time>
      </trkpt>
      <trkpt lat="45.93757" lon="4.71747">
        <ele>175</ele>
        <time>2018-08-02T10:25:49Z</time>
      </trkpt>
      <trkpt lat="45.93749" lon="4.71748">
        <ele>175</ele>
        <time>2018-08-02T10:25:50Z</time>
      </trkpt>
      <trkpt lat="45.93742" lon="4.71749">
        <ele>175</ele>
        <time>2018-08-02T10:25:51Z</time>
      </trkpt>
      <trkpt lat="45.93733" lon="4.71752">
        <ele>176</ele>
        <time>2018-08-02T10:25:53Z</time>
      </trkpt>
      <trkpt lat="45.9373" lon="4.71754">
        <ele>176</ele>
        <time>2018-08-02T10:25:54Z</time>
      </trkpt>
      <trkpt lat="45.93727" lon="4.71756">
        <ele>176</ele>
        <time>2018-08-02T10:25:55Z</time>
      </trkpt>
      <trkpt lat="45.9372" lon="4.71757">
        <ele>176</ele>
        <time>2018-08-02T10:25:56Z</time>
      </trkpt>
      <trkpt lat="45.93711" lon="4.7176">
        <ele>176</ele>
        <time>2018-08-02T10:26:01Z</time>
      </trkpt>
      <trkpt lat="45.9371" lon="4.71761">
        <ele>176</ele>
        <time>2018-08-02T10:26:02Z</time>
      </trkpt>
      <trkpt lat="45.93703" lon="4.71769">
        <ele>177</ele>
        <time>2018-08-02T10:26:07Z</time>
      </trkpt>
      <trkpt lat="45.93699" lon="4.71783">
        <ele>177</ele>
        <time>2018-08-02T10:26:08Z</time>
      </trkpt>
      <trkpt lat="45.93697" lon="4.71795">
        <ele>176</ele>
        <time>2018-08-02T10:26:11Z</time>
      </trkpt>
      <trkpt lat="45.93696" lon="4.71799">
        <ele>176</ele>
        <time>2018-08-02T10:26:12Z</time>
      </trkpt>
      <trkpt lat="45.93691" lon="4.7181">
        <ele>176</ele>
        <time>2018-08-02T10:26:13Z</time>
      </trkpt>
      <trkpt lat="45.93686" lon="4.71821">
        <ele>177</ele>
        <time>2018-08-02T10:26:14Z</time>
      </trkpt>
      <trkpt lat="45.93685" lon="4.71833">
        <ele>177</ele>
        <time>2018-08-02T10:26:16Z</time>
      </trkpt>
      <trkpt lat="45.93684" lon="4.71841">
        <ele>176</ele>
        <time>2018-08-02T10:26:17Z</time>
      </trkpt>
      <trkpt lat="45.93682" lon="4.71851">
        <ele>175</ele>
        <time>2018-08-02T10:26:18Z</time>
      </trkpt>
      <trkpt lat="45.93681" lon="4.71861">
        <ele>175</ele>
        <time>2018-08-02T10:26:19Z</time>
      </trkpt>
      <trkpt lat="45.93676" lon="4.7187">
        <ele>175</ele>
        <time>2018-08-02T10:26:21Z</time>
      </trkpt>
      <trkpt lat="45.93675" lon="4.71877">
        <ele>175</ele>
        <time>2018-08-02T10:26:22Z</time>
      </trkpt>
      <trkpt lat="45.93674" lon="4.7188">
        <ele>175</ele>
        <time>2018-08-02T10:26:23Z</time>
      </trkpt>
      <trkpt lat="45.93668" lon="4.7189">
        <ele>175</ele>
        <time>2018-08-02T10:26:24Z</time>
      </trkpt>
      <trkpt lat="45.93666" lon="4.719">
        <ele>176</ele>
        <time>2018-08-02T10:26:26Z</time>
      </trkpt>
      <trkpt lat="45.93664" lon="4.71909">
        <ele>176</ele>
        <time>2018-08-02T10:26:27Z</time>
      </trkpt>
      <trkpt lat="45.93661" lon="4.71918">
        <ele>175</ele>
        <time>2018-08-02T10:26:28Z</time>
      </trkpt>
      <trkpt lat="45.93657" lon="4.71923">
        <ele>175</ele>
        <time>2018-08-02T10:26:29Z</time>
      </trkpt>
      <trkpt lat="45.93652" lon="4.71926">
        <ele>175</ele>
        <time>2018-08-02T10:26:30Z</time>
      </trkpt>
      <trkpt lat="45.9365" lon="4.71936">
        <ele>175</ele>
        <time>2018-08-02T10:26:31Z</time>
      </trkpt>
      <trkpt lat="45.93643" lon="4.71938">
        <ele>176</ele>
        <time>2018-08-02T10:26:32Z</time>
      </trkpt>
      <trkpt lat="45.93643" lon="4.71948">
        <ele>176</ele>
        <time>2018-08-02T10:26:33Z</time>
      </trkpt>
      <trkpt lat="45.93638" lon="4.71956">
        <ele>176</ele>
        <time>2018-08-02T10:26:34Z</time>
      </trkpt>
      <trkpt lat="45.93639" lon="4.71965">
        <ele>175</ele>
        <time>2018-08-02T10:26:35Z</time>
      </trkpt>
      <trkpt lat="45.93636" lon="4.71973">
        <ele>175</ele>
        <time>2018-08-02T10:26:36Z</time>
      </trkpt>
      <trkpt lat="45.93635" lon="4.7198">
        <ele>175</ele>
        <time>2018-08-02T10:26:37Z</time>
      </trkpt>
      <trkpt lat="45.93632" lon="4.71988">
        <ele>175</ele>
        <time>2018-08-02T10:26:38Z</time>
      </trkpt>
      <trkpt lat="45.93628" lon="4.71995">
        <ele>175</ele>
        <time>2018-08-02T10:26:39Z</time>
      </trkpt>
      <trkpt lat="45.93626" lon="4.72002">
        <ele>175</ele>
        <time>2018-08-02T10:26:40Z</time>
      </trkpt>
      <trkpt lat="45.93623" lon="4.72008">
        <ele>175</ele>
        <time>2018-08-02T10:26:41Z</time>
      </trkpt>
      <trkpt lat="45.93624" lon="4.72018">
        <ele>175</ele>
        <time>2018-08-02T10:26:42Z</time>
      </trkpt>
      <trkpt lat="45.93622" lon="4.72023">
        <ele>175</ele>
        <time>2018-08-02T10:26:43Z</time>
      </trkpt>
      <trkpt lat="45.93618" lon="4.72027">
        <ele>175</ele>
        <time>2018-08-02T10:26:44Z</time>
      </trkpt>
      <trkpt lat="45.93617" lon="4.72037">
        <ele>175</ele>
        <time>2018-08-02T10:26:45Z</time>
      </trkpt>
      <trkpt lat="45.93616" lon="4.72043">
        <ele>175</ele>
        <time>2018-08-02T10:26:46Z</time>
      </trkpt>
      <trkpt lat="45.93607" lon="4.72037">
        <ele>175</ele>
        <time>2018-08-02T10:26:47Z</time>
      </trkpt>
      <trkpt lat="45.936" lon="4.72043">
        <ele>175</ele>
        <time>2018-08-02T10:26:49Z</time>
      </trkpt>
      <trkpt lat="45.93597" lon="4.72049">
        <ele>175</ele>
        <time>2018-08-02T10:26:50Z</time>
      </trkpt>
      <trkpt lat="45.93591" lon="4.72056">
        <ele>175</ele>
        <time>2018-08-02T10:26:52Z</time>
      </trkpt>
      <trkpt lat="45.93586" lon="4.72059">
        <ele>175</ele>
        <time>2018-08-02T10:26:53Z</time>
      </trkpt>
      <trkpt lat="45.93587" lon="4.7207">
        <ele>175</ele>
        <time>2018-08-02T10:26:54Z</time>
      </trkpt>
      <trkpt lat="45.93587" lon="4.7208">
        <ele>176</ele>
        <time>2018-08-02T10:26:55Z</time>
      </trkpt>
      <trkpt lat="45.93581" lon="4.72085">
        <ele>176</ele>
        <time>2018-08-02T10:26:57Z</time>
      </trkpt>
      <trkpt lat="45.93576" lon="4.72087">
        <ele>176</ele>
        <time>2018-08-02T10:26:58Z</time>
      </trkpt>
      <trkpt lat="45.93575" lon="4.72111">
        <ele>175</ele>
        <time>2018-08-02T10:26:59Z</time>
      </trkpt>
      <trkpt lat="45.93572" lon="4.72115">
        <ele>175</ele>
        <time>2018-08-02T10:27:00Z</time>
      </trkpt>
      <trkpt lat="45.93562" lon="4.72112">
        <ele>175</ele>
        <time>2018-08-02T10:27:01Z</time>
      </trkpt>
      <trkpt lat="45.93561" lon="4.72126">
        <ele>174</ele>
        <time>2018-08-02T10:27:02Z</time>
      </trkpt>
      <trkpt lat="45.9356" lon="4.72138">
        <ele>174</ele>
        <time>2018-08-02T10:27:03Z</time>
      </trkpt>
      <trkpt lat="45.93561" lon="4.72148">
        <ele>174</ele>
        <time>2018-08-02T10:27:04Z</time>
      </trkpt>
      <trkpt lat="45.93561" lon="4.72159">
        <ele>174</ele>
        <time>2018-08-02T10:27:05Z</time>
      </trkpt>
      <trkpt lat="45.93557" lon="4.72164">
        <ele>174</ele>
        <time>2018-08-02T10:27:06Z</time>
      </trkpt>
      <trkpt lat="45.93556" lon="4.7217">
        <ele>173</ele>
        <time>2018-08-02T10:27:07Z</time>
      </trkpt>
      <trkpt lat="45.93565" lon="4.72184">
        <ele>173</ele>
        <time>2018-08-02T10:27:08Z</time>
      </trkpt>
      <trkpt lat="45.93566" lon="4.72185">
        <ele>173</ele>
        <time>2018-08-02T10:27:10Z</time>
      </trkpt>
      <trkpt lat="45.93556" lon="4.72187">
        <ele>173</ele>
        <time>2018-08-02T10:27:11Z</time>
      </trkpt>
      <trkpt lat="45.93552" lon="4.72197">
        <ele>173</ele>
        <time>2018-08-02T10:27:12Z</time>
      </trkpt>
      <trkpt lat="45.9355" lon="4.72207">
        <ele>173</ele>
        <time>2018-08-02T10:27:13Z</time>
      </trkpt>
      <trkpt lat="45.93548" lon="4.72215">
        <ele>173</ele>
        <time>2018-08-02T10:27:14Z</time>
      </trkpt>
      <trkpt lat="45.93543" lon="4.72218">
        <ele>172</ele>
        <time>2018-08-02T10:27:15Z</time>
      </trkpt>
      <trkpt lat="45.9354" lon="4.72226">
        <ele>172</ele>
        <time>2018-08-02T10:27:16Z</time>
      </trkpt>
      <trkpt lat="45.93539" lon="4.72233">
        <ele>172</ele>
        <time>2018-08-02T10:27:17Z</time>
      </trkpt>
      <trkpt lat="45.93535" lon="4.72243">
        <ele>172</ele>
        <time>2018-08-02T10:27:18Z</time>
      </trkpt>
      <trkpt lat="45.93532" lon="4.7225">
        <ele>172</ele>
        <time>2018-08-02T10:27:19Z</time>
      </trkpt>
      <trkpt lat="45.93529" lon="4.72258">
        <ele>172</ele>
        <time>2018-08-02T10:27:20Z</time>
      </trkpt>
      <trkpt lat="45.93527" lon="4.72265">
        <ele>172</ele>
        <time>2018-08-02T10:27:21Z</time>
      </trkpt>
      <trkpt lat="45.93524" lon="4.72273">
        <ele>172</ele>
        <time>2018-08-02T10:27:22Z</time>
      </trkpt>
      <trkpt lat="45.93521" lon="4.72278">
        <ele>172</ele>
        <time>2018-08-02T10:27:23Z</time>
      </trkpt>
      <trkpt lat="45.93518" lon="4.72285">
        <ele>172</ele>
        <time>2018-08-02T10:27:24Z</time>
      </trkpt>
      <trkpt lat="45.93515" lon="4.72292">
        <ele>172</ele>
        <time>2018-08-02T10:27:25Z</time>
      </trkpt>
      <trkpt lat="45.93511" lon="4.72297">
        <ele>172</ele>
        <time>2018-08-02T10:27:26Z</time>
      </trkpt>
      <trkpt lat="45.93506" lon="4.72304">
        <ele>172</ele>
        <time>2018-08-02T10:27:27Z</time>
      </trkpt>
      <trkpt lat="45.93502" lon="4.72309">
        <ele>173</ele>
        <time>2018-08-02T10:27:28Z</time>
      </trkpt>
      <trkpt lat="45.93498" lon="4.72317">
        <ele>173</ele>
        <time>2018-08-02T10:27:29Z</time>
      </trkpt>
      <trkpt lat="45.93494" lon="4.72324">
        <ele>173</ele>
        <time>2018-08-02T10:27:30Z</time>
      </trkpt>
      <trkpt lat="45.93489" lon="4.72333">
        <ele>173</ele>
        <time>2018-08-02T10:27:31Z</time>
      </trkpt>
      <trkpt lat="45.93485" lon="4.7234">
        <ele>173</ele>
        <time>2018-08-02T10:27:32Z</time>
      </trkpt>
      <trkpt lat="45.9348" lon="4.72344">
        <ele>173</ele>
        <time>2018-08-02T10:27:33Z</time>
      </trkpt>
      <trkpt lat="45.93474" lon="4.72349">
        <ele>173</ele>
        <time>2018-08-02T10:27:34Z</time>
      </trkpt>
      <trkpt lat="45.93471" lon="4.72355">
        <ele>173</ele>
        <time>2018-08-02T10:27:35Z</time>
      </trkpt>
      <trkpt lat="45.93466" lon="4.72361">
        <ele>173</ele>
        <time>2018-08-02T10:27:36Z</time>
      </trkpt>
      <trkpt lat="45.93462" lon="4.72365">
        <ele>173</ele>
        <time>2018-08-02T10:27:37Z</time>
      </trkpt>
      <trkpt lat="45.93457" lon="4.7237">
        <ele>173</ele>
        <time>2018-08-02T10:27:38Z</time>
      </trkpt>
      <trkpt lat="45.93453" lon="4.72375">
        <ele>173</ele>
        <time>2018-08-02T10:27:39Z</time>
      </trkpt>
      <trkpt lat="45.93448" lon="4.72379">
        <ele>173</ele>
        <time>2018-08-02T10:27:40Z</time>
      </trkpt>
      <trkpt lat="45.93444" lon="4.72385">
        <ele>173</ele>
        <time>2018-08-02T10:27:41Z</time>
      </trkpt>
      <trkpt lat="45.9344" lon="4.72388">
        <ele>173</ele>
        <time>2018-08-02T10:27:42Z</time>
      </trkpt>
      <trkpt lat="45.93436" lon="4.72392">
        <ele>173</ele>
        <time>2018-08-02T10:27:43Z</time>
      </trkpt>
      <trkpt lat="45.93431" lon="4.72394">
        <ele>173</ele>
        <time>2018-08-02T10:27:44Z</time>
      </trkpt>
      <trkpt lat="45.93425" lon="4.72394">
        <ele>174</ele>
        <time>2018-08-02T10:27:45Z</time>
      </trkpt>
      <trkpt lat="45.93418" lon="4.72397">
        <ele>174</ele>
        <time>2018-08-02T10:27:47Z</time>
      </trkpt>
      <trkpt lat="45.93412" lon="4.72399">
        <ele>174</ele>
        <time>2018-08-02T10:27:48Z</time>
      </trkpt>
      <trkpt lat="45.93408" lon="4.72402">
        <ele>174</ele>
        <time>2018-08-02T10:27:49Z</time>
      </trkpt>
      <trkpt lat="45.93403" lon="4.72402">
        <ele>174</ele>
        <time>2018-08-02T10:27:50Z</time>
      </trkpt>
      <trkpt lat="45.93399" lon="4.72401">
        <ele>174</ele>
        <time>2018-08-02T10:27:51Z</time>
      </trkpt>
      <trkpt lat="45.93394" lon="4.72403">
        <ele>174</ele>
        <time>2018-08-02T10:27:52Z</time>
      </trkpt>
      <trkpt lat="45.9339" lon="4.72405">
        <ele>174</ele>
        <time>2018-08-02T10:27:53Z</time>
      </trkpt>
      <trkpt lat="45.93386" lon="4.7241">
        <ele>174</ele>
        <time>2018-08-02T10:27:54Z</time>
      </trkpt>
      <trkpt lat="45.93384" lon="4.72415">
        <ele>174</ele>
        <time>2018-08-02T10:27:55Z</time>
      </trkpt>
      <trkpt lat="45.93385" lon="4.72425">
        <ele>173</ele>
        <time>2018-08-02T10:27:56Z</time>
      </trkpt>
      <trkpt lat="45.93387" lon="4.72432">
        <ele>173</ele>
        <time>2018-08-02T10:27:57Z</time>
      </trkpt>
      <trkpt lat="45.93389" lon="4.72438">
        <ele>173</ele>
        <time>2018-08-02T10:27:58Z</time>
      </trkpt>
      <trkpt lat="45.93391" lon="4.72445">
        <ele>173</ele>
        <time>2018-08-02T10:27:59Z</time>
      </trkpt>
      <trkpt lat="45.93391" lon="4.72453">
        <ele>173</ele>
        <time>2018-08-02T10:28:00Z</time>
      </trkpt>
      <trkpt lat="45.93389" lon="4.72461">
        <ele>173</ele>
        <time>2018-08-02T10:28:01Z</time>
      </trkpt>
      <trkpt lat="45.93386" lon="4.72466">
        <ele>173</ele>
        <time>2018-08-02T10:28:02Z</time>
      </trkpt>
      <trkpt lat="45.93382" lon="4.72471">
        <ele>173</ele>
        <time>2018-08-02T10:28:03Z</time>
      </trkpt>
      <trkpt lat="45.93378" lon="4.72477">
        <ele>173</ele>
        <time>2018-08-02T10:28:04Z</time>
      </trkpt>
      <trkpt lat="45.93375" lon="4.72481">
        <ele>173</ele>
        <time>2018-08-02T10:28:05Z</time>
      </trkpt>
      <trkpt lat="45.9337" lon="4.72487">
        <ele>173</ele>
        <time>2018-08-02T10:28:06Z</time>
      </trkpt>
      <trkpt lat="45.93366" lon="4.7249">
        <ele>173</ele>
        <time>2018-08-02T10:28:07Z</time>
      </trkpt>
      <trkpt lat="45.93361" lon="4.72494">
        <ele>173</ele>
        <time>2018-08-02T10:28:08Z</time>
      </trkpt>
      <trkpt lat="45.93358" lon="4.725">
        <ele>173</ele>
        <time>2018-08-02T10:28:09Z</time>
      </trkpt>
      <trkpt lat="45.93353" lon="4.72504">
        <ele>172</ele>
        <time>2018-08-02T10:28:10Z</time>
      </trkpt>
      <trkpt lat="45.93348" lon="4.72509">
        <ele>172</ele>
        <time>2018-08-02T10:28:11Z</time>
      </trkpt>
      <trkpt lat="45.93343" lon="4.72515">
        <ele>172</ele>
        <time>2018-08-02T10:28:12Z</time>
      </trkpt>
      <trkpt lat="45.93336" lon="4.72521">
        <ele>172</ele>
        <time>2018-08-02T10:28:13Z</time>
      </trkpt>
      <trkpt lat="45.9333" lon="4.72527">
        <ele>172</ele>
        <time>2018-08-02T10:28:14Z</time>
      </trkpt>
      <trkpt lat="45.93326" lon="4.72534">
        <ele>172</ele>
        <time>2018-08-02T10:28:15Z</time>
      </trkpt>
      <trkpt lat="45.93322" lon="4.72538">
        <ele>172</ele>
        <time>2018-08-02T10:28:16Z</time>
      </trkpt>
      <trkpt lat="45.93317" lon="4.72543">
        <ele>172</ele>
        <time>2018-08-02T10:28:17Z</time>
      </trkpt>
      <trkpt lat="45.93313" lon="4.72549">
        <ele>172</ele>
        <time>2018-08-02T10:28:18Z</time>
      </trkpt>
      <trkpt lat="45.93308" lon="4.72555">
        <ele>172</ele>
        <time>2018-08-02T10:28:19Z</time>
      </trkpt>
      <trkpt lat="45.93302" lon="4.7256">
        <ele>172</ele>
        <time>2018-08-02T10:28:20Z</time>
      </trkpt>
      <trkpt lat="45.93299" lon="4.72564">
        <ele>172</ele>
        <time>2018-08-02T10:28:21Z</time>
      </trkpt>
      <trkpt lat="45.93294" lon="4.72573">
        <ele>171</ele>
        <time>2018-08-02T10:28:22Z</time>
      </trkpt>
      <trkpt lat="45.93288" lon="4.72578">
        <ele>171</ele>
        <time>2018-08-02T10:28:23Z</time>
      </trkpt>
      <trkpt lat="45.93285" lon="4.72588">
        <ele>170</ele>
        <time>2018-08-02T10:28:24Z</time>
      </trkpt>
      <trkpt lat="45.9328" lon="4.72594">
        <ele>170</ele>
        <time>2018-08-02T10:28:25Z</time>
      </trkpt>
      <trkpt lat="45.93274" lon="4.72598">
        <ele>170</ele>
        <time>2018-08-02T10:28:26Z</time>
      </trkpt>
      <trkpt lat="45.9327" lon="4.72603">
        <ele>170</ele>
        <time>2018-08-02T10:28:27Z</time>
      </trkpt>
      <trkpt lat="45.93263" lon="4.72605">
        <ele>170</ele>
        <time>2018-08-02T10:28:28Z</time>
      </trkpt>
      <trkpt lat="45.9326" lon="4.72611">
        <ele>170</ele>
        <time>2018-08-02T10:28:29Z</time>
      </trkpt>
      <trkpt lat="45.93255" lon="4.72616">
        <ele>170</ele>
        <time>2018-08-02T10:28:30Z</time>
      </trkpt>
      <trkpt lat="45.93251" lon="4.72621">
        <ele>170</ele>
        <time>2018-08-02T10:28:31Z</time>
      </trkpt>
      <trkpt lat="45.93246" lon="4.72624">
        <ele>170</ele>
        <time>2018-08-02T10:28:32Z</time>
      </trkpt>
      <trkpt lat="45.93243" lon="4.7263">
        <ele>170</ele>
        <time>2018-08-02T10:28:33Z</time>
      </trkpt>
      <trkpt lat="45.93239" lon="4.72637">
        <ele>170</ele>
        <time>2018-08-02T10:28:34Z</time>
      </trkpt>
      <trkpt lat="45.93236" lon="4.72644">
        <ele>170</ele>
        <time>2018-08-02T10:28:35Z</time>
      </trkpt>
      <trkpt lat="45.93233" lon="4.72648">
        <ele>170</ele>
        <time>2018-08-02T10:28:36Z</time>
      </trkpt>
      <trkpt lat="45.93229" lon="4.72654">
        <ele>170</ele>
        <time>2018-08-02T10:28:37Z</time>
      </trkpt>
      <trkpt lat="45.93223" lon="4.7266">
        <ele>170</ele>
        <time>2018-08-02T10:28:38Z</time>
      </trkpt>
      <trkpt lat="45.93219" lon="4.72664">
        <ele>170</ele>
        <time>2018-08-02T10:28:39Z</time>
      </trkpt>
      <trkpt lat="45.93214" lon="4.72669">
        <ele>169</ele>
        <time>2018-08-02T10:28:40Z</time>
      </trkpt>
      <trkpt lat="45.93209" lon="4.72673">
        <ele>169</ele>
        <time>2018-08-02T10:28:41Z</time>
      </trkpt>
      <trkpt lat="45.93205" lon="4.72678">
        <ele>169</ele>
        <time>2018-08-02T10:28:42Z</time>
      </trkpt>
      <trkpt lat="45.93199" lon="4.72682">
        <ele>169</ele>
        <time>2018-08-02T10:28:43Z</time>
      </trkpt>
      <trkpt lat="45.93195" lon="4.72687">
        <ele>169</ele>
        <time>2018-08-02T10:28:44Z</time>
      </trkpt>
      <trkpt lat="45.93191" lon="4.72691">
        <ele>169</ele>
        <time>2018-08-02T10:28:45Z</time>
      </trkpt>
      <trkpt lat="45.93185" lon="4.727">
        <ele>169</ele>
        <time>2018-08-02T10:28:46Z</time>
      </trkpt>
      <trkpt lat="45.9318" lon="4.72703">
        <ele>169</ele>
        <time>2018-08-02T10:28:47Z</time>
      </trkpt>
      <trkpt lat="45.93176" lon="4.72711">
        <ele>169</ele>
        <time>2018-08-02T10:28:48Z</time>
      </trkpt>
      <trkpt lat="45.93173" lon="4.72716">
        <ele>170</ele>
        <time>2018-08-02T10:28:49Z</time>
      </trkpt>
      <trkpt lat="45.93168" lon="4.72724">
        <ele>170</ele>
        <time>2018-08-02T10:28:50Z</time>
      </trkpt>
      <trkpt lat="45.93164" lon="4.72728">
        <ele>170</ele>
        <time>2018-08-02T10:28:51Z</time>
      </trkpt>
      <trkpt lat="45.93159" lon="4.72732">
        <ele>170</ele>
        <time>2018-08-02T10:28:52Z</time>
      </trkpt>
      <trkpt lat="45.93155" lon="4.72738">
        <ele>170</ele>
        <time>2018-08-02T10:28:53Z</time>
      </trkpt>
      <trkpt lat="45.93152" lon="4.72746">
        <ele>170</ele>
        <time>2018-08-02T10:28:54Z</time>
      </trkpt>
      <trkpt lat="45.93147" lon="4.72751">
        <ele>170</ele>
        <time>2018-08-02T10:28:55Z</time>
      </trkpt>
      <trkpt lat="45.9314" lon="4.72756">
        <ele>171</ele>
        <time>2018-08-02T10:28:56Z</time>
      </trkpt>
      <trkpt lat="45.93137" lon="4.72761">
        <ele>171</ele>
        <time>2018-08-02T10:28:57Z</time>
      </trkpt>
      <trkpt lat="45.93132" lon="4.72767">
        <ele>171</ele>
        <time>2018-08-02T10:28:58Z</time>
      </trkpt>
      <trkpt lat="45.93128" lon="4.72773">
        <ele>171</ele>
        <time>2018-08-02T10:28:59Z</time>
      </trkpt>
      <trkpt lat="45.93123" lon="4.72778">
        <ele>171</ele>
        <time>2018-08-02T10:29:00Z</time>
      </trkpt>
      <trkpt lat="45.93119" lon="4.72785">
        <ele>171</ele>
        <time>2018-08-02T10:29:01Z</time>
      </trkpt>
      <trkpt lat="45.93114" lon="4.72792">
        <ele>171</ele>
        <time>2018-08-02T10:29:02Z</time>
      </trkpt>
      <trkpt lat="45.93111" lon="4.72796">
        <ele>171</ele>
        <time>2018-08-02T10:29:03Z</time>
      </trkpt>
      <trkpt lat="45.93106" lon="4.728">
        <ele>171</ele>
        <time>2018-08-02T10:29:04Z</time>
      </trkpt>
      <trkpt lat="45.93102" lon="4.72804">
        <ele>171</ele>
        <time>2018-08-02T10:29:05Z</time>
      </trkpt>
      <trkpt lat="45.93097" lon="4.72808">
        <ele>172</ele>
        <time>2018-08-02T10:29:06Z</time>
      </trkpt>
      <trkpt lat="45.93092" lon="4.72812">
        <ele>172</ele>
        <time>2018-08-02T10:29:07Z</time>
      </trkpt>
      <trkpt lat="45.93088" lon="4.72817">
        <ele>172</ele>
        <time>2018-08-02T10:29:08Z</time>
      </trkpt>
      <trkpt lat="45.93081" lon="4.72822">
        <ele>173</ele>
        <time>2018-08-02T10:29:10Z</time>
      </trkpt>
      <trkpt lat="45.93078" lon="4.72823">
        <ele>173</ele>
        <time>2018-08-02T10:29:11Z</time>
      </trkpt>
      <trkpt lat="45.93045" lon="4.72858">
        <ele>172</ele>
        <time>2018-08-02T10:29:19Z</time>
      </trkpt>
      <trkpt lat="45.93033" lon="4.72871">
        <ele>172</ele>
        <time>2018-08-02T10:29:20Z</time>
      </trkpt>
      <trkpt lat="45.9303" lon="4.7288">
        <ele>172</ele>
        <time>2018-08-02T10:29:21Z</time>
      </trkpt>
      <trkpt lat="45.93026" lon="4.72886">
        <ele>172</ele>
        <time>2018-08-02T10:29:22Z</time>
      </trkpt>
      <trkpt lat="45.93022" lon="4.72891">
        <ele>172</ele>
        <time>2018-08-02T10:29:23Z</time>
      </trkpt>
      <trkpt lat="45.93017" lon="4.72894">
        <ele>172</ele>
        <time>2018-08-02T10:29:24Z</time>
      </trkpt>
      <trkpt lat="45.93013" lon="4.72902">
        <ele>172</ele>
        <time>2018-08-02T10:29:25Z</time>
      </trkpt>
      <trkpt lat="45.93011" lon="4.72909">
        <ele>171</ele>
        <time>2018-08-02T10:29:26Z</time>
      </trkpt>
      <trkpt lat="45.93007" lon="4.72915">
        <ele>171</ele>
        <time>2018-08-02T10:29:27Z</time>
      </trkpt>
      <trkpt lat="45.93003" lon="4.72919">
        <ele>171</ele>
        <time>2018-08-02T10:29:28Z</time>
      </trkpt>
      <trkpt lat="45.92997" lon="4.72926">
        <ele>171</ele>
        <time>2018-08-02T10:29:30Z</time>
      </trkpt>
      <trkpt lat="45.92993" lon="4.72929">
        <ele>171</ele>
        <time>2018-08-02T10:29:31Z</time>
      </trkpt>
      <trkpt lat="45.92989" lon="4.72937">
        <ele>171</ele>
        <time>2018-08-02T10:29:32Z</time>
      </trkpt>
      <trkpt lat="45.92987" lon="4.72946">
        <ele>171</ele>
        <time>2018-08-02T10:29:33Z</time>
      </trkpt>
      <trkpt lat="45.92982" lon="4.72947">
        <ele>171</ele>
        <time>2018-08-02T10:29:34Z</time>
      </trkpt>
      <trkpt lat="45.92978" lon="4.72951">
        <ele>171</ele>
        <time>2018-08-02T10:29:35Z</time>
      </trkpt>
      <trkpt lat="45.92975" lon="4.72953">
        <ele>171</ele>
        <time>2018-08-02T10:29:36Z</time>
      </trkpt>
      <trkpt lat="45.9297" lon="4.72958">
        <ele>171</ele>
        <time>2018-08-02T10:29:37Z</time>
      </trkpt>
      <trkpt lat="45.92965" lon="4.72963">
        <ele>171</ele>
        <time>2018-08-02T10:29:38Z</time>
      </trkpt>
      <trkpt lat="45.92961" lon="4.72968">
        <ele>171</ele>
        <time>2018-08-02T10:29:39Z</time>
      </trkpt>
      <trkpt lat="45.92958" lon="4.72972">
        <ele>171</ele>
        <time>2018-08-02T10:29:40Z</time>
      </trkpt>
      <trkpt lat="45.92953" lon="4.72978">
        <ele>171</ele>
        <time>2018-08-02T10:29:41Z</time>
      </trkpt>
      <trkpt lat="45.92948" lon="4.72983">
        <ele>171</ele>
        <time>2018-08-02T10:29:42Z</time>
      </trkpt>
      <trkpt lat="45.92944" lon="4.72989">
        <ele>171</ele>
        <time>2018-08-02T10:29:43Z</time>
      </trkpt>
      <trkpt lat="45.92939" lon="4.72992">
        <ele>171</ele>
        <time>2018-08-02T10:29:44Z</time>
      </trkpt>
      <trkpt lat="45.92935" lon="4.72993">
        <ele>172</ele>
        <time>2018-08-02T10:29:45Z</time>
      </trkpt>
      <trkpt lat="45.92931" lon="4.72996">
        <ele>172</ele>
        <time>2018-08-02T10:29:46Z</time>
      </trkpt>
      <trkpt lat="45.92927" lon="4.73003">
        <ele>172</ele>
        <time>2018-08-02T10:29:47Z</time>
      </trkpt>
      <trkpt lat="45.92922" lon="4.73012">
        <ele>172</ele>
        <time>2018-08-02T10:29:49Z</time>
      </trkpt>
      <trkpt lat="45.92918" lon="4.73018">
        <ele>172</ele>
        <time>2018-08-02T10:29:50Z</time>
      </trkpt>
      <trkpt lat="45.92914" lon="4.73022">
        <ele>172</ele>
        <time>2018-08-02T10:29:51Z</time>
      </trkpt>
      <trkpt lat="45.92909" lon="4.7303">
        <ele>172</ele>
        <time>2018-08-02T10:29:52Z</time>
      </trkpt>
      <trkpt lat="45.92907" lon="4.73035">
        <ele>172</ele>
        <time>2018-08-02T10:29:53Z</time>
      </trkpt>
      <trkpt lat="45.92903" lon="4.73039">
        <ele>172</ele>
        <time>2018-08-02T10:29:54Z</time>
      </trkpt>
      <trkpt lat="45.92899" lon="4.73044">
        <ele>172</ele>
        <time>2018-08-02T10:29:55Z</time>
      </trkpt>
      <trkpt lat="45.92896" lon="4.73051">
        <ele>172</ele>
        <time>2018-08-02T10:29:56Z</time>
      </trkpt>
      <trkpt lat="45.92893" lon="4.73057">
        <ele>172</ele>
        <time>2018-08-02T10:29:57Z</time>
      </trkpt>
      <trkpt lat="45.9289" lon="4.73062">
        <ele>172</ele>
        <time>2018-08-02T10:29:58Z</time>
      </trkpt>
      <trkpt lat="45.92882" lon="4.73069">
        <ele>172</ele>
        <time>2018-08-02T10:30:00Z</time>
      </trkpt>
      <trkpt lat="45.92879" lon="4.73073">
        <ele>172</ele>
        <time>2018-08-02T10:30:01Z</time>
      </trkpt>
      <trkpt lat="45.92872" lon="4.73077">
        <ele>172</ele>
        <time>2018-08-02T10:30:03Z</time>
      </trkpt>
      <trkpt lat="45.92869" lon="4.73082">
        <ele>172</ele>
        <time>2018-08-02T10:30:04Z</time>
      </trkpt>
      <trkpt lat="45.92865" lon="4.73086">
        <ele>172</ele>
        <time>2018-08-02T10:30:05Z</time>
      </trkpt>
      <trkpt lat="45.92861" lon="4.73091">
        <ele>171</ele>
        <time>2018-08-02T10:30:06Z</time>
      </trkpt>
      <trkpt lat="45.92855" lon="4.73098">
        <ele>171</ele>
        <time>2018-08-02T10:30:08Z</time>
      </trkpt>
      <trkpt lat="45.92851" lon="4.73099">
        <ele>171</ele>
        <time>2018-08-02T10:30:09Z</time>
      </trkpt>
      <trkpt lat="45.92847" lon="4.73097">
        <ele>171</ele>
        <time>2018-08-02T10:30:10Z</time>
      </trkpt>
      <trkpt lat="45.92849" lon="4.73085">
        <ele>171</ele>
        <time>2018-08-02T10:30:11Z</time>
      </trkpt>
      <trkpt lat="45.92847" lon="4.73077">
        <ele>171</ele>
        <time>2018-08-02T10:30:12Z</time>
      </trkpt>
      <trkpt lat="45.92844" lon="4.73069">
        <ele>171</ele>
        <time>2018-08-02T10:30:13Z</time>
      </trkpt>
      <trkpt lat="45.92843" lon="4.7306">
        <ele>171</ele>
        <time>2018-08-02T10:30:14Z</time>
      </trkpt>
      <trkpt lat="45.92841" lon="4.73051">
        <ele>171</ele>
        <time>2018-08-02T10:30:15Z</time>
      </trkpt>
      <trkpt lat="45.92838" lon="4.73044">
        <ele>171</ele>
        <time>2018-08-02T10:30:16Z</time>
      </trkpt>
      <trkpt lat="45.92837" lon="4.73037">
        <ele>171</ele>
        <time>2018-08-02T10:30:17Z</time>
      </trkpt>
      <trkpt lat="45.92836" lon="4.7303">
        <ele>171</ele>
        <time>2018-08-02T10:30:18Z</time>
      </trkpt>
      <trkpt lat="45.92836" lon="4.73023">
        <ele>171</ele>
        <time>2018-08-02T10:30:19Z</time>
      </trkpt>
      <trkpt lat="45.92835" lon="4.73017">
        <ele>171</ele>
        <time>2018-08-02T10:30:20Z</time>
      </trkpt>
      <trkpt lat="45.92834" lon="4.7301">
        <ele>170</ele>
        <time>2018-08-02T10:30:21Z</time>
      </trkpt>
      <trkpt lat="45.92832" lon="4.73002">
        <ele>170</ele>
        <time>2018-08-02T10:30:22Z</time>
      </trkpt>
      <trkpt lat="45.92832" lon="4.72995">
        <ele>170</ele>
        <time>2018-08-02T10:30:23Z</time>
      </trkpt>
      <trkpt lat="45.92831" lon="4.72987">
        <ele>170</ele>
        <time>2018-08-02T10:30:24Z</time>
      </trkpt>
      <trkpt lat="45.92833" lon="4.72982">
        <ele>170</ele>
        <time>2018-08-02T10:30:25Z</time>
      </trkpt>
      <trkpt lat="45.92832" lon="4.72974">
        <ele>170</ele>
        <time>2018-08-02T10:30:26Z</time>
      </trkpt>
      <trkpt lat="45.92828" lon="4.72962">
        <ele>170</ele>
        <time>2018-08-02T10:30:27Z</time>
      </trkpt>
      <trkpt lat="45.92827" lon="4.72955">
        <ele>170</ele>
        <time>2018-08-02T10:30:28Z</time>
      </trkpt>
      <trkpt lat="45.92827" lon="4.72948">
        <ele>170</ele>
        <time>2018-08-02T10:30:29Z</time>
      </trkpt>
      <trkpt lat="45.92828" lon="4.72942">
        <ele>170</ele>
        <time>2018-08-02T10:30:30Z</time>
      </trkpt>
      <trkpt lat="45.92827" lon="4.72935">
        <ele>170</ele>
        <time>2018-08-02T10:30:31Z</time>
      </trkpt>
      <trkpt lat="45.92827" lon="4.72926">
        <ele>170</ele>
        <time>2018-08-02T10:30:32Z</time>
      </trkpt>
      <trkpt lat="45.92827" lon="4.7292">
        <ele>170</ele>
        <time>2018-08-02T10:30:33Z</time>
      </trkpt>
      <trkpt lat="45.92826" lon="4.72913">
        <ele>170</ele>
        <time>2018-08-02T10:30:34Z</time>
      </trkpt>
      <trkpt lat="45.92825" lon="4.72906">
        <ele>170</ele>
        <time>2018-08-02T10:30:35Z</time>
      </trkpt>
      <trkpt lat="45.92824" lon="4.72894">
        <ele>170</ele>
        <time>2018-08-02T10:30:37Z</time>
      </trkpt>
      <trkpt lat="45.92821" lon="4.72888">
        <ele>170</ele>
        <time>2018-08-02T10:30:38Z</time>
      </trkpt>
      <trkpt lat="45.92818" lon="4.72882">
        <ele>170</ele>
        <time>2018-08-02T10:30:39Z</time>
      </trkpt>
      <trkpt lat="45.92816" lon="4.72877">
        <ele>170</ele>
        <time>2018-08-02T10:30:40Z</time>
      </trkpt>
      <trkpt lat="45.92813" lon="4.72869">
        <ele>170</ele>
        <time>2018-08-02T10:30:41Z</time>
      </trkpt>
      <trkpt lat="45.92812" lon="4.72861">
        <ele>170</ele>
        <time>2018-08-02T10:30:42Z</time>
      </trkpt>
      <trkpt lat="45.92805" lon="4.72853">
        <ele>170</ele>
        <time>2018-08-02T10:30:43Z</time>
      </trkpt>
      <trkpt lat="45.92811" lon="4.72846">
        <ele>170</ele>
        <time>2018-08-02T10:30:44Z</time>
      </trkpt>
      <trkpt lat="45.92813" lon="4.72839">
        <ele>170</ele>
        <time>2018-08-02T10:30:45Z</time>
      </trkpt>
      <trkpt lat="45.92811" lon="4.72831">
        <ele>171</ele>
        <time>2018-08-02T10:30:46Z</time>
      </trkpt>
      <trkpt lat="45.92807" lon="4.72825">
        <ele>171</ele>
        <time>2018-08-02T10:30:47Z</time>
      </trkpt>
      <trkpt lat="45.92807" lon="4.72813">
        <ele>171</ele>
        <time>2018-08-02T10:30:49Z</time>
      </trkpt>
      <trkpt lat="45.92804" lon="4.72806">
        <ele>171</ele>
        <time>2018-08-02T10:30:50Z</time>
      </trkpt>
      <trkpt lat="45.92802" lon="4.72795">
        <ele>171</ele>
        <time>2018-08-02T10:30:52Z</time>
      </trkpt>
      <trkpt lat="45.92798" lon="4.72789">
        <ele>171</ele>
        <time>2018-08-02T10:30:53Z</time>
      </trkpt>
      <trkpt lat="45.9279" lon="4.7279">
        <ele>171</ele>
        <time>2018-08-02T10:30:56Z</time>
      </trkpt>
      <trkpt lat="45.92786" lon="4.72791">
        <ele>170</ele>
        <time>2018-08-02T10:30:57Z</time>
      </trkpt>
      <trkpt lat="45.92778" lon="4.72795">
        <ele>170</ele>
        <time>2018-08-02T10:30:59Z</time>
      </trkpt>
      <trkpt lat="45.92773" lon="4.728">
        <ele>170</ele>
        <time>2018-08-02T10:31:00Z</time>
      </trkpt>
      <trkpt lat="45.92769" lon="4.72802">
        <ele>170</ele>
        <time>2018-08-02T10:31:01Z</time>
      </trkpt>
      <trkpt lat="45.92765" lon="4.72805">
        <ele>170</ele>
        <time>2018-08-02T10:31:02Z</time>
      </trkpt>
      <trkpt lat="45.92761" lon="4.72805">
        <ele>170</ele>
        <time>2018-08-02T10:31:03Z</time>
      </trkpt>
      <trkpt lat="45.92754" lon="4.7281">
        <ele>170</ele>
        <time>2018-08-02T10:31:04Z</time>
      </trkpt>
      <trkpt lat="45.92747" lon="4.72815">
        <ele>170</ele>
        <time>2018-08-02T10:31:05Z</time>
      </trkpt>
      <trkpt lat="45.92743" lon="4.72819">
        <ele>169</ele>
        <time>2018-08-02T10:31:06Z</time>
      </trkpt>
      <trkpt lat="45.92737" lon="4.72822">
        <ele>169</ele>
        <time>2018-08-02T10:31:07Z</time>
      </trkpt>
      <trkpt lat="45.92731" lon="4.72828">
        <ele>170</ele>
        <time>2018-08-02T10:31:08Z</time>
      </trkpt>
      <trkpt lat="45.92725" lon="4.72831">
        <ele>170</ele>
        <time>2018-08-02T10:31:09Z</time>
      </trkpt>
      <trkpt lat="45.9272" lon="4.72835">
        <ele>169</ele>
        <time>2018-08-02T10:31:10Z</time>
      </trkpt>
      <trkpt lat="45.92716" lon="4.72841">
        <ele>169</ele>
        <time>2018-08-02T10:31:11Z</time>
      </trkpt>
      <trkpt lat="45.92711" lon="4.72847">
        <ele>169</ele>
        <time>2018-08-02T10:31:12Z</time>
      </trkpt>
      <trkpt lat="45.92706" lon="4.72851">
        <ele>169</ele>
        <time>2018-08-02T10:31:13Z</time>
      </trkpt>
      <trkpt lat="45.92702" lon="4.72855">
        <ele>169</ele>
        <time>2018-08-02T10:31:14Z</time>
      </trkpt>
      <trkpt lat="45.92697" lon="4.72856">
        <ele>169</ele>
        <time>2018-08-02T10:31:15Z</time>
      </trkpt>
      <trkpt lat="45.92693" lon="4.72859">
        <ele>169</ele>
        <time>2018-08-02T10:31:16Z</time>
      </trkpt>
      <trkpt lat="45.92689" lon="4.72863">
        <ele>169</ele>
        <time>2018-08-02T10:31:17Z</time>
      </trkpt>
      <trkpt lat="45.92685" lon="4.72867">
        <ele>169</ele>
        <time>2018-08-02T10:31:18Z</time>
      </trkpt>
      <trkpt lat="45.9268" lon="4.72868">
        <ele>169</ele>
        <time>2018-08-02T10:31:19Z</time>
      </trkpt>
      <trkpt lat="45.92675" lon="4.72874">
        <ele>169</ele>
        <time>2018-08-02T10:31:20Z</time>
      </trkpt>
      <trkpt lat="45.9267" lon="4.72881">
        <ele>170</ele>
        <time>2018-08-02T10:31:21Z</time>
      </trkpt>
      <trkpt lat="45.92665" lon="4.72881">
        <ele>169</ele>
        <time>2018-08-02T10:31:22Z</time>
      </trkpt>
      <trkpt lat="45.92659" lon="4.72885">
        <ele>169</ele>
        <time>2018-08-02T10:31:23Z</time>
      </trkpt>
      <trkpt lat="45.92653" lon="4.72894">
        <ele>169</ele>
        <time>2018-08-02T10:31:24Z</time>
      </trkpt>
      <trkpt lat="45.92648" lon="4.72898">
        <ele>169</ele>
        <time>2018-08-02T10:31:25Z</time>
      </trkpt>
      <trkpt lat="45.92643" lon="4.72901">
        <ele>169</ele>
        <time>2018-08-02T10:31:26Z</time>
      </trkpt>
      <trkpt lat="45.92638" lon="4.72908">
        <ele>169</ele>
        <time>2018-08-02T10:31:27Z</time>
      </trkpt>
      <trkpt lat="45.92633" lon="4.72911">
        <ele>169</ele>
        <time>2018-08-02T10:31:28Z</time>
      </trkpt>
      <trkpt lat="45.92629" lon="4.72917">
        <ele>170</ele>
        <time>2018-08-02T10:31:29Z</time>
      </trkpt>
      <trkpt lat="45.92624" lon="4.72921">
        <ele>169</ele>
        <time>2018-08-02T10:31:30Z</time>
      </trkpt>
      <trkpt lat="45.92619" lon="4.72924">
        <ele>169</ele>
        <time>2018-08-02T10:31:31Z</time>
      </trkpt>
      <trkpt lat="45.92614" lon="4.72931">
        <ele>169</ele>
        <time>2018-08-02T10:31:32Z</time>
      </trkpt>
      <trkpt lat="45.92609" lon="4.72936">
        <ele>169</ele>
        <time>2018-08-02T10:31:33Z</time>
      </trkpt>
      <trkpt lat="45.92605" lon="4.7294">
        <ele>169</ele>
        <time>2018-08-02T10:31:34Z</time>
      </trkpt>
      <trkpt lat="45.92601" lon="4.72943">
        <ele>169</ele>
        <time>2018-08-02T10:31:35Z</time>
      </trkpt>
      <trkpt lat="45.92597" lon="4.7295">
        <ele>169</ele>
        <time>2018-08-02T10:31:36Z</time>
      </trkpt>
      <trkpt lat="45.92594" lon="4.72954">
        <ele>169</ele>
        <time>2018-08-02T10:31:37Z</time>
      </trkpt>
      <trkpt lat="45.9259" lon="4.72958">
        <ele>169</ele>
        <time>2018-08-02T10:31:38Z</time>
      </trkpt>
      <trkpt lat="45.92587" lon="4.72962">
        <ele>169</ele>
        <time>2018-08-02T10:31:39Z</time>
      </trkpt>
      <trkpt lat="45.92582" lon="4.72965">
        <ele>169</ele>
        <time>2018-08-02T10:31:40Z</time>
      </trkpt>
      <trkpt lat="45.92578" lon="4.72967">
        <ele>169</ele>
        <time>2018-08-02T10:31:41Z</time>
      </trkpt>
      <trkpt lat="45.92573" lon="4.72972">
        <ele>169</ele>
        <time>2018-08-02T10:31:42Z</time>
      </trkpt>
      <trkpt lat="45.92569" lon="4.72978">
        <ele>169</ele>
        <time>2018-08-02T10:31:43Z</time>
      </trkpt>
      <trkpt lat="45.92563" lon="4.72983">
        <ele>169</ele>
        <time>2018-08-02T10:31:44Z</time>
      </trkpt>
      <trkpt lat="45.92558" lon="4.72989">
        <ele>169</ele>
        <time>2018-08-02T10:31:45Z</time>
      </trkpt>
      <trkpt lat="45.92552" lon="4.72995">
        <ele>169</ele>
        <time>2018-08-02T10:31:46Z</time>
      </trkpt>
      <trkpt lat="45.92547" lon="4.72998">
        <ele>169</ele>
        <time>2018-08-02T10:31:47Z</time>
      </trkpt>
      <trkpt lat="45.92542" lon="4.73004">
        <ele>169</ele>
        <time>2018-08-02T10:31:48Z</time>
      </trkpt>
      <trkpt lat="45.92537" lon="4.73009">
        <ele>169</ele>
        <time>2018-08-02T10:31:49Z</time>
      </trkpt>
      <trkpt lat="45.92533" lon="4.73014">
        <ele>169</ele>
        <time>2018-08-02T10:31:50Z</time>
      </trkpt>
      <trkpt lat="45.92527" lon="4.73019">
        <ele>169</ele>
        <time>2018-08-02T10:31:51Z</time>
      </trkpt>
      <trkpt lat="45.92522" lon="4.73024">
        <ele>169</ele>
        <time>2018-08-02T10:31:52Z</time>
      </trkpt>
      <trkpt lat="45.92518" lon="4.73027">
        <ele>169</ele>
        <time>2018-08-02T10:31:53Z</time>
      </trkpt>
      <trkpt lat="45.92514" lon="4.73031">
        <ele>169</ele>
        <time>2018-08-02T10:31:54Z</time>
      </trkpt>
      <trkpt lat="45.92509" lon="4.73035">
        <ele>169</ele>
        <time>2018-08-02T10:31:55Z</time>
      </trkpt>
      <trkpt lat="45.92504" lon="4.73038">
        <ele>169</ele>
        <time>2018-08-02T10:31:56Z</time>
      </trkpt>
      <trkpt lat="45.925" lon="4.73041">
        <ele>170</ele>
        <time>2018-08-02T10:31:57Z</time>
      </trkpt>
      <trkpt lat="45.92496" lon="4.73046">
        <ele>170</ele>
        <time>2018-08-02T10:31:58Z</time>
      </trkpt>
      <trkpt lat="45.92491" lon="4.7305">
        <ele>170</ele>
        <time>2018-08-02T10:31:59Z</time>
      </trkpt>
      <trkpt lat="45.92487" lon="4.73054">
        <ele>170</ele>
        <time>2018-08-02T10:32:00Z</time>
      </trkpt>
      <trkpt lat="45.92483" lon="4.73057">
        <ele>170</ele>
        <time>2018-08-02T10:32:01Z</time>
      </trkpt>
      <trkpt lat="45.92479" lon="4.73061">
        <ele>170</ele>
        <time>2018-08-02T10:32:02Z</time>
      </trkpt>
      <trkpt lat="45.92474" lon="4.73064">
        <ele>170</ele>
        <time>2018-08-02T10:32:03Z</time>
      </trkpt>
      <trkpt lat="45.92471" lon="4.73068">
        <ele>170</ele>
        <time>2018-08-02T10:32:04Z</time>
      </trkpt>
      <trkpt lat="45.92466" lon="4.73073">
        <ele>170</ele>
        <time>2018-08-02T10:32:05Z</time>
      </trkpt>
      <trkpt lat="45.92461" lon="4.73078">
        <ele>170</ele>
        <time>2018-08-02T10:32:06Z</time>
      </trkpt>
      <trkpt lat="45.92455" lon="4.73084">
        <ele>170</ele>
        <time>2018-08-02T10:32:07Z</time>
      </trkpt>
      <trkpt lat="45.9245" lon="4.73087">
        <ele>170</ele>
        <time>2018-08-02T10:32:08Z</time>
      </trkpt>
      <trkpt lat="45.92446" lon="4.73091">
        <ele>170</ele>
        <time>2018-08-02T10:32:09Z</time>
      </trkpt>
      <trkpt lat="45.92441" lon="4.73094">
        <ele>170</ele>
        <time>2018-08-02T10:32:10Z</time>
      </trkpt>
      <trkpt lat="45.92436" lon="4.73098">
        <ele>171</ele>
        <time>2018-08-02T10:32:11Z</time>
      </trkpt>
      <trkpt lat="45.92431" lon="4.73101">
        <ele>171</ele>
        <time>2018-08-02T10:32:12Z</time>
      </trkpt>
      <trkpt lat="45.92423" lon="4.73106">
        <ele>171</ele>
        <time>2018-08-02T10:32:14Z</time>
      </trkpt>
      <trkpt lat="45.9242" lon="4.73112">
        <ele>170</ele>
        <time>2018-08-02T10:32:15Z</time>
      </trkpt>
      <trkpt lat="45.92416" lon="4.73116">
        <ele>171</ele>
        <time>2018-08-02T10:32:16Z</time>
      </trkpt>
      <trkpt lat="45.92412" lon="4.73118">
        <ele>171</ele>
        <time>2018-08-02T10:32:17Z</time>
      </trkpt>
      <trkpt lat="45.92409" lon="4.73125">
        <ele>171</ele>
        <time>2018-08-02T10:32:18Z</time>
      </trkpt>
      <trkpt lat="45.92408" lon="4.73132">
        <ele>171</ele>
        <time>2018-08-02T10:32:19Z</time>
      </trkpt>
      <trkpt lat="45.92408" lon="4.73138">
        <ele>171</ele>
        <time>2018-08-02T10:32:20Z</time>
      </trkpt>
      <trkpt lat="45.92407" lon="4.73146">
        <ele>171</ele>
        <time>2018-08-02T10:32:21Z</time>
      </trkpt>
      <trkpt lat="45.92407" lon="4.73153">
        <ele>171</ele>
        <time>2018-08-02T10:32:22Z</time>
      </trkpt>
      <trkpt lat="45.92407" lon="4.73162">
        <ele>170</ele>
        <time>2018-08-02T10:32:23Z</time>
      </trkpt>
      <trkpt lat="45.92407" lon="4.7317">
        <ele>170</ele>
        <time>2018-08-02T10:32:24Z</time>
      </trkpt>
      <trkpt lat="45.92408" lon="4.73178">
        <ele>171</ele>
        <time>2018-08-02T10:32:25Z</time>
      </trkpt>
      <trkpt lat="45.92408" lon="4.73186">
        <ele>171</ele>
        <time>2018-08-02T10:32:26Z</time>
      </trkpt>
      <trkpt lat="45.92408" lon="4.73195">
        <ele>171</ele>
        <time>2018-08-02T10:32:27Z</time>
      </trkpt>
      <trkpt lat="45.92409" lon="4.73204">
        <ele>171</ele>
        <time>2018-08-02T10:32:28Z</time>
      </trkpt>
      <trkpt lat="45.92409" lon="4.73212">
        <ele>171</ele>
        <time>2018-08-02T10:32:29Z</time>
      </trkpt>
      <trkpt lat="45.9241" lon="4.73221">
        <ele>171</ele>
        <time>2018-08-02T10:32:30Z</time>
      </trkpt>
      <trkpt lat="45.92411" lon="4.73229">
        <ele>171</ele>
        <time>2018-08-02T10:32:31Z</time>
      </trkpt>
      <trkpt lat="45.92412" lon="4.73237">
        <ele>171</ele>
        <time>2018-08-02T10:32:32Z</time>
      </trkpt>
      <trkpt lat="45.92414" lon="4.73245">
        <ele>171</ele>
        <time>2018-08-02T10:32:33Z</time>
      </trkpt>
      <trkpt lat="45.92416" lon="4.73253">
        <ele>171</ele>
        <time>2018-08-02T10:32:34Z</time>
      </trkpt>
      <trkpt lat="45.92416" lon="4.73261">
        <ele>171</ele>
        <time>2018-08-02T10:32:35Z</time>
      </trkpt>
      <trkpt lat="45.92417" lon="4.73268">
        <ele>171</ele>
        <time>2018-08-02T10:32:36Z</time>
      </trkpt>
      <trkpt lat="45.92418" lon="4.73275">
        <ele>171</ele>
        <time>2018-08-02T10:32:37Z</time>
      </trkpt>
      <trkpt lat="45.92418" lon="4.73284">
        <ele>171</ele>
        <time>2018-08-02T10:32:38Z</time>
      </trkpt>
      <trkpt lat="45.92418" lon="4.73291">
        <ele>171</ele>
        <time>2018-08-02T10:32:39Z</time>
      </trkpt>
      <trkpt lat="45.92418" lon="4.73299">
        <ele>171</ele>
        <time>2018-08-02T10:32:40Z</time>
      </trkpt>
      <trkpt lat="45.92418" lon="4.73307">
        <ele>171</ele>
        <time>2018-08-02T10:32:41Z</time>
      </trkpt>
      <trkpt lat="45.92419" lon="4.73316">
        <ele>171</ele>
        <time>2018-08-02T10:32:42Z</time>
      </trkpt>
      <trkpt lat="45.92419" lon="4.73324">
        <ele>171</ele>
        <time>2018-08-02T10:32:43Z</time>
      </trkpt>
      <trkpt lat="45.92419" lon="4.73332">
        <ele>171</ele>
        <time>2018-08-02T10:32:44Z</time>
      </trkpt>
      <trkpt lat="45.92419" lon="4.7334">
        <ele>171</ele>
        <time>2018-08-02T10:32:45Z</time>
      </trkpt>
      <trkpt lat="45.9242" lon="4.73349">
        <ele>171</ele>
        <time>2018-08-02T10:32:46Z</time>
      </trkpt>
      <trkpt lat="45.92421" lon="4.73355">
        <ele>171</ele>
        <time>2018-08-02T10:32:47Z</time>
      </trkpt>
      <trkpt lat="45.92422" lon="4.73364">
        <ele>172</ele>
        <time>2018-08-02T10:32:48Z</time>
      </trkpt>
      <trkpt lat="45.92423" lon="4.73372">
        <ele>172</ele>
        <time>2018-08-02T10:32:49Z</time>
      </trkpt>
      <trkpt lat="45.92425" lon="4.73379">
        <ele>172</ele>
        <time>2018-08-02T10:32:50Z</time>
      </trkpt>
      <trkpt lat="45.92426" lon="4.73386">
        <ele>172</ele>
        <time>2018-08-02T10:32:51Z</time>
      </trkpt>
      <trkpt lat="45.92428" lon="4.73396">
        <ele>172</ele>
        <time>2018-08-02T10:32:53Z</time>
      </trkpt>
      <trkpt lat="45.92431" lon="4.73402">
        <ele>172</ele>
        <time>2018-08-02T10:32:54Z</time>
      </trkpt>
      <trkpt lat="45.92436" lon="4.7341">
        <ele>172</ele>
        <time>2018-08-02T10:32:56Z</time>
      </trkpt>
      <trkpt lat="45.92438" lon="4.73412">
        <ele>172</ele>
        <time>2018-08-02T10:32:57Z</time>
      </trkpt>
      <trkpt lat="45.92446" lon="4.73417">
        <ele>172</ele>
        <time>2018-08-02T10:32:59Z</time>
      </trkpt>
      <trkpt lat="45.9245" lon="4.7342">
        <ele>173</ele>
        <time>2018-08-02T10:33:00Z</time>
      </trkpt>
      <trkpt lat="45.92456" lon="4.73428">
        <ele>173</ele>
        <time>2018-08-02T10:33:02Z</time>
      </trkpt>
      <trkpt lat="45.92459" lon="4.73434">
        <ele>173</ele>
        <time>2018-08-02T10:33:03Z</time>
      </trkpt>
      <trkpt lat="45.92462" lon="4.73445">
        <ele>173</ele>
        <time>2018-08-02T10:33:05Z</time>
      </trkpt>
      <trkpt lat="45.92463" lon="4.73451">
        <ele>173</ele>
        <time>2018-08-02T10:33:06Z</time>
      </trkpt>
      <trkpt lat="45.92463" lon="4.73463">
        <ele>173</ele>
        <time>2018-08-02T10:33:08Z</time>
      </trkpt>
      <trkpt lat="45.92468" lon="4.73475">
        <ele>173</ele>
        <time>2018-08-02T10:33:09Z</time>
      </trkpt>
      <trkpt lat="45.92469" lon="4.73483">
        <ele>173</ele>
        <time>2018-08-02T10:33:10Z</time>
      </trkpt>
      <trkpt lat="45.9247" lon="4.7349">
        <ele>173</ele>
        <time>2018-08-02T10:33:11Z</time>
      </trkpt>
      <trkpt lat="45.92468" lon="4.73496">
        <ele>173</ele>
        <time>2018-08-02T10:33:12Z</time>
      </trkpt>
      <trkpt lat="45.92467" lon="4.73502">
        <ele>174</ele>
        <time>2018-08-02T10:33:13Z</time>
      </trkpt>
      <trkpt lat="45.92467" lon="4.7351">
        <ele>174</ele>
        <time>2018-08-02T10:33:14Z</time>
      </trkpt>
      <trkpt lat="45.92466" lon="4.73518">
        <ele>174</ele>
        <time>2018-08-02T10:33:15Z</time>
      </trkpt>
      <trkpt lat="45.92467" lon="4.73524">
        <ele>174</ele>
        <time>2018-08-02T10:33:16Z</time>
      </trkpt>
      <trkpt lat="45.92466" lon="4.73531">
        <ele>174</ele>
        <time>2018-08-02T10:33:17Z</time>
      </trkpt>
      <trkpt lat="45.92466" lon="4.7354">
        <ele>174</ele>
        <time>2018-08-02T10:33:19Z</time>
      </trkpt>
      <trkpt lat="45.92466" lon="4.73548">
        <ele>173</ele>
        <time>2018-08-02T10:33:20Z</time>
      </trkpt>
      <trkpt lat="45.92465" lon="4.73559">
        <ele>173</ele>
        <time>2018-08-02T10:33:22Z</time>
      </trkpt>
      <trkpt lat="45.92464" lon="4.73565">
        <ele>173</ele>
        <time>2018-08-02T10:33:23Z</time>
      </trkpt>
      <trkpt lat="45.92462" lon="4.73576">
        <ele>173</ele>
        <time>2018-08-02T10:33:25Z</time>
      </trkpt>
      <trkpt lat="45.92463" lon="4.73585">
        <ele>174</ele>
        <time>2018-08-02T10:33:26Z</time>
      </trkpt>
      <trkpt lat="45.92466" lon="4.73592">
        <ele>174</ele>
        <time>2018-08-02T10:33:27Z</time>
      </trkpt>
      <trkpt lat="45.92466" lon="4.73599">
        <ele>174</ele>
        <time>2018-08-02T10:33:28Z</time>
      </trkpt>
      <trkpt lat="45.92466" lon="4.73607">
        <ele>174</ele>
        <time>2018-08-02T10:33:29Z</time>
      </trkpt>
      <trkpt lat="45.92465" lon="4.73613">
        <ele>174</ele>
        <time>2018-08-02T10:33:30Z</time>
      </trkpt>
      <trkpt lat="45.92466" lon="4.7362">
        <ele>174</ele>
        <time>2018-08-02T10:33:31Z</time>
      </trkpt>
      <trkpt lat="45.92466" lon="4.73627">
        <ele>174</ele>
        <time>2018-08-02T10:33:32Z</time>
      </trkpt>
      <trkpt lat="45.92466" lon="4.73635">
        <ele>174</ele>
        <time>2018-08-02T10:33:33Z</time>
      </trkpt>
      <trkpt lat="45.92466" lon="4.73642">
        <ele>174</ele>
        <time>2018-08-02T10:33:34Z</time>
      </trkpt>
      <trkpt lat="45.92466" lon="4.73648">
        <ele>174</ele>
        <time>2018-08-02T10:33:35Z</time>
      </trkpt>
      <trkpt lat="45.9247" lon="4.73659">
        <ele>174</ele>
        <time>2018-08-02T10:33:36Z</time>
      </trkpt>
      <trkpt lat="45.92467" lon="4.73671">
        <ele>174</ele>
        <time>2018-08-02T10:33:38Z</time>
      </trkpt>
      <trkpt lat="45.92466" lon="4.73677">
        <ele>174</ele>
        <time>2018-08-02T10:33:39Z</time>
      </trkpt>
      <trkpt lat="45.92466" lon="4.73689">
        <ele>174</ele>
        <time>2018-08-02T10:33:41Z</time>
      </trkpt>
      <trkpt lat="45.92465" lon="4.73694">
        <ele>174</ele>
        <time>2018-08-02T10:33:42Z</time>
      </trkpt>
      <trkpt lat="45.92466" lon="4.73707">
        <ele>174</ele>
        <time>2018-08-02T10:33:52Z</time>
      </trkpt>
      <trkpt lat="45.92467" lon="4.73707">
        <ele>174</ele>
        <time>2018-08-02T10:33:53Z</time>
      </trkpt>
      <trkpt lat="45.92466" lon="4.73709">
        <ele>174</ele>
        <time>2018-08-02T10:34:17Z</time>
      </trkpt>
      <trkpt lat="45.92465" lon="4.7371">
        <ele>174</ele>
        <time>2018-08-02T10:34:18Z</time>
      </trkpt>
      <trkpt lat="45.92458" lon="4.73713">
        <ele>174</ele>
        <time>2018-08-02T10:34:29.598Z</time>
      </trkpt>
    </trkseg>
  </trk>
</gpx>